<?xml version="1.0" encoding="UTF-8" standalone="no" ?>
<gpx xmlns="http://www.topografix.com/GPX/1/1" xmlns:xsi="http://www.w3.org/2001/XMLSchema-instance" xsi:schemaLocation="http://www.topografix.com/GPX/1/1 http://www.topografix.com/GPX/1/1/gpx.xsd" version="1.1" creator="VisuGPX - https://www.visugpx.com">
  <metadata>
    <name>ainsa</name>
  </metadata>
  <trk>
    <name><![CDATA[Zona zéro 10 et variante18]]></name>
    <extensions>
      <line xmlns="http://www.topografix.com/GPX/gpx_style/0/2">
        <color>FF0000</color>
        <width>4</width>
      </line>
    </extensions>
    <trkseg>
      <trkpt lat="42.44342" lon="0.06576">
        <ele>601.7</ele>
        <time>2016-07-31T07:35:15Z</time>
      </trkpt>
      <trkpt lat="42.44335" lon="0.0657">
        <ele>602.6</ele>
        <time>2016-07-31T07:38:06Z</time>
      </trkpt>
      <trkpt lat="42.44333" lon="0.06574">
        <ele>602.5</ele>
        <time>2016-07-31T07:38:28Z</time>
      </trkpt>
      <trkpt lat="42.44329" lon="0.06574">
        <ele>602.8</ele>
        <time>2016-07-31T07:38:45Z</time>
      </trkpt>
      <trkpt lat="42.44328" lon="0.06568">
        <ele>603.3</ele>
        <time>2016-07-31T07:39:48Z</time>
      </trkpt>
      <trkpt lat="42.44329" lon="0.06563">
        <ele>603.6</ele>
        <time>2016-07-31T07:39:50Z</time>
      </trkpt>
      <trkpt lat="42.4433" lon="0.06558">
        <ele>603.9</ele>
        <time>2016-07-31T07:39:52Z</time>
      </trkpt>
      <trkpt lat="42.44333" lon="0.06554">
        <ele>604.1</ele>
        <time>2016-07-31T07:39:54Z</time>
      </trkpt>
      <trkpt lat="42.44337" lon="0.0655">
        <ele>604.2</ele>
        <time>2016-07-31T07:39:56Z</time>
      </trkpt>
      <trkpt lat="42.44339" lon="0.06548">
        <ele>604.1</ele>
        <time>2016-07-31T07:39:57Z</time>
      </trkpt>
      <trkpt lat="42.44342" lon="0.06547">
        <ele>603.9</ele>
        <time>2016-07-31T07:39:58Z</time>
      </trkpt>
      <trkpt lat="42.44347" lon="0.06546">
        <ele>603.7</ele>
        <time>2016-07-31T07:40:00Z</time>
      </trkpt>
      <trkpt lat="42.4435" lon="0.06545">
        <ele>603.6</ele>
        <time>2016-07-31T07:40:01Z</time>
      </trkpt>
      <trkpt lat="42.44353" lon="0.06543">
        <ele>603.5</ele>
        <time>2016-07-31T07:40:02Z</time>
      </trkpt>
      <trkpt lat="42.44357" lon="0.06541">
        <ele>603.4</ele>
        <time>2016-07-31T07:40:04Z</time>
      </trkpt>
      <trkpt lat="42.44361" lon="0.06538">
        <ele>603.5</ele>
        <time>2016-07-31T07:40:06Z</time>
      </trkpt>
      <trkpt lat="42.44365" lon="0.06536">
        <ele>603.7</ele>
        <time>2016-07-31T07:40:08Z</time>
      </trkpt>
      <trkpt lat="42.44365" lon="0.06531">
        <ele>604.4</ele>
        <time>2016-07-31T07:40:11Z</time>
      </trkpt>
      <trkpt lat="42.44362" lon="0.06528">
        <ele>604.9</ele>
        <time>2016-07-31T07:40:13Z</time>
      </trkpt>
      <trkpt lat="42.4436" lon="0.06526">
        <ele>605.4</ele>
        <time>2016-07-31T07:40:16Z</time>
      </trkpt>
      <trkpt lat="42.44363" lon="0.06524">
        <ele>605.5</ele>
        <time>2016-07-31T07:40:37Z</time>
      </trkpt>
      <trkpt lat="42.44369" lon="0.06528">
        <ele>604.6</ele>
        <time>2016-07-31T07:40:39Z</time>
      </trkpt>
      <trkpt lat="42.44372" lon="0.06531">
        <ele>603.9</ele>
        <time>2016-07-31T07:40:40Z</time>
      </trkpt>
      <trkpt lat="42.44375" lon="0.06534">
        <ele>603.1</ele>
        <time>2016-07-31T07:40:41Z</time>
      </trkpt>
      <trkpt lat="42.44379" lon="0.06538">
        <ele>602.2</ele>
        <time>2016-07-31T07:40:42Z</time>
      </trkpt>
      <trkpt lat="42.44383" lon="0.06541">
        <ele>601.4</ele>
        <time>2016-07-31T07:40:43Z</time>
      </trkpt>
      <trkpt lat="42.44385" lon="0.06543">
        <ele>600.8</ele>
        <time>2016-07-31T07:40:44Z</time>
      </trkpt>
      <trkpt lat="42.44389" lon="0.06546">
        <ele>600.1</ele>
        <time>2016-07-31T07:40:46Z</time>
      </trkpt>
      <trkpt lat="42.44393" lon="0.0655">
        <ele>599.6</ele>
        <time>2016-07-31T07:40:48Z</time>
      </trkpt>
      <trkpt lat="42.44396" lon="0.06556">
        <ele>598.9</ele>
        <time>2016-07-31T07:40:50Z</time>
      </trkpt>
      <trkpt lat="42.44398" lon="0.06559">
        <ele>598.5</ele>
        <time>2016-07-31T07:40:51Z</time>
      </trkpt>
      <trkpt lat="42.44399" lon="0.06563">
        <ele>598.1</ele>
        <time>2016-07-31T07:40:52Z</time>
      </trkpt>
      <trkpt lat="42.44401" lon="0.06566">
        <ele>597.7</ele>
        <time>2016-07-31T07:40:53Z</time>
      </trkpt>
      <trkpt lat="42.44403" lon="0.0657">
        <ele>597.3</ele>
        <time>2016-07-31T07:40:54Z</time>
      </trkpt>
      <trkpt lat="42.44405" lon="0.06573">
        <ele>596.9</ele>
        <time>2016-07-31T07:40:55Z</time>
      </trkpt>
      <trkpt lat="42.44407" lon="0.06577">
        <ele>596.5</ele>
        <time>2016-07-31T07:40:56Z</time>
      </trkpt>
      <trkpt lat="42.44409" lon="0.0658">
        <ele>596.2</ele>
        <time>2016-07-31T07:40:57Z</time>
      </trkpt>
      <trkpt lat="42.4441" lon="0.06584">
        <ele>595.8</ele>
        <time>2016-07-31T07:40:58Z</time>
      </trkpt>
      <trkpt lat="42.44412" lon="0.06588">
        <ele>595.4</ele>
        <time>2016-07-31T07:40:59Z</time>
      </trkpt>
      <trkpt lat="42.44414" lon="0.06591">
        <ele>595.1</ele>
        <time>2016-07-31T07:41:00Z</time>
      </trkpt>
      <trkpt lat="42.44416" lon="0.06595">
        <ele>594.7</ele>
        <time>2016-07-31T07:41:01Z</time>
      </trkpt>
      <trkpt lat="42.44417" lon="0.06598">
        <ele>594.4</ele>
        <time>2016-07-31T07:41:02Z</time>
      </trkpt>
      <trkpt lat="42.44419" lon="0.06601">
        <ele>594.1</ele>
        <time>2016-07-31T07:41:03Z</time>
      </trkpt>
      <trkpt lat="42.44421" lon="0.06605">
        <ele>593.8</ele>
        <time>2016-07-31T07:41:04Z</time>
      </trkpt>
      <trkpt lat="42.44423" lon="0.06608">
        <ele>593.4</ele>
        <time>2016-07-31T07:41:05Z</time>
      </trkpt>
      <trkpt lat="42.44425" lon="0.06611">
        <ele>593.1</ele>
        <time>2016-07-31T07:41:06Z</time>
      </trkpt>
      <trkpt lat="42.44426" lon="0.06614">
        <ele>592.9</ele>
        <time>2016-07-31T07:41:07Z</time>
      </trkpt>
      <trkpt lat="42.44429" lon="0.0662">
        <ele>592.4</ele>
        <time>2016-07-31T07:41:09Z</time>
      </trkpt>
      <trkpt lat="42.44431" lon="0.06624">
        <ele>592</ele>
        <time>2016-07-31T07:41:11Z</time>
      </trkpt>
      <trkpt lat="42.44434" lon="0.06627">
        <ele>591.8</ele>
        <time>2016-07-31T07:41:13Z</time>
      </trkpt>
      <trkpt lat="42.44437" lon="0.06626">
        <ele>591.5</ele>
        <time>2016-07-31T07:41:19Z</time>
      </trkpt>
      <trkpt lat="42.4444" lon="0.06627">
        <ele>591.4</ele>
        <time>2016-07-31T07:41:21Z</time>
      </trkpt>
      <trkpt lat="42.44437" lon="0.06627">
        <ele>591.6</ele>
        <time>2016-07-31T07:41:31Z</time>
      </trkpt>
      <trkpt lat="42.44438" lon="0.06623">
        <ele>591.5</ele>
        <time>2016-07-31T07:41:58Z</time>
      </trkpt>
      <trkpt lat="42.44441" lon="0.06624">
        <ele>591.3</ele>
        <time>2016-07-31T07:42:01Z</time>
      </trkpt>
      <trkpt lat="42.44444" lon="0.06626">
        <ele>591.1</ele>
        <time>2016-07-31T07:42:03Z</time>
      </trkpt>
      <trkpt lat="42.44446" lon="0.06628">
        <ele>591</ele>
        <time>2016-07-31T07:42:05Z</time>
      </trkpt>
      <trkpt lat="42.4445" lon="0.06631">
        <ele>590.8</ele>
        <time>2016-07-31T07:42:07Z</time>
      </trkpt>
      <trkpt lat="42.44455" lon="0.06627">
        <ele>590.4</ele>
        <time>2016-07-31T07:42:09Z</time>
      </trkpt>
      <trkpt lat="42.44457" lon="0.06624">
        <ele>590.2</ele>
        <time>2016-07-31T07:42:10Z</time>
      </trkpt>
      <trkpt lat="42.44459" lon="0.0662">
        <ele>590.3</ele>
        <time>2016-07-31T07:42:11Z</time>
      </trkpt>
      <trkpt lat="42.44462" lon="0.06616">
        <ele>590.9</ele>
        <time>2016-07-31T07:42:12Z</time>
      </trkpt>
      <trkpt lat="42.44464" lon="0.06611">
        <ele>591.4</ele>
        <time>2016-07-31T07:42:13Z</time>
      </trkpt>
      <trkpt lat="42.44467" lon="0.06606">
        <ele>591.9</ele>
        <time>2016-07-31T07:42:14Z</time>
      </trkpt>
      <trkpt lat="42.44469" lon="0.06599">
        <ele>592.3</ele>
        <time>2016-07-31T07:42:15Z</time>
      </trkpt>
      <trkpt lat="42.44472" lon="0.06594">
        <ele>592.7</ele>
        <time>2016-07-31T07:42:16Z</time>
      </trkpt>
      <trkpt lat="42.44476" lon="0.06589">
        <ele>593.1</ele>
        <time>2016-07-31T07:42:17Z</time>
      </trkpt>
      <trkpt lat="42.44479" lon="0.06584">
        <ele>593.4</ele>
        <time>2016-07-31T07:42:18Z</time>
      </trkpt>
      <trkpt lat="42.44482" lon="0.06579">
        <ele>593.5</ele>
        <time>2016-07-31T07:42:19Z</time>
      </trkpt>
      <trkpt lat="42.44485" lon="0.06573">
        <ele>593.6</ele>
        <time>2016-07-31T07:42:20Z</time>
      </trkpt>
      <trkpt lat="42.44489" lon="0.06567">
        <ele>593.6</ele>
        <time>2016-07-31T07:42:21Z</time>
      </trkpt>
      <trkpt lat="42.44493" lon="0.06562">
        <ele>593.5</ele>
        <time>2016-07-31T07:42:22Z</time>
      </trkpt>
      <trkpt lat="42.44496" lon="0.06556">
        <ele>593.4</ele>
        <time>2016-07-31T07:42:23Z</time>
      </trkpt>
      <trkpt lat="42.445" lon="0.06551">
        <ele>593.1</ele>
        <time>2016-07-31T07:42:24Z</time>
      </trkpt>
      <trkpt lat="42.44504" lon="0.06545">
        <ele>592.7</ele>
        <time>2016-07-31T07:42:25Z</time>
      </trkpt>
      <trkpt lat="42.44507" lon="0.06539">
        <ele>592.5</ele>
        <time>2016-07-31T07:42:26Z</time>
      </trkpt>
      <trkpt lat="42.44511" lon="0.06533">
        <ele>592.7</ele>
        <time>2016-07-31T07:42:27Z</time>
      </trkpt>
      <trkpt lat="42.44515" lon="0.06528">
        <ele>592.9</ele>
        <time>2016-07-31T07:42:28Z</time>
      </trkpt>
      <trkpt lat="42.44519" lon="0.06522">
        <ele>593</ele>
        <time>2016-07-31T07:42:29Z</time>
      </trkpt>
      <trkpt lat="42.44523" lon="0.06516">
        <ele>593.1</ele>
        <time>2016-07-31T07:42:30Z</time>
      </trkpt>
      <trkpt lat="42.44526" lon="0.0651">
        <ele>593.2</ele>
        <time>2016-07-31T07:42:31Z</time>
      </trkpt>
      <trkpt lat="42.4453" lon="0.06504">
        <ele>593.3</ele>
        <time>2016-07-31T07:42:32Z</time>
      </trkpt>
      <trkpt lat="42.44534" lon="0.06499">
        <ele>593.3</ele>
        <time>2016-07-31T07:42:33Z</time>
      </trkpt>
      <trkpt lat="42.44538" lon="0.06493">
        <ele>593.3</ele>
        <time>2016-07-31T07:42:34Z</time>
      </trkpt>
      <trkpt lat="42.44542" lon="0.06487">
        <ele>593.3</ele>
        <time>2016-07-31T07:42:35Z</time>
      </trkpt>
      <trkpt lat="42.44546" lon="0.06481">
        <ele>593.5</ele>
        <time>2016-07-31T07:42:36Z</time>
      </trkpt>
      <trkpt lat="42.44549" lon="0.06476">
        <ele>593.6</ele>
        <time>2016-07-31T07:42:37Z</time>
      </trkpt>
      <trkpt lat="42.44553" lon="0.0647">
        <ele>593.7</ele>
        <time>2016-07-31T07:42:38Z</time>
      </trkpt>
      <trkpt lat="42.44557" lon="0.06464">
        <ele>593.7</ele>
        <time>2016-07-31T07:42:39Z</time>
      </trkpt>
      <trkpt lat="42.4456" lon="0.06459">
        <ele>593.8</ele>
        <time>2016-07-31T07:42:40Z</time>
      </trkpt>
      <trkpt lat="42.44564" lon="0.06453">
        <ele>593.8</ele>
        <time>2016-07-31T07:42:41Z</time>
      </trkpt>
      <trkpt lat="42.44567" lon="0.06447">
        <ele>593.9</ele>
        <time>2016-07-31T07:42:42Z</time>
      </trkpt>
      <trkpt lat="42.44571" lon="0.06442">
        <ele>594</ele>
        <time>2016-07-31T07:42:43Z</time>
      </trkpt>
      <trkpt lat="42.44574" lon="0.06436">
        <ele>594</ele>
        <time>2016-07-31T07:42:44Z</time>
      </trkpt>
      <trkpt lat="42.44577" lon="0.06431">
        <ele>594</ele>
        <time>2016-07-31T07:42:45Z</time>
      </trkpt>
      <trkpt lat="42.44582" lon="0.06426">
        <ele>593.9</ele>
        <time>2016-07-31T07:42:46Z</time>
      </trkpt>
      <trkpt lat="42.44585" lon="0.0642">
        <ele>593.9</ele>
        <time>2016-07-31T07:42:47Z</time>
      </trkpt>
      <trkpt lat="42.44589" lon="0.06415">
        <ele>593.8</ele>
        <time>2016-07-31T07:42:48Z</time>
      </trkpt>
      <trkpt lat="42.44592" lon="0.06409">
        <ele>593.7</ele>
        <time>2016-07-31T07:42:49Z</time>
      </trkpt>
      <trkpt lat="42.44596" lon="0.06404">
        <ele>593.6</ele>
        <time>2016-07-31T07:42:50Z</time>
      </trkpt>
      <trkpt lat="42.446" lon="0.06398">
        <ele>593.5</ele>
        <time>2016-07-31T07:42:51Z</time>
      </trkpt>
      <trkpt lat="42.44603" lon="0.06393">
        <ele>593.3</ele>
        <time>2016-07-31T07:42:52Z</time>
      </trkpt>
      <trkpt lat="42.44606" lon="0.06388">
        <ele>593.1</ele>
        <time>2016-07-31T07:42:53Z</time>
      </trkpt>
      <trkpt lat="42.4461" lon="0.06383">
        <ele>593</ele>
        <time>2016-07-31T07:42:54Z</time>
      </trkpt>
      <trkpt lat="42.44613" lon="0.06377">
        <ele>592.7</ele>
        <time>2016-07-31T07:42:55Z</time>
      </trkpt>
      <trkpt lat="42.44616" lon="0.06372">
        <ele>592.6</ele>
        <time>2016-07-31T07:42:56Z</time>
      </trkpt>
      <trkpt lat="42.44619" lon="0.06367">
        <ele>592.6</ele>
        <time>2016-07-31T07:42:57Z</time>
      </trkpt>
      <trkpt lat="42.44622" lon="0.06362">
        <ele>592.5</ele>
        <time>2016-07-31T07:42:58Z</time>
      </trkpt>
      <trkpt lat="42.44626" lon="0.06357">
        <ele>592.5</ele>
        <time>2016-07-31T07:42:59Z</time>
      </trkpt>
      <trkpt lat="42.44629" lon="0.06351">
        <ele>592.8</ele>
        <time>2016-07-31T07:43:00Z</time>
      </trkpt>
      <trkpt lat="42.44633" lon="0.06346">
        <ele>593.1</ele>
        <time>2016-07-31T07:43:01Z</time>
      </trkpt>
      <trkpt lat="42.44636" lon="0.06341">
        <ele>593.4</ele>
        <time>2016-07-31T07:43:02Z</time>
      </trkpt>
      <trkpt lat="42.44639" lon="0.06336">
        <ele>593.7</ele>
        <time>2016-07-31T07:43:03Z</time>
      </trkpt>
      <trkpt lat="42.44642" lon="0.06331">
        <ele>594</ele>
        <time>2016-07-31T07:43:04Z</time>
      </trkpt>
      <trkpt lat="42.44646" lon="0.06326">
        <ele>594.3</ele>
        <time>2016-07-31T07:43:05Z</time>
      </trkpt>
      <trkpt lat="42.44649" lon="0.06321">
        <ele>594.5</ele>
        <time>2016-07-31T07:43:06Z</time>
      </trkpt>
      <trkpt lat="42.44652" lon="0.06316">
        <ele>594.8</ele>
        <time>2016-07-31T07:43:07Z</time>
      </trkpt>
      <trkpt lat="42.44655" lon="0.06311">
        <ele>595.1</ele>
        <time>2016-07-31T07:43:08Z</time>
      </trkpt>
      <trkpt lat="42.44658" lon="0.06306">
        <ele>595.3</ele>
        <time>2016-07-31T07:43:09Z</time>
      </trkpt>
      <trkpt lat="42.44662" lon="0.063">
        <ele>595.6</ele>
        <time>2016-07-31T07:43:10Z</time>
      </trkpt>
      <trkpt lat="42.44665" lon="0.06296">
        <ele>595.9</ele>
        <time>2016-07-31T07:43:11Z</time>
      </trkpt>
      <trkpt lat="42.44668" lon="0.06291">
        <ele>596.1</ele>
        <time>2016-07-31T07:43:12Z</time>
      </trkpt>
      <trkpt lat="42.44671" lon="0.06286">
        <ele>596.3</ele>
        <time>2016-07-31T07:43:13Z</time>
      </trkpt>
      <trkpt lat="42.44675" lon="0.06281">
        <ele>596.4</ele>
        <time>2016-07-31T07:43:14Z</time>
      </trkpt>
      <trkpt lat="42.44677" lon="0.06275">
        <ele>596.6</ele>
        <time>2016-07-31T07:43:15Z</time>
      </trkpt>
      <trkpt lat="42.44681" lon="0.0627">
        <ele>596.8</ele>
        <time>2016-07-31T07:43:16Z</time>
      </trkpt>
      <trkpt lat="42.44684" lon="0.06265">
        <ele>596.9</ele>
        <time>2016-07-31T07:43:17Z</time>
      </trkpt>
      <trkpt lat="42.44687" lon="0.0626">
        <ele>597.1</ele>
        <time>2016-07-31T07:43:18Z</time>
      </trkpt>
      <trkpt lat="42.4469" lon="0.06255">
        <ele>597.2</ele>
        <time>2016-07-31T07:43:19Z</time>
      </trkpt>
      <trkpt lat="42.44694" lon="0.0625">
        <ele>597.4</ele>
        <time>2016-07-31T07:43:20Z</time>
      </trkpt>
      <trkpt lat="42.44697" lon="0.06245">
        <ele>597.5</ele>
        <time>2016-07-31T07:43:21Z</time>
      </trkpt>
      <trkpt lat="42.447" lon="0.0624">
        <ele>597.6</ele>
        <time>2016-07-31T07:43:22Z</time>
      </trkpt>
      <trkpt lat="42.44703" lon="0.06235">
        <ele>597.8</ele>
        <time>2016-07-31T07:43:23Z</time>
      </trkpt>
      <trkpt lat="42.44706" lon="0.06231">
        <ele>597.9</ele>
        <time>2016-07-31T07:43:24Z</time>
      </trkpt>
      <trkpt lat="42.4471" lon="0.06226">
        <ele>598.1</ele>
        <time>2016-07-31T07:43:25Z</time>
      </trkpt>
      <trkpt lat="42.44713" lon="0.06221">
        <ele>598.2</ele>
        <time>2016-07-31T07:43:26Z</time>
      </trkpt>
      <trkpt lat="42.44716" lon="0.06216">
        <ele>598.4</ele>
        <time>2016-07-31T07:43:27Z</time>
      </trkpt>
      <trkpt lat="42.44719" lon="0.0621">
        <ele>598.5</ele>
        <time>2016-07-31T07:43:28Z</time>
      </trkpt>
      <trkpt lat="42.44722" lon="0.06205">
        <ele>598.7</ele>
        <time>2016-07-31T07:43:29Z</time>
      </trkpt>
      <trkpt lat="42.44725" lon="0.06199">
        <ele>598.9</ele>
        <time>2016-07-31T07:43:30Z</time>
      </trkpt>
      <trkpt lat="42.44728" lon="0.06195">
        <ele>599</ele>
        <time>2016-07-31T07:43:31Z</time>
      </trkpt>
      <trkpt lat="42.44732" lon="0.0619">
        <ele>599.2</ele>
        <time>2016-07-31T07:43:32Z</time>
      </trkpt>
      <trkpt lat="42.44735" lon="0.06185">
        <ele>599.4</ele>
        <time>2016-07-31T07:43:33Z</time>
      </trkpt>
      <trkpt lat="42.44738" lon="0.0618">
        <ele>599.5</ele>
        <time>2016-07-31T07:43:34Z</time>
      </trkpt>
      <trkpt lat="42.44741" lon="0.06175">
        <ele>599.7</ele>
        <time>2016-07-31T07:43:35Z</time>
      </trkpt>
      <trkpt lat="42.44744" lon="0.06169">
        <ele>599.8</ele>
        <time>2016-07-31T07:43:36Z</time>
      </trkpt>
      <trkpt lat="42.44748" lon="0.06164">
        <ele>599.9</ele>
        <time>2016-07-31T07:43:37Z</time>
      </trkpt>
      <trkpt lat="42.44751" lon="0.06158">
        <ele>600</ele>
        <time>2016-07-31T07:43:38Z</time>
      </trkpt>
      <trkpt lat="42.44755" lon="0.06153">
        <ele>600.2</ele>
        <time>2016-07-31T07:43:39Z</time>
      </trkpt>
      <trkpt lat="42.44758" lon="0.06147">
        <ele>600.2</ele>
        <time>2016-07-31T07:43:40Z</time>
      </trkpt>
      <trkpt lat="42.44762" lon="0.06141">
        <ele>600.3</ele>
        <time>2016-07-31T07:43:41Z</time>
      </trkpt>
      <trkpt lat="42.44765" lon="0.06137">
        <ele>600.4</ele>
        <time>2016-07-31T07:43:42Z</time>
      </trkpt>
      <trkpt lat="42.44769" lon="0.06131">
        <ele>600.5</ele>
        <time>2016-07-31T07:43:43Z</time>
      </trkpt>
      <trkpt lat="42.44772" lon="0.06124">
        <ele>600.5</ele>
        <time>2016-07-31T07:43:44Z</time>
      </trkpt>
      <trkpt lat="42.44775" lon="0.06119">
        <ele>600.7</ele>
        <time>2016-07-31T07:43:45Z</time>
      </trkpt>
      <trkpt lat="42.44779" lon="0.06115">
        <ele>600.8</ele>
        <time>2016-07-31T07:43:46Z</time>
      </trkpt>
      <trkpt lat="42.44782" lon="0.06109">
        <ele>601</ele>
        <time>2016-07-31T07:43:47Z</time>
      </trkpt>
      <trkpt lat="42.44786" lon="0.06102">
        <ele>601.1</ele>
        <time>2016-07-31T07:43:48Z</time>
      </trkpt>
      <trkpt lat="42.44789" lon="0.06097">
        <ele>601.3</ele>
        <time>2016-07-31T07:43:49Z</time>
      </trkpt>
      <trkpt lat="42.44792" lon="0.06092">
        <ele>601.4</ele>
        <time>2016-07-31T07:43:50Z</time>
      </trkpt>
      <trkpt lat="42.44795" lon="0.06087">
        <ele>601.5</ele>
        <time>2016-07-31T07:43:51Z</time>
      </trkpt>
      <trkpt lat="42.44799" lon="0.06082">
        <ele>601.7</ele>
        <time>2016-07-31T07:43:52Z</time>
      </trkpt>
      <trkpt lat="42.44802" lon="0.06076">
        <ele>601.8</ele>
        <time>2016-07-31T07:43:53Z</time>
      </trkpt>
      <trkpt lat="42.44806" lon="0.06071">
        <ele>601.9</ele>
        <time>2016-07-31T07:43:54Z</time>
      </trkpt>
      <trkpt lat="42.44809" lon="0.06066">
        <ele>602</ele>
        <time>2016-07-31T07:43:55Z</time>
      </trkpt>
      <trkpt lat="42.44813" lon="0.0606">
        <ele>602.1</ele>
        <time>2016-07-31T07:43:56Z</time>
      </trkpt>
      <trkpt lat="42.44816" lon="0.06054">
        <ele>602.2</ele>
        <time>2016-07-31T07:43:57Z</time>
      </trkpt>
      <trkpt lat="42.4482" lon="0.06049">
        <ele>602.3</ele>
        <time>2016-07-31T07:43:58Z</time>
      </trkpt>
      <trkpt lat="42.44823" lon="0.06044">
        <ele>602.4</ele>
        <time>2016-07-31T07:43:59Z</time>
      </trkpt>
      <trkpt lat="42.44827" lon="0.06038">
        <ele>602.3</ele>
        <time>2016-07-31T07:44:00Z</time>
      </trkpt>
      <trkpt lat="42.4483" lon="0.06033">
        <ele>602.2</ele>
        <time>2016-07-31T07:44:01Z</time>
      </trkpt>
      <trkpt lat="42.44834" lon="0.06028">
        <ele>602.1</ele>
        <time>2016-07-31T07:44:02Z</time>
      </trkpt>
      <trkpt lat="42.44837" lon="0.06022">
        <ele>601.9</ele>
        <time>2016-07-31T07:44:03Z</time>
      </trkpt>
      <trkpt lat="42.44841" lon="0.06016">
        <ele>601.8</ele>
        <time>2016-07-31T07:44:04Z</time>
      </trkpt>
      <trkpt lat="42.44845" lon="0.0601">
        <ele>601.6</ele>
        <time>2016-07-31T07:44:05Z</time>
      </trkpt>
      <trkpt lat="42.44848" lon="0.06005">
        <ele>601.5</ele>
        <time>2016-07-31T07:44:06Z</time>
      </trkpt>
      <trkpt lat="42.44852" lon="0.05998">
        <ele>601.3</ele>
        <time>2016-07-31T07:44:07Z</time>
      </trkpt>
      <trkpt lat="42.44855" lon="0.05993">
        <ele>601.1</ele>
        <time>2016-07-31T07:44:08Z</time>
      </trkpt>
      <trkpt lat="42.44858" lon="0.05987">
        <ele>601</ele>
        <time>2016-07-31T07:44:09Z</time>
      </trkpt>
      <trkpt lat="42.44862" lon="0.05982">
        <ele>600.8</ele>
        <time>2016-07-31T07:44:10Z</time>
      </trkpt>
      <trkpt lat="42.44866" lon="0.05976">
        <ele>600.6</ele>
        <time>2016-07-31T07:44:11Z</time>
      </trkpt>
      <trkpt lat="42.4487" lon="0.0597">
        <ele>600.4</ele>
        <time>2016-07-31T07:44:12Z</time>
      </trkpt>
      <trkpt lat="42.44873" lon="0.05965">
        <ele>600.2</ele>
        <time>2016-07-31T07:44:13Z</time>
      </trkpt>
      <trkpt lat="42.44878" lon="0.05959">
        <ele>600.2</ele>
        <time>2016-07-31T07:44:14Z</time>
      </trkpt>
      <trkpt lat="42.44881" lon="0.05954">
        <ele>600.3</ele>
        <time>2016-07-31T07:44:15Z</time>
      </trkpt>
      <trkpt lat="42.44885" lon="0.05948">
        <ele>600.4</ele>
        <time>2016-07-31T07:44:16Z</time>
      </trkpt>
      <trkpt lat="42.44889" lon="0.05942">
        <ele>600.6</ele>
        <time>2016-07-31T07:44:17Z</time>
      </trkpt>
      <trkpt lat="42.44893" lon="0.05937">
        <ele>600.7</ele>
        <time>2016-07-31T07:44:18Z</time>
      </trkpt>
      <trkpt lat="42.44896" lon="0.05929">
        <ele>600.7</ele>
        <time>2016-07-31T07:44:19Z</time>
      </trkpt>
      <trkpt lat="42.44899" lon="0.05925">
        <ele>600.8</ele>
        <time>2016-07-31T07:44:20Z</time>
      </trkpt>
      <trkpt lat="42.44903" lon="0.05919">
        <ele>600.9</ele>
        <time>2016-07-31T07:44:21Z</time>
      </trkpt>
      <trkpt lat="42.44907" lon="0.05914">
        <ele>601</ele>
        <time>2016-07-31T07:44:22Z</time>
      </trkpt>
      <trkpt lat="42.4491" lon="0.05909">
        <ele>601</ele>
        <time>2016-07-31T07:44:23Z</time>
      </trkpt>
      <trkpt lat="42.44914" lon="0.05904">
        <ele>601.1</ele>
        <time>2016-07-31T07:44:24Z</time>
      </trkpt>
      <trkpt lat="42.44919" lon="0.05897">
        <ele>601.1</ele>
        <time>2016-07-31T07:44:25Z</time>
      </trkpt>
      <trkpt lat="42.44922" lon="0.0589">
        <ele>601.1</ele>
        <time>2016-07-31T07:44:26Z</time>
      </trkpt>
      <trkpt lat="42.44925" lon="0.05885">
        <ele>601.1</ele>
        <time>2016-07-31T07:44:27Z</time>
      </trkpt>
      <trkpt lat="42.44929" lon="0.05881">
        <ele>601.1</ele>
        <time>2016-07-31T07:44:28Z</time>
      </trkpt>
      <trkpt lat="42.44933" lon="0.05876">
        <ele>601.1</ele>
        <time>2016-07-31T07:44:29Z</time>
      </trkpt>
      <trkpt lat="42.44936" lon="0.05871">
        <ele>601.1</ele>
        <time>2016-07-31T07:44:30Z</time>
      </trkpt>
      <trkpt lat="42.4494" lon="0.05866">
        <ele>601.2</ele>
        <time>2016-07-31T07:44:31Z</time>
      </trkpt>
      <trkpt lat="42.44943" lon="0.05861">
        <ele>601.2</ele>
        <time>2016-07-31T07:44:32Z</time>
      </trkpt>
      <trkpt lat="42.44945" lon="0.05856">
        <ele>601.1</ele>
        <time>2016-07-31T07:44:33Z</time>
      </trkpt>
      <trkpt lat="42.44948" lon="0.05851">
        <ele>601.1</ele>
        <time>2016-07-31T07:44:34Z</time>
      </trkpt>
      <trkpt lat="42.44952" lon="0.05845">
        <ele>601.1</ele>
        <time>2016-07-31T07:44:35Z</time>
      </trkpt>
      <trkpt lat="42.44956" lon="0.0584">
        <ele>601.1</ele>
        <time>2016-07-31T07:44:36Z</time>
      </trkpt>
      <trkpt lat="42.44961" lon="0.05833">
        <ele>601.4</ele>
        <time>2016-07-31T07:44:37Z</time>
      </trkpt>
      <trkpt lat="42.44965" lon="0.05827">
        <ele>601.7</ele>
        <time>2016-07-31T07:44:38Z</time>
      </trkpt>
      <trkpt lat="42.44969" lon="0.05821">
        <ele>602</ele>
        <time>2016-07-31T07:44:39Z</time>
      </trkpt>
      <trkpt lat="42.44972" lon="0.05816">
        <ele>602.2</ele>
        <time>2016-07-31T07:44:40Z</time>
      </trkpt>
      <trkpt lat="42.44976" lon="0.05812">
        <ele>602.5</ele>
        <time>2016-07-31T07:44:41Z</time>
      </trkpt>
      <trkpt lat="42.4498" lon="0.05806">
        <ele>602.6</ele>
        <time>2016-07-31T07:44:42Z</time>
      </trkpt>
      <trkpt lat="42.44984" lon="0.05802">
        <ele>602.8</ele>
        <time>2016-07-31T07:44:43Z</time>
      </trkpt>
      <trkpt lat="42.44989" lon="0.05798">
        <ele>602.9</ele>
        <time>2016-07-31T07:44:44Z</time>
      </trkpt>
      <trkpt lat="42.44992" lon="0.05793">
        <ele>602.9</ele>
        <time>2016-07-31T07:44:45Z</time>
      </trkpt>
      <trkpt lat="42.44996" lon="0.05785">
        <ele>603</ele>
        <time>2016-07-31T07:44:46Z</time>
      </trkpt>
      <trkpt lat="42.45" lon="0.0578">
        <ele>603.2</ele>
        <time>2016-07-31T07:44:47Z</time>
      </trkpt>
      <trkpt lat="42.45004" lon="0.05776">
        <ele>603.4</ele>
        <time>2016-07-31T07:44:48Z</time>
      </trkpt>
      <trkpt lat="42.45007" lon="0.05773">
        <ele>603.4</ele>
        <time>2016-07-31T07:44:49Z</time>
      </trkpt>
      <trkpt lat="42.45011" lon="0.05769">
        <ele>603.5</ele>
        <time>2016-07-31T07:44:50Z</time>
      </trkpt>
      <trkpt lat="42.45015" lon="0.05765">
        <ele>603.5</ele>
        <time>2016-07-31T07:44:51Z</time>
      </trkpt>
      <trkpt lat="42.45019" lon="0.05762">
        <ele>603.6</ele>
        <time>2016-07-31T07:44:52Z</time>
      </trkpt>
      <trkpt lat="42.45023" lon="0.05756">
        <ele>603.4</ele>
        <time>2016-07-31T07:44:53Z</time>
      </trkpt>
      <trkpt lat="42.45026" lon="0.0575">
        <ele>603.1</ele>
        <time>2016-07-31T07:44:54Z</time>
      </trkpt>
      <trkpt lat="42.45028" lon="0.05744">
        <ele>602.8</ele>
        <time>2016-07-31T07:44:55Z</time>
      </trkpt>
      <trkpt lat="42.45028" lon="0.05738">
        <ele>602.4</ele>
        <time>2016-07-31T07:44:56Z</time>
      </trkpt>
      <trkpt lat="42.45025" lon="0.05731">
        <ele>602</ele>
        <time>2016-07-31T07:44:57Z</time>
      </trkpt>
      <trkpt lat="42.45023" lon="0.05724">
        <ele>601.6</ele>
        <time>2016-07-31T07:44:58Z</time>
      </trkpt>
      <trkpt lat="42.45021" lon="0.05717">
        <ele>601.2</ele>
        <time>2016-07-31T07:44:59Z</time>
      </trkpt>
      <trkpt lat="42.45019" lon="0.0571">
        <ele>600.9</ele>
        <time>2016-07-31T07:45:00Z</time>
      </trkpt>
      <trkpt lat="42.45018" lon="0.05703">
        <ele>601.8</ele>
        <time>2016-07-31T07:45:01Z</time>
      </trkpt>
      <trkpt lat="42.45016" lon="0.05697">
        <ele>603.1</ele>
        <time>2016-07-31T07:45:02Z</time>
      </trkpt>
      <trkpt lat="42.45013" lon="0.0569">
        <ele>604.6</ele>
        <time>2016-07-31T07:45:03Z</time>
      </trkpt>
      <trkpt lat="42.45009" lon="0.05682">
        <ele>606.3</ele>
        <time>2016-07-31T07:45:04Z</time>
      </trkpt>
      <trkpt lat="42.45007" lon="0.05675">
        <ele>608</ele>
        <time>2016-07-31T07:45:05Z</time>
      </trkpt>
      <trkpt lat="42.45005" lon="0.05667">
        <ele>609.7</ele>
        <time>2016-07-31T07:45:06Z</time>
      </trkpt>
      <trkpt lat="42.45002" lon="0.0566">
        <ele>611.5</ele>
        <time>2016-07-31T07:45:07Z</time>
      </trkpt>
      <trkpt lat="42.44999" lon="0.05653">
        <ele>613.3</ele>
        <time>2016-07-31T07:45:08Z</time>
      </trkpt>
      <trkpt lat="42.44997" lon="0.05646">
        <ele>614.9</ele>
        <time>2016-07-31T07:45:09Z</time>
      </trkpt>
      <trkpt lat="42.44995" lon="0.0564">
        <ele>616.5</ele>
        <time>2016-07-31T07:45:10Z</time>
      </trkpt>
      <trkpt lat="42.44993" lon="0.05634">
        <ele>618</ele>
        <time>2016-07-31T07:45:11Z</time>
      </trkpt>
      <trkpt lat="42.44991" lon="0.05628">
        <ele>619.6</ele>
        <time>2016-07-31T07:45:12Z</time>
      </trkpt>
      <trkpt lat="42.44988" lon="0.05623">
        <ele>621.5</ele>
        <time>2016-07-31T07:45:13Z</time>
      </trkpt>
      <trkpt lat="42.44986" lon="0.05617">
        <ele>623.6</ele>
        <time>2016-07-31T07:45:14Z</time>
      </trkpt>
      <trkpt lat="42.44983" lon="0.05611">
        <ele>625.9</ele>
        <time>2016-07-31T07:45:15Z</time>
      </trkpt>
      <trkpt lat="42.4498" lon="0.05606">
        <ele>627.9</ele>
        <time>2016-07-31T07:45:16Z</time>
      </trkpt>
      <trkpt lat="42.44977" lon="0.05602">
        <ele>629.8</ele>
        <time>2016-07-31T07:45:17Z</time>
      </trkpt>
      <trkpt lat="42.44974" lon="0.05598">
        <ele>631.5</ele>
        <time>2016-07-31T07:45:18Z</time>
      </trkpt>
      <trkpt lat="42.4497" lon="0.05595">
        <ele>633.1</ele>
        <time>2016-07-31T07:45:19Z</time>
      </trkpt>
      <trkpt lat="42.44967" lon="0.05593">
        <ele>634.5</ele>
        <time>2016-07-31T07:45:20Z</time>
      </trkpt>
      <trkpt lat="42.44964" lon="0.0559">
        <ele>635.9</ele>
        <time>2016-07-31T07:45:21Z</time>
      </trkpt>
      <trkpt lat="42.4496" lon="0.05588">
        <ele>637.4</ele>
        <time>2016-07-31T07:45:22Z</time>
      </trkpt>
      <trkpt lat="42.44956" lon="0.05585">
        <ele>638.7</ele>
        <time>2016-07-31T07:45:23Z</time>
      </trkpt>
      <trkpt lat="42.44952" lon="0.05585">
        <ele>639.5</ele>
        <time>2016-07-31T07:45:24Z</time>
      </trkpt>
      <trkpt lat="42.44949" lon="0.05582">
        <ele>640.8</ele>
        <time>2016-07-31T07:45:25Z</time>
      </trkpt>
      <trkpt lat="42.44945" lon="0.05582">
        <ele>641.6</ele>
        <time>2016-07-31T07:45:26Z</time>
      </trkpt>
      <trkpt lat="42.44941" lon="0.05581">
        <ele>642.4</ele>
        <time>2016-07-31T07:45:27Z</time>
      </trkpt>
      <trkpt lat="42.44937" lon="0.05581">
        <ele>643</ele>
        <time>2016-07-31T07:45:28Z</time>
      </trkpt>
      <trkpt lat="42.44934" lon="0.05581">
        <ele>643.5</ele>
        <time>2016-07-31T07:45:29Z</time>
      </trkpt>
      <trkpt lat="42.44931" lon="0.05581">
        <ele>643.9</ele>
        <time>2016-07-31T07:45:30Z</time>
      </trkpt>
      <trkpt lat="42.44927" lon="0.05582">
        <ele>644.3</ele>
        <time>2016-07-31T07:45:31Z</time>
      </trkpt>
      <trkpt lat="42.44924" lon="0.05582">
        <ele>644.6</ele>
        <time>2016-07-31T07:45:32Z</time>
      </trkpt>
      <trkpt lat="42.44921" lon="0.05584">
        <ele>644.7</ele>
        <time>2016-07-31T07:45:33Z</time>
      </trkpt>
      <trkpt lat="42.44917" lon="0.05585">
        <ele>644.9</ele>
        <time>2016-07-31T07:45:34Z</time>
      </trkpt>
      <trkpt lat="42.44914" lon="0.05586">
        <ele>645.1</ele>
        <time>2016-07-31T07:45:35Z</time>
      </trkpt>
      <trkpt lat="42.44911" lon="0.05588">
        <ele>645.2</ele>
        <time>2016-07-31T07:45:36Z</time>
      </trkpt>
      <trkpt lat="42.44908" lon="0.05589">
        <ele>645.3</ele>
        <time>2016-07-31T07:45:37Z</time>
      </trkpt>
      <trkpt lat="42.44904" lon="0.05591">
        <ele>645.5</ele>
        <time>2016-07-31T07:45:38Z</time>
      </trkpt>
      <trkpt lat="42.44901" lon="0.05592">
        <ele>645.7</ele>
        <time>2016-07-31T07:45:39Z</time>
      </trkpt>
      <trkpt lat="42.44898" lon="0.05594">
        <ele>645.8</ele>
        <time>2016-07-31T07:45:40Z</time>
      </trkpt>
      <trkpt lat="42.44895" lon="0.05595">
        <ele>646</ele>
        <time>2016-07-31T07:45:41Z</time>
      </trkpt>
      <trkpt lat="42.44892" lon="0.05597">
        <ele>646.2</ele>
        <time>2016-07-31T07:45:42Z</time>
      </trkpt>
      <trkpt lat="42.44889" lon="0.05598">
        <ele>646.4</ele>
        <time>2016-07-31T07:45:43Z</time>
      </trkpt>
      <trkpt lat="42.44886" lon="0.056">
        <ele>646.5</ele>
        <time>2016-07-31T07:45:44Z</time>
      </trkpt>
      <trkpt lat="42.44883" lon="0.05602">
        <ele>646.6</ele>
        <time>2016-07-31T07:45:45Z</time>
      </trkpt>
      <trkpt lat="42.4488" lon="0.05604">
        <ele>646.6</ele>
        <time>2016-07-31T07:45:46Z</time>
      </trkpt>
      <trkpt lat="42.44877" lon="0.05606">
        <ele>646.6</ele>
        <time>2016-07-31T07:45:47Z</time>
      </trkpt>
      <trkpt lat="42.44874" lon="0.05609">
        <ele>646.4</ele>
        <time>2016-07-31T07:45:48Z</time>
      </trkpt>
      <trkpt lat="42.44872" lon="0.05611">
        <ele>645.3</ele>
        <time>2016-07-31T07:45:49Z</time>
      </trkpt>
      <trkpt lat="42.44869" lon="0.05614">
        <ele>644.2</ele>
        <time>2016-07-31T07:45:50Z</time>
      </trkpt>
      <trkpt lat="42.44866" lon="0.05617">
        <ele>643</ele>
        <time>2016-07-31T07:45:51Z</time>
      </trkpt>
      <trkpt lat="42.44864" lon="0.0562">
        <ele>641.8</ele>
        <time>2016-07-31T07:45:52Z</time>
      </trkpt>
      <trkpt lat="42.44862" lon="0.05623">
        <ele>640.7</ele>
        <time>2016-07-31T07:45:53Z</time>
      </trkpt>
      <trkpt lat="42.4486" lon="0.05627">
        <ele>639.4</ele>
        <time>2016-07-31T07:45:54Z</time>
      </trkpt>
      <trkpt lat="42.44858" lon="0.0563">
        <ele>638.1</ele>
        <time>2016-07-31T07:45:55Z</time>
      </trkpt>
      <trkpt lat="42.44855" lon="0.05633">
        <ele>636.7</ele>
        <time>2016-07-31T07:45:56Z</time>
      </trkpt>
      <trkpt lat="42.44852" lon="0.05636">
        <ele>635.3</ele>
        <time>2016-07-31T07:45:57Z</time>
      </trkpt>
      <trkpt lat="42.4485" lon="0.05639">
        <ele>634</ele>
        <time>2016-07-31T07:45:58Z</time>
      </trkpt>
      <trkpt lat="42.44847" lon="0.05642">
        <ele>632.8</ele>
        <time>2016-07-31T07:45:59Z</time>
      </trkpt>
      <trkpt lat="42.44844" lon="0.05646">
        <ele>631.5</ele>
        <time>2016-07-31T07:46:00Z</time>
      </trkpt>
      <trkpt lat="42.44842" lon="0.05649">
        <ele>630.2</ele>
        <time>2016-07-31T07:46:01Z</time>
      </trkpt>
      <trkpt lat="42.44839" lon="0.05652">
        <ele>629</ele>
        <time>2016-07-31T07:46:02Z</time>
      </trkpt>
      <trkpt lat="42.44836" lon="0.05655">
        <ele>627.8</ele>
        <time>2016-07-31T07:46:03Z</time>
      </trkpt>
      <trkpt lat="42.44833" lon="0.05659">
        <ele>626.7</ele>
        <time>2016-07-31T07:46:04Z</time>
      </trkpt>
      <trkpt lat="42.44831" lon="0.05662">
        <ele>625.5</ele>
        <time>2016-07-31T07:46:05Z</time>
      </trkpt>
      <trkpt lat="42.44828" lon="0.05665">
        <ele>624.4</ele>
        <time>2016-07-31T07:46:06Z</time>
      </trkpt>
      <trkpt lat="42.44825" lon="0.05669">
        <ele>623.3</ele>
        <time>2016-07-31T07:46:07Z</time>
      </trkpt>
      <trkpt lat="42.44822" lon="0.05672">
        <ele>622.3</ele>
        <time>2016-07-31T07:46:08Z</time>
      </trkpt>
      <trkpt lat="42.44819" lon="0.05675">
        <ele>621.3</ele>
        <time>2016-07-31T07:46:09Z</time>
      </trkpt>
      <trkpt lat="42.44816" lon="0.05678">
        <ele>620.4</ele>
        <time>2016-07-31T07:46:10Z</time>
      </trkpt>
      <trkpt lat="42.44813" lon="0.0568">
        <ele>619.5</ele>
        <time>2016-07-31T07:46:11Z</time>
      </trkpt>
      <trkpt lat="42.44809" lon="0.05683">
        <ele>618.7</ele>
        <time>2016-07-31T07:46:12Z</time>
      </trkpt>
      <trkpt lat="42.44805" lon="0.05685">
        <ele>617.9</ele>
        <time>2016-07-31T07:46:13Z</time>
      </trkpt>
      <trkpt lat="42.448" lon="0.05686">
        <ele>617.3</ele>
        <time>2016-07-31T07:46:14Z</time>
      </trkpt>
      <trkpt lat="42.44795" lon="0.05686">
        <ele>616.8</ele>
        <time>2016-07-31T07:46:15Z</time>
      </trkpt>
      <trkpt lat="42.44791" lon="0.05685">
        <ele>616.9</ele>
        <time>2016-07-31T07:46:16Z</time>
      </trkpt>
      <trkpt lat="42.44786" lon="0.05682">
        <ele>618.4</ele>
        <time>2016-07-31T07:46:17Z</time>
      </trkpt>
      <trkpt lat="42.44783" lon="0.05678">
        <ele>619.8</ele>
        <time>2016-07-31T07:46:18Z</time>
      </trkpt>
      <trkpt lat="42.44781" lon="0.05673">
        <ele>620.9</ele>
        <time>2016-07-31T07:46:19Z</time>
      </trkpt>
      <trkpt lat="42.44778" lon="0.05668">
        <ele>622.1</ele>
        <time>2016-07-31T07:46:20Z</time>
      </trkpt>
      <trkpt lat="42.44776" lon="0.05663">
        <ele>623.1</ele>
        <time>2016-07-31T07:46:21Z</time>
      </trkpt>
      <trkpt lat="42.44773" lon="0.05656">
        <ele>624.3</ele>
        <time>2016-07-31T07:46:22Z</time>
      </trkpt>
      <trkpt lat="42.44773" lon="0.05649">
        <ele>625</ele>
        <time>2016-07-31T07:46:23Z</time>
      </trkpt>
      <trkpt lat="42.44773" lon="0.05643">
        <ele>625.6</ele>
        <time>2016-07-31T07:46:24Z</time>
      </trkpt>
      <trkpt lat="42.44773" lon="0.05636">
        <ele>626.3</ele>
        <time>2016-07-31T07:46:25Z</time>
      </trkpt>
      <trkpt lat="42.44773" lon="0.05629">
        <ele>627</ele>
        <time>2016-07-31T07:46:26Z</time>
      </trkpt>
      <trkpt lat="42.44772" lon="0.05624">
        <ele>627.6</ele>
        <time>2016-07-31T07:46:27Z</time>
      </trkpt>
      <trkpt lat="42.44771" lon="0.05619">
        <ele>628.4</ele>
        <time>2016-07-31T07:46:28Z</time>
      </trkpt>
      <trkpt lat="42.44769" lon="0.05613">
        <ele>629.5</ele>
        <time>2016-07-31T07:46:29Z</time>
      </trkpt>
      <trkpt lat="42.44767" lon="0.05608">
        <ele>630.4</ele>
        <time>2016-07-31T07:46:30Z</time>
      </trkpt>
      <trkpt lat="42.44764" lon="0.05602">
        <ele>631.3</ele>
        <time>2016-07-31T07:46:31Z</time>
      </trkpt>
      <trkpt lat="42.44762" lon="0.05598">
        <ele>631.9</ele>
        <time>2016-07-31T07:46:32Z</time>
      </trkpt>
      <trkpt lat="42.44759" lon="0.05593">
        <ele>632.5</ele>
        <time>2016-07-31T07:46:33Z</time>
      </trkpt>
      <trkpt lat="42.44756" lon="0.05589">
        <ele>632.8</ele>
        <time>2016-07-31T07:46:34Z</time>
      </trkpt>
      <trkpt lat="42.44752" lon="0.05585">
        <ele>632.9</ele>
        <time>2016-07-31T07:46:35Z</time>
      </trkpt>
      <trkpt lat="42.44749" lon="0.05581">
        <ele>633.1</ele>
        <time>2016-07-31T07:46:36Z</time>
      </trkpt>
      <trkpt lat="42.44745" lon="0.05577">
        <ele>633.2</ele>
        <time>2016-07-31T07:46:37Z</time>
      </trkpt>
      <trkpt lat="42.44742" lon="0.05574">
        <ele>633</ele>
        <time>2016-07-31T07:46:38Z</time>
      </trkpt>
      <trkpt lat="42.44739" lon="0.05569">
        <ele>633</ele>
        <time>2016-07-31T07:46:39Z</time>
      </trkpt>
      <trkpt lat="42.44736" lon="0.05566">
        <ele>632.8</ele>
        <time>2016-07-31T07:46:40Z</time>
      </trkpt>
      <trkpt lat="42.44732" lon="0.05563">
        <ele>632.5</ele>
        <time>2016-07-31T07:46:41Z</time>
      </trkpt>
      <trkpt lat="42.4473" lon="0.0556">
        <ele>632.3</ele>
        <time>2016-07-31T07:46:42Z</time>
      </trkpt>
      <trkpt lat="42.44729" lon="0.05557">
        <ele>632</ele>
        <time>2016-07-31T07:46:43Z</time>
      </trkpt>
      <trkpt lat="42.44726" lon="0.05554">
        <ele>631.7</ele>
        <time>2016-07-31T07:46:44Z</time>
      </trkpt>
      <trkpt lat="42.44723" lon="0.05549">
        <ele>631.2</ele>
        <time>2016-07-31T07:46:45Z</time>
      </trkpt>
      <trkpt lat="42.44721" lon="0.05546">
        <ele>630.7</ele>
        <time>2016-07-31T07:46:46Z</time>
      </trkpt>
      <trkpt lat="42.44719" lon="0.05542">
        <ele>630.3</ele>
        <time>2016-07-31T07:46:47Z</time>
      </trkpt>
      <trkpt lat="42.44717" lon="0.05538">
        <ele>630.2</ele>
        <time>2016-07-31T07:46:48Z</time>
      </trkpt>
      <trkpt lat="42.44715" lon="0.05534">
        <ele>630.1</ele>
        <time>2016-07-31T07:46:49Z</time>
      </trkpt>
      <trkpt lat="42.44714" lon="0.0553">
        <ele>630</ele>
        <time>2016-07-31T07:46:50Z</time>
      </trkpt>
      <trkpt lat="42.44712" lon="0.05526">
        <ele>630</ele>
        <time>2016-07-31T07:46:51Z</time>
      </trkpt>
      <trkpt lat="42.44711" lon="0.05522">
        <ele>629.9</ele>
        <time>2016-07-31T07:46:52Z</time>
      </trkpt>
      <trkpt lat="42.44709" lon="0.05518">
        <ele>629.9</ele>
        <time>2016-07-31T07:46:53Z</time>
      </trkpt>
      <trkpt lat="42.44707" lon="0.05514">
        <ele>630.4</ele>
        <time>2016-07-31T07:46:54Z</time>
      </trkpt>
      <trkpt lat="42.44706" lon="0.0551">
        <ele>631.2</ele>
        <time>2016-07-31T07:46:55Z</time>
      </trkpt>
      <trkpt lat="42.44704" lon="0.05506">
        <ele>632</ele>
        <time>2016-07-31T07:46:56Z</time>
      </trkpt>
      <trkpt lat="42.44703" lon="0.05503">
        <ele>632.7</ele>
        <time>2016-07-31T07:46:57Z</time>
      </trkpt>
      <trkpt lat="42.44701" lon="0.05499">
        <ele>633.5</ele>
        <time>2016-07-31T07:46:58Z</time>
      </trkpt>
      <trkpt lat="42.44699" lon="0.05496">
        <ele>634.2</ele>
        <time>2016-07-31T07:46:59Z</time>
      </trkpt>
      <trkpt lat="42.44698" lon="0.05493">
        <ele>634.9</ele>
        <time>2016-07-31T07:47:00Z</time>
      </trkpt>
      <trkpt lat="42.44696" lon="0.05489">
        <ele>635.5</ele>
        <time>2016-07-31T07:47:01Z</time>
      </trkpt>
      <trkpt lat="42.44694" lon="0.05484">
        <ele>636.2</ele>
        <time>2016-07-31T07:47:02Z</time>
      </trkpt>
      <trkpt lat="42.44693" lon="0.0548">
        <ele>636.7</ele>
        <time>2016-07-31T07:47:03Z</time>
      </trkpt>
      <trkpt lat="42.44691" lon="0.05476">
        <ele>637.2</ele>
        <time>2016-07-31T07:47:04Z</time>
      </trkpt>
      <trkpt lat="42.44689" lon="0.05472">
        <ele>637.8</ele>
        <time>2016-07-31T07:47:05Z</time>
      </trkpt>
      <trkpt lat="42.44687" lon="0.05468">
        <ele>638.4</ele>
        <time>2016-07-31T07:47:06Z</time>
      </trkpt>
      <trkpt lat="42.44686" lon="0.05465">
        <ele>638.9</ele>
        <time>2016-07-31T07:47:07Z</time>
      </trkpt>
      <trkpt lat="42.44684" lon="0.05461">
        <ele>639.3</ele>
        <time>2016-07-31T07:47:08Z</time>
      </trkpt>
      <trkpt lat="42.44682" lon="0.05457">
        <ele>639.7</ele>
        <time>2016-07-31T07:47:09Z</time>
      </trkpt>
      <trkpt lat="42.44681" lon="0.05454">
        <ele>640.2</ele>
        <time>2016-07-31T07:47:10Z</time>
      </trkpt>
      <trkpt lat="42.4468" lon="0.0545">
        <ele>640.6</ele>
        <time>2016-07-31T07:47:11Z</time>
      </trkpt>
      <trkpt lat="42.44679" lon="0.05446">
        <ele>641</ele>
        <time>2016-07-31T07:47:12Z</time>
      </trkpt>
      <trkpt lat="42.44677" lon="0.05442">
        <ele>641.4</ele>
        <time>2016-07-31T07:47:13Z</time>
      </trkpt>
      <trkpt lat="42.44676" lon="0.05438">
        <ele>641.8</ele>
        <time>2016-07-31T07:47:14Z</time>
      </trkpt>
      <trkpt lat="42.44674" lon="0.05434">
        <ele>642.2</ele>
        <time>2016-07-31T07:47:15Z</time>
      </trkpt>
      <trkpt lat="42.44674" lon="0.0543">
        <ele>642.5</ele>
        <time>2016-07-31T07:47:16Z</time>
      </trkpt>
      <trkpt lat="42.44673" lon="0.05425">
        <ele>642.7</ele>
        <time>2016-07-31T07:47:17Z</time>
      </trkpt>
      <trkpt lat="42.44672" lon="0.05421">
        <ele>643</ele>
        <time>2016-07-31T07:47:18Z</time>
      </trkpt>
      <trkpt lat="42.44671" lon="0.05417">
        <ele>643.2</ele>
        <time>2016-07-31T07:47:19Z</time>
      </trkpt>
      <trkpt lat="42.4467" lon="0.05413">
        <ele>643.4</ele>
        <time>2016-07-31T07:47:20Z</time>
      </trkpt>
      <trkpt lat="42.4467" lon="0.05409">
        <ele>643.6</ele>
        <time>2016-07-31T07:47:21Z</time>
      </trkpt>
      <trkpt lat="42.44669" lon="0.05405">
        <ele>643.8</ele>
        <time>2016-07-31T07:47:22Z</time>
      </trkpt>
      <trkpt lat="42.44668" lon="0.05401">
        <ele>643.9</ele>
        <time>2016-07-31T07:47:23Z</time>
      </trkpt>
      <trkpt lat="42.44667" lon="0.05397">
        <ele>644.1</ele>
        <time>2016-07-31T07:47:24Z</time>
      </trkpt>
      <trkpt lat="42.44667" lon="0.05392">
        <ele>644.2</ele>
        <time>2016-07-31T07:47:25Z</time>
      </trkpt>
      <trkpt lat="42.44667" lon="0.05388">
        <ele>644.3</ele>
        <time>2016-07-31T07:47:26Z</time>
      </trkpt>
      <trkpt lat="42.44667" lon="0.05384">
        <ele>644.3</ele>
        <time>2016-07-31T07:47:27Z</time>
      </trkpt>
      <trkpt lat="42.44667" lon="0.0538">
        <ele>644.4</ele>
        <time>2016-07-31T07:47:28Z</time>
      </trkpt>
      <trkpt lat="42.44668" lon="0.05376">
        <ele>644.5</ele>
        <time>2016-07-31T07:47:29Z</time>
      </trkpt>
      <trkpt lat="42.44668" lon="0.05372">
        <ele>644.3</ele>
        <time>2016-07-31T07:47:30Z</time>
      </trkpt>
      <trkpt lat="42.44668" lon="0.05368">
        <ele>644.1</ele>
        <time>2016-07-31T07:47:31Z</time>
      </trkpt>
      <trkpt lat="42.44668" lon="0.05364">
        <ele>643.9</ele>
        <time>2016-07-31T07:47:32Z</time>
      </trkpt>
      <trkpt lat="42.44668" lon="0.0536">
        <ele>643.7</ele>
        <time>2016-07-31T07:47:33Z</time>
      </trkpt>
      <trkpt lat="42.44668" lon="0.05355">
        <ele>643.4</ele>
        <time>2016-07-31T07:47:34Z</time>
      </trkpt>
      <trkpt lat="42.44668" lon="0.05351">
        <ele>643.2</ele>
        <time>2016-07-31T07:47:35Z</time>
      </trkpt>
      <trkpt lat="42.44668" lon="0.05347">
        <ele>643</ele>
        <time>2016-07-31T07:47:36Z</time>
      </trkpt>
      <trkpt lat="42.44668" lon="0.05343">
        <ele>642.8</ele>
        <time>2016-07-31T07:47:37Z</time>
      </trkpt>
      <trkpt lat="42.44668" lon="0.05339">
        <ele>642.6</ele>
        <time>2016-07-31T07:47:38Z</time>
      </trkpt>
      <trkpt lat="42.44668" lon="0.05335">
        <ele>642.4</ele>
        <time>2016-07-31T07:47:39Z</time>
      </trkpt>
      <trkpt lat="42.44668" lon="0.05331">
        <ele>642.2</ele>
        <time>2016-07-31T07:47:40Z</time>
      </trkpt>
      <trkpt lat="42.44667" lon="0.05327">
        <ele>641.9</ele>
        <time>2016-07-31T07:47:41Z</time>
      </trkpt>
      <trkpt lat="42.44667" lon="0.05322">
        <ele>641.7</ele>
        <time>2016-07-31T07:47:42Z</time>
      </trkpt>
      <trkpt lat="42.44668" lon="0.05318">
        <ele>641.5</ele>
        <time>2016-07-31T07:47:43Z</time>
      </trkpt>
      <trkpt lat="42.44668" lon="0.05314">
        <ele>641.3</ele>
        <time>2016-07-31T07:47:44Z</time>
      </trkpt>
      <trkpt lat="42.44668" lon="0.0531">
        <ele>641.1</ele>
        <time>2016-07-31T07:47:45Z</time>
      </trkpt>
      <trkpt lat="42.44668" lon="0.05306">
        <ele>641</ele>
        <time>2016-07-31T07:47:46Z</time>
      </trkpt>
      <trkpt lat="42.44669" lon="0.05302">
        <ele>640.8</ele>
        <time>2016-07-31T07:47:47Z</time>
      </trkpt>
      <trkpt lat="42.44669" lon="0.05298">
        <ele>640.6</ele>
        <time>2016-07-31T07:47:48Z</time>
      </trkpt>
      <trkpt lat="42.44669" lon="0.05294">
        <ele>640.4</ele>
        <time>2016-07-31T07:47:49Z</time>
      </trkpt>
      <trkpt lat="42.44669" lon="0.0529">
        <ele>640.4</ele>
        <time>2016-07-31T07:47:50Z</time>
      </trkpt>
      <trkpt lat="42.4467" lon="0.05285">
        <ele>640.4</ele>
        <time>2016-07-31T07:47:51Z</time>
      </trkpt>
      <trkpt lat="42.4467" lon="0.05282">
        <ele>640.4</ele>
        <time>2016-07-31T07:47:52Z</time>
      </trkpt>
      <trkpt lat="42.4467" lon="0.05278">
        <ele>640.4</ele>
        <time>2016-07-31T07:47:53Z</time>
      </trkpt>
      <trkpt lat="42.4467" lon="0.05274">
        <ele>640.4</ele>
        <time>2016-07-31T07:47:54Z</time>
      </trkpt>
      <trkpt lat="42.4467" lon="0.0527">
        <ele>640.3</ele>
        <time>2016-07-31T07:47:55Z</time>
      </trkpt>
      <trkpt lat="42.44669" lon="0.05266">
        <ele>640.3</ele>
        <time>2016-07-31T07:47:56Z</time>
      </trkpt>
      <trkpt lat="42.44669" lon="0.05262">
        <ele>640.2</ele>
        <time>2016-07-31T07:47:57Z</time>
      </trkpt>
      <trkpt lat="42.44669" lon="0.05259">
        <ele>640.2</ele>
        <time>2016-07-31T07:47:58Z</time>
      </trkpt>
      <trkpt lat="42.44669" lon="0.05255">
        <ele>640.1</ele>
        <time>2016-07-31T07:47:59Z</time>
      </trkpt>
      <trkpt lat="42.44669" lon="0.05251">
        <ele>640.1</ele>
        <time>2016-07-31T07:48:00Z</time>
      </trkpt>
      <trkpt lat="42.44669" lon="0.05247">
        <ele>640.1</ele>
        <time>2016-07-31T07:48:01Z</time>
      </trkpt>
      <trkpt lat="42.44669" lon="0.05244">
        <ele>640.1</ele>
        <time>2016-07-31T07:48:02Z</time>
      </trkpt>
      <trkpt lat="42.44669" lon="0.0524">
        <ele>640.1</ele>
        <time>2016-07-31T07:48:03Z</time>
      </trkpt>
      <trkpt lat="42.44669" lon="0.05236">
        <ele>640</ele>
        <time>2016-07-31T07:48:04Z</time>
      </trkpt>
      <trkpt lat="42.44669" lon="0.05232">
        <ele>640</ele>
        <time>2016-07-31T07:48:05Z</time>
      </trkpt>
      <trkpt lat="42.44669" lon="0.05228">
        <ele>640</ele>
        <time>2016-07-31T07:48:06Z</time>
      </trkpt>
      <trkpt lat="42.44669" lon="0.05224">
        <ele>639.9</ele>
        <time>2016-07-31T07:48:07Z</time>
      </trkpt>
      <trkpt lat="42.44669" lon="0.05219">
        <ele>639.9</ele>
        <time>2016-07-31T07:48:08Z</time>
      </trkpt>
      <trkpt lat="42.44669" lon="0.05215">
        <ele>640</ele>
        <time>2016-07-31T07:48:09Z</time>
      </trkpt>
      <trkpt lat="42.44669" lon="0.05211">
        <ele>640</ele>
        <time>2016-07-31T07:48:10Z</time>
      </trkpt>
      <trkpt lat="42.4467" lon="0.05206">
        <ele>640</ele>
        <time>2016-07-31T07:48:11Z</time>
      </trkpt>
      <trkpt lat="42.4467" lon="0.05202">
        <ele>639.8</ele>
        <time>2016-07-31T07:48:12Z</time>
      </trkpt>
      <trkpt lat="42.44671" lon="0.05198">
        <ele>639.7</ele>
        <time>2016-07-31T07:48:13Z</time>
      </trkpt>
      <trkpt lat="42.44672" lon="0.05194">
        <ele>639.7</ele>
        <time>2016-07-31T07:48:14Z</time>
      </trkpt>
      <trkpt lat="42.44673" lon="0.0519">
        <ele>639.7</ele>
        <time>2016-07-31T07:48:15Z</time>
      </trkpt>
      <trkpt lat="42.44674" lon="0.05186">
        <ele>639.7</ele>
        <time>2016-07-31T07:48:16Z</time>
      </trkpt>
      <trkpt lat="42.44675" lon="0.05182">
        <ele>639.7</ele>
        <time>2016-07-31T07:48:17Z</time>
      </trkpt>
      <trkpt lat="42.44677" lon="0.05178">
        <ele>639.7</ele>
        <time>2016-07-31T07:48:18Z</time>
      </trkpt>
      <trkpt lat="42.44678" lon="0.05174">
        <ele>639.7</ele>
        <time>2016-07-31T07:48:19Z</time>
      </trkpt>
      <trkpt lat="42.44679" lon="0.05171">
        <ele>639.7</ele>
        <time>2016-07-31T07:48:20Z</time>
      </trkpt>
      <trkpt lat="42.4468" lon="0.05167">
        <ele>639.7</ele>
        <time>2016-07-31T07:48:21Z</time>
      </trkpt>
      <trkpt lat="42.44681" lon="0.05163">
        <ele>639.6</ele>
        <time>2016-07-31T07:48:22Z</time>
      </trkpt>
      <trkpt lat="42.44681" lon="0.05159">
        <ele>639.6</ele>
        <time>2016-07-31T07:48:23Z</time>
      </trkpt>
      <trkpt lat="42.44682" lon="0.05154">
        <ele>639.5</ele>
        <time>2016-07-31T07:48:24Z</time>
      </trkpt>
      <trkpt lat="42.44683" lon="0.0515">
        <ele>639.4</ele>
        <time>2016-07-31T07:48:25Z</time>
      </trkpt>
      <trkpt lat="42.44684" lon="0.05146">
        <ele>639.3</ele>
        <time>2016-07-31T07:48:26Z</time>
      </trkpt>
      <trkpt lat="42.44684" lon="0.05142">
        <ele>639.2</ele>
        <time>2016-07-31T07:48:27Z</time>
      </trkpt>
      <trkpt lat="42.44685" lon="0.05138">
        <ele>639.1</ele>
        <time>2016-07-31T07:48:28Z</time>
      </trkpt>
      <trkpt lat="42.44685" lon="0.05134">
        <ele>639</ele>
        <time>2016-07-31T07:48:29Z</time>
      </trkpt>
      <trkpt lat="42.44685" lon="0.0513">
        <ele>638.8</ele>
        <time>2016-07-31T07:48:30Z</time>
      </trkpt>
      <trkpt lat="42.44685" lon="0.05126">
        <ele>638.6</ele>
        <time>2016-07-31T07:48:31Z</time>
      </trkpt>
      <trkpt lat="42.44685" lon="0.05122">
        <ele>638.6</ele>
        <time>2016-07-31T07:48:32Z</time>
      </trkpt>
      <trkpt lat="42.44685" lon="0.05119">
        <ele>638.9</ele>
        <time>2016-07-31T07:48:33Z</time>
      </trkpt>
      <trkpt lat="42.44685" lon="0.05115">
        <ele>639.1</ele>
        <time>2016-07-31T07:48:34Z</time>
      </trkpt>
      <trkpt lat="42.44686" lon="0.05111">
        <ele>639.4</ele>
        <time>2016-07-31T07:48:35Z</time>
      </trkpt>
      <trkpt lat="42.44686" lon="0.05107">
        <ele>639.7</ele>
        <time>2016-07-31T07:48:36Z</time>
      </trkpt>
      <trkpt lat="42.44687" lon="0.05103">
        <ele>639.9</ele>
        <time>2016-07-31T07:48:37Z</time>
      </trkpt>
      <trkpt lat="42.44688" lon="0.051">
        <ele>640.2</ele>
        <time>2016-07-31T07:48:38Z</time>
      </trkpt>
      <trkpt lat="42.44689" lon="0.05093">
        <ele>640.8</ele>
        <time>2016-07-31T07:48:40Z</time>
      </trkpt>
      <trkpt lat="42.44692" lon="0.05087">
        <ele>641.5</ele>
        <time>2016-07-31T07:48:42Z</time>
      </trkpt>
      <trkpt lat="42.44695" lon="0.05081">
        <ele>642.4</ele>
        <time>2016-07-31T07:48:44Z</time>
      </trkpt>
      <trkpt lat="42.44697" lon="0.05078">
        <ele>642.8</ele>
        <time>2016-07-31T07:48:45Z</time>
      </trkpt>
      <trkpt lat="42.44699" lon="0.05075">
        <ele>643.3</ele>
        <time>2016-07-31T07:48:46Z</time>
      </trkpt>
      <trkpt lat="42.44701" lon="0.05073">
        <ele>643.7</ele>
        <time>2016-07-31T07:48:47Z</time>
      </trkpt>
      <trkpt lat="42.44703" lon="0.0507">
        <ele>644.1</ele>
        <time>2016-07-31T07:48:48Z</time>
      </trkpt>
      <trkpt lat="42.44705" lon="0.05067">
        <ele>644.6</ele>
        <time>2016-07-31T07:48:49Z</time>
      </trkpt>
      <trkpt lat="42.44708" lon="0.05064">
        <ele>645.1</ele>
        <time>2016-07-31T07:48:50Z</time>
      </trkpt>
      <trkpt lat="42.4471" lon="0.05061">
        <ele>646</ele>
        <time>2016-07-31T07:48:51Z</time>
      </trkpt>
      <trkpt lat="42.44712" lon="0.05058">
        <ele>647</ele>
        <time>2016-07-31T07:48:52Z</time>
      </trkpt>
      <trkpt lat="42.44714" lon="0.05055">
        <ele>648.1</ele>
        <time>2016-07-31T07:48:53Z</time>
      </trkpt>
      <trkpt lat="42.44716" lon="0.05052">
        <ele>649.1</ele>
        <time>2016-07-31T07:48:54Z</time>
      </trkpt>
      <trkpt lat="42.44719" lon="0.05049">
        <ele>650</ele>
        <time>2016-07-31T07:48:55Z</time>
      </trkpt>
      <trkpt lat="42.44721" lon="0.05046">
        <ele>650.9</ele>
        <time>2016-07-31T07:48:56Z</time>
      </trkpt>
      <trkpt lat="42.44723" lon="0.05042">
        <ele>651.8</ele>
        <time>2016-07-31T07:48:57Z</time>
      </trkpt>
      <trkpt lat="42.44724" lon="0.05039">
        <ele>653.2</ele>
        <time>2016-07-31T07:48:58Z</time>
      </trkpt>
      <trkpt lat="42.44726" lon="0.05035">
        <ele>654.7</ele>
        <time>2016-07-31T07:48:59Z</time>
      </trkpt>
      <trkpt lat="42.44727" lon="0.05032">
        <ele>656.1</ele>
        <time>2016-07-31T07:49:00Z</time>
      </trkpt>
      <trkpt lat="42.44728" lon="0.05028">
        <ele>657.4</ele>
        <time>2016-07-31T07:49:01Z</time>
      </trkpt>
      <trkpt lat="42.44729" lon="0.05024">
        <ele>658.6</ele>
        <time>2016-07-31T07:49:02Z</time>
      </trkpt>
      <trkpt lat="42.4473" lon="0.0502">
        <ele>659.8</ele>
        <time>2016-07-31T07:49:03Z</time>
      </trkpt>
      <trkpt lat="42.4473" lon="0.05016">
        <ele>660.8</ele>
        <time>2016-07-31T07:49:04Z</time>
      </trkpt>
      <trkpt lat="42.4473" lon="0.05012">
        <ele>661.8</ele>
        <time>2016-07-31T07:49:05Z</time>
      </trkpt>
      <trkpt lat="42.4473" lon="0.05005">
        <ele>663.5</ele>
        <time>2016-07-31T07:49:07Z</time>
      </trkpt>
      <trkpt lat="42.4473" lon="0.05001">
        <ele>664.4</ele>
        <time>2016-07-31T07:49:08Z</time>
      </trkpt>
      <trkpt lat="42.4473" lon="0.04997">
        <ele>665.3</ele>
        <time>2016-07-31T07:49:09Z</time>
      </trkpt>
      <trkpt lat="42.44729" lon="0.04993">
        <ele>666.1</ele>
        <time>2016-07-31T07:49:10Z</time>
      </trkpt>
      <trkpt lat="42.44728" lon="0.04988">
        <ele>666.9</ele>
        <time>2016-07-31T07:49:11Z</time>
      </trkpt>
      <trkpt lat="42.44727" lon="0.04983">
        <ele>667.7</ele>
        <time>2016-07-31T07:49:12Z</time>
      </trkpt>
      <trkpt lat="42.44725" lon="0.04979">
        <ele>668.3</ele>
        <time>2016-07-31T07:49:13Z</time>
      </trkpt>
      <trkpt lat="42.44723" lon="0.04975">
        <ele>668.9</ele>
        <time>2016-07-31T07:49:14Z</time>
      </trkpt>
      <trkpt lat="42.44721" lon="0.0497">
        <ele>669.4</ele>
        <time>2016-07-31T07:49:15Z</time>
      </trkpt>
      <trkpt lat="42.44718" lon="0.04966">
        <ele>669.8</ele>
        <time>2016-07-31T07:49:16Z</time>
      </trkpt>
      <trkpt lat="42.44714" lon="0.04962">
        <ele>670.1</ele>
        <time>2016-07-31T07:49:17Z</time>
      </trkpt>
      <trkpt lat="42.44711" lon="0.04959">
        <ele>670.3</ele>
        <time>2016-07-31T07:49:18Z</time>
      </trkpt>
      <trkpt lat="42.44707" lon="0.04956">
        <ele>669.9</ele>
        <time>2016-07-31T07:49:19Z</time>
      </trkpt>
      <trkpt lat="42.44703" lon="0.04954">
        <ele>669.2</ele>
        <time>2016-07-31T07:49:20Z</time>
      </trkpt>
      <trkpt lat="42.44699" lon="0.04952">
        <ele>668.4</ele>
        <time>2016-07-31T07:49:21Z</time>
      </trkpt>
      <trkpt lat="42.44694" lon="0.0495">
        <ele>667.4</ele>
        <time>2016-07-31T07:49:22Z</time>
      </trkpt>
      <trkpt lat="42.4469" lon="0.04949">
        <ele>666.4</ele>
        <time>2016-07-31T07:49:23Z</time>
      </trkpt>
      <trkpt lat="42.44684" lon="0.04948">
        <ele>665</ele>
        <time>2016-07-31T07:49:24Z</time>
      </trkpt>
      <trkpt lat="42.4468" lon="0.04946">
        <ele>664.1</ele>
        <time>2016-07-31T07:49:25Z</time>
      </trkpt>
      <trkpt lat="42.44676" lon="0.04943">
        <ele>663.2</ele>
        <time>2016-07-31T07:49:26Z</time>
      </trkpt>
      <trkpt lat="42.44671" lon="0.04941">
        <ele>662.2</ele>
        <time>2016-07-31T07:49:27Z</time>
      </trkpt>
      <trkpt lat="42.44667" lon="0.0494">
        <ele>661.2</ele>
        <time>2016-07-31T07:49:28Z</time>
      </trkpt>
      <trkpt lat="42.44663" lon="0.04939">
        <ele>660.1</ele>
        <time>2016-07-31T07:49:29Z</time>
      </trkpt>
      <trkpt lat="42.44659" lon="0.04938">
        <ele>659.2</ele>
        <time>2016-07-31T07:49:30Z</time>
      </trkpt>
      <trkpt lat="42.44655" lon="0.04935">
        <ele>658.1</ele>
        <time>2016-07-31T07:49:31Z</time>
      </trkpt>
      <trkpt lat="42.4465" lon="0.04934">
        <ele>657</ele>
        <time>2016-07-31T07:49:32Z</time>
      </trkpt>
      <trkpt lat="42.44645" lon="0.04932">
        <ele>655.8</ele>
        <time>2016-07-31T07:49:33Z</time>
      </trkpt>
      <trkpt lat="42.44641" lon="0.0493">
        <ele>654.7</ele>
        <time>2016-07-31T07:49:34Z</time>
      </trkpt>
      <trkpt lat="42.44636" lon="0.04928">
        <ele>653.5</ele>
        <time>2016-07-31T07:49:35Z</time>
      </trkpt>
      <trkpt lat="42.44632" lon="0.04925">
        <ele>652.4</ele>
        <time>2016-07-31T07:49:36Z</time>
      </trkpt>
      <trkpt lat="42.44628" lon="0.04922">
        <ele>651.4</ele>
        <time>2016-07-31T07:49:37Z</time>
      </trkpt>
      <trkpt lat="42.44623" lon="0.0492">
        <ele>650.6</ele>
        <time>2016-07-31T07:49:38Z</time>
      </trkpt>
      <trkpt lat="42.44619" lon="0.04916">
        <ele>650.5</ele>
        <time>2016-07-31T07:49:39Z</time>
      </trkpt>
      <trkpt lat="42.44616" lon="0.04911">
        <ele>650.5</ele>
        <time>2016-07-31T07:49:40Z</time>
      </trkpt>
      <trkpt lat="42.44612" lon="0.04906">
        <ele>650.4</ele>
        <time>2016-07-31T07:49:41Z</time>
      </trkpt>
      <trkpt lat="42.44606" lon="0.04887">
        <ele>650.5</ele>
        <time>2016-07-31T07:49:44Z</time>
      </trkpt>
      <trkpt lat="42.44604" lon="0.04881">
        <ele>650.5</ele>
        <time>2016-07-31T07:49:45Z</time>
      </trkpt>
      <trkpt lat="42.44604" lon="0.04875">
        <ele>650.7</ele>
        <time>2016-07-31T07:49:46Z</time>
      </trkpt>
      <trkpt lat="42.44603" lon="0.04869">
        <ele>650.6</ele>
        <time>2016-07-31T07:49:47Z</time>
      </trkpt>
      <trkpt lat="42.44603" lon="0.04863">
        <ele>650.5</ele>
        <time>2016-07-31T07:49:48Z</time>
      </trkpt>
      <trkpt lat="42.44603" lon="0.04858">
        <ele>650.6</ele>
        <time>2016-07-31T07:49:49Z</time>
      </trkpt>
      <trkpt lat="42.44604" lon="0.04851">
        <ele>650.6</ele>
        <time>2016-07-31T07:49:50Z</time>
      </trkpt>
      <trkpt lat="42.44604" lon="0.04844">
        <ele>650.7</ele>
        <time>2016-07-31T07:49:51Z</time>
      </trkpt>
      <trkpt lat="42.44605" lon="0.04838">
        <ele>650.7</ele>
        <time>2016-07-31T07:49:52Z</time>
      </trkpt>
      <trkpt lat="42.44606" lon="0.04832">
        <ele>650.9</ele>
        <time>2016-07-31T07:49:53Z</time>
      </trkpt>
      <trkpt lat="42.44607" lon="0.04825">
        <ele>651</ele>
        <time>2016-07-31T07:49:54Z</time>
      </trkpt>
      <trkpt lat="42.44609" lon="0.04818">
        <ele>651.1</ele>
        <time>2016-07-31T07:49:55Z</time>
      </trkpt>
      <trkpt lat="42.44609" lon="0.04812">
        <ele>651.1</ele>
        <time>2016-07-31T07:49:56Z</time>
      </trkpt>
      <trkpt lat="42.4461" lon="0.04805">
        <ele>651.3</ele>
        <time>2016-07-31T07:49:57Z</time>
      </trkpt>
      <trkpt lat="42.44611" lon="0.04799">
        <ele>651.4</ele>
        <time>2016-07-31T07:49:58Z</time>
      </trkpt>
      <trkpt lat="42.44612" lon="0.04793">
        <ele>651.4</ele>
        <time>2016-07-31T07:49:59Z</time>
      </trkpt>
      <trkpt lat="42.44613" lon="0.04786">
        <ele>652.2</ele>
        <time>2016-07-31T07:50:00Z</time>
      </trkpt>
      <trkpt lat="42.44614" lon="0.0478">
        <ele>653.1</ele>
        <time>2016-07-31T07:50:01Z</time>
      </trkpt>
      <trkpt lat="42.44614" lon="0.04774">
        <ele>654</ele>
        <time>2016-07-31T07:50:02Z</time>
      </trkpt>
      <trkpt lat="42.44614" lon="0.04766">
        <ele>655</ele>
        <time>2016-07-31T07:50:03Z</time>
      </trkpt>
      <trkpt lat="42.44614" lon="0.0476">
        <ele>655.9</ele>
        <time>2016-07-31T07:50:04Z</time>
      </trkpt>
      <trkpt lat="42.44615" lon="0.04753">
        <ele>656.7</ele>
        <time>2016-07-31T07:50:05Z</time>
      </trkpt>
      <trkpt lat="42.44616" lon="0.04746">
        <ele>657.7</ele>
        <time>2016-07-31T07:50:06Z</time>
      </trkpt>
      <trkpt lat="42.44615" lon="0.0474">
        <ele>658.4</ele>
        <time>2016-07-31T07:50:07Z</time>
      </trkpt>
      <trkpt lat="42.44615" lon="0.04735">
        <ele>659.1</ele>
        <time>2016-07-31T07:50:08Z</time>
      </trkpt>
      <trkpt lat="42.44614" lon="0.04728">
        <ele>660</ele>
        <time>2016-07-31T07:50:09Z</time>
      </trkpt>
      <trkpt lat="42.44612" lon="0.04722">
        <ele>660.8</ele>
        <time>2016-07-31T07:50:10Z</time>
      </trkpt>
      <trkpt lat="42.44611" lon="0.04716">
        <ele>661.7</ele>
        <time>2016-07-31T07:50:11Z</time>
      </trkpt>
      <trkpt lat="42.44608" lon="0.0471">
        <ele>662.6</ele>
        <time>2016-07-31T07:50:12Z</time>
      </trkpt>
      <trkpt lat="42.44605" lon="0.04705">
        <ele>663.5</ele>
        <time>2016-07-31T07:50:13Z</time>
      </trkpt>
      <trkpt lat="42.44601" lon="0.04701">
        <ele>664.2</ele>
        <time>2016-07-31T07:50:14Z</time>
      </trkpt>
      <trkpt lat="42.44597" lon="0.04699">
        <ele>664.8</ele>
        <time>2016-07-31T07:50:15Z</time>
      </trkpt>
      <trkpt lat="42.44593" lon="0.04696">
        <ele>665.5</ele>
        <time>2016-07-31T07:50:16Z</time>
      </trkpt>
      <trkpt lat="42.44588" lon="0.04694">
        <ele>666.3</ele>
        <time>2016-07-31T07:50:17Z</time>
      </trkpt>
      <trkpt lat="42.44584" lon="0.04692">
        <ele>666.9</ele>
        <time>2016-07-31T07:50:18Z</time>
      </trkpt>
      <trkpt lat="42.4458" lon="0.0469">
        <ele>667.6</ele>
        <time>2016-07-31T07:50:19Z</time>
      </trkpt>
      <trkpt lat="42.44574" lon="0.04689">
        <ele>668.4</ele>
        <time>2016-07-31T07:50:20Z</time>
      </trkpt>
      <trkpt lat="42.4457" lon="0.04689">
        <ele>668.8</ele>
        <time>2016-07-31T07:50:21Z</time>
      </trkpt>
      <trkpt lat="42.44565" lon="0.04688">
        <ele>669.5</ele>
        <time>2016-07-31T07:50:22Z</time>
      </trkpt>
      <trkpt lat="42.4456" lon="0.04686">
        <ele>670.2</ele>
        <time>2016-07-31T07:50:23Z</time>
      </trkpt>
      <trkpt lat="42.44555" lon="0.04684">
        <ele>671.2</ele>
        <time>2016-07-31T07:50:24Z</time>
      </trkpt>
      <trkpt lat="42.44551" lon="0.04684">
        <ele>671.8</ele>
        <time>2016-07-31T07:50:25Z</time>
      </trkpt>
      <trkpt lat="42.44546" lon="0.04682">
        <ele>672.8</ele>
        <time>2016-07-31T07:50:26Z</time>
      </trkpt>
      <trkpt lat="42.44542" lon="0.04681">
        <ele>673.6</ele>
        <time>2016-07-31T07:50:27Z</time>
      </trkpt>
      <trkpt lat="42.44537" lon="0.04681">
        <ele>674</ele>
        <time>2016-07-31T07:50:28Z</time>
      </trkpt>
      <trkpt lat="42.44533" lon="0.0468">
        <ele>674.6</ele>
        <time>2016-07-31T07:50:29Z</time>
      </trkpt>
      <trkpt lat="42.44528" lon="0.04678">
        <ele>675.3</ele>
        <time>2016-07-31T07:50:30Z</time>
      </trkpt>
      <trkpt lat="42.44524" lon="0.04676">
        <ele>676.3</ele>
        <time>2016-07-31T07:50:31Z</time>
      </trkpt>
      <trkpt lat="42.4452" lon="0.04675">
        <ele>676.8</ele>
        <time>2016-07-31T07:50:32Z</time>
      </trkpt>
      <trkpt lat="42.44515" lon="0.04675">
        <ele>677.3</ele>
        <time>2016-07-31T07:50:33Z</time>
      </trkpt>
      <trkpt lat="42.4451" lon="0.04673">
        <ele>678.2</ele>
        <time>2016-07-31T07:50:34Z</time>
      </trkpt>
      <trkpt lat="42.44505" lon="0.04672">
        <ele>679</ele>
        <time>2016-07-31T07:50:35Z</time>
      </trkpt>
      <trkpt lat="42.445" lon="0.0467">
        <ele>680</ele>
        <time>2016-07-31T07:50:36Z</time>
      </trkpt>
      <trkpt lat="42.44496" lon="0.04669">
        <ele>680.6</ele>
        <time>2016-07-31T07:50:37Z</time>
      </trkpt>
      <trkpt lat="42.44492" lon="0.04668">
        <ele>681.2</ele>
        <time>2016-07-31T07:50:38Z</time>
      </trkpt>
      <trkpt lat="42.44488" lon="0.04667">
        <ele>682</ele>
        <time>2016-07-31T07:50:39Z</time>
      </trkpt>
      <trkpt lat="42.44484" lon="0.04666">
        <ele>682.5</ele>
        <time>2016-07-31T07:50:40Z</time>
      </trkpt>
      <trkpt lat="42.4448" lon="0.04666">
        <ele>682.9</ele>
        <time>2016-07-31T07:50:41Z</time>
      </trkpt>
      <trkpt lat="42.44476" lon="0.04666">
        <ele>683.3</ele>
        <time>2016-07-31T07:50:42Z</time>
      </trkpt>
      <trkpt lat="42.44472" lon="0.04665">
        <ele>683.8</ele>
        <time>2016-07-31T07:50:43Z</time>
      </trkpt>
      <trkpt lat="42.44468" lon="0.04664">
        <ele>684.5</ele>
        <time>2016-07-31T07:50:44Z</time>
      </trkpt>
      <trkpt lat="42.44464" lon="0.04663">
        <ele>685.2</ele>
        <time>2016-07-31T07:50:45Z</time>
      </trkpt>
      <trkpt lat="42.4446" lon="0.04662">
        <ele>685.9</ele>
        <time>2016-07-31T07:50:46Z</time>
      </trkpt>
      <trkpt lat="42.44457" lon="0.04662">
        <ele>686.3</ele>
        <time>2016-07-31T07:50:47Z</time>
      </trkpt>
      <trkpt lat="42.44453" lon="0.04662">
        <ele>686.2</ele>
        <time>2016-07-31T07:50:48Z</time>
      </trkpt>
      <trkpt lat="42.4445" lon="0.04662">
        <ele>686.1</ele>
        <time>2016-07-31T07:50:49Z</time>
      </trkpt>
      <trkpt lat="42.44446" lon="0.04662">
        <ele>686.1</ele>
        <time>2016-07-31T07:50:50Z</time>
      </trkpt>
      <trkpt lat="42.44443" lon="0.04662">
        <ele>686</ele>
        <time>2016-07-31T07:50:51Z</time>
      </trkpt>
      <trkpt lat="42.44439" lon="0.04663">
        <ele>685.9</ele>
        <time>2016-07-31T07:50:52Z</time>
      </trkpt>
      <trkpt lat="42.44436" lon="0.04663">
        <ele>685.8</ele>
        <time>2016-07-31T07:50:53Z</time>
      </trkpt>
      <trkpt lat="42.44433" lon="0.04664">
        <ele>685.5</ele>
        <time>2016-07-31T07:50:54Z</time>
      </trkpt>
      <trkpt lat="42.4443" lon="0.04665">
        <ele>685.2</ele>
        <time>2016-07-31T07:50:55Z</time>
      </trkpt>
      <trkpt lat="42.44427" lon="0.04666">
        <ele>684.9</ele>
        <time>2016-07-31T07:50:56Z</time>
      </trkpt>
      <trkpt lat="42.44424" lon="0.04666">
        <ele>684.7</ele>
        <time>2016-07-31T07:50:57Z</time>
      </trkpt>
      <trkpt lat="42.4442" lon="0.04667">
        <ele>684.5</ele>
        <time>2016-07-31T07:50:58Z</time>
      </trkpt>
      <trkpt lat="42.44417" lon="0.04667">
        <ele>684.4</ele>
        <time>2016-07-31T07:50:59Z</time>
      </trkpt>
      <trkpt lat="42.44414" lon="0.04667">
        <ele>684.3</ele>
        <time>2016-07-31T07:51:00Z</time>
      </trkpt>
      <trkpt lat="42.4441" lon="0.04668">
        <ele>684.1</ele>
        <time>2016-07-31T07:51:01Z</time>
      </trkpt>
      <trkpt lat="42.44407" lon="0.04668">
        <ele>683.9</ele>
        <time>2016-07-31T07:51:02Z</time>
      </trkpt>
      <trkpt lat="42.44404" lon="0.04668">
        <ele>683.9</ele>
        <time>2016-07-31T07:51:03Z</time>
      </trkpt>
      <trkpt lat="42.44401" lon="0.04668">
        <ele>684</ele>
        <time>2016-07-31T07:51:04Z</time>
      </trkpt>
      <trkpt lat="42.44397" lon="0.04668">
        <ele>684.2</ele>
        <time>2016-07-31T07:51:05Z</time>
      </trkpt>
      <trkpt lat="42.44394" lon="0.04667">
        <ele>684.5</ele>
        <time>2016-07-31T07:51:06Z</time>
      </trkpt>
      <trkpt lat="42.44391" lon="0.04666">
        <ele>684.7</ele>
        <time>2016-07-31T07:51:07Z</time>
      </trkpt>
      <trkpt lat="42.44388" lon="0.04665">
        <ele>685.1</ele>
        <time>2016-07-31T07:51:08Z</time>
      </trkpt>
      <trkpt lat="42.44385" lon="0.04664">
        <ele>685.6</ele>
        <time>2016-07-31T07:51:09Z</time>
      </trkpt>
      <trkpt lat="42.44383" lon="0.04662">
        <ele>686.1</ele>
        <time>2016-07-31T07:51:10Z</time>
      </trkpt>
      <trkpt lat="42.4438" lon="0.04661">
        <ele>686.6</ele>
        <time>2016-07-31T07:51:11Z</time>
      </trkpt>
      <trkpt lat="42.44378" lon="0.04659">
        <ele>687.2</ele>
        <time>2016-07-31T07:51:12Z</time>
      </trkpt>
      <trkpt lat="42.44375" lon="0.04658">
        <ele>687.7</ele>
        <time>2016-07-31T07:51:13Z</time>
      </trkpt>
      <trkpt lat="42.44372" lon="0.04657">
        <ele>688.1</ele>
        <time>2016-07-31T07:51:14Z</time>
      </trkpt>
      <trkpt lat="42.44369" lon="0.04656">
        <ele>688.3</ele>
        <time>2016-07-31T07:51:15Z</time>
      </trkpt>
      <trkpt lat="42.44366" lon="0.04655">
        <ele>688.7</ele>
        <time>2016-07-31T07:51:16Z</time>
      </trkpt>
      <trkpt lat="42.44363" lon="0.04653">
        <ele>689.2</ele>
        <time>2016-07-31T07:51:17Z</time>
      </trkpt>
      <trkpt lat="42.4436" lon="0.04652">
        <ele>689.8</ele>
        <time>2016-07-31T07:51:18Z</time>
      </trkpt>
      <trkpt lat="42.44357" lon="0.0465">
        <ele>690.3</ele>
        <time>2016-07-31T07:51:19Z</time>
      </trkpt>
      <trkpt lat="42.44354" lon="0.04649">
        <ele>690.9</ele>
        <time>2016-07-31T07:51:20Z</time>
      </trkpt>
      <trkpt lat="42.44351" lon="0.04647">
        <ele>691.3</ele>
        <time>2016-07-31T07:51:21Z</time>
      </trkpt>
      <trkpt lat="42.44348" lon="0.04646">
        <ele>691.6</ele>
        <time>2016-07-31T07:51:22Z</time>
      </trkpt>
      <trkpt lat="42.44346" lon="0.04646">
        <ele>691.8</ele>
        <time>2016-07-31T07:51:23Z</time>
      </trkpt>
      <trkpt lat="42.44343" lon="0.04645">
        <ele>692.1</ele>
        <time>2016-07-31T07:51:24Z</time>
      </trkpt>
      <trkpt lat="42.4434" lon="0.04644">
        <ele>692.3</ele>
        <time>2016-07-31T07:51:25Z</time>
      </trkpt>
      <trkpt lat="42.44337" lon="0.04643">
        <ele>692.5</ele>
        <time>2016-07-31T07:51:26Z</time>
      </trkpt>
      <trkpt lat="42.44335" lon="0.04642">
        <ele>692.9</ele>
        <time>2016-07-31T07:51:27Z</time>
      </trkpt>
      <trkpt lat="42.44332" lon="0.04641">
        <ele>693.3</ele>
        <time>2016-07-31T07:51:28Z</time>
      </trkpt>
      <trkpt lat="42.44329" lon="0.0464">
        <ele>693.6</ele>
        <time>2016-07-31T07:51:29Z</time>
      </trkpt>
      <trkpt lat="42.44327" lon="0.0464">
        <ele>693.8</ele>
        <time>2016-07-31T07:51:30Z</time>
      </trkpt>
      <trkpt lat="42.44324" lon="0.04639">
        <ele>693.8</ele>
        <time>2016-07-31T07:51:31Z</time>
      </trkpt>
      <trkpt lat="42.44321" lon="0.04639">
        <ele>693.8</ele>
        <time>2016-07-31T07:51:32Z</time>
      </trkpt>
      <trkpt lat="42.44318" lon="0.0464">
        <ele>693.7</ele>
        <time>2016-07-31T07:51:33Z</time>
      </trkpt>
      <trkpt lat="42.44315" lon="0.04639">
        <ele>693.8</ele>
        <time>2016-07-31T07:51:34Z</time>
      </trkpt>
      <trkpt lat="42.44312" lon="0.04639">
        <ele>694</ele>
        <time>2016-07-31T07:51:35Z</time>
      </trkpt>
      <trkpt lat="42.44309" lon="0.04638">
        <ele>694.2</ele>
        <time>2016-07-31T07:51:36Z</time>
      </trkpt>
      <trkpt lat="42.44306" lon="0.04637">
        <ele>694.5</ele>
        <time>2016-07-31T07:51:37Z</time>
      </trkpt>
      <trkpt lat="42.44303" lon="0.04636">
        <ele>694.9</ele>
        <time>2016-07-31T07:51:38Z</time>
      </trkpt>
      <trkpt lat="42.443" lon="0.04634">
        <ele>695.3</ele>
        <time>2016-07-31T07:51:39Z</time>
      </trkpt>
      <trkpt lat="42.44298" lon="0.04633">
        <ele>695.8</ele>
        <time>2016-07-31T07:51:40Z</time>
      </trkpt>
      <trkpt lat="42.44295" lon="0.04631">
        <ele>696.2</ele>
        <time>2016-07-31T07:51:41Z</time>
      </trkpt>
      <trkpt lat="42.44292" lon="0.0463">
        <ele>696.5</ele>
        <time>2016-07-31T07:51:42Z</time>
      </trkpt>
      <trkpt lat="42.44289" lon="0.04629">
        <ele>697.1</ele>
        <time>2016-07-31T07:51:43Z</time>
      </trkpt>
      <trkpt lat="42.44286" lon="0.04628">
        <ele>697.7</ele>
        <time>2016-07-31T07:51:44Z</time>
      </trkpt>
      <trkpt lat="42.44284" lon="0.04627">
        <ele>698.3</ele>
        <time>2016-07-31T07:51:45Z</time>
      </trkpt>
      <trkpt lat="42.44281" lon="0.04627">
        <ele>698.9</ele>
        <time>2016-07-31T07:51:46Z</time>
      </trkpt>
      <trkpt lat="42.44276" lon="0.04625">
        <ele>699.8</ele>
        <time>2016-07-31T07:51:48Z</time>
      </trkpt>
      <trkpt lat="42.44271" lon="0.04624">
        <ele>700.8</ele>
        <time>2016-07-31T07:51:50Z</time>
      </trkpt>
      <trkpt lat="42.44266" lon="0.04623">
        <ele>702</ele>
        <time>2016-07-31T07:51:52Z</time>
      </trkpt>
      <trkpt lat="42.44261" lon="0.0462">
        <ele>703.3</ele>
        <time>2016-07-31T07:51:54Z</time>
      </trkpt>
      <trkpt lat="42.44256" lon="0.04618">
        <ele>704.5</ele>
        <time>2016-07-31T07:51:56Z</time>
      </trkpt>
      <trkpt lat="42.44251" lon="0.04617">
        <ele>705.5</ele>
        <time>2016-07-31T07:51:58Z</time>
      </trkpt>
      <trkpt lat="42.44246" lon="0.04616">
        <ele>706.4</ele>
        <time>2016-07-31T07:52:00Z</time>
      </trkpt>
      <trkpt lat="42.44241" lon="0.04614">
        <ele>707.5</ele>
        <time>2016-07-31T07:52:02Z</time>
      </trkpt>
      <trkpt lat="42.44236" lon="0.04612">
        <ele>708.8</ele>
        <time>2016-07-31T07:52:04Z</time>
      </trkpt>
      <trkpt lat="42.44232" lon="0.04609">
        <ele>710.1</ele>
        <time>2016-07-31T07:52:06Z</time>
      </trkpt>
      <trkpt lat="42.44227" lon="0.04606">
        <ele>711.4</ele>
        <time>2016-07-31T07:52:08Z</time>
      </trkpt>
      <trkpt lat="42.44222" lon="0.04605">
        <ele>712.4</ele>
        <time>2016-07-31T07:52:10Z</time>
      </trkpt>
      <trkpt lat="42.44216" lon="0.04603">
        <ele>713.4</ele>
        <time>2016-07-31T07:52:12Z</time>
      </trkpt>
      <trkpt lat="42.44211" lon="0.04601">
        <ele>714.3</ele>
        <time>2016-07-31T07:52:14Z</time>
      </trkpt>
      <trkpt lat="42.44206" lon="0.046">
        <ele>714.8</ele>
        <time>2016-07-31T07:52:16Z</time>
      </trkpt>
      <trkpt lat="42.44201" lon="0.046">
        <ele>714.8</ele>
        <time>2016-07-31T07:52:18Z</time>
      </trkpt>
      <trkpt lat="42.44195" lon="0.04601">
        <ele>714.4</ele>
        <time>2016-07-31T07:52:20Z</time>
      </trkpt>
      <trkpt lat="42.44193" lon="0.04602">
        <ele>714.1</ele>
        <time>2016-07-31T07:52:21Z</time>
      </trkpt>
      <trkpt lat="42.4419" lon="0.04604">
        <ele>713.7</ele>
        <time>2016-07-31T07:52:22Z</time>
      </trkpt>
      <trkpt lat="42.44188" lon="0.04605">
        <ele>713.3</ele>
        <time>2016-07-31T07:52:23Z</time>
      </trkpt>
      <trkpt lat="42.44185" lon="0.04607">
        <ele>712.8</ele>
        <time>2016-07-31T07:52:24Z</time>
      </trkpt>
      <trkpt lat="42.44183" lon="0.04609">
        <ele>712.3</ele>
        <time>2016-07-31T07:52:25Z</time>
      </trkpt>
      <trkpt lat="42.4418" lon="0.0461">
        <ele>711.8</ele>
        <time>2016-07-31T07:52:26Z</time>
      </trkpt>
      <trkpt lat="42.44178" lon="0.04612">
        <ele>711.4</ele>
        <time>2016-07-31T07:52:27Z</time>
      </trkpt>
      <trkpt lat="42.44173" lon="0.04615">
        <ele>710.7</ele>
        <time>2016-07-31T07:52:29Z</time>
      </trkpt>
      <trkpt lat="42.44168" lon="0.04618">
        <ele>709.8</ele>
        <time>2016-07-31T07:52:31Z</time>
      </trkpt>
      <trkpt lat="42.44164" lon="0.04622">
        <ele>708.8</ele>
        <time>2016-07-31T07:52:33Z</time>
      </trkpt>
      <trkpt lat="42.4416" lon="0.04625">
        <ele>708</ele>
        <time>2016-07-31T07:52:35Z</time>
      </trkpt>
      <trkpt lat="42.44156" lon="0.04629">
        <ele>707.9</ele>
        <time>2016-07-31T07:52:37Z</time>
      </trkpt>
      <trkpt lat="42.44151" lon="0.04631">
        <ele>707.9</ele>
        <time>2016-07-31T07:52:39Z</time>
      </trkpt>
      <trkpt lat="42.44147" lon="0.04633">
        <ele>708</ele>
        <time>2016-07-31T07:52:41Z</time>
      </trkpt>
      <trkpt lat="42.44142" lon="0.04634">
        <ele>708.1</ele>
        <time>2016-07-31T07:52:43Z</time>
      </trkpt>
      <trkpt lat="42.44137" lon="0.04633">
        <ele>708.2</ele>
        <time>2016-07-31T07:52:45Z</time>
      </trkpt>
      <trkpt lat="42.44133" lon="0.04631">
        <ele>708.2</ele>
        <time>2016-07-31T07:52:47Z</time>
      </trkpt>
      <trkpt lat="42.44128" lon="0.0463">
        <ele>708.2</ele>
        <time>2016-07-31T07:52:49Z</time>
      </trkpt>
      <trkpt lat="42.44123" lon="0.04628">
        <ele>708.7</ele>
        <time>2016-07-31T07:52:51Z</time>
      </trkpt>
      <trkpt lat="42.44119" lon="0.04626">
        <ele>709.9</ele>
        <time>2016-07-31T07:52:53Z</time>
      </trkpt>
      <trkpt lat="42.44114" lon="0.04624">
        <ele>711.4</ele>
        <time>2016-07-31T07:52:55Z</time>
      </trkpt>
      <trkpt lat="42.44109" lon="0.04623">
        <ele>712.9</ele>
        <time>2016-07-31T07:52:57Z</time>
      </trkpt>
      <trkpt lat="42.44105" lon="0.04621">
        <ele>714.5</ele>
        <time>2016-07-31T07:52:59Z</time>
      </trkpt>
      <trkpt lat="42.441" lon="0.04619">
        <ele>716</ele>
        <time>2016-07-31T07:53:01Z</time>
      </trkpt>
      <trkpt lat="42.44096" lon="0.04616">
        <ele>717.5</ele>
        <time>2016-07-31T07:53:03Z</time>
      </trkpt>
      <trkpt lat="42.44091" lon="0.04614">
        <ele>718.9</ele>
        <time>2016-07-31T07:53:05Z</time>
      </trkpt>
      <trkpt lat="42.44086" lon="0.04611">
        <ele>720.3</ele>
        <time>2016-07-31T07:53:07Z</time>
      </trkpt>
      <trkpt lat="42.44082" lon="0.04609">
        <ele>721.4</ele>
        <time>2016-07-31T07:53:09Z</time>
      </trkpt>
      <trkpt lat="42.44077" lon="0.04608">
        <ele>722.6</ele>
        <time>2016-07-31T07:53:11Z</time>
      </trkpt>
      <trkpt lat="42.44072" lon="0.04606">
        <ele>723.6</ele>
        <time>2016-07-31T07:53:13Z</time>
      </trkpt>
      <trkpt lat="42.44068" lon="0.04604">
        <ele>724.7</ele>
        <time>2016-07-31T07:53:15Z</time>
      </trkpt>
      <trkpt lat="42.44063" lon="0.04603">
        <ele>725.6</ele>
        <time>2016-07-31T07:53:17Z</time>
      </trkpt>
      <trkpt lat="42.44058" lon="0.04601">
        <ele>726.5</ele>
        <time>2016-07-31T07:53:19Z</time>
      </trkpt>
      <trkpt lat="42.44054" lon="0.04599">
        <ele>727.2</ele>
        <time>2016-07-31T07:53:21Z</time>
      </trkpt>
      <trkpt lat="42.44049" lon="0.04597">
        <ele>727.9</ele>
        <time>2016-07-31T07:53:23Z</time>
      </trkpt>
      <trkpt lat="42.44045" lon="0.04595">
        <ele>728.6</ele>
        <time>2016-07-31T07:53:25Z</time>
      </trkpt>
      <trkpt lat="42.4404" lon="0.04593">
        <ele>729.5</ele>
        <time>2016-07-31T07:53:27Z</time>
      </trkpt>
      <trkpt lat="42.44035" lon="0.0459">
        <ele>731.1</ele>
        <time>2016-07-31T07:53:29Z</time>
      </trkpt>
      <trkpt lat="42.44031" lon="0.04588">
        <ele>732.5</ele>
        <time>2016-07-31T07:53:31Z</time>
      </trkpt>
      <trkpt lat="42.44027" lon="0.04585">
        <ele>733.8</ele>
        <time>2016-07-31T07:53:33Z</time>
      </trkpt>
      <trkpt lat="42.44022" lon="0.04582">
        <ele>735</ele>
        <time>2016-07-31T07:53:35Z</time>
      </trkpt>
      <trkpt lat="42.44018" lon="0.04578">
        <ele>736.1</ele>
        <time>2016-07-31T07:53:37Z</time>
      </trkpt>
      <trkpt lat="42.44015" lon="0.04574">
        <ele>736.7</ele>
        <time>2016-07-31T07:53:39Z</time>
      </trkpt>
      <trkpt lat="42.44012" lon="0.04568">
        <ele>736.9</ele>
        <time>2016-07-31T07:53:41Z</time>
      </trkpt>
      <trkpt lat="42.44009" lon="0.04562">
        <ele>736.9</ele>
        <time>2016-07-31T07:53:43Z</time>
      </trkpt>
      <trkpt lat="42.44007" lon="0.04556">
        <ele>736.6</ele>
        <time>2016-07-31T07:53:45Z</time>
      </trkpt>
      <trkpt lat="42.44006" lon="0.04549">
        <ele>736</ele>
        <time>2016-07-31T07:53:47Z</time>
      </trkpt>
      <trkpt lat="42.44005" lon="0.04545">
        <ele>735.6</ele>
        <time>2016-07-31T07:53:48Z</time>
      </trkpt>
      <trkpt lat="42.44005" lon="0.04541">
        <ele>735.1</ele>
        <time>2016-07-31T07:53:49Z</time>
      </trkpt>
      <trkpt lat="42.44005" lon="0.04538">
        <ele>735.4</ele>
        <time>2016-07-31T07:53:50Z</time>
      </trkpt>
      <trkpt lat="42.44005" lon="0.04534">
        <ele>735.6</ele>
        <time>2016-07-31T07:53:51Z</time>
      </trkpt>
      <trkpt lat="42.44006" lon="0.0453">
        <ele>735.8</ele>
        <time>2016-07-31T07:53:52Z</time>
      </trkpt>
      <trkpt lat="42.44007" lon="0.04526">
        <ele>735.8</ele>
        <time>2016-07-31T07:53:53Z</time>
      </trkpt>
      <trkpt lat="42.44008" lon="0.04523">
        <ele>735.7</ele>
        <time>2016-07-31T07:53:54Z</time>
      </trkpt>
      <trkpt lat="42.44011" lon="0.0452">
        <ele>735.6</ele>
        <time>2016-07-31T07:53:55Z</time>
      </trkpt>
      <trkpt lat="42.44013" lon="0.04517">
        <ele>735.4</ele>
        <time>2016-07-31T07:53:56Z</time>
      </trkpt>
      <trkpt lat="42.44016" lon="0.04515">
        <ele>735.2</ele>
        <time>2016-07-31T07:53:57Z</time>
      </trkpt>
      <trkpt lat="42.44019" lon="0.04513">
        <ele>734.9</ele>
        <time>2016-07-31T07:53:58Z</time>
      </trkpt>
      <trkpt lat="42.44022" lon="0.04512">
        <ele>734.7</ele>
        <time>2016-07-31T07:53:59Z</time>
      </trkpt>
      <trkpt lat="42.44026" lon="0.04511">
        <ele>734.4</ele>
        <time>2016-07-31T07:54:00Z</time>
      </trkpt>
      <trkpt lat="42.44029" lon="0.0451">
        <ele>734.1</ele>
        <time>2016-07-31T07:54:01Z</time>
      </trkpt>
      <trkpt lat="42.44032" lon="0.0451">
        <ele>733.8</ele>
        <time>2016-07-31T07:54:02Z</time>
      </trkpt>
      <trkpt lat="42.44035" lon="0.0451">
        <ele>733.4</ele>
        <time>2016-07-31T07:54:03Z</time>
      </trkpt>
      <trkpt lat="42.44038" lon="0.0451">
        <ele>732.9</ele>
        <time>2016-07-31T07:54:04Z</time>
      </trkpt>
      <trkpt lat="42.44041" lon="0.04511">
        <ele>732.3</ele>
        <time>2016-07-31T07:54:05Z</time>
      </trkpt>
      <trkpt lat="42.44044" lon="0.04512">
        <ele>732</ele>
        <time>2016-07-31T07:54:06Z</time>
      </trkpt>
      <trkpt lat="42.44047" lon="0.04514">
        <ele>731.7</ele>
        <time>2016-07-31T07:54:07Z</time>
      </trkpt>
      <trkpt lat="42.44049" lon="0.04515">
        <ele>731.5</ele>
        <time>2016-07-31T07:54:08Z</time>
      </trkpt>
      <trkpt lat="42.44052" lon="0.04517">
        <ele>731.2</ele>
        <time>2016-07-31T07:54:09Z</time>
      </trkpt>
      <trkpt lat="42.44054" lon="0.04518">
        <ele>731</ele>
        <time>2016-07-31T07:54:10Z</time>
      </trkpt>
      <trkpt lat="42.44059" lon="0.04521">
        <ele>730.5</ele>
        <time>2016-07-31T07:54:12Z</time>
      </trkpt>
      <trkpt lat="42.44064" lon="0.04523">
        <ele>730.1</ele>
        <time>2016-07-31T07:54:14Z</time>
      </trkpt>
      <trkpt lat="42.44069" lon="0.04525">
        <ele>729.7</ele>
        <time>2016-07-31T07:54:16Z</time>
      </trkpt>
      <trkpt lat="42.44073" lon="0.04527">
        <ele>729.4</ele>
        <time>2016-07-31T07:54:18Z</time>
      </trkpt>
      <trkpt lat="42.44078" lon="0.04528">
        <ele>729.3</ele>
        <time>2016-07-31T07:54:20Z</time>
      </trkpt>
      <trkpt lat="42.44083" lon="0.04528">
        <ele>729.7</ele>
        <time>2016-07-31T07:54:22Z</time>
      </trkpt>
      <trkpt lat="42.44088" lon="0.04527">
        <ele>730.3</ele>
        <time>2016-07-31T07:54:24Z</time>
      </trkpt>
      <trkpt lat="42.44093" lon="0.04526">
        <ele>730.9</ele>
        <time>2016-07-31T07:54:26Z</time>
      </trkpt>
      <trkpt lat="42.44098" lon="0.04524">
        <ele>731.6</ele>
        <time>2016-07-31T07:54:28Z</time>
      </trkpt>
      <trkpt lat="42.44103" lon="0.04523">
        <ele>732.2</ele>
        <time>2016-07-31T07:54:30Z</time>
      </trkpt>
      <trkpt lat="42.44108" lon="0.04523">
        <ele>732.7</ele>
        <time>2016-07-31T07:54:32Z</time>
      </trkpt>
      <trkpt lat="42.44113" lon="0.04521">
        <ele>733.4</ele>
        <time>2016-07-31T07:54:34Z</time>
      </trkpt>
      <trkpt lat="42.44117" lon="0.04519">
        <ele>734.4</ele>
        <time>2016-07-31T07:54:36Z</time>
      </trkpt>
      <trkpt lat="42.44122" lon="0.04517">
        <ele>735.3</ele>
        <time>2016-07-31T07:54:38Z</time>
      </trkpt>
      <trkpt lat="42.44127" lon="0.04516">
        <ele>736.1</ele>
        <time>2016-07-31T07:54:40Z</time>
      </trkpt>
      <trkpt lat="42.44132" lon="0.04514">
        <ele>736.8</ele>
        <time>2016-07-31T07:54:42Z</time>
      </trkpt>
      <trkpt lat="42.44137" lon="0.04513">
        <ele>737.4</ele>
        <time>2016-07-31T07:54:44Z</time>
      </trkpt>
      <trkpt lat="42.44142" lon="0.04512">
        <ele>738.2</ele>
        <time>2016-07-31T07:54:46Z</time>
      </trkpt>
      <trkpt lat="42.44147" lon="0.0451">
        <ele>738.9</ele>
        <time>2016-07-31T07:54:48Z</time>
      </trkpt>
      <trkpt lat="42.4415" lon="0.04509">
        <ele>739.3</ele>
        <time>2016-07-31T07:54:49Z</time>
      </trkpt>
      <trkpt lat="42.44155" lon="0.04508">
        <ele>740.1</ele>
        <time>2016-07-31T07:54:51Z</time>
      </trkpt>
      <trkpt lat="42.4416" lon="0.04506">
        <ele>740.9</ele>
        <time>2016-07-31T07:54:53Z</time>
      </trkpt>
      <trkpt lat="42.44164" lon="0.04504">
        <ele>741.6</ele>
        <time>2016-07-31T07:54:55Z</time>
      </trkpt>
      <trkpt lat="42.44169" lon="0.04503">
        <ele>742.4</ele>
        <time>2016-07-31T07:54:57Z</time>
      </trkpt>
      <trkpt lat="42.44174" lon="0.04501">
        <ele>743.3</ele>
        <time>2016-07-31T07:54:59Z</time>
      </trkpt>
      <trkpt lat="42.44178" lon="0.04499">
        <ele>744.1</ele>
        <time>2016-07-31T07:55:01Z</time>
      </trkpt>
      <trkpt lat="42.44183" lon="0.04497">
        <ele>744.8</ele>
        <time>2016-07-31T07:55:03Z</time>
      </trkpt>
      <trkpt lat="42.44188" lon="0.04495">
        <ele>745.7</ele>
        <time>2016-07-31T07:55:05Z</time>
      </trkpt>
      <trkpt lat="42.44193" lon="0.04494">
        <ele>746.5</ele>
        <time>2016-07-31T07:55:07Z</time>
      </trkpt>
      <trkpt lat="42.44197" lon="0.04492">
        <ele>747.1</ele>
        <time>2016-07-31T07:55:09Z</time>
      </trkpt>
      <trkpt lat="42.44202" lon="0.04491">
        <ele>747.9</ele>
        <time>2016-07-31T07:55:11Z</time>
      </trkpt>
      <trkpt lat="42.44207" lon="0.04489">
        <ele>748.7</ele>
        <time>2016-07-31T07:55:13Z</time>
      </trkpt>
      <trkpt lat="42.44211" lon="0.04487">
        <ele>749.2</ele>
        <time>2016-07-31T07:55:15Z</time>
      </trkpt>
      <trkpt lat="42.44216" lon="0.04486">
        <ele>749.6</ele>
        <time>2016-07-31T07:55:17Z</time>
      </trkpt>
      <trkpt lat="42.4422" lon="0.04484">
        <ele>750.1</ele>
        <time>2016-07-31T07:55:19Z</time>
      </trkpt>
      <trkpt lat="42.44224" lon="0.04483">
        <ele>750.6</ele>
        <time>2016-07-31T07:55:21Z</time>
      </trkpt>
      <trkpt lat="42.44229" lon="0.04481">
        <ele>751</ele>
        <time>2016-07-31T07:55:23Z</time>
      </trkpt>
      <trkpt lat="42.44233" lon="0.0448">
        <ele>751.5</ele>
        <time>2016-07-31T07:55:25Z</time>
      </trkpt>
      <trkpt lat="42.44238" lon="0.04478">
        <ele>752.1</ele>
        <time>2016-07-31T07:55:27Z</time>
      </trkpt>
      <trkpt lat="42.44243" lon="0.04476">
        <ele>752.5</ele>
        <time>2016-07-31T07:55:29Z</time>
      </trkpt>
      <trkpt lat="42.44248" lon="0.04476">
        <ele>752.7</ele>
        <time>2016-07-31T07:55:31Z</time>
      </trkpt>
      <trkpt lat="42.44253" lon="0.04476">
        <ele>752.7</ele>
        <time>2016-07-31T07:55:33Z</time>
      </trkpt>
      <trkpt lat="42.44257" lon="0.04476">
        <ele>752.5</ele>
        <time>2016-07-31T07:55:35Z</time>
      </trkpt>
      <trkpt lat="42.4426" lon="0.04476">
        <ele>752.3</ele>
        <time>2016-07-31T07:55:36Z</time>
      </trkpt>
      <trkpt lat="42.44262" lon="0.04477">
        <ele>752.1</ele>
        <time>2016-07-31T07:55:37Z</time>
      </trkpt>
      <trkpt lat="42.44268" lon="0.04478">
        <ele>751.8</ele>
        <time>2016-07-31T07:55:39Z</time>
      </trkpt>
      <trkpt lat="42.44272" lon="0.04478">
        <ele>751.7</ele>
        <time>2016-07-31T07:55:41Z</time>
      </trkpt>
      <trkpt lat="42.44277" lon="0.04478">
        <ele>751.5</ele>
        <time>2016-07-31T07:55:43Z</time>
      </trkpt>
      <trkpt lat="42.44281" lon="0.04479">
        <ele>751.3</ele>
        <time>2016-07-31T07:55:45Z</time>
      </trkpt>
      <trkpt lat="42.44286" lon="0.04479">
        <ele>751.1</ele>
        <time>2016-07-31T07:55:47Z</time>
      </trkpt>
      <trkpt lat="42.44289" lon="0.0448">
        <ele>750.9</ele>
        <time>2016-07-31T07:55:48Z</time>
      </trkpt>
      <trkpt lat="42.44294" lon="0.0448">
        <ele>750.8</ele>
        <time>2016-07-31T07:55:50Z</time>
      </trkpt>
      <trkpt lat="42.44299" lon="0.0448">
        <ele>750.9</ele>
        <time>2016-07-31T07:55:52Z</time>
      </trkpt>
      <trkpt lat="42.44304" lon="0.0448">
        <ele>751.2</ele>
        <time>2016-07-31T07:55:54Z</time>
      </trkpt>
      <trkpt lat="42.44309" lon="0.0448">
        <ele>751.6</ele>
        <time>2016-07-31T07:55:56Z</time>
      </trkpt>
      <trkpt lat="42.44314" lon="0.04479">
        <ele>751.9</ele>
        <time>2016-07-31T07:55:58Z</time>
      </trkpt>
      <trkpt lat="42.44319" lon="0.04479">
        <ele>752.2</ele>
        <time>2016-07-31T07:56:00Z</time>
      </trkpt>
      <trkpt lat="42.44324" lon="0.04479">
        <ele>752.6</ele>
        <time>2016-07-31T07:56:02Z</time>
      </trkpt>
      <trkpt lat="42.44329" lon="0.04478">
        <ele>753</ele>
        <time>2016-07-31T07:56:04Z</time>
      </trkpt>
      <trkpt lat="42.44334" lon="0.04477">
        <ele>753.6</ele>
        <time>2016-07-31T07:56:06Z</time>
      </trkpt>
      <trkpt lat="42.44339" lon="0.04476">
        <ele>754.3</ele>
        <time>2016-07-31T07:56:08Z</time>
      </trkpt>
      <trkpt lat="42.44343" lon="0.04474">
        <ele>755</ele>
        <time>2016-07-31T07:56:10Z</time>
      </trkpt>
      <trkpt lat="42.44348" lon="0.04473">
        <ele>755.6</ele>
        <time>2016-07-31T07:56:12Z</time>
      </trkpt>
      <trkpt lat="42.44353" lon="0.04473">
        <ele>756.1</ele>
        <time>2016-07-31T07:56:14Z</time>
      </trkpt>
      <trkpt lat="42.44357" lon="0.04472">
        <ele>756.5</ele>
        <time>2016-07-31T07:56:16Z</time>
      </trkpt>
      <trkpt lat="42.44363" lon="0.04471">
        <ele>757.1</ele>
        <time>2016-07-31T07:56:18Z</time>
      </trkpt>
      <trkpt lat="42.44368" lon="0.04471">
        <ele>757.5</ele>
        <time>2016-07-31T07:56:20Z</time>
      </trkpt>
      <trkpt lat="42.44373" lon="0.0447">
        <ele>758</ele>
        <time>2016-07-31T07:56:22Z</time>
      </trkpt>
      <trkpt lat="42.44378" lon="0.0447">
        <ele>758</ele>
        <time>2016-07-31T07:56:24Z</time>
      </trkpt>
      <trkpt lat="42.44383" lon="0.0447">
        <ele>757.9</ele>
        <time>2016-07-31T07:56:26Z</time>
      </trkpt>
      <trkpt lat="42.44388" lon="0.0447">
        <ele>757.9</ele>
        <time>2016-07-31T07:56:28Z</time>
      </trkpt>
      <trkpt lat="42.44392" lon="0.0447">
        <ele>757.7</ele>
        <time>2016-07-31T07:56:30Z</time>
      </trkpt>
      <trkpt lat="42.44397" lon="0.0447">
        <ele>757.6</ele>
        <time>2016-07-31T07:56:32Z</time>
      </trkpt>
      <trkpt lat="42.44402" lon="0.0447">
        <ele>757.4</ele>
        <time>2016-07-31T07:56:34Z</time>
      </trkpt>
      <trkpt lat="42.44407" lon="0.04471">
        <ele>756.9</ele>
        <time>2016-07-31T07:56:36Z</time>
      </trkpt>
      <trkpt lat="42.44412" lon="0.04471">
        <ele>756.8</ele>
        <time>2016-07-31T07:56:38Z</time>
      </trkpt>
      <trkpt lat="42.44415" lon="0.0447">
        <ele>756.8</ele>
        <time>2016-07-31T07:56:39Z</time>
      </trkpt>
      <trkpt lat="42.4442" lon="0.0447">
        <ele>757</ele>
        <time>2016-07-31T07:56:41Z</time>
      </trkpt>
      <trkpt lat="42.44425" lon="0.04468">
        <ele>757.4</ele>
        <time>2016-07-31T07:56:43Z</time>
      </trkpt>
      <trkpt lat="42.44428" lon="0.04468">
        <ele>757.5</ele>
        <time>2016-07-31T07:56:44Z</time>
      </trkpt>
      <trkpt lat="42.44431" lon="0.04467">
        <ele>757.8</ele>
        <time>2016-07-31T07:56:45Z</time>
      </trkpt>
      <trkpt lat="42.44434" lon="0.04465">
        <ele>758.2</ele>
        <time>2016-07-31T07:56:46Z</time>
      </trkpt>
      <trkpt lat="42.44436" lon="0.04464">
        <ele>758.6</ele>
        <time>2016-07-31T07:56:47Z</time>
      </trkpt>
      <trkpt lat="42.44439" lon="0.04463">
        <ele>759.1</ele>
        <time>2016-07-31T07:56:48Z</time>
      </trkpt>
      <trkpt lat="42.44443" lon="0.04459">
        <ele>760.4</ele>
        <time>2016-07-31T07:56:50Z</time>
      </trkpt>
      <trkpt lat="42.44446" lon="0.04456">
        <ele>761.1</ele>
        <time>2016-07-31T07:56:51Z</time>
      </trkpt>
      <trkpt lat="42.44448" lon="0.04453">
        <ele>761.7</ele>
        <time>2016-07-31T07:56:52Z</time>
      </trkpt>
      <trkpt lat="42.44451" lon="0.04448">
        <ele>763</ele>
        <time>2016-07-31T07:56:54Z</time>
      </trkpt>
      <trkpt lat="42.44453" lon="0.04442">
        <ele>764.7</ele>
        <time>2016-07-31T07:56:56Z</time>
      </trkpt>
      <trkpt lat="42.44453" lon="0.04435">
        <ele>766.5</ele>
        <time>2016-07-31T07:56:58Z</time>
      </trkpt>
      <trkpt lat="42.44453" lon="0.04428">
        <ele>768.3</ele>
        <time>2016-07-31T07:57:00Z</time>
      </trkpt>
      <trkpt lat="42.44452" lon="0.04422">
        <ele>770</ele>
        <time>2016-07-31T07:57:02Z</time>
      </trkpt>
      <trkpt lat="42.44449" lon="0.04416">
        <ele>771.7</ele>
        <time>2016-07-31T07:57:04Z</time>
      </trkpt>
      <trkpt lat="42.44445" lon="0.04411">
        <ele>773.3</ele>
        <time>2016-07-31T07:57:06Z</time>
      </trkpt>
      <trkpt lat="42.44444" lon="0.04408">
        <ele>774.2</ele>
        <time>2016-07-31T07:57:07Z</time>
      </trkpt>
      <trkpt lat="42.4444" lon="0.04404">
        <ele>775.6</ele>
        <time>2016-07-31T07:57:09Z</time>
      </trkpt>
      <trkpt lat="42.44435" lon="0.04401">
        <ele>776.6</ele>
        <time>2016-07-31T07:57:11Z</time>
      </trkpt>
      <trkpt lat="42.4443" lon="0.04399">
        <ele>777.3</ele>
        <time>2016-07-31T07:57:13Z</time>
      </trkpt>
      <trkpt lat="42.44428" lon="0.04399">
        <ele>777.6</ele>
        <time>2016-07-31T07:57:14Z</time>
      </trkpt>
      <trkpt lat="42.44425" lon="0.04399">
        <ele>777.7</ele>
        <time>2016-07-31T07:57:15Z</time>
      </trkpt>
      <trkpt lat="42.44422" lon="0.044">
        <ele>777.6</ele>
        <time>2016-07-31T07:57:16Z</time>
      </trkpt>
      <trkpt lat="42.44419" lon="0.04401">
        <ele>777.4</ele>
        <time>2016-07-31T07:57:17Z</time>
      </trkpt>
      <trkpt lat="42.44414" lon="0.04405">
        <ele>776.8</ele>
        <time>2016-07-31T07:57:19Z</time>
      </trkpt>
      <trkpt lat="42.44412" lon="0.04407">
        <ele>776.4</ele>
        <time>2016-07-31T07:57:20Z</time>
      </trkpt>
      <trkpt lat="42.44409" lon="0.04409">
        <ele>776</ele>
        <time>2016-07-31T07:57:21Z</time>
      </trkpt>
      <trkpt lat="42.44407" lon="0.04411">
        <ele>775.6</ele>
        <time>2016-07-31T07:57:22Z</time>
      </trkpt>
      <trkpt lat="42.44402" lon="0.04414">
        <ele>774.7</ele>
        <time>2016-07-31T07:57:24Z</time>
      </trkpt>
      <trkpt lat="42.44397" lon="0.04418">
        <ele>773.8</ele>
        <time>2016-07-31T07:57:26Z</time>
      </trkpt>
      <trkpt lat="42.44395" lon="0.0442">
        <ele>773.4</ele>
        <time>2016-07-31T07:57:27Z</time>
      </trkpt>
      <trkpt lat="42.44393" lon="0.04422">
        <ele>773</ele>
        <time>2016-07-31T07:57:28Z</time>
      </trkpt>
      <trkpt lat="42.44388" lon="0.04425">
        <ele>772.3</ele>
        <time>2016-07-31T07:57:30Z</time>
      </trkpt>
      <trkpt lat="42.44383" lon="0.04428">
        <ele>771.6</ele>
        <time>2016-07-31T07:57:32Z</time>
      </trkpt>
      <trkpt lat="42.44378" lon="0.0443">
        <ele>771.3</ele>
        <time>2016-07-31T07:57:34Z</time>
      </trkpt>
      <trkpt lat="42.44373" lon="0.04431">
        <ele>771.1</ele>
        <time>2016-07-31T07:57:36Z</time>
      </trkpt>
      <trkpt lat="42.44368" lon="0.04432">
        <ele>770.7</ele>
        <time>2016-07-31T07:57:38Z</time>
      </trkpt>
      <trkpt lat="42.44362" lon="0.0443">
        <ele>770.8</ele>
        <time>2016-07-31T07:57:40Z</time>
      </trkpt>
      <trkpt lat="42.4436" lon="0.04429">
        <ele>771.1</ele>
        <time>2016-07-31T07:57:41Z</time>
      </trkpt>
      <trkpt lat="42.44357" lon="0.04428">
        <ele>771.4</ele>
        <time>2016-07-31T07:57:42Z</time>
      </trkpt>
      <trkpt lat="42.44354" lon="0.04426">
        <ele>771.7</ele>
        <time>2016-07-31T07:57:43Z</time>
      </trkpt>
      <trkpt lat="42.44352" lon="0.04425">
        <ele>772</ele>
        <time>2016-07-31T07:57:44Z</time>
      </trkpt>
      <trkpt lat="42.44349" lon="0.04423">
        <ele>772.3</ele>
        <time>2016-07-31T07:57:45Z</time>
      </trkpt>
      <trkpt lat="42.44344" lon="0.04421">
        <ele>772.7</ele>
        <time>2016-07-31T07:57:47Z</time>
      </trkpt>
      <trkpt lat="42.44339" lon="0.0442">
        <ele>772.9</ele>
        <time>2016-07-31T07:57:49Z</time>
      </trkpt>
      <trkpt lat="42.44334" lon="0.04418">
        <ele>773.3</ele>
        <time>2016-07-31T07:57:51Z</time>
      </trkpt>
      <trkpt lat="42.44329" lon="0.04416">
        <ele>773.7</ele>
        <time>2016-07-31T07:57:53Z</time>
      </trkpt>
      <trkpt lat="42.44324" lon="0.04415">
        <ele>774</ele>
        <time>2016-07-31T07:57:55Z</time>
      </trkpt>
      <trkpt lat="42.44319" lon="0.04413">
        <ele>774.4</ele>
        <time>2016-07-31T07:57:57Z</time>
      </trkpt>
      <trkpt lat="42.44317" lon="0.04412">
        <ele>774.6</ele>
        <time>2016-07-31T07:57:58Z</time>
      </trkpt>
      <trkpt lat="42.44312" lon="0.0441">
        <ele>774.9</ele>
        <time>2016-07-31T07:58:00Z</time>
      </trkpt>
      <trkpt lat="42.44306" lon="0.04409">
        <ele>775.3</ele>
        <time>2016-07-31T07:58:02Z</time>
      </trkpt>
      <trkpt lat="42.44302" lon="0.04407">
        <ele>775.7</ele>
        <time>2016-07-31T07:58:04Z</time>
      </trkpt>
      <trkpt lat="42.44297" lon="0.04405">
        <ele>776</ele>
        <time>2016-07-31T07:58:06Z</time>
      </trkpt>
      <trkpt lat="42.44294" lon="0.04405">
        <ele>776.1</ele>
        <time>2016-07-31T07:58:07Z</time>
      </trkpt>
      <trkpt lat="42.44291" lon="0.04404">
        <ele>776.3</ele>
        <time>2016-07-31T07:58:08Z</time>
      </trkpt>
      <trkpt lat="42.44286" lon="0.04402">
        <ele>777</ele>
        <time>2016-07-31T07:58:10Z</time>
      </trkpt>
      <trkpt lat="42.44281" lon="0.04401">
        <ele>777.7</ele>
        <time>2016-07-31T07:58:12Z</time>
      </trkpt>
      <trkpt lat="42.44277" lon="0.04399">
        <ele>778.5</ele>
        <time>2016-07-31T07:58:14Z</time>
      </trkpt>
      <trkpt lat="42.44272" lon="0.04398">
        <ele>778.9</ele>
        <time>2016-07-31T07:58:16Z</time>
      </trkpt>
      <trkpt lat="42.44267" lon="0.04398">
        <ele>779.1</ele>
        <time>2016-07-31T07:58:18Z</time>
      </trkpt>
      <trkpt lat="42.44262" lon="0.04398">
        <ele>779.3</ele>
        <time>2016-07-31T07:58:20Z</time>
      </trkpt>
      <trkpt lat="42.44257" lon="0.04397">
        <ele>779.7</ele>
        <time>2016-07-31T07:58:22Z</time>
      </trkpt>
      <trkpt lat="42.44252" lon="0.04395">
        <ele>780.3</ele>
        <time>2016-07-31T07:58:24Z</time>
      </trkpt>
      <trkpt lat="42.44247" lon="0.04394">
        <ele>781.1</ele>
        <time>2016-07-31T07:58:26Z</time>
      </trkpt>
      <trkpt lat="42.44243" lon="0.04392">
        <ele>782</ele>
        <time>2016-07-31T07:58:28Z</time>
      </trkpt>
      <trkpt lat="42.44238" lon="0.04389">
        <ele>782.9</ele>
        <time>2016-07-31T07:58:30Z</time>
      </trkpt>
      <trkpt lat="42.44233" lon="0.04387">
        <ele>783.7</ele>
        <time>2016-07-31T07:58:32Z</time>
      </trkpt>
      <trkpt lat="42.44228" lon="0.04386">
        <ele>784.4</ele>
        <time>2016-07-31T07:58:34Z</time>
      </trkpt>
      <trkpt lat="42.44223" lon="0.04385">
        <ele>785</ele>
        <time>2016-07-31T07:58:36Z</time>
      </trkpt>
      <trkpt lat="42.44218" lon="0.04383">
        <ele>785.7</ele>
        <time>2016-07-31T07:58:38Z</time>
      </trkpt>
      <trkpt lat="42.44213" lon="0.04382">
        <ele>786.4</ele>
        <time>2016-07-31T07:58:40Z</time>
      </trkpt>
      <trkpt lat="42.44208" lon="0.04379">
        <ele>787.4</ele>
        <time>2016-07-31T07:58:42Z</time>
      </trkpt>
      <trkpt lat="42.44203" lon="0.04377">
        <ele>788.1</ele>
        <time>2016-07-31T07:58:44Z</time>
      </trkpt>
      <trkpt lat="42.44198" lon="0.04375">
        <ele>788.5</ele>
        <time>2016-07-31T07:58:46Z</time>
      </trkpt>
      <trkpt lat="42.44196" lon="0.04374">
        <ele>788.6</ele>
        <time>2016-07-31T07:58:47Z</time>
      </trkpt>
      <trkpt lat="42.44193" lon="0.04374">
        <ele>788.8</ele>
        <time>2016-07-31T07:58:48Z</time>
      </trkpt>
      <trkpt lat="42.4419" lon="0.04373">
        <ele>789</ele>
        <time>2016-07-31T07:58:49Z</time>
      </trkpt>
      <trkpt lat="42.44186" lon="0.04371">
        <ele>789.4</ele>
        <time>2016-07-31T07:58:51Z</time>
      </trkpt>
      <trkpt lat="42.44181" lon="0.04369">
        <ele>789.8</ele>
        <time>2016-07-31T07:58:53Z</time>
      </trkpt>
      <trkpt lat="42.44176" lon="0.04367">
        <ele>790.3</ele>
        <time>2016-07-31T07:58:55Z</time>
      </trkpt>
      <trkpt lat="42.44171" lon="0.04365">
        <ele>790.7</ele>
        <time>2016-07-31T07:58:57Z</time>
      </trkpt>
      <trkpt lat="42.44166" lon="0.04364">
        <ele>790.9</ele>
        <time>2016-07-31T07:58:59Z</time>
      </trkpt>
      <trkpt lat="42.44162" lon="0.04362">
        <ele>791.3</ele>
        <time>2016-07-31T07:59:01Z</time>
      </trkpt>
      <trkpt lat="42.44157" lon="0.0436">
        <ele>791.8</ele>
        <time>2016-07-31T07:59:03Z</time>
      </trkpt>
      <trkpt lat="42.44153" lon="0.04358">
        <ele>792.1</ele>
        <time>2016-07-31T07:59:05Z</time>
      </trkpt>
      <trkpt lat="42.44148" lon="0.04357">
        <ele>792.3</ele>
        <time>2016-07-31T07:59:07Z</time>
      </trkpt>
      <trkpt lat="42.44143" lon="0.04355">
        <ele>792.6</ele>
        <time>2016-07-31T07:59:09Z</time>
      </trkpt>
      <trkpt lat="42.44138" lon="0.04354">
        <ele>792.9</ele>
        <time>2016-07-31T07:59:11Z</time>
      </trkpt>
      <trkpt lat="42.44133" lon="0.04352">
        <ele>793.2</ele>
        <time>2016-07-31T07:59:13Z</time>
      </trkpt>
      <trkpt lat="42.44128" lon="0.04349">
        <ele>793.8</ele>
        <time>2016-07-31T07:59:15Z</time>
      </trkpt>
      <trkpt lat="42.44124" lon="0.04348">
        <ele>794</ele>
        <time>2016-07-31T07:59:17Z</time>
      </trkpt>
      <trkpt lat="42.44119" lon="0.04346">
        <ele>793.8</ele>
        <time>2016-07-31T07:59:19Z</time>
      </trkpt>
      <trkpt lat="42.44114" lon="0.04345">
        <ele>793.6</ele>
        <time>2016-07-31T07:59:21Z</time>
      </trkpt>
      <trkpt lat="42.44109" lon="0.04344">
        <ele>793.3</ele>
        <time>2016-07-31T07:59:23Z</time>
      </trkpt>
      <trkpt lat="42.44105" lon="0.04342">
        <ele>793.2</ele>
        <time>2016-07-31T07:59:25Z</time>
      </trkpt>
      <trkpt lat="42.441" lon="0.04341">
        <ele>793.1</ele>
        <time>2016-07-31T07:59:27Z</time>
      </trkpt>
      <trkpt lat="42.44095" lon="0.0434">
        <ele>792.9</ele>
        <time>2016-07-31T07:59:29Z</time>
      </trkpt>
      <trkpt lat="42.44091" lon="0.04338">
        <ele>792.8</ele>
        <time>2016-07-31T07:59:31Z</time>
      </trkpt>
      <trkpt lat="42.44086" lon="0.04336">
        <ele>792.8</ele>
        <time>2016-07-31T07:59:33Z</time>
      </trkpt>
      <trkpt lat="42.44081" lon="0.04334">
        <ele>792.9</ele>
        <time>2016-07-31T07:59:35Z</time>
      </trkpt>
      <trkpt lat="42.44077" lon="0.04332">
        <ele>793</ele>
        <time>2016-07-31T07:59:37Z</time>
      </trkpt>
      <trkpt lat="42.44072" lon="0.0433">
        <ele>793.2</ele>
        <time>2016-07-31T07:59:39Z</time>
      </trkpt>
      <trkpt lat="42.44069" lon="0.04329">
        <ele>793.3</ele>
        <time>2016-07-31T07:59:40Z</time>
      </trkpt>
      <trkpt lat="42.44066" lon="0.04328">
        <ele>793.3</ele>
        <time>2016-07-31T07:59:41Z</time>
      </trkpt>
      <trkpt lat="42.44062" lon="0.04325">
        <ele>793.6</ele>
        <time>2016-07-31T07:59:43Z</time>
      </trkpt>
      <trkpt lat="42.44057" lon="0.04323">
        <ele>793.7</ele>
        <time>2016-07-31T07:59:45Z</time>
      </trkpt>
      <trkpt lat="42.44052" lon="0.04321">
        <ele>793.9</ele>
        <time>2016-07-31T07:59:47Z</time>
      </trkpt>
      <trkpt lat="42.44048" lon="0.04319">
        <ele>794.1</ele>
        <time>2016-07-31T07:59:49Z</time>
      </trkpt>
      <trkpt lat="42.44043" lon="0.04318">
        <ele>794.1</ele>
        <time>2016-07-31T07:59:51Z</time>
      </trkpt>
      <trkpt lat="42.44038" lon="0.04317">
        <ele>793.6</ele>
        <time>2016-07-31T07:59:53Z</time>
      </trkpt>
      <trkpt lat="42.44033" lon="0.04315">
        <ele>793.4</ele>
        <time>2016-07-31T07:59:55Z</time>
      </trkpt>
      <trkpt lat="42.44029" lon="0.04313">
        <ele>793.3</ele>
        <time>2016-07-31T07:59:57Z</time>
      </trkpt>
      <trkpt lat="42.44025" lon="0.0431">
        <ele>793.3</ele>
        <time>2016-07-31T07:59:59Z</time>
      </trkpt>
      <trkpt lat="42.4402" lon="0.04308">
        <ele>793.4</ele>
        <time>2016-07-31T08:00:01Z</time>
      </trkpt>
      <trkpt lat="42.44016" lon="0.04305">
        <ele>793.5</ele>
        <time>2016-07-31T08:00:03Z</time>
      </trkpt>
      <trkpt lat="42.44012" lon="0.04302">
        <ele>793.8</ele>
        <time>2016-07-31T08:00:05Z</time>
      </trkpt>
      <trkpt lat="42.44008" lon="0.04299">
        <ele>794.3</ele>
        <time>2016-07-31T08:00:07Z</time>
      </trkpt>
      <trkpt lat="42.44004" lon="0.04295">
        <ele>795.1</ele>
        <time>2016-07-31T08:00:09Z</time>
      </trkpt>
      <trkpt lat="42.44" lon="0.04291">
        <ele>796</ele>
        <time>2016-07-31T08:00:11Z</time>
      </trkpt>
      <trkpt lat="42.43996" lon="0.04287">
        <ele>796.8</ele>
        <time>2016-07-31T08:00:13Z</time>
      </trkpt>
      <trkpt lat="42.43992" lon="0.04283">
        <ele>797.4</ele>
        <time>2016-07-31T08:00:15Z</time>
      </trkpt>
      <trkpt lat="42.43988" lon="0.0428">
        <ele>798</ele>
        <time>2016-07-31T08:00:17Z</time>
      </trkpt>
      <trkpt lat="42.43984" lon="0.04277">
        <ele>798.7</ele>
        <time>2016-07-31T08:00:19Z</time>
      </trkpt>
      <trkpt lat="42.4398" lon="0.04273">
        <ele>799.5</ele>
        <time>2016-07-31T08:00:21Z</time>
      </trkpt>
      <trkpt lat="42.43976" lon="0.04269">
        <ele>800.4</ele>
        <time>2016-07-31T08:00:23Z</time>
      </trkpt>
      <trkpt lat="42.43972" lon="0.04266">
        <ele>801.3</ele>
        <time>2016-07-31T08:00:25Z</time>
      </trkpt>
      <trkpt lat="42.43968" lon="0.04262">
        <ele>802.2</ele>
        <time>2016-07-31T08:00:27Z</time>
      </trkpt>
      <trkpt lat="42.43964" lon="0.04258">
        <ele>803.2</ele>
        <time>2016-07-31T08:00:29Z</time>
      </trkpt>
      <trkpt lat="42.4396" lon="0.04255">
        <ele>804.2</ele>
        <time>2016-07-31T08:00:31Z</time>
      </trkpt>
      <trkpt lat="42.43956" lon="0.04251">
        <ele>805.1</ele>
        <time>2016-07-31T08:00:33Z</time>
      </trkpt>
      <trkpt lat="42.43952" lon="0.04248">
        <ele>805.9</ele>
        <time>2016-07-31T08:00:35Z</time>
      </trkpt>
      <trkpt lat="42.43948" lon="0.04244">
        <ele>806.9</ele>
        <time>2016-07-31T08:00:37Z</time>
      </trkpt>
      <trkpt lat="42.43945" lon="0.0424">
        <ele>807.9</ele>
        <time>2016-07-31T08:00:39Z</time>
      </trkpt>
      <trkpt lat="42.43941" lon="0.04236">
        <ele>808.8</ele>
        <time>2016-07-31T08:00:41Z</time>
      </trkpt>
      <trkpt lat="42.43936" lon="0.04233">
        <ele>809.5</ele>
        <time>2016-07-31T08:00:43Z</time>
      </trkpt>
      <trkpt lat="42.43932" lon="0.04229">
        <ele>810.2</ele>
        <time>2016-07-31T08:00:45Z</time>
      </trkpt>
      <trkpt lat="42.43928" lon="0.04226">
        <ele>811</ele>
        <time>2016-07-31T08:00:47Z</time>
      </trkpt>
      <trkpt lat="42.43924" lon="0.04222">
        <ele>811.6</ele>
        <time>2016-07-31T08:00:49Z</time>
      </trkpt>
      <trkpt lat="42.43919" lon="0.04219">
        <ele>812</ele>
        <time>2016-07-31T08:00:51Z</time>
      </trkpt>
      <trkpt lat="42.43915" lon="0.04216">
        <ele>812.6</ele>
        <time>2016-07-31T08:00:53Z</time>
      </trkpt>
      <trkpt lat="42.43911" lon="0.04213">
        <ele>813.2</ele>
        <time>2016-07-31T08:00:55Z</time>
      </trkpt>
      <trkpt lat="42.43907" lon="0.0421">
        <ele>813.7</ele>
        <time>2016-07-31T08:00:57Z</time>
      </trkpt>
      <trkpt lat="42.43903" lon="0.04206">
        <ele>814.5</ele>
        <time>2016-07-31T08:00:59Z</time>
      </trkpt>
      <trkpt lat="42.43899" lon="0.04203">
        <ele>815</ele>
        <time>2016-07-31T08:01:01Z</time>
      </trkpt>
      <trkpt lat="42.43895" lon="0.042">
        <ele>815</ele>
        <time>2016-07-31T08:01:03Z</time>
      </trkpt>
      <trkpt lat="42.43891" lon="0.04198">
        <ele>815.1</ele>
        <time>2016-07-31T08:01:05Z</time>
      </trkpt>
      <trkpt lat="42.43887" lon="0.04194">
        <ele>815.7</ele>
        <time>2016-07-31T08:01:07Z</time>
      </trkpt>
      <trkpt lat="42.43883" lon="0.04191">
        <ele>816.3</ele>
        <time>2016-07-31T08:01:09Z</time>
      </trkpt>
      <trkpt lat="42.43879" lon="0.04187">
        <ele>816.7</ele>
        <time>2016-07-31T08:01:11Z</time>
      </trkpt>
      <trkpt lat="42.43875" lon="0.04183">
        <ele>817.4</ele>
        <time>2016-07-31T08:01:13Z</time>
      </trkpt>
      <trkpt lat="42.43871" lon="0.04178">
        <ele>818.4</ele>
        <time>2016-07-31T08:01:15Z</time>
      </trkpt>
      <trkpt lat="42.43868" lon="0.04174">
        <ele>819.2</ele>
        <time>2016-07-31T08:01:17Z</time>
      </trkpt>
      <trkpt lat="42.43863" lon="0.0417">
        <ele>819.7</ele>
        <time>2016-07-31T08:01:19Z</time>
      </trkpt>
      <trkpt lat="42.43859" lon="0.04167">
        <ele>819.9</ele>
        <time>2016-07-31T08:01:21Z</time>
      </trkpt>
      <trkpt lat="42.43854" lon="0.04164">
        <ele>819.7</ele>
        <time>2016-07-31T08:01:23Z</time>
      </trkpt>
      <trkpt lat="42.43849" lon="0.04162">
        <ele>819.4</ele>
        <time>2016-07-31T08:01:25Z</time>
      </trkpt>
      <trkpt lat="42.43844" lon="0.0416">
        <ele>818.9</ele>
        <time>2016-07-31T08:01:27Z</time>
      </trkpt>
      <trkpt lat="42.4384" lon="0.04159">
        <ele>818.3</ele>
        <time>2016-07-31T08:01:29Z</time>
      </trkpt>
      <trkpt lat="42.43835" lon="0.04157">
        <ele>817.9</ele>
        <time>2016-07-31T08:01:31Z</time>
      </trkpt>
      <trkpt lat="42.43831" lon="0.04155">
        <ele>817.5</ele>
        <time>2016-07-31T08:01:33Z</time>
      </trkpt>
      <trkpt lat="42.43827" lon="0.04152">
        <ele>817.4</ele>
        <time>2016-07-31T08:01:35Z</time>
      </trkpt>
      <trkpt lat="42.43822" lon="0.04149">
        <ele>816.9</ele>
        <time>2016-07-31T08:01:37Z</time>
      </trkpt>
      <trkpt lat="42.43817" lon="0.04147">
        <ele>816.3</ele>
        <time>2016-07-31T08:01:39Z</time>
      </trkpt>
      <trkpt lat="42.43813" lon="0.04145">
        <ele>815.8</ele>
        <time>2016-07-31T08:01:41Z</time>
      </trkpt>
      <trkpt lat="42.43809" lon="0.04141">
        <ele>815.6</ele>
        <time>2016-07-31T08:01:43Z</time>
      </trkpt>
      <trkpt lat="42.43805" lon="0.04136">
        <ele>816.2</ele>
        <time>2016-07-31T08:01:45Z</time>
      </trkpt>
      <trkpt lat="42.43802" lon="0.0413">
        <ele>816.9</ele>
        <time>2016-07-31T08:01:47Z</time>
      </trkpt>
      <trkpt lat="42.438" lon="0.04124">
        <ele>817.6</ele>
        <time>2016-07-31T08:01:49Z</time>
      </trkpt>
      <trkpt lat="42.43798" lon="0.04121">
        <ele>818</ele>
        <time>2016-07-31T08:01:50Z</time>
      </trkpt>
      <trkpt lat="42.43795" lon="0.04115">
        <ele>818.6</ele>
        <time>2016-07-31T08:01:52Z</time>
      </trkpt>
      <trkpt lat="42.43793" lon="0.04109">
        <ele>819.4</ele>
        <time>2016-07-31T08:01:54Z</time>
      </trkpt>
      <trkpt lat="42.4379" lon="0.04103">
        <ele>820.3</ele>
        <time>2016-07-31T08:01:56Z</time>
      </trkpt>
      <trkpt lat="42.43786" lon="0.04098">
        <ele>821.1</ele>
        <time>2016-07-31T08:01:58Z</time>
      </trkpt>
      <trkpt lat="42.43783" lon="0.04093">
        <ele>821.7</ele>
        <time>2016-07-31T08:02:00Z</time>
      </trkpt>
      <trkpt lat="42.43779" lon="0.04088">
        <ele>822.3</ele>
        <time>2016-07-31T08:02:02Z</time>
      </trkpt>
      <trkpt lat="42.43777" lon="0.04086">
        <ele>822.5</ele>
        <time>2016-07-31T08:02:03Z</time>
      </trkpt>
      <trkpt lat="42.43773" lon="0.04082">
        <ele>822.6</ele>
        <time>2016-07-31T08:02:05Z</time>
      </trkpt>
      <trkpt lat="42.43769" lon="0.04078">
        <ele>822.7</ele>
        <time>2016-07-31T08:02:07Z</time>
      </trkpt>
      <trkpt lat="42.43766" lon="0.04075">
        <ele>822.8</ele>
        <time>2016-07-31T08:02:08Z</time>
      </trkpt>
      <trkpt lat="42.43764" lon="0.04073">
        <ele>822.9</ele>
        <time>2016-07-31T08:02:09Z</time>
      </trkpt>
      <trkpt lat="42.43762" lon="0.04071">
        <ele>822.9</ele>
        <time>2016-07-31T08:02:10Z</time>
      </trkpt>
      <trkpt lat="42.43757" lon="0.04067">
        <ele>822.9</ele>
        <time>2016-07-31T08:02:12Z</time>
      </trkpt>
      <trkpt lat="42.43754" lon="0.04064">
        <ele>823</ele>
        <time>2016-07-31T08:02:14Z</time>
      </trkpt>
      <trkpt lat="42.4375" lon="0.0406">
        <ele>823</ele>
        <time>2016-07-31T08:02:16Z</time>
      </trkpt>
      <trkpt lat="42.43746" lon="0.04058">
        <ele>822.8</ele>
        <time>2016-07-31T08:02:18Z</time>
      </trkpt>
      <trkpt lat="42.43742" lon="0.04054">
        <ele>822.7</ele>
        <time>2016-07-31T08:02:20Z</time>
      </trkpt>
      <trkpt lat="42.43738" lon="0.0405">
        <ele>822.9</ele>
        <time>2016-07-31T08:02:22Z</time>
      </trkpt>
      <trkpt lat="42.43735" lon="0.04046">
        <ele>823</ele>
        <time>2016-07-31T08:02:24Z</time>
      </trkpt>
      <trkpt lat="42.43732" lon="0.04042">
        <ele>823.3</ele>
        <time>2016-07-31T08:02:26Z</time>
      </trkpt>
      <trkpt lat="42.43729" lon="0.04037">
        <ele>823.8</ele>
        <time>2016-07-31T08:02:28Z</time>
      </trkpt>
      <trkpt lat="42.43726" lon="0.04031">
        <ele>824.4</ele>
        <time>2016-07-31T08:02:30Z</time>
      </trkpt>
      <trkpt lat="42.43723" lon="0.04025">
        <ele>825.1</ele>
        <time>2016-07-31T08:02:32Z</time>
      </trkpt>
      <trkpt lat="42.43721" lon="0.0402">
        <ele>825.9</ele>
        <time>2016-07-31T08:02:34Z</time>
      </trkpt>
      <trkpt lat="42.43719" lon="0.04014">
        <ele>826.8</ele>
        <time>2016-07-31T08:02:36Z</time>
      </trkpt>
      <trkpt lat="42.43717" lon="0.04008">
        <ele>827.6</ele>
        <time>2016-07-31T08:02:38Z</time>
      </trkpt>
      <trkpt lat="42.43714" lon="0.04003">
        <ele>828.4</ele>
        <time>2016-07-31T08:02:40Z</time>
      </trkpt>
      <trkpt lat="42.43711" lon="0.03998">
        <ele>829</ele>
        <time>2016-07-31T08:02:42Z</time>
      </trkpt>
      <trkpt lat="42.43707" lon="0.03993">
        <ele>829.4</ele>
        <time>2016-07-31T08:02:44Z</time>
      </trkpt>
      <trkpt lat="42.43704" lon="0.03989">
        <ele>829.5</ele>
        <time>2016-07-31T08:02:46Z</time>
      </trkpt>
      <trkpt lat="42.437" lon="0.03984">
        <ele>829.5</ele>
        <time>2016-07-31T08:02:48Z</time>
      </trkpt>
      <trkpt lat="42.43696" lon="0.0398">
        <ele>829.4</ele>
        <time>2016-07-31T08:02:50Z</time>
      </trkpt>
      <trkpt lat="42.43692" lon="0.03977">
        <ele>829</ele>
        <time>2016-07-31T08:02:52Z</time>
      </trkpt>
      <trkpt lat="42.43688" lon="0.03973">
        <ele>828.5</ele>
        <time>2016-07-31T08:02:54Z</time>
      </trkpt>
      <trkpt lat="42.43684" lon="0.0397">
        <ele>828.2</ele>
        <time>2016-07-31T08:02:56Z</time>
      </trkpt>
      <trkpt lat="42.4368" lon="0.03966">
        <ele>827.5</ele>
        <time>2016-07-31T08:02:58Z</time>
      </trkpt>
      <trkpt lat="42.43678" lon="0.03964">
        <ele>827.1</ele>
        <time>2016-07-31T08:02:59Z</time>
      </trkpt>
      <trkpt lat="42.43675" lon="0.03963">
        <ele>826.6</ele>
        <time>2016-07-31T08:03:00Z</time>
      </trkpt>
      <trkpt lat="42.43671" lon="0.03959">
        <ele>825.9</ele>
        <time>2016-07-31T08:03:02Z</time>
      </trkpt>
      <trkpt lat="42.43667" lon="0.03957">
        <ele>824.9</ele>
        <time>2016-07-31T08:03:04Z</time>
      </trkpt>
      <trkpt lat="42.43663" lon="0.03953">
        <ele>823.9</ele>
        <time>2016-07-31T08:03:06Z</time>
      </trkpt>
      <trkpt lat="42.4366" lon="0.03949">
        <ele>823.3</ele>
        <time>2016-07-31T08:03:08Z</time>
      </trkpt>
      <trkpt lat="42.43656" lon="0.03944">
        <ele>822.8</ele>
        <time>2016-07-31T08:03:10Z</time>
      </trkpt>
      <trkpt lat="42.43654" lon="0.03938">
        <ele>822.6</ele>
        <time>2016-07-31T08:03:12Z</time>
      </trkpt>
      <trkpt lat="42.43651" lon="0.03932">
        <ele>822.5</ele>
        <time>2016-07-31T08:03:14Z</time>
      </trkpt>
      <trkpt lat="42.43649" lon="0.03925">
        <ele>822.5</ele>
        <time>2016-07-31T08:03:16Z</time>
      </trkpt>
      <trkpt lat="42.43648" lon="0.03919">
        <ele>822.6</ele>
        <time>2016-07-31T08:03:18Z</time>
      </trkpt>
      <trkpt lat="42.43646" lon="0.03913">
        <ele>822.7</ele>
        <time>2016-07-31T08:03:20Z</time>
      </trkpt>
      <trkpt lat="42.43644" lon="0.03907">
        <ele>822.7</ele>
        <time>2016-07-31T08:03:22Z</time>
      </trkpt>
      <trkpt lat="42.43642" lon="0.03901">
        <ele>822.6</ele>
        <time>2016-07-31T08:03:24Z</time>
      </trkpt>
      <trkpt lat="42.43641" lon="0.03895">
        <ele>822.6</ele>
        <time>2016-07-31T08:03:26Z</time>
      </trkpt>
      <trkpt lat="42.43639" lon="0.03889">
        <ele>822.7</ele>
        <time>2016-07-31T08:03:28Z</time>
      </trkpt>
      <trkpt lat="42.43638" lon="0.03884">
        <ele>822.8</ele>
        <time>2016-07-31T08:03:30Z</time>
      </trkpt>
      <trkpt lat="42.43636" lon="0.03878">
        <ele>822.8</ele>
        <time>2016-07-31T08:03:32Z</time>
      </trkpt>
      <trkpt lat="42.43634" lon="0.03872">
        <ele>823.2</ele>
        <time>2016-07-31T08:03:34Z</time>
      </trkpt>
      <trkpt lat="42.43633" lon="0.03867">
        <ele>824</ele>
        <time>2016-07-31T08:03:36Z</time>
      </trkpt>
      <trkpt lat="42.43632" lon="0.03861">
        <ele>825.4</ele>
        <time>2016-07-31T08:03:38Z</time>
      </trkpt>
      <trkpt lat="42.43632" lon="0.03855">
        <ele>827</ele>
        <time>2016-07-31T08:03:40Z</time>
      </trkpt>
      <trkpt lat="42.43631" lon="0.03848">
        <ele>828.7</ele>
        <time>2016-07-31T08:03:42Z</time>
      </trkpt>
      <trkpt lat="42.43632" lon="0.03842">
        <ele>830.5</ele>
        <time>2016-07-31T08:03:44Z</time>
      </trkpt>
      <trkpt lat="42.43632" lon="0.03835">
        <ele>832.6</ele>
        <time>2016-07-31T08:03:46Z</time>
      </trkpt>
      <trkpt lat="42.43633" lon="0.03828">
        <ele>834.7</ele>
        <time>2016-07-31T08:03:48Z</time>
      </trkpt>
      <trkpt lat="42.43633" lon="0.03821">
        <ele>836.7</ele>
        <time>2016-07-31T08:03:50Z</time>
      </trkpt>
      <trkpt lat="42.43632" lon="0.03814">
        <ele>838.2</ele>
        <time>2016-07-31T08:03:52Z</time>
      </trkpt>
      <trkpt lat="42.4363" lon="0.03807">
        <ele>839.3</ele>
        <time>2016-07-31T08:03:54Z</time>
      </trkpt>
      <trkpt lat="42.43628" lon="0.03801">
        <ele>840.4</ele>
        <time>2016-07-31T08:03:56Z</time>
      </trkpt>
      <trkpt lat="42.43625" lon="0.03796">
        <ele>840.9</ele>
        <time>2016-07-31T08:03:58Z</time>
      </trkpt>
      <trkpt lat="42.43622" lon="0.03792">
        <ele>841</ele>
        <time>2016-07-31T08:04:00Z</time>
      </trkpt>
      <trkpt lat="42.43618" lon="0.03787">
        <ele>840.4</ele>
        <time>2016-07-31T08:04:02Z</time>
      </trkpt>
      <trkpt lat="42.43616" lon="0.03784">
        <ele>840.1</ele>
        <time>2016-07-31T08:04:03Z</time>
      </trkpt>
      <trkpt lat="42.43612" lon="0.03779">
        <ele>839.6</ele>
        <time>2016-07-31T08:04:05Z</time>
      </trkpt>
      <trkpt lat="42.43609" lon="0.03775">
        <ele>839.2</ele>
        <time>2016-07-31T08:04:07Z</time>
      </trkpt>
      <trkpt lat="42.43606" lon="0.0377">
        <ele>838.8</ele>
        <time>2016-07-31T08:04:09Z</time>
      </trkpt>
      <trkpt lat="42.43603" lon="0.03765">
        <ele>838.4</ele>
        <time>2016-07-31T08:04:11Z</time>
      </trkpt>
      <trkpt lat="42.43599" lon="0.03761">
        <ele>837.8</ele>
        <time>2016-07-31T08:04:13Z</time>
      </trkpt>
      <trkpt lat="42.43596" lon="0.03756">
        <ele>837.4</ele>
        <time>2016-07-31T08:04:15Z</time>
      </trkpt>
      <trkpt lat="42.43593" lon="0.0375">
        <ele>837</ele>
        <time>2016-07-31T08:04:17Z</time>
      </trkpt>
      <trkpt lat="42.4359" lon="0.03744">
        <ele>836.9</ele>
        <time>2016-07-31T08:04:19Z</time>
      </trkpt>
      <trkpt lat="42.43588" lon="0.03738">
        <ele>837</ele>
        <time>2016-07-31T08:04:21Z</time>
      </trkpt>
      <trkpt lat="42.43586" lon="0.03732">
        <ele>837.1</ele>
        <time>2016-07-31T08:04:23Z</time>
      </trkpt>
      <trkpt lat="42.43584" lon="0.03726">
        <ele>837.1</ele>
        <time>2016-07-31T08:04:25Z</time>
      </trkpt>
      <trkpt lat="42.43581" lon="0.03721">
        <ele>837</ele>
        <time>2016-07-31T08:04:27Z</time>
      </trkpt>
      <trkpt lat="42.43579" lon="0.03715">
        <ele>837</ele>
        <time>2016-07-31T08:04:29Z</time>
      </trkpt>
      <trkpt lat="42.43578" lon="0.03709">
        <ele>837.1</ele>
        <time>2016-07-31T08:04:31Z</time>
      </trkpt>
      <trkpt lat="42.43576" lon="0.03703">
        <ele>837.3</ele>
        <time>2016-07-31T08:04:33Z</time>
      </trkpt>
      <trkpt lat="42.43575" lon="0.03697">
        <ele>837.8</ele>
        <time>2016-07-31T08:04:35Z</time>
      </trkpt>
      <trkpt lat="42.43575" lon="0.0369">
        <ele>838.6</ele>
        <time>2016-07-31T08:04:37Z</time>
      </trkpt>
      <trkpt lat="42.43576" lon="0.03684">
        <ele>839.6</ele>
        <time>2016-07-31T08:04:39Z</time>
      </trkpt>
      <trkpt lat="42.43577" lon="0.03678">
        <ele>840.6</ele>
        <time>2016-07-31T08:04:41Z</time>
      </trkpt>
      <trkpt lat="42.4358" lon="0.03672">
        <ele>841.9</ele>
        <time>2016-07-31T08:04:43Z</time>
      </trkpt>
      <trkpt lat="42.43583" lon="0.03667">
        <ele>843.3</ele>
        <time>2016-07-31T08:04:45Z</time>
      </trkpt>
      <trkpt lat="42.43585" lon="0.03661">
        <ele>844.5</ele>
        <time>2016-07-31T08:04:47Z</time>
      </trkpt>
      <trkpt lat="42.43587" lon="0.03656">
        <ele>845.7</ele>
        <time>2016-07-31T08:04:49Z</time>
      </trkpt>
      <trkpt lat="42.4359" lon="0.0365">
        <ele>846.8</ele>
        <time>2016-07-31T08:04:51Z</time>
      </trkpt>
      <trkpt lat="42.43592" lon="0.03645">
        <ele>847.9</ele>
        <time>2016-07-31T08:04:53Z</time>
      </trkpt>
      <trkpt lat="42.43594" lon="0.03639">
        <ele>848.9</ele>
        <time>2016-07-31T08:04:55Z</time>
      </trkpt>
      <trkpt lat="42.43595" lon="0.03634">
        <ele>849.8</ele>
        <time>2016-07-31T08:04:57Z</time>
      </trkpt>
      <trkpt lat="42.43597" lon="0.03628">
        <ele>850.6</ele>
        <time>2016-07-31T08:04:59Z</time>
      </trkpt>
      <trkpt lat="42.43597" lon="0.03622">
        <ele>851.6</ele>
        <time>2016-07-31T08:05:01Z</time>
      </trkpt>
      <trkpt lat="42.43597" lon="0.03616">
        <ele>852.8</ele>
        <time>2016-07-31T08:05:03Z</time>
      </trkpt>
      <trkpt lat="42.43596" lon="0.0361">
        <ele>853.7</ele>
        <time>2016-07-31T08:05:05Z</time>
      </trkpt>
      <trkpt lat="42.43595" lon="0.03603">
        <ele>854.6</ele>
        <time>2016-07-31T08:05:07Z</time>
      </trkpt>
      <trkpt lat="42.43593" lon="0.03597">
        <ele>855.4</ele>
        <time>2016-07-31T08:05:09Z</time>
      </trkpt>
      <trkpt lat="42.43591" lon="0.03591">
        <ele>856</ele>
        <time>2016-07-31T08:05:11Z</time>
      </trkpt>
      <trkpt lat="42.43589" lon="0.03585">
        <ele>856.5</ele>
        <time>2016-07-31T08:05:13Z</time>
      </trkpt>
      <trkpt lat="42.43585" lon="0.0358">
        <ele>856.7</ele>
        <time>2016-07-31T08:05:15Z</time>
      </trkpt>
      <trkpt lat="42.43583" lon="0.03578">
        <ele>856.6</ele>
        <time>2016-07-31T08:05:16Z</time>
      </trkpt>
      <trkpt lat="42.4358" lon="0.03575">
        <ele>856.6</ele>
        <time>2016-07-31T08:05:17Z</time>
      </trkpt>
      <trkpt lat="42.43578" lon="0.03573">
        <ele>856.5</ele>
        <time>2016-07-31T08:05:18Z</time>
      </trkpt>
      <trkpt lat="42.43576" lon="0.03571">
        <ele>856.4</ele>
        <time>2016-07-31T08:05:19Z</time>
      </trkpt>
      <trkpt lat="42.43573" lon="0.03569">
        <ele>856.2</ele>
        <time>2016-07-31T08:05:20Z</time>
      </trkpt>
      <trkpt lat="42.43571" lon="0.03567">
        <ele>856</ele>
        <time>2016-07-31T08:05:21Z</time>
      </trkpt>
      <trkpt lat="42.43568" lon="0.03566">
        <ele>855.7</ele>
        <time>2016-07-31T08:05:22Z</time>
      </trkpt>
      <trkpt lat="42.43566" lon="0.03564">
        <ele>855.4</ele>
        <time>2016-07-31T08:05:23Z</time>
      </trkpt>
      <trkpt lat="42.43564" lon="0.03562">
        <ele>855.3</ele>
        <time>2016-07-31T08:05:24Z</time>
      </trkpt>
      <trkpt lat="42.43559" lon="0.03558">
        <ele>854.9</ele>
        <time>2016-07-31T08:05:26Z</time>
      </trkpt>
      <trkpt lat="42.43554" lon="0.03554">
        <ele>854.6</ele>
        <time>2016-07-31T08:05:28Z</time>
      </trkpt>
      <trkpt lat="42.4355" lon="0.03551">
        <ele>854.3</ele>
        <time>2016-07-31T08:05:30Z</time>
      </trkpt>
      <trkpt lat="42.43546" lon="0.03546">
        <ele>854.1</ele>
        <time>2016-07-31T08:05:32Z</time>
      </trkpt>
      <trkpt lat="42.43544" lon="0.03544">
        <ele>854</ele>
        <time>2016-07-31T08:05:33Z</time>
      </trkpt>
      <trkpt lat="42.43542" lon="0.03542">
        <ele>854</ele>
        <time>2016-07-31T08:05:34Z</time>
      </trkpt>
      <trkpt lat="42.4354" lon="0.03539">
        <ele>854.4</ele>
        <time>2016-07-31T08:05:35Z</time>
      </trkpt>
      <trkpt lat="42.43538" lon="0.03537">
        <ele>854.7</ele>
        <time>2016-07-31T08:05:36Z</time>
      </trkpt>
      <trkpt lat="42.43535" lon="0.03534">
        <ele>855</ele>
        <time>2016-07-31T08:05:37Z</time>
      </trkpt>
      <trkpt lat="42.43534" lon="0.03531">
        <ele>855.4</ele>
        <time>2016-07-31T08:05:38Z</time>
      </trkpt>
      <trkpt lat="42.43531" lon="0.03526">
        <ele>856.1</ele>
        <time>2016-07-31T08:05:40Z</time>
      </trkpt>
      <trkpt lat="42.43529" lon="0.03522">
        <ele>856.5</ele>
        <time>2016-07-31T08:05:41Z</time>
      </trkpt>
      <trkpt lat="42.43528" lon="0.03519">
        <ele>856.9</ele>
        <time>2016-07-31T08:05:42Z</time>
      </trkpt>
      <trkpt lat="42.43527" lon="0.03515">
        <ele>857.3</ele>
        <time>2016-07-31T08:05:43Z</time>
      </trkpt>
      <trkpt lat="42.43525" lon="0.03512">
        <ele>857.7</ele>
        <time>2016-07-31T08:05:44Z</time>
      </trkpt>
      <trkpt lat="42.43524" lon="0.03508">
        <ele>858.1</ele>
        <time>2016-07-31T08:05:45Z</time>
      </trkpt>
      <trkpt lat="42.43523" lon="0.03504">
        <ele>858.5</ele>
        <time>2016-07-31T08:05:46Z</time>
      </trkpt>
      <trkpt lat="42.43521" lon="0.035">
        <ele>858.8</ele>
        <time>2016-07-31T08:05:47Z</time>
      </trkpt>
      <trkpt lat="42.4352" lon="0.03496">
        <ele>859.1</ele>
        <time>2016-07-31T08:05:48Z</time>
      </trkpt>
      <trkpt lat="42.43519" lon="0.03493">
        <ele>859.4</ele>
        <time>2016-07-31T08:05:49Z</time>
      </trkpt>
      <trkpt lat="42.43518" lon="0.03489">
        <ele>859.7</ele>
        <time>2016-07-31T08:05:50Z</time>
      </trkpt>
      <trkpt lat="42.43516" lon="0.03486">
        <ele>859.9</ele>
        <time>2016-07-31T08:05:51Z</time>
      </trkpt>
      <trkpt lat="42.43515" lon="0.03483">
        <ele>860.1</ele>
        <time>2016-07-31T08:05:52Z</time>
      </trkpt>
      <trkpt lat="42.43513" lon="0.03476">
        <ele>860.3</ele>
        <time>2016-07-31T08:05:54Z</time>
      </trkpt>
      <trkpt lat="42.43511" lon="0.03473">
        <ele>860.4</ele>
        <time>2016-07-31T08:05:55Z</time>
      </trkpt>
      <trkpt lat="42.43509" lon="0.0347">
        <ele>860.4</ele>
        <time>2016-07-31T08:05:56Z</time>
      </trkpt>
      <trkpt lat="42.43508" lon="0.03467">
        <ele>860.4</ele>
        <time>2016-07-31T08:05:57Z</time>
      </trkpt>
      <trkpt lat="42.43506" lon="0.03463">
        <ele>860.4</ele>
        <time>2016-07-31T08:05:58Z</time>
      </trkpt>
      <trkpt lat="42.43505" lon="0.0346">
        <ele>860.4</ele>
        <time>2016-07-31T08:05:59Z</time>
      </trkpt>
      <trkpt lat="42.43504" lon="0.03456">
        <ele>860.5</ele>
        <time>2016-07-31T08:06:00Z</time>
      </trkpt>
      <trkpt lat="42.43503" lon="0.03453">
        <ele>860.6</ele>
        <time>2016-07-31T08:06:01Z</time>
      </trkpt>
      <trkpt lat="42.43502" lon="0.03449">
        <ele>860.7</ele>
        <time>2016-07-31T08:06:02Z</time>
      </trkpt>
      <trkpt lat="42.43501" lon="0.03446">
        <ele>860.7</ele>
        <time>2016-07-31T08:06:03Z</time>
      </trkpt>
      <trkpt lat="42.435" lon="0.03442">
        <ele>860.9</ele>
        <time>2016-07-31T08:06:04Z</time>
      </trkpt>
      <trkpt lat="42.43499" lon="0.03438">
        <ele>861</ele>
        <time>2016-07-31T08:06:05Z</time>
      </trkpt>
      <trkpt lat="42.43498" lon="0.03435">
        <ele>861</ele>
        <time>2016-07-31T08:06:06Z</time>
      </trkpt>
      <trkpt lat="42.43497" lon="0.03431">
        <ele>860.9</ele>
        <time>2016-07-31T08:06:07Z</time>
      </trkpt>
      <trkpt lat="42.43496" lon="0.03428">
        <ele>860.9</ele>
        <time>2016-07-31T08:06:08Z</time>
      </trkpt>
      <trkpt lat="42.43495" lon="0.03424">
        <ele>860.9</ele>
        <time>2016-07-31T08:06:09Z</time>
      </trkpt>
      <trkpt lat="42.43494" lon="0.0342">
        <ele>860.9</ele>
        <time>2016-07-31T08:06:10Z</time>
      </trkpt>
      <trkpt lat="42.43493" lon="0.03416">
        <ele>860.9</ele>
        <time>2016-07-31T08:06:11Z</time>
      </trkpt>
      <trkpt lat="42.43492" lon="0.03412">
        <ele>860.9</ele>
        <time>2016-07-31T08:06:12Z</time>
      </trkpt>
      <trkpt lat="42.43491" lon="0.03409">
        <ele>860.9</ele>
        <time>2016-07-31T08:06:13Z</time>
      </trkpt>
      <trkpt lat="42.4349" lon="0.03405">
        <ele>860.8</ele>
        <time>2016-07-31T08:06:14Z</time>
      </trkpt>
      <trkpt lat="42.43489" lon="0.03402">
        <ele>860.7</ele>
        <time>2016-07-31T08:06:15Z</time>
      </trkpt>
      <trkpt lat="42.43487" lon="0.03395">
        <ele>860.7</ele>
        <time>2016-07-31T08:06:17Z</time>
      </trkpt>
      <trkpt lat="42.43486" lon="0.03391">
        <ele>860.6</ele>
        <time>2016-07-31T08:06:18Z</time>
      </trkpt>
      <trkpt lat="42.43486" lon="0.03387">
        <ele>860.7</ele>
        <time>2016-07-31T08:06:19Z</time>
      </trkpt>
      <trkpt lat="42.43485" lon="0.03384">
        <ele>860.7</ele>
        <time>2016-07-31T08:06:20Z</time>
      </trkpt>
      <trkpt lat="42.43484" lon="0.0338">
        <ele>860.5</ele>
        <time>2016-07-31T08:06:21Z</time>
      </trkpt>
      <trkpt lat="42.43483" lon="0.03377">
        <ele>860.5</ele>
        <time>2016-07-31T08:06:22Z</time>
      </trkpt>
      <trkpt lat="42.43483" lon="0.03373">
        <ele>860.6</ele>
        <time>2016-07-31T08:06:23Z</time>
      </trkpt>
      <trkpt lat="42.43482" lon="0.03369">
        <ele>860.7</ele>
        <time>2016-07-31T08:06:24Z</time>
      </trkpt>
      <trkpt lat="42.43482" lon="0.03365">
        <ele>861</ele>
        <time>2016-07-31T08:06:25Z</time>
      </trkpt>
      <trkpt lat="42.43482" lon="0.03362">
        <ele>861.2</ele>
        <time>2016-07-31T08:06:26Z</time>
      </trkpt>
      <trkpt lat="42.43482" lon="0.03355">
        <ele>861.5</ele>
        <time>2016-07-31T08:06:28Z</time>
      </trkpt>
      <trkpt lat="42.43481" lon="0.03351">
        <ele>861.5</ele>
        <time>2016-07-31T08:06:29Z</time>
      </trkpt>
      <trkpt lat="42.4348" lon="0.03347">
        <ele>861.5</ele>
        <time>2016-07-31T08:06:30Z</time>
      </trkpt>
      <trkpt lat="42.4348" lon="0.03343">
        <ele>861.6</ele>
        <time>2016-07-31T08:06:31Z</time>
      </trkpt>
      <trkpt lat="42.4348" lon="0.0334">
        <ele>861.8</ele>
        <time>2016-07-31T08:06:32Z</time>
      </trkpt>
      <trkpt lat="42.43479" lon="0.03333">
        <ele>862.1</ele>
        <time>2016-07-31T08:06:34Z</time>
      </trkpt>
      <trkpt lat="42.43479" lon="0.03326">
        <ele>862.5</ele>
        <time>2016-07-31T08:06:36Z</time>
      </trkpt>
      <trkpt lat="42.43479" lon="0.03322">
        <ele>862.9</ele>
        <time>2016-07-31T08:06:37Z</time>
      </trkpt>
      <trkpt lat="42.4348" lon="0.03318">
        <ele>863.3</ele>
        <time>2016-07-31T08:06:38Z</time>
      </trkpt>
      <trkpt lat="42.43481" lon="0.03312">
        <ele>864.2</ele>
        <time>2016-07-31T08:06:40Z</time>
      </trkpt>
      <trkpt lat="42.43482" lon="0.03306">
        <ele>865</ele>
        <time>2016-07-31T08:06:42Z</time>
      </trkpt>
      <trkpt lat="42.43484" lon="0.033">
        <ele>866.2</ele>
        <time>2016-07-31T08:06:44Z</time>
      </trkpt>
      <trkpt lat="42.43487" lon="0.03293">
        <ele>867.6</ele>
        <time>2016-07-31T08:06:46Z</time>
      </trkpt>
      <trkpt lat="42.43489" lon="0.0329">
        <ele>868.5</ele>
        <time>2016-07-31T08:06:47Z</time>
      </trkpt>
      <trkpt lat="42.43492" lon="0.03285">
        <ele>870.2</ele>
        <time>2016-07-31T08:06:49Z</time>
      </trkpt>
      <trkpt lat="42.43494" lon="0.0328">
        <ele>871.9</ele>
        <time>2016-07-31T08:06:51Z</time>
      </trkpt>
      <trkpt lat="42.43497" lon="0.03275">
        <ele>873.8</ele>
        <time>2016-07-31T08:06:53Z</time>
      </trkpt>
      <trkpt lat="42.435" lon="0.0327">
        <ele>875.6</ele>
        <time>2016-07-31T08:06:55Z</time>
      </trkpt>
      <trkpt lat="42.43502" lon="0.03265">
        <ele>877.3</ele>
        <time>2016-07-31T08:06:57Z</time>
      </trkpt>
      <trkpt lat="42.43505" lon="0.0326">
        <ele>879.1</ele>
        <time>2016-07-31T08:06:59Z</time>
      </trkpt>
      <trkpt lat="42.43508" lon="0.03255">
        <ele>880.9</ele>
        <time>2016-07-31T08:07:01Z</time>
      </trkpt>
      <trkpt lat="42.4351" lon="0.03249">
        <ele>882.8</ele>
        <time>2016-07-31T08:07:03Z</time>
      </trkpt>
      <trkpt lat="42.43512" lon="0.03243">
        <ele>884.3</ele>
        <time>2016-07-31T08:07:05Z</time>
      </trkpt>
      <trkpt lat="42.43513" lon="0.03237">
        <ele>885.6</ele>
        <time>2016-07-31T08:07:07Z</time>
      </trkpt>
      <trkpt lat="42.43513" lon="0.03231">
        <ele>886.6</ele>
        <time>2016-07-31T08:07:09Z</time>
      </trkpt>
      <trkpt lat="42.43512" lon="0.03225">
        <ele>887.4</ele>
        <time>2016-07-31T08:07:11Z</time>
      </trkpt>
      <trkpt lat="42.4351" lon="0.03218">
        <ele>888</ele>
        <time>2016-07-31T08:07:13Z</time>
      </trkpt>
      <trkpt lat="42.43507" lon="0.03212">
        <ele>887.9</ele>
        <time>2016-07-31T08:07:15Z</time>
      </trkpt>
      <trkpt lat="42.43504" lon="0.03207">
        <ele>887.9</ele>
        <time>2016-07-31T08:07:17Z</time>
      </trkpt>
      <trkpt lat="42.435" lon="0.03203">
        <ele>887.6</ele>
        <time>2016-07-31T08:07:19Z</time>
      </trkpt>
      <trkpt lat="42.43496" lon="0.03199">
        <ele>886.9</ele>
        <time>2016-07-31T08:07:21Z</time>
      </trkpt>
      <trkpt lat="42.43492" lon="0.03196">
        <ele>886.1</ele>
        <time>2016-07-31T08:07:23Z</time>
      </trkpt>
      <trkpt lat="42.43487" lon="0.03193">
        <ele>885</ele>
        <time>2016-07-31T08:07:25Z</time>
      </trkpt>
      <trkpt lat="42.43482" lon="0.03191">
        <ele>883.8</ele>
        <time>2016-07-31T08:07:27Z</time>
      </trkpt>
      <trkpt lat="42.43477" lon="0.03189">
        <ele>882.4</ele>
        <time>2016-07-31T08:07:29Z</time>
      </trkpt>
      <trkpt lat="42.43475" lon="0.03188">
        <ele>881.8</ele>
        <time>2016-07-31T08:07:30Z</time>
      </trkpt>
      <trkpt lat="42.4347" lon="0.03184">
        <ele>880.8</ele>
        <time>2016-07-31T08:07:32Z</time>
      </trkpt>
      <trkpt lat="42.43465" lon="0.03182">
        <ele>879.6</ele>
        <time>2016-07-31T08:07:34Z</time>
      </trkpt>
      <trkpt lat="42.4346" lon="0.0318">
        <ele>878.3</ele>
        <time>2016-07-31T08:07:36Z</time>
      </trkpt>
      <trkpt lat="42.43456" lon="0.03176">
        <ele>878.2</ele>
        <time>2016-07-31T08:07:38Z</time>
      </trkpt>
      <trkpt lat="42.43452" lon="0.03172">
        <ele>878.8</ele>
        <time>2016-07-31T08:07:40Z</time>
      </trkpt>
      <trkpt lat="42.43449" lon="0.03168">
        <ele>879.4</ele>
        <time>2016-07-31T08:07:42Z</time>
      </trkpt>
      <trkpt lat="42.43446" lon="0.03163">
        <ele>880.1</ele>
        <time>2016-07-31T08:07:44Z</time>
      </trkpt>
      <trkpt lat="42.43443" lon="0.03158">
        <ele>880.8</ele>
        <time>2016-07-31T08:07:46Z</time>
      </trkpt>
      <trkpt lat="42.43441" lon="0.03152">
        <ele>881.5</ele>
        <time>2016-07-31T08:07:48Z</time>
      </trkpt>
      <trkpt lat="42.4344" lon="0.03145">
        <ele>882.4</ele>
        <time>2016-07-31T08:07:50Z</time>
      </trkpt>
      <trkpt lat="42.43439" lon="0.03139">
        <ele>883.3</ele>
        <time>2016-07-31T08:07:52Z</time>
      </trkpt>
      <trkpt lat="42.43439" lon="0.03132">
        <ele>884.4</ele>
        <time>2016-07-31T08:07:54Z</time>
      </trkpt>
      <trkpt lat="42.43439" lon="0.03129">
        <ele>885</ele>
        <time>2016-07-31T08:07:55Z</time>
      </trkpt>
      <trkpt lat="42.4344" lon="0.03122">
        <ele>886.3</ele>
        <time>2016-07-31T08:07:57Z</time>
      </trkpt>
      <trkpt lat="42.43439" lon="0.03115">
        <ele>887.6</ele>
        <time>2016-07-31T08:07:59Z</time>
      </trkpt>
      <trkpt lat="42.43438" lon="0.03109">
        <ele>888.7</ele>
        <time>2016-07-31T08:08:01Z</time>
      </trkpt>
      <trkpt lat="42.43436" lon="0.03103">
        <ele>889.4</ele>
        <time>2016-07-31T08:08:03Z</time>
      </trkpt>
      <trkpt lat="42.43434" lon="0.03097">
        <ele>889.8</ele>
        <time>2016-07-31T08:08:05Z</time>
      </trkpt>
      <trkpt lat="42.43431" lon="0.03092">
        <ele>889.9</ele>
        <time>2016-07-31T08:08:07Z</time>
      </trkpt>
      <trkpt lat="42.43428" lon="0.03087">
        <ele>890</ele>
        <time>2016-07-31T08:08:09Z</time>
      </trkpt>
      <trkpt lat="42.43425" lon="0.03082">
        <ele>890</ele>
        <time>2016-07-31T08:08:11Z</time>
      </trkpt>
      <trkpt lat="42.43423" lon="0.03076">
        <ele>890.1</ele>
        <time>2016-07-31T08:08:13Z</time>
      </trkpt>
      <trkpt lat="42.43421" lon="0.03071">
        <ele>890.2</ele>
        <time>2016-07-31T08:08:15Z</time>
      </trkpt>
      <trkpt lat="42.43419" lon="0.03066">
        <ele>890.3</ele>
        <time>2016-07-31T08:08:17Z</time>
      </trkpt>
      <trkpt lat="42.43417" lon="0.03061">
        <ele>890.3</ele>
        <time>2016-07-31T08:08:19Z</time>
      </trkpt>
      <trkpt lat="42.43415" lon="0.03055">
        <ele>890.3</ele>
        <time>2016-07-31T08:08:21Z</time>
      </trkpt>
      <trkpt lat="42.43413" lon="0.03049">
        <ele>890.2</ele>
        <time>2016-07-31T08:08:23Z</time>
      </trkpt>
      <trkpt lat="42.43411" lon="0.03044">
        <ele>890</ele>
        <time>2016-07-31T08:08:25Z</time>
      </trkpt>
      <trkpt lat="42.43409" lon="0.03038">
        <ele>890.2</ele>
        <time>2016-07-31T08:08:27Z</time>
      </trkpt>
      <trkpt lat="42.43406" lon="0.03032">
        <ele>890.3</ele>
        <time>2016-07-31T08:08:29Z</time>
      </trkpt>
      <trkpt lat="42.43404" lon="0.03026">
        <ele>890.2</ele>
        <time>2016-07-31T08:08:31Z</time>
      </trkpt>
      <trkpt lat="42.43402" lon="0.03022">
        <ele>889.9</ele>
        <time>2016-07-31T08:08:33Z</time>
      </trkpt>
      <trkpt lat="42.434" lon="0.03017">
        <ele>889.9</ele>
        <time>2016-07-31T08:08:35Z</time>
      </trkpt>
      <trkpt lat="42.43398" lon="0.03011">
        <ele>890</ele>
        <time>2016-07-31T08:08:37Z</time>
      </trkpt>
      <trkpt lat="42.43396" lon="0.03006">
        <ele>889.9</ele>
        <time>2016-07-31T08:08:39Z</time>
      </trkpt>
      <trkpt lat="42.43393" lon="0.03001">
        <ele>889.5</ele>
        <time>2016-07-31T08:08:41Z</time>
      </trkpt>
      <trkpt lat="42.43391" lon="0.02997">
        <ele>889</ele>
        <time>2016-07-31T08:08:43Z</time>
      </trkpt>
      <trkpt lat="42.43387" lon="0.02993">
        <ele>888</ele>
        <time>2016-07-31T08:08:45Z</time>
      </trkpt>
      <trkpt lat="42.43385" lon="0.02988">
        <ele>887.4</ele>
        <time>2016-07-31T08:08:47Z</time>
      </trkpt>
      <trkpt lat="42.43383" lon="0.02982">
        <ele>887.6</ele>
        <time>2016-07-31T08:08:49Z</time>
      </trkpt>
      <trkpt lat="42.43381" lon="0.02976">
        <ele>887.8</ele>
        <time>2016-07-31T08:08:51Z</time>
      </trkpt>
      <trkpt lat="42.4338" lon="0.02972">
        <ele>887.6</ele>
        <time>2016-07-31T08:08:52Z</time>
      </trkpt>
      <trkpt lat="42.43379" lon="0.02969">
        <ele>887.5</ele>
        <time>2016-07-31T08:08:53Z</time>
      </trkpt>
      <trkpt lat="42.43378" lon="0.02966">
        <ele>887.3</ele>
        <time>2016-07-31T08:08:54Z</time>
      </trkpt>
      <trkpt lat="42.43376" lon="0.0296">
        <ele>887.1</ele>
        <time>2016-07-31T08:08:56Z</time>
      </trkpt>
      <trkpt lat="42.43374" lon="0.02954">
        <ele>887.6</ele>
        <time>2016-07-31T08:08:58Z</time>
      </trkpt>
      <trkpt lat="42.43373" lon="0.02946">
        <ele>888.6</ele>
        <time>2016-07-31T08:09:00Z</time>
      </trkpt>
      <trkpt lat="42.43373" lon="0.02943">
        <ele>889.2</ele>
        <time>2016-07-31T08:09:01Z</time>
      </trkpt>
      <trkpt lat="42.43373" lon="0.02936">
        <ele>890.3</ele>
        <time>2016-07-31T08:09:03Z</time>
      </trkpt>
      <trkpt lat="42.43373" lon="0.02929">
        <ele>891.4</ele>
        <time>2016-07-31T08:09:05Z</time>
      </trkpt>
      <trkpt lat="42.43373" lon="0.02923">
        <ele>892.6</ele>
        <time>2016-07-31T08:09:07Z</time>
      </trkpt>
      <trkpt lat="42.43373" lon="0.02916">
        <ele>893.8</ele>
        <time>2016-07-31T08:09:09Z</time>
      </trkpt>
      <trkpt lat="42.43374" lon="0.02909">
        <ele>895</ele>
        <time>2016-07-31T08:09:11Z</time>
      </trkpt>
      <trkpt lat="42.43375" lon="0.02902">
        <ele>896.4</ele>
        <time>2016-07-31T08:09:13Z</time>
      </trkpt>
      <trkpt lat="42.43375" lon="0.02898">
        <ele>897.1</ele>
        <time>2016-07-31T08:09:14Z</time>
      </trkpt>
      <trkpt lat="42.43375" lon="0.02891">
        <ele>898.3</ele>
        <time>2016-07-31T08:09:16Z</time>
      </trkpt>
      <trkpt lat="42.43376" lon="0.02884">
        <ele>899.7</ele>
        <time>2016-07-31T08:09:18Z</time>
      </trkpt>
      <trkpt lat="42.43376" lon="0.0288">
        <ele>900.6</ele>
        <time>2016-07-31T08:09:19Z</time>
      </trkpt>
      <trkpt lat="42.43377" lon="0.02873">
        <ele>902.6</ele>
        <time>2016-07-31T08:09:21Z</time>
      </trkpt>
      <trkpt lat="42.43378" lon="0.0287">
        <ele>904.2</ele>
        <time>2016-07-31T08:09:22Z</time>
      </trkpt>
      <trkpt lat="42.43378" lon="0.02866">
        <ele>905.8</ele>
        <time>2016-07-31T08:09:23Z</time>
      </trkpt>
      <trkpt lat="42.43379" lon="0.02862">
        <ele>907.3</ele>
        <time>2016-07-31T08:09:24Z</time>
      </trkpt>
      <trkpt lat="42.43379" lon="0.02859">
        <ele>908.8</ele>
        <time>2016-07-31T08:09:25Z</time>
      </trkpt>
      <trkpt lat="42.4338" lon="0.02855">
        <ele>910.3</ele>
        <time>2016-07-31T08:09:26Z</time>
      </trkpt>
      <trkpt lat="42.4338" lon="0.02851">
        <ele>911.8</ele>
        <time>2016-07-31T08:09:27Z</time>
      </trkpt>
      <trkpt lat="42.43381" lon="0.02847">
        <ele>913.3</ele>
        <time>2016-07-31T08:09:28Z</time>
      </trkpt>
      <trkpt lat="42.43381" lon="0.02843">
        <ele>914.8</ele>
        <time>2016-07-31T08:09:29Z</time>
      </trkpt>
      <trkpt lat="42.43382" lon="0.0284">
        <ele>916.4</ele>
        <time>2016-07-31T08:09:30Z</time>
      </trkpt>
      <trkpt lat="42.43383" lon="0.02836">
        <ele>917.8</ele>
        <time>2016-07-31T08:09:31Z</time>
      </trkpt>
      <trkpt lat="42.43383" lon="0.02832">
        <ele>919.3</ele>
        <time>2016-07-31T08:09:32Z</time>
      </trkpt>
      <trkpt lat="42.43384" lon="0.02829">
        <ele>920.7</ele>
        <time>2016-07-31T08:09:33Z</time>
      </trkpt>
      <trkpt lat="42.43385" lon="0.02825">
        <ele>922.1</ele>
        <time>2016-07-31T08:09:34Z</time>
      </trkpt>
      <trkpt lat="42.43385" lon="0.02821">
        <ele>923.5</ele>
        <time>2016-07-31T08:09:35Z</time>
      </trkpt>
      <trkpt lat="42.43386" lon="0.02818">
        <ele>924.8</ele>
        <time>2016-07-31T08:09:36Z</time>
      </trkpt>
      <trkpt lat="42.43387" lon="0.02814">
        <ele>926.2</ele>
        <time>2016-07-31T08:09:37Z</time>
      </trkpt>
      <trkpt lat="42.43387" lon="0.02811">
        <ele>927.5</ele>
        <time>2016-07-31T08:09:38Z</time>
      </trkpt>
      <trkpt lat="42.43388" lon="0.02807">
        <ele>928.8</ele>
        <time>2016-07-31T08:09:39Z</time>
      </trkpt>
      <trkpt lat="42.4339" lon="0.028">
        <ele>931.2</ele>
        <time>2016-07-31T08:09:41Z</time>
      </trkpt>
      <trkpt lat="42.4339" lon="0.02797">
        <ele>932.4</ele>
        <time>2016-07-31T08:09:42Z</time>
      </trkpt>
      <trkpt lat="42.4339" lon="0.02793">
        <ele>933.7</ele>
        <time>2016-07-31T08:09:43Z</time>
      </trkpt>
      <trkpt lat="42.4339" lon="0.02789">
        <ele>935</ele>
        <time>2016-07-31T08:09:44Z</time>
      </trkpt>
      <trkpt lat="42.4339" lon="0.02782">
        <ele>937.8</ele>
        <time>2016-07-31T08:09:46Z</time>
      </trkpt>
      <trkpt lat="42.43389" lon="0.02778">
        <ele>939.3</ele>
        <time>2016-07-31T08:09:47Z</time>
      </trkpt>
      <trkpt lat="42.43388" lon="0.02774">
        <ele>940.7</ele>
        <time>2016-07-31T08:09:48Z</time>
      </trkpt>
      <trkpt lat="42.43387" lon="0.0277">
        <ele>942.2</ele>
        <time>2016-07-31T08:09:49Z</time>
      </trkpt>
      <trkpt lat="42.43386" lon="0.02767">
        <ele>943.4</ele>
        <time>2016-07-31T08:09:50Z</time>
      </trkpt>
      <trkpt lat="42.43384" lon="0.02764">
        <ele>944.5</ele>
        <time>2016-07-31T08:09:51Z</time>
      </trkpt>
      <trkpt lat="42.43382" lon="0.02762">
        <ele>945.4</ele>
        <time>2016-07-31T08:09:52Z</time>
      </trkpt>
      <trkpt lat="42.4338" lon="0.02759">
        <ele>946.2</ele>
        <time>2016-07-31T08:09:53Z</time>
      </trkpt>
      <trkpt lat="42.43376" lon="0.02755">
        <ele>947.7</ele>
        <time>2016-07-31T08:09:55Z</time>
      </trkpt>
      <trkpt lat="42.43373" lon="0.02754">
        <ele>947.8</ele>
        <time>2016-07-31T08:09:56Z</time>
      </trkpt>
      <trkpt lat="42.4337" lon="0.02753">
        <ele>947.5</ele>
        <time>2016-07-31T08:09:57Z</time>
      </trkpt>
      <trkpt lat="42.43367" lon="0.02752">
        <ele>947.1</ele>
        <time>2016-07-31T08:09:58Z</time>
      </trkpt>
      <trkpt lat="42.43364" lon="0.02752">
        <ele>946.3</ele>
        <time>2016-07-31T08:09:59Z</time>
      </trkpt>
      <trkpt lat="42.43361" lon="0.02752">
        <ele>945.2</ele>
        <time>2016-07-31T08:10:00Z</time>
      </trkpt>
      <trkpt lat="42.43359" lon="0.02753">
        <ele>944.1</ele>
        <time>2016-07-31T08:10:01Z</time>
      </trkpt>
      <trkpt lat="42.43356" lon="0.02754">
        <ele>942.9</ele>
        <time>2016-07-31T08:10:02Z</time>
      </trkpt>
      <trkpt lat="42.43353" lon="0.02754">
        <ele>941.9</ele>
        <time>2016-07-31T08:10:03Z</time>
      </trkpt>
      <trkpt lat="42.4335" lon="0.02754">
        <ele>941</ele>
        <time>2016-07-31T08:10:04Z</time>
      </trkpt>
      <trkpt lat="42.43345" lon="0.02754">
        <ele>939.5</ele>
        <time>2016-07-31T08:10:06Z</time>
      </trkpt>
      <trkpt lat="42.4334" lon="0.02755">
        <ele>937.8</ele>
        <time>2016-07-31T08:10:08Z</time>
      </trkpt>
      <trkpt lat="42.43335" lon="0.02756">
        <ele>936</ele>
        <time>2016-07-31T08:10:10Z</time>
      </trkpt>
      <trkpt lat="42.43331" lon="0.02757">
        <ele>934.5</ele>
        <time>2016-07-31T08:10:12Z</time>
      </trkpt>
      <trkpt lat="42.43326" lon="0.02756">
        <ele>933.6</ele>
        <time>2016-07-31T08:10:14Z</time>
      </trkpt>
      <trkpt lat="42.43323" lon="0.02757">
        <ele>932.2</ele>
        <time>2016-07-31T08:10:16Z</time>
      </trkpt>
      <trkpt lat="42.43318" lon="0.02758">
        <ele>930.3</ele>
        <time>2016-07-31T08:10:18Z</time>
      </trkpt>
      <trkpt lat="42.43313" lon="0.0276">
        <ele>928.1</ele>
        <time>2016-07-31T08:10:20Z</time>
      </trkpt>
      <trkpt lat="42.43308" lon="0.02762">
        <ele>926</ele>
        <time>2016-07-31T08:10:22Z</time>
      </trkpt>
      <trkpt lat="42.43303" lon="0.02764">
        <ele>924</ele>
        <time>2016-07-31T08:10:24Z</time>
      </trkpt>
      <trkpt lat="42.43298" lon="0.02763">
        <ele>922.8</ele>
        <time>2016-07-31T08:10:26Z</time>
      </trkpt>
      <trkpt lat="42.43294" lon="0.02761">
        <ele>922.4</ele>
        <time>2016-07-31T08:10:28Z</time>
      </trkpt>
      <trkpt lat="42.4329" lon="0.02757">
        <ele>922.6</ele>
        <time>2016-07-31T08:10:30Z</time>
      </trkpt>
      <trkpt lat="42.43287" lon="0.02752">
        <ele>923.4</ele>
        <time>2016-07-31T08:10:32Z</time>
      </trkpt>
      <trkpt lat="42.43284" lon="0.02747">
        <ele>924.5</ele>
        <time>2016-07-31T08:10:34Z</time>
      </trkpt>
      <trkpt lat="42.43281" lon="0.02742">
        <ele>925.3</ele>
        <time>2016-07-31T08:10:36Z</time>
      </trkpt>
      <trkpt lat="42.43278" lon="0.02737">
        <ele>926.3</ele>
        <time>2016-07-31T08:10:38Z</time>
      </trkpt>
      <trkpt lat="42.43276" lon="0.02731">
        <ele>927.4</ele>
        <time>2016-07-31T08:10:40Z</time>
      </trkpt>
      <trkpt lat="42.43273" lon="0.02726">
        <ele>928.4</ele>
        <time>2016-07-31T08:10:42Z</time>
      </trkpt>
      <trkpt lat="42.4327" lon="0.02721">
        <ele>929.1</ele>
        <time>2016-07-31T08:10:44Z</time>
      </trkpt>
      <trkpt lat="42.43267" lon="0.02716">
        <ele>929.7</ele>
        <time>2016-07-31T08:10:46Z</time>
      </trkpt>
      <trkpt lat="42.43264" lon="0.02711">
        <ele>930.4</ele>
        <time>2016-07-31T08:10:48Z</time>
      </trkpt>
      <trkpt lat="42.43261" lon="0.02706">
        <ele>931.4</ele>
        <time>2016-07-31T08:10:50Z</time>
      </trkpt>
      <trkpt lat="42.43258" lon="0.02702">
        <ele>932.7</ele>
        <time>2016-07-31T08:10:52Z</time>
      </trkpt>
      <trkpt lat="42.43256" lon="0.02697">
        <ele>933.8</ele>
        <time>2016-07-31T08:10:54Z</time>
      </trkpt>
      <trkpt lat="42.43253" lon="0.02692">
        <ele>935</ele>
        <time>2016-07-31T08:10:56Z</time>
      </trkpt>
      <trkpt lat="42.43251" lon="0.02688">
        <ele>936.3</ele>
        <time>2016-07-31T08:10:58Z</time>
      </trkpt>
      <trkpt lat="42.43248" lon="0.02682">
        <ele>938</ele>
        <time>2016-07-31T08:11:00Z</time>
      </trkpt>
      <trkpt lat="42.43246" lon="0.02677">
        <ele>939.6</ele>
        <time>2016-07-31T08:11:02Z</time>
      </trkpt>
      <trkpt lat="42.43244" lon="0.02672">
        <ele>940.9</ele>
        <time>2016-07-31T08:11:04Z</time>
      </trkpt>
      <trkpt lat="42.43241" lon="0.02668">
        <ele>942.1</ele>
        <time>2016-07-31T08:11:06Z</time>
      </trkpt>
      <trkpt lat="42.43238" lon="0.02663">
        <ele>943.4</ele>
        <time>2016-07-31T08:11:08Z</time>
      </trkpt>
      <trkpt lat="42.43236" lon="0.02658">
        <ele>944.8</ele>
        <time>2016-07-31T08:11:10Z</time>
      </trkpt>
      <trkpt lat="42.43233" lon="0.02653">
        <ele>946.5</ele>
        <time>2016-07-31T08:11:12Z</time>
      </trkpt>
      <trkpt lat="42.4323" lon="0.02648">
        <ele>948</ele>
        <time>2016-07-31T08:11:14Z</time>
      </trkpt>
      <trkpt lat="42.43228" lon="0.02645">
        <ele>948.9</ele>
        <time>2016-07-31T08:11:15Z</time>
      </trkpt>
      <trkpt lat="42.43226" lon="0.02642">
        <ele>949.7</ele>
        <time>2016-07-31T08:11:16Z</time>
      </trkpt>
      <trkpt lat="42.43224" lon="0.02639">
        <ele>950.3</ele>
        <time>2016-07-31T08:11:17Z</time>
      </trkpt>
      <trkpt lat="42.43221" lon="0.02635">
        <ele>951.1</ele>
        <time>2016-07-31T08:11:19Z</time>
      </trkpt>
      <trkpt lat="42.43216" lon="0.02632">
        <ele>951.1</ele>
        <time>2016-07-31T08:11:21Z</time>
      </trkpt>
      <trkpt lat="42.43213" lon="0.0263">
        <ele>951</ele>
        <time>2016-07-31T08:11:22Z</time>
      </trkpt>
      <trkpt lat="42.43211" lon="0.02629">
        <ele>951</ele>
        <time>2016-07-31T08:11:23Z</time>
      </trkpt>
      <trkpt lat="42.43206" lon="0.02626">
        <ele>950.6</ele>
        <time>2016-07-31T08:11:25Z</time>
      </trkpt>
      <trkpt lat="42.43202" lon="0.02623">
        <ele>949.8</ele>
        <time>2016-07-31T08:11:27Z</time>
      </trkpt>
      <trkpt lat="42.43198" lon="0.02619">
        <ele>949.3</ele>
        <time>2016-07-31T08:11:29Z</time>
      </trkpt>
      <trkpt lat="42.43194" lon="0.02615">
        <ele>948.9</ele>
        <time>2016-07-31T08:11:31Z</time>
      </trkpt>
      <trkpt lat="42.4319" lon="0.02612">
        <ele>948.2</ele>
        <time>2016-07-31T08:11:33Z</time>
      </trkpt>
      <trkpt lat="42.43185" lon="0.02609">
        <ele>947</ele>
        <time>2016-07-31T08:11:35Z</time>
      </trkpt>
      <trkpt lat="42.43181" lon="0.02607">
        <ele>945.5</ele>
        <time>2016-07-31T08:11:37Z</time>
      </trkpt>
      <trkpt lat="42.43176" lon="0.02606">
        <ele>944</ele>
        <time>2016-07-31T08:11:39Z</time>
      </trkpt>
      <trkpt lat="42.43172" lon="0.02604">
        <ele>942.8</ele>
        <time>2016-07-31T08:11:41Z</time>
      </trkpt>
      <trkpt lat="42.43168" lon="0.02601">
        <ele>941.8</ele>
        <time>2016-07-31T08:11:43Z</time>
      </trkpt>
      <trkpt lat="42.43165" lon="0.02598">
        <ele>941.6</ele>
        <time>2016-07-31T08:11:45Z</time>
      </trkpt>
      <trkpt lat="42.4316" lon="0.02595">
        <ele>940.7</ele>
        <time>2016-07-31T08:11:47Z</time>
      </trkpt>
      <trkpt lat="42.43156" lon="0.02592">
        <ele>939.9</ele>
        <time>2016-07-31T08:11:49Z</time>
      </trkpt>
      <trkpt lat="42.43152" lon="0.02589">
        <ele>939.2</ele>
        <time>2016-07-31T08:11:51Z</time>
      </trkpt>
      <trkpt lat="42.43147" lon="0.02587">
        <ele>937.8</ele>
        <time>2016-07-31T08:11:53Z</time>
      </trkpt>
      <trkpt lat="42.43143" lon="0.02585">
        <ele>936.3</ele>
        <time>2016-07-31T08:11:55Z</time>
      </trkpt>
      <trkpt lat="42.43138" lon="0.02583">
        <ele>935.2</ele>
        <time>2016-07-31T08:11:57Z</time>
      </trkpt>
      <trkpt lat="42.43136" lon="0.02581">
        <ele>934.6</ele>
        <time>2016-07-31T08:11:58Z</time>
      </trkpt>
      <trkpt lat="42.43133" lon="0.0258">
        <ele>934</ele>
        <time>2016-07-31T08:11:59Z</time>
      </trkpt>
      <trkpt lat="42.43128" lon="0.02577">
        <ele>932.8</ele>
        <time>2016-07-31T08:12:01Z</time>
      </trkpt>
      <trkpt lat="42.43124" lon="0.02574">
        <ele>932.4</ele>
        <time>2016-07-31T08:12:03Z</time>
      </trkpt>
      <trkpt lat="42.43121" lon="0.02572">
        <ele>932.4</ele>
        <time>2016-07-31T08:12:04Z</time>
      </trkpt>
      <trkpt lat="42.43117" lon="0.02569">
        <ele>932.5</ele>
        <time>2016-07-31T08:12:06Z</time>
      </trkpt>
      <trkpt lat="42.43113" lon="0.02564">
        <ele>932.8</ele>
        <time>2016-07-31T08:12:08Z</time>
      </trkpt>
      <trkpt lat="42.4311" lon="0.02562">
        <ele>932.9</ele>
        <time>2016-07-31T08:12:09Z</time>
      </trkpt>
      <trkpt lat="42.43106" lon="0.02557">
        <ele>933.1</ele>
        <time>2016-07-31T08:12:11Z</time>
      </trkpt>
      <trkpt lat="42.43103" lon="0.02552">
        <ele>933.2</ele>
        <time>2016-07-31T08:12:13Z</time>
      </trkpt>
      <trkpt lat="42.43101" lon="0.02549">
        <ele>933.4</ele>
        <time>2016-07-31T08:12:14Z</time>
      </trkpt>
      <trkpt lat="42.43099" lon="0.02546">
        <ele>933.6</ele>
        <time>2016-07-31T08:12:15Z</time>
      </trkpt>
      <trkpt lat="42.43098" lon="0.02543">
        <ele>933.9</ele>
        <time>2016-07-31T08:12:16Z</time>
      </trkpt>
      <trkpt lat="42.43096" lon="0.02539">
        <ele>934</ele>
        <time>2016-07-31T08:12:17Z</time>
      </trkpt>
      <trkpt lat="42.43095" lon="0.02536">
        <ele>934</ele>
        <time>2016-07-31T08:12:18Z</time>
      </trkpt>
      <trkpt lat="42.43093" lon="0.02533">
        <ele>934</ele>
        <time>2016-07-31T08:12:19Z</time>
      </trkpt>
      <trkpt lat="42.43091" lon="0.0253">
        <ele>934</ele>
        <time>2016-07-31T08:12:20Z</time>
      </trkpt>
      <trkpt lat="42.4309" lon="0.02526">
        <ele>934.2</ele>
        <time>2016-07-31T08:12:21Z</time>
      </trkpt>
      <trkpt lat="42.43088" lon="0.02522">
        <ele>934.4</ele>
        <time>2016-07-31T08:12:22Z</time>
      </trkpt>
      <trkpt lat="42.43087" lon="0.02519">
        <ele>934.8</ele>
        <time>2016-07-31T08:12:23Z</time>
      </trkpt>
      <trkpt lat="42.43086" lon="0.02515">
        <ele>935.1</ele>
        <time>2016-07-31T08:12:24Z</time>
      </trkpt>
      <trkpt lat="42.43084" lon="0.02511">
        <ele>935.4</ele>
        <time>2016-07-31T08:12:25Z</time>
      </trkpt>
      <trkpt lat="42.43083" lon="0.02507">
        <ele>935.7</ele>
        <time>2016-07-31T08:12:26Z</time>
      </trkpt>
      <trkpt lat="42.43081" lon="0.02504">
        <ele>935.9</ele>
        <time>2016-07-31T08:12:27Z</time>
      </trkpt>
      <trkpt lat="42.43079" lon="0.025">
        <ele>936.3</ele>
        <time>2016-07-31T08:12:28Z</time>
      </trkpt>
      <trkpt lat="42.43078" lon="0.02496">
        <ele>936.6</ele>
        <time>2016-07-31T08:12:29Z</time>
      </trkpt>
      <trkpt lat="42.43076" lon="0.02492">
        <ele>936.9</ele>
        <time>2016-07-31T08:12:30Z</time>
      </trkpt>
      <trkpt lat="42.43074" lon="0.02489">
        <ele>937.2</ele>
        <time>2016-07-31T08:12:31Z</time>
      </trkpt>
      <trkpt lat="42.43073" lon="0.02485">
        <ele>937.7</ele>
        <time>2016-07-31T08:12:32Z</time>
      </trkpt>
      <trkpt lat="42.43072" lon="0.02481">
        <ele>938.6</ele>
        <time>2016-07-31T08:12:33Z</time>
      </trkpt>
      <trkpt lat="42.43071" lon="0.02476">
        <ele>939.6</ele>
        <time>2016-07-31T08:12:34Z</time>
      </trkpt>
      <trkpt lat="42.43071" lon="0.02472">
        <ele>940.8</ele>
        <time>2016-07-31T08:12:35Z</time>
      </trkpt>
      <trkpt lat="42.43071" lon="0.02467">
        <ele>942.1</ele>
        <time>2016-07-31T08:12:36Z</time>
      </trkpt>
      <trkpt lat="42.43071" lon="0.02462">
        <ele>943.5</ele>
        <time>2016-07-31T08:12:37Z</time>
      </trkpt>
      <trkpt lat="42.43072" lon="0.02458">
        <ele>944.9</ele>
        <time>2016-07-31T08:12:38Z</time>
      </trkpt>
      <trkpt lat="42.43072" lon="0.02453">
        <ele>946.4</ele>
        <time>2016-07-31T08:12:39Z</time>
      </trkpt>
      <trkpt lat="42.43073" lon="0.02448">
        <ele>948.1</ele>
        <time>2016-07-31T08:12:40Z</time>
      </trkpt>
      <trkpt lat="42.43073" lon="0.02443">
        <ele>949.6</ele>
        <time>2016-07-31T08:12:41Z</time>
      </trkpt>
      <trkpt lat="42.43074" lon="0.02438">
        <ele>951.1</ele>
        <time>2016-07-31T08:12:42Z</time>
      </trkpt>
      <trkpt lat="42.43074" lon="0.02434">
        <ele>952.5</ele>
        <time>2016-07-31T08:12:43Z</time>
      </trkpt>
      <trkpt lat="42.43075" lon="0.02429">
        <ele>953.8</ele>
        <time>2016-07-31T08:12:44Z</time>
      </trkpt>
      <trkpt lat="42.43075" lon="0.02424">
        <ele>955.1</ele>
        <time>2016-07-31T08:12:45Z</time>
      </trkpt>
      <trkpt lat="42.43074" lon="0.02419">
        <ele>956.4</ele>
        <time>2016-07-31T08:12:46Z</time>
      </trkpt>
      <trkpt lat="42.43073" lon="0.02414">
        <ele>957.6</ele>
        <time>2016-07-31T08:12:47Z</time>
      </trkpt>
      <trkpt lat="42.43072" lon="0.02409">
        <ele>958.8</ele>
        <time>2016-07-31T08:12:48Z</time>
      </trkpt>
      <trkpt lat="42.43071" lon="0.02404">
        <ele>960</ele>
        <time>2016-07-31T08:12:49Z</time>
      </trkpt>
      <trkpt lat="42.4307" lon="0.02399">
        <ele>961.4</ele>
        <time>2016-07-31T08:12:50Z</time>
      </trkpt>
      <trkpt lat="42.43068" lon="0.02394">
        <ele>962.6</ele>
        <time>2016-07-31T08:12:51Z</time>
      </trkpt>
      <trkpt lat="42.43066" lon="0.02389">
        <ele>963.8</ele>
        <time>2016-07-31T08:12:52Z</time>
      </trkpt>
      <trkpt lat="42.43064" lon="0.02385">
        <ele>965.1</ele>
        <time>2016-07-31T08:12:53Z</time>
      </trkpt>
      <trkpt lat="42.43062" lon="0.0238">
        <ele>966.4</ele>
        <time>2016-07-31T08:12:54Z</time>
      </trkpt>
      <trkpt lat="42.43059" lon="0.02375">
        <ele>967.8</ele>
        <time>2016-07-31T08:12:55Z</time>
      </trkpt>
      <trkpt lat="42.43057" lon="0.02371">
        <ele>969.3</ele>
        <time>2016-07-31T08:12:56Z</time>
      </trkpt>
      <trkpt lat="42.43055" lon="0.02367">
        <ele>970.7</ele>
        <time>2016-07-31T08:12:57Z</time>
      </trkpt>
      <trkpt lat="42.43052" lon="0.02363">
        <ele>971.9</ele>
        <time>2016-07-31T08:12:58Z</time>
      </trkpt>
      <trkpt lat="42.43049" lon="0.02359">
        <ele>973.1</ele>
        <time>2016-07-31T08:12:59Z</time>
      </trkpt>
      <trkpt lat="42.43046" lon="0.02357">
        <ele>974</ele>
        <time>2016-07-31T08:13:00Z</time>
      </trkpt>
      <trkpt lat="42.43042" lon="0.02355">
        <ele>974.6</ele>
        <time>2016-07-31T08:13:01Z</time>
      </trkpt>
      <trkpt lat="42.43038" lon="0.02353">
        <ele>974.4</ele>
        <time>2016-07-31T08:13:02Z</time>
      </trkpt>
      <trkpt lat="42.43034" lon="0.02352">
        <ele>973.9</ele>
        <time>2016-07-31T08:13:03Z</time>
      </trkpt>
      <trkpt lat="42.4303" lon="0.02351">
        <ele>973.3</ele>
        <time>2016-07-31T08:13:04Z</time>
      </trkpt>
      <trkpt lat="42.43024" lon="0.02354">
        <ele>971.4</ele>
        <time>2016-07-31T08:13:05Z</time>
      </trkpt>
      <trkpt lat="42.4302" lon="0.02354">
        <ele>970.3</ele>
        <time>2016-07-31T08:13:06Z</time>
      </trkpt>
      <trkpt lat="42.43016" lon="0.02355">
        <ele>969</ele>
        <time>2016-07-31T08:13:07Z</time>
      </trkpt>
      <trkpt lat="42.43012" lon="0.02352">
        <ele>969</ele>
        <time>2016-07-31T08:13:08Z</time>
      </trkpt>
      <trkpt lat="42.43007" lon="0.02353">
        <ele>968</ele>
        <time>2016-07-31T08:13:09Z</time>
      </trkpt>
      <trkpt lat="42.43003" lon="0.02353">
        <ele>967.2</ele>
        <time>2016-07-31T08:13:10Z</time>
      </trkpt>
      <trkpt lat="42.43" lon="0.02354">
        <ele>966</ele>
        <time>2016-07-31T08:13:11Z</time>
      </trkpt>
      <trkpt lat="42.42996" lon="0.02354">
        <ele>965</ele>
        <time>2016-07-31T08:13:12Z</time>
      </trkpt>
      <trkpt lat="42.42992" lon="0.02353">
        <ele>964.6</ele>
        <time>2016-07-31T08:13:13Z</time>
      </trkpt>
      <trkpt lat="42.42987" lon="0.02354">
        <ele>963.5</ele>
        <time>2016-07-31T08:13:14Z</time>
      </trkpt>
      <trkpt lat="42.42984" lon="0.02354">
        <ele>962.7</ele>
        <time>2016-07-31T08:13:15Z</time>
      </trkpt>
      <trkpt lat="42.4298" lon="0.02353">
        <ele>962.1</ele>
        <time>2016-07-31T08:13:16Z</time>
      </trkpt>
      <trkpt lat="42.42976" lon="0.02352">
        <ele>961.6</ele>
        <time>2016-07-31T08:13:17Z</time>
      </trkpt>
      <trkpt lat="42.42972" lon="0.02351">
        <ele>961.1</ele>
        <time>2016-07-31T08:13:18Z</time>
      </trkpt>
      <trkpt lat="42.42969" lon="0.0235">
        <ele>960.6</ele>
        <time>2016-07-31T08:13:19Z</time>
      </trkpt>
      <trkpt lat="42.42964" lon="0.02349">
        <ele>960.1</ele>
        <time>2016-07-31T08:13:20Z</time>
      </trkpt>
      <trkpt lat="42.42961" lon="0.02348">
        <ele>959.5</ele>
        <time>2016-07-31T08:13:21Z</time>
      </trkpt>
      <trkpt lat="42.42957" lon="0.02347">
        <ele>959.3</ele>
        <time>2016-07-31T08:13:22Z</time>
      </trkpt>
      <trkpt lat="42.42953" lon="0.02345">
        <ele>959.6</ele>
        <time>2016-07-31T08:13:23Z</time>
      </trkpt>
      <trkpt lat="42.4295" lon="0.02343">
        <ele>959.9</ele>
        <time>2016-07-31T08:13:24Z</time>
      </trkpt>
      <trkpt lat="42.42946" lon="0.0234">
        <ele>960.3</ele>
        <time>2016-07-31T08:13:25Z</time>
      </trkpt>
      <trkpt lat="42.42943" lon="0.02337">
        <ele>960.7</ele>
        <time>2016-07-31T08:13:26Z</time>
      </trkpt>
      <trkpt lat="42.42939" lon="0.02335">
        <ele>961</ele>
        <time>2016-07-31T08:13:27Z</time>
      </trkpt>
      <trkpt lat="42.42936" lon="0.02332">
        <ele>961.2</ele>
        <time>2016-07-31T08:13:28Z</time>
      </trkpt>
      <trkpt lat="42.42933" lon="0.02329">
        <ele>961.5</ele>
        <time>2016-07-31T08:13:29Z</time>
      </trkpt>
      <trkpt lat="42.4293" lon="0.02326">
        <ele>961.7</ele>
        <time>2016-07-31T08:13:30Z</time>
      </trkpt>
      <trkpt lat="42.42927" lon="0.02324">
        <ele>961.8</ele>
        <time>2016-07-31T08:13:31Z</time>
      </trkpt>
      <trkpt lat="42.42924" lon="0.0232">
        <ele>961.9</ele>
        <time>2016-07-31T08:13:32Z</time>
      </trkpt>
      <trkpt lat="42.42922" lon="0.02318">
        <ele>962</ele>
        <time>2016-07-31T08:13:33Z</time>
      </trkpt>
      <trkpt lat="42.42919" lon="0.02315">
        <ele>962</ele>
        <time>2016-07-31T08:13:34Z</time>
      </trkpt>
      <trkpt lat="42.42916" lon="0.02312">
        <ele>961.9</ele>
        <time>2016-07-31T08:13:35Z</time>
      </trkpt>
      <trkpt lat="42.42913" lon="0.02309">
        <ele>961.7</ele>
        <time>2016-07-31T08:13:36Z</time>
      </trkpt>
      <trkpt lat="42.4291" lon="0.02306">
        <ele>961.5</ele>
        <time>2016-07-31T08:13:37Z</time>
      </trkpt>
      <trkpt lat="42.42908" lon="0.02304">
        <ele>961.2</ele>
        <time>2016-07-31T08:13:38Z</time>
      </trkpt>
      <trkpt lat="42.42905" lon="0.02302">
        <ele>960.8</ele>
        <time>2016-07-31T08:13:39Z</time>
      </trkpt>
      <trkpt lat="42.42903" lon="0.02299">
        <ele>960.6</ele>
        <time>2016-07-31T08:13:40Z</time>
      </trkpt>
      <trkpt lat="42.429" lon="0.02296">
        <ele>960.3</ele>
        <time>2016-07-31T08:13:41Z</time>
      </trkpt>
      <trkpt lat="42.42898" lon="0.02293">
        <ele>960</ele>
        <time>2016-07-31T08:13:42Z</time>
      </trkpt>
      <trkpt lat="42.42896" lon="0.0229">
        <ele>960</ele>
        <time>2016-07-31T08:13:43Z</time>
      </trkpt>
      <trkpt lat="42.42894" lon="0.02286">
        <ele>960.3</ele>
        <time>2016-07-31T08:13:44Z</time>
      </trkpt>
      <trkpt lat="42.42892" lon="0.02283">
        <ele>960.5</ele>
        <time>2016-07-31T08:13:45Z</time>
      </trkpt>
      <trkpt lat="42.4289" lon="0.0228">
        <ele>960.6</ele>
        <time>2016-07-31T08:13:46Z</time>
      </trkpt>
      <trkpt lat="42.42887" lon="0.02277">
        <ele>960.7</ele>
        <time>2016-07-31T08:13:47Z</time>
      </trkpt>
      <trkpt lat="42.42885" lon="0.02274">
        <ele>960.8</ele>
        <time>2016-07-31T08:13:48Z</time>
      </trkpt>
      <trkpt lat="42.42883" lon="0.02271">
        <ele>960.9</ele>
        <time>2016-07-31T08:13:49Z</time>
      </trkpt>
      <trkpt lat="42.42881" lon="0.02267">
        <ele>961.1</ele>
        <time>2016-07-31T08:13:50Z</time>
      </trkpt>
      <trkpt lat="42.42878" lon="0.02264">
        <ele>961.3</ele>
        <time>2016-07-31T08:13:51Z</time>
      </trkpt>
      <trkpt lat="42.42876" lon="0.0226">
        <ele>961.6</ele>
        <time>2016-07-31T08:13:52Z</time>
      </trkpt>
      <trkpt lat="42.42874" lon="0.02256">
        <ele>962.2</ele>
        <time>2016-07-31T08:13:53Z</time>
      </trkpt>
      <trkpt lat="42.42872" lon="0.02252">
        <ele>963.1</ele>
        <time>2016-07-31T08:13:54Z</time>
      </trkpt>
      <trkpt lat="42.42871" lon="0.02248">
        <ele>963.9</ele>
        <time>2016-07-31T08:13:55Z</time>
      </trkpt>
      <trkpt lat="42.42869" lon="0.02244">
        <ele>964.8</ele>
        <time>2016-07-31T08:13:56Z</time>
      </trkpt>
      <trkpt lat="42.42867" lon="0.02241">
        <ele>965.6</ele>
        <time>2016-07-31T08:13:57Z</time>
      </trkpt>
      <trkpt lat="42.42865" lon="0.02237">
        <ele>966.2</ele>
        <time>2016-07-31T08:13:58Z</time>
      </trkpt>
      <trkpt lat="42.42863" lon="0.02233">
        <ele>966.9</ele>
        <time>2016-07-31T08:13:59Z</time>
      </trkpt>
      <trkpt lat="42.42861" lon="0.0223">
        <ele>967.5</ele>
        <time>2016-07-31T08:14:00Z</time>
      </trkpt>
      <trkpt lat="42.42859" lon="0.02226">
        <ele>968.1</ele>
        <time>2016-07-31T08:14:01Z</time>
      </trkpt>
      <trkpt lat="42.42857" lon="0.02222">
        <ele>968.6</ele>
        <time>2016-07-31T08:14:02Z</time>
      </trkpt>
      <trkpt lat="42.42854" lon="0.02218">
        <ele>969.1</ele>
        <time>2016-07-31T08:14:03Z</time>
      </trkpt>
      <trkpt lat="42.42853" lon="0.02215">
        <ele>969.5</ele>
        <time>2016-07-31T08:14:04Z</time>
      </trkpt>
      <trkpt lat="42.42851" lon="0.02211">
        <ele>969.9</ele>
        <time>2016-07-31T08:14:05Z</time>
      </trkpt>
      <trkpt lat="42.42849" lon="0.02208">
        <ele>970.3</ele>
        <time>2016-07-31T08:14:06Z</time>
      </trkpt>
      <trkpt lat="42.42847" lon="0.02204">
        <ele>970.9</ele>
        <time>2016-07-31T08:14:07Z</time>
      </trkpt>
      <trkpt lat="42.42845" lon="0.02202">
        <ele>971.2</ele>
        <time>2016-07-31T08:14:08Z</time>
      </trkpt>
      <trkpt lat="42.42842" lon="0.02199">
        <ele>971.4</ele>
        <time>2016-07-31T08:14:09Z</time>
      </trkpt>
      <trkpt lat="42.4284" lon="0.02196">
        <ele>971.6</ele>
        <time>2016-07-31T08:14:10Z</time>
      </trkpt>
      <trkpt lat="42.42837" lon="0.02194">
        <ele>971.7</ele>
        <time>2016-07-31T08:14:11Z</time>
      </trkpt>
      <trkpt lat="42.42834" lon="0.02191">
        <ele>971.7</ele>
        <time>2016-07-31T08:14:12Z</time>
      </trkpt>
      <trkpt lat="42.42832" lon="0.02189">
        <ele>971.7</ele>
        <time>2016-07-31T08:14:13Z</time>
      </trkpt>
      <trkpt lat="42.42829" lon="0.02187">
        <ele>971.6</ele>
        <time>2016-07-31T08:14:14Z</time>
      </trkpt>
      <trkpt lat="42.42826" lon="0.02185">
        <ele>971.4</ele>
        <time>2016-07-31T08:14:15Z</time>
      </trkpt>
      <trkpt lat="42.42823" lon="0.02183">
        <ele>971.2</ele>
        <time>2016-07-31T08:14:16Z</time>
      </trkpt>
      <trkpt lat="42.4282" lon="0.02181">
        <ele>970.9</ele>
        <time>2016-07-31T08:14:17Z</time>
      </trkpt>
      <trkpt lat="42.42817" lon="0.02179">
        <ele>970.7</ele>
        <time>2016-07-31T08:14:18Z</time>
      </trkpt>
      <trkpt lat="42.42815" lon="0.02176">
        <ele>970.5</ele>
        <time>2016-07-31T08:14:19Z</time>
      </trkpt>
      <trkpt lat="42.42812" lon="0.02174">
        <ele>970.2</ele>
        <time>2016-07-31T08:14:20Z</time>
      </trkpt>
      <trkpt lat="42.42809" lon="0.02172">
        <ele>970</ele>
        <time>2016-07-31T08:14:21Z</time>
      </trkpt>
      <trkpt lat="42.42807" lon="0.0217">
        <ele>969.6</ele>
        <time>2016-07-31T08:14:22Z</time>
      </trkpt>
      <trkpt lat="42.42804" lon="0.02168">
        <ele>969.3</ele>
        <time>2016-07-31T08:14:23Z</time>
      </trkpt>
      <trkpt lat="42.42802" lon="0.02166">
        <ele>968.9</ele>
        <time>2016-07-31T08:14:24Z</time>
      </trkpt>
      <trkpt lat="42.428" lon="0.02164">
        <ele>968.6</ele>
        <time>2016-07-31T08:14:25Z</time>
      </trkpt>
      <trkpt lat="42.42798" lon="0.02161">
        <ele>968.3</ele>
        <time>2016-07-31T08:14:26Z</time>
      </trkpt>
      <trkpt lat="42.42796" lon="0.02158">
        <ele>968</ele>
        <time>2016-07-31T08:14:27Z</time>
      </trkpt>
      <trkpt lat="42.42794" lon="0.02155">
        <ele>967.7</ele>
        <time>2016-07-31T08:14:28Z</time>
      </trkpt>
      <trkpt lat="42.42792" lon="0.02152">
        <ele>967.4</ele>
        <time>2016-07-31T08:14:29Z</time>
      </trkpt>
      <trkpt lat="42.4279" lon="0.02149">
        <ele>967.8</ele>
        <time>2016-07-31T08:14:30Z</time>
      </trkpt>
      <trkpt lat="42.42789" lon="0.02146">
        <ele>968.3</ele>
        <time>2016-07-31T08:14:31Z</time>
      </trkpt>
      <trkpt lat="42.42787" lon="0.02143">
        <ele>968.7</ele>
        <time>2016-07-31T08:14:32Z</time>
      </trkpt>
      <trkpt lat="42.42786" lon="0.02139">
        <ele>969.1</ele>
        <time>2016-07-31T08:14:33Z</time>
      </trkpt>
      <trkpt lat="42.42785" lon="0.02136">
        <ele>969.5</ele>
        <time>2016-07-31T08:14:34Z</time>
      </trkpt>
      <trkpt lat="42.42783" lon="0.02132">
        <ele>969.8</ele>
        <time>2016-07-31T08:14:35Z</time>
      </trkpt>
      <trkpt lat="42.42782" lon="0.02129">
        <ele>970.2</ele>
        <time>2016-07-31T08:14:36Z</time>
      </trkpt>
      <trkpt lat="42.42781" lon="0.02125">
        <ele>970.5</ele>
        <time>2016-07-31T08:14:37Z</time>
      </trkpt>
      <trkpt lat="42.42779" lon="0.02122">
        <ele>971.4</ele>
        <time>2016-07-31T08:14:38Z</time>
      </trkpt>
      <trkpt lat="42.42778" lon="0.02118">
        <ele>972.2</ele>
        <time>2016-07-31T08:14:39Z</time>
      </trkpt>
      <trkpt lat="42.42776" lon="0.02115">
        <ele>973.1</ele>
        <time>2016-07-31T08:14:40Z</time>
      </trkpt>
      <trkpt lat="42.42775" lon="0.02111">
        <ele>973.9</ele>
        <time>2016-07-31T08:14:41Z</time>
      </trkpt>
      <trkpt lat="42.42773" lon="0.02108">
        <ele>974.7</ele>
        <time>2016-07-31T08:14:42Z</time>
      </trkpt>
      <trkpt lat="42.42771" lon="0.02105">
        <ele>975.3</ele>
        <time>2016-07-31T08:14:43Z</time>
      </trkpt>
      <trkpt lat="42.4277" lon="0.02102">
        <ele>976</ele>
        <time>2016-07-31T08:14:44Z</time>
      </trkpt>
      <trkpt lat="42.42768" lon="0.02098">
        <ele>976.6</ele>
        <time>2016-07-31T08:14:45Z</time>
      </trkpt>
      <trkpt lat="42.42766" lon="0.02095">
        <ele>977.1</ele>
        <time>2016-07-31T08:14:46Z</time>
      </trkpt>
      <trkpt lat="42.42765" lon="0.02092">
        <ele>977.7</ele>
        <time>2016-07-31T08:14:47Z</time>
      </trkpt>
      <trkpt lat="42.42763" lon="0.02088">
        <ele>978.3</ele>
        <time>2016-07-31T08:14:48Z</time>
      </trkpt>
      <trkpt lat="42.42762" lon="0.02085">
        <ele>978.8</ele>
        <time>2016-07-31T08:14:49Z</time>
      </trkpt>
      <trkpt lat="42.4276" lon="0.02082">
        <ele>979.2</ele>
        <time>2016-07-31T08:14:50Z</time>
      </trkpt>
      <trkpt lat="42.42758" lon="0.02078">
        <ele>979.5</ele>
        <time>2016-07-31T08:14:51Z</time>
      </trkpt>
      <trkpt lat="42.42756" lon="0.02075">
        <ele>979.8</ele>
        <time>2016-07-31T08:14:52Z</time>
      </trkpt>
      <trkpt lat="42.42754" lon="0.02072">
        <ele>980.1</ele>
        <time>2016-07-31T08:14:53Z</time>
      </trkpt>
      <trkpt lat="42.42752" lon="0.02069">
        <ele>980.3</ele>
        <time>2016-07-31T08:14:54Z</time>
      </trkpt>
      <trkpt lat="42.4275" lon="0.02066">
        <ele>980.6</ele>
        <time>2016-07-31T08:14:55Z</time>
      </trkpt>
      <trkpt lat="42.42749" lon="0.02062">
        <ele>980.8</ele>
        <time>2016-07-31T08:14:56Z</time>
      </trkpt>
      <trkpt lat="42.42748" lon="0.02058">
        <ele>981.1</ele>
        <time>2016-07-31T08:14:57Z</time>
      </trkpt>
      <trkpt lat="42.42745" lon="0.02052">
        <ele>981.3</ele>
        <time>2016-07-31T08:14:59Z</time>
      </trkpt>
      <trkpt lat="42.42744" lon="0.0205">
        <ele>981.3</ele>
        <time>2016-07-31T08:15:00Z</time>
      </trkpt>
      <trkpt lat="42.42742" lon="0.02047">
        <ele>981.2</ele>
        <time>2016-07-31T08:15:01Z</time>
      </trkpt>
      <trkpt lat="42.4274" lon="0.02044">
        <ele>981.1</ele>
        <time>2016-07-31T08:15:02Z</time>
      </trkpt>
      <trkpt lat="42.42738" lon="0.02041">
        <ele>981</ele>
        <time>2016-07-31T08:15:03Z</time>
      </trkpt>
      <trkpt lat="42.42735" lon="0.02038">
        <ele>981.3</ele>
        <time>2016-07-31T08:15:04Z</time>
      </trkpt>
      <trkpt lat="42.42733" lon="0.02035">
        <ele>981.6</ele>
        <time>2016-07-31T08:15:05Z</time>
      </trkpt>
      <trkpt lat="42.42731" lon="0.02032">
        <ele>981.9</ele>
        <time>2016-07-31T08:15:06Z</time>
      </trkpt>
      <trkpt lat="42.42729" lon="0.0203">
        <ele>982.1</ele>
        <time>2016-07-31T08:15:07Z</time>
      </trkpt>
      <trkpt lat="42.42727" lon="0.02027">
        <ele>982.2</ele>
        <time>2016-07-31T08:15:08Z</time>
      </trkpt>
      <trkpt lat="42.42725" lon="0.02024">
        <ele>982.4</ele>
        <time>2016-07-31T08:15:09Z</time>
      </trkpt>
      <trkpt lat="42.42723" lon="0.02021">
        <ele>982.7</ele>
        <time>2016-07-31T08:15:10Z</time>
      </trkpt>
      <trkpt lat="42.42721" lon="0.02018">
        <ele>983</ele>
        <time>2016-07-31T08:15:11Z</time>
      </trkpt>
      <trkpt lat="42.42719" lon="0.02015">
        <ele>983.3</ele>
        <time>2016-07-31T08:15:12Z</time>
      </trkpt>
      <trkpt lat="42.42717" lon="0.02012">
        <ele>983.5</ele>
        <time>2016-07-31T08:15:13Z</time>
      </trkpt>
      <trkpt lat="42.42714" lon="0.02006">
        <ele>984</ele>
        <time>2016-07-31T08:15:15Z</time>
      </trkpt>
      <trkpt lat="42.42712" lon="0.02003">
        <ele>984.1</ele>
        <time>2016-07-31T08:15:16Z</time>
      </trkpt>
      <trkpt lat="42.4271" lon="0.02">
        <ele>984.3</ele>
        <time>2016-07-31T08:15:17Z</time>
      </trkpt>
      <trkpt lat="42.42708" lon="0.01997">
        <ele>984.5</ele>
        <time>2016-07-31T08:15:18Z</time>
      </trkpt>
      <trkpt lat="42.42706" lon="0.01994">
        <ele>985.1</ele>
        <time>2016-07-31T08:15:19Z</time>
      </trkpt>
      <trkpt lat="42.42704" lon="0.01991">
        <ele>985.7</ele>
        <time>2016-07-31T08:15:20Z</time>
      </trkpt>
      <trkpt lat="42.42702" lon="0.01988">
        <ele>986.2</ele>
        <time>2016-07-31T08:15:21Z</time>
      </trkpt>
      <trkpt lat="42.427" lon="0.01985">
        <ele>986.7</ele>
        <time>2016-07-31T08:15:22Z</time>
      </trkpt>
      <trkpt lat="42.42698" lon="0.01981">
        <ele>987.1</ele>
        <time>2016-07-31T08:15:23Z</time>
      </trkpt>
      <trkpt lat="42.42696" lon="0.01978">
        <ele>987.4</ele>
        <time>2016-07-31T08:15:24Z</time>
      </trkpt>
      <trkpt lat="42.42694" lon="0.01975">
        <ele>987.7</ele>
        <time>2016-07-31T08:15:25Z</time>
      </trkpt>
      <trkpt lat="42.42692" lon="0.01972">
        <ele>987.9</ele>
        <time>2016-07-31T08:15:26Z</time>
      </trkpt>
      <trkpt lat="42.42689" lon="0.01969">
        <ele>988</ele>
        <time>2016-07-31T08:15:27Z</time>
      </trkpt>
      <trkpt lat="42.42687" lon="0.01966">
        <ele>988.1</ele>
        <time>2016-07-31T08:15:28Z</time>
      </trkpt>
      <trkpt lat="42.42684" lon="0.01963">
        <ele>988</ele>
        <time>2016-07-31T08:15:29Z</time>
      </trkpt>
      <trkpt lat="42.42681" lon="0.0196">
        <ele>987.9</ele>
        <time>2016-07-31T08:15:30Z</time>
      </trkpt>
      <trkpt lat="42.42678" lon="0.01958">
        <ele>987.6</ele>
        <time>2016-07-31T08:15:31Z</time>
      </trkpt>
      <trkpt lat="42.42675" lon="0.01955">
        <ele>987.5</ele>
        <time>2016-07-31T08:15:32Z</time>
      </trkpt>
      <trkpt lat="42.42672" lon="0.01952">
        <ele>987.4</ele>
        <time>2016-07-31T08:15:33Z</time>
      </trkpt>
      <trkpt lat="42.42669" lon="0.01949">
        <ele>987.3</ele>
        <time>2016-07-31T08:15:34Z</time>
      </trkpt>
      <trkpt lat="42.42666" lon="0.01947">
        <ele>987</ele>
        <time>2016-07-31T08:15:35Z</time>
      </trkpt>
      <trkpt lat="42.42662" lon="0.01945">
        <ele>986.8</ele>
        <time>2016-07-31T08:15:36Z</time>
      </trkpt>
      <trkpt lat="42.42659" lon="0.01943">
        <ele>986.6</ele>
        <time>2016-07-31T08:15:37Z</time>
      </trkpt>
      <trkpt lat="42.42655" lon="0.01941">
        <ele>986.3</ele>
        <time>2016-07-31T08:15:38Z</time>
      </trkpt>
      <trkpt lat="42.42652" lon="0.0194">
        <ele>985.9</ele>
        <time>2016-07-31T08:15:39Z</time>
      </trkpt>
      <trkpt lat="42.42648" lon="0.01938">
        <ele>985.6</ele>
        <time>2016-07-31T08:15:40Z</time>
      </trkpt>
      <trkpt lat="42.42644" lon="0.01937">
        <ele>985.2</ele>
        <time>2016-07-31T08:15:41Z</time>
      </trkpt>
      <trkpt lat="42.4264" lon="0.01935">
        <ele>984.9</ele>
        <time>2016-07-31T08:15:42Z</time>
      </trkpt>
      <trkpt lat="42.42636" lon="0.01932">
        <ele>984.7</ele>
        <time>2016-07-31T08:15:43Z</time>
      </trkpt>
      <trkpt lat="42.42633" lon="0.01929">
        <ele>984.6</ele>
        <time>2016-07-31T08:15:44Z</time>
      </trkpt>
      <trkpt lat="42.4263" lon="0.01925">
        <ele>984.6</ele>
        <time>2016-07-31T08:15:45Z</time>
      </trkpt>
      <trkpt lat="42.42627" lon="0.01922">
        <ele>984.6</ele>
        <time>2016-07-31T08:15:46Z</time>
      </trkpt>
      <trkpt lat="42.42624" lon="0.01919">
        <ele>984.9</ele>
        <time>2016-07-31T08:15:47Z</time>
      </trkpt>
      <trkpt lat="42.42621" lon="0.01916">
        <ele>985.5</ele>
        <time>2016-07-31T08:15:48Z</time>
      </trkpt>
      <trkpt lat="42.42618" lon="0.01912">
        <ele>986</ele>
        <time>2016-07-31T08:15:49Z</time>
      </trkpt>
      <trkpt lat="42.42615" lon="0.01909">
        <ele>986.5</ele>
        <time>2016-07-31T08:15:50Z</time>
      </trkpt>
      <trkpt lat="42.42612" lon="0.01906">
        <ele>987</ele>
        <time>2016-07-31T08:15:51Z</time>
      </trkpt>
      <trkpt lat="42.42609" lon="0.01903">
        <ele>987.5</ele>
        <time>2016-07-31T08:15:52Z</time>
      </trkpt>
      <trkpt lat="42.42606" lon="0.019">
        <ele>987.9</ele>
        <time>2016-07-31T08:15:53Z</time>
      </trkpt>
      <trkpt lat="42.42604" lon="0.01897">
        <ele>988.2</ele>
        <time>2016-07-31T08:15:54Z</time>
      </trkpt>
      <trkpt lat="42.42601" lon="0.01895">
        <ele>988.4</ele>
        <time>2016-07-31T08:15:55Z</time>
      </trkpt>
      <trkpt lat="42.42598" lon="0.01892">
        <ele>988.7</ele>
        <time>2016-07-31T08:15:56Z</time>
      </trkpt>
      <trkpt lat="42.42596" lon="0.01889">
        <ele>988.9</ele>
        <time>2016-07-31T08:15:57Z</time>
      </trkpt>
      <trkpt lat="42.42594" lon="0.01886">
        <ele>989.1</ele>
        <time>2016-07-31T08:15:58Z</time>
      </trkpt>
      <trkpt lat="42.42591" lon="0.01883">
        <ele>989.3</ele>
        <time>2016-07-31T08:15:59Z</time>
      </trkpt>
      <trkpt lat="42.42589" lon="0.01879">
        <ele>989.4</ele>
        <time>2016-07-31T08:16:00Z</time>
      </trkpt>
      <trkpt lat="42.42587" lon="0.01876">
        <ele>989.5</ele>
        <time>2016-07-31T08:16:01Z</time>
      </trkpt>
      <trkpt lat="42.42584" lon="0.01873">
        <ele>989.7</ele>
        <time>2016-07-31T08:16:02Z</time>
      </trkpt>
      <trkpt lat="42.42582" lon="0.0187">
        <ele>989.9</ele>
        <time>2016-07-31T08:16:03Z</time>
      </trkpt>
      <trkpt lat="42.4258" lon="0.01867">
        <ele>990.1</ele>
        <time>2016-07-31T08:16:04Z</time>
      </trkpt>
      <trkpt lat="42.42577" lon="0.01864">
        <ele>990.3</ele>
        <time>2016-07-31T08:16:05Z</time>
      </trkpt>
      <trkpt lat="42.42574" lon="0.01862">
        <ele>990.4</ele>
        <time>2016-07-31T08:16:06Z</time>
      </trkpt>
      <trkpt lat="42.42571" lon="0.01859">
        <ele>990.5</ele>
        <time>2016-07-31T08:16:07Z</time>
      </trkpt>
      <trkpt lat="42.42569" lon="0.01858">
        <ele>990.6</ele>
        <time>2016-07-31T08:16:08Z</time>
      </trkpt>
      <trkpt lat="42.42566" lon="0.01856">
        <ele>990.6</ele>
        <time>2016-07-31T08:16:09Z</time>
      </trkpt>
      <trkpt lat="42.42563" lon="0.01854">
        <ele>990.7</ele>
        <time>2016-07-31T08:16:10Z</time>
      </trkpt>
      <trkpt lat="42.4256" lon="0.01852">
        <ele>990.7</ele>
        <time>2016-07-31T08:16:11Z</time>
      </trkpt>
      <trkpt lat="42.42557" lon="0.01849">
        <ele>990.8</ele>
        <time>2016-07-31T08:16:12Z</time>
      </trkpt>
      <trkpt lat="42.42555" lon="0.01847">
        <ele>990.8</ele>
        <time>2016-07-31T08:16:13Z</time>
      </trkpt>
      <trkpt lat="42.42553" lon="0.01845">
        <ele>990.9</ele>
        <time>2016-07-31T08:16:14Z</time>
      </trkpt>
      <trkpt lat="42.4255" lon="0.01843">
        <ele>990.9</ele>
        <time>2016-07-31T08:16:15Z</time>
      </trkpt>
      <trkpt lat="42.42548" lon="0.01841">
        <ele>990.9</ele>
        <time>2016-07-31T08:16:16Z</time>
      </trkpt>
      <trkpt lat="42.42545" lon="0.01838">
        <ele>990.9</ele>
        <time>2016-07-31T08:16:17Z</time>
      </trkpt>
      <trkpt lat="42.42543" lon="0.01836">
        <ele>990.9</ele>
        <time>2016-07-31T08:16:18Z</time>
      </trkpt>
      <trkpt lat="42.42539" lon="0.01832">
        <ele>992.1</ele>
        <time>2016-07-31T08:16:20Z</time>
      </trkpt>
      <trkpt lat="42.42535" lon="0.01826">
        <ele>993.5</ele>
        <time>2016-07-31T08:16:22Z</time>
      </trkpt>
      <trkpt lat="42.42534" lon="0.01823">
        <ele>994.2</ele>
        <time>2016-07-31T08:16:23Z</time>
      </trkpt>
      <trkpt lat="42.42533" lon="0.01819">
        <ele>994.8</ele>
        <time>2016-07-31T08:16:24Z</time>
      </trkpt>
      <trkpt lat="42.42532" lon="0.01816">
        <ele>995.4</ele>
        <time>2016-07-31T08:16:25Z</time>
      </trkpt>
      <trkpt lat="42.42531" lon="0.01812">
        <ele>996</ele>
        <time>2016-07-31T08:16:26Z</time>
      </trkpt>
      <trkpt lat="42.4253" lon="0.01808">
        <ele>996.7</ele>
        <time>2016-07-31T08:16:27Z</time>
      </trkpt>
      <trkpt lat="42.42529" lon="0.01803">
        <ele>997.3</ele>
        <time>2016-07-31T08:16:28Z</time>
      </trkpt>
      <trkpt lat="42.42529" lon="0.01799">
        <ele>997.7</ele>
        <time>2016-07-31T08:16:29Z</time>
      </trkpt>
      <trkpt lat="42.42529" lon="0.01794">
        <ele>998</ele>
        <time>2016-07-31T08:16:30Z</time>
      </trkpt>
      <trkpt lat="42.42529" lon="0.01789">
        <ele>998.2</ele>
        <time>2016-07-31T08:16:31Z</time>
      </trkpt>
      <trkpt lat="42.4253" lon="0.01784">
        <ele>998.3</ele>
        <time>2016-07-31T08:16:32Z</time>
      </trkpt>
      <trkpt lat="42.4253" lon="0.01779">
        <ele>998.4</ele>
        <time>2016-07-31T08:16:33Z</time>
      </trkpt>
      <trkpt lat="42.42531" lon="0.01774">
        <ele>998.5</ele>
        <time>2016-07-31T08:16:34Z</time>
      </trkpt>
      <trkpt lat="42.42532" lon="0.01769">
        <ele>998.6</ele>
        <time>2016-07-31T08:16:35Z</time>
      </trkpt>
      <trkpt lat="42.42532" lon="0.01765">
        <ele>998.6</ele>
        <time>2016-07-31T08:16:36Z</time>
      </trkpt>
      <trkpt lat="42.42533" lon="0.0176">
        <ele>998.7</ele>
        <time>2016-07-31T08:16:37Z</time>
      </trkpt>
      <trkpt lat="42.42533" lon="0.01756">
        <ele>998.8</ele>
        <time>2016-07-31T08:16:38Z</time>
      </trkpt>
      <trkpt lat="42.42534" lon="0.01751">
        <ele>999</ele>
        <time>2016-07-31T08:16:39Z</time>
      </trkpt>
      <trkpt lat="42.42534" lon="0.01746">
        <ele>999.2</ele>
        <time>2016-07-31T08:16:40Z</time>
      </trkpt>
      <trkpt lat="42.42534" lon="0.01742">
        <ele>999.5</ele>
        <time>2016-07-31T08:16:41Z</time>
      </trkpt>
      <trkpt lat="42.42534" lon="0.01737">
        <ele>999.8</ele>
        <time>2016-07-31T08:16:42Z</time>
      </trkpt>
      <trkpt lat="42.42534" lon="0.01732">
        <ele>1000.1</ele>
        <time>2016-07-31T08:16:43Z</time>
      </trkpt>
      <trkpt lat="42.42534" lon="0.01728">
        <ele>1000.4</ele>
        <time>2016-07-31T08:16:44Z</time>
      </trkpt>
      <trkpt lat="42.42534" lon="0.01723">
        <ele>1000.7</ele>
        <time>2016-07-31T08:16:45Z</time>
      </trkpt>
      <trkpt lat="42.42534" lon="0.01719">
        <ele>1001</ele>
        <time>2016-07-31T08:16:46Z</time>
      </trkpt>
      <trkpt lat="42.42534" lon="0.01714">
        <ele>1001.3</ele>
        <time>2016-07-31T08:16:47Z</time>
      </trkpt>
      <trkpt lat="42.42534" lon="0.0171">
        <ele>1001.6</ele>
        <time>2016-07-31T08:16:48Z</time>
      </trkpt>
      <trkpt lat="42.42535" lon="0.01705">
        <ele>1001.7</ele>
        <time>2016-07-31T08:16:49Z</time>
      </trkpt>
      <trkpt lat="42.42535" lon="0.01701">
        <ele>1001.7</ele>
        <time>2016-07-31T08:16:50Z</time>
      </trkpt>
      <trkpt lat="42.42535" lon="0.01696">
        <ele>1001.8</ele>
        <time>2016-07-31T08:16:51Z</time>
      </trkpt>
      <trkpt lat="42.42534" lon="0.01692">
        <ele>1001.9</ele>
        <time>2016-07-31T08:16:52Z</time>
      </trkpt>
      <trkpt lat="42.42535" lon="0.01688">
        <ele>1001.9</ele>
        <time>2016-07-31T08:16:53Z</time>
      </trkpt>
      <trkpt lat="42.42535" lon="0.01684">
        <ele>1001.9</ele>
        <time>2016-07-31T08:16:54Z</time>
      </trkpt>
      <trkpt lat="42.42535" lon="0.0168">
        <ele>1001.8</ele>
        <time>2016-07-31T08:16:55Z</time>
      </trkpt>
      <trkpt lat="42.42536" lon="0.01675">
        <ele>1001.6</ele>
        <time>2016-07-31T08:16:56Z</time>
      </trkpt>
      <trkpt lat="42.42536" lon="0.01671">
        <ele>1001.4</ele>
        <time>2016-07-31T08:16:57Z</time>
      </trkpt>
      <trkpt lat="42.42536" lon="0.01667">
        <ele>1001.4</ele>
        <time>2016-07-31T08:16:58Z</time>
      </trkpt>
      <trkpt lat="42.42536" lon="0.01663">
        <ele>1001.5</ele>
        <time>2016-07-31T08:16:59Z</time>
      </trkpt>
      <trkpt lat="42.42536" lon="0.01658">
        <ele>1001.6</ele>
        <time>2016-07-31T08:17:00Z</time>
      </trkpt>
      <trkpt lat="42.42536" lon="0.01654">
        <ele>1001.7</ele>
        <time>2016-07-31T08:17:01Z</time>
      </trkpt>
      <trkpt lat="42.42536" lon="0.0165">
        <ele>1001.8</ele>
        <time>2016-07-31T08:17:02Z</time>
      </trkpt>
      <trkpt lat="42.42536" lon="0.01645">
        <ele>1001.9</ele>
        <time>2016-07-31T08:17:03Z</time>
      </trkpt>
      <trkpt lat="42.42536" lon="0.01641">
        <ele>1001.9</ele>
        <time>2016-07-31T08:17:04Z</time>
      </trkpt>
      <trkpt lat="42.42536" lon="0.01636">
        <ele>1001.9</ele>
        <time>2016-07-31T08:17:05Z</time>
      </trkpt>
      <trkpt lat="42.42536" lon="0.01632">
        <ele>1002</ele>
        <time>2016-07-31T08:17:06Z</time>
      </trkpt>
      <trkpt lat="42.42536" lon="0.01627">
        <ele>1002</ele>
        <time>2016-07-31T08:17:07Z</time>
      </trkpt>
      <trkpt lat="42.42536" lon="0.01623">
        <ele>1001.9</ele>
        <time>2016-07-31T08:17:08Z</time>
      </trkpt>
      <trkpt lat="42.42536" lon="0.01618">
        <ele>1001.6</ele>
        <time>2016-07-31T08:17:09Z</time>
      </trkpt>
      <trkpt lat="42.42536" lon="0.01614">
        <ele>1001.3</ele>
        <time>2016-07-31T08:17:10Z</time>
      </trkpt>
      <trkpt lat="42.42536" lon="0.01609">
        <ele>1001</ele>
        <time>2016-07-31T08:17:11Z</time>
      </trkpt>
      <trkpt lat="42.42536" lon="0.01605">
        <ele>1000.6</ele>
        <time>2016-07-31T08:17:12Z</time>
      </trkpt>
      <trkpt lat="42.42537" lon="0.016">
        <ele>1000.3</ele>
        <time>2016-07-31T08:17:13Z</time>
      </trkpt>
      <trkpt lat="42.42537" lon="0.01596">
        <ele>999.9</ele>
        <time>2016-07-31T08:17:14Z</time>
      </trkpt>
      <trkpt lat="42.42537" lon="0.01592">
        <ele>999.5</ele>
        <time>2016-07-31T08:17:15Z</time>
      </trkpt>
      <trkpt lat="42.42537" lon="0.01587">
        <ele>999.1</ele>
        <time>2016-07-31T08:17:16Z</time>
      </trkpt>
      <trkpt lat="42.42538" lon="0.01583">
        <ele>998.7</ele>
        <time>2016-07-31T08:17:17Z</time>
      </trkpt>
      <trkpt lat="42.42538" lon="0.01579">
        <ele>998.4</ele>
        <time>2016-07-31T08:17:18Z</time>
      </trkpt>
      <trkpt lat="42.42538" lon="0.01575">
        <ele>998.2</ele>
        <time>2016-07-31T08:17:19Z</time>
      </trkpt>
      <trkpt lat="42.42538" lon="0.0157">
        <ele>997.8</ele>
        <time>2016-07-31T08:17:20Z</time>
      </trkpt>
      <trkpt lat="42.42538" lon="0.01566">
        <ele>997.5</ele>
        <time>2016-07-31T08:17:21Z</time>
      </trkpt>
      <trkpt lat="42.42538" lon="0.01561">
        <ele>997.1</ele>
        <time>2016-07-31T08:17:22Z</time>
      </trkpt>
      <trkpt lat="42.42538" lon="0.01557">
        <ele>996.8</ele>
        <time>2016-07-31T08:17:23Z</time>
      </trkpt>
      <trkpt lat="42.42538" lon="0.01552">
        <ele>996.5</ele>
        <time>2016-07-31T08:17:24Z</time>
      </trkpt>
      <trkpt lat="42.42538" lon="0.01547">
        <ele>996.2</ele>
        <time>2016-07-31T08:17:25Z</time>
      </trkpt>
      <trkpt lat="42.42538" lon="0.01543">
        <ele>995.9</ele>
        <time>2016-07-31T08:17:26Z</time>
      </trkpt>
      <trkpt lat="42.42538" lon="0.01539">
        <ele>996</ele>
        <time>2016-07-31T08:17:27Z</time>
      </trkpt>
      <trkpt lat="42.42538" lon="0.01534">
        <ele>996.3</ele>
        <time>2016-07-31T08:17:28Z</time>
      </trkpt>
      <trkpt lat="42.42538" lon="0.0153">
        <ele>996.6</ele>
        <time>2016-07-31T08:17:29Z</time>
      </trkpt>
      <trkpt lat="42.42537" lon="0.01526">
        <ele>997</ele>
        <time>2016-07-31T08:17:30Z</time>
      </trkpt>
      <trkpt lat="42.42536" lon="0.01522">
        <ele>997.4</ele>
        <time>2016-07-31T08:17:31Z</time>
      </trkpt>
      <trkpt lat="42.42535" lon="0.01518">
        <ele>997.9</ele>
        <time>2016-07-31T08:17:32Z</time>
      </trkpt>
      <trkpt lat="42.42533" lon="0.01514">
        <ele>998.4</ele>
        <time>2016-07-31T08:17:33Z</time>
      </trkpt>
      <trkpt lat="42.42532" lon="0.01511">
        <ele>998.8</ele>
        <time>2016-07-31T08:17:34Z</time>
      </trkpt>
      <trkpt lat="42.4253" lon="0.01507">
        <ele>999.3</ele>
        <time>2016-07-31T08:17:35Z</time>
      </trkpt>
      <trkpt lat="42.42528" lon="0.01503">
        <ele>999.8</ele>
        <time>2016-07-31T08:17:36Z</time>
      </trkpt>
      <trkpt lat="42.42526" lon="0.01499">
        <ele>1000.2</ele>
        <time>2016-07-31T08:17:37Z</time>
      </trkpt>
      <trkpt lat="42.42525" lon="0.01495">
        <ele>1000.6</ele>
        <time>2016-07-31T08:17:38Z</time>
      </trkpt>
      <trkpt lat="42.42523" lon="0.01491">
        <ele>1001</ele>
        <time>2016-07-31T08:17:39Z</time>
      </trkpt>
      <trkpt lat="42.42521" lon="0.01487">
        <ele>1001.3</ele>
        <time>2016-07-31T08:17:40Z</time>
      </trkpt>
      <trkpt lat="42.42519" lon="0.01484">
        <ele>1001.7</ele>
        <time>2016-07-31T08:17:41Z</time>
      </trkpt>
      <trkpt lat="42.42518" lon="0.01481">
        <ele>1002</ele>
        <time>2016-07-31T08:17:42Z</time>
      </trkpt>
      <trkpt lat="42.42516" lon="0.01478">
        <ele>1002.3</ele>
        <time>2016-07-31T08:17:43Z</time>
      </trkpt>
      <trkpt lat="42.42514" lon="0.01474">
        <ele>1002.5</ele>
        <time>2016-07-31T08:17:44Z</time>
      </trkpt>
      <trkpt lat="42.42512" lon="0.0147">
        <ele>1002.8</ele>
        <time>2016-07-31T08:17:45Z</time>
      </trkpt>
      <trkpt lat="42.42511" lon="0.01467">
        <ele>1003</ele>
        <time>2016-07-31T08:17:46Z</time>
      </trkpt>
      <trkpt lat="42.42509" lon="0.01463">
        <ele>1003.2</ele>
        <time>2016-07-31T08:17:47Z</time>
      </trkpt>
      <trkpt lat="42.42507" lon="0.01459">
        <ele>1003.3</ele>
        <time>2016-07-31T08:17:48Z</time>
      </trkpt>
      <trkpt lat="42.42505" lon="0.01456">
        <ele>1003.7</ele>
        <time>2016-07-31T08:17:49Z</time>
      </trkpt>
      <trkpt lat="42.42503" lon="0.01453">
        <ele>1004.2</ele>
        <time>2016-07-31T08:17:50Z</time>
      </trkpt>
      <trkpt lat="42.42501" lon="0.0145">
        <ele>1004.6</ele>
        <time>2016-07-31T08:17:51Z</time>
      </trkpt>
      <trkpt lat="42.42499" lon="0.01447">
        <ele>1005.1</ele>
        <time>2016-07-31T08:17:52Z</time>
      </trkpt>
      <trkpt lat="42.42497" lon="0.01443">
        <ele>1005.5</ele>
        <time>2016-07-31T08:17:53Z</time>
      </trkpt>
      <trkpt lat="42.42496" lon="0.0144">
        <ele>1005.9</ele>
        <time>2016-07-31T08:17:54Z</time>
      </trkpt>
      <trkpt lat="42.42494" lon="0.01437">
        <ele>1006.4</ele>
        <time>2016-07-31T08:17:55Z</time>
      </trkpt>
      <trkpt lat="42.42493" lon="0.01433">
        <ele>1006.8</ele>
        <time>2016-07-31T08:17:56Z</time>
      </trkpt>
      <trkpt lat="42.42492" lon="0.01429">
        <ele>1007.2</ele>
        <time>2016-07-31T08:17:57Z</time>
      </trkpt>
      <trkpt lat="42.42491" lon="0.01426">
        <ele>1007.6</ele>
        <time>2016-07-31T08:17:58Z</time>
      </trkpt>
      <trkpt lat="42.4249" lon="0.01421">
        <ele>1008.1</ele>
        <time>2016-07-31T08:17:59Z</time>
      </trkpt>
      <trkpt lat="42.42489" lon="0.01417">
        <ele>1008.5</ele>
        <time>2016-07-31T08:18:00Z</time>
      </trkpt>
      <trkpt lat="42.42488" lon="0.01413">
        <ele>1008.9</ele>
        <time>2016-07-31T08:18:01Z</time>
      </trkpt>
      <trkpt lat="42.42488" lon="0.01409">
        <ele>1009.3</ele>
        <time>2016-07-31T08:18:02Z</time>
      </trkpt>
      <trkpt lat="42.42488" lon="0.01404">
        <ele>1009.7</ele>
        <time>2016-07-31T08:18:03Z</time>
      </trkpt>
      <trkpt lat="42.42488" lon="0.01399">
        <ele>1010.1</ele>
        <time>2016-07-31T08:18:04Z</time>
      </trkpt>
      <trkpt lat="42.42488" lon="0.01395">
        <ele>1010.5</ele>
        <time>2016-07-31T08:18:05Z</time>
      </trkpt>
      <trkpt lat="42.42488" lon="0.0139">
        <ele>1010.9</ele>
        <time>2016-07-31T08:18:06Z</time>
      </trkpt>
      <trkpt lat="42.42489" lon="0.01385">
        <ele>1011.2</ele>
        <time>2016-07-31T08:18:07Z</time>
      </trkpt>
      <trkpt lat="42.42489" lon="0.01381">
        <ele>1011.6</ele>
        <time>2016-07-31T08:18:08Z</time>
      </trkpt>
      <trkpt lat="42.4249" lon="0.01376">
        <ele>1011.9</ele>
        <time>2016-07-31T08:18:09Z</time>
      </trkpt>
      <trkpt lat="42.42491" lon="0.01372">
        <ele>1011.9</ele>
        <time>2016-07-31T08:18:10Z</time>
      </trkpt>
      <trkpt lat="42.42491" lon="0.01368">
        <ele>1012</ele>
        <time>2016-07-31T08:18:11Z</time>
      </trkpt>
      <trkpt lat="42.42491" lon="0.01363">
        <ele>1012</ele>
        <time>2016-07-31T08:18:12Z</time>
      </trkpt>
      <trkpt lat="42.42491" lon="0.01358">
        <ele>1012</ele>
        <time>2016-07-31T08:18:13Z</time>
      </trkpt>
      <trkpt lat="42.42491" lon="0.01353">
        <ele>1012.1</ele>
        <time>2016-07-31T08:18:14Z</time>
      </trkpt>
      <trkpt lat="42.42491" lon="0.01349">
        <ele>1012.1</ele>
        <time>2016-07-31T08:18:15Z</time>
      </trkpt>
      <trkpt lat="42.42491" lon="0.01344">
        <ele>1012.2</ele>
        <time>2016-07-31T08:18:16Z</time>
      </trkpt>
      <trkpt lat="42.42491" lon="0.0134">
        <ele>1012.3</ele>
        <time>2016-07-31T08:18:17Z</time>
      </trkpt>
      <trkpt lat="42.42491" lon="0.01336">
        <ele>1012.3</ele>
        <time>2016-07-31T08:18:18Z</time>
      </trkpt>
      <trkpt lat="42.42491" lon="0.01331">
        <ele>1012.3</ele>
        <time>2016-07-31T08:18:19Z</time>
      </trkpt>
      <trkpt lat="42.42491" lon="0.01327">
        <ele>1012.4</ele>
        <time>2016-07-31T08:18:20Z</time>
      </trkpt>
      <trkpt lat="42.42491" lon="0.01323">
        <ele>1012.4</ele>
        <time>2016-07-31T08:18:21Z</time>
      </trkpt>
      <trkpt lat="42.42491" lon="0.0132">
        <ele>1012.5</ele>
        <time>2016-07-31T08:18:22Z</time>
      </trkpt>
      <trkpt lat="42.42491" lon="0.01316">
        <ele>1012.5</ele>
        <time>2016-07-31T08:18:23Z</time>
      </trkpt>
      <trkpt lat="42.42491" lon="0.01312">
        <ele>1012.6</ele>
        <time>2016-07-31T08:18:24Z</time>
      </trkpt>
      <trkpt lat="42.42491" lon="0.01308">
        <ele>1012.6</ele>
        <time>2016-07-31T08:18:25Z</time>
      </trkpt>
      <trkpt lat="42.42491" lon="0.01304">
        <ele>1012.7</ele>
        <time>2016-07-31T08:18:26Z</time>
      </trkpt>
      <trkpt lat="42.4249" lon="0.013">
        <ele>1012.8</ele>
        <time>2016-07-31T08:18:27Z</time>
      </trkpt>
      <trkpt lat="42.42489" lon="0.01297">
        <ele>1012.8</ele>
        <time>2016-07-31T08:18:28Z</time>
      </trkpt>
      <trkpt lat="42.42488" lon="0.01293">
        <ele>1012.9</ele>
        <time>2016-07-31T08:18:29Z</time>
      </trkpt>
      <trkpt lat="42.42487" lon="0.0129">
        <ele>1013.1</ele>
        <time>2016-07-31T08:18:30Z</time>
      </trkpt>
      <trkpt lat="42.42485" lon="0.01286">
        <ele>1013.2</ele>
        <time>2016-07-31T08:18:31Z</time>
      </trkpt>
      <trkpt lat="42.42484" lon="0.01283">
        <ele>1013.4</ele>
        <time>2016-07-31T08:18:32Z</time>
      </trkpt>
      <trkpt lat="42.42482" lon="0.0128">
        <ele>1013.5</ele>
        <time>2016-07-31T08:18:33Z</time>
      </trkpt>
      <trkpt lat="42.4248" lon="0.01277">
        <ele>1013.7</ele>
        <time>2016-07-31T08:18:34Z</time>
      </trkpt>
      <trkpt lat="42.42478" lon="0.01275">
        <ele>1013.8</ele>
        <time>2016-07-31T08:18:35Z</time>
      </trkpt>
      <trkpt lat="42.42476" lon="0.01272">
        <ele>1013.9</ele>
        <time>2016-07-31T08:18:36Z</time>
      </trkpt>
      <trkpt lat="42.42473" lon="0.0127">
        <ele>1013.9</ele>
        <time>2016-07-31T08:18:37Z</time>
      </trkpt>
      <trkpt lat="42.4247" lon="0.01268">
        <ele>1014</ele>
        <time>2016-07-31T08:18:38Z</time>
      </trkpt>
      <trkpt lat="42.42467" lon="0.01266">
        <ele>1014</ele>
        <time>2016-07-31T08:18:39Z</time>
      </trkpt>
      <trkpt lat="42.42464" lon="0.01264">
        <ele>1014</ele>
        <time>2016-07-31T08:18:40Z</time>
      </trkpt>
      <trkpt lat="42.4246" lon="0.01263">
        <ele>1014</ele>
        <time>2016-07-31T08:18:41Z</time>
      </trkpt>
      <trkpt lat="42.42457" lon="0.01263">
        <ele>1014.3</ele>
        <time>2016-07-31T08:18:42Z</time>
      </trkpt>
      <trkpt lat="42.42454" lon="0.01263">
        <ele>1015.1</ele>
        <time>2016-07-31T08:18:43Z</time>
      </trkpt>
      <trkpt lat="42.42451" lon="0.01264">
        <ele>1016</ele>
        <time>2016-07-31T08:18:44Z</time>
      </trkpt>
      <trkpt lat="42.42448" lon="0.01265">
        <ele>1016.7</ele>
        <time>2016-07-31T08:18:45Z</time>
      </trkpt>
      <trkpt lat="42.42445" lon="0.01267">
        <ele>1017.5</ele>
        <time>2016-07-31T08:18:46Z</time>
      </trkpt>
      <trkpt lat="42.42442" lon="0.0127">
        <ele>1018.3</ele>
        <time>2016-07-31T08:18:47Z</time>
      </trkpt>
      <trkpt lat="42.42439" lon="0.01272">
        <ele>1019</ele>
        <time>2016-07-31T08:18:48Z</time>
      </trkpt>
      <trkpt lat="42.42437" lon="0.01275">
        <ele>1019.7</ele>
        <time>2016-07-31T08:18:49Z</time>
      </trkpt>
      <trkpt lat="42.42434" lon="0.01279">
        <ele>1020.4</ele>
        <time>2016-07-31T08:18:50Z</time>
      </trkpt>
      <trkpt lat="42.42432" lon="0.01282">
        <ele>1021</ele>
        <time>2016-07-31T08:18:51Z</time>
      </trkpt>
      <trkpt lat="42.42431" lon="0.01286">
        <ele>1021.5</ele>
        <time>2016-07-31T08:18:52Z</time>
      </trkpt>
      <trkpt lat="42.42429" lon="0.0129">
        <ele>1022</ele>
        <time>2016-07-31T08:18:53Z</time>
      </trkpt>
      <trkpt lat="42.42428" lon="0.01294">
        <ele>1022.2</ele>
        <time>2016-07-31T08:18:54Z</time>
      </trkpt>
      <trkpt lat="42.42428" lon="0.01297">
        <ele>1022.3</ele>
        <time>2016-07-31T08:18:55Z</time>
      </trkpt>
      <trkpt lat="42.42427" lon="0.01301">
        <ele>1022.4</ele>
        <time>2016-07-31T08:18:56Z</time>
      </trkpt>
      <trkpt lat="42.42426" lon="0.01304">
        <ele>1022.4</ele>
        <time>2016-07-31T08:18:57Z</time>
      </trkpt>
      <trkpt lat="42.42426" lon="0.01308">
        <ele>1022.4</ele>
        <time>2016-07-31T08:18:58Z</time>
      </trkpt>
      <trkpt lat="42.42426" lon="0.01312">
        <ele>1022.2</ele>
        <time>2016-07-31T08:18:59Z</time>
      </trkpt>
      <trkpt lat="42.42426" lon="0.01316">
        <ele>1022.1</ele>
        <time>2016-07-31T08:19:00Z</time>
      </trkpt>
      <trkpt lat="42.42426" lon="0.0132">
        <ele>1021.9</ele>
        <time>2016-07-31T08:19:01Z</time>
      </trkpt>
      <trkpt lat="42.42426" lon="0.01324">
        <ele>1021.8</ele>
        <time>2016-07-31T08:19:02Z</time>
      </trkpt>
      <trkpt lat="42.42426" lon="0.01331">
        <ele>1021.5</ele>
        <time>2016-07-31T08:19:04Z</time>
      </trkpt>
      <trkpt lat="42.42426" lon="0.01335">
        <ele>1021.4</ele>
        <time>2016-07-31T08:19:05Z</time>
      </trkpt>
      <trkpt lat="42.42426" lon="0.01342">
        <ele>1021.3</ele>
        <time>2016-07-31T08:19:07Z</time>
      </trkpt>
      <trkpt lat="42.42424" lon="0.01349">
        <ele>1021.3</ele>
        <time>2016-07-31T08:19:09Z</time>
      </trkpt>
      <trkpt lat="42.42423" lon="0.01352">
        <ele>1021.4</ele>
        <time>2016-07-31T08:19:10Z</time>
      </trkpt>
      <trkpt lat="42.42421" lon="0.01355">
        <ele>1021.6</ele>
        <time>2016-07-31T08:19:11Z</time>
      </trkpt>
      <trkpt lat="42.42419" lon="0.01358">
        <ele>1021.8</ele>
        <time>2016-07-31T08:19:12Z</time>
      </trkpt>
      <trkpt lat="42.42417" lon="0.01361">
        <ele>1022</ele>
        <time>2016-07-31T08:19:13Z</time>
      </trkpt>
      <trkpt lat="42.42415" lon="0.01364">
        <ele>1022.3</ele>
        <time>2016-07-31T08:19:14Z</time>
      </trkpt>
      <trkpt lat="42.42413" lon="0.01366">
        <ele>1022.5</ele>
        <time>2016-07-31T08:19:15Z</time>
      </trkpt>
      <trkpt lat="42.42411" lon="0.01368">
        <ele>1022.8</ele>
        <time>2016-07-31T08:19:16Z</time>
      </trkpt>
      <trkpt lat="42.42408" lon="0.0137">
        <ele>1023.1</ele>
        <time>2016-07-31T08:19:17Z</time>
      </trkpt>
      <trkpt lat="42.42406" lon="0.01371">
        <ele>1023.5</ele>
        <time>2016-07-31T08:19:18Z</time>
      </trkpt>
      <trkpt lat="42.42403" lon="0.01372">
        <ele>1023.9</ele>
        <time>2016-07-31T08:19:19Z</time>
      </trkpt>
      <trkpt lat="42.424" lon="0.01374">
        <ele>1024.2</ele>
        <time>2016-07-31T08:19:20Z</time>
      </trkpt>
      <trkpt lat="42.42397" lon="0.01375">
        <ele>1024.6</ele>
        <time>2016-07-31T08:19:21Z</time>
      </trkpt>
      <trkpt lat="42.42394" lon="0.01376">
        <ele>1024.9</ele>
        <time>2016-07-31T08:19:22Z</time>
      </trkpt>
      <trkpt lat="42.42391" lon="0.01377">
        <ele>1025.3</ele>
        <time>2016-07-31T08:19:23Z</time>
      </trkpt>
      <trkpt lat="42.42388" lon="0.01378">
        <ele>1025.6</ele>
        <time>2016-07-31T08:19:24Z</time>
      </trkpt>
      <trkpt lat="42.42385" lon="0.01379">
        <ele>1025.9</ele>
        <time>2016-07-31T08:19:25Z</time>
      </trkpt>
      <trkpt lat="42.42382" lon="0.0138">
        <ele>1026.2</ele>
        <time>2016-07-31T08:19:26Z</time>
      </trkpt>
      <trkpt lat="42.42379" lon="0.01381">
        <ele>1026.6</ele>
        <time>2016-07-31T08:19:27Z</time>
      </trkpt>
      <trkpt lat="42.42376" lon="0.01381">
        <ele>1027</ele>
        <time>2016-07-31T08:19:28Z</time>
      </trkpt>
      <trkpt lat="42.42374" lon="0.01381">
        <ele>1027.3</ele>
        <time>2016-07-31T08:19:29Z</time>
      </trkpt>
      <trkpt lat="42.42368" lon="0.01379">
        <ele>1028.1</ele>
        <time>2016-07-31T08:19:31Z</time>
      </trkpt>
      <trkpt lat="42.42364" lon="0.01377">
        <ele>1028.8</ele>
        <time>2016-07-31T08:19:33Z</time>
      </trkpt>
      <trkpt lat="42.42359" lon="0.01374">
        <ele>1029.6</ele>
        <time>2016-07-31T08:19:35Z</time>
      </trkpt>
      <trkpt lat="42.42355" lon="0.01371">
        <ele>1030.3</ele>
        <time>2016-07-31T08:19:37Z</time>
      </trkpt>
      <trkpt lat="42.4235" lon="0.01368">
        <ele>1031.1</ele>
        <time>2016-07-31T08:19:39Z</time>
      </trkpt>
      <trkpt lat="42.42345" lon="0.01366">
        <ele>1031.7</ele>
        <time>2016-07-31T08:19:41Z</time>
      </trkpt>
      <trkpt lat="42.42341" lon="0.01365">
        <ele>1032.3</ele>
        <time>2016-07-31T08:19:43Z</time>
      </trkpt>
      <trkpt lat="42.42336" lon="0.01362">
        <ele>1032.9</ele>
        <time>2016-07-31T08:19:45Z</time>
      </trkpt>
      <trkpt lat="42.42333" lon="0.01359">
        <ele>1033.5</ele>
        <time>2016-07-31T08:19:47Z</time>
      </trkpt>
      <trkpt lat="42.42328" lon="0.01356">
        <ele>1034.1</ele>
        <time>2016-07-31T08:19:49Z</time>
      </trkpt>
      <trkpt lat="42.42324" lon="0.01353">
        <ele>1034.8</ele>
        <time>2016-07-31T08:19:51Z</time>
      </trkpt>
      <trkpt lat="42.4232" lon="0.01351">
        <ele>1035.3</ele>
        <time>2016-07-31T08:19:53Z</time>
      </trkpt>
      <trkpt lat="42.42315" lon="0.0135">
        <ele>1035.8</ele>
        <time>2016-07-31T08:19:55Z</time>
      </trkpt>
      <trkpt lat="42.4231" lon="0.01349">
        <ele>1036.3</ele>
        <time>2016-07-31T08:19:57Z</time>
      </trkpt>
      <trkpt lat="42.42306" lon="0.01349">
        <ele>1036.7</ele>
        <time>2016-07-31T08:19:59Z</time>
      </trkpt>
      <trkpt lat="42.42301" lon="0.01351">
        <ele>1036.9</ele>
        <time>2016-07-31T08:20:01Z</time>
      </trkpt>
      <trkpt lat="42.42296" lon="0.01353">
        <ele>1037.2</ele>
        <time>2016-07-31T08:20:03Z</time>
      </trkpt>
      <trkpt lat="42.42292" lon="0.01355">
        <ele>1037.5</ele>
        <time>2016-07-31T08:20:05Z</time>
      </trkpt>
      <trkpt lat="42.42287" lon="0.01357">
        <ele>1037.3</ele>
        <time>2016-07-31T08:20:07Z</time>
      </trkpt>
      <trkpt lat="42.42283" lon="0.01359">
        <ele>1037.2</ele>
        <time>2016-07-31T08:20:09Z</time>
      </trkpt>
      <trkpt lat="42.42278" lon="0.01362">
        <ele>1037</ele>
        <time>2016-07-31T08:20:11Z</time>
      </trkpt>
      <trkpt lat="42.42273" lon="0.01364">
        <ele>1036.9</ele>
        <time>2016-07-31T08:20:13Z</time>
      </trkpt>
      <trkpt lat="42.42268" lon="0.01366">
        <ele>1036.7</ele>
        <time>2016-07-31T08:20:15Z</time>
      </trkpt>
      <trkpt lat="42.42263" lon="0.01368">
        <ele>1036.6</ele>
        <time>2016-07-31T08:20:17Z</time>
      </trkpt>
      <trkpt lat="42.4226" lon="0.01368">
        <ele>1036.5</ele>
        <time>2016-07-31T08:20:18Z</time>
      </trkpt>
      <trkpt lat="42.42255" lon="0.01369">
        <ele>1036.4</ele>
        <time>2016-07-31T08:20:20Z</time>
      </trkpt>
      <trkpt lat="42.42251" lon="0.01371">
        <ele>1036.4</ele>
        <time>2016-07-31T08:20:22Z</time>
      </trkpt>
      <trkpt lat="42.42245" lon="0.01371">
        <ele>1036.3</ele>
        <time>2016-07-31T08:20:24Z</time>
      </trkpt>
      <trkpt lat="42.4224" lon="0.01372">
        <ele>1036.2</ele>
        <time>2016-07-31T08:20:26Z</time>
      </trkpt>
      <trkpt lat="42.42237" lon="0.01372">
        <ele>1036.2</ele>
        <time>2016-07-31T08:20:27Z</time>
      </trkpt>
      <trkpt lat="42.42232" lon="0.01373">
        <ele>1036.1</ele>
        <time>2016-07-31T08:20:29Z</time>
      </trkpt>
      <trkpt lat="42.42227" lon="0.01374">
        <ele>1036.1</ele>
        <time>2016-07-31T08:20:31Z</time>
      </trkpt>
      <trkpt lat="42.42222" lon="0.01374">
        <ele>1036.1</ele>
        <time>2016-07-31T08:20:33Z</time>
      </trkpt>
      <trkpt lat="42.42216" lon="0.01373">
        <ele>1036.1</ele>
        <time>2016-07-31T08:20:35Z</time>
      </trkpt>
      <trkpt lat="42.42214" lon="0.01373">
        <ele>1036.1</ele>
        <time>2016-07-31T08:20:36Z</time>
      </trkpt>
      <trkpt lat="42.42209" lon="0.01373">
        <ele>1036.2</ele>
        <time>2016-07-31T08:20:38Z</time>
      </trkpt>
      <trkpt lat="42.42204" lon="0.01372">
        <ele>1036.6</ele>
        <time>2016-07-31T08:20:40Z</time>
      </trkpt>
      <trkpt lat="42.422" lon="0.0137">
        <ele>1036.9</ele>
        <time>2016-07-31T08:20:42Z</time>
      </trkpt>
      <trkpt lat="42.42196" lon="0.01368">
        <ele>1037.3</ele>
        <time>2016-07-31T08:20:44Z</time>
      </trkpt>
      <trkpt lat="42.42191" lon="0.01367">
        <ele>1037.7</ele>
        <time>2016-07-31T08:20:46Z</time>
      </trkpt>
      <trkpt lat="42.42187" lon="0.01366">
        <ele>1038</ele>
        <time>2016-07-31T08:20:48Z</time>
      </trkpt>
      <trkpt lat="42.42182" lon="0.01367">
        <ele>1038.3</ele>
        <time>2016-07-31T08:20:50Z</time>
      </trkpt>
      <trkpt lat="42.42177" lon="0.01367">
        <ele>1038.6</ele>
        <time>2016-07-31T08:20:52Z</time>
      </trkpt>
      <trkpt lat="42.42173" lon="0.01367">
        <ele>1038.8</ele>
        <time>2016-07-31T08:20:54Z</time>
      </trkpt>
      <trkpt lat="42.42168" lon="0.01368">
        <ele>1039</ele>
        <time>2016-07-31T08:20:56Z</time>
      </trkpt>
      <trkpt lat="42.42164" lon="0.01368">
        <ele>1039.3</ele>
        <time>2016-07-31T08:20:58Z</time>
      </trkpt>
      <trkpt lat="42.42159" lon="0.01369">
        <ele>1039.4</ele>
        <time>2016-07-31T08:21:00Z</time>
      </trkpt>
      <trkpt lat="42.42155" lon="0.01371">
        <ele>1039.5</ele>
        <time>2016-07-31T08:21:02Z</time>
      </trkpt>
      <trkpt lat="42.42151" lon="0.01373">
        <ele>1039.7</ele>
        <time>2016-07-31T08:21:04Z</time>
      </trkpt>
      <trkpt lat="42.42146" lon="0.01375">
        <ele>1039.8</ele>
        <time>2016-07-31T08:21:06Z</time>
      </trkpt>
      <trkpt lat="42.42142" lon="0.01377">
        <ele>1040</ele>
        <time>2016-07-31T08:21:08Z</time>
      </trkpt>
      <trkpt lat="42.42137" lon="0.01379">
        <ele>1040.3</ele>
        <time>2016-07-31T08:21:10Z</time>
      </trkpt>
      <trkpt lat="42.42132" lon="0.01382">
        <ele>1040.6</ele>
        <time>2016-07-31T08:21:12Z</time>
      </trkpt>
      <trkpt lat="42.42127" lon="0.01384">
        <ele>1040.9</ele>
        <time>2016-07-31T08:21:14Z</time>
      </trkpt>
      <trkpt lat="42.42123" lon="0.01386">
        <ele>1041.1</ele>
        <time>2016-07-31T08:21:16Z</time>
      </trkpt>
      <trkpt lat="42.42119" lon="0.01388">
        <ele>1041.3</ele>
        <time>2016-07-31T08:21:18Z</time>
      </trkpt>
      <trkpt lat="42.42114" lon="0.0139">
        <ele>1041.6</ele>
        <time>2016-07-31T08:21:20Z</time>
      </trkpt>
      <trkpt lat="42.42109" lon="0.01392">
        <ele>1041.8</ele>
        <time>2016-07-31T08:21:22Z</time>
      </trkpt>
      <trkpt lat="42.42106" lon="0.01393">
        <ele>1042</ele>
        <time>2016-07-31T08:21:23Z</time>
      </trkpt>
      <trkpt lat="42.42104" lon="0.01395">
        <ele>1042.1</ele>
        <time>2016-07-31T08:21:24Z</time>
      </trkpt>
      <trkpt lat="42.42099" lon="0.01397">
        <ele>1042.3</ele>
        <time>2016-07-31T08:21:26Z</time>
      </trkpt>
      <trkpt lat="42.42094" lon="0.01399">
        <ele>1042.6</ele>
        <time>2016-07-31T08:21:28Z</time>
      </trkpt>
      <trkpt lat="42.4209" lon="0.01401">
        <ele>1042.8</ele>
        <time>2016-07-31T08:21:30Z</time>
      </trkpt>
      <trkpt lat="42.42085" lon="0.01401">
        <ele>1043.1</ele>
        <time>2016-07-31T08:21:32Z</time>
      </trkpt>
      <trkpt lat="42.4208" lon="0.014">
        <ele>1043.3</ele>
        <time>2016-07-31T08:21:34Z</time>
      </trkpt>
      <trkpt lat="42.42076" lon="0.014">
        <ele>1043.5</ele>
        <time>2016-07-31T08:21:36Z</time>
      </trkpt>
      <trkpt lat="42.42072" lon="0.01398">
        <ele>1043.7</ele>
        <time>2016-07-31T08:21:38Z</time>
      </trkpt>
      <trkpt lat="42.42067" lon="0.01395">
        <ele>1043.9</ele>
        <time>2016-07-31T08:21:40Z</time>
      </trkpt>
      <trkpt lat="42.42063" lon="0.01392">
        <ele>1044.1</ele>
        <time>2016-07-31T08:21:42Z</time>
      </trkpt>
      <trkpt lat="42.42059" lon="0.01389">
        <ele>1044.3</ele>
        <time>2016-07-31T08:21:44Z</time>
      </trkpt>
      <trkpt lat="42.42056" lon="0.01386">
        <ele>1044.4</ele>
        <time>2016-07-31T08:21:45Z</time>
      </trkpt>
      <trkpt lat="42.42054" lon="0.01385">
        <ele>1044.5</ele>
        <time>2016-07-31T08:21:46Z</time>
      </trkpt>
      <trkpt lat="42.42049" lon="0.01381">
        <ele>1044.7</ele>
        <time>2016-07-31T08:21:48Z</time>
      </trkpt>
      <trkpt lat="42.42045" lon="0.01377">
        <ele>1044.9</ele>
        <time>2016-07-31T08:21:50Z</time>
      </trkpt>
      <trkpt lat="42.42041" lon="0.01373">
        <ele>1044.8</ele>
        <time>2016-07-31T08:21:52Z</time>
      </trkpt>
      <trkpt lat="42.42037" lon="0.0137">
        <ele>1044.3</ele>
        <time>2016-07-31T08:21:54Z</time>
      </trkpt>
      <trkpt lat="42.42033" lon="0.01365">
        <ele>1043.7</ele>
        <time>2016-07-31T08:21:56Z</time>
      </trkpt>
      <trkpt lat="42.42029" lon="0.01362">
        <ele>1043</ele>
        <time>2016-07-31T08:21:58Z</time>
      </trkpt>
      <trkpt lat="42.42025" lon="0.01358">
        <ele>1042.3</ele>
        <time>2016-07-31T08:22:00Z</time>
      </trkpt>
      <trkpt lat="42.42021" lon="0.01355">
        <ele>1041.5</ele>
        <time>2016-07-31T08:22:02Z</time>
      </trkpt>
      <trkpt lat="42.42017" lon="0.01355">
        <ele>1040.6</ele>
        <time>2016-07-31T08:22:04Z</time>
      </trkpt>
      <trkpt lat="42.42014" lon="0.01358">
        <ele>1039.8</ele>
        <time>2016-07-31T08:22:06Z</time>
      </trkpt>
      <trkpt lat="42.42011" lon="0.01362">
        <ele>1039.2</ele>
        <time>2016-07-31T08:22:08Z</time>
      </trkpt>
      <trkpt lat="42.42009" lon="0.01367">
        <ele>1038.6</ele>
        <time>2016-07-31T08:22:10Z</time>
      </trkpt>
      <trkpt lat="42.42007" lon="0.01373">
        <ele>1037.9</ele>
        <time>2016-07-31T08:22:12Z</time>
      </trkpt>
      <trkpt lat="42.42005" lon="0.01376">
        <ele>1037.7</ele>
        <time>2016-07-31T08:22:13Z</time>
      </trkpt>
      <trkpt lat="42.42004" lon="0.0138">
        <ele>1037.6</ele>
        <time>2016-07-31T08:22:14Z</time>
      </trkpt>
      <trkpt lat="42.42001" lon="0.01386">
        <ele>1037.5</ele>
        <time>2016-07-31T08:22:16Z</time>
      </trkpt>
      <trkpt lat="42.42" lon="0.01389">
        <ele>1037.4</ele>
        <time>2016-07-31T08:22:17Z</time>
      </trkpt>
      <trkpt lat="42.41998" lon="0.01392">
        <ele>1037.4</ele>
        <time>2016-07-31T08:22:18Z</time>
      </trkpt>
      <trkpt lat="42.41997" lon="0.01396">
        <ele>1037.4</ele>
        <time>2016-07-31T08:22:19Z</time>
      </trkpt>
      <trkpt lat="42.41996" lon="0.014">
        <ele>1037.5</ele>
        <time>2016-07-31T08:22:20Z</time>
      </trkpt>
      <trkpt lat="42.41995" lon="0.01403">
        <ele>1037.7</ele>
        <time>2016-07-31T08:22:21Z</time>
      </trkpt>
      <trkpt lat="42.41994" lon="0.01407">
        <ele>1037.8</ele>
        <time>2016-07-31T08:22:22Z</time>
      </trkpt>
      <trkpt lat="42.41993" lon="0.01411">
        <ele>1038</ele>
        <time>2016-07-31T08:22:23Z</time>
      </trkpt>
      <trkpt lat="42.41992" lon="0.01415">
        <ele>1038.2</ele>
        <time>2016-07-31T08:22:24Z</time>
      </trkpt>
      <trkpt lat="42.41992" lon="0.01419">
        <ele>1038.4</ele>
        <time>2016-07-31T08:22:25Z</time>
      </trkpt>
      <trkpt lat="42.41991" lon="0.01423">
        <ele>1038.7</ele>
        <time>2016-07-31T08:22:26Z</time>
      </trkpt>
      <trkpt lat="42.4199" lon="0.01427">
        <ele>1039</ele>
        <time>2016-07-31T08:22:27Z</time>
      </trkpt>
      <trkpt lat="42.4199" lon="0.01432">
        <ele>1039.3</ele>
        <time>2016-07-31T08:22:28Z</time>
      </trkpt>
      <trkpt lat="42.41989" lon="0.01436">
        <ele>1039.6</ele>
        <time>2016-07-31T08:22:29Z</time>
      </trkpt>
      <trkpt lat="42.41988" lon="0.0144">
        <ele>1039.8</ele>
        <time>2016-07-31T08:22:30Z</time>
      </trkpt>
      <trkpt lat="42.41987" lon="0.01447">
        <ele>1040.3</ele>
        <time>2016-07-31T08:22:32Z</time>
      </trkpt>
      <trkpt lat="42.41986" lon="0.0145">
        <ele>1040.6</ele>
        <time>2016-07-31T08:22:33Z</time>
      </trkpt>
      <trkpt lat="42.41985" lon="0.01455">
        <ele>1040.9</ele>
        <time>2016-07-31T08:22:34Z</time>
      </trkpt>
      <trkpt lat="42.41985" lon="0.01459">
        <ele>1041.2</ele>
        <time>2016-07-31T08:22:35Z</time>
      </trkpt>
      <trkpt lat="42.41984" lon="0.01463">
        <ele>1041.5</ele>
        <time>2016-07-31T08:22:36Z</time>
      </trkpt>
      <trkpt lat="42.41984" lon="0.01467">
        <ele>1041.8</ele>
        <time>2016-07-31T08:22:37Z</time>
      </trkpt>
      <trkpt lat="42.41983" lon="0.01471">
        <ele>1042.1</ele>
        <time>2016-07-31T08:22:38Z</time>
      </trkpt>
      <trkpt lat="42.41983" lon="0.01474">
        <ele>1042.3</ele>
        <time>2016-07-31T08:22:39Z</time>
      </trkpt>
      <trkpt lat="42.41982" lon="0.01478">
        <ele>1042.6</ele>
        <time>2016-07-31T08:22:40Z</time>
      </trkpt>
      <trkpt lat="42.41982" lon="0.01482">
        <ele>1042.8</ele>
        <time>2016-07-31T08:22:41Z</time>
      </trkpt>
      <trkpt lat="42.41981" lon="0.01488">
        <ele>1043.4</ele>
        <time>2016-07-31T08:22:43Z</time>
      </trkpt>
      <trkpt lat="42.41981" lon="0.01492">
        <ele>1043.7</ele>
        <time>2016-07-31T08:22:44Z</time>
      </trkpt>
      <trkpt lat="42.41981" lon="0.01496">
        <ele>1044</ele>
        <time>2016-07-31T08:22:45Z</time>
      </trkpt>
      <trkpt lat="42.4198" lon="0.01501">
        <ele>1044.3</ele>
        <time>2016-07-31T08:22:46Z</time>
      </trkpt>
      <trkpt lat="42.41979" lon="0.01505">
        <ele>1044.7</ele>
        <time>2016-07-31T08:22:47Z</time>
      </trkpt>
      <trkpt lat="42.41979" lon="0.01509">
        <ele>1045</ele>
        <time>2016-07-31T08:22:48Z</time>
      </trkpt>
      <trkpt lat="42.41978" lon="0.01514">
        <ele>1045.4</ele>
        <time>2016-07-31T08:22:49Z</time>
      </trkpt>
      <trkpt lat="42.41978" lon="0.01518">
        <ele>1045.8</ele>
        <time>2016-07-31T08:22:50Z</time>
      </trkpt>
      <trkpt lat="42.41977" lon="0.01523">
        <ele>1046.2</ele>
        <time>2016-07-31T08:22:51Z</time>
      </trkpt>
      <trkpt lat="42.41976" lon="0.01529">
        <ele>1046.7</ele>
        <time>2016-07-31T08:22:52Z</time>
      </trkpt>
      <trkpt lat="42.41976" lon="0.01534">
        <ele>1047.1</ele>
        <time>2016-07-31T08:22:53Z</time>
      </trkpt>
      <trkpt lat="42.41975" lon="0.01539">
        <ele>1047.6</ele>
        <time>2016-07-31T08:22:54Z</time>
      </trkpt>
      <trkpt lat="42.41975" lon="0.01545">
        <ele>1047.8</ele>
        <time>2016-07-31T08:22:55Z</time>
      </trkpt>
      <trkpt lat="42.41974" lon="0.0155">
        <ele>1047.7</ele>
        <time>2016-07-31T08:22:56Z</time>
      </trkpt>
      <trkpt lat="42.41974" lon="0.01555">
        <ele>1047.6</ele>
        <time>2016-07-31T08:22:57Z</time>
      </trkpt>
      <trkpt lat="42.41974" lon="0.01561">
        <ele>1047.6</ele>
        <time>2016-07-31T08:22:58Z</time>
      </trkpt>
      <trkpt lat="42.41974" lon="0.01567">
        <ele>1047.5</ele>
        <time>2016-07-31T08:22:59Z</time>
      </trkpt>
      <trkpt lat="42.41974" lon="0.01573">
        <ele>1047.4</ele>
        <time>2016-07-31T08:23:00Z</time>
      </trkpt>
      <trkpt lat="42.41974" lon="0.01579">
        <ele>1047.4</ele>
        <time>2016-07-31T08:23:01Z</time>
      </trkpt>
      <trkpt lat="42.41974" lon="0.01586">
        <ele>1047.3</ele>
        <time>2016-07-31T08:23:02Z</time>
      </trkpt>
      <trkpt lat="42.41974" lon="0.0159">
        <ele>1047.2</ele>
        <time>2016-07-31T08:23:03Z</time>
      </trkpt>
      <trkpt lat="42.41974" lon="0.01595">
        <ele>1047.2</ele>
        <time>2016-07-31T08:23:04Z</time>
      </trkpt>
      <trkpt lat="42.41974" lon="0.01601">
        <ele>1047.1</ele>
        <time>2016-07-31T08:23:05Z</time>
      </trkpt>
      <trkpt lat="42.41974" lon="0.01607">
        <ele>1047</ele>
        <time>2016-07-31T08:23:06Z</time>
      </trkpt>
      <trkpt lat="42.41974" lon="0.01612">
        <ele>1047</ele>
        <time>2016-07-31T08:23:07Z</time>
      </trkpt>
      <trkpt lat="42.41974" lon="0.01617">
        <ele>1046.9</ele>
        <time>2016-07-31T08:23:08Z</time>
      </trkpt>
      <trkpt lat="42.41974" lon="0.01623">
        <ele>1046.8</ele>
        <time>2016-07-31T08:23:09Z</time>
      </trkpt>
      <trkpt lat="42.41973" lon="0.01629">
        <ele>1046.9</ele>
        <time>2016-07-31T08:23:10Z</time>
      </trkpt>
      <trkpt lat="42.41973" lon="0.01635">
        <ele>1046.9</ele>
        <time>2016-07-31T08:23:11Z</time>
      </trkpt>
      <trkpt lat="42.41973" lon="0.0164">
        <ele>1046.9</ele>
        <time>2016-07-31T08:23:12Z</time>
      </trkpt>
      <trkpt lat="42.41973" lon="0.01646">
        <ele>1047</ele>
        <time>2016-07-31T08:23:13Z</time>
      </trkpt>
      <trkpt lat="42.41973" lon="0.01652">
        <ele>1047</ele>
        <time>2016-07-31T08:23:14Z</time>
      </trkpt>
      <trkpt lat="42.41974" lon="0.01658">
        <ele>1047</ele>
        <time>2016-07-31T08:23:15Z</time>
      </trkpt>
      <trkpt lat="42.41974" lon="0.01663">
        <ele>1047.1</ele>
        <time>2016-07-31T08:23:16Z</time>
      </trkpt>
      <trkpt lat="42.41975" lon="0.01669">
        <ele>1047.1</ele>
        <time>2016-07-31T08:23:17Z</time>
      </trkpt>
      <trkpt lat="42.41976" lon="0.01674">
        <ele>1047.2</ele>
        <time>2016-07-31T08:23:18Z</time>
      </trkpt>
      <trkpt lat="42.41977" lon="0.01679">
        <ele>1047.2</ele>
        <time>2016-07-31T08:23:19Z</time>
      </trkpt>
      <trkpt lat="42.41978" lon="0.01684">
        <ele>1047.3</ele>
        <time>2016-07-31T08:23:20Z</time>
      </trkpt>
      <trkpt lat="42.4198" lon="0.01689">
        <ele>1047.3</ele>
        <time>2016-07-31T08:23:21Z</time>
      </trkpt>
      <trkpt lat="42.41982" lon="0.01694">
        <ele>1047.4</ele>
        <time>2016-07-31T08:23:22Z</time>
      </trkpt>
      <trkpt lat="42.41984" lon="0.01699">
        <ele>1047.5</ele>
        <time>2016-07-31T08:23:23Z</time>
      </trkpt>
      <trkpt lat="42.41986" lon="0.01703">
        <ele>1047.6</ele>
        <time>2016-07-31T08:23:24Z</time>
      </trkpt>
      <trkpt lat="42.41989" lon="0.01708">
        <ele>1047.7</ele>
        <time>2016-07-31T08:23:25Z</time>
      </trkpt>
      <trkpt lat="42.41991" lon="0.01712">
        <ele>1047.8</ele>
        <time>2016-07-31T08:23:26Z</time>
      </trkpt>
      <trkpt lat="42.41992" lon="0.01716">
        <ele>1047.9</ele>
        <time>2016-07-31T08:23:27Z</time>
      </trkpt>
      <trkpt lat="42.41995" lon="0.0172">
        <ele>1047.9</ele>
        <time>2016-07-31T08:23:28Z</time>
      </trkpt>
      <trkpt lat="42.41997" lon="0.01724">
        <ele>1048</ele>
        <time>2016-07-31T08:23:29Z</time>
      </trkpt>
      <trkpt lat="42.41999" lon="0.01727">
        <ele>1048.1</ele>
        <time>2016-07-31T08:23:30Z</time>
      </trkpt>
      <trkpt lat="42.42002" lon="0.01731">
        <ele>1048.2</ele>
        <time>2016-07-31T08:23:31Z</time>
      </trkpt>
      <trkpt lat="42.42004" lon="0.01734">
        <ele>1048.3</ele>
        <time>2016-07-31T08:23:32Z</time>
      </trkpt>
      <trkpt lat="42.42006" lon="0.01737">
        <ele>1048.4</ele>
        <time>2016-07-31T08:23:33Z</time>
      </trkpt>
      <trkpt lat="42.42009" lon="0.0174">
        <ele>1048.4</ele>
        <time>2016-07-31T08:23:34Z</time>
      </trkpt>
      <trkpt lat="42.42011" lon="0.01742">
        <ele>1048.5</ele>
        <time>2016-07-31T08:23:35Z</time>
      </trkpt>
      <trkpt lat="42.42013" lon="0.01745">
        <ele>1048.6</ele>
        <time>2016-07-31T08:23:36Z</time>
      </trkpt>
      <trkpt lat="42.42016" lon="0.0175">
        <ele>1048.7</ele>
        <time>2016-07-31T08:23:38Z</time>
      </trkpt>
      <trkpt lat="42.42017" lon="0.01754">
        <ele>1048.8</ele>
        <time>2016-07-31T08:23:39Z</time>
      </trkpt>
      <trkpt lat="42.42019" lon="0.01757">
        <ele>1048.9</ele>
        <time>2016-07-31T08:23:40Z</time>
      </trkpt>
      <trkpt lat="42.4202" lon="0.0176">
        <ele>1048.9</ele>
        <time>2016-07-31T08:23:41Z</time>
      </trkpt>
      <trkpt lat="42.42021" lon="0.01764">
        <ele>1049</ele>
        <time>2016-07-31T08:23:42Z</time>
      </trkpt>
      <trkpt lat="42.42022" lon="0.01768">
        <ele>1049.1</ele>
        <time>2016-07-31T08:23:43Z</time>
      </trkpt>
      <trkpt lat="42.42023" lon="0.01772">
        <ele>1049.1</ele>
        <time>2016-07-31T08:23:44Z</time>
      </trkpt>
      <trkpt lat="42.42023" lon="0.01775">
        <ele>1049.2</ele>
        <time>2016-07-31T08:23:45Z</time>
      </trkpt>
      <trkpt lat="42.42024" lon="0.01779">
        <ele>1049.2</ele>
        <time>2016-07-31T08:23:46Z</time>
      </trkpt>
      <trkpt lat="42.42025" lon="0.01783">
        <ele>1049.3</ele>
        <time>2016-07-31T08:23:47Z</time>
      </trkpt>
      <trkpt lat="42.42026" lon="0.01787">
        <ele>1049.4</ele>
        <time>2016-07-31T08:23:48Z</time>
      </trkpt>
      <trkpt lat="42.42027" lon="0.0179">
        <ele>1049.4</ele>
        <time>2016-07-31T08:23:49Z</time>
      </trkpt>
      <trkpt lat="42.42028" lon="0.01794">
        <ele>1049.6</ele>
        <time>2016-07-31T08:23:50Z</time>
      </trkpt>
      <trkpt lat="42.42028" lon="0.01798">
        <ele>1049.8</ele>
        <time>2016-07-31T08:23:51Z</time>
      </trkpt>
      <trkpt lat="42.42029" lon="0.01801">
        <ele>1050.1</ele>
        <time>2016-07-31T08:23:52Z</time>
      </trkpt>
      <trkpt lat="42.4203" lon="0.01805">
        <ele>1050.3</ele>
        <time>2016-07-31T08:23:53Z</time>
      </trkpt>
      <trkpt lat="42.42031" lon="0.01812">
        <ele>1050.7</ele>
        <time>2016-07-31T08:23:55Z</time>
      </trkpt>
      <trkpt lat="42.42032" lon="0.01818">
        <ele>1051.1</ele>
        <time>2016-07-31T08:23:57Z</time>
      </trkpt>
      <trkpt lat="42.42033" lon="0.01824">
        <ele>1051.4</ele>
        <time>2016-07-31T08:23:59Z</time>
      </trkpt>
      <trkpt lat="42.42034" lon="0.0183">
        <ele>1051.8</ele>
        <time>2016-07-31T08:24:01Z</time>
      </trkpt>
      <trkpt lat="42.42034" lon="0.01836">
        <ele>1052.1</ele>
        <time>2016-07-31T08:24:03Z</time>
      </trkpt>
      <trkpt lat="42.42034" lon="0.01841">
        <ele>1052.5</ele>
        <time>2016-07-31T08:24:05Z</time>
      </trkpt>
      <trkpt lat="42.42033" lon="0.01847">
        <ele>1052.7</ele>
        <time>2016-07-31T08:24:07Z</time>
      </trkpt>
      <trkpt lat="42.4203" lon="0.01853">
        <ele>1052.9</ele>
        <time>2016-07-31T08:24:09Z</time>
      </trkpt>
      <trkpt lat="42.42028" lon="0.01859">
        <ele>1053</ele>
        <time>2016-07-31T08:24:11Z</time>
      </trkpt>
      <trkpt lat="42.42025" lon="0.01864">
        <ele>1053.1</ele>
        <time>2016-07-31T08:24:13Z</time>
      </trkpt>
      <trkpt lat="42.42022" lon="0.01869">
        <ele>1053.1</ele>
        <time>2016-07-31T08:24:15Z</time>
      </trkpt>
      <trkpt lat="42.42019" lon="0.01874">
        <ele>1053.1</ele>
        <time>2016-07-31T08:24:17Z</time>
      </trkpt>
      <trkpt lat="42.42016" lon="0.01879">
        <ele>1053.2</ele>
        <time>2016-07-31T08:24:19Z</time>
      </trkpt>
      <trkpt lat="42.42013" lon="0.01882">
        <ele>1053.3</ele>
        <time>2016-07-31T08:24:21Z</time>
      </trkpt>
      <trkpt lat="42.42009" lon="0.01887">
        <ele>1053.4</ele>
        <time>2016-07-31T08:24:23Z</time>
      </trkpt>
      <trkpt lat="42.42006" lon="0.01891">
        <ele>1053.5</ele>
        <time>2016-07-31T08:24:25Z</time>
      </trkpt>
      <trkpt lat="42.42003" lon="0.01894">
        <ele>1053.6</ele>
        <time>2016-07-31T08:24:27Z</time>
      </trkpt>
      <trkpt lat="42.42" lon="0.01897">
        <ele>1053.6</ele>
        <time>2016-07-31T08:24:29Z</time>
      </trkpt>
      <trkpt lat="42.41996" lon="0.01899">
        <ele>1053.5</ele>
        <time>2016-07-31T08:24:31Z</time>
      </trkpt>
      <trkpt lat="42.41993" lon="0.01902">
        <ele>1053.5</ele>
        <time>2016-07-31T08:24:33Z</time>
      </trkpt>
      <trkpt lat="42.4199" lon="0.01904">
        <ele>1053.4</ele>
        <time>2016-07-31T08:24:35Z</time>
      </trkpt>
      <trkpt lat="42.41988" lon="0.01907">
        <ele>1053.5</ele>
        <time>2016-07-31T08:24:37Z</time>
      </trkpt>
      <trkpt lat="42.41985" lon="0.0191">
        <ele>1053.6</ele>
        <time>2016-07-31T08:24:39Z</time>
      </trkpt>
      <trkpt lat="42.41982" lon="0.01913">
        <ele>1053.7</ele>
        <time>2016-07-31T08:24:41Z</time>
      </trkpt>
      <trkpt lat="42.41979" lon="0.01917">
        <ele>1053.8</ele>
        <time>2016-07-31T08:24:43Z</time>
      </trkpt>
      <trkpt lat="42.41976" lon="0.01921">
        <ele>1053.9</ele>
        <time>2016-07-31T08:24:45Z</time>
      </trkpt>
      <trkpt lat="42.41973" lon="0.01924">
        <ele>1053.9</ele>
        <time>2016-07-31T08:24:47Z</time>
      </trkpt>
      <trkpt lat="42.4197" lon="0.01927">
        <ele>1054</ele>
        <time>2016-07-31T08:24:49Z</time>
      </trkpt>
      <trkpt lat="42.41967" lon="0.01931">
        <ele>1054.2</ele>
        <time>2016-07-31T08:24:51Z</time>
      </trkpt>
      <trkpt lat="42.41965" lon="0.01936">
        <ele>1054.4</ele>
        <time>2016-07-31T08:24:53Z</time>
      </trkpt>
      <trkpt lat="42.41962" lon="0.0194">
        <ele>1054.6</ele>
        <time>2016-07-31T08:24:55Z</time>
      </trkpt>
      <trkpt lat="42.4196" lon="0.01945">
        <ele>1054.9</ele>
        <time>2016-07-31T08:24:57Z</time>
      </trkpt>
      <trkpt lat="42.41959" lon="0.01951">
        <ele>1055.3</ele>
        <time>2016-07-31T08:24:59Z</time>
      </trkpt>
      <trkpt lat="42.41959" lon="0.01957">
        <ele>1055.9</ele>
        <time>2016-07-31T08:25:01Z</time>
      </trkpt>
      <trkpt lat="42.41961" lon="0.01962">
        <ele>1056.5</ele>
        <time>2016-07-31T08:25:03Z</time>
      </trkpt>
      <trkpt lat="42.41964" lon="0.01966">
        <ele>1057.1</ele>
        <time>2016-07-31T08:25:05Z</time>
      </trkpt>
      <trkpt lat="42.41967" lon="0.01968">
        <ele>1057.6</ele>
        <time>2016-07-31T08:25:07Z</time>
      </trkpt>
      <trkpt lat="42.41971" lon="0.0197">
        <ele>1058.1</ele>
        <time>2016-07-31T08:25:09Z</time>
      </trkpt>
      <trkpt lat="42.41975" lon="0.01971">
        <ele>1058.6</ele>
        <time>2016-07-31T08:25:11Z</time>
      </trkpt>
      <trkpt lat="42.41979" lon="0.01973">
        <ele>1059</ele>
        <time>2016-07-31T08:25:13Z</time>
      </trkpt>
      <trkpt lat="42.41982" lon="0.01975">
        <ele>1059.5</ele>
        <time>2016-07-31T08:25:15Z</time>
      </trkpt>
      <trkpt lat="42.41985" lon="0.01979">
        <ele>1060.1</ele>
        <time>2016-07-31T08:25:17Z</time>
      </trkpt>
      <trkpt lat="42.41988" lon="0.01982">
        <ele>1060.7</ele>
        <time>2016-07-31T08:25:19Z</time>
      </trkpt>
      <trkpt lat="42.41991" lon="0.01985">
        <ele>1061.2</ele>
        <time>2016-07-31T08:25:21Z</time>
      </trkpt>
      <trkpt lat="42.41993" lon="0.01989">
        <ele>1061.8</ele>
        <time>2016-07-31T08:25:23Z</time>
      </trkpt>
      <trkpt lat="42.41995" lon="0.01993">
        <ele>1062.3</ele>
        <time>2016-07-31T08:25:25Z</time>
      </trkpt>
      <trkpt lat="42.41999" lon="0.01995">
        <ele>1062.9</ele>
        <time>2016-07-31T08:25:27Z</time>
      </trkpt>
      <trkpt lat="42.42004" lon="0.01996">
        <ele>1063.4</ele>
        <time>2016-07-31T08:25:29Z</time>
      </trkpt>
      <trkpt lat="42.42008" lon="0.01994">
        <ele>1063.7</ele>
        <time>2016-07-31T08:25:31Z</time>
      </trkpt>
      <trkpt lat="42.42012" lon="0.01992">
        <ele>1063.8</ele>
        <time>2016-07-31T08:25:33Z</time>
      </trkpt>
      <trkpt lat="42.42016" lon="0.01989">
        <ele>1063.9</ele>
        <time>2016-07-31T08:25:35Z</time>
      </trkpt>
      <trkpt lat="42.42019" lon="0.01985">
        <ele>1063.8</ele>
        <time>2016-07-31T08:25:37Z</time>
      </trkpt>
      <trkpt lat="42.42022" lon="0.01982">
        <ele>1063.8</ele>
        <time>2016-07-31T08:25:39Z</time>
      </trkpt>
      <trkpt lat="42.42027" lon="0.01981">
        <ele>1064.2</ele>
        <time>2016-07-31T08:25:41Z</time>
      </trkpt>
      <trkpt lat="42.42032" lon="0.0198">
        <ele>1064.4</ele>
        <time>2016-07-31T08:25:43Z</time>
      </trkpt>
      <trkpt lat="42.42036" lon="0.01978">
        <ele>1064.6</ele>
        <time>2016-07-31T08:25:45Z</time>
      </trkpt>
      <trkpt lat="42.4204" lon="0.01975">
        <ele>1064.7</ele>
        <time>2016-07-31T08:25:47Z</time>
      </trkpt>
      <trkpt lat="42.42044" lon="0.01974">
        <ele>1064.9</ele>
        <time>2016-07-31T08:25:49Z</time>
      </trkpt>
      <trkpt lat="42.42048" lon="0.01971">
        <ele>1065.1</ele>
        <time>2016-07-31T08:25:51Z</time>
      </trkpt>
      <trkpt lat="42.42052" lon="0.0197">
        <ele>1065.3</ele>
        <time>2016-07-31T08:25:53Z</time>
      </trkpt>
      <trkpt lat="42.42055" lon="0.01968">
        <ele>1065.5</ele>
        <time>2016-07-31T08:25:55Z</time>
      </trkpt>
      <trkpt lat="42.42059" lon="0.01966">
        <ele>1065.7</ele>
        <time>2016-07-31T08:25:57Z</time>
      </trkpt>
      <trkpt lat="42.42063" lon="0.01964">
        <ele>1065.8</ele>
        <time>2016-07-31T08:25:59Z</time>
      </trkpt>
      <trkpt lat="42.42067" lon="0.01962">
        <ele>1066.1</ele>
        <time>2016-07-31T08:26:01Z</time>
      </trkpt>
      <trkpt lat="42.42072" lon="0.01959">
        <ele>1066.3</ele>
        <time>2016-07-31T08:26:04Z</time>
      </trkpt>
      <trkpt lat="42.42075" lon="0.01956">
        <ele>1066.4</ele>
        <time>2016-07-31T08:26:06Z</time>
      </trkpt>
      <trkpt lat="42.42079" lon="0.01954">
        <ele>1066.5</ele>
        <time>2016-07-31T08:26:08Z</time>
      </trkpt>
      <trkpt lat="42.42083" lon="0.01952">
        <ele>1066.8</ele>
        <time>2016-07-31T08:26:10Z</time>
      </trkpt>
      <trkpt lat="42.42088" lon="0.0195">
        <ele>1067</ele>
        <time>2016-07-31T08:26:12Z</time>
      </trkpt>
      <trkpt lat="42.42092" lon="0.01948">
        <ele>1067.2</ele>
        <time>2016-07-31T08:26:14Z</time>
      </trkpt>
      <trkpt lat="42.42095" lon="0.01946">
        <ele>1067.3</ele>
        <time>2016-07-31T08:26:16Z</time>
      </trkpt>
      <trkpt lat="42.42099" lon="0.01944">
        <ele>1067.5</ele>
        <time>2016-07-31T08:26:18Z</time>
      </trkpt>
      <trkpt lat="42.42103" lon="0.01943">
        <ele>1067.7</ele>
        <time>2016-07-31T08:26:20Z</time>
      </trkpt>
      <trkpt lat="42.42107" lon="0.01943">
        <ele>1068.2</ele>
        <time>2016-07-31T08:26:22Z</time>
      </trkpt>
      <trkpt lat="42.42111" lon="0.01945">
        <ele>1068.8</ele>
        <time>2016-07-31T08:26:24Z</time>
      </trkpt>
      <trkpt lat="42.42113" lon="0.0195">
        <ele>1069.6</ele>
        <time>2016-07-31T08:26:26Z</time>
      </trkpt>
      <trkpt lat="42.42115" lon="0.01956">
        <ele>1070.6</ele>
        <time>2016-07-31T08:26:28Z</time>
      </trkpt>
      <trkpt lat="42.42115" lon="0.0196">
        <ele>1071.1</ele>
        <time>2016-07-31T08:26:29Z</time>
      </trkpt>
      <trkpt lat="42.42116" lon="0.01964">
        <ele>1071.5</ele>
        <time>2016-07-31T08:26:30Z</time>
      </trkpt>
      <trkpt lat="42.42116" lon="0.01968">
        <ele>1071.9</ele>
        <time>2016-07-31T08:26:31Z</time>
      </trkpt>
      <trkpt lat="42.42117" lon="0.01973">
        <ele>1072.4</ele>
        <time>2016-07-31T08:26:32Z</time>
      </trkpt>
      <trkpt lat="42.42117" lon="0.01978">
        <ele>1072.9</ele>
        <time>2016-07-31T08:26:33Z</time>
      </trkpt>
      <trkpt lat="42.42118" lon="0.01983">
        <ele>1073.4</ele>
        <time>2016-07-31T08:26:34Z</time>
      </trkpt>
      <trkpt lat="42.42119" lon="0.01988">
        <ele>1073.9</ele>
        <time>2016-07-31T08:26:35Z</time>
      </trkpt>
      <trkpt lat="42.4212" lon="0.01993">
        <ele>1074.4</ele>
        <time>2016-07-31T08:26:36Z</time>
      </trkpt>
      <trkpt lat="42.42121" lon="0.01998">
        <ele>1074.9</ele>
        <time>2016-07-31T08:26:37Z</time>
      </trkpt>
      <trkpt lat="42.42121" lon="0.02003">
        <ele>1075.4</ele>
        <time>2016-07-31T08:26:38Z</time>
      </trkpt>
      <trkpt lat="42.42122" lon="0.02007">
        <ele>1075.9</ele>
        <time>2016-07-31T08:26:39Z</time>
      </trkpt>
      <trkpt lat="42.42123" lon="0.02012">
        <ele>1076.3</ele>
        <time>2016-07-31T08:26:40Z</time>
      </trkpt>
      <trkpt lat="42.42124" lon="0.02016">
        <ele>1076.7</ele>
        <time>2016-07-31T08:26:41Z</time>
      </trkpt>
      <trkpt lat="42.42125" lon="0.0202">
        <ele>1077.2</ele>
        <time>2016-07-31T08:26:42Z</time>
      </trkpt>
      <trkpt lat="42.42126" lon="0.02024">
        <ele>1077.7</ele>
        <time>2016-07-31T08:26:43Z</time>
      </trkpt>
      <trkpt lat="42.42127" lon="0.02028">
        <ele>1078.2</ele>
        <time>2016-07-31T08:26:44Z</time>
      </trkpt>
      <trkpt lat="42.42129" lon="0.02032">
        <ele>1078.7</ele>
        <time>2016-07-31T08:26:45Z</time>
      </trkpt>
      <trkpt lat="42.4213" lon="0.02037">
        <ele>1079.3</ele>
        <time>2016-07-31T08:26:46Z</time>
      </trkpt>
      <trkpt lat="42.42131" lon="0.02041">
        <ele>1079.8</ele>
        <time>2016-07-31T08:26:47Z</time>
      </trkpt>
      <trkpt lat="42.42133" lon="0.02045">
        <ele>1080.1</ele>
        <time>2016-07-31T08:26:48Z</time>
      </trkpt>
      <trkpt lat="42.42134" lon="0.02049">
        <ele>1080.3</ele>
        <time>2016-07-31T08:26:49Z</time>
      </trkpt>
      <trkpt lat="42.42136" lon="0.02054">
        <ele>1080.5</ele>
        <time>2016-07-31T08:26:50Z</time>
      </trkpt>
      <trkpt lat="42.42138" lon="0.02058">
        <ele>1080.7</ele>
        <time>2016-07-31T08:26:51Z</time>
      </trkpt>
      <trkpt lat="42.4214" lon="0.02062">
        <ele>1080.9</ele>
        <time>2016-07-31T08:26:52Z</time>
      </trkpt>
      <trkpt lat="42.42144" lon="0.0207">
        <ele>1081.4</ele>
        <time>2016-07-31T08:26:54Z</time>
      </trkpt>
      <trkpt lat="42.42146" lon="0.02074">
        <ele>1081.6</ele>
        <time>2016-07-31T08:26:55Z</time>
      </trkpt>
      <trkpt lat="42.42148" lon="0.02078">
        <ele>1081.8</ele>
        <time>2016-07-31T08:26:56Z</time>
      </trkpt>
      <trkpt lat="42.4215" lon="0.02081">
        <ele>1082</ele>
        <time>2016-07-31T08:26:57Z</time>
      </trkpt>
      <trkpt lat="42.42151" lon="0.02085">
        <ele>1082.1</ele>
        <time>2016-07-31T08:26:58Z</time>
      </trkpt>
      <trkpt lat="42.42153" lon="0.02089">
        <ele>1082.3</ele>
        <time>2016-07-31T08:26:59Z</time>
      </trkpt>
      <trkpt lat="42.42154" lon="0.02094">
        <ele>1082.3</ele>
        <time>2016-07-31T08:27:00Z</time>
      </trkpt>
      <trkpt lat="42.42155" lon="0.02098">
        <ele>1082.4</ele>
        <time>2016-07-31T08:27:01Z</time>
      </trkpt>
      <trkpt lat="42.42156" lon="0.02102">
        <ele>1082.4</ele>
        <time>2016-07-31T08:27:02Z</time>
      </trkpt>
      <trkpt lat="42.42157" lon="0.02106">
        <ele>1082.4</ele>
        <time>2016-07-31T08:27:03Z</time>
      </trkpt>
      <trkpt lat="42.42158" lon="0.0211">
        <ele>1082.4</ele>
        <time>2016-07-31T08:27:04Z</time>
      </trkpt>
      <trkpt lat="42.42158" lon="0.02114">
        <ele>1082.4</ele>
        <time>2016-07-31T08:27:05Z</time>
      </trkpt>
      <trkpt lat="42.42159" lon="0.02117">
        <ele>1082.4</ele>
        <time>2016-07-31T08:27:06Z</time>
      </trkpt>
      <trkpt lat="42.4216" lon="0.02121">
        <ele>1082.4</ele>
        <time>2016-07-31T08:27:07Z</time>
      </trkpt>
      <trkpt lat="42.4216" lon="0.02125">
        <ele>1082.4</ele>
        <time>2016-07-31T08:27:08Z</time>
      </trkpt>
      <trkpt lat="42.4216" lon="0.02128">
        <ele>1082.6</ele>
        <time>2016-07-31T08:27:09Z</time>
      </trkpt>
      <trkpt lat="42.42161" lon="0.02132">
        <ele>1083</ele>
        <time>2016-07-31T08:27:10Z</time>
      </trkpt>
      <trkpt lat="42.42161" lon="0.02136">
        <ele>1083.3</ele>
        <time>2016-07-31T08:27:11Z</time>
      </trkpt>
      <trkpt lat="42.42162" lon="0.0214">
        <ele>1083.6</ele>
        <time>2016-07-31T08:27:12Z</time>
      </trkpt>
      <trkpt lat="42.42163" lon="0.02143">
        <ele>1083.9</ele>
        <time>2016-07-31T08:27:13Z</time>
      </trkpt>
      <trkpt lat="42.42163" lon="0.02147">
        <ele>1084.2</ele>
        <time>2016-07-31T08:27:14Z</time>
      </trkpt>
      <trkpt lat="42.42165" lon="0.02154">
        <ele>1084.8</ele>
        <time>2016-07-31T08:27:16Z</time>
      </trkpt>
      <trkpt lat="42.42166" lon="0.0216">
        <ele>1085.3</ele>
        <time>2016-07-31T08:27:18Z</time>
      </trkpt>
      <trkpt lat="42.42168" lon="0.02167">
        <ele>1085.8</ele>
        <time>2016-07-31T08:27:20Z</time>
      </trkpt>
      <trkpt lat="42.42169" lon="0.02173">
        <ele>1086.2</ele>
        <time>2016-07-31T08:27:22Z</time>
      </trkpt>
      <trkpt lat="42.4217" lon="0.02179">
        <ele>1086.7</ele>
        <time>2016-07-31T08:27:24Z</time>
      </trkpt>
      <trkpt lat="42.42171" lon="0.02185">
        <ele>1087</ele>
        <time>2016-07-31T08:27:26Z</time>
      </trkpt>
      <trkpt lat="42.42172" lon="0.0219">
        <ele>1087.4</ele>
        <time>2016-07-31T08:27:28Z</time>
      </trkpt>
      <trkpt lat="42.42173" lon="0.02196">
        <ele>1087.7</ele>
        <time>2016-07-31T08:27:30Z</time>
      </trkpt>
      <trkpt lat="42.42174" lon="0.02201">
        <ele>1088</ele>
        <time>2016-07-31T08:27:32Z</time>
      </trkpt>
      <trkpt lat="42.42175" lon="0.02207">
        <ele>1088.3</ele>
        <time>2016-07-31T08:27:34Z</time>
      </trkpt>
      <trkpt lat="42.42176" lon="0.02212">
        <ele>1088.7</ele>
        <time>2016-07-31T08:27:36Z</time>
      </trkpt>
      <trkpt lat="42.42177" lon="0.02218">
        <ele>1089.1</ele>
        <time>2016-07-31T08:27:38Z</time>
      </trkpt>
      <trkpt lat="42.42178" lon="0.02223">
        <ele>1089.5</ele>
        <time>2016-07-31T08:27:40Z</time>
      </trkpt>
      <trkpt lat="42.42179" lon="0.02228">
        <ele>1090</ele>
        <time>2016-07-31T08:27:42Z</time>
      </trkpt>
      <trkpt lat="42.4218" lon="0.02234">
        <ele>1090.4</ele>
        <time>2016-07-31T08:27:44Z</time>
      </trkpt>
      <trkpt lat="42.42181" lon="0.02239">
        <ele>1090.7</ele>
        <time>2016-07-31T08:27:46Z</time>
      </trkpt>
      <trkpt lat="42.42182" lon="0.02244">
        <ele>1091.1</ele>
        <time>2016-07-31T08:27:48Z</time>
      </trkpt>
      <trkpt lat="42.42183" lon="0.02249">
        <ele>1091.5</ele>
        <time>2016-07-31T08:27:50Z</time>
      </trkpt>
      <trkpt lat="42.42184" lon="0.02254">
        <ele>1091.9</ele>
        <time>2016-07-31T08:27:52Z</time>
      </trkpt>
      <trkpt lat="42.42185" lon="0.02259">
        <ele>1092.2</ele>
        <time>2016-07-31T08:27:54Z</time>
      </trkpt>
      <trkpt lat="42.42186" lon="0.02264">
        <ele>1092.6</ele>
        <time>2016-07-31T08:27:56Z</time>
      </trkpt>
      <trkpt lat="42.42187" lon="0.02268">
        <ele>1092.9</ele>
        <time>2016-07-31T08:27:58Z</time>
      </trkpt>
      <trkpt lat="42.42188" lon="0.02273">
        <ele>1093.3</ele>
        <time>2016-07-31T08:28:00Z</time>
      </trkpt>
      <trkpt lat="42.42189" lon="0.02278">
        <ele>1093.6</ele>
        <time>2016-07-31T08:28:02Z</time>
      </trkpt>
      <trkpt lat="42.4219" lon="0.02282">
        <ele>1093.9</ele>
        <time>2016-07-31T08:28:04Z</time>
      </trkpt>
      <trkpt lat="42.42192" lon="0.02287">
        <ele>1094.2</ele>
        <time>2016-07-31T08:28:06Z</time>
      </trkpt>
      <trkpt lat="42.42193" lon="0.02291">
        <ele>1094.5</ele>
        <time>2016-07-31T08:28:08Z</time>
      </trkpt>
      <trkpt lat="42.42194" lon="0.02296">
        <ele>1094.9</ele>
        <time>2016-07-31T08:28:10Z</time>
      </trkpt>
      <trkpt lat="42.42195" lon="0.02301">
        <ele>1095.1</ele>
        <time>2016-07-31T08:28:12Z</time>
      </trkpt>
      <trkpt lat="42.42197" lon="0.02305">
        <ele>1095.4</ele>
        <time>2016-07-31T08:28:14Z</time>
      </trkpt>
      <trkpt lat="42.42198" lon="0.0231">
        <ele>1095.8</ele>
        <time>2016-07-31T08:28:16Z</time>
      </trkpt>
      <trkpt lat="42.42199" lon="0.02315">
        <ele>1096.1</ele>
        <time>2016-07-31T08:28:18Z</time>
      </trkpt>
      <trkpt lat="42.422" lon="0.02319">
        <ele>1096.4</ele>
        <time>2016-07-31T08:28:20Z</time>
      </trkpt>
      <trkpt lat="42.42202" lon="0.02323">
        <ele>1096.7</ele>
        <time>2016-07-31T08:28:22Z</time>
      </trkpt>
      <trkpt lat="42.42203" lon="0.02327">
        <ele>1097</ele>
        <time>2016-07-31T08:28:24Z</time>
      </trkpt>
      <trkpt lat="42.42205" lon="0.02331">
        <ele>1097.3</ele>
        <time>2016-07-31T08:28:26Z</time>
      </trkpt>
      <trkpt lat="42.42207" lon="0.02335">
        <ele>1097.7</ele>
        <time>2016-07-31T08:28:28Z</time>
      </trkpt>
      <trkpt lat="42.42208" lon="0.0234">
        <ele>1098.1</ele>
        <time>2016-07-31T08:28:30Z</time>
      </trkpt>
      <trkpt lat="42.42208" lon="0.02346">
        <ele>1098.6</ele>
        <time>2016-07-31T08:28:32Z</time>
      </trkpt>
      <trkpt lat="42.42209" lon="0.02352">
        <ele>1099</ele>
        <time>2016-07-31T08:28:34Z</time>
      </trkpt>
      <trkpt lat="42.4221" lon="0.02358">
        <ele>1099.5</ele>
        <time>2016-07-31T08:28:36Z</time>
      </trkpt>
      <trkpt lat="42.4221" lon="0.02364">
        <ele>1100</ele>
        <time>2016-07-31T08:28:38Z</time>
      </trkpt>
      <trkpt lat="42.4221" lon="0.0237">
        <ele>1100.5</ele>
        <time>2016-07-31T08:28:40Z</time>
      </trkpt>
      <trkpt lat="42.4221" lon="0.02376">
        <ele>1101</ele>
        <time>2016-07-31T08:28:42Z</time>
      </trkpt>
      <trkpt lat="42.4221" lon="0.02383">
        <ele>1101</ele>
        <time>2016-07-31T08:28:44Z</time>
      </trkpt>
      <trkpt lat="42.4221" lon="0.02387">
        <ele>1101.1</ele>
        <time>2016-07-31T08:28:45Z</time>
      </trkpt>
      <trkpt lat="42.42211" lon="0.02391">
        <ele>1101.1</ele>
        <time>2016-07-31T08:28:46Z</time>
      </trkpt>
      <trkpt lat="42.42211" lon="0.02394">
        <ele>1101.1</ele>
        <time>2016-07-31T08:28:47Z</time>
      </trkpt>
      <trkpt lat="42.42212" lon="0.02398">
        <ele>1101.1</ele>
        <time>2016-07-31T08:28:48Z</time>
      </trkpt>
      <trkpt lat="42.42213" lon="0.02402">
        <ele>1101.1</ele>
        <time>2016-07-31T08:28:49Z</time>
      </trkpt>
      <trkpt lat="42.42213" lon="0.02406">
        <ele>1101.1</ele>
        <time>2016-07-31T08:28:50Z</time>
      </trkpt>
      <trkpt lat="42.42214" lon="0.0241">
        <ele>1101.1</ele>
        <time>2016-07-31T08:28:51Z</time>
      </trkpt>
      <trkpt lat="42.42216" lon="0.02414">
        <ele>1101.1</ele>
        <time>2016-07-31T08:28:52Z</time>
      </trkpt>
      <trkpt lat="42.42217" lon="0.02417">
        <ele>1101.1</ele>
        <time>2016-07-31T08:28:53Z</time>
      </trkpt>
      <trkpt lat="42.42218" lon="0.02421">
        <ele>1101.1</ele>
        <time>2016-07-31T08:28:54Z</time>
      </trkpt>
      <trkpt lat="42.42219" lon="0.02425">
        <ele>1101.1</ele>
        <time>2016-07-31T08:28:55Z</time>
      </trkpt>
      <trkpt lat="42.4222" lon="0.02428">
        <ele>1101</ele>
        <time>2016-07-31T08:28:56Z</time>
      </trkpt>
      <trkpt lat="42.42222" lon="0.02432">
        <ele>1101</ele>
        <time>2016-07-31T08:28:57Z</time>
      </trkpt>
      <trkpt lat="42.42223" lon="0.02435">
        <ele>1100.9</ele>
        <time>2016-07-31T08:28:58Z</time>
      </trkpt>
      <trkpt lat="42.42225" lon="0.02438">
        <ele>1100.9</ele>
        <time>2016-07-31T08:28:59Z</time>
      </trkpt>
      <trkpt lat="42.42226" lon="0.02441">
        <ele>1100.8</ele>
        <time>2016-07-31T08:29:00Z</time>
      </trkpt>
      <trkpt lat="42.42228" lon="0.02444">
        <ele>1100.7</ele>
        <time>2016-07-31T08:29:01Z</time>
      </trkpt>
      <trkpt lat="42.4223" lon="0.02447">
        <ele>1100.6</ele>
        <time>2016-07-31T08:29:02Z</time>
      </trkpt>
      <trkpt lat="42.42231" lon="0.0245">
        <ele>1100.6</ele>
        <time>2016-07-31T08:29:03Z</time>
      </trkpt>
      <trkpt lat="42.42233" lon="0.02454">
        <ele>1100.5</ele>
        <time>2016-07-31T08:29:04Z</time>
      </trkpt>
      <trkpt lat="42.42234" lon="0.02457">
        <ele>1100.5</ele>
        <time>2016-07-31T08:29:05Z</time>
      </trkpt>
      <trkpt lat="42.42235" lon="0.02461">
        <ele>1100.4</ele>
        <time>2016-07-31T08:29:06Z</time>
      </trkpt>
      <trkpt lat="42.42237" lon="0.02464">
        <ele>1100.4</ele>
        <time>2016-07-31T08:29:07Z</time>
      </trkpt>
      <trkpt lat="42.42238" lon="0.02468">
        <ele>1100.4</ele>
        <time>2016-07-31T08:29:08Z</time>
      </trkpt>
      <trkpt lat="42.42239" lon="0.02472">
        <ele>1100.5</ele>
        <time>2016-07-31T08:29:09Z</time>
      </trkpt>
      <trkpt lat="42.42239" lon="0.02476">
        <ele>1100.5</ele>
        <time>2016-07-31T08:29:10Z</time>
      </trkpt>
      <trkpt lat="42.4224" lon="0.02479">
        <ele>1100.6</ele>
        <time>2016-07-31T08:29:11Z</time>
      </trkpt>
      <trkpt lat="42.42241" lon="0.02483">
        <ele>1100.6</ele>
        <time>2016-07-31T08:29:12Z</time>
      </trkpt>
      <trkpt lat="42.42242" lon="0.02486">
        <ele>1100.7</ele>
        <time>2016-07-31T08:29:13Z</time>
      </trkpt>
      <trkpt lat="42.42243" lon="0.02493">
        <ele>1100.8</ele>
        <time>2016-07-31T08:29:15Z</time>
      </trkpt>
      <trkpt lat="42.42244" lon="0.02497">
        <ele>1100.8</ele>
        <time>2016-07-31T08:29:16Z</time>
      </trkpt>
      <trkpt lat="42.42245" lon="0.025">
        <ele>1100.9</ele>
        <time>2016-07-31T08:29:17Z</time>
      </trkpt>
      <trkpt lat="42.42246" lon="0.02504">
        <ele>1101</ele>
        <time>2016-07-31T08:29:18Z</time>
      </trkpt>
      <trkpt lat="42.42247" lon="0.02508">
        <ele>1101.1</ele>
        <time>2016-07-31T08:29:19Z</time>
      </trkpt>
      <trkpt lat="42.42247" lon="0.02511">
        <ele>1101.1</ele>
        <time>2016-07-31T08:29:20Z</time>
      </trkpt>
      <trkpt lat="42.42248" lon="0.02515">
        <ele>1101.2</ele>
        <time>2016-07-31T08:29:21Z</time>
      </trkpt>
      <trkpt lat="42.42249" lon="0.02519">
        <ele>1101.3</ele>
        <time>2016-07-31T08:29:22Z</time>
      </trkpt>
      <trkpt lat="42.4225" lon="0.02523">
        <ele>1101.4</ele>
        <time>2016-07-31T08:29:23Z</time>
      </trkpt>
      <trkpt lat="42.42251" lon="0.02527">
        <ele>1101.6</ele>
        <time>2016-07-31T08:29:24Z</time>
      </trkpt>
      <trkpt lat="42.42252" lon="0.02532">
        <ele>1101.7</ele>
        <time>2016-07-31T08:29:25Z</time>
      </trkpt>
      <trkpt lat="42.42253" lon="0.02536">
        <ele>1101.8</ele>
        <time>2016-07-31T08:29:26Z</time>
      </trkpt>
      <trkpt lat="42.42254" lon="0.0254">
        <ele>1101.9</ele>
        <time>2016-07-31T08:29:27Z</time>
      </trkpt>
      <trkpt lat="42.42255" lon="0.02544">
        <ele>1102</ele>
        <time>2016-07-31T08:29:28Z</time>
      </trkpt>
      <trkpt lat="42.42257" lon="0.02549">
        <ele>1102.1</ele>
        <time>2016-07-31T08:29:29Z</time>
      </trkpt>
      <trkpt lat="42.42258" lon="0.02552">
        <ele>1102.1</ele>
        <time>2016-07-31T08:29:30Z</time>
      </trkpt>
      <trkpt lat="42.42259" lon="0.02556">
        <ele>1102.1</ele>
        <time>2016-07-31T08:29:31Z</time>
      </trkpt>
      <trkpt lat="42.42261" lon="0.0256">
        <ele>1102.2</ele>
        <time>2016-07-31T08:29:32Z</time>
      </trkpt>
      <trkpt lat="42.42262" lon="0.02564">
        <ele>1102.2</ele>
        <time>2016-07-31T08:29:33Z</time>
      </trkpt>
      <trkpt lat="42.42264" lon="0.02567">
        <ele>1102.3</ele>
        <time>2016-07-31T08:29:34Z</time>
      </trkpt>
      <trkpt lat="42.42265" lon="0.02571">
        <ele>1102.4</ele>
        <time>2016-07-31T08:29:35Z</time>
      </trkpt>
      <trkpt lat="42.42266" lon="0.02575">
        <ele>1102.4</ele>
        <time>2016-07-31T08:29:36Z</time>
      </trkpt>
      <trkpt lat="42.42268" lon="0.02579">
        <ele>1102.5</ele>
        <time>2016-07-31T08:29:37Z</time>
      </trkpt>
      <trkpt lat="42.42269" lon="0.02582">
        <ele>1102.6</ele>
        <time>2016-07-31T08:29:38Z</time>
      </trkpt>
      <trkpt lat="42.42271" lon="0.02585">
        <ele>1102.7</ele>
        <time>2016-07-31T08:29:39Z</time>
      </trkpt>
      <trkpt lat="42.42273" lon="0.02587">
        <ele>1102.7</ele>
        <time>2016-07-31T08:29:40Z</time>
      </trkpt>
      <trkpt lat="42.42276" lon="0.0259">
        <ele>1102.8</ele>
        <time>2016-07-31T08:29:41Z</time>
      </trkpt>
      <trkpt lat="42.42278" lon="0.02592">
        <ele>1102.9</ele>
        <time>2016-07-31T08:29:42Z</time>
      </trkpt>
      <trkpt lat="42.42281" lon="0.02595">
        <ele>1103</ele>
        <time>2016-07-31T08:29:43Z</time>
      </trkpt>
      <trkpt lat="42.42283" lon="0.02597">
        <ele>1103.1</ele>
        <time>2016-07-31T08:29:44Z</time>
      </trkpt>
      <trkpt lat="42.42285" lon="0.02599">
        <ele>1103.2</ele>
        <time>2016-07-31T08:29:45Z</time>
      </trkpt>
      <trkpt lat="42.42288" lon="0.02601">
        <ele>1103.3</ele>
        <time>2016-07-31T08:29:46Z</time>
      </trkpt>
      <trkpt lat="42.4229" lon="0.02604">
        <ele>1103.4</ele>
        <time>2016-07-31T08:29:47Z</time>
      </trkpt>
      <trkpt lat="42.42292" lon="0.02606">
        <ele>1103.5</ele>
        <time>2016-07-31T08:29:48Z</time>
      </trkpt>
      <trkpt lat="42.42296" lon="0.0261">
        <ele>1103.5</ele>
        <time>2016-07-31T08:29:50Z</time>
      </trkpt>
      <trkpt lat="42.423" lon="0.02614">
        <ele>1103.5</ele>
        <time>2016-07-31T08:29:52Z</time>
      </trkpt>
      <trkpt lat="42.42305" lon="0.02617">
        <ele>1103.5</ele>
        <time>2016-07-31T08:29:54Z</time>
      </trkpt>
      <trkpt lat="42.42308" lon="0.02619">
        <ele>1103.5</ele>
        <time>2016-07-31T08:29:55Z</time>
      </trkpt>
      <trkpt lat="42.4231" lon="0.02621">
        <ele>1103.6</ele>
        <time>2016-07-31T08:29:56Z</time>
      </trkpt>
      <trkpt lat="42.42313" lon="0.02624">
        <ele>1103.7</ele>
        <time>2016-07-31T08:29:57Z</time>
      </trkpt>
      <trkpt lat="42.42315" lon="0.02627">
        <ele>1103.7</ele>
        <time>2016-07-31T08:29:58Z</time>
      </trkpt>
      <trkpt lat="42.42317" lon="0.02629">
        <ele>1103.7</ele>
        <time>2016-07-31T08:29:59Z</time>
      </trkpt>
      <trkpt lat="42.42319" lon="0.02632">
        <ele>1103.7</ele>
        <time>2016-07-31T08:30:00Z</time>
      </trkpt>
      <trkpt lat="42.42322" lon="0.02635">
        <ele>1103.7</ele>
        <time>2016-07-31T08:30:01Z</time>
      </trkpt>
      <trkpt lat="42.42324" lon="0.02638">
        <ele>1103.7</ele>
        <time>2016-07-31T08:30:02Z</time>
      </trkpt>
      <trkpt lat="42.42326" lon="0.02641">
        <ele>1103.8</ele>
        <time>2016-07-31T08:30:03Z</time>
      </trkpt>
      <trkpt lat="42.42328" lon="0.02645">
        <ele>1103.8</ele>
        <time>2016-07-31T08:30:04Z</time>
      </trkpt>
      <trkpt lat="42.42331" lon="0.02648">
        <ele>1103.9</ele>
        <time>2016-07-31T08:30:05Z</time>
      </trkpt>
      <trkpt lat="42.42333" lon="0.02651">
        <ele>1104</ele>
        <time>2016-07-31T08:30:06Z</time>
      </trkpt>
      <trkpt lat="42.42335" lon="0.02654">
        <ele>1104</ele>
        <time>2016-07-31T08:30:07Z</time>
      </trkpt>
      <trkpt lat="42.42338" lon="0.02656">
        <ele>1104.2</ele>
        <time>2016-07-31T08:30:08Z</time>
      </trkpt>
      <trkpt lat="42.4234" lon="0.02659">
        <ele>1104.3</ele>
        <time>2016-07-31T08:30:09Z</time>
      </trkpt>
      <trkpt lat="42.42343" lon="0.02662">
        <ele>1104.4</ele>
        <time>2016-07-31T08:30:10Z</time>
      </trkpt>
      <trkpt lat="42.42346" lon="0.02664">
        <ele>1104.5</ele>
        <time>2016-07-31T08:30:11Z</time>
      </trkpt>
      <trkpt lat="42.42348" lon="0.02667">
        <ele>1104.7</ele>
        <time>2016-07-31T08:30:12Z</time>
      </trkpt>
      <trkpt lat="42.42351" lon="0.02669">
        <ele>1104.9</ele>
        <time>2016-07-31T08:30:13Z</time>
      </trkpt>
      <trkpt lat="42.42353" lon="0.02671">
        <ele>1105</ele>
        <time>2016-07-31T08:30:14Z</time>
      </trkpt>
      <trkpt lat="42.42356" lon="0.02674">
        <ele>1105.2</ele>
        <time>2016-07-31T08:30:15Z</time>
      </trkpt>
      <trkpt lat="42.42358" lon="0.02676">
        <ele>1105.4</ele>
        <time>2016-07-31T08:30:16Z</time>
      </trkpt>
      <trkpt lat="42.4236" lon="0.02678">
        <ele>1105.6</ele>
        <time>2016-07-31T08:30:17Z</time>
      </trkpt>
      <trkpt lat="42.42363" lon="0.0268">
        <ele>1105.8</ele>
        <time>2016-07-31T08:30:18Z</time>
      </trkpt>
      <trkpt lat="42.42365" lon="0.02682">
        <ele>1106</ele>
        <time>2016-07-31T08:30:19Z</time>
      </trkpt>
      <trkpt lat="42.4237" lon="0.02686">
        <ele>1106.4</ele>
        <time>2016-07-31T08:30:21Z</time>
      </trkpt>
      <trkpt lat="42.42372" lon="0.02688">
        <ele>1106.6</ele>
        <time>2016-07-31T08:30:22Z</time>
      </trkpt>
      <trkpt lat="42.42374" lon="0.0269">
        <ele>1106.8</ele>
        <time>2016-07-31T08:30:23Z</time>
      </trkpt>
      <trkpt lat="42.42377" lon="0.02692">
        <ele>1106.9</ele>
        <time>2016-07-31T08:30:24Z</time>
      </trkpt>
      <trkpt lat="42.42379" lon="0.02693">
        <ele>1106.8</ele>
        <time>2016-07-31T08:30:25Z</time>
      </trkpt>
      <trkpt lat="42.42382" lon="0.02695">
        <ele>1106.7</ele>
        <time>2016-07-31T08:30:26Z</time>
      </trkpt>
      <trkpt lat="42.42385" lon="0.02696">
        <ele>1106.7</ele>
        <time>2016-07-31T08:30:27Z</time>
      </trkpt>
      <trkpt lat="42.42387" lon="0.02698">
        <ele>1106.7</ele>
        <time>2016-07-31T08:30:28Z</time>
      </trkpt>
      <trkpt lat="42.4239" lon="0.02699">
        <ele>1106.7</ele>
        <time>2016-07-31T08:30:29Z</time>
      </trkpt>
      <trkpt lat="42.42393" lon="0.02701">
        <ele>1106.7</ele>
        <time>2016-07-31T08:30:30Z</time>
      </trkpt>
      <trkpt lat="42.42395" lon="0.02703">
        <ele>1106.7</ele>
        <time>2016-07-31T08:30:31Z</time>
      </trkpt>
      <trkpt lat="42.42398" lon="0.02704">
        <ele>1106.7</ele>
        <time>2016-07-31T08:30:32Z</time>
      </trkpt>
      <trkpt lat="42.42401" lon="0.02706">
        <ele>1106.8</ele>
        <time>2016-07-31T08:30:33Z</time>
      </trkpt>
      <trkpt lat="42.42405" lon="0.02709">
        <ele>1106.9</ele>
        <time>2016-07-31T08:30:35Z</time>
      </trkpt>
      <trkpt lat="42.42408" lon="0.02711">
        <ele>1106.9</ele>
        <time>2016-07-31T08:30:37Z</time>
      </trkpt>
      <trkpt lat="42.42411" lon="0.02713">
        <ele>1106.9</ele>
        <time>2016-07-31T08:30:39Z</time>
      </trkpt>
      <trkpt lat="42.42415" lon="0.02716">
        <ele>1107</ele>
        <time>2016-07-31T08:30:41Z</time>
      </trkpt>
      <trkpt lat="42.42419" lon="0.02718">
        <ele>1107</ele>
        <time>2016-07-31T08:30:43Z</time>
      </trkpt>
      <trkpt lat="42.42422" lon="0.02722">
        <ele>1107.1</ele>
        <time>2016-07-31T08:30:45Z</time>
      </trkpt>
      <trkpt lat="42.42426" lon="0.02725">
        <ele>1107.3</ele>
        <time>2016-07-31T08:30:47Z</time>
      </trkpt>
      <trkpt lat="42.42431" lon="0.02728">
        <ele>1107.4</ele>
        <time>2016-07-31T08:30:49Z</time>
      </trkpt>
      <trkpt lat="42.42433" lon="0.0273">
        <ele>1107.5</ele>
        <time>2016-07-31T08:30:50Z</time>
      </trkpt>
      <trkpt lat="42.42436" lon="0.02731">
        <ele>1107.6</ele>
        <time>2016-07-31T08:30:51Z</time>
      </trkpt>
      <trkpt lat="42.42439" lon="0.02733">
        <ele>1107.7</ele>
        <time>2016-07-31T08:30:52Z</time>
      </trkpt>
      <trkpt lat="42.42442" lon="0.02735">
        <ele>1107.9</ele>
        <time>2016-07-31T08:30:53Z</time>
      </trkpt>
      <trkpt lat="42.42444" lon="0.02737">
        <ele>1108.1</ele>
        <time>2016-07-31T08:30:54Z</time>
      </trkpt>
      <trkpt lat="42.42447" lon="0.02739">
        <ele>1108.3</ele>
        <time>2016-07-31T08:30:55Z</time>
      </trkpt>
      <trkpt lat="42.4245" lon="0.02741">
        <ele>1108.5</ele>
        <time>2016-07-31T08:30:56Z</time>
      </trkpt>
      <trkpt lat="42.42452" lon="0.02744">
        <ele>1108.8</ele>
        <time>2016-07-31T08:30:57Z</time>
      </trkpt>
      <trkpt lat="42.42455" lon="0.02746">
        <ele>1109</ele>
        <time>2016-07-31T08:30:58Z</time>
      </trkpt>
      <trkpt lat="42.42457" lon="0.02749">
        <ele>1109.3</ele>
        <time>2016-07-31T08:30:59Z</time>
      </trkpt>
      <trkpt lat="42.4246" lon="0.02751">
        <ele>1109.5</ele>
        <time>2016-07-31T08:31:00Z</time>
      </trkpt>
      <trkpt lat="42.42462" lon="0.02753">
        <ele>1109.6</ele>
        <time>2016-07-31T08:31:01Z</time>
      </trkpt>
      <trkpt lat="42.42464" lon="0.02755">
        <ele>1109.7</ele>
        <time>2016-07-31T08:31:02Z</time>
      </trkpt>
      <trkpt lat="42.42467" lon="0.02758">
        <ele>1109.9</ele>
        <time>2016-07-31T08:31:03Z</time>
      </trkpt>
      <trkpt lat="42.4247" lon="0.02762">
        <ele>1110.2</ele>
        <time>2016-07-31T08:31:05Z</time>
      </trkpt>
      <trkpt lat="42.42474" lon="0.02766">
        <ele>1110.6</ele>
        <time>2016-07-31T08:31:07Z</time>
      </trkpt>
      <trkpt lat="42.42477" lon="0.02769">
        <ele>1110.8</ele>
        <time>2016-07-31T08:31:09Z</time>
      </trkpt>
      <trkpt lat="42.4248" lon="0.02771">
        <ele>1111</ele>
        <time>2016-07-31T08:31:11Z</time>
      </trkpt>
      <trkpt lat="42.42483" lon="0.02774">
        <ele>1111.3</ele>
        <time>2016-07-31T08:31:14Z</time>
      </trkpt>
      <trkpt lat="42.42486" lon="0.02777">
        <ele>1111.6</ele>
        <time>2016-07-31T08:31:16Z</time>
      </trkpt>
      <trkpt lat="42.42487" lon="0.02781">
        <ele>1112.2</ele>
        <time>2016-07-31T08:32:01Z</time>
      </trkpt>
      <trkpt lat="42.42489" lon="0.02784">
        <ele>1112.5</ele>
        <time>2016-07-31T08:32:03Z</time>
      </trkpt>
      <trkpt lat="42.42494" lon="0.02787">
        <ele>1112.9</ele>
        <time>2016-07-31T08:32:05Z</time>
      </trkpt>
      <trkpt lat="42.42496" lon="0.0279">
        <ele>1113.2</ele>
        <time>2016-07-31T08:32:06Z</time>
      </trkpt>
      <trkpt lat="42.42499" lon="0.02793">
        <ele>1113.5</ele>
        <time>2016-07-31T08:32:07Z</time>
      </trkpt>
      <trkpt lat="42.42501" lon="0.02796">
        <ele>1113.6</ele>
        <time>2016-07-31T08:32:08Z</time>
      </trkpt>
      <trkpt lat="42.42504" lon="0.028">
        <ele>1113.8</ele>
        <time>2016-07-31T08:32:09Z</time>
      </trkpt>
      <trkpt lat="42.42506" lon="0.02804">
        <ele>1113.9</ele>
        <time>2016-07-31T08:32:10Z</time>
      </trkpt>
      <trkpt lat="42.42508" lon="0.02807">
        <ele>1114</ele>
        <time>2016-07-31T08:32:11Z</time>
      </trkpt>
      <trkpt lat="42.42511" lon="0.0281">
        <ele>1114.1</ele>
        <time>2016-07-31T08:32:12Z</time>
      </trkpt>
      <trkpt lat="42.42514" lon="0.02813">
        <ele>1114.2</ele>
        <time>2016-07-31T08:32:13Z</time>
      </trkpt>
      <trkpt lat="42.42517" lon="0.02816">
        <ele>1114.3</ele>
        <time>2016-07-31T08:32:14Z</time>
      </trkpt>
      <trkpt lat="42.4252" lon="0.0282">
        <ele>1114.4</ele>
        <time>2016-07-31T08:32:15Z</time>
      </trkpt>
      <trkpt lat="42.42523" lon="0.02823">
        <ele>1114.6</ele>
        <time>2016-07-31T08:32:16Z</time>
      </trkpt>
      <trkpt lat="42.42526" lon="0.02827">
        <ele>1114.7</ele>
        <time>2016-07-31T08:32:17Z</time>
      </trkpt>
      <trkpt lat="42.42529" lon="0.02832">
        <ele>1114.9</ele>
        <time>2016-07-31T08:32:18Z</time>
      </trkpt>
      <trkpt lat="42.42531" lon="0.02837">
        <ele>1115.2</ele>
        <time>2016-07-31T08:32:19Z</time>
      </trkpt>
      <trkpt lat="42.42534" lon="0.02842">
        <ele>1115.4</ele>
        <time>2016-07-31T08:32:20Z</time>
      </trkpt>
      <trkpt lat="42.42536" lon="0.02848">
        <ele>1115.7</ele>
        <time>2016-07-31T08:32:21Z</time>
      </trkpt>
      <trkpt lat="42.42539" lon="0.02854">
        <ele>1116</ele>
        <time>2016-07-31T08:32:22Z</time>
      </trkpt>
      <trkpt lat="42.42542" lon="0.0286">
        <ele>1116.2</ele>
        <time>2016-07-31T08:32:23Z</time>
      </trkpt>
      <trkpt lat="42.42546" lon="0.02867">
        <ele>1116</ele>
        <time>2016-07-31T08:32:24Z</time>
      </trkpt>
      <trkpt lat="42.42549" lon="0.02874">
        <ele>1115.9</ele>
        <time>2016-07-31T08:32:25Z</time>
      </trkpt>
      <trkpt lat="42.42552" lon="0.02881">
        <ele>1115.4</ele>
        <time>2016-07-31T08:32:26Z</time>
      </trkpt>
      <trkpt lat="42.42556" lon="0.02888">
        <ele>1114.9</ele>
        <time>2016-07-31T08:32:27Z</time>
      </trkpt>
      <trkpt lat="42.42559" lon="0.02895">
        <ele>1114.4</ele>
        <time>2016-07-31T08:32:28Z</time>
      </trkpt>
      <trkpt lat="42.42563" lon="0.02901">
        <ele>1113.9</ele>
        <time>2016-07-31T08:32:29Z</time>
      </trkpt>
      <trkpt lat="42.42567" lon="0.02907">
        <ele>1113.4</ele>
        <time>2016-07-31T08:32:30Z</time>
      </trkpt>
      <trkpt lat="42.42569" lon="0.02914">
        <ele>1113</ele>
        <time>2016-07-31T08:32:31Z</time>
      </trkpt>
      <trkpt lat="42.42572" lon="0.02921">
        <ele>1112.7</ele>
        <time>2016-07-31T08:32:32Z</time>
      </trkpt>
      <trkpt lat="42.42575" lon="0.02929">
        <ele>1112.3</ele>
        <time>2016-07-31T08:32:33Z</time>
      </trkpt>
      <trkpt lat="42.42577" lon="0.02936">
        <ele>1112.1</ele>
        <time>2016-07-31T08:32:34Z</time>
      </trkpt>
      <trkpt lat="42.4258" lon="0.02944">
        <ele>1111.8</ele>
        <time>2016-07-31T08:32:35Z</time>
      </trkpt>
      <trkpt lat="42.42584" lon="0.02951">
        <ele>1111.4</ele>
        <time>2016-07-31T08:32:36Z</time>
      </trkpt>
      <trkpt lat="42.42587" lon="0.02959">
        <ele>1111.1</ele>
        <time>2016-07-31T08:32:37Z</time>
      </trkpt>
      <trkpt lat="42.4259" lon="0.02967">
        <ele>1110.3</ele>
        <time>2016-07-31T08:32:38Z</time>
      </trkpt>
      <trkpt lat="42.42593" lon="0.02976">
        <ele>1109.6</ele>
        <time>2016-07-31T08:32:39Z</time>
      </trkpt>
      <trkpt lat="42.42596" lon="0.02983">
        <ele>1108.8</ele>
        <time>2016-07-31T08:32:40Z</time>
      </trkpt>
      <trkpt lat="42.42599" lon="0.02992">
        <ele>1108.1</ele>
        <time>2016-07-31T08:32:41Z</time>
      </trkpt>
      <trkpt lat="42.42602" lon="0.03">
        <ele>1107.5</ele>
        <time>2016-07-31T08:32:42Z</time>
      </trkpt>
      <trkpt lat="42.42604" lon="0.03008">
        <ele>1106.9</ele>
        <time>2016-07-31T08:32:43Z</time>
      </trkpt>
      <trkpt lat="42.42607" lon="0.03015">
        <ele>1106.3</ele>
        <time>2016-07-31T08:32:44Z</time>
      </trkpt>
      <trkpt lat="42.4261" lon="0.03024">
        <ele>1105.7</ele>
        <time>2016-07-31T08:32:45Z</time>
      </trkpt>
      <trkpt lat="42.42613" lon="0.03031">
        <ele>1105.1</ele>
        <time>2016-07-31T08:32:46Z</time>
      </trkpt>
      <trkpt lat="42.42616" lon="0.03039">
        <ele>1104.6</ele>
        <time>2016-07-31T08:32:47Z</time>
      </trkpt>
      <trkpt lat="42.42618" lon="0.03047">
        <ele>1104</ele>
        <time>2016-07-31T08:32:48Z</time>
      </trkpt>
      <trkpt lat="42.4262" lon="0.03055">
        <ele>1103.3</ele>
        <time>2016-07-31T08:32:49Z</time>
      </trkpt>
      <trkpt lat="42.42621" lon="0.03062">
        <ele>1102.7</ele>
        <time>2016-07-31T08:32:50Z</time>
      </trkpt>
      <trkpt lat="42.42623" lon="0.03069">
        <ele>1102.1</ele>
        <time>2016-07-31T08:32:51Z</time>
      </trkpt>
      <trkpt lat="42.42625" lon="0.03076">
        <ele>1101.5</ele>
        <time>2016-07-31T08:32:52Z</time>
      </trkpt>
      <trkpt lat="42.42627" lon="0.03083">
        <ele>1100.9</ele>
        <time>2016-07-31T08:32:53Z</time>
      </trkpt>
      <trkpt lat="42.42629" lon="0.0309">
        <ele>1100.3</ele>
        <time>2016-07-31T08:32:54Z</time>
      </trkpt>
      <trkpt lat="42.42631" lon="0.03097">
        <ele>1099.8</ele>
        <time>2016-07-31T08:32:55Z</time>
      </trkpt>
      <trkpt lat="42.42633" lon="0.03103">
        <ele>1099.4</ele>
        <time>2016-07-31T08:32:56Z</time>
      </trkpt>
      <trkpt lat="42.42635" lon="0.0311">
        <ele>1099</ele>
        <time>2016-07-31T08:32:57Z</time>
      </trkpt>
      <trkpt lat="42.42637" lon="0.03116">
        <ele>1098.6</ele>
        <time>2016-07-31T08:32:58Z</time>
      </trkpt>
      <trkpt lat="42.42639" lon="0.03122">
        <ele>1098.3</ele>
        <time>2016-07-31T08:32:59Z</time>
      </trkpt>
      <trkpt lat="42.42641" lon="0.03128">
        <ele>1097.9</ele>
        <time>2016-07-31T08:33:00Z</time>
      </trkpt>
      <trkpt lat="42.42644" lon="0.03135">
        <ele>1097.5</ele>
        <time>2016-07-31T08:33:01Z</time>
      </trkpt>
      <trkpt lat="42.42646" lon="0.03141">
        <ele>1097</ele>
        <time>2016-07-31T08:33:02Z</time>
      </trkpt>
      <trkpt lat="42.42648" lon="0.03147">
        <ele>1096.7</ele>
        <time>2016-07-31T08:33:03Z</time>
      </trkpt>
      <trkpt lat="42.42651" lon="0.03153">
        <ele>1096.4</ele>
        <time>2016-07-31T08:33:04Z</time>
      </trkpt>
      <trkpt lat="42.42653" lon="0.03158">
        <ele>1096.1</ele>
        <time>2016-07-31T08:33:05Z</time>
      </trkpt>
      <trkpt lat="42.42655" lon="0.03164">
        <ele>1095.8</ele>
        <time>2016-07-31T08:33:06Z</time>
      </trkpt>
      <trkpt lat="42.42657" lon="0.03169">
        <ele>1095.6</ele>
        <time>2016-07-31T08:33:07Z</time>
      </trkpt>
      <trkpt lat="42.4266" lon="0.03174">
        <ele>1095.5</ele>
        <time>2016-07-31T08:33:08Z</time>
      </trkpt>
      <trkpt lat="42.42664" lon="0.03176">
        <ele>1095.6</ele>
        <time>2016-07-31T08:33:09Z</time>
      </trkpt>
      <trkpt lat="42.42669" lon="0.03178">
        <ele>1095.8</ele>
        <time>2016-07-31T08:33:10Z</time>
      </trkpt>
      <trkpt lat="42.42674" lon="0.03179">
        <ele>1096</ele>
        <time>2016-07-31T08:33:11Z</time>
      </trkpt>
      <trkpt lat="42.42678" lon="0.03181">
        <ele>1096.2</ele>
        <time>2016-07-31T08:33:12Z</time>
      </trkpt>
      <trkpt lat="42.42682" lon="0.03184">
        <ele>1096.4</ele>
        <time>2016-07-31T08:33:13Z</time>
      </trkpt>
      <trkpt lat="42.42687" lon="0.03185">
        <ele>1096.7</ele>
        <time>2016-07-31T08:33:14Z</time>
      </trkpt>
      <trkpt lat="42.42691" lon="0.03187">
        <ele>1096.9</ele>
        <time>2016-07-31T08:33:15Z</time>
      </trkpt>
      <trkpt lat="42.42695" lon="0.03189">
        <ele>1097.2</ele>
        <time>2016-07-31T08:33:16Z</time>
      </trkpt>
      <trkpt lat="42.427" lon="0.03191">
        <ele>1097.5</ele>
        <time>2016-07-31T08:33:17Z</time>
      </trkpt>
      <trkpt lat="42.42704" lon="0.03193">
        <ele>1097.9</ele>
        <time>2016-07-31T08:33:18Z</time>
      </trkpt>
      <trkpt lat="42.42709" lon="0.03196">
        <ele>1098.1</ele>
        <time>2016-07-31T08:33:19Z</time>
      </trkpt>
      <trkpt lat="42.42713" lon="0.03198">
        <ele>1097.8</ele>
        <time>2016-07-31T08:33:20Z</time>
      </trkpt>
      <trkpt lat="42.42717" lon="0.03202">
        <ele>1097.5</ele>
        <time>2016-07-31T08:33:21Z</time>
      </trkpt>
      <trkpt lat="42.42721" lon="0.03206">
        <ele>1097.4</ele>
        <time>2016-07-31T08:33:22Z</time>
      </trkpt>
      <trkpt lat="42.42725" lon="0.0321">
        <ele>1097</ele>
        <time>2016-07-31T08:33:23Z</time>
      </trkpt>
      <trkpt lat="42.42729" lon="0.03215">
        <ele>1096.4</ele>
        <time>2016-07-31T08:33:24Z</time>
      </trkpt>
      <trkpt lat="42.42734" lon="0.03219">
        <ele>1095.8</ele>
        <time>2016-07-31T08:33:25Z</time>
      </trkpt>
      <trkpt lat="42.42738" lon="0.03224">
        <ele>1095.2</ele>
        <time>2016-07-31T08:33:26Z</time>
      </trkpt>
      <trkpt lat="42.42743" lon="0.03229">
        <ele>1094.6</ele>
        <time>2016-07-31T08:33:27Z</time>
      </trkpt>
      <trkpt lat="42.42748" lon="0.03234">
        <ele>1093.9</ele>
        <time>2016-07-31T08:33:28Z</time>
      </trkpt>
      <trkpt lat="42.42752" lon="0.03239">
        <ele>1093.3</ele>
        <time>2016-07-31T08:33:29Z</time>
      </trkpt>
      <trkpt lat="42.42757" lon="0.03243">
        <ele>1092.8</ele>
        <time>2016-07-31T08:33:30Z</time>
      </trkpt>
      <trkpt lat="42.42761" lon="0.03246">
        <ele>1092.4</ele>
        <time>2016-07-31T08:33:31Z</time>
      </trkpt>
      <trkpt lat="42.42765" lon="0.03248">
        <ele>1092.2</ele>
        <time>2016-07-31T08:33:32Z</time>
      </trkpt>
      <trkpt lat="42.42768" lon="0.03248">
        <ele>1092</ele>
        <time>2016-07-31T08:33:33Z</time>
      </trkpt>
      <trkpt lat="42.42772" lon="0.03248">
        <ele>1091.9</ele>
        <time>2016-07-31T08:33:34Z</time>
      </trkpt>
      <trkpt lat="42.42775" lon="0.03248">
        <ele>1091.8</ele>
        <time>2016-07-31T08:33:35Z</time>
      </trkpt>
      <trkpt lat="42.42778" lon="0.03253">
        <ele>1091.3</ele>
        <time>2016-07-31T08:33:37Z</time>
      </trkpt>
      <trkpt lat="42.42779" lon="0.03258">
        <ele>1090.9</ele>
        <time>2016-07-31T08:33:38Z</time>
      </trkpt>
      <trkpt lat="42.4278" lon="0.03263">
        <ele>1090.4</ele>
        <time>2016-07-31T08:33:39Z</time>
      </trkpt>
      <trkpt lat="42.42781" lon="0.03268">
        <ele>1090</ele>
        <time>2016-07-31T08:33:40Z</time>
      </trkpt>
      <trkpt lat="42.42782" lon="0.03273">
        <ele>1089.7</ele>
        <time>2016-07-31T08:33:41Z</time>
      </trkpt>
      <trkpt lat="42.42783" lon="0.03276">
        <ele>1089.4</ele>
        <time>2016-07-31T08:33:42Z</time>
      </trkpt>
      <trkpt lat="42.42785" lon="0.03279">
        <ele>1089.1</ele>
        <time>2016-07-31T08:33:43Z</time>
      </trkpt>
      <trkpt lat="42.42788" lon="0.03281">
        <ele>1088.9</ele>
        <time>2016-07-31T08:33:44Z</time>
      </trkpt>
      <trkpt lat="42.4279" lon="0.03284">
        <ele>1088.6</ele>
        <time>2016-07-31T08:33:45Z</time>
      </trkpt>
      <trkpt lat="42.42791" lon="0.03291">
        <ele>1088.1</ele>
        <time>2016-07-31T08:33:47Z</time>
      </trkpt>
      <trkpt lat="42.4279" lon="0.03297">
        <ele>1087.4</ele>
        <time>2016-07-31T08:33:49Z</time>
      </trkpt>
      <trkpt lat="42.4279" lon="0.03303">
        <ele>1086.6</ele>
        <time>2016-07-31T08:33:51Z</time>
      </trkpt>
      <trkpt lat="42.42791" lon="0.03308">
        <ele>1086</ele>
        <time>2016-07-31T08:33:53Z</time>
      </trkpt>
      <trkpt lat="42.42791" lon="0.03317">
        <ele>1085</ele>
        <time>2016-07-31T08:35:55Z</time>
      </trkpt>
      <trkpt lat="42.42791" lon="0.03323">
        <ele>1084.3</ele>
        <time>2016-07-31T08:35:57Z</time>
      </trkpt>
      <trkpt lat="42.42791" lon="0.0333">
        <ele>1083.5</ele>
        <time>2016-07-31T08:35:59Z</time>
      </trkpt>
      <trkpt lat="42.42794" lon="0.03335">
        <ele>1082.7</ele>
        <time>2016-07-31T08:36:01Z</time>
      </trkpt>
      <trkpt lat="42.42796" lon="0.03338">
        <ele>1082.3</ele>
        <time>2016-07-31T08:36:02Z</time>
      </trkpt>
      <trkpt lat="42.42798" lon="0.0334">
        <ele>1081.9</ele>
        <time>2016-07-31T08:36:03Z</time>
      </trkpt>
      <trkpt lat="42.428" lon="0.03343">
        <ele>1081.5</ele>
        <time>2016-07-31T08:36:04Z</time>
      </trkpt>
      <trkpt lat="42.42802" lon="0.03349">
        <ele>1080.6</ele>
        <time>2016-07-31T08:36:06Z</time>
      </trkpt>
      <trkpt lat="42.42806" lon="0.03354">
        <ele>1080</ele>
        <time>2016-07-31T08:36:08Z</time>
      </trkpt>
      <trkpt lat="42.42809" lon="0.03355">
        <ele>1079.7</ele>
        <time>2016-07-31T08:36:09Z</time>
      </trkpt>
      <trkpt lat="42.42812" lon="0.03356">
        <ele>1079.4</ele>
        <time>2016-07-31T08:36:10Z</time>
      </trkpt>
      <trkpt lat="42.42814" lon="0.03358">
        <ele>1079.1</ele>
        <time>2016-07-31T08:36:11Z</time>
      </trkpt>
      <trkpt lat="42.42817" lon="0.0336">
        <ele>1078.7</ele>
        <time>2016-07-31T08:36:12Z</time>
      </trkpt>
      <trkpt lat="42.4282" lon="0.03363">
        <ele>1078.3</ele>
        <time>2016-07-31T08:36:13Z</time>
      </trkpt>
      <trkpt lat="42.42823" lon="0.03366">
        <ele>1077.9</ele>
        <time>2016-07-31T08:36:14Z</time>
      </trkpt>
      <trkpt lat="42.42825" lon="0.03369">
        <ele>1077.4</ele>
        <time>2016-07-31T08:36:15Z</time>
      </trkpt>
      <trkpt lat="42.42828" lon="0.03372">
        <ele>1077</ele>
        <time>2016-07-31T08:36:16Z</time>
      </trkpt>
      <trkpt lat="42.42831" lon="0.03376">
        <ele>1076.5</ele>
        <time>2016-07-31T08:36:17Z</time>
      </trkpt>
      <trkpt lat="42.42833" lon="0.0338">
        <ele>1075.8</ele>
        <time>2016-07-31T08:36:18Z</time>
      </trkpt>
      <trkpt lat="42.42835" lon="0.03384">
        <ele>1075</ele>
        <time>2016-07-31T08:36:19Z</time>
      </trkpt>
      <trkpt lat="42.42837" lon="0.03389">
        <ele>1074.2</ele>
        <time>2016-07-31T08:36:20Z</time>
      </trkpt>
      <trkpt lat="42.42838" lon="0.03394">
        <ele>1073.4</ele>
        <time>2016-07-31T08:36:21Z</time>
      </trkpt>
      <trkpt lat="42.4284" lon="0.03399">
        <ele>1072.7</ele>
        <time>2016-07-31T08:36:22Z</time>
      </trkpt>
      <trkpt lat="42.42841" lon="0.03403">
        <ele>1072.1</ele>
        <time>2016-07-31T08:36:23Z</time>
      </trkpt>
      <trkpt lat="42.42843" lon="0.03408">
        <ele>1071.4</ele>
        <time>2016-07-31T08:36:24Z</time>
      </trkpt>
      <trkpt lat="42.42845" lon="0.03413">
        <ele>1070.7</ele>
        <time>2016-07-31T08:36:25Z</time>
      </trkpt>
      <trkpt lat="42.42847" lon="0.03418">
        <ele>1070</ele>
        <time>2016-07-31T08:36:26Z</time>
      </trkpt>
      <trkpt lat="42.42848" lon="0.03421">
        <ele>1069.5</ele>
        <time>2016-07-31T08:36:27Z</time>
      </trkpt>
      <trkpt lat="42.4285" lon="0.03424">
        <ele>1069.2</ele>
        <time>2016-07-31T08:36:28Z</time>
      </trkpt>
      <trkpt lat="42.42852" lon="0.03427">
        <ele>1068.8</ele>
        <time>2016-07-31T08:36:29Z</time>
      </trkpt>
      <trkpt lat="42.42854" lon="0.03431">
        <ele>1068.4</ele>
        <time>2016-07-31T08:36:30Z</time>
      </trkpt>
      <trkpt lat="42.42856" lon="0.03434">
        <ele>1068</ele>
        <time>2016-07-31T08:36:31Z</time>
      </trkpt>
      <trkpt lat="42.42859" lon="0.03439">
        <ele>1067.4</ele>
        <time>2016-07-31T08:36:33Z</time>
      </trkpt>
      <trkpt lat="42.42859" lon="0.03445">
        <ele>1066.7</ele>
        <time>2016-07-31T08:36:35Z</time>
      </trkpt>
      <trkpt lat="42.42861" lon="0.03451">
        <ele>1066.1</ele>
        <time>2016-07-31T08:36:37Z</time>
      </trkpt>
      <trkpt lat="42.42863" lon="0.03457">
        <ele>1065.4</ele>
        <time>2016-07-31T08:36:39Z</time>
      </trkpt>
      <trkpt lat="42.42866" lon="0.03463">
        <ele>1065</ele>
        <time>2016-07-31T08:36:41Z</time>
      </trkpt>
      <trkpt lat="42.42869" lon="0.03468">
        <ele>1064.6</ele>
        <time>2016-07-31T08:36:43Z</time>
      </trkpt>
      <trkpt lat="42.42871" lon="0.03471">
        <ele>1064.4</ele>
        <time>2016-07-31T08:36:44Z</time>
      </trkpt>
      <trkpt lat="42.42872" lon="0.03475">
        <ele>1064.2</ele>
        <time>2016-07-31T08:36:45Z</time>
      </trkpt>
      <trkpt lat="42.42875" lon="0.03481">
        <ele>1063.8</ele>
        <time>2016-07-31T08:36:47Z</time>
      </trkpt>
      <trkpt lat="42.42876" lon="0.03485">
        <ele>1063.3</ele>
        <time>2016-07-31T08:36:48Z</time>
      </trkpt>
      <trkpt lat="42.42876" lon="0.03489">
        <ele>1062.9</ele>
        <time>2016-07-31T08:36:49Z</time>
      </trkpt>
      <trkpt lat="42.42875" lon="0.03494">
        <ele>1062.6</ele>
        <time>2016-07-31T08:36:50Z</time>
      </trkpt>
      <trkpt lat="42.42874" lon="0.03498">
        <ele>1062.1</ele>
        <time>2016-07-31T08:36:51Z</time>
      </trkpt>
      <trkpt lat="42.42873" lon="0.03502">
        <ele>1061.6</ele>
        <time>2016-07-31T08:36:52Z</time>
      </trkpt>
      <trkpt lat="42.42873" lon="0.03506">
        <ele>1061.3</ele>
        <time>2016-07-31T08:36:53Z</time>
      </trkpt>
      <trkpt lat="42.42875" lon="0.0351">
        <ele>1061</ele>
        <time>2016-07-31T08:36:54Z</time>
      </trkpt>
      <trkpt lat="42.42876" lon="0.03514">
        <ele>1060.5</ele>
        <time>2016-07-31T08:36:55Z</time>
      </trkpt>
      <trkpt lat="42.42877" lon="0.03519">
        <ele>1059.9</ele>
        <time>2016-07-31T08:36:56Z</time>
      </trkpt>
      <trkpt lat="42.42876" lon="0.03524">
        <ele>1059.5</ele>
        <time>2016-07-31T08:36:57Z</time>
      </trkpt>
      <trkpt lat="42.42875" lon="0.03529">
        <ele>1059.2</ele>
        <time>2016-07-31T08:36:58Z</time>
      </trkpt>
      <trkpt lat="42.42874" lon="0.03534">
        <ele>1058.6</ele>
        <time>2016-07-31T08:36:59Z</time>
      </trkpt>
      <trkpt lat="42.42872" lon="0.03539">
        <ele>1057.9</ele>
        <time>2016-07-31T08:37:00Z</time>
      </trkpt>
      <trkpt lat="42.42871" lon="0.03544">
        <ele>1057.2</ele>
        <time>2016-07-31T08:37:01Z</time>
      </trkpt>
      <trkpt lat="42.42869" lon="0.03549">
        <ele>1056.6</ele>
        <time>2016-07-31T08:37:02Z</time>
      </trkpt>
      <trkpt lat="42.42868" lon="0.03554">
        <ele>1056.2</ele>
        <time>2016-07-31T08:37:03Z</time>
      </trkpt>
      <trkpt lat="42.42869" lon="0.03559">
        <ele>1055.8</ele>
        <time>2016-07-31T08:37:04Z</time>
      </trkpt>
      <trkpt lat="42.4287" lon="0.03564">
        <ele>1055.7</ele>
        <time>2016-07-31T08:37:05Z</time>
      </trkpt>
      <trkpt lat="42.42873" lon="0.03569">
        <ele>1055.7</ele>
        <time>2016-07-31T08:37:06Z</time>
      </trkpt>
      <trkpt lat="42.42876" lon="0.03575">
        <ele>1055.6</ele>
        <time>2016-07-31T08:37:07Z</time>
      </trkpt>
      <trkpt lat="42.42879" lon="0.0358">
        <ele>1054.9</ele>
        <time>2016-07-31T08:37:08Z</time>
      </trkpt>
      <trkpt lat="42.42882" lon="0.03585">
        <ele>1054.2</ele>
        <time>2016-07-31T08:37:09Z</time>
      </trkpt>
      <trkpt lat="42.42885" lon="0.03591">
        <ele>1053.6</ele>
        <time>2016-07-31T08:37:10Z</time>
      </trkpt>
      <trkpt lat="42.42888" lon="0.03596">
        <ele>1053</ele>
        <time>2016-07-31T08:37:11Z</time>
      </trkpt>
      <trkpt lat="42.42892" lon="0.03602">
        <ele>1052.5</ele>
        <time>2016-07-31T08:37:12Z</time>
      </trkpt>
      <trkpt lat="42.42895" lon="0.03608">
        <ele>1051.9</ele>
        <time>2016-07-31T08:37:13Z</time>
      </trkpt>
      <trkpt lat="42.42898" lon="0.03614">
        <ele>1051.4</ele>
        <time>2016-07-31T08:37:14Z</time>
      </trkpt>
      <trkpt lat="42.42902" lon="0.03619">
        <ele>1051</ele>
        <time>2016-07-31T08:37:15Z</time>
      </trkpt>
      <trkpt lat="42.42905" lon="0.03625">
        <ele>1050.6</ele>
        <time>2016-07-31T08:37:16Z</time>
      </trkpt>
      <trkpt lat="42.42908" lon="0.03631">
        <ele>1050.1</ele>
        <time>2016-07-31T08:37:17Z</time>
      </trkpt>
      <trkpt lat="42.42911" lon="0.03636">
        <ele>1049.6</ele>
        <time>2016-07-31T08:37:18Z</time>
      </trkpt>
      <trkpt lat="42.42914" lon="0.03642">
        <ele>1049.2</ele>
        <time>2016-07-31T08:37:19Z</time>
      </trkpt>
      <trkpt lat="42.42917" lon="0.03648">
        <ele>1048.8</ele>
        <time>2016-07-31T08:37:20Z</time>
      </trkpt>
      <trkpt lat="42.4292" lon="0.03652">
        <ele>1048.4</ele>
        <time>2016-07-31T08:37:21Z</time>
      </trkpt>
      <trkpt lat="42.42921" lon="0.03656">
        <ele>1048.2</ele>
        <time>2016-07-31T08:37:22Z</time>
      </trkpt>
      <trkpt lat="42.42923" lon="0.03659">
        <ele>1047.9</ele>
        <time>2016-07-31T08:37:24Z</time>
      </trkpt>
      <trkpt lat="42.42926" lon="0.03661">
        <ele>1047.7</ele>
        <time>2016-07-31T08:37:27Z</time>
      </trkpt>
      <trkpt lat="42.42929" lon="0.03663">
        <ele>1047.6</ele>
        <time>2016-07-31T08:37:29Z</time>
      </trkpt>
      <trkpt lat="42.42931" lon="0.03667">
        <ele>1047.3</ele>
        <time>2016-07-31T08:37:31Z</time>
      </trkpt>
      <trkpt lat="42.42933" lon="0.0367">
        <ele>1047.1</ele>
        <time>2016-07-31T08:37:33Z</time>
      </trkpt>
      <trkpt lat="42.42936" lon="0.03674">
        <ele>1046.8</ele>
        <time>2016-07-31T08:37:35Z</time>
      </trkpt>
      <trkpt lat="42.42939" lon="0.03677">
        <ele>1046.7</ele>
        <time>2016-07-31T08:37:36Z</time>
      </trkpt>
      <trkpt lat="42.42941" lon="0.03679">
        <ele>1046.5</ele>
        <time>2016-07-31T08:37:37Z</time>
      </trkpt>
      <trkpt lat="42.42943" lon="0.03682">
        <ele>1046.3</ele>
        <time>2016-07-31T08:37:38Z</time>
      </trkpt>
      <trkpt lat="42.42946" lon="0.03687">
        <ele>1046</ele>
        <time>2016-07-31T08:37:40Z</time>
      </trkpt>
      <trkpt lat="42.42947" lon="0.03691">
        <ele>1045.9</ele>
        <time>2016-07-31T08:37:41Z</time>
      </trkpt>
      <trkpt lat="42.42948" lon="0.03694">
        <ele>1045.7</ele>
        <time>2016-07-31T08:37:42Z</time>
      </trkpt>
      <trkpt lat="42.42948" lon="0.03698">
        <ele>1045.5</ele>
        <time>2016-07-31T08:37:43Z</time>
      </trkpt>
      <trkpt lat="42.42948" lon="0.03702">
        <ele>1045.4</ele>
        <time>2016-07-31T08:37:44Z</time>
      </trkpt>
      <trkpt lat="42.42947" lon="0.03706">
        <ele>1045.2</ele>
        <time>2016-07-31T08:37:45Z</time>
      </trkpt>
      <trkpt lat="42.42945" lon="0.03712">
        <ele>1044.9</ele>
        <time>2016-07-31T08:37:47Z</time>
      </trkpt>
      <trkpt lat="42.42943" lon="0.03715">
        <ele>1044.8</ele>
        <time>2016-07-31T08:37:48Z</time>
      </trkpt>
      <trkpt lat="42.42939" lon="0.03719">
        <ele>1044.6</ele>
        <time>2016-07-31T08:37:50Z</time>
      </trkpt>
      <trkpt lat="42.42937" lon="0.03722">
        <ele>1044.5</ele>
        <time>2016-07-31T08:37:51Z</time>
      </trkpt>
      <trkpt lat="42.42935" lon="0.03725">
        <ele>1044.2</ele>
        <time>2016-07-31T08:37:52Z</time>
      </trkpt>
      <trkpt lat="42.42933" lon="0.0373">
        <ele>1044</ele>
        <time>2016-07-31T08:37:53Z</time>
      </trkpt>
      <trkpt lat="42.42931" lon="0.03734">
        <ele>1043.7</ele>
        <time>2016-07-31T08:37:54Z</time>
      </trkpt>
      <trkpt lat="42.42929" lon="0.0374">
        <ele>1043.3</ele>
        <time>2016-07-31T08:37:55Z</time>
      </trkpt>
      <trkpt lat="42.42926" lon="0.03745">
        <ele>1043</ele>
        <time>2016-07-31T08:37:56Z</time>
      </trkpt>
      <trkpt lat="42.42923" lon="0.03749">
        <ele>1042.6</ele>
        <time>2016-07-31T08:37:57Z</time>
      </trkpt>
      <trkpt lat="42.42921" lon="0.03752">
        <ele>1042.4</ele>
        <time>2016-07-31T08:37:58Z</time>
      </trkpt>
      <trkpt lat="42.42918" lon="0.03756">
        <ele>1042.1</ele>
        <time>2016-07-31T08:38:00Z</time>
      </trkpt>
      <trkpt lat="42.42918" lon="0.03762">
        <ele>1041.7</ele>
        <time>2016-07-31T08:38:02Z</time>
      </trkpt>
      <trkpt lat="42.42917" lon="0.03768">
        <ele>1041.2</ele>
        <time>2016-07-31T08:38:03Z</time>
      </trkpt>
      <trkpt lat="42.42915" lon="0.03774">
        <ele>1040.7</ele>
        <time>2016-07-31T08:38:04Z</time>
      </trkpt>
      <trkpt lat="42.42913" lon="0.03781">
        <ele>1040.1</ele>
        <time>2016-07-31T08:38:05Z</time>
      </trkpt>
      <trkpt lat="42.42911" lon="0.03788">
        <ele>1039.5</ele>
        <time>2016-07-31T08:38:06Z</time>
      </trkpt>
      <trkpt lat="42.42908" lon="0.03795">
        <ele>1038.9</ele>
        <time>2016-07-31T08:38:07Z</time>
      </trkpt>
      <trkpt lat="42.42907" lon="0.03801">
        <ele>1038.4</ele>
        <time>2016-07-31T08:38:08Z</time>
      </trkpt>
      <trkpt lat="42.42907" lon="0.03806">
        <ele>1037.9</ele>
        <time>2016-07-31T08:38:09Z</time>
      </trkpt>
      <trkpt lat="42.42909" lon="0.0381">
        <ele>1037.6</ele>
        <time>2016-07-31T08:38:10Z</time>
      </trkpt>
      <trkpt lat="42.42912" lon="0.03815">
        <ele>1037.3</ele>
        <time>2016-07-31T08:38:11Z</time>
      </trkpt>
      <trkpt lat="42.42914" lon="0.03819">
        <ele>1037.1</ele>
        <time>2016-07-31T08:38:12Z</time>
      </trkpt>
      <trkpt lat="42.42917" lon="0.03825">
        <ele>1036.7</ele>
        <time>2016-07-31T08:38:13Z</time>
      </trkpt>
      <trkpt lat="42.4292" lon="0.03831">
        <ele>1036.4</ele>
        <time>2016-07-31T08:38:14Z</time>
      </trkpt>
      <trkpt lat="42.42921" lon="0.03838">
        <ele>1035.9</ele>
        <time>2016-07-31T08:38:15Z</time>
      </trkpt>
      <trkpt lat="42.42922" lon="0.03845">
        <ele>1035.4</ele>
        <time>2016-07-31T08:38:16Z</time>
      </trkpt>
      <trkpt lat="42.42923" lon="0.03852">
        <ele>1034.8</ele>
        <time>2016-07-31T08:38:17Z</time>
      </trkpt>
      <trkpt lat="42.42923" lon="0.0386">
        <ele>1034.2</ele>
        <time>2016-07-31T08:38:18Z</time>
      </trkpt>
      <trkpt lat="42.42922" lon="0.03867">
        <ele>1033.6</ele>
        <time>2016-07-31T08:38:19Z</time>
      </trkpt>
      <trkpt lat="42.42922" lon="0.03874">
        <ele>1033</ele>
        <time>2016-07-31T08:38:20Z</time>
      </trkpt>
      <trkpt lat="42.42923" lon="0.03881">
        <ele>1033.9</ele>
        <time>2016-07-31T08:38:21Z</time>
      </trkpt>
      <trkpt lat="42.42926" lon="0.03887">
        <ele>1034.9</ele>
        <time>2016-07-31T08:38:22Z</time>
      </trkpt>
      <trkpt lat="42.42929" lon="0.03893">
        <ele>1035.9</ele>
        <time>2016-07-31T08:38:23Z</time>
      </trkpt>
      <trkpt lat="42.42933" lon="0.03897">
        <ele>1036.9</ele>
        <time>2016-07-31T08:38:24Z</time>
      </trkpt>
      <trkpt lat="42.42937" lon="0.03902">
        <ele>1037.8</ele>
        <time>2016-07-31T08:38:25Z</time>
      </trkpt>
      <trkpt lat="42.42941" lon="0.03906">
        <ele>1038.8</ele>
        <time>2016-07-31T08:38:26Z</time>
      </trkpt>
      <trkpt lat="42.42945" lon="0.03911">
        <ele>1039.8</ele>
        <time>2016-07-31T08:38:27Z</time>
      </trkpt>
      <trkpt lat="42.42948" lon="0.03916">
        <ele>1040.8</ele>
        <time>2016-07-31T08:38:28Z</time>
      </trkpt>
      <trkpt lat="42.42952" lon="0.03921">
        <ele>1041.9</ele>
        <time>2016-07-31T08:38:29Z</time>
      </trkpt>
      <trkpt lat="42.42955" lon="0.03927">
        <ele>1043</ele>
        <time>2016-07-31T08:38:30Z</time>
      </trkpt>
      <trkpt lat="42.42958" lon="0.03932">
        <ele>1044.1</ele>
        <time>2016-07-31T08:38:31Z</time>
      </trkpt>
      <trkpt lat="42.42961" lon="0.03937">
        <ele>1044.1</ele>
        <time>2016-07-31T08:38:32Z</time>
      </trkpt>
      <trkpt lat="42.42964" lon="0.03942">
        <ele>1043.9</ele>
        <time>2016-07-31T08:38:33Z</time>
      </trkpt>
      <trkpt lat="42.42967" lon="0.03946">
        <ele>1043.5</ele>
        <time>2016-07-31T08:38:34Z</time>
      </trkpt>
      <trkpt lat="42.4297" lon="0.03951">
        <ele>1043.2</ele>
        <time>2016-07-31T08:38:35Z</time>
      </trkpt>
      <trkpt lat="42.42973" lon="0.03955">
        <ele>1042.8</ele>
        <time>2016-07-31T08:38:36Z</time>
      </trkpt>
      <trkpt lat="42.42976" lon="0.03958">
        <ele>1042.4</ele>
        <time>2016-07-31T08:38:37Z</time>
      </trkpt>
      <trkpt lat="42.42978" lon="0.03961">
        <ele>1042.2</ele>
        <time>2016-07-31T08:38:38Z</time>
      </trkpt>
      <trkpt lat="42.42981" lon="0.03964">
        <ele>1041.8</ele>
        <time>2016-07-31T08:38:40Z</time>
      </trkpt>
      <trkpt lat="42.42984" lon="0.03965">
        <ele>1041.2</ele>
        <time>2016-07-31T08:38:42Z</time>
      </trkpt>
      <trkpt lat="42.42986" lon="0.03966">
        <ele>1040.5</ele>
        <time>2016-07-31T08:38:44Z</time>
      </trkpt>
      <trkpt lat="42.42991" lon="0.03968">
        <ele>1039.6</ele>
        <time>2016-07-31T08:38:46Z</time>
      </trkpt>
      <trkpt lat="42.42993" lon="0.03969">
        <ele>1039</ele>
        <time>2016-07-31T08:38:47Z</time>
      </trkpt>
      <trkpt lat="42.42998" lon="0.0397">
        <ele>1037.6</ele>
        <time>2016-07-31T08:38:49Z</time>
      </trkpt>
      <trkpt lat="42.43001" lon="0.03971">
        <ele>1036.7</ele>
        <time>2016-07-31T08:38:50Z</time>
      </trkpt>
      <trkpt lat="42.43005" lon="0.03972">
        <ele>1035.8</ele>
        <time>2016-07-31T08:38:51Z</time>
      </trkpt>
      <trkpt lat="42.43008" lon="0.03974">
        <ele>1035.2</ele>
        <time>2016-07-31T08:38:52Z</time>
      </trkpt>
      <trkpt lat="42.43011" lon="0.03976">
        <ele>1034.7</ele>
        <time>2016-07-31T08:38:53Z</time>
      </trkpt>
      <trkpt lat="42.43015" lon="0.03979">
        <ele>1034.2</ele>
        <time>2016-07-31T08:38:54Z</time>
      </trkpt>
      <trkpt lat="42.43018" lon="0.03983">
        <ele>1033.9</ele>
        <time>2016-07-31T08:38:55Z</time>
      </trkpt>
      <trkpt lat="42.43022" lon="0.03987">
        <ele>1033.4</ele>
        <time>2016-07-31T08:38:56Z</time>
      </trkpt>
      <trkpt lat="42.43026" lon="0.03991">
        <ele>1033</ele>
        <time>2016-07-31T08:38:57Z</time>
      </trkpt>
      <trkpt lat="42.43029" lon="0.03995">
        <ele>1032.8</ele>
        <time>2016-07-31T08:38:58Z</time>
      </trkpt>
      <trkpt lat="42.43032" lon="0.03999">
        <ele>1032.9</ele>
        <time>2016-07-31T08:38:59Z</time>
      </trkpt>
      <trkpt lat="42.43034" lon="0.04004">
        <ele>1033.2</ele>
        <time>2016-07-31T08:39:00Z</time>
      </trkpt>
      <trkpt lat="42.43036" lon="0.04007">
        <ele>1033.4</ele>
        <time>2016-07-31T08:39:01Z</time>
      </trkpt>
      <trkpt lat="42.4304" lon="0.04012">
        <ele>1032.9</ele>
        <time>2016-07-31T08:39:03Z</time>
      </trkpt>
      <trkpt lat="42.43045" lon="0.04015">
        <ele>1032</ele>
        <time>2016-07-31T08:39:05Z</time>
      </trkpt>
      <trkpt lat="42.43049" lon="0.04017">
        <ele>1031.3</ele>
        <time>2016-07-31T08:39:06Z</time>
      </trkpt>
      <trkpt lat="42.43053" lon="0.0402">
        <ele>1030.6</ele>
        <time>2016-07-31T08:39:07Z</time>
      </trkpt>
      <trkpt lat="42.43056" lon="0.04023">
        <ele>1030</ele>
        <time>2016-07-31T08:39:08Z</time>
      </trkpt>
      <trkpt lat="42.4306" lon="0.04028">
        <ele>1029.5</ele>
        <time>2016-07-31T08:39:09Z</time>
      </trkpt>
      <trkpt lat="42.43064" lon="0.04032">
        <ele>1029.2</ele>
        <time>2016-07-31T08:39:10Z</time>
      </trkpt>
      <trkpt lat="42.43066" lon="0.04036">
        <ele>1029.1</ele>
        <time>2016-07-31T08:39:11Z</time>
      </trkpt>
      <trkpt lat="42.43068" lon="0.04039">
        <ele>1029</ele>
        <time>2016-07-31T08:39:12Z</time>
      </trkpt>
      <trkpt lat="42.43071" lon="0.04044">
        <ele>1028.9</ele>
        <time>2016-07-31T08:39:14Z</time>
      </trkpt>
      <trkpt lat="42.43076" lon="0.04049">
        <ele>1028.7</ele>
        <time>2016-07-31T08:39:16Z</time>
      </trkpt>
      <trkpt lat="42.43078" lon="0.04053">
        <ele>1028.6</ele>
        <time>2016-07-31T08:39:17Z</time>
      </trkpt>
      <trkpt lat="42.43081" lon="0.04058">
        <ele>1028.9</ele>
        <time>2016-07-31T08:39:18Z</time>
      </trkpt>
      <trkpt lat="42.43083" lon="0.04063">
        <ele>1029.3</ele>
        <time>2016-07-31T08:39:19Z</time>
      </trkpt>
      <trkpt lat="42.43085" lon="0.04067">
        <ele>1029.5</ele>
        <time>2016-07-31T08:39:20Z</time>
      </trkpt>
      <trkpt lat="42.43088" lon="0.04072">
        <ele>1029.6</ele>
        <time>2016-07-31T08:39:21Z</time>
      </trkpt>
      <trkpt lat="42.43091" lon="0.04076">
        <ele>1029.6</ele>
        <time>2016-07-31T08:39:22Z</time>
      </trkpt>
      <trkpt lat="42.43094" lon="0.04082">
        <ele>1029.7</ele>
        <time>2016-07-31T08:39:23Z</time>
      </trkpt>
      <trkpt lat="42.43097" lon="0.04087">
        <ele>1029.9</ele>
        <time>2016-07-31T08:39:24Z</time>
      </trkpt>
      <trkpt lat="42.431" lon="0.04093">
        <ele>1030.1</ele>
        <time>2016-07-31T08:39:25Z</time>
      </trkpt>
      <trkpt lat="42.43103" lon="0.04099">
        <ele>1030.3</ele>
        <time>2016-07-31T08:39:26Z</time>
      </trkpt>
      <trkpt lat="42.43106" lon="0.04105">
        <ele>1030.6</ele>
        <time>2016-07-31T08:39:27Z</time>
      </trkpt>
      <trkpt lat="42.43109" lon="0.04111">
        <ele>1031</ele>
        <time>2016-07-31T08:39:28Z</time>
      </trkpt>
      <trkpt lat="42.43111" lon="0.04116">
        <ele>1031.3</ele>
        <time>2016-07-31T08:39:29Z</time>
      </trkpt>
      <trkpt lat="42.43114" lon="0.04122">
        <ele>1031.8</ele>
        <time>2016-07-31T08:39:30Z</time>
      </trkpt>
      <trkpt lat="42.43116" lon="0.04128">
        <ele>1032.2</ele>
        <time>2016-07-31T08:39:31Z</time>
      </trkpt>
      <trkpt lat="42.43117" lon="0.04133">
        <ele>1032.4</ele>
        <time>2016-07-31T08:39:32Z</time>
      </trkpt>
      <trkpt lat="42.4312" lon="0.04138">
        <ele>1032.3</ele>
        <time>2016-07-31T08:39:33Z</time>
      </trkpt>
      <trkpt lat="42.43123" lon="0.04142">
        <ele>1032.1</ele>
        <time>2016-07-31T08:39:34Z</time>
      </trkpt>
      <trkpt lat="42.43128" lon="0.04152">
        <ele>1031.6</ele>
        <time>2016-07-31T08:39:36Z</time>
      </trkpt>
      <trkpt lat="42.43131" lon="0.04156">
        <ele>1030.9</ele>
        <time>2016-07-31T08:39:37Z</time>
      </trkpt>
      <trkpt lat="42.43134" lon="0.0416">
        <ele>1030.1</ele>
        <time>2016-07-31T08:39:38Z</time>
      </trkpt>
      <trkpt lat="42.43138" lon="0.04164">
        <ele>1029.3</ele>
        <time>2016-07-31T08:39:39Z</time>
      </trkpt>
      <trkpt lat="42.43141" lon="0.04168">
        <ele>1028.5</ele>
        <time>2016-07-31T08:39:40Z</time>
      </trkpt>
      <trkpt lat="42.43143" lon="0.04172">
        <ele>1027.9</ele>
        <time>2016-07-31T08:39:41Z</time>
      </trkpt>
      <trkpt lat="42.43146" lon="0.04176">
        <ele>1027.3</ele>
        <time>2016-07-31T08:39:42Z</time>
      </trkpt>
      <trkpt lat="42.4315" lon="0.04179">
        <ele>1026.3</ele>
        <time>2016-07-31T08:39:43Z</time>
      </trkpt>
      <trkpt lat="42.43154" lon="0.04183">
        <ele>1025.2</ele>
        <time>2016-07-31T08:39:44Z</time>
      </trkpt>
      <trkpt lat="42.43157" lon="0.04185">
        <ele>1024.2</ele>
        <time>2016-07-31T08:39:45Z</time>
      </trkpt>
      <trkpt lat="42.43159" lon="0.04188">
        <ele>1023.4</ele>
        <time>2016-07-31T08:39:46Z</time>
      </trkpt>
      <trkpt lat="42.43162" lon="0.04191">
        <ele>1022.8</ele>
        <time>2016-07-31T08:39:47Z</time>
      </trkpt>
      <trkpt lat="42.43164" lon="0.04193">
        <ele>1022.1</ele>
        <time>2016-07-31T08:39:48Z</time>
      </trkpt>
      <trkpt lat="42.43167" lon="0.04197">
        <ele>1021.3</ele>
        <time>2016-07-31T08:39:49Z</time>
      </trkpt>
      <trkpt lat="42.4317" lon="0.042">
        <ele>1020.7</ele>
        <time>2016-07-31T08:39:50Z</time>
      </trkpt>
      <trkpt lat="42.43171" lon="0.04203">
        <ele>1020.3</ele>
        <time>2016-07-31T08:39:51Z</time>
      </trkpt>
      <trkpt lat="42.43173" lon="0.04206">
        <ele>1020.1</ele>
        <time>2016-07-31T08:39:52Z</time>
      </trkpt>
      <trkpt lat="42.43175" lon="0.04209">
        <ele>1019.6</ele>
        <time>2016-07-31T08:39:53Z</time>
      </trkpt>
      <trkpt lat="42.43178" lon="0.04212">
        <ele>1019.1</ele>
        <time>2016-07-31T08:39:54Z</time>
      </trkpt>
      <trkpt lat="42.43181" lon="0.04216">
        <ele>1018.4</ele>
        <time>2016-07-31T08:39:55Z</time>
      </trkpt>
      <trkpt lat="42.43187" lon="0.04224">
        <ele>1017.2</ele>
        <time>2016-07-31T08:39:57Z</time>
      </trkpt>
      <trkpt lat="42.4319" lon="0.04227">
        <ele>1016.4</ele>
        <time>2016-07-31T08:39:58Z</time>
      </trkpt>
      <trkpt lat="42.43193" lon="0.04231">
        <ele>1015.7</ele>
        <time>2016-07-31T08:39:59Z</time>
      </trkpt>
      <trkpt lat="42.43197" lon="0.04235">
        <ele>1014.8</ele>
        <time>2016-07-31T08:40:00Z</time>
      </trkpt>
      <trkpt lat="42.43201" lon="0.04239">
        <ele>1014.1</ele>
        <time>2016-07-31T08:40:01Z</time>
      </trkpt>
      <trkpt lat="42.43204" lon="0.04242">
        <ele>1013.4</ele>
        <time>2016-07-31T08:40:02Z</time>
      </trkpt>
      <trkpt lat="42.43207" lon="0.04245">
        <ele>1012.4</ele>
        <time>2016-07-31T08:40:03Z</time>
      </trkpt>
      <trkpt lat="42.43211" lon="0.04248">
        <ele>1011.3</ele>
        <time>2016-07-31T08:40:04Z</time>
      </trkpt>
      <trkpt lat="42.43214" lon="0.04251">
        <ele>1010.4</ele>
        <time>2016-07-31T08:40:05Z</time>
      </trkpt>
      <trkpt lat="42.43217" lon="0.04254">
        <ele>1009.6</ele>
        <time>2016-07-31T08:40:06Z</time>
      </trkpt>
      <trkpt lat="42.4322" lon="0.04256">
        <ele>1008.8</ele>
        <time>2016-07-31T08:40:07Z</time>
      </trkpt>
      <trkpt lat="42.43223" lon="0.04259">
        <ele>1008</ele>
        <time>2016-07-31T08:40:08Z</time>
      </trkpt>
      <trkpt lat="42.43227" lon="0.04263">
        <ele>1007.3</ele>
        <time>2016-07-31T08:40:09Z</time>
      </trkpt>
      <trkpt lat="42.4323" lon="0.04266">
        <ele>1006.8</ele>
        <time>2016-07-31T08:40:10Z</time>
      </trkpt>
      <trkpt lat="42.43232" lon="0.0427">
        <ele>1006.4</ele>
        <time>2016-07-31T08:40:11Z</time>
      </trkpt>
      <trkpt lat="42.43234" lon="0.04273">
        <ele>1006.1</ele>
        <time>2016-07-31T08:40:12Z</time>
      </trkpt>
      <trkpt lat="42.43238" lon="0.04276">
        <ele>1005.1</ele>
        <time>2016-07-31T08:40:14Z</time>
      </trkpt>
      <trkpt lat="42.43243" lon="0.04279">
        <ele>1003.6</ele>
        <time>2016-07-31T08:40:16Z</time>
      </trkpt>
      <trkpt lat="42.43246" lon="0.04281">
        <ele>1002.5</ele>
        <time>2016-07-31T08:40:17Z</time>
      </trkpt>
      <trkpt lat="42.4325" lon="0.04283">
        <ele>1001.1</ele>
        <time>2016-07-31T08:40:18Z</time>
      </trkpt>
      <trkpt lat="42.43254" lon="0.04286">
        <ele>999.8</ele>
        <time>2016-07-31T08:40:19Z</time>
      </trkpt>
      <trkpt lat="42.43257" lon="0.04288">
        <ele>998.9</ele>
        <time>2016-07-31T08:40:20Z</time>
      </trkpt>
      <trkpt lat="42.4326" lon="0.04291">
        <ele>998.1</ele>
        <time>2016-07-31T08:40:21Z</time>
      </trkpt>
      <trkpt lat="42.43263" lon="0.04294">
        <ele>997.7</ele>
        <time>2016-07-31T08:40:22Z</time>
      </trkpt>
      <trkpt lat="42.43265" lon="0.04297">
        <ele>997.4</ele>
        <time>2016-07-31T08:40:23Z</time>
      </trkpt>
      <trkpt lat="42.43268" lon="0.04299">
        <ele>997</ele>
        <time>2016-07-31T08:40:24Z</time>
      </trkpt>
      <trkpt lat="42.43271" lon="0.043">
        <ele>995.7</ele>
        <time>2016-07-31T08:40:26Z</time>
      </trkpt>
      <trkpt lat="42.43271" lon="0.04295">
        <ele>994.2</ele>
        <time>2016-07-31T08:40:28Z</time>
      </trkpt>
      <trkpt lat="42.4327" lon="0.04291">
        <ele>993.7</ele>
        <time>2016-07-31T08:40:29Z</time>
      </trkpt>
      <trkpt lat="42.43268" lon="0.04287">
        <ele>993.6</ele>
        <time>2016-07-31T08:40:30Z</time>
      </trkpt>
      <trkpt lat="42.43267" lon="0.04282">
        <ele>993.1</ele>
        <time>2016-07-31T08:40:31Z</time>
      </trkpt>
      <trkpt lat="42.43265" lon="0.04276">
        <ele>992.5</ele>
        <time>2016-07-31T08:40:32Z</time>
      </trkpt>
      <trkpt lat="42.43265" lon="0.04271">
        <ele>991.7</ele>
        <time>2016-07-31T08:40:33Z</time>
      </trkpt>
      <trkpt lat="42.43264" lon="0.04266">
        <ele>990.9</ele>
        <time>2016-07-31T08:40:34Z</time>
      </trkpt>
      <trkpt lat="42.43263" lon="0.04261">
        <ele>990.2</ele>
        <time>2016-07-31T08:40:35Z</time>
      </trkpt>
      <trkpt lat="42.43262" lon="0.04257">
        <ele>989.8</ele>
        <time>2016-07-31T08:40:36Z</time>
      </trkpt>
      <trkpt lat="42.4326" lon="0.04253">
        <ele>989.8</ele>
        <time>2016-07-31T08:40:37Z</time>
      </trkpt>
      <trkpt lat="42.43258" lon="0.0425">
        <ele>989.9</ele>
        <time>2016-07-31T08:40:38Z</time>
      </trkpt>
      <trkpt lat="42.43256" lon="0.04245">
        <ele>989.6</ele>
        <time>2016-07-31T08:40:39Z</time>
      </trkpt>
      <trkpt lat="42.43255" lon="0.04239">
        <ele>989.1</ele>
        <time>2016-07-31T08:40:40Z</time>
      </trkpt>
      <trkpt lat="42.43254" lon="0.04234">
        <ele>988.5</ele>
        <time>2016-07-31T08:40:41Z</time>
      </trkpt>
      <trkpt lat="42.43253" lon="0.0423">
        <ele>988</ele>
        <time>2016-07-31T08:40:42Z</time>
      </trkpt>
      <trkpt lat="42.43252" lon="0.04226">
        <ele>987.5</ele>
        <time>2016-07-31T08:40:43Z</time>
      </trkpt>
      <trkpt lat="42.43251" lon="0.04221">
        <ele>987</ele>
        <time>2016-07-31T08:40:44Z</time>
      </trkpt>
      <trkpt lat="42.4325" lon="0.04217">
        <ele>986.4</ele>
        <time>2016-07-31T08:40:45Z</time>
      </trkpt>
      <trkpt lat="42.43249" lon="0.04213">
        <ele>986.1</ele>
        <time>2016-07-31T08:40:46Z</time>
      </trkpt>
      <trkpt lat="42.43247" lon="0.04209">
        <ele>985.9</ele>
        <time>2016-07-31T08:40:47Z</time>
      </trkpt>
      <trkpt lat="42.43246" lon="0.04205">
        <ele>986</ele>
        <time>2016-07-31T08:40:48Z</time>
      </trkpt>
      <trkpt lat="42.43244" lon="0.042">
        <ele>986</ele>
        <time>2016-07-31T08:40:49Z</time>
      </trkpt>
      <trkpt lat="42.43243" lon="0.04195">
        <ele>985.5</ele>
        <time>2016-07-31T08:40:50Z</time>
      </trkpt>
      <trkpt lat="42.43243" lon="0.04189">
        <ele>985.2</ele>
        <time>2016-07-31T08:40:51Z</time>
      </trkpt>
      <trkpt lat="42.43242" lon="0.04185">
        <ele>985</ele>
        <time>2016-07-31T08:40:52Z</time>
      </trkpt>
      <trkpt lat="42.43239" lon="0.0418">
        <ele>985.1</ele>
        <time>2016-07-31T08:40:54Z</time>
      </trkpt>
      <trkpt lat="42.43237" lon="0.04175">
        <ele>985.5</ele>
        <time>2016-07-31T08:40:56Z</time>
      </trkpt>
      <trkpt lat="42.43237" lon="0.0417">
        <ele>984.8</ele>
        <time>2016-07-31T08:40:58Z</time>
      </trkpt>
      <trkpt lat="42.43239" lon="0.04165">
        <ele>983.3</ele>
        <time>2016-07-31T08:41:00Z</time>
      </trkpt>
      <trkpt lat="42.4324" lon="0.0416">
        <ele>982</ele>
        <time>2016-07-31T08:41:02Z</time>
      </trkpt>
      <trkpt lat="42.43239" lon="0.04152">
        <ele>981.3</ele>
        <time>2016-07-31T08:41:04Z</time>
      </trkpt>
      <trkpt lat="42.43239" lon="0.04146">
        <ele>980.4</ele>
        <time>2016-07-31T08:41:06Z</time>
      </trkpt>
      <trkpt lat="42.4324" lon="0.04139">
        <ele>978.6</ele>
        <time>2016-07-31T08:41:08Z</time>
      </trkpt>
      <trkpt lat="42.43243" lon="0.04136">
        <ele>977</ele>
        <time>2016-07-31T08:41:10Z</time>
      </trkpt>
      <trkpt lat="42.43247" lon="0.04135">
        <ele>975.1</ele>
        <time>2016-07-31T08:41:12Z</time>
      </trkpt>
      <trkpt lat="42.4325" lon="0.0413">
        <ele>973.1</ele>
        <time>2016-07-31T08:41:14Z</time>
      </trkpt>
      <trkpt lat="42.43251" lon="0.04126">
        <ele>972.2</ele>
        <time>2016-07-31T08:41:15Z</time>
      </trkpt>
      <trkpt lat="42.43252" lon="0.04122">
        <ele>971.7</ele>
        <time>2016-07-31T08:41:16Z</time>
      </trkpt>
      <trkpt lat="42.43254" lon="0.0412">
        <ele>970.5</ele>
        <time>2016-07-31T08:41:19Z</time>
      </trkpt>
      <trkpt lat="42.43258" lon="0.04122">
        <ele>969</ele>
        <time>2016-07-31T08:41:21Z</time>
      </trkpt>
      <trkpt lat="42.43261" lon="0.04123">
        <ele>967.9</ele>
        <time>2016-07-31T08:41:23Z</time>
      </trkpt>
      <trkpt lat="42.43265" lon="0.04125">
        <ele>966.1</ele>
        <time>2016-07-31T08:41:25Z</time>
      </trkpt>
      <trkpt lat="42.4327" lon="0.04125">
        <ele>964.1</ele>
        <time>2016-07-31T08:41:27Z</time>
      </trkpt>
      <trkpt lat="42.43273" lon="0.04126">
        <ele>963</ele>
        <time>2016-07-31T08:41:28Z</time>
      </trkpt>
      <trkpt lat="42.43277" lon="0.04128">
        <ele>961.6</ele>
        <time>2016-07-31T08:41:30Z</time>
      </trkpt>
      <trkpt lat="42.43279" lon="0.04131">
        <ele>961</ele>
        <time>2016-07-31T08:41:32Z</time>
      </trkpt>
      <trkpt lat="42.43281" lon="0.04135">
        <ele>960.7</ele>
        <time>2016-07-31T08:41:34Z</time>
      </trkpt>
      <trkpt lat="42.43283" lon="0.04142">
        <ele>960.7</ele>
        <time>2016-07-31T08:41:36Z</time>
      </trkpt>
      <trkpt lat="42.43285" lon="0.04146">
        <ele>960.4</ele>
        <time>2016-07-31T08:41:37Z</time>
      </trkpt>
      <trkpt lat="42.43286" lon="0.04149">
        <ele>960.2</ele>
        <time>2016-07-31T08:41:38Z</time>
      </trkpt>
      <trkpt lat="42.43288" lon="0.04153">
        <ele>960.1</ele>
        <time>2016-07-31T08:41:39Z</time>
      </trkpt>
      <trkpt lat="42.43289" lon="0.04158">
        <ele>960.1</ele>
        <time>2016-07-31T08:41:41Z</time>
      </trkpt>
      <trkpt lat="42.43291" lon="0.04163">
        <ele>960</ele>
        <time>2016-07-31T08:41:43Z</time>
      </trkpt>
      <trkpt lat="42.43291" lon="0.04169">
        <ele>960.5</ele>
        <time>2016-07-31T08:41:45Z</time>
      </trkpt>
      <trkpt lat="42.43291" lon="0.04173">
        <ele>961.3</ele>
        <time>2016-07-31T08:41:47Z</time>
      </trkpt>
      <trkpt lat="42.43291" lon="0.04178">
        <ele>961.5</ele>
        <time>2016-07-31T08:41:49Z</time>
      </trkpt>
      <trkpt lat="42.43295" lon="0.04184">
        <ele>961.1</ele>
        <time>2016-07-31T08:41:51Z</time>
      </trkpt>
      <trkpt lat="42.43298" lon="0.04188">
        <ele>960.6</ele>
        <time>2016-07-31T08:41:52Z</time>
      </trkpt>
      <trkpt lat="42.433" lon="0.04191">
        <ele>960.1</ele>
        <time>2016-07-31T08:41:53Z</time>
      </trkpt>
      <trkpt lat="42.43303" lon="0.04193">
        <ele>959.6</ele>
        <time>2016-07-31T08:41:54Z</time>
      </trkpt>
      <trkpt lat="42.43305" lon="0.04195">
        <ele>958.9</ele>
        <time>2016-07-31T08:41:55Z</time>
      </trkpt>
      <trkpt lat="42.43308" lon="0.04198">
        <ele>958.3</ele>
        <time>2016-07-31T08:41:56Z</time>
      </trkpt>
      <trkpt lat="42.4331" lon="0.04201">
        <ele>958</ele>
        <time>2016-07-31T08:41:57Z</time>
      </trkpt>
      <trkpt lat="42.43312" lon="0.04204">
        <ele>957.7</ele>
        <time>2016-07-31T08:41:58Z</time>
      </trkpt>
      <trkpt lat="42.43314" lon="0.04207">
        <ele>957.2</ele>
        <time>2016-07-31T08:41:59Z</time>
      </trkpt>
      <trkpt lat="42.43318" lon="0.04209">
        <ele>956.4</ele>
        <time>2016-07-31T08:42:00Z</time>
      </trkpt>
      <trkpt lat="42.43325" lon="0.04212">
        <ele>954.7</ele>
        <time>2016-07-31T08:42:02Z</time>
      </trkpt>
      <trkpt lat="42.43329" lon="0.04215">
        <ele>954.1</ele>
        <time>2016-07-31T08:42:03Z</time>
      </trkpt>
      <trkpt lat="42.43333" lon="0.04219">
        <ele>953.7</ele>
        <time>2016-07-31T08:42:04Z</time>
      </trkpt>
      <trkpt lat="42.43337" lon="0.04223">
        <ele>953.3</ele>
        <time>2016-07-31T08:42:05Z</time>
      </trkpt>
      <trkpt lat="42.4334" lon="0.04227">
        <ele>953.2</ele>
        <time>2016-07-31T08:42:06Z</time>
      </trkpt>
      <trkpt lat="42.43343" lon="0.04232">
        <ele>953.3</ele>
        <time>2016-07-31T08:42:07Z</time>
      </trkpt>
      <trkpt lat="42.43346" lon="0.04237">
        <ele>953.4</ele>
        <time>2016-07-31T08:42:08Z</time>
      </trkpt>
      <trkpt lat="42.43349" lon="0.04242">
        <ele>953.5</ele>
        <time>2016-07-31T08:42:09Z</time>
      </trkpt>
      <trkpt lat="42.43353" lon="0.04245">
        <ele>953.1</ele>
        <time>2016-07-31T08:42:10Z</time>
      </trkpt>
      <trkpt lat="42.43356" lon="0.04248">
        <ele>952.6</ele>
        <time>2016-07-31T08:42:11Z</time>
      </trkpt>
      <trkpt lat="42.4336" lon="0.04249">
        <ele>951.8</ele>
        <time>2016-07-31T08:42:12Z</time>
      </trkpt>
      <trkpt lat="42.43363" lon="0.04249">
        <ele>950.8</ele>
        <time>2016-07-31T08:42:13Z</time>
      </trkpt>
      <trkpt lat="42.43366" lon="0.0425">
        <ele>949.9</ele>
        <time>2016-07-31T08:42:14Z</time>
      </trkpt>
      <trkpt lat="42.4337" lon="0.04251">
        <ele>948.9</ele>
        <time>2016-07-31T08:42:16Z</time>
      </trkpt>
      <trkpt lat="42.43372" lon="0.04254">
        <ele>948.9</ele>
        <time>2016-07-31T08:42:18Z</time>
      </trkpt>
      <trkpt lat="42.43373" lon="0.04259">
        <ele>949.7</ele>
        <time>2016-07-31T08:42:20Z</time>
      </trkpt>
      <trkpt lat="42.43374" lon="0.04264">
        <ele>950.8</ele>
        <time>2016-07-31T08:42:23Z</time>
      </trkpt>
      <trkpt lat="42.43376" lon="0.04267">
        <ele>950.6</ele>
        <time>2016-07-31T08:42:25Z</time>
      </trkpt>
      <trkpt lat="42.43381" lon="0.04271">
        <ele>949.5</ele>
        <time>2016-07-31T08:42:27Z</time>
      </trkpt>
      <trkpt lat="42.43384" lon="0.04273">
        <ele>948.9</ele>
        <time>2016-07-31T08:42:28Z</time>
      </trkpt>
      <trkpt lat="42.43386" lon="0.04275">
        <ele>948.3</ele>
        <time>2016-07-31T08:42:29Z</time>
      </trkpt>
      <trkpt lat="42.43389" lon="0.04277">
        <ele>947.5</ele>
        <time>2016-07-31T08:42:31Z</time>
      </trkpt>
      <trkpt lat="42.43393" lon="0.04281">
        <ele>946.7</ele>
        <time>2016-07-31T08:42:33Z</time>
      </trkpt>
      <trkpt lat="42.43397" lon="0.04281">
        <ele>944.9</ele>
        <time>2016-07-31T08:42:35Z</time>
      </trkpt>
      <trkpt lat="42.43402" lon="0.0428">
        <ele>942.8</ele>
        <time>2016-07-31T08:42:37Z</time>
      </trkpt>
      <trkpt lat="42.43405" lon="0.04281">
        <ele>941.7</ele>
        <time>2016-07-31T08:42:40Z</time>
      </trkpt>
      <trkpt lat="42.43407" lon="0.04278">
        <ele>940.3</ele>
        <time>2016-07-31T08:42:45Z</time>
      </trkpt>
      <trkpt lat="42.4341" lon="0.04277">
        <ele>938.9</ele>
        <time>2016-07-31T08:42:48Z</time>
      </trkpt>
      <trkpt lat="42.43412" lon="0.0428">
        <ele>938.4</ele>
        <time>2016-07-31T08:42:50Z</time>
      </trkpt>
      <trkpt lat="42.43415" lon="0.04282">
        <ele>937.6</ele>
        <time>2016-07-31T08:42:52Z</time>
      </trkpt>
      <trkpt lat="42.43418" lon="0.04285">
        <ele>937.1</ele>
        <time>2016-07-31T08:42:54Z</time>
      </trkpt>
      <trkpt lat="42.43419" lon="0.04291">
        <ele>937.9</ele>
        <time>2016-07-31T08:42:56Z</time>
      </trkpt>
      <trkpt lat="42.43419" lon="0.04295">
        <ele>938.5</ele>
        <time>2016-07-31T08:42:57Z</time>
      </trkpt>
      <trkpt lat="42.43419" lon="0.04301">
        <ele>939.9</ele>
        <time>2016-07-31T08:42:59Z</time>
      </trkpt>
      <trkpt lat="42.43421" lon="0.04307">
        <ele>939.9</ele>
        <time>2016-07-31T08:43:01Z</time>
      </trkpt>
      <trkpt lat="42.43425" lon="0.0431">
        <ele>938.9</ele>
        <time>2016-07-31T08:43:03Z</time>
      </trkpt>
      <trkpt lat="42.43427" lon="0.04312">
        <ele>938.1</ele>
        <time>2016-07-31T08:43:08Z</time>
      </trkpt>
      <trkpt lat="42.4343" lon="0.04314">
        <ele>937.4</ele>
        <time>2016-07-31T08:43:12Z</time>
      </trkpt>
      <trkpt lat="42.43433" lon="0.04316">
        <ele>936.5</ele>
        <time>2016-07-31T08:43:15Z</time>
      </trkpt>
      <trkpt lat="42.43435" lon="0.04319">
        <ele>936.2</ele>
        <time>2016-07-31T08:43:21Z</time>
      </trkpt>
      <trkpt lat="42.43438" lon="0.0432">
        <ele>934.8</ele>
        <time>2016-07-31T08:43:30Z</time>
      </trkpt>
      <trkpt lat="42.43444" lon="0.04324">
        <ele>933.2</ele>
        <time>2016-07-31T08:44:07Z</time>
      </trkpt>
      <trkpt lat="42.43446" lon="0.04329">
        <ele>932.8</ele>
        <time>2016-07-31T08:44:10Z</time>
      </trkpt>
      <trkpt lat="42.43448" lon="0.04332">
        <ele>932.5</ele>
        <time>2016-07-31T08:44:16Z</time>
      </trkpt>
      <trkpt lat="42.43451" lon="0.04331">
        <ele>931.1</ele>
        <time>2016-07-31T08:44:27Z</time>
      </trkpt>
      <trkpt lat="42.43454" lon="0.0433">
        <ele>929.5</ele>
        <time>2016-07-31T08:44:32Z</time>
      </trkpt>
      <trkpt lat="42.43457" lon="0.0433">
        <ele>928.1</ele>
        <time>2016-07-31T08:44:38Z</time>
      </trkpt>
      <trkpt lat="42.4346" lon="0.04331">
        <ele>926.7</ele>
        <time>2016-07-31T08:44:42Z</time>
      </trkpt>
      <trkpt lat="42.43463" lon="0.04328">
        <ele>925</ele>
        <time>2016-07-31T08:44:45Z</time>
      </trkpt>
      <trkpt lat="42.43467" lon="0.04328">
        <ele>923.4</ele>
        <time>2016-07-31T08:44:48Z</time>
      </trkpt>
      <trkpt lat="42.4347" lon="0.0433">
        <ele>922.4</ele>
        <time>2016-07-31T08:44:52Z</time>
      </trkpt>
      <trkpt lat="42.43471" lon="0.04326">
        <ele>921.2</ele>
        <time>2016-07-31T08:44:57Z</time>
      </trkpt>
      <trkpt lat="42.43473" lon="0.04324">
        <ele>919.8</ele>
        <time>2016-07-31T08:45:00Z</time>
      </trkpt>
      <trkpt lat="42.43477" lon="0.04323">
        <ele>918.1</ele>
        <time>2016-07-31T08:45:03Z</time>
      </trkpt>
      <trkpt lat="42.43481" lon="0.04326">
        <ele>917.1</ele>
        <time>2016-07-31T08:45:05Z</time>
      </trkpt>
      <trkpt lat="42.43484" lon="0.04331">
        <ele>916.4</ele>
        <time>2016-07-31T08:45:07Z</time>
      </trkpt>
      <trkpt lat="42.43488" lon="0.04336">
        <ele>915.5</ele>
        <time>2016-07-31T08:45:09Z</time>
      </trkpt>
      <trkpt lat="42.4349" lon="0.04338">
        <ele>915.1</ele>
        <time>2016-07-31T08:45:10Z</time>
      </trkpt>
      <trkpt lat="42.43492" lon="0.04341">
        <ele>914.5</ele>
        <time>2016-07-31T08:45:12Z</time>
      </trkpt>
      <trkpt lat="42.43494" lon="0.04345">
        <ele>914.2</ele>
        <time>2016-07-31T08:45:18Z</time>
      </trkpt>
      <trkpt lat="42.43496" lon="0.04349">
        <ele>914.1</ele>
        <time>2016-07-31T08:45:20Z</time>
      </trkpt>
      <trkpt lat="42.43496" lon="0.04355">
        <ele>914.8</ele>
        <time>2016-07-31T08:45:23Z</time>
      </trkpt>
      <trkpt lat="42.43498" lon="0.0436">
        <ele>914.8</ele>
        <time>2016-07-31T08:45:25Z</time>
      </trkpt>
      <trkpt lat="42.435" lon="0.04364">
        <ele>914.8</ele>
        <time>2016-07-31T08:45:27Z</time>
      </trkpt>
      <trkpt lat="42.43501" lon="0.04368">
        <ele>915</ele>
        <time>2016-07-31T08:45:29Z</time>
      </trkpt>
      <trkpt lat="42.43503" lon="0.04375">
        <ele>915.2</ele>
        <time>2016-07-31T08:45:31Z</time>
      </trkpt>
      <trkpt lat="42.43504" lon="0.04379">
        <ele>915.2</ele>
        <time>2016-07-31T08:45:32Z</time>
      </trkpt>
      <trkpt lat="42.43507" lon="0.04383">
        <ele>914.4</ele>
        <time>2016-07-31T08:45:34Z</time>
      </trkpt>
      <trkpt lat="42.4351" lon="0.04384">
        <ele>913.4</ele>
        <time>2016-07-31T08:45:35Z</time>
      </trkpt>
      <trkpt lat="42.43514" lon="0.04385">
        <ele>912.1</ele>
        <time>2016-07-31T08:45:37Z</time>
      </trkpt>
      <trkpt lat="42.43517" lon="0.04391">
        <ele>911.7</ele>
        <time>2016-07-31T08:45:39Z</time>
      </trkpt>
      <trkpt lat="42.43518" lon="0.04398">
        <ele>912.2</ele>
        <time>2016-07-31T08:45:41Z</time>
      </trkpt>
      <trkpt lat="42.4352" lon="0.04402">
        <ele>912.1</ele>
        <time>2016-07-31T08:45:43Z</time>
      </trkpt>
      <trkpt lat="42.43522" lon="0.04405">
        <ele>911.5</ele>
        <time>2016-07-31T08:45:44Z</time>
      </trkpt>
      <trkpt lat="42.43525" lon="0.04406">
        <ele>910.5</ele>
        <time>2016-07-31T08:45:45Z</time>
      </trkpt>
      <trkpt lat="42.43529" lon="0.04408">
        <ele>909</ele>
        <time>2016-07-31T08:45:47Z</time>
      </trkpt>
      <trkpt lat="42.43532" lon="0.04411">
        <ele>908.2</ele>
        <time>2016-07-31T08:45:49Z</time>
      </trkpt>
      <trkpt lat="42.43536" lon="0.04414">
        <ele>906.9</ele>
        <time>2016-07-31T08:45:51Z</time>
      </trkpt>
      <trkpt lat="42.4354" lon="0.04417">
        <ele>905.7</ele>
        <time>2016-07-31T08:45:53Z</time>
      </trkpt>
      <trkpt lat="42.43543" lon="0.04423">
        <ele>905.4</ele>
        <time>2016-07-31T08:45:55Z</time>
      </trkpt>
      <trkpt lat="42.43545" lon="0.04426">
        <ele>905.2</ele>
        <time>2016-07-31T08:45:56Z</time>
      </trkpt>
      <trkpt lat="42.43547" lon="0.04429">
        <ele>904.8</ele>
        <time>2016-07-31T08:45:57Z</time>
      </trkpt>
      <trkpt lat="42.4355" lon="0.04434">
        <ele>904.1</ele>
        <time>2016-07-31T08:45:59Z</time>
      </trkpt>
      <trkpt lat="42.43553" lon="0.04438">
        <ele>903.6</ele>
        <time>2016-07-31T08:46:00Z</time>
      </trkpt>
      <trkpt lat="42.43555" lon="0.04442">
        <ele>903</ele>
        <time>2016-07-31T08:46:01Z</time>
      </trkpt>
      <trkpt lat="42.43558" lon="0.04446">
        <ele>902.4</ele>
        <time>2016-07-31T08:46:02Z</time>
      </trkpt>
      <trkpt lat="42.4356" lon="0.04449">
        <ele>901.8</ele>
        <time>2016-07-31T08:46:03Z</time>
      </trkpt>
      <trkpt lat="42.43562" lon="0.04452">
        <ele>901.5</ele>
        <time>2016-07-31T08:46:04Z</time>
      </trkpt>
      <trkpt lat="42.43563" lon="0.04457">
        <ele>901.6</ele>
        <time>2016-07-31T08:46:05Z</time>
      </trkpt>
      <trkpt lat="42.43564" lon="0.04463">
        <ele>902.4</ele>
        <time>2016-07-31T08:46:06Z</time>
      </trkpt>
      <trkpt lat="42.43565" lon="0.04467">
        <ele>903</ele>
        <time>2016-07-31T08:46:07Z</time>
      </trkpt>
      <trkpt lat="42.43568" lon="0.04472">
        <ele>902.9</ele>
        <time>2016-07-31T08:46:09Z</time>
      </trkpt>
      <trkpt lat="42.43571" lon="0.04474">
        <ele>902.2</ele>
        <time>2016-07-31T08:46:10Z</time>
      </trkpt>
      <trkpt lat="42.43573" lon="0.04476">
        <ele>901.5</ele>
        <time>2016-07-31T08:46:11Z</time>
      </trkpt>
      <trkpt lat="42.43576" lon="0.04478">
        <ele>900.7</ele>
        <time>2016-07-31T08:46:12Z</time>
      </trkpt>
      <trkpt lat="42.4358" lon="0.04482">
        <ele>899.8</ele>
        <time>2016-07-31T08:46:14Z</time>
      </trkpt>
      <trkpt lat="42.43584" lon="0.04487">
        <ele>898.8</ele>
        <time>2016-07-31T08:46:16Z</time>
      </trkpt>
      <trkpt lat="42.43587" lon="0.04491">
        <ele>898.3</ele>
        <time>2016-07-31T08:46:17Z</time>
      </trkpt>
      <trkpt lat="42.43589" lon="0.04493">
        <ele>898.1</ele>
        <time>2016-07-31T08:46:18Z</time>
      </trkpt>
      <trkpt lat="42.43591" lon="0.04497">
        <ele>897.9</ele>
        <time>2016-07-31T08:46:19Z</time>
      </trkpt>
      <trkpt lat="42.43593" lon="0.04502">
        <ele>897.8</ele>
        <time>2016-07-31T08:46:20Z</time>
      </trkpt>
      <trkpt lat="42.43595" lon="0.04506">
        <ele>897.8</ele>
        <time>2016-07-31T08:46:21Z</time>
      </trkpt>
      <trkpt lat="42.43596" lon="0.04511">
        <ele>898.1</ele>
        <time>2016-07-31T08:46:22Z</time>
      </trkpt>
      <trkpt lat="42.43598" lon="0.04514">
        <ele>898.4</ele>
        <time>2016-07-31T08:46:23Z</time>
      </trkpt>
      <trkpt lat="42.43601" lon="0.0452">
        <ele>898.2</ele>
        <time>2016-07-31T08:46:25Z</time>
      </trkpt>
      <trkpt lat="42.43603" lon="0.04523">
        <ele>897.5</ele>
        <time>2016-07-31T08:46:26Z</time>
      </trkpt>
      <trkpt lat="42.43606" lon="0.04525">
        <ele>896.5</ele>
        <time>2016-07-31T08:46:27Z</time>
      </trkpt>
      <trkpt lat="42.43609" lon="0.04528">
        <ele>895.5</ele>
        <time>2016-07-31T08:46:28Z</time>
      </trkpt>
      <trkpt lat="42.43612" lon="0.04531">
        <ele>894.5</ele>
        <time>2016-07-31T08:46:29Z</time>
      </trkpt>
      <trkpt lat="42.43616" lon="0.04534">
        <ele>893.4</ele>
        <time>2016-07-31T08:46:30Z</time>
      </trkpt>
      <trkpt lat="42.43619" lon="0.04537">
        <ele>892.3</ele>
        <time>2016-07-31T08:46:31Z</time>
      </trkpt>
      <trkpt lat="42.43622" lon="0.04541">
        <ele>891.2</ele>
        <time>2016-07-31T08:46:32Z</time>
      </trkpt>
      <trkpt lat="42.43625" lon="0.04543">
        <ele>890.2</ele>
        <time>2016-07-31T08:46:33Z</time>
      </trkpt>
      <trkpt lat="42.43628" lon="0.04545">
        <ele>889.6</ele>
        <time>2016-07-31T08:46:34Z</time>
      </trkpt>
      <trkpt lat="42.4363" lon="0.04547">
        <ele>889.1</ele>
        <time>2016-07-31T08:46:35Z</time>
      </trkpt>
      <trkpt lat="42.43633" lon="0.04551">
        <ele>888.5</ele>
        <time>2016-07-31T08:46:36Z</time>
      </trkpt>
      <trkpt lat="42.43636" lon="0.04554">
        <ele>888.1</ele>
        <time>2016-07-31T08:46:37Z</time>
      </trkpt>
      <trkpt lat="42.43639" lon="0.04558">
        <ele>887.8</ele>
        <time>2016-07-31T08:46:38Z</time>
      </trkpt>
      <trkpt lat="42.43641" lon="0.04561">
        <ele>887.6</ele>
        <time>2016-07-31T08:46:39Z</time>
      </trkpt>
      <trkpt lat="42.43643" lon="0.04564">
        <ele>887.2</ele>
        <time>2016-07-31T08:46:40Z</time>
      </trkpt>
      <trkpt lat="42.43646" lon="0.04566">
        <ele>886.3</ele>
        <time>2016-07-31T08:46:41Z</time>
      </trkpt>
      <trkpt lat="42.4365" lon="0.04567">
        <ele>885.1</ele>
        <time>2016-07-31T08:46:42Z</time>
      </trkpt>
      <trkpt lat="42.43653" lon="0.04569">
        <ele>884</ele>
        <time>2016-07-31T08:46:43Z</time>
      </trkpt>
      <trkpt lat="42.43656" lon="0.04574">
        <ele>883.4</ele>
        <time>2016-07-31T08:46:45Z</time>
      </trkpt>
      <trkpt lat="42.43658" lon="0.04578">
        <ele>883.4</ele>
        <time>2016-07-31T08:46:46Z</time>
      </trkpt>
      <trkpt lat="42.4366" lon="0.04582">
        <ele>883.3</ele>
        <time>2016-07-31T08:46:47Z</time>
      </trkpt>
      <trkpt lat="42.43663" lon="0.04585">
        <ele>882.9</ele>
        <time>2016-07-31T08:46:48Z</time>
      </trkpt>
      <trkpt lat="42.43665" lon="0.04589">
        <ele>882.4</ele>
        <time>2016-07-31T08:46:49Z</time>
      </trkpt>
      <trkpt lat="42.43672" lon="0.04598">
        <ele>881.5</ele>
        <time>2016-07-31T08:46:52Z</time>
      </trkpt>
      <trkpt lat="42.43674" lon="0.04602">
        <ele>881.3</ele>
        <time>2016-07-31T08:46:53Z</time>
      </trkpt>
      <trkpt lat="42.43675" lon="0.04606">
        <ele>881.4</ele>
        <time>2016-07-31T08:46:54Z</time>
      </trkpt>
      <trkpt lat="42.43676" lon="0.0461">
        <ele>881.7</ele>
        <time>2016-07-31T08:46:55Z</time>
      </trkpt>
      <trkpt lat="42.43677" lon="0.04614">
        <ele>882.3</ele>
        <time>2016-07-31T08:46:56Z</time>
      </trkpt>
      <trkpt lat="42.43677" lon="0.04618">
        <ele>882.9</ele>
        <time>2016-07-31T08:46:57Z</time>
      </trkpt>
      <trkpt lat="42.43679" lon="0.04623">
        <ele>883.2</ele>
        <time>2016-07-31T08:46:58Z</time>
      </trkpt>
      <trkpt lat="42.4368" lon="0.04626">
        <ele>883.2</ele>
        <time>2016-07-31T08:46:59Z</time>
      </trkpt>
      <trkpt lat="42.43682" lon="0.0463">
        <ele>883.4</ele>
        <time>2016-07-31T08:47:00Z</time>
      </trkpt>
      <trkpt lat="42.43683" lon="0.04634">
        <ele>883.5</ele>
        <time>2016-07-31T08:47:01Z</time>
      </trkpt>
      <trkpt lat="42.43685" lon="0.04639">
        <ele>883.7</ele>
        <time>2016-07-31T08:47:02Z</time>
      </trkpt>
      <trkpt lat="42.43687" lon="0.04643">
        <ele>883.7</ele>
        <time>2016-07-31T08:47:03Z</time>
      </trkpt>
      <trkpt lat="42.43689" lon="0.04646">
        <ele>883.2</ele>
        <time>2016-07-31T08:47:04Z</time>
      </trkpt>
      <trkpt lat="42.43692" lon="0.04649">
        <ele>882.5</ele>
        <time>2016-07-31T08:47:05Z</time>
      </trkpt>
      <trkpt lat="42.43694" lon="0.04652">
        <ele>881.9</ele>
        <time>2016-07-31T08:47:06Z</time>
      </trkpt>
      <trkpt lat="42.43698" lon="0.04656">
        <ele>881</ele>
        <time>2016-07-31T08:47:08Z</time>
      </trkpt>
      <trkpt lat="42.43702" lon="0.04663">
        <ele>880.2</ele>
        <time>2016-07-31T08:47:10Z</time>
      </trkpt>
      <trkpt lat="42.43706" lon="0.04667">
        <ele>879.4</ele>
        <time>2016-07-31T08:47:11Z</time>
      </trkpt>
      <trkpt lat="42.43709" lon="0.04671">
        <ele>878.7</ele>
        <time>2016-07-31T08:47:12Z</time>
      </trkpt>
      <trkpt lat="42.43712" lon="0.04674">
        <ele>878.3</ele>
        <time>2016-07-31T08:47:13Z</time>
      </trkpt>
      <trkpt lat="42.43715" lon="0.04678">
        <ele>877.8</ele>
        <time>2016-07-31T08:47:15Z</time>
      </trkpt>
      <trkpt lat="42.43718" lon="0.04681">
        <ele>877.3</ele>
        <time>2016-07-31T08:47:16Z</time>
      </trkpt>
      <trkpt lat="42.43721" lon="0.04684">
        <ele>876.6</ele>
        <time>2016-07-31T08:47:17Z</time>
      </trkpt>
      <trkpt lat="42.43725" lon="0.04687">
        <ele>875.9</ele>
        <time>2016-07-31T08:47:18Z</time>
      </trkpt>
      <trkpt lat="42.43728" lon="0.04689">
        <ele>875.3</ele>
        <time>2016-07-31T08:47:19Z</time>
      </trkpt>
      <trkpt lat="42.43732" lon="0.04694">
        <ele>874.4</ele>
        <time>2016-07-31T08:47:21Z</time>
      </trkpt>
      <trkpt lat="42.43736" lon="0.04699">
        <ele>873.9</ele>
        <time>2016-07-31T08:47:23Z</time>
      </trkpt>
      <trkpt lat="42.43738" lon="0.04702">
        <ele>873.8</ele>
        <time>2016-07-31T08:47:24Z</time>
      </trkpt>
      <trkpt lat="42.4374" lon="0.04705">
        <ele>873.7</ele>
        <time>2016-07-31T08:47:25Z</time>
      </trkpt>
      <trkpt lat="42.43742" lon="0.04708">
        <ele>873.6</ele>
        <time>2016-07-31T08:47:26Z</time>
      </trkpt>
      <trkpt lat="42.43744" lon="0.04712">
        <ele>873.2</ele>
        <time>2016-07-31T08:47:27Z</time>
      </trkpt>
      <trkpt lat="42.43747" lon="0.04717">
        <ele>873</ele>
        <time>2016-07-31T08:47:28Z</time>
      </trkpt>
      <trkpt lat="42.43749" lon="0.04721">
        <ele>872.7</ele>
        <time>2016-07-31T08:47:29Z</time>
      </trkpt>
      <trkpt lat="42.43751" lon="0.04725">
        <ele>872.5</ele>
        <time>2016-07-31T08:47:30Z</time>
      </trkpt>
      <trkpt lat="42.43754" lon="0.0473">
        <ele>872.3</ele>
        <time>2016-07-31T08:47:31Z</time>
      </trkpt>
      <trkpt lat="42.43757" lon="0.04734">
        <ele>871.9</ele>
        <time>2016-07-31T08:47:32Z</time>
      </trkpt>
      <trkpt lat="42.43762" lon="0.04742">
        <ele>870.8</ele>
        <time>2016-07-31T08:47:34Z</time>
      </trkpt>
      <trkpt lat="42.43765" lon="0.04746">
        <ele>870</ele>
        <time>2016-07-31T08:47:35Z</time>
      </trkpt>
      <trkpt lat="42.43769" lon="0.0475">
        <ele>869</ele>
        <time>2016-07-31T08:47:36Z</time>
      </trkpt>
      <trkpt lat="42.43772" lon="0.04754">
        <ele>868.3</ele>
        <time>2016-07-31T08:47:37Z</time>
      </trkpt>
      <trkpt lat="42.43775" lon="0.04758">
        <ele>867.8</ele>
        <time>2016-07-31T08:47:38Z</time>
      </trkpt>
      <trkpt lat="42.43777" lon="0.04762">
        <ele>867.2</ele>
        <time>2016-07-31T08:47:39Z</time>
      </trkpt>
      <trkpt lat="42.4378" lon="0.04766">
        <ele>866.7</ele>
        <time>2016-07-31T08:47:40Z</time>
      </trkpt>
      <trkpt lat="42.43782" lon="0.04771">
        <ele>866.2</ele>
        <time>2016-07-31T08:47:41Z</time>
      </trkpt>
      <trkpt lat="42.43785" lon="0.04776">
        <ele>865.6</ele>
        <time>2016-07-31T08:47:42Z</time>
      </trkpt>
      <trkpt lat="42.43788" lon="0.04779">
        <ele>864.8</ele>
        <time>2016-07-31T08:47:43Z</time>
      </trkpt>
      <trkpt lat="42.43791" lon="0.04782">
        <ele>863.8</ele>
        <time>2016-07-31T08:47:44Z</time>
      </trkpt>
      <trkpt lat="42.43794" lon="0.04783">
        <ele>862.7</ele>
        <time>2016-07-31T08:47:45Z</time>
      </trkpt>
      <trkpt lat="42.43796" lon="0.04784">
        <ele>861.8</ele>
        <time>2016-07-31T08:47:46Z</time>
      </trkpt>
      <trkpt lat="42.43799" lon="0.04785">
        <ele>860.8</ele>
        <time>2016-07-31T08:47:47Z</time>
      </trkpt>
      <trkpt lat="42.43803" lon="0.04787">
        <ele>859.6</ele>
        <time>2016-07-31T08:47:48Z</time>
      </trkpt>
      <trkpt lat="42.43806" lon="0.04789">
        <ele>858.6</ele>
        <time>2016-07-31T08:47:49Z</time>
      </trkpt>
      <trkpt lat="42.43809" lon="0.04793">
        <ele>857.8</ele>
        <time>2016-07-31T08:47:50Z</time>
      </trkpt>
      <trkpt lat="42.43813" lon="0.04797">
        <ele>857.1</ele>
        <time>2016-07-31T08:47:51Z</time>
      </trkpt>
      <trkpt lat="42.43817" lon="0.048">
        <ele>856.3</ele>
        <time>2016-07-31T08:47:52Z</time>
      </trkpt>
      <trkpt lat="42.4382" lon="0.04803">
        <ele>855.7</ele>
        <time>2016-07-31T08:47:53Z</time>
      </trkpt>
      <trkpt lat="42.43823" lon="0.04805">
        <ele>855.1</ele>
        <time>2016-07-31T08:47:54Z</time>
      </trkpt>
      <trkpt lat="42.43827" lon="0.04812">
        <ele>854.7</ele>
        <time>2016-07-31T08:47:56Z</time>
      </trkpt>
      <trkpt lat="42.43829" lon="0.04815">
        <ele>854.6</ele>
        <time>2016-07-31T08:47:57Z</time>
      </trkpt>
      <trkpt lat="42.43831" lon="0.04818">
        <ele>854.3</ele>
        <time>2016-07-31T08:47:58Z</time>
      </trkpt>
      <trkpt lat="42.43833" lon="0.04821">
        <ele>853.8</ele>
        <time>2016-07-31T08:47:59Z</time>
      </trkpt>
      <trkpt lat="42.43836" lon="0.04823">
        <ele>853.2</ele>
        <time>2016-07-31T08:48:00Z</time>
      </trkpt>
      <trkpt lat="42.4384" lon="0.04825">
        <ele>851.9</ele>
        <time>2016-07-31T08:48:02Z</time>
      </trkpt>
      <trkpt lat="42.43844" lon="0.04828">
        <ele>850.5</ele>
        <time>2016-07-31T08:48:04Z</time>
      </trkpt>
      <trkpt lat="42.43848" lon="0.04831">
        <ele>849.7</ele>
        <time>2016-07-31T08:48:06Z</time>
      </trkpt>
      <trkpt lat="42.43851" lon="0.04835">
        <ele>848.8</ele>
        <time>2016-07-31T08:48:08Z</time>
      </trkpt>
      <trkpt lat="42.43854" lon="0.04841">
        <ele>848.6</ele>
        <time>2016-07-31T08:48:10Z</time>
      </trkpt>
      <trkpt lat="42.43856" lon="0.04844">
        <ele>848.7</ele>
        <time>2016-07-31T08:48:11Z</time>
      </trkpt>
      <trkpt lat="42.43858" lon="0.04849">
        <ele>848.8</ele>
        <time>2016-07-31T08:48:12Z</time>
      </trkpt>
      <trkpt lat="42.43859" lon="0.04852">
        <ele>848.7</ele>
        <time>2016-07-31T08:48:13Z</time>
      </trkpt>
      <trkpt lat="42.43861" lon="0.04856">
        <ele>848.9</ele>
        <time>2016-07-31T08:48:14Z</time>
      </trkpt>
      <trkpt lat="42.43862" lon="0.04861">
        <ele>849.1</ele>
        <time>2016-07-31T08:48:15Z</time>
      </trkpt>
      <trkpt lat="42.43864" lon="0.04865">
        <ele>849.2</ele>
        <time>2016-07-31T08:48:16Z</time>
      </trkpt>
      <trkpt lat="42.43866" lon="0.04869">
        <ele>848.8</ele>
        <time>2016-07-31T08:48:17Z</time>
      </trkpt>
      <trkpt lat="42.43869" lon="0.04871">
        <ele>848</ele>
        <time>2016-07-31T08:48:18Z</time>
      </trkpt>
      <trkpt lat="42.43873" lon="0.04872">
        <ele>846.5</ele>
        <time>2016-07-31T08:48:20Z</time>
      </trkpt>
      <trkpt lat="42.43877" lon="0.04873">
        <ele>844.6</ele>
        <time>2016-07-31T08:48:22Z</time>
      </trkpt>
      <trkpt lat="42.4388" lon="0.04876">
        <ele>843.5</ele>
        <time>2016-07-31T08:48:23Z</time>
      </trkpt>
      <trkpt lat="42.43886" lon="0.04883">
        <ele>842.5</ele>
        <time>2016-07-31T08:48:25Z</time>
      </trkpt>
      <trkpt lat="42.43888" lon="0.04885">
        <ele>841.7</ele>
        <time>2016-07-31T08:48:26Z</time>
      </trkpt>
      <trkpt lat="42.43891" lon="0.04886">
        <ele>840.5</ele>
        <time>2016-07-31T08:48:27Z</time>
      </trkpt>
      <trkpt lat="42.43895" lon="0.04886">
        <ele>838.9</ele>
        <time>2016-07-31T08:48:28Z</time>
      </trkpt>
      <trkpt lat="42.43898" lon="0.04886">
        <ele>837.2</ele>
        <time>2016-07-31T08:48:29Z</time>
      </trkpt>
      <trkpt lat="42.43901" lon="0.04887">
        <ele>835.7</ele>
        <time>2016-07-31T08:48:30Z</time>
      </trkpt>
      <trkpt lat="42.43906" lon="0.04888">
        <ele>833.6</ele>
        <time>2016-07-31T08:48:32Z</time>
      </trkpt>
      <trkpt lat="42.4391" lon="0.04892">
        <ele>832.6</ele>
        <time>2016-07-31T08:48:34Z</time>
      </trkpt>
      <trkpt lat="42.43914" lon="0.04893">
        <ele>830.9</ele>
        <time>2016-07-31T08:48:36Z</time>
      </trkpt>
      <trkpt lat="42.4392" lon="0.04894">
        <ele>828.5</ele>
        <time>2016-07-31T08:48:38Z</time>
      </trkpt>
      <trkpt lat="42.43923" lon="0.04896">
        <ele>827.6</ele>
        <time>2016-07-31T08:48:39Z</time>
      </trkpt>
      <trkpt lat="42.43925" lon="0.04898">
        <ele>827.2</ele>
        <time>2016-07-31T08:48:40Z</time>
      </trkpt>
      <trkpt lat="42.43927" lon="0.04903">
        <ele>827.3</ele>
        <time>2016-07-31T08:48:42Z</time>
      </trkpt>
      <trkpt lat="42.4393" lon="0.04902">
        <ele>825.7</ele>
        <time>2016-07-31T08:48:52Z</time>
      </trkpt>
      <trkpt lat="42.43933" lon="0.04904">
        <ele>824.8</ele>
        <time>2016-07-31T08:48:54Z</time>
      </trkpt>
      <trkpt lat="42.43937" lon="0.04906">
        <ele>823.9</ele>
        <time>2016-07-31T08:48:56Z</time>
      </trkpt>
      <trkpt lat="42.43939" lon="0.04909">
        <ele>823.5</ele>
        <time>2016-07-31T08:48:58Z</time>
      </trkpt>
      <trkpt lat="42.43942" lon="0.04913">
        <ele>823.5</ele>
        <time>2016-07-31T08:49:27Z</time>
      </trkpt>
      <trkpt lat="42.43946" lon="0.04916">
        <ele>822.6</ele>
        <time>2016-07-31T08:49:29Z</time>
      </trkpt>
      <trkpt lat="42.43951" lon="0.04919">
        <ele>821.3</ele>
        <time>2016-07-31T08:49:31Z</time>
      </trkpt>
      <trkpt lat="42.43953" lon="0.0492">
        <ele>820.5</ele>
        <time>2016-07-31T08:49:32Z</time>
      </trkpt>
      <trkpt lat="42.43956" lon="0.04921">
        <ele>819.5</ele>
        <time>2016-07-31T08:49:33Z</time>
      </trkpt>
      <trkpt lat="42.4396" lon="0.04922">
        <ele>818.5</ele>
        <time>2016-07-31T08:49:34Z</time>
      </trkpt>
      <trkpt lat="42.43963" lon="0.04924">
        <ele>817.8</ele>
        <time>2016-07-31T08:49:35Z</time>
      </trkpt>
      <trkpt lat="42.43966" lon="0.04927">
        <ele>817.4</ele>
        <time>2016-07-31T08:49:36Z</time>
      </trkpt>
      <trkpt lat="42.43969" lon="0.04931">
        <ele>817.7</ele>
        <time>2016-07-31T08:49:37Z</time>
      </trkpt>
      <trkpt lat="42.43972" lon="0.04936">
        <ele>818.3</ele>
        <time>2016-07-31T08:49:38Z</time>
      </trkpt>
      <trkpt lat="42.43975" lon="0.0494">
        <ele>818.7</ele>
        <time>2016-07-31T08:49:39Z</time>
      </trkpt>
      <trkpt lat="42.43977" lon="0.04944">
        <ele>818.9</ele>
        <time>2016-07-31T08:49:40Z</time>
      </trkpt>
      <trkpt lat="42.43981" lon="0.04947">
        <ele>818.5</ele>
        <time>2016-07-31T08:49:41Z</time>
      </trkpt>
      <trkpt lat="42.43985" lon="0.0495">
        <ele>818</ele>
        <time>2016-07-31T08:49:42Z</time>
      </trkpt>
      <trkpt lat="42.43988" lon="0.04953">
        <ele>817.7</ele>
        <time>2016-07-31T08:49:43Z</time>
      </trkpt>
      <trkpt lat="42.43992" lon="0.04957">
        <ele>817.5</ele>
        <time>2016-07-31T08:49:44Z</time>
      </trkpt>
      <trkpt lat="42.43995" lon="0.04962">
        <ele>817.9</ele>
        <time>2016-07-31T08:49:45Z</time>
      </trkpt>
      <trkpt lat="42.43998" lon="0.04965">
        <ele>818.1</ele>
        <time>2016-07-31T08:49:46Z</time>
      </trkpt>
      <trkpt lat="42.44" lon="0.04968">
        <ele>818.3</ele>
        <time>2016-07-31T08:49:47Z</time>
      </trkpt>
      <trkpt lat="42.44004" lon="0.0497">
        <ele>817.6</ele>
        <time>2016-07-31T08:49:49Z</time>
      </trkpt>
      <trkpt lat="42.44008" lon="0.04971">
        <ele>816.6</ele>
        <time>2016-07-31T08:49:50Z</time>
      </trkpt>
      <trkpt lat="42.44012" lon="0.04972">
        <ele>815</ele>
        <time>2016-07-31T08:49:51Z</time>
      </trkpt>
      <trkpt lat="42.44018" lon="0.04974">
        <ele>813.6</ele>
        <time>2016-07-31T08:49:52Z</time>
      </trkpt>
      <trkpt lat="42.44022" lon="0.04976">
        <ele>812.6</ele>
        <time>2016-07-31T08:49:53Z</time>
      </trkpt>
      <trkpt lat="42.44027" lon="0.04979">
        <ele>811.9</ele>
        <time>2016-07-31T08:49:54Z</time>
      </trkpt>
      <trkpt lat="42.44032" lon="0.04982">
        <ele>811.3</ele>
        <time>2016-07-31T08:49:55Z</time>
      </trkpt>
      <trkpt lat="42.44037" lon="0.04984">
        <ele>810.5</ele>
        <time>2016-07-31T08:49:56Z</time>
      </trkpt>
      <trkpt lat="42.44042" lon="0.04987">
        <ele>809.6</ele>
        <time>2016-07-31T08:49:57Z</time>
      </trkpt>
      <trkpt lat="42.44047" lon="0.0499">
        <ele>809.6</ele>
        <time>2016-07-31T08:49:58Z</time>
      </trkpt>
      <trkpt lat="42.44052" lon="0.04992">
        <ele>809.4</ele>
        <time>2016-07-31T08:49:59Z</time>
      </trkpt>
      <trkpt lat="42.44057" lon="0.04994">
        <ele>809.4</ele>
        <time>2016-07-31T08:50:00Z</time>
      </trkpt>
      <trkpt lat="42.44061" lon="0.04997">
        <ele>809.7</ele>
        <time>2016-07-31T08:50:01Z</time>
      </trkpt>
      <trkpt lat="42.44066" lon="0.05001">
        <ele>810</ele>
        <time>2016-07-31T08:50:02Z</time>
      </trkpt>
      <trkpt lat="42.4407" lon="0.05003">
        <ele>810.2</ele>
        <time>2016-07-31T08:50:03Z</time>
      </trkpt>
      <trkpt lat="42.44073" lon="0.05006">
        <ele>810.3</ele>
        <time>2016-07-31T08:50:04Z</time>
      </trkpt>
      <trkpt lat="42.44078" lon="0.05007">
        <ele>810</ele>
        <time>2016-07-31T08:50:05Z</time>
      </trkpt>
      <trkpt lat="42.44082" lon="0.05008">
        <ele>809.4</ele>
        <time>2016-07-31T08:50:06Z</time>
      </trkpt>
      <trkpt lat="42.44087" lon="0.05008">
        <ele>808.4</ele>
        <time>2016-07-31T08:50:07Z</time>
      </trkpt>
      <trkpt lat="42.44092" lon="0.05008">
        <ele>807</ele>
        <time>2016-07-31T08:50:08Z</time>
      </trkpt>
      <trkpt lat="42.44096" lon="0.05007">
        <ele>805.6</ele>
        <time>2016-07-31T08:50:09Z</time>
      </trkpt>
      <trkpt lat="42.441" lon="0.05007">
        <ele>804.6</ele>
        <time>2016-07-31T08:50:10Z</time>
      </trkpt>
      <trkpt lat="42.44104" lon="0.05008">
        <ele>804</ele>
        <time>2016-07-31T08:50:11Z</time>
      </trkpt>
      <trkpt lat="42.44107" lon="0.05009">
        <ele>803.8</ele>
        <time>2016-07-31T08:50:12Z</time>
      </trkpt>
      <trkpt lat="42.4411" lon="0.05011">
        <ele>803.7</ele>
        <time>2016-07-31T08:50:13Z</time>
      </trkpt>
      <trkpt lat="42.44113" lon="0.05012">
        <ele>803.5</ele>
        <time>2016-07-31T08:50:14Z</time>
      </trkpt>
      <trkpt lat="42.44116" lon="0.05013">
        <ele>803.3</ele>
        <time>2016-07-31T08:50:15Z</time>
      </trkpt>
      <trkpt lat="42.44119" lon="0.05014">
        <ele>803.3</ele>
        <time>2016-07-31T08:50:16Z</time>
      </trkpt>
      <trkpt lat="42.44121" lon="0.05017">
        <ele>803.7</ele>
        <time>2016-07-31T08:50:17Z</time>
      </trkpt>
      <trkpt lat="42.44124" lon="0.05019">
        <ele>804.2</ele>
        <time>2016-07-31T08:50:18Z</time>
      </trkpt>
      <trkpt lat="42.44127" lon="0.05022">
        <ele>805</ele>
        <time>2016-07-31T08:50:20Z</time>
      </trkpt>
      <trkpt lat="42.44131" lon="0.05025">
        <ele>805</ele>
        <time>2016-07-31T08:50:22Z</time>
      </trkpt>
      <trkpt lat="42.44134" lon="0.05027">
        <ele>805.3</ele>
        <time>2016-07-31T08:50:23Z</time>
      </trkpt>
      <trkpt lat="42.44137" lon="0.0503">
        <ele>805.8</ele>
        <time>2016-07-31T08:50:24Z</time>
      </trkpt>
      <trkpt lat="42.44139" lon="0.05033">
        <ele>806.5</ele>
        <time>2016-07-31T08:50:25Z</time>
      </trkpt>
      <trkpt lat="42.44141" lon="0.05036">
        <ele>807.5</ele>
        <time>2016-07-31T08:50:26Z</time>
      </trkpt>
      <trkpt lat="42.44143" lon="0.05039">
        <ele>808.4</ele>
        <time>2016-07-31T08:50:27Z</time>
      </trkpt>
      <trkpt lat="42.44145" lon="0.05042">
        <ele>809.2</ele>
        <time>2016-07-31T08:50:28Z</time>
      </trkpt>
      <trkpt lat="42.44149" lon="0.05047">
        <ele>810.3</ele>
        <time>2016-07-31T08:50:30Z</time>
      </trkpt>
      <trkpt lat="42.44153" lon="0.0505">
        <ele>810.5</ele>
        <time>2016-07-31T08:50:32Z</time>
      </trkpt>
      <trkpt lat="42.44158" lon="0.05054">
        <ele>811.1</ele>
        <time>2016-07-31T08:50:34Z</time>
      </trkpt>
      <trkpt lat="42.4416" lon="0.05056">
        <ele>811.5</ele>
        <time>2016-07-31T08:50:35Z</time>
      </trkpt>
      <trkpt lat="42.44163" lon="0.05058">
        <ele>811.6</ele>
        <time>2016-07-31T08:50:36Z</time>
      </trkpt>
      <trkpt lat="42.44166" lon="0.05059">
        <ele>811.6</ele>
        <time>2016-07-31T08:50:37Z</time>
      </trkpt>
      <trkpt lat="42.44169" lon="0.05061">
        <ele>811.7</ele>
        <time>2016-07-31T08:50:38Z</time>
      </trkpt>
      <trkpt lat="42.44173" lon="0.05065">
        <ele>812.8</ele>
        <time>2016-07-31T08:50:40Z</time>
      </trkpt>
      <trkpt lat="42.44176" lon="0.05069">
        <ele>813.8</ele>
        <time>2016-07-31T08:50:42Z</time>
      </trkpt>
      <trkpt lat="42.44181" lon="0.05073">
        <ele>814.2</ele>
        <time>2016-07-31T08:50:44Z</time>
      </trkpt>
      <trkpt lat="42.44184" lon="0.05074">
        <ele>814.2</ele>
        <time>2016-07-31T08:50:45Z</time>
      </trkpt>
      <trkpt lat="42.44189" lon="0.05077">
        <ele>814.6</ele>
        <time>2016-07-31T08:50:47Z</time>
      </trkpt>
      <trkpt lat="42.44193" lon="0.05081">
        <ele>815.3</ele>
        <time>2016-07-31T08:50:49Z</time>
      </trkpt>
      <trkpt lat="42.44196" lon="0.05083">
        <ele>815.6</ele>
        <time>2016-07-31T08:50:50Z</time>
      </trkpt>
      <trkpt lat="42.44199" lon="0.05084">
        <ele>815.7</ele>
        <time>2016-07-31T08:50:51Z</time>
      </trkpt>
      <trkpt lat="42.44202" lon="0.05086">
        <ele>815.7</ele>
        <time>2016-07-31T08:50:52Z</time>
      </trkpt>
      <trkpt lat="42.44205" lon="0.05087">
        <ele>815.7</ele>
        <time>2016-07-31T08:50:53Z</time>
      </trkpt>
      <trkpt lat="42.44207" lon="0.05089">
        <ele>815.7</ele>
        <time>2016-07-31T08:50:54Z</time>
      </trkpt>
      <trkpt lat="42.4421" lon="0.0509">
        <ele>815.6</ele>
        <time>2016-07-31T08:50:55Z</time>
      </trkpt>
      <trkpt lat="42.44213" lon="0.05092">
        <ele>815.4</ele>
        <time>2016-07-31T08:50:56Z</time>
      </trkpt>
      <trkpt lat="42.44217" lon="0.05094">
        <ele>815.3</ele>
        <time>2016-07-31T08:50:57Z</time>
      </trkpt>
      <trkpt lat="42.4422" lon="0.05096">
        <ele>815.3</ele>
        <time>2016-07-31T08:50:58Z</time>
      </trkpt>
      <trkpt lat="42.44223" lon="0.05098">
        <ele>815.3</ele>
        <time>2016-07-31T08:50:59Z</time>
      </trkpt>
      <trkpt lat="42.44226" lon="0.05099">
        <ele>815.2</ele>
        <time>2016-07-31T08:51:00Z</time>
      </trkpt>
      <trkpt lat="42.44229" lon="0.051">
        <ele>814.7</ele>
        <time>2016-07-31T08:51:01Z</time>
      </trkpt>
      <trkpt lat="42.44232" lon="0.05101">
        <ele>814</ele>
        <time>2016-07-31T08:51:02Z</time>
      </trkpt>
      <trkpt lat="42.44236" lon="0.05103">
        <ele>813.6</ele>
        <time>2016-07-31T08:51:03Z</time>
      </trkpt>
      <trkpt lat="42.44239" lon="0.05105">
        <ele>813.5</ele>
        <time>2016-07-31T08:51:04Z</time>
      </trkpt>
      <trkpt lat="42.44243" lon="0.05108">
        <ele>813.5</ele>
        <time>2016-07-31T08:51:05Z</time>
      </trkpt>
      <trkpt lat="42.44246" lon="0.0511">
        <ele>813.4</ele>
        <time>2016-07-31T08:51:06Z</time>
      </trkpt>
      <trkpt lat="42.44249" lon="0.05112">
        <ele>813.4</ele>
        <time>2016-07-31T08:51:07Z</time>
      </trkpt>
      <trkpt lat="42.44252" lon="0.05113">
        <ele>813.5</ele>
        <time>2016-07-31T08:51:08Z</time>
      </trkpt>
      <trkpt lat="42.44256" lon="0.05118">
        <ele>814.2</ele>
        <time>2016-07-31T08:51:10Z</time>
      </trkpt>
      <trkpt lat="42.44259" lon="0.05122">
        <ele>815.5</ele>
        <time>2016-07-31T08:51:12Z</time>
      </trkpt>
      <trkpt lat="42.44261" lon="0.05126">
        <ele>816.3</ele>
        <time>2016-07-31T08:51:13Z</time>
      </trkpt>
      <trkpt lat="42.44263" lon="0.05129">
        <ele>816.8</ele>
        <time>2016-07-31T08:51:14Z</time>
      </trkpt>
      <trkpt lat="42.44265" lon="0.05133">
        <ele>817.4</ele>
        <time>2016-07-31T08:51:15Z</time>
      </trkpt>
      <trkpt lat="42.44267" lon="0.05137">
        <ele>818.1</ele>
        <time>2016-07-31T08:51:16Z</time>
      </trkpt>
      <trkpt lat="42.44269" lon="0.05141">
        <ele>818.9</ele>
        <time>2016-07-31T08:51:17Z</time>
      </trkpt>
      <trkpt lat="42.44271" lon="0.05144">
        <ele>819.6</ele>
        <time>2016-07-31T08:51:18Z</time>
      </trkpt>
      <trkpt lat="42.44273" lon="0.05148">
        <ele>820.2</ele>
        <time>2016-07-31T08:51:19Z</time>
      </trkpt>
      <trkpt lat="42.44274" lon="0.05151">
        <ele>820.8</ele>
        <time>2016-07-31T08:51:20Z</time>
      </trkpt>
      <trkpt lat="42.44276" lon="0.05154">
        <ele>821.1</ele>
        <time>2016-07-31T08:51:21Z</time>
      </trkpt>
      <trkpt lat="42.4428" lon="0.0516">
        <ele>821.6</ele>
        <time>2016-07-31T08:51:23Z</time>
      </trkpt>
      <trkpt lat="42.44282" lon="0.05163">
        <ele>821.8</ele>
        <time>2016-07-31T08:51:24Z</time>
      </trkpt>
      <trkpt lat="42.44285" lon="0.05167">
        <ele>822</ele>
        <time>2016-07-31T08:51:25Z</time>
      </trkpt>
      <trkpt lat="42.44288" lon="0.05171">
        <ele>822.2</ele>
        <time>2016-07-31T08:51:26Z</time>
      </trkpt>
      <trkpt lat="42.44291" lon="0.05175">
        <ele>822.5</ele>
        <time>2016-07-31T08:51:27Z</time>
      </trkpt>
      <trkpt lat="42.44294" lon="0.05179">
        <ele>822.5</ele>
        <time>2016-07-31T08:51:28Z</time>
      </trkpt>
      <trkpt lat="42.44297" lon="0.05183">
        <ele>822</ele>
        <time>2016-07-31T08:51:29Z</time>
      </trkpt>
      <trkpt lat="42.443" lon="0.05186">
        <ele>821.1</ele>
        <time>2016-07-31T08:51:30Z</time>
      </trkpt>
      <trkpt lat="42.44304" lon="0.05189">
        <ele>820</ele>
        <time>2016-07-31T08:51:31Z</time>
      </trkpt>
      <trkpt lat="42.44307" lon="0.05191">
        <ele>818.9</ele>
        <time>2016-07-31T08:51:32Z</time>
      </trkpt>
      <trkpt lat="42.4431" lon="0.05194">
        <ele>818.2</ele>
        <time>2016-07-31T08:51:33Z</time>
      </trkpt>
      <trkpt lat="42.44313" lon="0.05198">
        <ele>817.7</ele>
        <time>2016-07-31T08:51:34Z</time>
      </trkpt>
      <trkpt lat="42.44316" lon="0.05202">
        <ele>817.6</ele>
        <time>2016-07-31T08:51:35Z</time>
      </trkpt>
      <trkpt lat="42.44319" lon="0.05207">
        <ele>817.4</ele>
        <time>2016-07-31T08:51:36Z</time>
      </trkpt>
      <trkpt lat="42.44322" lon="0.05212">
        <ele>817</ele>
        <time>2016-07-31T08:51:37Z</time>
      </trkpt>
      <trkpt lat="42.44325" lon="0.05216">
        <ele>816.7</ele>
        <time>2016-07-31T08:51:38Z</time>
      </trkpt>
      <trkpt lat="42.44328" lon="0.05221">
        <ele>816.6</ele>
        <time>2016-07-31T08:51:39Z</time>
      </trkpt>
      <trkpt lat="42.4433" lon="0.05224">
        <ele>816.6</ele>
        <time>2016-07-31T08:51:40Z</time>
      </trkpt>
      <trkpt lat="42.44332" lon="0.05228">
        <ele>816.6</ele>
        <time>2016-07-31T08:51:41Z</time>
      </trkpt>
      <trkpt lat="42.44335" lon="0.05231">
        <ele>816.5</ele>
        <time>2016-07-31T08:51:42Z</time>
      </trkpt>
      <trkpt lat="42.44339" lon="0.05236">
        <ele>815.5</ele>
        <time>2016-07-31T08:51:44Z</time>
      </trkpt>
      <trkpt lat="42.44342" lon="0.05238">
        <ele>814.7</ele>
        <time>2016-07-31T08:51:45Z</time>
      </trkpt>
      <trkpt lat="42.44346" lon="0.05241">
        <ele>813.7</ele>
        <time>2016-07-31T08:51:46Z</time>
      </trkpt>
      <trkpt lat="42.44348" lon="0.05243">
        <ele>813.2</ele>
        <time>2016-07-31T08:51:47Z</time>
      </trkpt>
      <trkpt lat="42.44351" lon="0.05248">
        <ele>813.1</ele>
        <time>2016-07-31T08:51:49Z</time>
      </trkpt>
      <trkpt lat="42.44353" lon="0.05252">
        <ele>813.5</ele>
        <time>2016-07-31T08:51:51Z</time>
      </trkpt>
      <trkpt lat="42.44357" lon="0.05254">
        <ele>812</ele>
        <time>2016-07-31T08:51:53Z</time>
      </trkpt>
      <trkpt lat="42.44361" lon="0.05257">
        <ele>810.6</ele>
        <time>2016-07-31T08:51:55Z</time>
      </trkpt>
      <trkpt lat="42.44364" lon="0.05262">
        <ele>810.8</ele>
        <time>2016-07-31T08:51:57Z</time>
      </trkpt>
      <trkpt lat="42.44366" lon="0.05265">
        <ele>810.9</ele>
        <time>2016-07-31T08:51:58Z</time>
      </trkpt>
      <trkpt lat="42.44368" lon="0.05269">
        <ele>810.8</ele>
        <time>2016-07-31T08:51:59Z</time>
      </trkpt>
      <trkpt lat="42.4437" lon="0.05271">
        <ele>810.4</ele>
        <time>2016-07-31T08:52:00Z</time>
      </trkpt>
      <trkpt lat="42.44373" lon="0.05273">
        <ele>809.6</ele>
        <time>2016-07-31T08:52:01Z</time>
      </trkpt>
      <trkpt lat="42.44377" lon="0.05276">
        <ele>808.2</ele>
        <time>2016-07-31T08:52:03Z</time>
      </trkpt>
      <trkpt lat="42.4438" lon="0.05279">
        <ele>807.1</ele>
        <time>2016-07-31T08:52:05Z</time>
      </trkpt>
      <trkpt lat="42.44384" lon="0.05282">
        <ele>806</ele>
        <time>2016-07-31T08:52:07Z</time>
      </trkpt>
      <trkpt lat="42.44386" lon="0.05285">
        <ele>805.5</ele>
        <time>2016-07-31T08:52:08Z</time>
      </trkpt>
      <trkpt lat="42.44388" lon="0.05288">
        <ele>805.5</ele>
        <time>2016-07-31T08:52:09Z</time>
      </trkpt>
      <trkpt lat="42.44389" lon="0.05291">
        <ele>805.6</ele>
        <time>2016-07-31T08:52:10Z</time>
      </trkpt>
      <trkpt lat="42.44391" lon="0.05295">
        <ele>805.3</ele>
        <time>2016-07-31T08:52:11Z</time>
      </trkpt>
      <trkpt lat="42.44393" lon="0.05298">
        <ele>805</ele>
        <time>2016-07-31T08:52:12Z</time>
      </trkpt>
      <trkpt lat="42.44394" lon="0.05303">
        <ele>805</ele>
        <time>2016-07-31T08:52:13Z</time>
      </trkpt>
      <trkpt lat="42.44395" lon="0.05307">
        <ele>805.1</ele>
        <time>2016-07-31T08:52:14Z</time>
      </trkpt>
      <trkpt lat="42.44396" lon="0.0531">
        <ele>805.6</ele>
        <time>2016-07-31T08:52:15Z</time>
      </trkpt>
      <trkpt lat="42.44397" lon="0.05316">
        <ele>806.2</ele>
        <time>2016-07-31T08:52:17Z</time>
      </trkpt>
      <trkpt lat="42.444" lon="0.05322">
        <ele>805.3</ele>
        <time>2016-07-31T08:52:19Z</time>
      </trkpt>
      <trkpt lat="42.44402" lon="0.05325">
        <ele>804.5</ele>
        <time>2016-07-31T08:52:20Z</time>
      </trkpt>
      <trkpt lat="42.44405" lon="0.05329">
        <ele>803.5</ele>
        <time>2016-07-31T08:52:21Z</time>
      </trkpt>
      <trkpt lat="42.44407" lon="0.05333">
        <ele>802.4</ele>
        <time>2016-07-31T08:52:22Z</time>
      </trkpt>
      <trkpt lat="42.44409" lon="0.05336">
        <ele>801.9</ele>
        <time>2016-07-31T08:52:23Z</time>
      </trkpt>
      <trkpt lat="42.44411" lon="0.05341">
        <ele>802</ele>
        <time>2016-07-31T08:52:25Z</time>
      </trkpt>
      <trkpt lat="42.44412" lon="0.05348">
        <ele>802.5</ele>
        <time>2016-07-31T08:52:27Z</time>
      </trkpt>
      <trkpt lat="42.44412" lon="0.05353">
        <ele>803.2</ele>
        <time>2016-07-31T08:52:28Z</time>
      </trkpt>
      <trkpt lat="42.44413" lon="0.05358">
        <ele>803.9</ele>
        <time>2016-07-31T08:52:29Z</time>
      </trkpt>
      <trkpt lat="42.44413" lon="0.05363">
        <ele>804.5</ele>
        <time>2016-07-31T08:52:30Z</time>
      </trkpt>
      <trkpt lat="42.44415" lon="0.05369">
        <ele>804.7</ele>
        <time>2016-07-31T08:52:31Z</time>
      </trkpt>
      <trkpt lat="42.44417" lon="0.05374">
        <ele>804.2</ele>
        <time>2016-07-31T08:52:32Z</time>
      </trkpt>
      <trkpt lat="42.44418" lon="0.05377">
        <ele>803.7</ele>
        <time>2016-07-31T08:52:33Z</time>
      </trkpt>
      <trkpt lat="42.44419" lon="0.05381">
        <ele>803.1</ele>
        <time>2016-07-31T08:52:35Z</time>
      </trkpt>
      <trkpt lat="42.44421" lon="0.05384">
        <ele>802.5</ele>
        <time>2016-07-31T08:52:37Z</time>
      </trkpt>
      <trkpt lat="42.44422" lon="0.05389">
        <ele>802.2</ele>
        <time>2016-07-31T08:52:40Z</time>
      </trkpt>
      <trkpt lat="42.44421" lon="0.05394">
        <ele>802.9</ele>
        <time>2016-07-31T08:52:42Z</time>
      </trkpt>
      <trkpt lat="42.44422" lon="0.05399">
        <ele>802.8</ele>
        <time>2016-07-31T08:52:44Z</time>
      </trkpt>
      <trkpt lat="42.44425" lon="0.05399">
        <ele>800.6</ele>
        <time>2016-07-31T08:52:46Z</time>
      </trkpt>
      <trkpt lat="42.44429" lon="0.05394">
        <ele>797.2</ele>
        <time>2016-07-31T08:52:48Z</time>
      </trkpt>
      <trkpt lat="42.44431" lon="0.05392">
        <ele>795.3</ele>
        <time>2016-07-31T08:52:50Z</time>
      </trkpt>
      <trkpt lat="42.44434" lon="0.05394">
        <ele>793.6</ele>
        <time>2016-07-31T08:52:52Z</time>
      </trkpt>
      <trkpt lat="42.44435" lon="0.05398">
        <ele>793.2</ele>
        <time>2016-07-31T08:52:53Z</time>
      </trkpt>
      <trkpt lat="42.44435" lon="0.05403">
        <ele>793.6</ele>
        <time>2016-07-31T08:52:54Z</time>
      </trkpt>
      <trkpt lat="42.44434" lon="0.05408">
        <ele>794.5</ele>
        <time>2016-07-31T08:52:55Z</time>
      </trkpt>
      <trkpt lat="42.44433" lon="0.05413">
        <ele>795.7</ele>
        <time>2016-07-31T08:52:56Z</time>
      </trkpt>
      <trkpt lat="42.44432" lon="0.05419">
        <ele>796.7</ele>
        <time>2016-07-31T08:52:57Z</time>
      </trkpt>
      <trkpt lat="42.44432" lon="0.05424">
        <ele>797.4</ele>
        <time>2016-07-31T08:52:58Z</time>
      </trkpt>
      <trkpt lat="42.44431" lon="0.05429">
        <ele>798.2</ele>
        <time>2016-07-31T08:52:59Z</time>
      </trkpt>
      <trkpt lat="42.44431" lon="0.05433">
        <ele>798.9</ele>
        <time>2016-07-31T08:53:00Z</time>
      </trkpt>
      <trkpt lat="42.44431" lon="0.05437">
        <ele>799.3</ele>
        <time>2016-07-31T08:53:01Z</time>
      </trkpt>
      <trkpt lat="42.44431" lon="0.05442">
        <ele>799.2</ele>
        <time>2016-07-31T08:53:02Z</time>
      </trkpt>
      <trkpt lat="42.44433" lon="0.05447">
        <ele>798.4</ele>
        <time>2016-07-31T08:53:04Z</time>
      </trkpt>
      <trkpt lat="42.44435" lon="0.05452">
        <ele>797.2</ele>
        <time>2016-07-31T08:53:06Z</time>
      </trkpt>
      <trkpt lat="42.44436" lon="0.05456">
        <ele>796.2</ele>
        <time>2016-07-31T08:53:07Z</time>
      </trkpt>
      <trkpt lat="42.44438" lon="0.05459">
        <ele>795.2</ele>
        <time>2016-07-31T08:53:08Z</time>
      </trkpt>
      <trkpt lat="42.44439" lon="0.05463">
        <ele>794.6</ele>
        <time>2016-07-31T08:53:09Z</time>
      </trkpt>
      <trkpt lat="42.44441" lon="0.05466">
        <ele>794</ele>
        <time>2016-07-31T08:53:10Z</time>
      </trkpt>
      <trkpt lat="42.44443" lon="0.05472">
        <ele>793.2</ele>
        <time>2016-07-31T08:53:12Z</time>
      </trkpt>
      <trkpt lat="42.44444" lon="0.05477">
        <ele>792.7</ele>
        <time>2016-07-31T08:53:14Z</time>
      </trkpt>
      <trkpt lat="42.44446" lon="0.05481">
        <ele>792.1</ele>
        <time>2016-07-31T08:53:15Z</time>
      </trkpt>
      <trkpt lat="42.44447" lon="0.05484">
        <ele>791.2</ele>
        <time>2016-07-31T08:53:16Z</time>
      </trkpt>
      <trkpt lat="42.44451" lon="0.05491">
        <ele>788.8</ele>
        <time>2016-07-31T08:53:18Z</time>
      </trkpt>
      <trkpt lat="42.44455" lon="0.05495">
        <ele>786.6</ele>
        <time>2016-07-31T08:53:19Z</time>
      </trkpt>
      <trkpt lat="42.44459" lon="0.055">
        <ele>784.3</ele>
        <time>2016-07-31T08:53:20Z</time>
      </trkpt>
      <trkpt lat="42.44462" lon="0.05505">
        <ele>782</ele>
        <time>2016-07-31T08:53:21Z</time>
      </trkpt>
      <trkpt lat="42.44465" lon="0.05508">
        <ele>780.5</ele>
        <time>2016-07-31T08:53:22Z</time>
      </trkpt>
      <trkpt lat="42.44467" lon="0.05511">
        <ele>779</ele>
        <time>2016-07-31T08:53:23Z</time>
      </trkpt>
      <trkpt lat="42.44469" lon="0.05514">
        <ele>777.4</ele>
        <time>2016-07-31T08:53:24Z</time>
      </trkpt>
      <trkpt lat="42.44472" lon="0.05518">
        <ele>775.9</ele>
        <time>2016-07-31T08:53:25Z</time>
      </trkpt>
      <trkpt lat="42.44474" lon="0.05523">
        <ele>775</ele>
        <time>2016-07-31T08:53:26Z</time>
      </trkpt>
      <trkpt lat="42.44476" lon="0.05527">
        <ele>774.1</ele>
        <time>2016-07-31T08:53:27Z</time>
      </trkpt>
      <trkpt lat="42.44479" lon="0.05533">
        <ele>772.1</ele>
        <time>2016-07-31T08:53:29Z</time>
      </trkpt>
      <trkpt lat="42.44482" lon="0.05537">
        <ele>770.3</ele>
        <time>2016-07-31T08:53:30Z</time>
      </trkpt>
      <trkpt lat="42.44485" lon="0.05542">
        <ele>768.9</ele>
        <time>2016-07-31T08:53:31Z</time>
      </trkpt>
      <trkpt lat="42.44487" lon="0.05547">
        <ele>767.7</ele>
        <time>2016-07-31T08:53:32Z</time>
      </trkpt>
      <trkpt lat="42.44489" lon="0.05553">
        <ele>766.8</ele>
        <time>2016-07-31T08:53:33Z</time>
      </trkpt>
      <trkpt lat="42.44492" lon="0.05558">
        <ele>765.9</ele>
        <time>2016-07-31T08:53:34Z</time>
      </trkpt>
      <trkpt lat="42.44494" lon="0.05563">
        <ele>764.9</ele>
        <time>2016-07-31T08:53:35Z</time>
      </trkpt>
      <trkpt lat="42.44496" lon="0.05568">
        <ele>763.9</ele>
        <time>2016-07-31T08:53:36Z</time>
      </trkpt>
      <trkpt lat="42.44499" lon="0.05572">
        <ele>762.7</ele>
        <time>2016-07-31T08:53:37Z</time>
      </trkpt>
      <trkpt lat="42.44502" lon="0.05577">
        <ele>761.1</ele>
        <time>2016-07-31T08:53:38Z</time>
      </trkpt>
      <trkpt lat="42.44505" lon="0.05581">
        <ele>759.4</ele>
        <time>2016-07-31T08:53:39Z</time>
      </trkpt>
      <trkpt lat="42.44509" lon="0.05585">
        <ele>757.6</ele>
        <time>2016-07-31T08:53:40Z</time>
      </trkpt>
      <trkpt lat="42.44512" lon="0.0559">
        <ele>756.2</ele>
        <time>2016-07-31T08:53:41Z</time>
      </trkpt>
      <trkpt lat="42.44515" lon="0.05595">
        <ele>754.8</ele>
        <time>2016-07-31T08:53:42Z</time>
      </trkpt>
      <trkpt lat="42.44518" lon="0.05599">
        <ele>753.5</ele>
        <time>2016-07-31T08:53:43Z</time>
      </trkpt>
      <trkpt lat="42.44521" lon="0.05604">
        <ele>752.2</ele>
        <time>2016-07-31T08:53:44Z</time>
      </trkpt>
      <trkpt lat="42.44523" lon="0.0561">
        <ele>751.8</ele>
        <time>2016-07-31T08:53:45Z</time>
      </trkpt>
      <trkpt lat="42.44525" lon="0.05616">
        <ele>752</ele>
        <time>2016-07-31T08:53:46Z</time>
      </trkpt>
      <trkpt lat="42.44526" lon="0.05623">
        <ele>752.6</ele>
        <time>2016-07-31T08:53:47Z</time>
      </trkpt>
      <trkpt lat="42.44527" lon="0.05628">
        <ele>752.5</ele>
        <time>2016-07-31T08:53:48Z</time>
      </trkpt>
      <trkpt lat="42.44528" lon="0.05632">
        <ele>751.9</ele>
        <time>2016-07-31T08:53:49Z</time>
      </trkpt>
      <trkpt lat="42.44529" lon="0.05636">
        <ele>751.4</ele>
        <time>2016-07-31T08:53:50Z</time>
      </trkpt>
      <trkpt lat="42.44531" lon="0.0564">
        <ele>750.6</ele>
        <time>2016-07-31T08:53:51Z</time>
      </trkpt>
      <trkpt lat="42.44532" lon="0.05644">
        <ele>749.6</ele>
        <time>2016-07-31T08:53:52Z</time>
      </trkpt>
      <trkpt lat="42.44534" lon="0.05649">
        <ele>749.1</ele>
        <time>2016-07-31T08:53:53Z</time>
      </trkpt>
      <trkpt lat="42.44534" lon="0.05653">
        <ele>749.2</ele>
        <time>2016-07-31T08:53:54Z</time>
      </trkpt>
      <trkpt lat="42.44533" lon="0.05658">
        <ele>749.8</ele>
        <time>2016-07-31T08:53:55Z</time>
      </trkpt>
      <trkpt lat="42.44533" lon="0.05662">
        <ele>750.6</ele>
        <time>2016-07-31T08:53:56Z</time>
      </trkpt>
      <trkpt lat="42.44532" lon="0.05667">
        <ele>751</ele>
        <time>2016-07-31T08:53:57Z</time>
      </trkpt>
      <trkpt lat="42.44532" lon="0.05672">
        <ele>751.5</ele>
        <time>2016-07-31T08:53:58Z</time>
      </trkpt>
      <trkpt lat="42.44532" lon="0.05676">
        <ele>751.8</ele>
        <time>2016-07-31T08:53:59Z</time>
      </trkpt>
      <trkpt lat="42.44532" lon="0.0568">
        <ele>752.1</ele>
        <time>2016-07-31T08:54:00Z</time>
      </trkpt>
      <trkpt lat="42.44531" lon="0.05686">
        <ele>753.2</ele>
        <time>2016-07-31T08:54:02Z</time>
      </trkpt>
      <trkpt lat="42.4453" lon="0.05691">
        <ele>754.1</ele>
        <time>2016-07-31T08:54:04Z</time>
      </trkpt>
      <trkpt lat="42.4453" lon="0.05697">
        <ele>754.1</ele>
        <time>2016-07-31T08:54:06Z</time>
      </trkpt>
      <trkpt lat="42.44531" lon="0.057">
        <ele>753.9</ele>
        <time>2016-07-31T08:54:07Z</time>
      </trkpt>
      <trkpt lat="42.44532" lon="0.05706">
        <ele>753.3</ele>
        <time>2016-07-31T08:54:09Z</time>
      </trkpt>
      <trkpt lat="42.44534" lon="0.05713">
        <ele>751.9</ele>
        <time>2016-07-31T08:54:11Z</time>
      </trkpt>
      <trkpt lat="42.44534" lon="0.05718">
        <ele>751.1</ele>
        <time>2016-07-31T08:54:12Z</time>
      </trkpt>
      <trkpt lat="42.44533" lon="0.05723">
        <ele>750.5</ele>
        <time>2016-07-31T08:54:13Z</time>
      </trkpt>
      <trkpt lat="42.44532" lon="0.0573">
        <ele>750</ele>
        <time>2016-07-31T08:54:14Z</time>
      </trkpt>
      <trkpt lat="42.4453" lon="0.05738">
        <ele>749.9</ele>
        <time>2016-07-31T08:54:15Z</time>
      </trkpt>
      <trkpt lat="42.44529" lon="0.05745">
        <ele>749.8</ele>
        <time>2016-07-31T08:54:16Z</time>
      </trkpt>
      <trkpt lat="42.44527" lon="0.05753">
        <ele>749.5</ele>
        <time>2016-07-31T08:54:17Z</time>
      </trkpt>
      <trkpt lat="42.44525" lon="0.05761">
        <ele>749.3</ele>
        <time>2016-07-31T08:54:18Z</time>
      </trkpt>
      <trkpt lat="42.44524" lon="0.0577">
        <ele>749</ele>
        <time>2016-07-31T08:54:19Z</time>
      </trkpt>
      <trkpt lat="42.44522" lon="0.05777">
        <ele>748.9</ele>
        <time>2016-07-31T08:54:20Z</time>
      </trkpt>
      <trkpt lat="42.4452" lon="0.05785">
        <ele>748.8</ele>
        <time>2016-07-31T08:54:21Z</time>
      </trkpt>
      <trkpt lat="42.44518" lon="0.05792">
        <ele>748.8</ele>
        <time>2016-07-31T08:54:22Z</time>
      </trkpt>
      <trkpt lat="42.44517" lon="0.05798">
        <ele>748.1</ele>
        <time>2016-07-31T08:54:23Z</time>
      </trkpt>
      <trkpt lat="42.44514" lon="0.05805">
        <ele>747.8</ele>
        <time>2016-07-31T08:54:24Z</time>
      </trkpt>
      <trkpt lat="42.44512" lon="0.0581">
        <ele>747.9</ele>
        <time>2016-07-31T08:54:25Z</time>
      </trkpt>
      <trkpt lat="42.4451" lon="0.05814">
        <ele>748.3</ele>
        <time>2016-07-31T08:54:26Z</time>
      </trkpt>
      <trkpt lat="42.44507" lon="0.05818">
        <ele>749</ele>
        <time>2016-07-31T08:54:27Z</time>
      </trkpt>
      <trkpt lat="42.44505" lon="0.0582">
        <ele>749.9</ele>
        <time>2016-07-31T08:54:28Z</time>
      </trkpt>
      <trkpt lat="42.44501" lon="0.05827">
        <ele>750.9</ele>
        <time>2016-07-31T08:54:30Z</time>
      </trkpt>
      <trkpt lat="42.445" lon="0.05831">
        <ele>750.7</ele>
        <time>2016-07-31T08:54:31Z</time>
      </trkpt>
      <trkpt lat="42.44499" lon="0.05836">
        <ele>750.4</ele>
        <time>2016-07-31T08:54:32Z</time>
      </trkpt>
      <trkpt lat="42.44498" lon="0.0584">
        <ele>750</ele>
        <time>2016-07-31T08:54:33Z</time>
      </trkpt>
      <trkpt lat="42.44497" lon="0.05845">
        <ele>749.5</ele>
        <time>2016-07-31T08:54:34Z</time>
      </trkpt>
      <trkpt lat="42.44495" lon="0.0585">
        <ele>749.1</ele>
        <time>2016-07-31T08:54:35Z</time>
      </trkpt>
      <trkpt lat="42.44495" lon="0.05854">
        <ele>748.8</ele>
        <time>2016-07-31T08:54:36Z</time>
      </trkpt>
      <trkpt lat="42.44493" lon="0.05859">
        <ele>748.6</ele>
        <time>2016-07-31T08:54:38Z</time>
      </trkpt>
      <trkpt lat="42.44492" lon="0.05865">
        <ele>748</ele>
        <time>2016-07-31T08:54:40Z</time>
      </trkpt>
      <trkpt lat="42.44492" lon="0.0587">
        <ele>746.6</ele>
        <time>2016-07-31T08:54:42Z</time>
      </trkpt>
      <trkpt lat="42.4449" lon="0.05874">
        <ele>747.3</ele>
        <time>2016-07-31T08:55:18Z</time>
      </trkpt>
      <trkpt lat="42.44489" lon="0.05878">
        <ele>747.1</ele>
        <time>2016-07-31T08:55:19Z</time>
      </trkpt>
      <trkpt lat="42.44487" lon="0.05881">
        <ele>746.9</ele>
        <time>2016-07-31T08:55:20Z</time>
      </trkpt>
      <trkpt lat="42.44485" lon="0.05884">
        <ele>747.2</ele>
        <time>2016-07-31T08:55:22Z</time>
      </trkpt>
      <trkpt lat="42.44483" lon="0.05886">
        <ele>748.2</ele>
        <time>2016-07-31T08:55:24Z</time>
      </trkpt>
      <trkpt lat="42.44487" lon="0.05887">
        <ele>745</ele>
        <time>2016-07-31T08:55:31Z</time>
      </trkpt>
      <trkpt lat="42.4449" lon="0.05886">
        <ele>742.6</ele>
        <time>2016-07-31T08:55:34Z</time>
      </trkpt>
      <trkpt lat="42.44491" lon="0.0589">
        <ele>740.6</ele>
        <time>2016-07-31T08:55:37Z</time>
      </trkpt>
      <trkpt lat="42.44488" lon="0.05896">
        <ele>740.1</ele>
        <time>2016-07-31T08:55:39Z</time>
      </trkpt>
      <trkpt lat="42.44487" lon="0.05898">
        <ele>740.3</ele>
        <time>2016-07-31T08:55:40Z</time>
      </trkpt>
      <trkpt lat="42.44483" lon="0.05903">
        <ele>741.2</ele>
        <time>2016-07-31T08:55:42Z</time>
      </trkpt>
      <trkpt lat="42.44481" lon="0.05905">
        <ele>742.1</ele>
        <time>2016-07-31T08:55:44Z</time>
      </trkpt>
      <trkpt lat="42.44479" lon="0.05909">
        <ele>741.2</ele>
        <time>2016-07-31T08:55:46Z</time>
      </trkpt>
      <trkpt lat="42.44479" lon="0.05915">
        <ele>739.3</ele>
        <time>2016-07-31T08:55:48Z</time>
      </trkpt>
      <trkpt lat="42.44479" lon="0.0592">
        <ele>736.9</ele>
        <time>2016-07-31T08:55:53Z</time>
      </trkpt>
      <trkpt lat="42.44479" lon="0.05925">
        <ele>735.3</ele>
        <time>2016-07-31T08:55:56Z</time>
      </trkpt>
      <trkpt lat="42.44478" lon="0.05929">
        <ele>734.1</ele>
        <time>2016-07-31T08:56:13Z</time>
      </trkpt>
      <trkpt lat="42.44477" lon="0.05933">
        <ele>733.5</ele>
        <time>2016-07-31T08:56:21Z</time>
      </trkpt>
      <trkpt lat="42.44478" lon="0.05936">
        <ele>731.7</ele>
        <time>2016-07-31T08:56:28Z</time>
      </trkpt>
      <trkpt lat="42.44478" lon="0.05941">
        <ele>729.3</ele>
        <time>2016-07-31T08:56:32Z</time>
      </trkpt>
      <trkpt lat="42.44479" lon="0.05945">
        <ele>727</ele>
        <time>2016-07-31T08:56:43Z</time>
      </trkpt>
      <trkpt lat="42.44481" lon="0.05947">
        <ele>724.3</ele>
        <time>2016-07-31T08:56:52Z</time>
      </trkpt>
      <trkpt lat="42.44481" lon="0.05951">
        <ele>722.8</ele>
        <time>2016-07-31T08:56:58Z</time>
      </trkpt>
      <trkpt lat="42.4448" lon="0.05955">
        <ele>722.3</ele>
        <time>2016-07-31T08:57:06Z</time>
      </trkpt>
      <trkpt lat="42.44479" lon="0.05958">
        <ele>721.8</ele>
        <time>2016-07-31T08:57:12Z</time>
      </trkpt>
      <trkpt lat="42.44477" lon="0.05961">
        <ele>722.1</ele>
        <time>2016-07-31T08:57:16Z</time>
      </trkpt>
      <trkpt lat="42.44476" lon="0.05968">
        <ele>721.6</ele>
        <time>2016-07-31T08:57:18Z</time>
      </trkpt>
      <trkpt lat="42.44475" lon="0.05972">
        <ele>721</ele>
        <time>2016-07-31T08:57:19Z</time>
      </trkpt>
      <trkpt lat="42.44474" lon="0.05977">
        <ele>720.4</ele>
        <time>2016-07-31T08:57:20Z</time>
      </trkpt>
      <trkpt lat="42.44473" lon="0.05982">
        <ele>720</ele>
        <time>2016-07-31T08:57:21Z</time>
      </trkpt>
      <trkpt lat="42.44472" lon="0.05986">
        <ele>719.6</ele>
        <time>2016-07-31T08:57:22Z</time>
      </trkpt>
      <trkpt lat="42.44471" lon="0.05991">
        <ele>719.4</ele>
        <time>2016-07-31T08:57:23Z</time>
      </trkpt>
      <trkpt lat="42.44469" lon="0.05995">
        <ele>719.4</ele>
        <time>2016-07-31T08:57:24Z</time>
      </trkpt>
      <trkpt lat="42.44468" lon="0.06">
        <ele>719.4</ele>
        <time>2016-07-31T08:57:26Z</time>
      </trkpt>
      <trkpt lat="42.44468" lon="0.06004">
        <ele>718.3</ele>
        <time>2016-07-31T08:57:31Z</time>
      </trkpt>
      <trkpt lat="42.4447" lon="0.06002">
        <ele>716.6</ele>
        <time>2016-07-31T08:57:39Z</time>
      </trkpt>
      <trkpt lat="42.44476" lon="0.05999">
        <ele>713.1</ele>
        <time>2016-07-31T08:57:41Z</time>
      </trkpt>
      <trkpt lat="42.4448" lon="0.05998">
        <ele>710.7</ele>
        <time>2016-07-31T08:57:42Z</time>
      </trkpt>
      <trkpt lat="42.44483" lon="0.05996">
        <ele>708.8</ele>
        <time>2016-07-31T08:57:43Z</time>
      </trkpt>
      <trkpt lat="42.44485" lon="0.05995">
        <ele>707.2</ele>
        <time>2016-07-31T08:57:44Z</time>
      </trkpt>
      <trkpt lat="42.4449" lon="0.05992">
        <ele>704.6</ele>
        <time>2016-07-31T08:57:46Z</time>
      </trkpt>
      <trkpt lat="42.44492" lon="0.05989">
        <ele>703.6</ele>
        <time>2016-07-31T08:57:49Z</time>
      </trkpt>
      <trkpt lat="42.44495" lon="0.0599">
        <ele>701</ele>
        <time>2016-07-31T08:57:54Z</time>
      </trkpt>
      <trkpt lat="42.44496" lon="0.05994">
        <ele>699.1</ele>
        <time>2016-07-31T08:58:02Z</time>
      </trkpt>
      <trkpt lat="42.44499" lon="0.05993">
        <ele>697.4</ele>
        <time>2016-07-31T08:58:07Z</time>
      </trkpt>
      <trkpt lat="42.44499" lon="0.05998">
        <ele>695.6</ele>
        <time>2016-07-31T08:58:15Z</time>
      </trkpt>
      <trkpt lat="42.44498" lon="0.06003">
        <ele>695.3</ele>
        <time>2016-07-31T08:58:16Z</time>
      </trkpt>
      <trkpt lat="42.44497" lon="0.06008">
        <ele>694.6</ele>
        <time>2016-07-31T08:58:17Z</time>
      </trkpt>
      <trkpt lat="42.44496" lon="0.06013">
        <ele>693.9</ele>
        <time>2016-07-31T08:58:18Z</time>
      </trkpt>
      <trkpt lat="42.44495" lon="0.06019">
        <ele>692.8</ele>
        <time>2016-07-31T08:58:19Z</time>
      </trkpt>
      <trkpt lat="42.44494" lon="0.06025">
        <ele>691.9</ele>
        <time>2016-07-31T08:58:20Z</time>
      </trkpt>
      <trkpt lat="42.44493" lon="0.06031">
        <ele>691.5</ele>
        <time>2016-07-31T08:58:21Z</time>
      </trkpt>
      <trkpt lat="42.44492" lon="0.06035">
        <ele>691.3</ele>
        <time>2016-07-31T08:58:22Z</time>
      </trkpt>
      <trkpt lat="42.4449" lon="0.06038">
        <ele>691.3</ele>
        <time>2016-07-31T08:58:23Z</time>
      </trkpt>
      <trkpt lat="42.44489" lon="0.06042">
        <ele>691.3</ele>
        <time>2016-07-31T08:58:24Z</time>
      </trkpt>
      <trkpt lat="42.44488" lon="0.06046">
        <ele>691</ele>
        <time>2016-07-31T08:58:25Z</time>
      </trkpt>
      <trkpt lat="42.44487" lon="0.06049">
        <ele>690.9</ele>
        <time>2016-07-31T08:58:26Z</time>
      </trkpt>
      <trkpt lat="42.44486" lon="0.06053">
        <ele>690.7</ele>
        <time>2016-07-31T08:58:27Z</time>
      </trkpt>
      <trkpt lat="42.44485" lon="0.06057">
        <ele>690.3</ele>
        <time>2016-07-31T08:58:28Z</time>
      </trkpt>
      <trkpt lat="42.44485" lon="0.06061">
        <ele>689.7</ele>
        <time>2016-07-31T08:58:29Z</time>
      </trkpt>
      <trkpt lat="42.44484" lon="0.06066">
        <ele>688.9</ele>
        <time>2016-07-31T08:58:30Z</time>
      </trkpt>
      <trkpt lat="42.44484" lon="0.0607">
        <ele>687.3</ele>
        <time>2016-07-31T08:58:31Z</time>
      </trkpt>
      <trkpt lat="42.44485" lon="0.06076">
        <ele>685.2</ele>
        <time>2016-07-31T08:58:32Z</time>
      </trkpt>
      <trkpt lat="42.44486" lon="0.06081">
        <ele>683</ele>
        <time>2016-07-31T08:58:33Z</time>
      </trkpt>
      <trkpt lat="42.44487" lon="0.06086">
        <ele>681.1</ele>
        <time>2016-07-31T08:58:34Z</time>
      </trkpt>
      <trkpt lat="42.44488" lon="0.0609">
        <ele>679.3</ele>
        <time>2016-07-31T08:58:35Z</time>
      </trkpt>
      <trkpt lat="42.44489" lon="0.06094">
        <ele>677.5</ele>
        <time>2016-07-31T08:58:36Z</time>
      </trkpt>
      <trkpt lat="42.44491" lon="0.06098">
        <ele>675.2</ele>
        <time>2016-07-31T08:58:37Z</time>
      </trkpt>
      <trkpt lat="42.44492" lon="0.06101">
        <ele>672.9</ele>
        <time>2016-07-31T08:58:38Z</time>
      </trkpt>
      <trkpt lat="42.44494" lon="0.06105">
        <ele>670.7</ele>
        <time>2016-07-31T08:58:39Z</time>
      </trkpt>
      <trkpt lat="42.44495" lon="0.06109">
        <ele>669</ele>
        <time>2016-07-31T08:58:40Z</time>
      </trkpt>
      <trkpt lat="42.44496" lon="0.06114">
        <ele>666.5</ele>
        <time>2016-07-31T08:58:42Z</time>
      </trkpt>
      <trkpt lat="42.44502" lon="0.06115">
        <ele>662.3</ele>
        <time>2016-07-31T08:58:44Z</time>
      </trkpt>
      <trkpt lat="42.44505" lon="0.06115">
        <ele>660.3</ele>
        <time>2016-07-31T08:58:45Z</time>
      </trkpt>
      <trkpt lat="42.44508" lon="0.06115">
        <ele>657.6</ele>
        <time>2016-07-31T08:58:47Z</time>
      </trkpt>
      <trkpt lat="42.44507" lon="0.06119">
        <ele>657</ele>
        <time>2016-07-31T08:58:53Z</time>
      </trkpt>
      <trkpt lat="42.44507" lon="0.06123">
        <ele>656.5</ele>
        <time>2016-07-31T08:58:56Z</time>
      </trkpt>
      <trkpt lat="42.4451" lon="0.06123">
        <ele>654.2</ele>
        <time>2016-07-31T08:59:04Z</time>
      </trkpt>
      <trkpt lat="42.44511" lon="0.06127">
        <ele>652.5</ele>
        <time>2016-07-31T08:59:07Z</time>
      </trkpt>
      <trkpt lat="42.44511" lon="0.06132">
        <ele>651.6</ele>
        <time>2016-07-31T08:59:10Z</time>
      </trkpt>
      <trkpt lat="42.44508" lon="0.06133">
        <ele>653</ele>
        <time>2016-07-31T08:59:14Z</time>
      </trkpt>
      <trkpt lat="42.44506" lon="0.06134">
        <ele>654.8</ele>
        <time>2016-07-31T08:59:17Z</time>
      </trkpt>
      <trkpt lat="42.44503" lon="0.06137">
        <ele>655.7</ele>
        <time>2016-07-31T08:59:19Z</time>
      </trkpt>
      <trkpt lat="42.44502" lon="0.06143">
        <ele>655.2</ele>
        <time>2016-07-31T08:59:21Z</time>
      </trkpt>
      <trkpt lat="42.44502" lon="0.06147">
        <ele>654.6</ele>
        <time>2016-07-31T08:59:22Z</time>
      </trkpt>
      <trkpt lat="42.44502" lon="0.06154">
        <ele>653.1</ele>
        <time>2016-07-31T08:59:24Z</time>
      </trkpt>
      <trkpt lat="42.44502" lon="0.06158">
        <ele>652</ele>
        <time>2016-07-31T08:59:25Z</time>
      </trkpt>
      <trkpt lat="42.44502" lon="0.06163">
        <ele>650.9</ele>
        <time>2016-07-31T08:59:26Z</time>
      </trkpt>
      <trkpt lat="42.44502" lon="0.06167">
        <ele>649.9</ele>
        <time>2016-07-31T08:59:27Z</time>
      </trkpt>
      <trkpt lat="42.44502" lon="0.06171">
        <ele>649</ele>
        <time>2016-07-31T08:59:28Z</time>
      </trkpt>
      <trkpt lat="42.44502" lon="0.06175">
        <ele>647.8</ele>
        <time>2016-07-31T08:59:29Z</time>
      </trkpt>
      <trkpt lat="42.44502" lon="0.0618">
        <ele>646.8</ele>
        <time>2016-07-31T08:59:30Z</time>
      </trkpt>
      <trkpt lat="42.44502" lon="0.06184">
        <ele>645.7</ele>
        <time>2016-07-31T08:59:31Z</time>
      </trkpt>
      <trkpt lat="42.44502" lon="0.06189">
        <ele>644.9</ele>
        <time>2016-07-31T08:59:32Z</time>
      </trkpt>
      <trkpt lat="42.44501" lon="0.06195">
        <ele>644.1</ele>
        <time>2016-07-31T08:59:34Z</time>
      </trkpt>
      <trkpt lat="42.44499" lon="0.06202">
        <ele>643.6</ele>
        <time>2016-07-31T08:59:36Z</time>
      </trkpt>
      <trkpt lat="42.44497" lon="0.0621">
        <ele>643.1</ele>
        <time>2016-07-31T08:59:38Z</time>
      </trkpt>
      <trkpt lat="42.44495" lon="0.06215">
        <ele>642.6</ele>
        <time>2016-07-31T08:59:39Z</time>
      </trkpt>
      <trkpt lat="42.44494" lon="0.0622">
        <ele>641.8</ele>
        <time>2016-07-31T08:59:40Z</time>
      </trkpt>
      <trkpt lat="42.44493" lon="0.06226">
        <ele>640.9</ele>
        <time>2016-07-31T08:59:41Z</time>
      </trkpt>
      <trkpt lat="42.44492" lon="0.06231">
        <ele>639.9</ele>
        <time>2016-07-31T08:59:42Z</time>
      </trkpt>
      <trkpt lat="42.44492" lon="0.06235">
        <ele>639</ele>
        <time>2016-07-31T08:59:43Z</time>
      </trkpt>
      <trkpt lat="42.44491" lon="0.06239">
        <ele>638.2</ele>
        <time>2016-07-31T08:59:44Z</time>
      </trkpt>
      <trkpt lat="42.4449" lon="0.06244">
        <ele>637.1</ele>
        <time>2016-07-31T08:59:45Z</time>
      </trkpt>
      <trkpt lat="42.4449" lon="0.06249">
        <ele>635.9</ele>
        <time>2016-07-31T08:59:46Z</time>
      </trkpt>
      <trkpt lat="42.4449" lon="0.06255">
        <ele>634.4</ele>
        <time>2016-07-31T08:59:47Z</time>
      </trkpt>
      <trkpt lat="42.4449" lon="0.06258">
        <ele>633.2</ele>
        <time>2016-07-31T08:59:48Z</time>
      </trkpt>
      <trkpt lat="42.44492" lon="0.06262">
        <ele>631.4</ele>
        <time>2016-07-31T08:59:49Z</time>
      </trkpt>
      <trkpt lat="42.44494" lon="0.06264">
        <ele>629.5</ele>
        <time>2016-07-31T08:59:50Z</time>
      </trkpt>
      <trkpt lat="42.44497" lon="0.06269">
        <ele>627</ele>
        <time>2016-07-31T08:59:52Z</time>
      </trkpt>
      <trkpt lat="42.44495" lon="0.06272">
        <ele>626.8</ele>
        <time>2016-07-31T08:59:57Z</time>
      </trkpt>
      <trkpt lat="42.44494" lon="0.06277">
        <ele>626.3</ele>
        <time>2016-07-31T08:59:59Z</time>
      </trkpt>
      <trkpt lat="42.44492" lon="0.06283">
        <ele>625.3</ele>
        <time>2016-07-31T09:00:01Z</time>
      </trkpt>
      <trkpt lat="42.44491" lon="0.06286">
        <ele>624.8</ele>
        <time>2016-07-31T09:00:02Z</time>
      </trkpt>
      <trkpt lat="42.4449" lon="0.0629">
        <ele>624.1</ele>
        <time>2016-07-31T09:00:03Z</time>
      </trkpt>
      <trkpt lat="42.44488" lon="0.06295">
        <ele>623.8</ele>
        <time>2016-07-31T09:00:04Z</time>
      </trkpt>
      <trkpt lat="42.44486" lon="0.06301">
        <ele>623.6</ele>
        <time>2016-07-31T09:00:05Z</time>
      </trkpt>
      <trkpt lat="42.44484" lon="0.06306">
        <ele>623.4</ele>
        <time>2016-07-31T09:00:06Z</time>
      </trkpt>
      <trkpt lat="42.44482" lon="0.06311">
        <ele>623.1</ele>
        <time>2016-07-31T09:00:07Z</time>
      </trkpt>
      <trkpt lat="42.4448" lon="0.06315">
        <ele>622.8</ele>
        <time>2016-07-31T09:00:08Z</time>
      </trkpt>
      <trkpt lat="42.44478" lon="0.0632">
        <ele>622.6</ele>
        <time>2016-07-31T09:00:09Z</time>
      </trkpt>
      <trkpt lat="42.44476" lon="0.06325">
        <ele>622</ele>
        <time>2016-07-31T09:00:10Z</time>
      </trkpt>
      <trkpt lat="42.44474" lon="0.0633">
        <ele>621.4</ele>
        <time>2016-07-31T09:00:11Z</time>
      </trkpt>
      <trkpt lat="42.44472" lon="0.06335">
        <ele>620.7</ele>
        <time>2016-07-31T09:00:12Z</time>
      </trkpt>
      <trkpt lat="42.44471" lon="0.06341">
        <ele>619.8</ele>
        <time>2016-07-31T09:00:13Z</time>
      </trkpt>
      <trkpt lat="42.44469" lon="0.06347">
        <ele>618.8</ele>
        <time>2016-07-31T09:00:14Z</time>
      </trkpt>
      <trkpt lat="42.44467" lon="0.06354">
        <ele>617.7</ele>
        <time>2016-07-31T09:00:15Z</time>
      </trkpt>
      <trkpt lat="42.44465" lon="0.0636">
        <ele>616.5</ele>
        <time>2016-07-31T09:00:16Z</time>
      </trkpt>
      <trkpt lat="42.44463" lon="0.06366">
        <ele>615.2</ele>
        <time>2016-07-31T09:00:17Z</time>
      </trkpt>
      <trkpt lat="42.44462" lon="0.06373">
        <ele>614</ele>
        <time>2016-07-31T09:00:18Z</time>
      </trkpt>
      <trkpt lat="42.4446" lon="0.06379">
        <ele>613</ele>
        <time>2016-07-31T09:00:19Z</time>
      </trkpt>
      <trkpt lat="42.44459" lon="0.06384">
        <ele>612.3</ele>
        <time>2016-07-31T09:00:20Z</time>
      </trkpt>
      <trkpt lat="42.44457" lon="0.0639">
        <ele>611.7</ele>
        <time>2016-07-31T09:00:21Z</time>
      </trkpt>
      <trkpt lat="42.44456" lon="0.06396">
        <ele>611.1</ele>
        <time>2016-07-31T09:00:22Z</time>
      </trkpt>
      <trkpt lat="42.44454" lon="0.06402">
        <ele>610.5</ele>
        <time>2016-07-31T09:00:23Z</time>
      </trkpt>
      <trkpt lat="42.44452" lon="0.06408">
        <ele>609.9</ele>
        <time>2016-07-31T09:00:24Z</time>
      </trkpt>
      <trkpt lat="42.44451" lon="0.06413">
        <ele>609.4</ele>
        <time>2016-07-31T09:00:25Z</time>
      </trkpt>
      <trkpt lat="42.44449" lon="0.06418">
        <ele>608.9</ele>
        <time>2016-07-31T09:00:26Z</time>
      </trkpt>
      <trkpt lat="42.44447" lon="0.06424">
        <ele>608.3</ele>
        <time>2016-07-31T09:00:27Z</time>
      </trkpt>
      <trkpt lat="42.44445" lon="0.06429">
        <ele>607.7</ele>
        <time>2016-07-31T09:00:28Z</time>
      </trkpt>
      <trkpt lat="42.44442" lon="0.06435">
        <ele>607</ele>
        <time>2016-07-31T09:00:29Z</time>
      </trkpt>
      <trkpt lat="42.4444" lon="0.06441">
        <ele>606.3</ele>
        <time>2016-07-31T09:00:30Z</time>
      </trkpt>
      <trkpt lat="42.44438" lon="0.06446">
        <ele>605.6</ele>
        <time>2016-07-31T09:00:31Z</time>
      </trkpt>
      <trkpt lat="42.44436" lon="0.06452">
        <ele>604.8</ele>
        <time>2016-07-31T09:00:32Z</time>
      </trkpt>
      <trkpt lat="42.44434" lon="0.06458">
        <ele>603.9</ele>
        <time>2016-07-31T09:00:33Z</time>
      </trkpt>
      <trkpt lat="42.44431" lon="0.06463">
        <ele>603.7</ele>
        <time>2016-07-31T09:00:34Z</time>
      </trkpt>
      <trkpt lat="42.44429" lon="0.06468">
        <ele>603.7</ele>
        <time>2016-07-31T09:00:35Z</time>
      </trkpt>
      <trkpt lat="42.44426" lon="0.06474">
        <ele>603.6</ele>
        <time>2016-07-31T09:00:36Z</time>
      </trkpt>
      <trkpt lat="42.44423" lon="0.06479">
        <ele>603.5</ele>
        <time>2016-07-31T09:00:37Z</time>
      </trkpt>
      <trkpt lat="42.4442" lon="0.06485">
        <ele>603.4</ele>
        <time>2016-07-31T09:00:38Z</time>
      </trkpt>
      <trkpt lat="42.44418" lon="0.0649">
        <ele>603.3</ele>
        <time>2016-07-31T09:00:39Z</time>
      </trkpt>
      <trkpt lat="42.44415" lon="0.06495">
        <ele>603.1</ele>
        <time>2016-07-31T09:00:40Z</time>
      </trkpt>
      <trkpt lat="42.44412" lon="0.06501">
        <ele>602.9</ele>
        <time>2016-07-31T09:00:41Z</time>
      </trkpt>
      <trkpt lat="42.44409" lon="0.06507">
        <ele>602.6</ele>
        <time>2016-07-31T09:00:42Z</time>
      </trkpt>
      <trkpt lat="42.44406" lon="0.06512">
        <ele>602.4</ele>
        <time>2016-07-31T09:00:43Z</time>
      </trkpt>
      <trkpt lat="42.44403" lon="0.06517">
        <ele>602.1</ele>
        <time>2016-07-31T09:00:44Z</time>
      </trkpt>
      <trkpt lat="42.444" lon="0.06522">
        <ele>601.9</ele>
        <time>2016-07-31T09:00:45Z</time>
      </trkpt>
      <trkpt lat="42.44397" lon="0.06527">
        <ele>601.6</ele>
        <time>2016-07-31T09:00:46Z</time>
      </trkpt>
      <trkpt lat="42.44395" lon="0.06531">
        <ele>601.3</ele>
        <time>2016-07-31T09:00:47Z</time>
      </trkpt>
      <trkpt lat="42.44392" lon="0.06535">
        <ele>601</ele>
        <time>2016-07-31T09:00:48Z</time>
      </trkpt>
      <trkpt lat="42.4439" lon="0.06539">
        <ele>600.8</ele>
        <time>2016-07-31T09:00:49Z</time>
      </trkpt>
      <trkpt lat="42.44387" lon="0.06543">
        <ele>600.6</ele>
        <time>2016-07-31T09:00:51Z</time>
      </trkpt>
      <trkpt lat="42.44381" lon="0.06545">
        <ele>601.1</ele>
        <time>2016-07-31T09:00:53Z</time>
      </trkpt>
      <trkpt lat="42.44377" lon="0.06544">
        <ele>601.6</ele>
        <time>2016-07-31T09:00:54Z</time>
      </trkpt>
      <trkpt lat="42.44374" lon="0.06544">
        <ele>602</ele>
        <time>2016-07-31T09:00:55Z</time>
      </trkpt>
      <trkpt lat="42.4437" lon="0.06544">
        <ele>602.2</ele>
        <time>2016-07-31T09:00:56Z</time>
      </trkpt>
      <trkpt lat="42.44366" lon="0.06545">
        <ele>602.4</ele>
        <time>2016-07-31T09:00:57Z</time>
      </trkpt>
      <trkpt lat="42.44361" lon="0.06547">
        <ele>602.6</ele>
        <time>2016-07-31T09:00:58Z</time>
      </trkpt>
      <trkpt lat="42.44357" lon="0.06549">
        <ele>602.8</ele>
        <time>2016-07-31T09:00:59Z</time>
      </trkpt>
      <trkpt lat="42.44353" lon="0.06551">
        <ele>602.9</ele>
        <time>2016-07-31T09:01:00Z</time>
      </trkpt>
      <trkpt lat="42.44349" lon="0.06553">
        <ele>603</ele>
        <time>2016-07-31T09:01:01Z</time>
      </trkpt>
      <trkpt lat="42.44345" lon="0.06555">
        <ele>603.1</ele>
        <time>2016-07-31T09:01:02Z</time>
      </trkpt>
      <trkpt lat="42.44342" lon="0.06558">
        <ele>603.2</ele>
        <time>2016-07-31T09:01:03Z</time>
      </trkpt>
      <trkpt lat="42.44338" lon="0.0656">
        <ele>603.2</ele>
        <time>2016-07-31T09:01:04Z</time>
      </trkpt>
      <trkpt lat="42.44335" lon="0.06563">
        <ele>603.2</ele>
        <time>2016-07-31T09:01:05Z</time>
      </trkpt>
      <trkpt lat="42.44332" lon="0.06565">
        <ele>603.3</ele>
        <time>2016-07-31T09:01:06Z</time>
      </trkpt>
      <trkpt lat="42.44329" lon="0.06567">
        <ele>603.3</ele>
        <time>2016-07-31T09:01:07Z</time>
      </trkpt>
      <trkpt lat="42.44324" lon="0.06569">
        <ele>603.6</ele>
        <time>2016-07-31T09:01:09Z</time>
      </trkpt>
      <trkpt lat="42.44319" lon="0.06569">
        <ele>603.9</ele>
        <time>2016-07-31T09:01:11Z</time>
      </trkpt>
      <trkpt lat="42.44314" lon="0.06569">
        <ele>604.1</ele>
        <time>2016-07-31T09:01:13Z</time>
      </trkpt>
      <trkpt lat="42.4431" lon="0.06567">
        <ele>604.6</ele>
        <time>2016-07-31T09:01:15Z</time>
      </trkpt>
      <trkpt lat="42.44307" lon="0.06561">
        <ele>605.3</ele>
        <time>2016-07-31T09:01:17Z</time>
      </trkpt>
      <trkpt lat="42.44306" lon="0.06557">
        <ele>605.7</ele>
        <time>2016-07-31T09:01:18Z</time>
      </trkpt>
      <trkpt lat="42.44305" lon="0.06553">
        <ele>606.1</ele>
        <time>2016-07-31T09:01:19Z</time>
      </trkpt>
      <trkpt lat="42.44303" lon="0.0655">
        <ele>606.4</ele>
        <time>2016-07-31T09:01:20Z</time>
      </trkpt>
      <trkpt lat="42.443" lon="0.06545">
        <ele>607.1</ele>
        <time>2016-07-31T09:01:22Z</time>
      </trkpt>
      <trkpt lat="42.44297" lon="0.0654">
        <ele>607.9</ele>
        <time>2016-07-31T09:01:24Z</time>
      </trkpt>
      <trkpt lat="42.44293" lon="0.06535">
        <ele>608.7</ele>
        <time>2016-07-31T09:01:26Z</time>
      </trkpt>
      <trkpt lat="42.44289" lon="0.06531">
        <ele>609.3</ele>
        <time>2016-07-31T09:01:28Z</time>
      </trkpt>
      <trkpt lat="42.44285" lon="0.06527">
        <ele>609.8</ele>
        <time>2016-07-31T09:01:30Z</time>
      </trkpt>
      <trkpt lat="42.44282" lon="0.06523">
        <ele>610.3</ele>
        <time>2016-07-31T09:01:32Z</time>
      </trkpt>
      <trkpt lat="42.44278" lon="0.06519">
        <ele>610.8</ele>
        <time>2016-07-31T09:01:34Z</time>
      </trkpt>
      <trkpt lat="42.44274" lon="0.06517">
        <ele>611.1</ele>
        <time>2016-07-31T09:01:36Z</time>
      </trkpt>
      <trkpt lat="42.44269" lon="0.06515">
        <ele>611.3</ele>
        <time>2016-07-31T09:01:38Z</time>
      </trkpt>
      <trkpt lat="42.44264" lon="0.06514">
        <ele>611.4</ele>
        <time>2016-07-31T09:01:40Z</time>
      </trkpt>
      <trkpt lat="42.44259" lon="0.06514">
        <ele>611.5</ele>
        <time>2016-07-31T09:01:42Z</time>
      </trkpt>
      <trkpt lat="42.44255" lon="0.06513">
        <ele>611.6</ele>
        <time>2016-07-31T09:01:44Z</time>
      </trkpt>
      <trkpt lat="42.4425" lon="0.06513">
        <ele>611.6</ele>
        <time>2016-07-31T09:01:46Z</time>
      </trkpt>
      <trkpt lat="42.44246" lon="0.06512">
        <ele>611.7</ele>
        <time>2016-07-31T09:01:48Z</time>
      </trkpt>
      <trkpt lat="42.44241" lon="0.06511">
        <ele>611.8</ele>
        <time>2016-07-31T09:01:50Z</time>
      </trkpt>
      <trkpt lat="42.44236" lon="0.06511">
        <ele>611.9</ele>
        <time>2016-07-31T09:01:52Z</time>
      </trkpt>
      <trkpt lat="42.44231" lon="0.0651">
        <ele>612</ele>
        <time>2016-07-31T09:01:54Z</time>
      </trkpt>
      <trkpt lat="42.44226" lon="0.0651">
        <ele>612</ele>
        <time>2016-07-31T09:01:56Z</time>
      </trkpt>
      <trkpt lat="42.44222" lon="0.06511">
        <ele>611.9</ele>
        <time>2016-07-31T09:01:58Z</time>
      </trkpt>
      <trkpt lat="42.44217" lon="0.06511">
        <ele>611.9</ele>
        <time>2016-07-31T09:02:00Z</time>
      </trkpt>
      <trkpt lat="42.44213" lon="0.06511">
        <ele>612</ele>
        <time>2016-07-31T09:02:02Z</time>
      </trkpt>
      <trkpt lat="42.44208" lon="0.06509">
        <ele>612.1</ele>
        <time>2016-07-31T09:02:04Z</time>
      </trkpt>
      <trkpt lat="42.44204" lon="0.06509">
        <ele>612.1</ele>
        <time>2016-07-31T09:02:06Z</time>
      </trkpt>
      <trkpt lat="42.44199" lon="0.06508">
        <ele>612.1</ele>
        <time>2016-07-31T09:02:08Z</time>
      </trkpt>
      <trkpt lat="42.44194" lon="0.06506">
        <ele>612.2</ele>
        <time>2016-07-31T09:02:10Z</time>
      </trkpt>
      <trkpt lat="42.44191" lon="0.06505">
        <ele>612.3</ele>
        <time>2016-07-31T09:02:11Z</time>
      </trkpt>
      <trkpt lat="42.44189" lon="0.06503">
        <ele>612.3</ele>
        <time>2016-07-31T09:02:12Z</time>
      </trkpt>
      <trkpt lat="42.44186" lon="0.06502">
        <ele>612.4</ele>
        <time>2016-07-31T09:02:13Z</time>
      </trkpt>
      <trkpt lat="42.44184" lon="0.06501">
        <ele>612.5</ele>
        <time>2016-07-31T09:02:14Z</time>
      </trkpt>
      <trkpt lat="42.44181" lon="0.06499">
        <ele>612.6</ele>
        <time>2016-07-31T09:02:15Z</time>
      </trkpt>
      <trkpt lat="42.44178" lon="0.06498">
        <ele>612.6</ele>
        <time>2016-07-31T09:02:16Z</time>
      </trkpt>
      <trkpt lat="42.44176" lon="0.06497">
        <ele>612.6</ele>
        <time>2016-07-31T09:02:17Z</time>
      </trkpt>
      <trkpt lat="42.44173" lon="0.06496">
        <ele>612.7</ele>
        <time>2016-07-31T09:02:18Z</time>
      </trkpt>
      <trkpt lat="42.4417" lon="0.06495">
        <ele>612.8</ele>
        <time>2016-07-31T09:02:19Z</time>
      </trkpt>
      <trkpt lat="42.44168" lon="0.06494">
        <ele>612.8</ele>
        <time>2016-07-31T09:02:20Z</time>
      </trkpt>
      <trkpt lat="42.44165" lon="0.06492">
        <ele>612.9</ele>
        <time>2016-07-31T09:02:21Z</time>
      </trkpt>
      <trkpt lat="42.44163" lon="0.0649">
        <ele>613</ele>
        <time>2016-07-31T09:02:22Z</time>
      </trkpt>
      <trkpt lat="42.4416" lon="0.06489">
        <ele>613.1</ele>
        <time>2016-07-31T09:02:23Z</time>
      </trkpt>
      <trkpt lat="42.44155" lon="0.06486">
        <ele>613.3</ele>
        <time>2016-07-31T09:02:25Z</time>
      </trkpt>
      <trkpt lat="42.44151" lon="0.06482">
        <ele>613.5</ele>
        <time>2016-07-31T09:02:27Z</time>
      </trkpt>
      <trkpt lat="42.44146" lon="0.06479">
        <ele>613.7</ele>
        <time>2016-07-31T09:02:29Z</time>
      </trkpt>
      <trkpt lat="42.44144" lon="0.06477">
        <ele>613.8</ele>
        <time>2016-07-31T09:02:30Z</time>
      </trkpt>
      <trkpt lat="42.44142" lon="0.06476">
        <ele>613.9</ele>
        <time>2016-07-31T09:02:31Z</time>
      </trkpt>
      <trkpt lat="42.44139" lon="0.06474">
        <ele>614</ele>
        <time>2016-07-31T09:02:32Z</time>
      </trkpt>
      <trkpt lat="42.44137" lon="0.06472">
        <ele>614.1</ele>
        <time>2016-07-31T09:02:33Z</time>
      </trkpt>
      <trkpt lat="42.44134" lon="0.0647">
        <ele>614.2</ele>
        <time>2016-07-31T09:02:34Z</time>
      </trkpt>
      <trkpt lat="42.4413" lon="0.06466">
        <ele>614.4</ele>
        <time>2016-07-31T09:02:36Z</time>
      </trkpt>
      <trkpt lat="42.44125" lon="0.06463">
        <ele>614.6</ele>
        <time>2016-07-31T09:02:38Z</time>
      </trkpt>
      <trkpt lat="42.44123" lon="0.06461">
        <ele>614.9</ele>
        <time>2016-07-31T09:02:39Z</time>
      </trkpt>
      <trkpt lat="42.4412" lon="0.06459">
        <ele>615.2</ele>
        <time>2016-07-31T09:02:40Z</time>
      </trkpt>
      <trkpt lat="42.44116" lon="0.06456">
        <ele>615.9</ele>
        <time>2016-07-31T09:02:42Z</time>
      </trkpt>
      <trkpt lat="42.44112" lon="0.06453">
        <ele>616.6</ele>
        <time>2016-07-31T09:02:44Z</time>
      </trkpt>
      <trkpt lat="42.44108" lon="0.0645">
        <ele>617.2</ele>
        <time>2016-07-31T09:02:46Z</time>
      </trkpt>
      <trkpt lat="42.44105" lon="0.06447">
        <ele>617.9</ele>
        <time>2016-07-31T09:02:48Z</time>
      </trkpt>
      <trkpt lat="42.44101" lon="0.06445">
        <ele>618.5</ele>
        <time>2016-07-31T09:02:50Z</time>
      </trkpt>
      <trkpt lat="42.44097" lon="0.06442">
        <ele>619.1</ele>
        <time>2016-07-31T09:02:52Z</time>
      </trkpt>
      <trkpt lat="42.44094" lon="0.06439">
        <ele>619.8</ele>
        <time>2016-07-31T09:02:54Z</time>
      </trkpt>
      <trkpt lat="42.4409" lon="0.06435">
        <ele>620.5</ele>
        <time>2016-07-31T09:02:56Z</time>
      </trkpt>
      <trkpt lat="42.44086" lon="0.06432">
        <ele>621.1</ele>
        <time>2016-07-31T09:02:58Z</time>
      </trkpt>
      <trkpt lat="42.44082" lon="0.0643">
        <ele>621.6</ele>
        <time>2016-07-31T09:03:00Z</time>
      </trkpt>
      <trkpt lat="42.44079" lon="0.06427">
        <ele>622.2</ele>
        <time>2016-07-31T09:03:02Z</time>
      </trkpt>
      <trkpt lat="42.44075" lon="0.06425">
        <ele>622.7</ele>
        <time>2016-07-31T09:03:04Z</time>
      </trkpt>
      <trkpt lat="42.44071" lon="0.06423">
        <ele>623.2</ele>
        <time>2016-07-31T09:03:06Z</time>
      </trkpt>
      <trkpt lat="42.44066" lon="0.06421">
        <ele>623.6</ele>
        <time>2016-07-31T09:03:08Z</time>
      </trkpt>
      <trkpt lat="42.44062" lon="0.06419">
        <ele>624.1</ele>
        <time>2016-07-31T09:03:10Z</time>
      </trkpt>
      <trkpt lat="42.44058" lon="0.06416">
        <ele>624.6</ele>
        <time>2016-07-31T09:03:12Z</time>
      </trkpt>
      <trkpt lat="42.44055" lon="0.06413">
        <ele>625.2</ele>
        <time>2016-07-31T09:03:14Z</time>
      </trkpt>
      <trkpt lat="42.44052" lon="0.06409">
        <ele>625.8</ele>
        <time>2016-07-31T09:03:16Z</time>
      </trkpt>
      <trkpt lat="42.44048" lon="0.06406">
        <ele>626.4</ele>
        <time>2016-07-31T09:03:18Z</time>
      </trkpt>
      <trkpt lat="42.44045" lon="0.06403">
        <ele>627</ele>
        <time>2016-07-31T09:03:20Z</time>
      </trkpt>
      <trkpt lat="42.44041" lon="0.06399">
        <ele>627.5</ele>
        <time>2016-07-31T09:03:22Z</time>
      </trkpt>
      <trkpt lat="42.44038" lon="0.06396">
        <ele>628.2</ele>
        <time>2016-07-31T09:03:24Z</time>
      </trkpt>
      <trkpt lat="42.44036" lon="0.06391">
        <ele>629</ele>
        <time>2016-07-31T09:03:26Z</time>
      </trkpt>
      <trkpt lat="42.44034" lon="0.06387">
        <ele>629.8</ele>
        <time>2016-07-31T09:03:28Z</time>
      </trkpt>
      <trkpt lat="42.44033" lon="0.06382">
        <ele>630.6</ele>
        <time>2016-07-31T09:03:30Z</time>
      </trkpt>
      <trkpt lat="42.44033" lon="0.06377">
        <ele>631.3</ele>
        <time>2016-07-31T09:03:32Z</time>
      </trkpt>
      <trkpt lat="42.44033" lon="0.06373">
        <ele>632.2</ele>
        <time>2016-07-31T09:03:34Z</time>
      </trkpt>
      <trkpt lat="42.44035" lon="0.06369">
        <ele>633.2</ele>
        <time>2016-07-31T09:03:36Z</time>
      </trkpt>
      <trkpt lat="42.44036" lon="0.06365">
        <ele>634.1</ele>
        <time>2016-07-31T09:03:38Z</time>
      </trkpt>
      <trkpt lat="42.44038" lon="0.06361">
        <ele>634.8</ele>
        <time>2016-07-31T09:03:40Z</time>
      </trkpt>
      <trkpt lat="42.44041" lon="0.06358">
        <ele>635.3</ele>
        <time>2016-07-31T09:03:42Z</time>
      </trkpt>
      <trkpt lat="42.44044" lon="0.06356">
        <ele>635.7</ele>
        <time>2016-07-31T09:03:44Z</time>
      </trkpt>
      <trkpt lat="42.44048" lon="0.06355">
        <ele>635.9</ele>
        <time>2016-07-31T09:03:46Z</time>
      </trkpt>
      <trkpt lat="42.44052" lon="0.06354">
        <ele>636.2</ele>
        <time>2016-07-31T09:03:48Z</time>
      </trkpt>
      <trkpt lat="42.44055" lon="0.06351">
        <ele>636.8</ele>
        <time>2016-07-31T09:03:50Z</time>
      </trkpt>
      <trkpt lat="42.44059" lon="0.06348">
        <ele>637.5</ele>
        <time>2016-07-31T09:03:52Z</time>
      </trkpt>
      <trkpt lat="42.44062" lon="0.06346">
        <ele>638</ele>
        <time>2016-07-31T09:03:54Z</time>
      </trkpt>
      <trkpt lat="42.44066" lon="0.06343">
        <ele>638.6</ele>
        <time>2016-07-31T09:03:56Z</time>
      </trkpt>
      <trkpt lat="42.4407" lon="0.06341">
        <ele>639.2</ele>
        <time>2016-07-31T09:03:58Z</time>
      </trkpt>
      <trkpt lat="42.44074" lon="0.06338">
        <ele>639.8</ele>
        <time>2016-07-31T09:04:00Z</time>
      </trkpt>
      <trkpt lat="42.44077" lon="0.06335">
        <ele>640.3</ele>
        <time>2016-07-31T09:04:02Z</time>
      </trkpt>
      <trkpt lat="42.44081" lon="0.06333">
        <ele>640.8</ele>
        <time>2016-07-31T09:04:04Z</time>
      </trkpt>
      <trkpt lat="42.44084" lon="0.06331">
        <ele>641.3</ele>
        <time>2016-07-31T09:04:06Z</time>
      </trkpt>
      <trkpt lat="42.44088" lon="0.06329">
        <ele>641.7</ele>
        <time>2016-07-31T09:04:08Z</time>
      </trkpt>
      <trkpt lat="42.44091" lon="0.06328">
        <ele>641.9</ele>
        <time>2016-07-31T09:04:10Z</time>
      </trkpt>
      <trkpt lat="42.44095" lon="0.06326">
        <ele>642.2</ele>
        <time>2016-07-31T09:04:12Z</time>
      </trkpt>
      <trkpt lat="42.44099" lon="0.06324">
        <ele>642.7</ele>
        <time>2016-07-31T09:04:14Z</time>
      </trkpt>
      <trkpt lat="42.44102" lon="0.06322">
        <ele>643.2</ele>
        <time>2016-07-31T09:04:16Z</time>
      </trkpt>
      <trkpt lat="42.44104" lon="0.06318">
        <ele>644.2</ele>
        <time>2016-07-31T09:04:18Z</time>
      </trkpt>
      <trkpt lat="42.44105" lon="0.06313">
        <ele>645.4</ele>
        <time>2016-07-31T09:04:20Z</time>
      </trkpt>
      <trkpt lat="42.44103" lon="0.06307">
        <ele>646.7</ele>
        <time>2016-07-31T09:04:22Z</time>
      </trkpt>
      <trkpt lat="42.44099" lon="0.06304">
        <ele>647.6</ele>
        <time>2016-07-31T09:04:24Z</time>
      </trkpt>
      <trkpt lat="42.44094" lon="0.06303">
        <ele>648</ele>
        <time>2016-07-31T09:04:26Z</time>
      </trkpt>
      <trkpt lat="42.44089" lon="0.06304">
        <ele>648</ele>
        <time>2016-07-31T09:04:28Z</time>
      </trkpt>
      <trkpt lat="42.44085" lon="0.06304">
        <ele>647.9</ele>
        <time>2016-07-31T09:04:30Z</time>
      </trkpt>
      <trkpt lat="42.44081" lon="0.06305">
        <ele>647.9</ele>
        <time>2016-07-31T09:04:32Z</time>
      </trkpt>
      <trkpt lat="42.44076" lon="0.06305">
        <ele>648</ele>
        <time>2016-07-31T09:04:34Z</time>
      </trkpt>
      <trkpt lat="42.44072" lon="0.06304">
        <ele>648.2</ele>
        <time>2016-07-31T09:04:36Z</time>
      </trkpt>
      <trkpt lat="42.44068" lon="0.06303">
        <ele>648.6</ele>
        <time>2016-07-31T09:04:38Z</time>
      </trkpt>
      <trkpt lat="42.44064" lon="0.06301">
        <ele>649</ele>
        <time>2016-07-31T09:04:40Z</time>
      </trkpt>
      <trkpt lat="42.44061" lon="0.06299">
        <ele>649.7</ele>
        <time>2016-07-31T09:04:42Z</time>
      </trkpt>
      <trkpt lat="42.44058" lon="0.06296">
        <ele>650.5</ele>
        <time>2016-07-31T09:04:44Z</time>
      </trkpt>
      <trkpt lat="42.44055" lon="0.06293">
        <ele>651.5</ele>
        <time>2016-07-31T09:04:46Z</time>
      </trkpt>
      <trkpt lat="42.44053" lon="0.06288">
        <ele>652.7</ele>
        <time>2016-07-31T09:04:48Z</time>
      </trkpt>
      <trkpt lat="42.44053" lon="0.06283">
        <ele>654.3</ele>
        <time>2016-07-31T09:04:50Z</time>
      </trkpt>
      <trkpt lat="42.44055" lon="0.06279">
        <ele>655.7</ele>
        <time>2016-07-31T09:04:52Z</time>
      </trkpt>
      <trkpt lat="42.44058" lon="0.06275">
        <ele>656.6</ele>
        <time>2016-07-31T09:04:54Z</time>
      </trkpt>
      <trkpt lat="42.44062" lon="0.06275">
        <ele>656.7</ele>
        <time>2016-07-31T09:04:56Z</time>
      </trkpt>
      <trkpt lat="42.44066" lon="0.06276">
        <ele>656.3</ele>
        <time>2016-07-31T09:04:58Z</time>
      </trkpt>
      <trkpt lat="42.4407" lon="0.06279">
        <ele>655.4</ele>
        <time>2016-07-31T09:05:00Z</time>
      </trkpt>
      <trkpt lat="42.44074" lon="0.06282">
        <ele>654.3</ele>
        <time>2016-07-31T09:05:02Z</time>
      </trkpt>
      <trkpt lat="42.44078" lon="0.06285">
        <ele>653.1</ele>
        <time>2016-07-31T09:05:04Z</time>
      </trkpt>
      <trkpt lat="42.44081" lon="0.06288">
        <ele>652.2</ele>
        <time>2016-07-31T09:05:06Z</time>
      </trkpt>
      <trkpt lat="42.44085" lon="0.06289">
        <ele>651.8</ele>
        <time>2016-07-31T09:05:08Z</time>
      </trkpt>
      <trkpt lat="42.4409" lon="0.06289">
        <ele>651.6</ele>
        <time>2016-07-31T09:05:10Z</time>
      </trkpt>
      <trkpt lat="42.44094" lon="0.06288">
        <ele>651.8</ele>
        <time>2016-07-31T09:05:12Z</time>
      </trkpt>
      <trkpt lat="42.44098" lon="0.06287">
        <ele>652.2</ele>
        <time>2016-07-31T09:05:14Z</time>
      </trkpt>
      <trkpt lat="42.44102" lon="0.06286">
        <ele>652.5</ele>
        <time>2016-07-31T09:05:16Z</time>
      </trkpt>
      <trkpt lat="42.44107" lon="0.06284">
        <ele>653</ele>
        <time>2016-07-31T09:05:18Z</time>
      </trkpt>
      <trkpt lat="42.44111" lon="0.06282">
        <ele>653.5</ele>
        <time>2016-07-31T09:05:20Z</time>
      </trkpt>
      <trkpt lat="42.44115" lon="0.0628">
        <ele>654</ele>
        <time>2016-07-31T09:05:22Z</time>
      </trkpt>
      <trkpt lat="42.44118" lon="0.06278">
        <ele>654.8</ele>
        <time>2016-07-31T09:05:24Z</time>
      </trkpt>
      <trkpt lat="42.44122" lon="0.06276">
        <ele>655.4</ele>
        <time>2016-07-31T09:05:26Z</time>
      </trkpt>
      <trkpt lat="42.44126" lon="0.06274">
        <ele>656</ele>
        <time>2016-07-31T09:05:28Z</time>
      </trkpt>
      <trkpt lat="42.4413" lon="0.06273">
        <ele>656.6</ele>
        <time>2016-07-31T09:05:30Z</time>
      </trkpt>
      <trkpt lat="42.44134" lon="0.06272">
        <ele>657.2</ele>
        <time>2016-07-31T09:05:32Z</time>
      </trkpt>
      <trkpt lat="42.44139" lon="0.06271">
        <ele>657.7</ele>
        <time>2016-07-31T09:05:34Z</time>
      </trkpt>
      <trkpt lat="42.44143" lon="0.0627">
        <ele>658.1</ele>
        <time>2016-07-31T09:05:36Z</time>
      </trkpt>
      <trkpt lat="42.44148" lon="0.06269">
        <ele>658.7</ele>
        <time>2016-07-31T09:05:38Z</time>
      </trkpt>
      <trkpt lat="42.44151" lon="0.06267">
        <ele>659.7</ele>
        <time>2016-07-31T09:05:40Z</time>
      </trkpt>
      <trkpt lat="42.44154" lon="0.06264">
        <ele>661.1</ele>
        <time>2016-07-31T09:05:42Z</time>
      </trkpt>
      <trkpt lat="42.44155" lon="0.06259">
        <ele>662.8</ele>
        <time>2016-07-31T09:05:44Z</time>
      </trkpt>
      <trkpt lat="42.44153" lon="0.06254">
        <ele>664.4</ele>
        <time>2016-07-31T09:05:46Z</time>
      </trkpt>
      <trkpt lat="42.44148" lon="0.06251">
        <ele>664.9</ele>
        <time>2016-07-31T09:05:48Z</time>
      </trkpt>
      <trkpt lat="42.44143" lon="0.06252">
        <ele>664.4</ele>
        <time>2016-07-31T09:05:50Z</time>
      </trkpt>
      <trkpt lat="42.44138" lon="0.06254">
        <ele>663.4</ele>
        <time>2016-07-31T09:05:52Z</time>
      </trkpt>
      <trkpt lat="42.44134" lon="0.06256">
        <ele>662.5</ele>
        <time>2016-07-31T09:05:54Z</time>
      </trkpt>
      <trkpt lat="42.44129" lon="0.06258">
        <ele>661.7</ele>
        <time>2016-07-31T09:05:56Z</time>
      </trkpt>
      <trkpt lat="42.44124" lon="0.06258">
        <ele>661.2</ele>
        <time>2016-07-31T09:05:58Z</time>
      </trkpt>
      <trkpt lat="42.4412" lon="0.06259">
        <ele>661.2</ele>
        <time>2016-07-31T09:06:00Z</time>
      </trkpt>
      <trkpt lat="42.44116" lon="0.06258">
        <ele>661.3</ele>
        <time>2016-07-31T09:06:02Z</time>
      </trkpt>
      <trkpt lat="42.44112" lon="0.06257">
        <ele>661.6</ele>
        <time>2016-07-31T09:06:04Z</time>
      </trkpt>
      <trkpt lat="42.44108" lon="0.06256">
        <ele>662.3</ele>
        <time>2016-07-31T09:06:06Z</time>
      </trkpt>
      <trkpt lat="42.44105" lon="0.06253">
        <ele>663.1</ele>
        <time>2016-07-31T09:06:08Z</time>
      </trkpt>
      <trkpt lat="42.44102" lon="0.0625">
        <ele>664.1</ele>
        <time>2016-07-31T09:06:10Z</time>
      </trkpt>
      <trkpt lat="42.44099" lon="0.06248">
        <ele>665</ele>
        <time>2016-07-31T09:06:12Z</time>
      </trkpt>
      <trkpt lat="42.44096" lon="0.06245">
        <ele>665.9</ele>
        <time>2016-07-31T09:06:14Z</time>
      </trkpt>
      <trkpt lat="42.44093" lon="0.06242">
        <ele>666.7</ele>
        <time>2016-07-31T09:06:16Z</time>
      </trkpt>
      <trkpt lat="42.44091" lon="0.0624">
        <ele>667.5</ele>
        <time>2016-07-31T09:06:18Z</time>
      </trkpt>
      <trkpt lat="42.44088" lon="0.06237">
        <ele>668.3</ele>
        <time>2016-07-31T09:06:20Z</time>
      </trkpt>
      <trkpt lat="42.44085" lon="0.06235">
        <ele>669.1</ele>
        <time>2016-07-31T09:06:22Z</time>
      </trkpt>
      <trkpt lat="42.44082" lon="0.06232">
        <ele>669.9</ele>
        <time>2016-07-31T09:06:24Z</time>
      </trkpt>
      <trkpt lat="42.44079" lon="0.0623">
        <ele>670.7</ele>
        <time>2016-07-31T09:06:26Z</time>
      </trkpt>
      <trkpt lat="42.44076" lon="0.06227">
        <ele>671.5</ele>
        <time>2016-07-31T09:06:28Z</time>
      </trkpt>
      <trkpt lat="42.44073" lon="0.06225">
        <ele>672.2</ele>
        <time>2016-07-31T09:06:30Z</time>
      </trkpt>
      <trkpt lat="42.44071" lon="0.06223">
        <ele>672.7</ele>
        <time>2016-07-31T09:06:32Z</time>
      </trkpt>
      <trkpt lat="42.44068" lon="0.06221">
        <ele>673.4</ele>
        <time>2016-07-31T09:06:34Z</time>
      </trkpt>
      <trkpt lat="42.44066" lon="0.06218">
        <ele>674.4</ele>
        <time>2016-07-31T09:06:36Z</time>
      </trkpt>
      <trkpt lat="42.44066" lon="0.06213">
        <ele>675.9</ele>
        <time>2016-07-31T09:06:38Z</time>
      </trkpt>
      <trkpt lat="42.44067" lon="0.06208">
        <ele>677.4</ele>
        <time>2016-07-31T09:06:40Z</time>
      </trkpt>
      <trkpt lat="42.44071" lon="0.06206">
        <ele>678.2</ele>
        <time>2016-07-31T09:06:42Z</time>
      </trkpt>
      <trkpt lat="42.44075" lon="0.06205">
        <ele>678.4</ele>
        <time>2016-07-31T09:06:44Z</time>
      </trkpt>
      <trkpt lat="42.44079" lon="0.06207">
        <ele>677.9</ele>
        <time>2016-07-31T09:06:46Z</time>
      </trkpt>
      <trkpt lat="42.44083" lon="0.06209">
        <ele>677.3</ele>
        <time>2016-07-31T09:06:48Z</time>
      </trkpt>
      <trkpt lat="42.44088" lon="0.06211">
        <ele>676.8</ele>
        <time>2016-07-31T09:06:50Z</time>
      </trkpt>
      <trkpt lat="42.44092" lon="0.06212">
        <ele>676.4</ele>
        <time>2016-07-31T09:06:52Z</time>
      </trkpt>
      <trkpt lat="42.44096" lon="0.06214">
        <ele>675.9</ele>
        <time>2016-07-31T09:06:54Z</time>
      </trkpt>
      <trkpt lat="42.44099" lon="0.06215">
        <ele>675.5</ele>
        <time>2016-07-31T09:06:56Z</time>
      </trkpt>
      <trkpt lat="42.44103" lon="0.06217">
        <ele>675</ele>
        <time>2016-07-31T09:06:58Z</time>
      </trkpt>
      <trkpt lat="42.44107" lon="0.06218">
        <ele>674.6</ele>
        <time>2016-07-31T09:07:00Z</time>
      </trkpt>
      <trkpt lat="42.4411" lon="0.0622">
        <ele>674.1</ele>
        <time>2016-07-31T09:07:02Z</time>
      </trkpt>
      <trkpt lat="42.44114" lon="0.06221">
        <ele>673.6</ele>
        <time>2016-07-31T09:07:04Z</time>
      </trkpt>
      <trkpt lat="42.44117" lon="0.06223">
        <ele>673</ele>
        <time>2016-07-31T09:07:06Z</time>
      </trkpt>
      <trkpt lat="42.44121" lon="0.06224">
        <ele>672.6</ele>
        <time>2016-07-31T09:07:08Z</time>
      </trkpt>
      <trkpt lat="42.44124" lon="0.06225">
        <ele>672.4</ele>
        <time>2016-07-31T09:07:10Z</time>
      </trkpt>
      <trkpt lat="42.44127" lon="0.06226">
        <ele>672.3</ele>
        <time>2016-07-31T09:07:12Z</time>
      </trkpt>
      <trkpt lat="42.4413" lon="0.06226">
        <ele>672.5</ele>
        <time>2016-07-31T09:07:14Z</time>
      </trkpt>
      <trkpt lat="42.44133" lon="0.06225">
        <ele>673.1</ele>
        <time>2016-07-31T09:07:16Z</time>
      </trkpt>
      <trkpt lat="42.44136" lon="0.06223">
        <ele>673.8</ele>
        <time>2016-07-31T09:07:18Z</time>
      </trkpt>
      <trkpt lat="42.44139" lon="0.06221">
        <ele>674.6</ele>
        <time>2016-07-31T09:07:20Z</time>
      </trkpt>
      <trkpt lat="42.44141" lon="0.06218">
        <ele>675.8</ele>
        <time>2016-07-31T09:07:22Z</time>
      </trkpt>
      <trkpt lat="42.44142" lon="0.06214">
        <ele>677.3</ele>
        <time>2016-07-31T09:07:24Z</time>
      </trkpt>
      <trkpt lat="42.44143" lon="0.0621">
        <ele>678.9</ele>
        <time>2016-07-31T09:07:26Z</time>
      </trkpt>
      <trkpt lat="42.44143" lon="0.06205">
        <ele>680.4</ele>
        <time>2016-07-31T09:07:28Z</time>
      </trkpt>
      <trkpt lat="42.44144" lon="0.062">
        <ele>681.8</ele>
        <time>2016-07-31T09:07:30Z</time>
      </trkpt>
      <trkpt lat="42.44144" lon="0.06195">
        <ele>683.3</ele>
        <time>2016-07-31T09:07:32Z</time>
      </trkpt>
      <trkpt lat="42.44145" lon="0.06191">
        <ele>684.6</ele>
        <time>2016-07-31T09:07:34Z</time>
      </trkpt>
      <trkpt lat="42.44148" lon="0.06188">
        <ele>685.8</ele>
        <time>2016-07-31T09:07:36Z</time>
      </trkpt>
      <trkpt lat="42.44151" lon="0.06186">
        <ele>686.6</ele>
        <time>2016-07-31T09:07:38Z</time>
      </trkpt>
      <trkpt lat="42.44154" lon="0.06186">
        <ele>687.2</ele>
        <time>2016-07-31T09:07:40Z</time>
      </trkpt>
      <trkpt lat="42.44158" lon="0.06185">
        <ele>687.7</ele>
        <time>2016-07-31T09:07:42Z</time>
      </trkpt>
      <trkpt lat="42.44162" lon="0.06186">
        <ele>687.7</ele>
        <time>2016-07-31T09:07:44Z</time>
      </trkpt>
      <trkpt lat="42.44165" lon="0.06188">
        <ele>687.4</ele>
        <time>2016-07-31T09:07:46Z</time>
      </trkpt>
      <trkpt lat="42.44168" lon="0.0619">
        <ele>687.1</ele>
        <time>2016-07-31T09:07:48Z</time>
      </trkpt>
      <trkpt lat="42.44172" lon="0.06192">
        <ele>686.9</ele>
        <time>2016-07-31T09:07:50Z</time>
      </trkpt>
      <trkpt lat="42.44175" lon="0.06193">
        <ele>686.7</ele>
        <time>2016-07-31T09:07:52Z</time>
      </trkpt>
      <trkpt lat="42.44178" lon="0.06194">
        <ele>686.5</ele>
        <time>2016-07-31T09:07:54Z</time>
      </trkpt>
      <trkpt lat="42.44181" lon="0.06195">
        <ele>686.5</ele>
        <time>2016-07-31T09:07:56Z</time>
      </trkpt>
      <trkpt lat="42.44184" lon="0.06197">
        <ele>686.3</ele>
        <time>2016-07-31T09:07:58Z</time>
      </trkpt>
      <trkpt lat="42.44187" lon="0.06198">
        <ele>685.9</ele>
        <time>2016-07-31T09:08:00Z</time>
      </trkpt>
      <trkpt lat="42.4419" lon="0.062">
        <ele>685.5</ele>
        <time>2016-07-31T09:08:02Z</time>
      </trkpt>
      <trkpt lat="42.44193" lon="0.06203">
        <ele>684.8</ele>
        <time>2016-07-31T09:08:04Z</time>
      </trkpt>
      <trkpt lat="42.44196" lon="0.06206">
        <ele>684</ele>
        <time>2016-07-31T09:08:06Z</time>
      </trkpt>
      <trkpt lat="42.44199" lon="0.06209">
        <ele>683.1</ele>
        <time>2016-07-31T09:08:08Z</time>
      </trkpt>
      <trkpt lat="42.44201" lon="0.06212">
        <ele>682.3</ele>
        <time>2016-07-31T09:08:10Z</time>
      </trkpt>
      <trkpt lat="42.44204" lon="0.06214">
        <ele>681.6</ele>
        <time>2016-07-31T09:08:12Z</time>
      </trkpt>
      <trkpt lat="42.44207" lon="0.06217">
        <ele>681</ele>
        <time>2016-07-31T09:08:14Z</time>
      </trkpt>
      <trkpt lat="42.4421" lon="0.06219">
        <ele>680.5</ele>
        <time>2016-07-31T09:08:16Z</time>
      </trkpt>
      <trkpt lat="42.44214" lon="0.06221">
        <ele>680.1</ele>
        <time>2016-07-31T09:08:18Z</time>
      </trkpt>
      <trkpt lat="42.44217" lon="0.06223">
        <ele>679.5</ele>
        <time>2016-07-31T09:08:20Z</time>
      </trkpt>
      <trkpt lat="42.4422" lon="0.06225">
        <ele>679.3</ele>
        <time>2016-07-31T09:08:22Z</time>
      </trkpt>
      <trkpt lat="42.44224" lon="0.06225">
        <ele>679.6</ele>
        <time>2016-07-31T09:08:24Z</time>
      </trkpt>
      <trkpt lat="42.44227" lon="0.06226">
        <ele>679.8</ele>
        <time>2016-07-31T09:08:26Z</time>
      </trkpt>
      <trkpt lat="42.44231" lon="0.06226">
        <ele>680.1</ele>
        <time>2016-07-31T09:08:28Z</time>
      </trkpt>
      <trkpt lat="42.44233" lon="0.06224">
        <ele>681</ele>
        <time>2016-07-31T09:08:30Z</time>
      </trkpt>
      <trkpt lat="42.44235" lon="0.0622">
        <ele>682.7</ele>
        <time>2016-07-31T09:08:32Z</time>
      </trkpt>
      <trkpt lat="42.44234" lon="0.06215">
        <ele>684.3</ele>
        <time>2016-07-31T09:08:34Z</time>
      </trkpt>
      <trkpt lat="42.44232" lon="0.06211">
        <ele>685.5</ele>
        <time>2016-07-31T09:08:36Z</time>
      </trkpt>
      <trkpt lat="42.44229" lon="0.06208">
        <ele>686</ele>
        <time>2016-07-31T09:08:38Z</time>
      </trkpt>
      <trkpt lat="42.44226" lon="0.06207">
        <ele>686.3</ele>
        <time>2016-07-31T09:08:40Z</time>
      </trkpt>
      <trkpt lat="42.44223" lon="0.06206">
        <ele>686.4</ele>
        <time>2016-07-31T09:08:42Z</time>
      </trkpt>
      <trkpt lat="42.4422" lon="0.06204">
        <ele>686.5</ele>
        <time>2016-07-31T09:08:44Z</time>
      </trkpt>
      <trkpt lat="42.44217" lon="0.06202">
        <ele>687.2</ele>
        <time>2016-07-31T09:08:46Z</time>
      </trkpt>
      <trkpt lat="42.44214" lon="0.06199">
        <ele>688</ele>
        <time>2016-07-31T09:08:48Z</time>
      </trkpt>
      <trkpt lat="42.44212" lon="0.06196">
        <ele>688.9</ele>
        <time>2016-07-31T09:08:50Z</time>
      </trkpt>
      <trkpt lat="42.44209" lon="0.06193">
        <ele>689.7</ele>
        <time>2016-07-31T09:08:52Z</time>
      </trkpt>
      <trkpt lat="42.44206" lon="0.0619">
        <ele>690.5</ele>
        <time>2016-07-31T09:08:54Z</time>
      </trkpt>
      <trkpt lat="42.44204" lon="0.06188">
        <ele>691.2</ele>
        <time>2016-07-31T09:08:56Z</time>
      </trkpt>
      <trkpt lat="42.44201" lon="0.06185">
        <ele>691.8</ele>
        <time>2016-07-31T09:08:58Z</time>
      </trkpt>
      <trkpt lat="42.44198" lon="0.06183">
        <ele>692.4</ele>
        <time>2016-07-31T09:09:00Z</time>
      </trkpt>
      <trkpt lat="42.44196" lon="0.06181">
        <ele>693</ele>
        <time>2016-07-31T09:09:02Z</time>
      </trkpt>
      <trkpt lat="42.44193" lon="0.06179">
        <ele>693.4</ele>
        <time>2016-07-31T09:09:04Z</time>
      </trkpt>
      <trkpt lat="42.44191" lon="0.06176">
        <ele>694.1</ele>
        <time>2016-07-31T09:09:06Z</time>
      </trkpt>
      <trkpt lat="42.44189" lon="0.06173">
        <ele>694.9</ele>
        <time>2016-07-31T09:09:08Z</time>
      </trkpt>
      <trkpt lat="42.44187" lon="0.06171">
        <ele>695.6</ele>
        <time>2016-07-31T09:09:10Z</time>
      </trkpt>
      <trkpt lat="42.44184" lon="0.06168">
        <ele>696.2</ele>
        <time>2016-07-31T09:09:12Z</time>
      </trkpt>
      <trkpt lat="42.44182" lon="0.06165">
        <ele>697</ele>
        <time>2016-07-31T09:09:14Z</time>
      </trkpt>
      <trkpt lat="42.44179" lon="0.06162">
        <ele>697.7</ele>
        <time>2016-07-31T09:09:16Z</time>
      </trkpt>
      <trkpt lat="42.44178" lon="0.06158">
        <ele>698.8</ele>
        <time>2016-07-31T09:09:18Z</time>
      </trkpt>
      <trkpt lat="42.44179" lon="0.06154">
        <ele>700.2</ele>
        <time>2016-07-31T09:09:20Z</time>
      </trkpt>
      <trkpt lat="42.44182" lon="0.06152">
        <ele>701.3</ele>
        <time>2016-07-31T09:09:22Z</time>
      </trkpt>
      <trkpt lat="42.44185" lon="0.06151">
        <ele>702</ele>
        <time>2016-07-31T09:09:24Z</time>
      </trkpt>
      <trkpt lat="42.44188" lon="0.06152">
        <ele>702.3</ele>
        <time>2016-07-31T09:09:26Z</time>
      </trkpt>
      <trkpt lat="42.44191" lon="0.06153">
        <ele>702.2</ele>
        <time>2016-07-31T09:09:28Z</time>
      </trkpt>
      <trkpt lat="42.44195" lon="0.06156">
        <ele>701.8</ele>
        <time>2016-07-31T09:09:30Z</time>
      </trkpt>
      <trkpt lat="42.44198" lon="0.06158">
        <ele>701.4</ele>
        <time>2016-07-31T09:09:32Z</time>
      </trkpt>
      <trkpt lat="42.44201" lon="0.0616">
        <ele>701.1</ele>
        <time>2016-07-31T09:09:34Z</time>
      </trkpt>
      <trkpt lat="42.44204" lon="0.06162">
        <ele>700.6</ele>
        <time>2016-07-31T09:09:36Z</time>
      </trkpt>
      <trkpt lat="42.44207" lon="0.06164">
        <ele>700.4</ele>
        <time>2016-07-31T09:09:38Z</time>
      </trkpt>
      <trkpt lat="42.4421" lon="0.06165">
        <ele>700.2</ele>
        <time>2016-07-31T09:09:40Z</time>
      </trkpt>
      <trkpt lat="42.44213" lon="0.06166">
        <ele>700</ele>
        <time>2016-07-31T09:09:42Z</time>
      </trkpt>
      <trkpt lat="42.44216" lon="0.06167">
        <ele>699.7</ele>
        <time>2016-07-31T09:09:44Z</time>
      </trkpt>
      <trkpt lat="42.44219" lon="0.06169">
        <ele>699.3</ele>
        <time>2016-07-31T09:09:46Z</time>
      </trkpt>
      <trkpt lat="42.44222" lon="0.0617">
        <ele>699</ele>
        <time>2016-07-31T09:09:48Z</time>
      </trkpt>
      <trkpt lat="42.44225" lon="0.06171">
        <ele>698.7</ele>
        <time>2016-07-31T09:09:50Z</time>
      </trkpt>
      <trkpt lat="42.44228" lon="0.06173">
        <ele>698.3</ele>
        <time>2016-07-31T09:09:52Z</time>
      </trkpt>
      <trkpt lat="42.44231" lon="0.06175">
        <ele>698</ele>
        <time>2016-07-31T09:09:54Z</time>
      </trkpt>
      <trkpt lat="42.44234" lon="0.06175">
        <ele>698.1</ele>
        <time>2016-07-31T09:09:56Z</time>
      </trkpt>
      <trkpt lat="42.44237" lon="0.06175">
        <ele>698.1</ele>
        <time>2016-07-31T09:09:58Z</time>
      </trkpt>
      <trkpt lat="42.4424" lon="0.06175">
        <ele>698.3</ele>
        <time>2016-07-31T09:10:00Z</time>
      </trkpt>
      <trkpt lat="42.44242" lon="0.06173">
        <ele>699.1</ele>
        <time>2016-07-31T09:10:02Z</time>
      </trkpt>
      <trkpt lat="42.44244" lon="0.06171">
        <ele>700.1</ele>
        <time>2016-07-31T09:10:04Z</time>
      </trkpt>
      <trkpt lat="42.44247" lon="0.06167">
        <ele>701.5</ele>
        <time>2016-07-31T09:10:07Z</time>
      </trkpt>
      <trkpt lat="42.44247" lon="0.06163">
        <ele>702.8</ele>
        <time>2016-07-31T09:10:09Z</time>
      </trkpt>
      <trkpt lat="42.44248" lon="0.0616">
        <ele>704</ele>
        <time>2016-07-31T09:10:11Z</time>
      </trkpt>
      <trkpt lat="42.44248" lon="0.06156">
        <ele>705.2</ele>
        <time>2016-07-31T09:10:13Z</time>
      </trkpt>
      <trkpt lat="42.44245" lon="0.06151">
        <ele>706.7</ele>
        <time>2016-07-31T09:10:16Z</time>
      </trkpt>
      <trkpt lat="42.44243" lon="0.06149">
        <ele>707.3</ele>
        <time>2016-07-31T09:10:18Z</time>
      </trkpt>
      <trkpt lat="42.4424" lon="0.06148">
        <ele>707.5</ele>
        <time>2016-07-31T09:10:20Z</time>
      </trkpt>
      <trkpt lat="42.44237" lon="0.06148">
        <ele>707.5</ele>
        <time>2016-07-31T09:10:22Z</time>
      </trkpt>
      <trkpt lat="42.44234" lon="0.06147">
        <ele>707.6</ele>
        <time>2016-07-31T09:10:24Z</time>
      </trkpt>
      <trkpt lat="42.44231" lon="0.06147">
        <ele>707.7</ele>
        <time>2016-07-31T09:10:26Z</time>
      </trkpt>
      <trkpt lat="42.44228" lon="0.06147">
        <ele>707.7</ele>
        <time>2016-07-31T09:10:28Z</time>
      </trkpt>
      <trkpt lat="42.44225" lon="0.06145">
        <ele>708.2</ele>
        <time>2016-07-31T09:10:31Z</time>
      </trkpt>
      <trkpt lat="42.44222" lon="0.06143">
        <ele>708.9</ele>
        <time>2016-07-31T09:10:33Z</time>
      </trkpt>
      <trkpt lat="42.4422" lon="0.0614">
        <ele>709.7</ele>
        <time>2016-07-31T09:10:35Z</time>
      </trkpt>
      <trkpt lat="42.44217" lon="0.06138">
        <ele>710.4</ele>
        <time>2016-07-31T09:10:37Z</time>
      </trkpt>
      <trkpt lat="42.44215" lon="0.06136">
        <ele>711.2</ele>
        <time>2016-07-31T09:10:39Z</time>
      </trkpt>
      <trkpt lat="42.44211" lon="0.06133">
        <ele>712.2</ele>
        <time>2016-07-31T09:10:42Z</time>
      </trkpt>
      <trkpt lat="42.4421" lon="0.0613">
        <ele>713.2</ele>
        <time>2016-07-31T09:10:44Z</time>
      </trkpt>
      <trkpt lat="42.44208" lon="0.06126">
        <ele>714.6</ele>
        <time>2016-07-31T09:10:47Z</time>
      </trkpt>
      <trkpt lat="42.44209" lon="0.06121">
        <ele>716.2</ele>
        <time>2016-07-31T09:10:50Z</time>
      </trkpt>
      <trkpt lat="42.44212" lon="0.06119">
        <ele>716.7</ele>
        <time>2016-07-31T09:10:52Z</time>
      </trkpt>
      <trkpt lat="42.44215" lon="0.0612">
        <ele>716.5</ele>
        <time>2016-07-31T09:10:54Z</time>
      </trkpt>
      <trkpt lat="42.44218" lon="0.06122">
        <ele>716</ele>
        <time>2016-07-31T09:10:56Z</time>
      </trkpt>
      <trkpt lat="42.44221" lon="0.06124">
        <ele>715.4</ele>
        <time>2016-07-31T09:10:58Z</time>
      </trkpt>
      <trkpt lat="42.44224" lon="0.06126">
        <ele>714.7</ele>
        <time>2016-07-31T09:11:00Z</time>
      </trkpt>
      <trkpt lat="42.44227" lon="0.06128">
        <ele>714.1</ele>
        <time>2016-07-31T09:11:02Z</time>
      </trkpt>
      <trkpt lat="42.4423" lon="0.0613">
        <ele>713.6</ele>
        <time>2016-07-31T09:11:04Z</time>
      </trkpt>
      <trkpt lat="42.44233" lon="0.06131">
        <ele>713.3</ele>
        <time>2016-07-31T09:11:06Z</time>
      </trkpt>
      <trkpt lat="42.44237" lon="0.06132">
        <ele>713.1</ele>
        <time>2016-07-31T09:11:09Z</time>
      </trkpt>
      <trkpt lat="42.4424" lon="0.0613">
        <ele>713.8</ele>
        <time>2016-07-31T09:11:12Z</time>
      </trkpt>
      <trkpt lat="42.44242" lon="0.06126">
        <ele>715</ele>
        <time>2016-07-31T09:11:14Z</time>
      </trkpt>
      <trkpt lat="42.44244" lon="0.06122">
        <ele>716.2</ele>
        <time>2016-07-31T09:11:16Z</time>
      </trkpt>
      <trkpt lat="42.44245" lon="0.06118">
        <ele>717.4</ele>
        <time>2016-07-31T09:11:18Z</time>
      </trkpt>
      <trkpt lat="42.44245" lon="0.06114">
        <ele>718.8</ele>
        <time>2016-07-31T09:11:20Z</time>
      </trkpt>
      <trkpt lat="42.44245" lon="0.0611">
        <ele>720.1</ele>
        <time>2016-07-31T09:11:22Z</time>
      </trkpt>
      <trkpt lat="42.44244" lon="0.06105">
        <ele>721.6</ele>
        <time>2016-07-31T09:11:24Z</time>
      </trkpt>
      <trkpt lat="42.44245" lon="0.061">
        <ele>722.9</ele>
        <time>2016-07-31T09:11:26Z</time>
      </trkpt>
      <trkpt lat="42.44246" lon="0.06096">
        <ele>724.2</ele>
        <time>2016-07-31T09:11:28Z</time>
      </trkpt>
      <trkpt lat="42.44247" lon="0.06092">
        <ele>725.4</ele>
        <time>2016-07-31T09:11:30Z</time>
      </trkpt>
      <trkpt lat="42.44249" lon="0.06089">
        <ele>726.4</ele>
        <time>2016-07-31T09:11:32Z</time>
      </trkpt>
      <trkpt lat="42.44252" lon="0.06087">
        <ele>727.2</ele>
        <time>2016-07-31T09:11:34Z</time>
      </trkpt>
      <trkpt lat="42.44254" lon="0.06085">
        <ele>728</ele>
        <time>2016-07-31T09:11:36Z</time>
      </trkpt>
      <trkpt lat="42.44257" lon="0.06083">
        <ele>728.7</ele>
        <time>2016-07-31T09:11:38Z</time>
      </trkpt>
      <trkpt lat="42.4426" lon="0.06082">
        <ele>729</ele>
        <time>2016-07-31T09:11:40Z</time>
      </trkpt>
      <trkpt lat="42.44264" lon="0.06083">
        <ele>728.7</ele>
        <time>2016-07-31T09:11:43Z</time>
      </trkpt>
      <trkpt lat="42.44267" lon="0.06086">
        <ele>728</ele>
        <time>2016-07-31T09:11:45Z</time>
      </trkpt>
      <trkpt lat="42.4427" lon="0.06089">
        <ele>727.1</ele>
        <time>2016-07-31T09:11:47Z</time>
      </trkpt>
      <trkpt lat="42.44273" lon="0.06092">
        <ele>726.1</ele>
        <time>2016-07-31T09:11:49Z</time>
      </trkpt>
      <trkpt lat="42.44276" lon="0.06096">
        <ele>725.1</ele>
        <time>2016-07-31T09:11:51Z</time>
      </trkpt>
      <trkpt lat="42.44279" lon="0.061">
        <ele>724</ele>
        <time>2016-07-31T09:11:53Z</time>
      </trkpt>
      <trkpt lat="42.44282" lon="0.06103">
        <ele>722.9</ele>
        <time>2016-07-31T09:11:55Z</time>
      </trkpt>
      <trkpt lat="42.44285" lon="0.06107">
        <ele>721.8</ele>
        <time>2016-07-31T09:11:57Z</time>
      </trkpt>
      <trkpt lat="42.44288" lon="0.0611">
        <ele>720.7</ele>
        <time>2016-07-31T09:11:59Z</time>
      </trkpt>
      <trkpt lat="42.4429" lon="0.06114">
        <ele>719.5</ele>
        <time>2016-07-31T09:12:01Z</time>
      </trkpt>
      <trkpt lat="42.44293" lon="0.06118">
        <ele>718.3</ele>
        <time>2016-07-31T09:12:03Z</time>
      </trkpt>
      <trkpt lat="42.44296" lon="0.06122">
        <ele>717.4</ele>
        <time>2016-07-31T09:12:05Z</time>
      </trkpt>
      <trkpt lat="42.44299" lon="0.06126">
        <ele>716.7</ele>
        <time>2016-07-31T09:12:07Z</time>
      </trkpt>
      <trkpt lat="42.44302" lon="0.06129">
        <ele>716</ele>
        <time>2016-07-31T09:12:09Z</time>
      </trkpt>
      <trkpt lat="42.44305" lon="0.06133">
        <ele>715.4</ele>
        <time>2016-07-31T09:12:11Z</time>
      </trkpt>
      <trkpt lat="42.44307" lon="0.06136">
        <ele>714.8</ele>
        <time>2016-07-31T09:12:13Z</time>
      </trkpt>
      <trkpt lat="42.4431" lon="0.06139">
        <ele>714.2</ele>
        <time>2016-07-31T09:12:15Z</time>
      </trkpt>
      <trkpt lat="42.44313" lon="0.06142">
        <ele>713.8</ele>
        <time>2016-07-31T09:12:17Z</time>
      </trkpt>
      <trkpt lat="42.44316" lon="0.06144">
        <ele>713.5</ele>
        <time>2016-07-31T09:12:19Z</time>
      </trkpt>
      <trkpt lat="42.44319" lon="0.06146">
        <ele>713.3</ele>
        <time>2016-07-31T09:12:21Z</time>
      </trkpt>
      <trkpt lat="42.44323" lon="0.06148">
        <ele>713.2</ele>
        <time>2016-07-31T09:12:23Z</time>
      </trkpt>
      <trkpt lat="42.44326" lon="0.06149">
        <ele>713.2</ele>
        <time>2016-07-31T09:12:25Z</time>
      </trkpt>
      <trkpt lat="42.44329" lon="0.06151">
        <ele>713.1</ele>
        <time>2016-07-31T09:12:27Z</time>
      </trkpt>
      <trkpt lat="42.44331" lon="0.06153">
        <ele>712.8</ele>
        <time>2016-07-31T09:12:29Z</time>
      </trkpt>
      <trkpt lat="42.44334" lon="0.06153">
        <ele>713.1</ele>
        <time>2016-07-31T09:12:31Z</time>
      </trkpt>
      <trkpt lat="42.44336" lon="0.0615">
        <ele>714.3</ele>
        <time>2016-07-31T09:12:33Z</time>
      </trkpt>
      <trkpt lat="42.44337" lon="0.06145">
        <ele>715.8</ele>
        <time>2016-07-31T09:12:35Z</time>
      </trkpt>
      <trkpt lat="42.44336" lon="0.0614">
        <ele>717.1</ele>
        <time>2016-07-31T09:12:37Z</time>
      </trkpt>
      <trkpt lat="42.44334" lon="0.06136">
        <ele>717.9</ele>
        <time>2016-07-31T09:12:39Z</time>
      </trkpt>
      <trkpt lat="42.44331" lon="0.06133">
        <ele>718.4</ele>
        <time>2016-07-31T09:12:41Z</time>
      </trkpt>
      <trkpt lat="42.44328" lon="0.0613">
        <ele>719</ele>
        <time>2016-07-31T09:12:43Z</time>
      </trkpt>
      <trkpt lat="42.44326" lon="0.06127">
        <ele>719.6</ele>
        <time>2016-07-31T09:12:45Z</time>
      </trkpt>
      <trkpt lat="42.44324" lon="0.06124">
        <ele>720.1</ele>
        <time>2016-07-31T09:12:47Z</time>
      </trkpt>
      <trkpt lat="42.44321" lon="0.06121">
        <ele>720.8</ele>
        <time>2016-07-31T09:12:49Z</time>
      </trkpt>
      <trkpt lat="42.4432" lon="0.06118">
        <ele>721.7</ele>
        <time>2016-07-31T09:12:51Z</time>
      </trkpt>
      <trkpt lat="42.44319" lon="0.06115">
        <ele>722.6</ele>
        <time>2016-07-31T09:12:53Z</time>
      </trkpt>
      <trkpt lat="42.44316" lon="0.06111">
        <ele>723.4</ele>
        <time>2016-07-31T09:12:55Z</time>
      </trkpt>
      <trkpt lat="42.44314" lon="0.06108">
        <ele>724.1</ele>
        <time>2016-07-31T09:12:57Z</time>
      </trkpt>
      <trkpt lat="42.44312" lon="0.06105">
        <ele>724.9</ele>
        <time>2016-07-31T09:12:59Z</time>
      </trkpt>
      <trkpt lat="42.4431" lon="0.06102">
        <ele>725.6</ele>
        <time>2016-07-31T09:13:01Z</time>
      </trkpt>
      <trkpt lat="42.44308" lon="0.06099">
        <ele>726.4</ele>
        <time>2016-07-31T09:13:03Z</time>
      </trkpt>
      <trkpt lat="42.44306" lon="0.06095">
        <ele>727.3</ele>
        <time>2016-07-31T09:13:05Z</time>
      </trkpt>
      <trkpt lat="42.44304" lon="0.06092">
        <ele>728.2</ele>
        <time>2016-07-31T09:13:07Z</time>
      </trkpt>
      <trkpt lat="42.44302" lon="0.06089">
        <ele>729</ele>
        <time>2016-07-31T09:13:09Z</time>
      </trkpt>
      <trkpt lat="42.443" lon="0.06085">
        <ele>730</ele>
        <time>2016-07-31T09:13:11Z</time>
      </trkpt>
      <trkpt lat="42.44298" lon="0.06081">
        <ele>730.9</ele>
        <time>2016-07-31T09:13:13Z</time>
      </trkpt>
      <trkpt lat="42.44296" lon="0.06078">
        <ele>731.7</ele>
        <time>2016-07-31T09:13:15Z</time>
      </trkpt>
      <trkpt lat="42.44294" lon="0.06075">
        <ele>732.6</ele>
        <time>2016-07-31T09:13:17Z</time>
      </trkpt>
      <trkpt lat="42.44292" lon="0.06071">
        <ele>733.4</ele>
        <time>2016-07-31T09:13:19Z</time>
      </trkpt>
      <trkpt lat="42.4429" lon="0.06068">
        <ele>734.4</ele>
        <time>2016-07-31T09:13:21Z</time>
      </trkpt>
      <trkpt lat="42.44288" lon="0.06064">
        <ele>735.7</ele>
        <time>2016-07-31T09:13:23Z</time>
      </trkpt>
      <trkpt lat="42.44286" lon="0.0606">
        <ele>736.8</ele>
        <time>2016-07-31T09:13:25Z</time>
      </trkpt>
      <trkpt lat="42.44284" lon="0.06057">
        <ele>737.7</ele>
        <time>2016-07-31T09:13:27Z</time>
      </trkpt>
      <trkpt lat="42.44281" lon="0.06052">
        <ele>739.3</ele>
        <time>2016-07-31T09:13:30Z</time>
      </trkpt>
      <trkpt lat="42.44279" lon="0.06049">
        <ele>740.2</ele>
        <time>2016-07-31T09:13:32Z</time>
      </trkpt>
      <trkpt lat="42.44276" lon="0.06046">
        <ele>741</ele>
        <time>2016-07-31T09:13:34Z</time>
      </trkpt>
      <trkpt lat="42.44273" lon="0.06043">
        <ele>741.8</ele>
        <time>2016-07-31T09:13:36Z</time>
      </trkpt>
      <trkpt lat="42.44269" lon="0.0604">
        <ele>742.6</ele>
        <time>2016-07-31T09:13:38Z</time>
      </trkpt>
      <trkpt lat="42.44265" lon="0.06037">
        <ele>743.2</ele>
        <time>2016-07-31T09:13:40Z</time>
      </trkpt>
      <trkpt lat="42.44261" lon="0.06035">
        <ele>743.5</ele>
        <time>2016-07-31T09:13:42Z</time>
      </trkpt>
      <trkpt lat="42.44256" lon="0.06034">
        <ele>743.7</ele>
        <time>2016-07-31T09:13:44Z</time>
      </trkpt>
      <trkpt lat="42.44252" lon="0.06033">
        <ele>743.8</ele>
        <time>2016-07-31T09:13:46Z</time>
      </trkpt>
      <trkpt lat="42.44247" lon="0.06033">
        <ele>743.6</ele>
        <time>2016-07-31T09:13:48Z</time>
      </trkpt>
      <trkpt lat="42.44243" lon="0.06034">
        <ele>742.8</ele>
        <time>2016-07-31T09:13:50Z</time>
      </trkpt>
      <trkpt lat="42.44239" lon="0.06037">
        <ele>741.8</ele>
        <time>2016-07-31T09:13:52Z</time>
      </trkpt>
      <trkpt lat="42.44235" lon="0.0604">
        <ele>740.7</ele>
        <time>2016-07-31T09:13:54Z</time>
      </trkpt>
      <trkpt lat="42.44231" lon="0.06043">
        <ele>739.7</ele>
        <time>2016-07-31T09:13:56Z</time>
      </trkpt>
      <trkpt lat="42.44227" lon="0.06045">
        <ele>738.8</ele>
        <time>2016-07-31T09:13:58Z</time>
      </trkpt>
      <trkpt lat="42.44223" lon="0.06046">
        <ele>738.3</ele>
        <time>2016-07-31T09:14:00Z</time>
      </trkpt>
      <trkpt lat="42.44219" lon="0.06046">
        <ele>738.4</ele>
        <time>2016-07-31T09:14:02Z</time>
      </trkpt>
      <trkpt lat="42.44216" lon="0.06045">
        <ele>738.5</ele>
        <time>2016-07-31T09:14:04Z</time>
      </trkpt>
      <trkpt lat="42.44212" lon="0.06044">
        <ele>738.6</ele>
        <time>2016-07-31T09:14:06Z</time>
      </trkpt>
      <trkpt lat="42.44208" lon="0.06043">
        <ele>738.6</ele>
        <time>2016-07-31T09:14:08Z</time>
      </trkpt>
      <trkpt lat="42.44204" lon="0.06042">
        <ele>738.6</ele>
        <time>2016-07-31T09:14:10Z</time>
      </trkpt>
      <trkpt lat="42.442" lon="0.0604">
        <ele>738.6</ele>
        <time>2016-07-31T09:14:12Z</time>
      </trkpt>
      <trkpt lat="42.44196" lon="0.06038">
        <ele>738.6</ele>
        <time>2016-07-31T09:14:14Z</time>
      </trkpt>
      <trkpt lat="42.44192" lon="0.06037">
        <ele>738.7</ele>
        <time>2016-07-31T09:14:16Z</time>
      </trkpt>
      <trkpt lat="42.44189" lon="0.06035">
        <ele>738.7</ele>
        <time>2016-07-31T09:14:18Z</time>
      </trkpt>
      <trkpt lat="42.44185" lon="0.06034">
        <ele>738.8</ele>
        <time>2016-07-31T09:14:20Z</time>
      </trkpt>
      <trkpt lat="42.44181" lon="0.06032">
        <ele>738.8</ele>
        <time>2016-07-31T09:14:22Z</time>
      </trkpt>
      <trkpt lat="42.44178" lon="0.0603">
        <ele>739</ele>
        <time>2016-07-31T09:14:24Z</time>
      </trkpt>
      <trkpt lat="42.44174" lon="0.06028">
        <ele>739.4</ele>
        <time>2016-07-31T09:14:26Z</time>
      </trkpt>
      <trkpt lat="42.44171" lon="0.06025">
        <ele>739.7</ele>
        <time>2016-07-31T09:14:28Z</time>
      </trkpt>
      <trkpt lat="42.44167" lon="0.06022">
        <ele>740.2</ele>
        <time>2016-07-31T09:14:30Z</time>
      </trkpt>
      <trkpt lat="42.44164" lon="0.06019">
        <ele>740.8</ele>
        <time>2016-07-31T09:14:32Z</time>
      </trkpt>
      <trkpt lat="42.4416" lon="0.06015">
        <ele>741.4</ele>
        <time>2016-07-31T09:14:34Z</time>
      </trkpt>
      <trkpt lat="42.44157" lon="0.06011">
        <ele>742.2</ele>
        <time>2016-07-31T09:14:36Z</time>
      </trkpt>
      <trkpt lat="42.44154" lon="0.06007">
        <ele>743.1</ele>
        <time>2016-07-31T09:14:38Z</time>
      </trkpt>
      <trkpt lat="42.4415" lon="0.06003">
        <ele>743.9</ele>
        <time>2016-07-31T09:14:40Z</time>
      </trkpt>
      <trkpt lat="42.44146" lon="0.06">
        <ele>744.5</ele>
        <time>2016-07-31T09:14:42Z</time>
      </trkpt>
      <trkpt lat="42.44143" lon="0.05996">
        <ele>745</ele>
        <time>2016-07-31T09:14:44Z</time>
      </trkpt>
      <trkpt lat="42.44139" lon="0.05993">
        <ele>745.7</ele>
        <time>2016-07-31T09:14:46Z</time>
      </trkpt>
      <trkpt lat="42.44135" lon="0.05989">
        <ele>746.3</ele>
        <time>2016-07-31T09:14:48Z</time>
      </trkpt>
      <trkpt lat="42.44131" lon="0.05986">
        <ele>746.7</ele>
        <time>2016-07-31T09:14:50Z</time>
      </trkpt>
      <trkpt lat="42.44127" lon="0.05983">
        <ele>747.2</ele>
        <time>2016-07-31T09:14:52Z</time>
      </trkpt>
      <trkpt lat="42.44123" lon="0.0598">
        <ele>747.7</ele>
        <time>2016-07-31T09:14:54Z</time>
      </trkpt>
      <trkpt lat="42.44118" lon="0.05978">
        <ele>748.3</ele>
        <time>2016-07-31T09:14:56Z</time>
      </trkpt>
      <trkpt lat="42.44114" lon="0.05976">
        <ele>749</ele>
        <time>2016-07-31T09:14:58Z</time>
      </trkpt>
      <trkpt lat="42.44109" lon="0.05975">
        <ele>749.6</ele>
        <time>2016-07-31T09:15:00Z</time>
      </trkpt>
      <trkpt lat="42.44105" lon="0.05972">
        <ele>750.2</ele>
        <time>2016-07-31T09:15:02Z</time>
      </trkpt>
      <trkpt lat="42.441" lon="0.0597">
        <ele>750.8</ele>
        <time>2016-07-31T09:15:04Z</time>
      </trkpt>
      <trkpt lat="42.44096" lon="0.05968">
        <ele>751.4</ele>
        <time>2016-07-31T09:15:06Z</time>
      </trkpt>
      <trkpt lat="42.44092" lon="0.05966">
        <ele>752.1</ele>
        <time>2016-07-31T09:15:08Z</time>
      </trkpt>
      <trkpt lat="42.44088" lon="0.05963">
        <ele>752.8</ele>
        <time>2016-07-31T09:15:10Z</time>
      </trkpt>
      <trkpt lat="42.44084" lon="0.0596">
        <ele>753.5</ele>
        <time>2016-07-31T09:15:12Z</time>
      </trkpt>
      <trkpt lat="42.44081" lon="0.05958">
        <ele>754.1</ele>
        <time>2016-07-31T09:15:14Z</time>
      </trkpt>
      <trkpt lat="42.44077" lon="0.05955">
        <ele>754.6</ele>
        <time>2016-07-31T09:15:16Z</time>
      </trkpt>
      <trkpt lat="42.44073" lon="0.05953">
        <ele>755</ele>
        <time>2016-07-31T09:15:18Z</time>
      </trkpt>
      <trkpt lat="42.4407" lon="0.0595">
        <ele>755.5</ele>
        <time>2016-07-31T09:15:20Z</time>
      </trkpt>
      <trkpt lat="42.44066" lon="0.05948">
        <ele>755.9</ele>
        <time>2016-07-31T09:15:22Z</time>
      </trkpt>
      <trkpt lat="42.44063" lon="0.05946">
        <ele>756.3</ele>
        <time>2016-07-31T09:15:24Z</time>
      </trkpt>
      <trkpt lat="42.4406" lon="0.05944">
        <ele>756.7</ele>
        <time>2016-07-31T09:15:26Z</time>
      </trkpt>
      <trkpt lat="42.44057" lon="0.05941">
        <ele>757.1</ele>
        <time>2016-07-31T09:15:28Z</time>
      </trkpt>
      <trkpt lat="42.44054" lon="0.05939">
        <ele>757.5</ele>
        <time>2016-07-31T09:15:30Z</time>
      </trkpt>
      <trkpt lat="42.4405" lon="0.05937">
        <ele>757.7</ele>
        <time>2016-07-31T09:15:32Z</time>
      </trkpt>
      <trkpt lat="42.44046" lon="0.05936">
        <ele>757.8</ele>
        <time>2016-07-31T09:15:34Z</time>
      </trkpt>
      <trkpt lat="42.44042" lon="0.05935">
        <ele>757.9</ele>
        <time>2016-07-31T09:15:36Z</time>
      </trkpt>
      <trkpt lat="42.44038" lon="0.05934">
        <ele>758.1</ele>
        <time>2016-07-31T09:15:38Z</time>
      </trkpt>
      <trkpt lat="42.44034" lon="0.05933">
        <ele>758.2</ele>
        <time>2016-07-31T09:15:40Z</time>
      </trkpt>
      <trkpt lat="42.44031" lon="0.05931">
        <ele>758.4</ele>
        <time>2016-07-31T09:15:42Z</time>
      </trkpt>
      <trkpt lat="42.44028" lon="0.0593">
        <ele>758.5</ele>
        <time>2016-07-31T09:15:44Z</time>
      </trkpt>
      <trkpt lat="42.44025" lon="0.0593">
        <ele>758.6</ele>
        <time>2016-07-31T09:15:46Z</time>
      </trkpt>
      <trkpt lat="42.44021" lon="0.05929">
        <ele>758.6</ele>
        <time>2016-07-31T09:15:48Z</time>
      </trkpt>
      <trkpt lat="42.44018" lon="0.05929">
        <ele>758.6</ele>
        <time>2016-07-31T09:15:50Z</time>
      </trkpt>
      <trkpt lat="42.44015" lon="0.05928">
        <ele>758.7</ele>
        <time>2016-07-31T09:15:52Z</time>
      </trkpt>
      <trkpt lat="42.44011" lon="0.05927">
        <ele>758.8</ele>
        <time>2016-07-31T09:15:54Z</time>
      </trkpt>
      <trkpt lat="42.44008" lon="0.05926">
        <ele>759</ele>
        <time>2016-07-31T09:15:56Z</time>
      </trkpt>
      <trkpt lat="42.44005" lon="0.05924">
        <ele>759.2</ele>
        <time>2016-07-31T09:15:58Z</time>
      </trkpt>
      <trkpt lat="42.44002" lon="0.05922">
        <ele>759.4</ele>
        <time>2016-07-31T09:16:00Z</time>
      </trkpt>
      <trkpt lat="42.44" lon="0.05922">
        <ele>759.4</ele>
        <time>2016-07-31T09:16:02Z</time>
      </trkpt>
      <trkpt lat="42.43997" lon="0.05921">
        <ele>759.6</ele>
        <time>2016-07-31T09:16:04Z</time>
      </trkpt>
      <trkpt lat="42.43994" lon="0.0592">
        <ele>759.7</ele>
        <time>2016-07-31T09:16:06Z</time>
      </trkpt>
      <trkpt lat="42.43991" lon="0.05919">
        <ele>759.8</ele>
        <time>2016-07-31T09:16:08Z</time>
      </trkpt>
      <trkpt lat="42.43988" lon="0.05917">
        <ele>760</ele>
        <time>2016-07-31T09:16:10Z</time>
      </trkpt>
      <trkpt lat="42.43985" lon="0.05916">
        <ele>760.1</ele>
        <time>2016-07-31T09:16:12Z</time>
      </trkpt>
      <trkpt lat="42.43981" lon="0.05915">
        <ele>760.2</ele>
        <time>2016-07-31T09:16:14Z</time>
      </trkpt>
      <trkpt lat="42.43978" lon="0.05913">
        <ele>760.4</ele>
        <time>2016-07-31T09:16:16Z</time>
      </trkpt>
      <trkpt lat="42.43975" lon="0.05912">
        <ele>760.5</ele>
        <time>2016-07-31T09:16:18Z</time>
      </trkpt>
      <trkpt lat="42.43971" lon="0.05911">
        <ele>760.7</ele>
        <time>2016-07-31T09:16:20Z</time>
      </trkpt>
      <trkpt lat="42.43968" lon="0.0591">
        <ele>760.8</ele>
        <time>2016-07-31T09:16:22Z</time>
      </trkpt>
      <trkpt lat="42.43965" lon="0.05909">
        <ele>760.9</ele>
        <time>2016-07-31T09:16:24Z</time>
      </trkpt>
      <trkpt lat="42.43961" lon="0.05908">
        <ele>760.9</ele>
        <time>2016-07-31T09:16:26Z</time>
      </trkpt>
      <trkpt lat="42.43958" lon="0.05908">
        <ele>760.8</ele>
        <time>2016-07-31T09:16:28Z</time>
      </trkpt>
      <trkpt lat="42.43955" lon="0.05908">
        <ele>760.7</ele>
        <time>2016-07-31T09:16:30Z</time>
      </trkpt>
      <trkpt lat="42.43951" lon="0.05907">
        <ele>760.7</ele>
        <time>2016-07-31T09:16:32Z</time>
      </trkpt>
      <trkpt lat="42.43948" lon="0.05906">
        <ele>760.6</ele>
        <time>2016-07-31T09:16:34Z</time>
      </trkpt>
      <trkpt lat="42.43944" lon="0.05905">
        <ele>760.6</ele>
        <time>2016-07-31T09:16:36Z</time>
      </trkpt>
      <trkpt lat="42.4394" lon="0.05904">
        <ele>760.6</ele>
        <time>2016-07-31T09:16:38Z</time>
      </trkpt>
      <trkpt lat="42.43936" lon="0.05903">
        <ele>760.6</ele>
        <time>2016-07-31T09:16:40Z</time>
      </trkpt>
      <trkpt lat="42.43932" lon="0.05901">
        <ele>760.7</ele>
        <time>2016-07-31T09:16:42Z</time>
      </trkpt>
      <trkpt lat="42.43928" lon="0.059">
        <ele>760.8</ele>
        <time>2016-07-31T09:16:44Z</time>
      </trkpt>
      <trkpt lat="42.43924" lon="0.05899">
        <ele>760.8</ele>
        <time>2016-07-31T09:16:46Z</time>
      </trkpt>
      <trkpt lat="42.4392" lon="0.05896">
        <ele>761.2</ele>
        <time>2016-07-31T09:16:48Z</time>
      </trkpt>
      <trkpt lat="42.43918" lon="0.05892">
        <ele>761.9</ele>
        <time>2016-07-31T09:16:50Z</time>
      </trkpt>
      <trkpt lat="42.43917" lon="0.05887">
        <ele>763</ele>
        <time>2016-07-31T09:16:52Z</time>
      </trkpt>
      <trkpt lat="42.43918" lon="0.05882">
        <ele>764.1</ele>
        <time>2016-07-31T09:16:54Z</time>
      </trkpt>
      <trkpt lat="42.4392" lon="0.05878">
        <ele>764.9</ele>
        <time>2016-07-31T09:16:56Z</time>
      </trkpt>
      <trkpt lat="42.43924" lon="0.05875">
        <ele>765.5</ele>
        <time>2016-07-31T09:16:58Z</time>
      </trkpt>
      <trkpt lat="42.43928" lon="0.05874">
        <ele>765.9</ele>
        <time>2016-07-31T09:17:00Z</time>
      </trkpt>
      <trkpt lat="42.43932" lon="0.05873">
        <ele>766.1</ele>
        <time>2016-07-31T09:17:02Z</time>
      </trkpt>
      <trkpt lat="42.43936" lon="0.05872">
        <ele>766.4</ele>
        <time>2016-07-31T09:17:04Z</time>
      </trkpt>
      <trkpt lat="42.4394" lon="0.05871">
        <ele>766.6</ele>
        <time>2016-07-31T09:17:06Z</time>
      </trkpt>
      <trkpt lat="42.43944" lon="0.0587">
        <ele>766.9</ele>
        <time>2016-07-31T09:17:08Z</time>
      </trkpt>
      <trkpt lat="42.43948" lon="0.05868">
        <ele>767.3</ele>
        <time>2016-07-31T09:17:10Z</time>
      </trkpt>
      <trkpt lat="42.43951" lon="0.05866">
        <ele>767.7</ele>
        <time>2016-07-31T09:17:12Z</time>
      </trkpt>
      <trkpt lat="42.43955" lon="0.05865">
        <ele>768.1</ele>
        <time>2016-07-31T09:17:14Z</time>
      </trkpt>
      <trkpt lat="42.43958" lon="0.05863">
        <ele>768.5</ele>
        <time>2016-07-31T09:17:16Z</time>
      </trkpt>
      <trkpt lat="42.43962" lon="0.05861">
        <ele>768.9</ele>
        <time>2016-07-31T09:17:18Z</time>
      </trkpt>
      <trkpt lat="42.43965" lon="0.05859">
        <ele>769.3</ele>
        <time>2016-07-31T09:17:20Z</time>
      </trkpt>
      <trkpt lat="42.43968" lon="0.05858">
        <ele>769.7</ele>
        <time>2016-07-31T09:17:22Z</time>
      </trkpt>
      <trkpt lat="42.43972" lon="0.05856">
        <ele>770.2</ele>
        <time>2016-07-31T09:17:24Z</time>
      </trkpt>
      <trkpt lat="42.43975" lon="0.05854">
        <ele>770.6</ele>
        <time>2016-07-31T09:17:26Z</time>
      </trkpt>
      <trkpt lat="42.43978" lon="0.05853">
        <ele>770.9</ele>
        <time>2016-07-31T09:17:28Z</time>
      </trkpt>
      <trkpt lat="42.43981" lon="0.05851">
        <ele>771.2</ele>
        <time>2016-07-31T09:17:30Z</time>
      </trkpt>
      <trkpt lat="42.43985" lon="0.0585">
        <ele>771.6</ele>
        <time>2016-07-31T09:17:32Z</time>
      </trkpt>
      <trkpt lat="42.43989" lon="0.05848">
        <ele>772.1</ele>
        <time>2016-07-31T09:17:34Z</time>
      </trkpt>
      <trkpt lat="42.43993" lon="0.05846">
        <ele>772.5</ele>
        <time>2016-07-31T09:17:36Z</time>
      </trkpt>
      <trkpt lat="42.43996" lon="0.05844">
        <ele>772.8</ele>
        <time>2016-07-31T09:17:38Z</time>
      </trkpt>
      <trkpt lat="42.44" lon="0.05843">
        <ele>773.2</ele>
        <time>2016-07-31T09:17:40Z</time>
      </trkpt>
      <trkpt lat="42.44005" lon="0.05841">
        <ele>773.6</ele>
        <time>2016-07-31T09:17:42Z</time>
      </trkpt>
      <trkpt lat="42.44009" lon="0.05839">
        <ele>774</ele>
        <time>2016-07-31T09:17:44Z</time>
      </trkpt>
      <trkpt lat="42.44013" lon="0.05838">
        <ele>774.2</ele>
        <time>2016-07-31T09:17:46Z</time>
      </trkpt>
      <trkpt lat="42.44016" lon="0.05838">
        <ele>774.4</ele>
        <time>2016-07-31T09:17:48Z</time>
      </trkpt>
      <trkpt lat="42.4402" lon="0.05837">
        <ele>774.5</ele>
        <time>2016-07-31T09:17:50Z</time>
      </trkpt>
      <trkpt lat="42.44024" lon="0.05836">
        <ele>774.8</ele>
        <time>2016-07-31T09:17:52Z</time>
      </trkpt>
      <trkpt lat="42.44027" lon="0.05835">
        <ele>775.1</ele>
        <time>2016-07-31T09:17:54Z</time>
      </trkpt>
      <trkpt lat="42.4403" lon="0.05833">
        <ele>775.4</ele>
        <time>2016-07-31T09:17:56Z</time>
      </trkpt>
      <trkpt lat="42.44034" lon="0.05834">
        <ele>775.4</ele>
        <time>2016-07-31T09:17:58Z</time>
      </trkpt>
      <trkpt lat="42.44038" lon="0.05834">
        <ele>775.4</ele>
        <time>2016-07-31T09:18:00Z</time>
      </trkpt>
      <trkpt lat="42.44041" lon="0.05834">
        <ele>775.4</ele>
        <time>2016-07-31T09:18:02Z</time>
      </trkpt>
      <trkpt lat="42.44045" lon="0.05835">
        <ele>775.5</ele>
        <time>2016-07-31T09:18:04Z</time>
      </trkpt>
      <trkpt lat="42.44049" lon="0.05836">
        <ele>775.6</ele>
        <time>2016-07-31T09:18:06Z</time>
      </trkpt>
      <trkpt lat="42.44052" lon="0.05837">
        <ele>775.7</ele>
        <time>2016-07-31T09:18:08Z</time>
      </trkpt>
      <trkpt lat="42.44056" lon="0.05838">
        <ele>775.8</ele>
        <time>2016-07-31T09:18:10Z</time>
      </trkpt>
      <trkpt lat="42.4406" lon="0.05839">
        <ele>775.9</ele>
        <time>2016-07-31T09:18:12Z</time>
      </trkpt>
      <trkpt lat="42.44063" lon="0.05838">
        <ele>776.5</ele>
        <time>2016-07-31T09:18:14Z</time>
      </trkpt>
      <trkpt lat="42.44065" lon="0.05832">
        <ele>777.7</ele>
        <time>2016-07-31T09:18:16Z</time>
      </trkpt>
      <trkpt lat="42.44065" lon="0.05826">
        <ele>778.8</ele>
        <time>2016-07-31T09:18:18Z</time>
      </trkpt>
      <trkpt lat="42.44061" lon="0.05821">
        <ele>779.4</ele>
        <time>2016-07-31T09:18:20Z</time>
      </trkpt>
      <trkpt lat="42.44058" lon="0.05818">
        <ele>779.7</ele>
        <time>2016-07-31T09:18:22Z</time>
      </trkpt>
      <trkpt lat="42.44054" lon="0.05816">
        <ele>779.8</ele>
        <time>2016-07-31T09:18:24Z</time>
      </trkpt>
      <trkpt lat="42.44051" lon="0.05815">
        <ele>779.7</ele>
        <time>2016-07-31T09:18:26Z</time>
      </trkpt>
      <trkpt lat="42.44047" lon="0.05814">
        <ele>779.5</ele>
        <time>2016-07-31T09:18:28Z</time>
      </trkpt>
      <trkpt lat="42.44044" lon="0.05813">
        <ele>779.4</ele>
        <time>2016-07-31T09:18:30Z</time>
      </trkpt>
      <trkpt lat="42.4404" lon="0.05811">
        <ele>779.5</ele>
        <time>2016-07-31T09:18:32Z</time>
      </trkpt>
      <trkpt lat="42.44037" lon="0.05809">
        <ele>779.9</ele>
        <time>2016-07-31T09:18:34Z</time>
      </trkpt>
      <trkpt lat="42.44034" lon="0.05807">
        <ele>780.2</ele>
        <time>2016-07-31T09:18:36Z</time>
      </trkpt>
      <trkpt lat="42.44031" lon="0.05805">
        <ele>780.5</ele>
        <time>2016-07-31T09:18:38Z</time>
      </trkpt>
      <trkpt lat="42.44028" lon="0.05804">
        <ele>780.8</ele>
        <time>2016-07-31T09:18:40Z</time>
      </trkpt>
      <trkpt lat="42.44025" lon="0.05802">
        <ele>781.1</ele>
        <time>2016-07-31T09:18:42Z</time>
      </trkpt>
      <trkpt lat="42.44022" lon="0.058">
        <ele>781.4</ele>
        <time>2016-07-31T09:18:44Z</time>
      </trkpt>
      <trkpt lat="42.44019" lon="0.05799">
        <ele>781.7</ele>
        <time>2016-07-31T09:18:46Z</time>
      </trkpt>
      <trkpt lat="42.44016" lon="0.05796">
        <ele>782.1</ele>
        <time>2016-07-31T09:18:48Z</time>
      </trkpt>
      <trkpt lat="42.44013" lon="0.05794">
        <ele>782.6</ele>
        <time>2016-07-31T09:18:50Z</time>
      </trkpt>
      <trkpt lat="42.4401" lon="0.05791">
        <ele>783.3</ele>
        <time>2016-07-31T09:18:52Z</time>
      </trkpt>
      <trkpt lat="42.44008" lon="0.05787">
        <ele>784.2</ele>
        <time>2016-07-31T09:18:54Z</time>
      </trkpt>
      <trkpt lat="42.44005" lon="0.05784">
        <ele>785</ele>
        <time>2016-07-31T09:18:56Z</time>
      </trkpt>
      <trkpt lat="42.44002" lon="0.05782">
        <ele>785.6</ele>
        <time>2016-07-31T09:18:58Z</time>
      </trkpt>
      <trkpt lat="42.43998" lon="0.05779">
        <ele>786.1</ele>
        <time>2016-07-31T09:19:00Z</time>
      </trkpt>
      <trkpt lat="42.43995" lon="0.05776">
        <ele>787</ele>
        <time>2016-07-31T09:19:02Z</time>
      </trkpt>
      <trkpt lat="42.43992" lon="0.05772">
        <ele>788</ele>
        <time>2016-07-31T09:19:04Z</time>
      </trkpt>
      <trkpt lat="42.43989" lon="0.05768">
        <ele>788.9</ele>
        <time>2016-07-31T09:19:06Z</time>
      </trkpt>
      <trkpt lat="42.43986" lon="0.05764">
        <ele>789.8</ele>
        <time>2016-07-31T09:19:08Z</time>
      </trkpt>
      <trkpt lat="42.43984" lon="0.0576">
        <ele>790.7</ele>
        <time>2016-07-31T09:19:10Z</time>
      </trkpt>
      <trkpt lat="42.43981" lon="0.05757">
        <ele>791.6</ele>
        <time>2016-07-31T09:19:12Z</time>
      </trkpt>
      <trkpt lat="42.43978" lon="0.05753">
        <ele>792.3</ele>
        <time>2016-07-31T09:19:14Z</time>
      </trkpt>
      <trkpt lat="42.43975" lon="0.0575">
        <ele>793</ele>
        <time>2016-07-31T09:19:16Z</time>
      </trkpt>
      <trkpt lat="42.43971" lon="0.05748">
        <ele>793.4</ele>
        <time>2016-07-31T09:19:18Z</time>
      </trkpt>
      <trkpt lat="42.43968" lon="0.05746">
        <ele>793.7</ele>
        <time>2016-07-31T09:19:20Z</time>
      </trkpt>
      <trkpt lat="42.43964" lon="0.05745">
        <ele>793.9</ele>
        <time>2016-07-31T09:19:22Z</time>
      </trkpt>
      <trkpt lat="42.4396" lon="0.05744">
        <ele>793.9</ele>
        <time>2016-07-31T09:19:24Z</time>
      </trkpt>
      <trkpt lat="42.43957" lon="0.05744">
        <ele>793.9</ele>
        <time>2016-07-31T09:19:26Z</time>
      </trkpt>
      <trkpt lat="42.43954" lon="0.05744">
        <ele>793.7</ele>
        <time>2016-07-31T09:19:28Z</time>
      </trkpt>
      <trkpt lat="42.4395" lon="0.05744">
        <ele>793.5</ele>
        <time>2016-07-31T09:19:30Z</time>
      </trkpt>
      <trkpt lat="42.43946" lon="0.05744">
        <ele>793.4</ele>
        <time>2016-07-31T09:19:32Z</time>
      </trkpt>
      <trkpt lat="42.43942" lon="0.05743">
        <ele>793.3</ele>
        <time>2016-07-31T09:19:34Z</time>
      </trkpt>
      <trkpt lat="42.43939" lon="0.05742">
        <ele>793.4</ele>
        <time>2016-07-31T09:19:36Z</time>
      </trkpt>
      <trkpt lat="42.43935" lon="0.05741">
        <ele>793.4</ele>
        <time>2016-07-31T09:19:38Z</time>
      </trkpt>
      <trkpt lat="42.43931" lon="0.0574">
        <ele>793.4</ele>
        <time>2016-07-31T09:19:40Z</time>
      </trkpt>
      <trkpt lat="42.43926" lon="0.05739">
        <ele>793.3</ele>
        <time>2016-07-31T09:19:42Z</time>
      </trkpt>
      <trkpt lat="42.43922" lon="0.05739">
        <ele>793.2</ele>
        <time>2016-07-31T09:19:44Z</time>
      </trkpt>
      <trkpt lat="42.43918" lon="0.05738">
        <ele>793</ele>
        <time>2016-07-31T09:19:46Z</time>
      </trkpt>
      <trkpt lat="42.43914" lon="0.05738">
        <ele>792.8</ele>
        <time>2016-07-31T09:19:48Z</time>
      </trkpt>
      <trkpt lat="42.43909" lon="0.05738">
        <ele>792.6</ele>
        <time>2016-07-31T09:19:50Z</time>
      </trkpt>
      <trkpt lat="42.43905" lon="0.05738">
        <ele>792.4</ele>
        <time>2016-07-31T09:19:52Z</time>
      </trkpt>
      <trkpt lat="42.43901" lon="0.05737">
        <ele>792.2</ele>
        <time>2016-07-31T09:19:54Z</time>
      </trkpt>
      <trkpt lat="42.43897" lon="0.05736">
        <ele>792.2</ele>
        <time>2016-07-31T09:19:56Z</time>
      </trkpt>
      <trkpt lat="42.43893" lon="0.05735">
        <ele>792.1</ele>
        <time>2016-07-31T09:19:58Z</time>
      </trkpt>
      <trkpt lat="42.43889" lon="0.05734">
        <ele>792.1</ele>
        <time>2016-07-31T09:20:00Z</time>
      </trkpt>
      <trkpt lat="42.43886" lon="0.05733">
        <ele>792.1</ele>
        <time>2016-07-31T09:20:02Z</time>
      </trkpt>
      <trkpt lat="42.43882" lon="0.05731">
        <ele>792.1</ele>
        <time>2016-07-31T09:20:04Z</time>
      </trkpt>
      <trkpt lat="42.43879" lon="0.0573">
        <ele>792.2</ele>
        <time>2016-07-31T09:20:06Z</time>
      </trkpt>
      <trkpt lat="42.43875" lon="0.05728">
        <ele>792.3</ele>
        <time>2016-07-31T09:20:08Z</time>
      </trkpt>
      <trkpt lat="42.43872" lon="0.05726">
        <ele>792.4</ele>
        <time>2016-07-31T09:20:10Z</time>
      </trkpt>
      <trkpt lat="42.43869" lon="0.05724">
        <ele>792.5</ele>
        <time>2016-07-31T09:20:12Z</time>
      </trkpt>
      <trkpt lat="42.43865" lon="0.05722">
        <ele>792.6</ele>
        <time>2016-07-31T09:20:14Z</time>
      </trkpt>
      <trkpt lat="42.43862" lon="0.0572">
        <ele>792.6</ele>
        <time>2016-07-31T09:20:16Z</time>
      </trkpt>
      <trkpt lat="42.43858" lon="0.05719">
        <ele>792.6</ele>
        <time>2016-07-31T09:20:18Z</time>
      </trkpt>
      <trkpt lat="42.43855" lon="0.05719">
        <ele>792.5</ele>
        <time>2016-07-31T09:20:20Z</time>
      </trkpt>
      <trkpt lat="42.43851" lon="0.05718">
        <ele>792.5</ele>
        <time>2016-07-31T09:20:22Z</time>
      </trkpt>
      <trkpt lat="42.43848" lon="0.05716">
        <ele>792.7</ele>
        <time>2016-07-31T09:20:24Z</time>
      </trkpt>
      <trkpt lat="42.43845" lon="0.05713">
        <ele>792.8</ele>
        <time>2016-07-31T09:20:26Z</time>
      </trkpt>
      <trkpt lat="42.43841" lon="0.05712">
        <ele>792.9</ele>
        <time>2016-07-31T09:20:28Z</time>
      </trkpt>
      <trkpt lat="42.43838" lon="0.0571">
        <ele>793</ele>
        <time>2016-07-31T09:20:30Z</time>
      </trkpt>
      <trkpt lat="42.43835" lon="0.05708">
        <ele>793.1</ele>
        <time>2016-07-31T09:20:32Z</time>
      </trkpt>
      <trkpt lat="42.43832" lon="0.05707">
        <ele>793.3</ele>
        <time>2016-07-31T09:20:34Z</time>
      </trkpt>
      <trkpt lat="42.43829" lon="0.05705">
        <ele>793.5</ele>
        <time>2016-07-31T09:20:36Z</time>
      </trkpt>
      <trkpt lat="42.43826" lon="0.05704">
        <ele>793.6</ele>
        <time>2016-07-31T09:20:38Z</time>
      </trkpt>
      <trkpt lat="42.43823" lon="0.05703">
        <ele>793.7</ele>
        <time>2016-07-31T09:20:40Z</time>
      </trkpt>
      <trkpt lat="42.4382" lon="0.05701">
        <ele>794.1</ele>
        <time>2016-07-31T09:20:42Z</time>
      </trkpt>
      <trkpt lat="42.43818" lon="0.05697">
        <ele>794.8</ele>
        <time>2016-07-31T09:20:44Z</time>
      </trkpt>
      <trkpt lat="42.43817" lon="0.05694">
        <ele>795.5</ele>
        <time>2016-07-31T09:20:46Z</time>
      </trkpt>
      <trkpt lat="42.43815" lon="0.0569">
        <ele>796.2</ele>
        <time>2016-07-31T09:20:48Z</time>
      </trkpt>
      <trkpt lat="42.43814" lon="0.05686">
        <ele>797</ele>
        <time>2016-07-31T09:20:50Z</time>
      </trkpt>
      <trkpt lat="42.43814" lon="0.05682">
        <ele>797.8</ele>
        <time>2016-07-31T09:20:52Z</time>
      </trkpt>
      <trkpt lat="42.43814" lon="0.05679">
        <ele>798.7</ele>
        <time>2016-07-31T09:20:54Z</time>
      </trkpt>
      <trkpt lat="42.43815" lon="0.05675">
        <ele>799.7</ele>
        <time>2016-07-31T09:20:56Z</time>
      </trkpt>
      <trkpt lat="42.43817" lon="0.05671">
        <ele>800.6</ele>
        <time>2016-07-31T09:20:58Z</time>
      </trkpt>
      <trkpt lat="42.43818" lon="0.05667">
        <ele>801.6</ele>
        <time>2016-07-31T09:21:00Z</time>
      </trkpt>
      <trkpt lat="42.43818" lon="0.05663">
        <ele>802.4</ele>
        <time>2016-07-31T09:21:02Z</time>
      </trkpt>
      <trkpt lat="42.43818" lon="0.05659">
        <ele>803.4</ele>
        <time>2016-07-31T09:21:04Z</time>
      </trkpt>
      <trkpt lat="42.43818" lon="0.05654">
        <ele>804.4</ele>
        <time>2016-07-31T09:21:06Z</time>
      </trkpt>
      <trkpt lat="42.43817" lon="0.0565">
        <ele>805.1</ele>
        <time>2016-07-31T09:21:08Z</time>
      </trkpt>
      <trkpt lat="42.43815" lon="0.05647">
        <ele>805.7</ele>
        <time>2016-07-31T09:21:10Z</time>
      </trkpt>
      <trkpt lat="42.43812" lon="0.05644">
        <ele>806.2</ele>
        <time>2016-07-31T09:21:13Z</time>
      </trkpt>
      <trkpt lat="42.43809" lon="0.05643">
        <ele>806.3</ele>
        <time>2016-07-31T09:21:15Z</time>
      </trkpt>
      <trkpt lat="42.43806" lon="0.05642">
        <ele>806.3</ele>
        <time>2016-07-31T09:21:17Z</time>
      </trkpt>
      <trkpt lat="42.43803" lon="0.0564">
        <ele>806.5</ele>
        <time>2016-07-31T09:21:19Z</time>
      </trkpt>
      <trkpt lat="42.438" lon="0.05638">
        <ele>806.7</ele>
        <time>2016-07-31T09:21:21Z</time>
      </trkpt>
      <trkpt lat="42.43796" lon="0.05637">
        <ele>806.8</ele>
        <time>2016-07-31T09:21:23Z</time>
      </trkpt>
      <trkpt lat="42.43793" lon="0.05635">
        <ele>807</ele>
        <time>2016-07-31T09:21:25Z</time>
      </trkpt>
      <trkpt lat="42.43789" lon="0.05633">
        <ele>807.4</ele>
        <time>2016-07-31T09:21:27Z</time>
      </trkpt>
      <trkpt lat="42.43786" lon="0.05631">
        <ele>807.7</ele>
        <time>2016-07-31T09:21:29Z</time>
      </trkpt>
      <trkpt lat="42.43782" lon="0.05629">
        <ele>808</ele>
        <time>2016-07-31T09:21:31Z</time>
      </trkpt>
      <trkpt lat="42.43778" lon="0.05627">
        <ele>808.4</ele>
        <time>2016-07-31T09:21:33Z</time>
      </trkpt>
      <trkpt lat="42.43775" lon="0.05625">
        <ele>808.8</ele>
        <time>2016-07-31T09:21:35Z</time>
      </trkpt>
      <trkpt lat="42.43771" lon="0.05624">
        <ele>808.9</ele>
        <time>2016-07-31T09:21:37Z</time>
      </trkpt>
      <trkpt lat="42.43767" lon="0.05623">
        <ele>809.1</ele>
        <time>2016-07-31T09:21:39Z</time>
      </trkpt>
      <trkpt lat="42.43763" lon="0.05623">
        <ele>809.2</ele>
        <time>2016-07-31T09:21:41Z</time>
      </trkpt>
      <trkpt lat="42.43759" lon="0.05621">
        <ele>809.6</ele>
        <time>2016-07-31T09:21:43Z</time>
      </trkpt>
      <trkpt lat="42.43756" lon="0.05618">
        <ele>810</ele>
        <time>2016-07-31T09:21:45Z</time>
      </trkpt>
      <trkpt lat="42.43752" lon="0.05617">
        <ele>810.3</ele>
        <time>2016-07-31T09:21:47Z</time>
      </trkpt>
      <trkpt lat="42.43748" lon="0.05615">
        <ele>810.6</ele>
        <time>2016-07-31T09:21:49Z</time>
      </trkpt>
      <trkpt lat="42.43745" lon="0.05614">
        <ele>810.9</ele>
        <time>2016-07-31T09:21:51Z</time>
      </trkpt>
      <trkpt lat="42.43741" lon="0.05613">
        <ele>811.1</ele>
        <time>2016-07-31T09:21:53Z</time>
      </trkpt>
      <trkpt lat="42.43738" lon="0.05611">
        <ele>811.4</ele>
        <time>2016-07-31T09:21:55Z</time>
      </trkpt>
      <trkpt lat="42.43734" lon="0.05609">
        <ele>811.8</ele>
        <time>2016-07-31T09:21:57Z</time>
      </trkpt>
      <trkpt lat="42.43731" lon="0.05608">
        <ele>812</ele>
        <time>2016-07-31T09:21:59Z</time>
      </trkpt>
      <trkpt lat="42.43728" lon="0.05606">
        <ele>812.4</ele>
        <time>2016-07-31T09:22:01Z</time>
      </trkpt>
      <trkpt lat="42.43726" lon="0.05604">
        <ele>812.9</ele>
        <time>2016-07-31T09:22:03Z</time>
      </trkpt>
      <trkpt lat="42.43724" lon="0.056">
        <ele>813.7</ele>
        <time>2016-07-31T09:22:05Z</time>
      </trkpt>
      <trkpt lat="42.43723" lon="0.05596">
        <ele>814.5</ele>
        <time>2016-07-31T09:22:07Z</time>
      </trkpt>
      <trkpt lat="42.43725" lon="0.05592">
        <ele>815.5</ele>
        <time>2016-07-31T09:22:09Z</time>
      </trkpt>
      <trkpt lat="42.43729" lon="0.0559">
        <ele>815.8</ele>
        <time>2016-07-31T09:22:11Z</time>
      </trkpt>
      <trkpt lat="42.43734" lon="0.05591">
        <ele>815.7</ele>
        <time>2016-07-31T09:22:13Z</time>
      </trkpt>
      <trkpt lat="42.43739" lon="0.05592">
        <ele>815.6</ele>
        <time>2016-07-31T09:22:15Z</time>
      </trkpt>
      <trkpt lat="42.43742" lon="0.05593">
        <ele>815.6</ele>
        <time>2016-07-31T09:22:16Z</time>
      </trkpt>
      <trkpt lat="42.43745" lon="0.05593">
        <ele>815.6</ele>
        <time>2016-07-31T09:22:17Z</time>
      </trkpt>
      <trkpt lat="42.4375" lon="0.05592">
        <ele>815.8</ele>
        <time>2016-07-31T09:22:19Z</time>
      </trkpt>
      <trkpt lat="42.43754" lon="0.05592">
        <ele>815.9</ele>
        <time>2016-07-31T09:22:21Z</time>
      </trkpt>
      <trkpt lat="42.43758" lon="0.05593">
        <ele>815.8</ele>
        <time>2016-07-31T09:22:23Z</time>
      </trkpt>
      <trkpt lat="42.43762" lon="0.05593">
        <ele>815.9</ele>
        <time>2016-07-31T09:22:25Z</time>
      </trkpt>
      <trkpt lat="42.43766" lon="0.05592">
        <ele>816.1</ele>
        <time>2016-07-31T09:22:27Z</time>
      </trkpt>
      <trkpt lat="42.4377" lon="0.05593">
        <ele>816.1</ele>
        <time>2016-07-31T09:22:29Z</time>
      </trkpt>
      <trkpt lat="42.43774" lon="0.05594">
        <ele>815.8</ele>
        <time>2016-07-31T09:22:31Z</time>
      </trkpt>
      <trkpt lat="42.43778" lon="0.05595">
        <ele>815.7</ele>
        <time>2016-07-31T09:22:33Z</time>
      </trkpt>
      <trkpt lat="42.43782" lon="0.05596">
        <ele>815.6</ele>
        <time>2016-07-31T09:22:35Z</time>
      </trkpt>
      <trkpt lat="42.43787" lon="0.05597">
        <ele>815.4</ele>
        <time>2016-07-31T09:22:37Z</time>
      </trkpt>
      <trkpt lat="42.43792" lon="0.05598">
        <ele>815.3</ele>
        <time>2016-07-31T09:22:39Z</time>
      </trkpt>
      <trkpt lat="42.43798" lon="0.05598">
        <ele>815.6</ele>
        <time>2016-07-31T09:22:41Z</time>
      </trkpt>
      <trkpt lat="42.43803" lon="0.05599">
        <ele>815.9</ele>
        <time>2016-07-31T09:22:43Z</time>
      </trkpt>
      <trkpt lat="42.43808" lon="0.05599">
        <ele>816.3</ele>
        <time>2016-07-31T09:22:45Z</time>
      </trkpt>
      <trkpt lat="42.43813" lon="0.056">
        <ele>816.6</ele>
        <time>2016-07-31T09:22:47Z</time>
      </trkpt>
      <trkpt lat="42.43818" lon="0.05601">
        <ele>816.8</ele>
        <time>2016-07-31T09:22:49Z</time>
      </trkpt>
      <trkpt lat="42.43823" lon="0.05602">
        <ele>817</ele>
        <time>2016-07-31T09:22:51Z</time>
      </trkpt>
      <trkpt lat="42.43827" lon="0.05602">
        <ele>817.3</ele>
        <time>2016-07-31T09:22:53Z</time>
      </trkpt>
      <trkpt lat="42.43832" lon="0.05603">
        <ele>817.6</ele>
        <time>2016-07-31T09:22:55Z</time>
      </trkpt>
      <trkpt lat="42.43837" lon="0.05603">
        <ele>817.9</ele>
        <time>2016-07-31T09:22:57Z</time>
      </trkpt>
      <trkpt lat="42.43841" lon="0.05603">
        <ele>818.2</ele>
        <time>2016-07-31T09:22:59Z</time>
      </trkpt>
      <trkpt lat="42.43846" lon="0.05603">
        <ele>818.6</ele>
        <time>2016-07-31T09:23:01Z</time>
      </trkpt>
      <trkpt lat="42.43851" lon="0.05603">
        <ele>818.9</ele>
        <time>2016-07-31T09:23:03Z</time>
      </trkpt>
      <trkpt lat="42.43855" lon="0.05603">
        <ele>819.3</ele>
        <time>2016-07-31T09:23:05Z</time>
      </trkpt>
      <trkpt lat="42.4386" lon="0.05603">
        <ele>819.7</ele>
        <time>2016-07-31T09:23:07Z</time>
      </trkpt>
      <trkpt lat="42.43864" lon="0.05603">
        <ele>820.1</ele>
        <time>2016-07-31T09:23:09Z</time>
      </trkpt>
      <trkpt lat="42.43869" lon="0.05603">
        <ele>820.5</ele>
        <time>2016-07-31T09:23:11Z</time>
      </trkpt>
      <trkpt lat="42.43873" lon="0.05603">
        <ele>820.9</ele>
        <time>2016-07-31T09:23:13Z</time>
      </trkpt>
      <trkpt lat="42.43877" lon="0.05602">
        <ele>821.4</ele>
        <time>2016-07-31T09:23:15Z</time>
      </trkpt>
      <trkpt lat="42.4388" lon="0.05601">
        <ele>822.2</ele>
        <time>2016-07-31T09:23:17Z</time>
      </trkpt>
      <trkpt lat="42.43882" lon="0.05598">
        <ele>823.2</ele>
        <time>2016-07-31T09:23:19Z</time>
      </trkpt>
      <trkpt lat="42.43882" lon="0.05595">
        <ele>824.3</ele>
        <time>2016-07-31T09:23:21Z</time>
      </trkpt>
      <trkpt lat="42.43881" lon="0.05591">
        <ele>825.1</ele>
        <time>2016-07-31T09:23:23Z</time>
      </trkpt>
      <trkpt lat="42.43878" lon="0.05588">
        <ele>825.6</ele>
        <time>2016-07-31T09:23:25Z</time>
      </trkpt>
      <trkpt lat="42.43875" lon="0.05587">
        <ele>825.6</ele>
        <time>2016-07-31T09:23:27Z</time>
      </trkpt>
      <trkpt lat="42.43871" lon="0.05586">
        <ele>825.4</ele>
        <time>2016-07-31T09:23:29Z</time>
      </trkpt>
      <trkpt lat="42.43867" lon="0.05585">
        <ele>825.4</ele>
        <time>2016-07-31T09:23:31Z</time>
      </trkpt>
      <trkpt lat="42.43864" lon="0.05583">
        <ele>825.4</ele>
        <time>2016-07-31T09:23:33Z</time>
      </trkpt>
      <trkpt lat="42.4386" lon="0.05582">
        <ele>825.5</ele>
        <time>2016-07-31T09:23:35Z</time>
      </trkpt>
      <trkpt lat="42.43856" lon="0.0558">
        <ele>825.7</ele>
        <time>2016-07-31T09:23:37Z</time>
      </trkpt>
      <trkpt lat="42.43853" lon="0.05578">
        <ele>825.9</ele>
        <time>2016-07-31T09:23:39Z</time>
      </trkpt>
      <trkpt lat="42.4385" lon="0.05576">
        <ele>826.1</ele>
        <time>2016-07-31T09:23:41Z</time>
      </trkpt>
      <trkpt lat="42.43847" lon="0.05574">
        <ele>826.3</ele>
        <time>2016-07-31T09:23:43Z</time>
      </trkpt>
      <trkpt lat="42.43844" lon="0.05572">
        <ele>826.5</ele>
        <time>2016-07-31T09:23:45Z</time>
      </trkpt>
      <trkpt lat="42.43841" lon="0.0557">
        <ele>826.7</ele>
        <time>2016-07-31T09:23:47Z</time>
      </trkpt>
      <trkpt lat="42.43838" lon="0.05568">
        <ele>827</ele>
        <time>2016-07-31T09:23:49Z</time>
      </trkpt>
      <trkpt lat="42.43835" lon="0.05565">
        <ele>827.2</ele>
        <time>2016-07-31T09:23:51Z</time>
      </trkpt>
      <trkpt lat="42.43832" lon="0.05563">
        <ele>827.4</ele>
        <time>2016-07-31T09:23:53Z</time>
      </trkpt>
      <trkpt lat="42.43829" lon="0.05561">
        <ele>827.6</ele>
        <time>2016-07-31T09:23:55Z</time>
      </trkpt>
      <trkpt lat="42.43826" lon="0.05559">
        <ele>827.8</ele>
        <time>2016-07-31T09:23:57Z</time>
      </trkpt>
      <trkpt lat="42.43823" lon="0.05557">
        <ele>828.1</ele>
        <time>2016-07-31T09:23:59Z</time>
      </trkpt>
      <trkpt lat="42.4382" lon="0.05554">
        <ele>828.4</ele>
        <time>2016-07-31T09:24:01Z</time>
      </trkpt>
      <trkpt lat="42.43817" lon="0.05552">
        <ele>828.6</ele>
        <time>2016-07-31T09:24:03Z</time>
      </trkpt>
      <trkpt lat="42.43815" lon="0.05549">
        <ele>829</ele>
        <time>2016-07-31T09:24:05Z</time>
      </trkpt>
      <trkpt lat="42.43813" lon="0.05546">
        <ele>829.5</ele>
        <time>2016-07-31T09:24:07Z</time>
      </trkpt>
      <trkpt lat="42.4381" lon="0.05543">
        <ele>829.9</ele>
        <time>2016-07-31T09:24:09Z</time>
      </trkpt>
      <trkpt lat="42.43808" lon="0.0554">
        <ele>830.4</ele>
        <time>2016-07-31T09:24:11Z</time>
      </trkpt>
      <trkpt lat="42.43805" lon="0.05536">
        <ele>831.3</ele>
        <time>2016-07-31T09:24:13Z</time>
      </trkpt>
      <trkpt lat="42.43803" lon="0.05533">
        <ele>831.9</ele>
        <time>2016-07-31T09:24:15Z</time>
      </trkpt>
      <trkpt lat="42.43801" lon="0.0553">
        <ele>832.7</ele>
        <time>2016-07-31T09:24:17Z</time>
      </trkpt>
      <trkpt lat="42.43799" lon="0.05526">
        <ele>833.5</ele>
        <time>2016-07-31T09:24:19Z</time>
      </trkpt>
      <trkpt lat="42.43797" lon="0.05523">
        <ele>834.3</ele>
        <time>2016-07-31T09:24:21Z</time>
      </trkpt>
      <trkpt lat="42.43794" lon="0.0552">
        <ele>834.8</ele>
        <time>2016-07-31T09:24:23Z</time>
      </trkpt>
      <trkpt lat="42.43791" lon="0.05517">
        <ele>835.3</ele>
        <time>2016-07-31T09:24:25Z</time>
      </trkpt>
      <trkpt lat="42.43789" lon="0.05515">
        <ele>836.1</ele>
        <time>2016-07-31T09:24:27Z</time>
      </trkpt>
      <trkpt lat="42.43786" lon="0.05512">
        <ele>836.9</ele>
        <time>2016-07-31T09:24:29Z</time>
      </trkpt>
      <trkpt lat="42.43783" lon="0.05509">
        <ele>837.7</ele>
        <time>2016-07-31T09:24:31Z</time>
      </trkpt>
      <trkpt lat="42.43779" lon="0.05506">
        <ele>838.5</ele>
        <time>2016-07-31T09:24:33Z</time>
      </trkpt>
      <trkpt lat="42.43775" lon="0.05504">
        <ele>839</ele>
        <time>2016-07-31T09:24:35Z</time>
      </trkpt>
      <trkpt lat="42.43772" lon="0.05502">
        <ele>839.5</ele>
        <time>2016-07-31T09:24:37Z</time>
      </trkpt>
      <trkpt lat="42.43769" lon="0.05499">
        <ele>840.1</ele>
        <time>2016-07-31T09:24:39Z</time>
      </trkpt>
      <trkpt lat="42.43766" lon="0.05497">
        <ele>840.7</ele>
        <time>2016-07-31T09:24:41Z</time>
      </trkpt>
      <trkpt lat="42.43763" lon="0.05495">
        <ele>841.5</ele>
        <time>2016-07-31T09:24:43Z</time>
      </trkpt>
      <trkpt lat="42.4376" lon="0.05492">
        <ele>842.1</ele>
        <time>2016-07-31T09:24:45Z</time>
      </trkpt>
      <trkpt lat="42.43756" lon="0.0549">
        <ele>842.6</ele>
        <time>2016-07-31T09:24:47Z</time>
      </trkpt>
      <trkpt lat="42.43753" lon="0.05489">
        <ele>843</ele>
        <time>2016-07-31T09:24:49Z</time>
      </trkpt>
      <trkpt lat="42.4375" lon="0.05486">
        <ele>843.7</ele>
        <time>2016-07-31T09:24:51Z</time>
      </trkpt>
      <trkpt lat="42.43747" lon="0.05484">
        <ele>844.3</ele>
        <time>2016-07-31T09:24:53Z</time>
      </trkpt>
      <trkpt lat="42.43744" lon="0.05481">
        <ele>845</ele>
        <time>2016-07-31T09:24:55Z</time>
      </trkpt>
      <trkpt lat="42.43741" lon="0.05479">
        <ele>845.6</ele>
        <time>2016-07-31T09:24:57Z</time>
      </trkpt>
      <trkpt lat="42.43739" lon="0.05476">
        <ele>846.3</ele>
        <time>2016-07-31T09:24:59Z</time>
      </trkpt>
      <trkpt lat="42.43735" lon="0.05474">
        <ele>846.9</ele>
        <time>2016-07-31T09:25:01Z</time>
      </trkpt>
      <trkpt lat="42.43732" lon="0.05472">
        <ele>847.4</ele>
        <time>2016-07-31T09:25:03Z</time>
      </trkpt>
      <trkpt lat="42.43729" lon="0.05471">
        <ele>847.8</ele>
        <time>2016-07-31T09:25:05Z</time>
      </trkpt>
      <trkpt lat="42.43726" lon="0.05469">
        <ele>848.3</ele>
        <time>2016-07-31T09:25:07Z</time>
      </trkpt>
      <trkpt lat="42.43723" lon="0.05467">
        <ele>848.7</ele>
        <time>2016-07-31T09:25:09Z</time>
      </trkpt>
      <trkpt lat="42.4372" lon="0.05466">
        <ele>849</ele>
        <time>2016-07-31T09:25:11Z</time>
      </trkpt>
      <trkpt lat="42.43717" lon="0.05465">
        <ele>849.3</ele>
        <time>2016-07-31T09:25:13Z</time>
      </trkpt>
      <trkpt lat="42.43714" lon="0.05463">
        <ele>849.6</ele>
        <time>2016-07-31T09:25:15Z</time>
      </trkpt>
      <trkpt lat="42.4371" lon="0.05462">
        <ele>849.8</ele>
        <time>2016-07-31T09:25:17Z</time>
      </trkpt>
      <trkpt lat="42.43707" lon="0.05463">
        <ele>849.7</ele>
        <time>2016-07-31T09:25:19Z</time>
      </trkpt>
      <trkpt lat="42.43704" lon="0.05463">
        <ele>849.6</ele>
        <time>2016-07-31T09:25:21Z</time>
      </trkpt>
      <trkpt lat="42.43701" lon="0.05464">
        <ele>849.5</ele>
        <time>2016-07-31T09:25:23Z</time>
      </trkpt>
      <trkpt lat="42.43698" lon="0.05464">
        <ele>849.4</ele>
        <time>2016-07-31T09:25:25Z</time>
      </trkpt>
      <trkpt lat="42.43694" lon="0.05464">
        <ele>849.6</ele>
        <time>2016-07-31T09:25:27Z</time>
      </trkpt>
      <trkpt lat="42.43692" lon="0.05463">
        <ele>849.8</ele>
        <time>2016-07-31T09:25:29Z</time>
      </trkpt>
      <trkpt lat="42.43688" lon="0.05463">
        <ele>850</ele>
        <time>2016-07-31T09:25:31Z</time>
      </trkpt>
      <trkpt lat="42.43685" lon="0.05462">
        <ele>850.1</ele>
        <time>2016-07-31T09:25:33Z</time>
      </trkpt>
      <trkpt lat="42.43681" lon="0.05462">
        <ele>850.2</ele>
        <time>2016-07-31T09:25:35Z</time>
      </trkpt>
      <trkpt lat="42.43677" lon="0.05462">
        <ele>850.3</ele>
        <time>2016-07-31T09:25:37Z</time>
      </trkpt>
      <trkpt lat="42.43674" lon="0.05461">
        <ele>850.4</ele>
        <time>2016-07-31T09:25:39Z</time>
      </trkpt>
      <trkpt lat="42.4367" lon="0.05461">
        <ele>850.6</ele>
        <time>2016-07-31T09:25:41Z</time>
      </trkpt>
      <trkpt lat="42.43667" lon="0.0546">
        <ele>850.9</ele>
        <time>2016-07-31T09:25:43Z</time>
      </trkpt>
      <trkpt lat="42.43664" lon="0.05458">
        <ele>851.6</ele>
        <time>2016-07-31T09:25:45Z</time>
      </trkpt>
      <trkpt lat="42.43662" lon="0.05456">
        <ele>852.6</ele>
        <time>2016-07-31T09:25:47Z</time>
      </trkpt>
      <trkpt lat="42.43659" lon="0.05453">
        <ele>853.7</ele>
        <time>2016-07-31T09:25:49Z</time>
      </trkpt>
      <trkpt lat="42.43657" lon="0.0545">
        <ele>854.9</ele>
        <time>2016-07-31T09:25:51Z</time>
      </trkpt>
      <trkpt lat="42.43654" lon="0.05447">
        <ele>855.9</ele>
        <time>2016-07-31T09:25:53Z</time>
      </trkpt>
      <trkpt lat="42.43651" lon="0.05445">
        <ele>856.9</ele>
        <time>2016-07-31T09:25:55Z</time>
      </trkpt>
      <trkpt lat="42.43648" lon="0.05442">
        <ele>857.9</ele>
        <time>2016-07-31T09:25:57Z</time>
      </trkpt>
      <trkpt lat="42.43645" lon="0.0544">
        <ele>858.8</ele>
        <time>2016-07-31T09:25:59Z</time>
      </trkpt>
      <trkpt lat="42.43642" lon="0.05439">
        <ele>859.4</ele>
        <time>2016-07-31T09:26:01Z</time>
      </trkpt>
      <trkpt lat="42.43639" lon="0.05438">
        <ele>859.8</ele>
        <time>2016-07-31T09:26:03Z</time>
      </trkpt>
      <trkpt lat="42.43635" lon="0.05437">
        <ele>860.3</ele>
        <time>2016-07-31T09:26:05Z</time>
      </trkpt>
      <trkpt lat="42.43632" lon="0.05435">
        <ele>860.8</ele>
        <time>2016-07-31T09:26:07Z</time>
      </trkpt>
      <trkpt lat="42.43628" lon="0.05435">
        <ele>860.8</ele>
        <time>2016-07-31T09:26:09Z</time>
      </trkpt>
      <trkpt lat="42.43625" lon="0.05436">
        <ele>860.4</ele>
        <time>2016-07-31T09:26:11Z</time>
      </trkpt>
      <trkpt lat="42.43621" lon="0.05437">
        <ele>860</ele>
        <time>2016-07-31T09:26:13Z</time>
      </trkpt>
      <trkpt lat="42.43618" lon="0.05438">
        <ele>859.6</ele>
        <time>2016-07-31T09:26:15Z</time>
      </trkpt>
      <trkpt lat="42.43615" lon="0.05439">
        <ele>859.3</ele>
        <time>2016-07-31T09:26:17Z</time>
      </trkpt>
      <trkpt lat="42.43612" lon="0.05438">
        <ele>859.3</ele>
        <time>2016-07-31T09:26:19Z</time>
      </trkpt>
      <trkpt lat="42.43609" lon="0.05438">
        <ele>859.5</ele>
        <time>2016-07-31T09:26:21Z</time>
      </trkpt>
      <trkpt lat="42.43605" lon="0.05437">
        <ele>859.9</ele>
        <time>2016-07-31T09:26:23Z</time>
      </trkpt>
      <trkpt lat="42.43602" lon="0.05435">
        <ele>860.2</ele>
        <time>2016-07-31T09:26:25Z</time>
      </trkpt>
      <trkpt lat="42.43598" lon="0.05434">
        <ele>860.6</ele>
        <time>2016-07-31T09:26:27Z</time>
      </trkpt>
      <trkpt lat="42.43594" lon="0.05433">
        <ele>861</ele>
        <time>2016-07-31T09:26:29Z</time>
      </trkpt>
      <trkpt lat="42.43591" lon="0.05431">
        <ele>861.4</ele>
        <time>2016-07-31T09:26:31Z</time>
      </trkpt>
      <trkpt lat="42.43587" lon="0.0543">
        <ele>861.7</ele>
        <time>2016-07-31T09:26:33Z</time>
      </trkpt>
      <trkpt lat="42.43584" lon="0.0543">
        <ele>861.7</ele>
        <time>2016-07-31T09:26:35Z</time>
      </trkpt>
      <trkpt lat="42.4358" lon="0.05429">
        <ele>861.9</ele>
        <time>2016-07-31T09:26:37Z</time>
      </trkpt>
      <trkpt lat="42.43577" lon="0.05428">
        <ele>862.1</ele>
        <time>2016-07-31T09:26:39Z</time>
      </trkpt>
      <trkpt lat="42.43574" lon="0.05427">
        <ele>862.4</ele>
        <time>2016-07-31T09:26:41Z</time>
      </trkpt>
      <trkpt lat="42.4357" lon="0.05426">
        <ele>862.7</ele>
        <time>2016-07-31T09:26:43Z</time>
      </trkpt>
      <trkpt lat="42.43567" lon="0.05425">
        <ele>863.1</ele>
        <time>2016-07-31T09:26:45Z</time>
      </trkpt>
      <trkpt lat="42.43564" lon="0.05423">
        <ele>863.7</ele>
        <time>2016-07-31T09:26:47Z</time>
      </trkpt>
      <trkpt lat="42.43561" lon="0.05421">
        <ele>864.1</ele>
        <time>2016-07-31T09:26:49Z</time>
      </trkpt>
      <trkpt lat="42.43557" lon="0.0542">
        <ele>864.5</ele>
        <time>2016-07-31T09:26:51Z</time>
      </trkpt>
      <trkpt lat="42.43554" lon="0.05417">
        <ele>865.2</ele>
        <time>2016-07-31T09:26:53Z</time>
      </trkpt>
      <trkpt lat="42.43551" lon="0.05415">
        <ele>865.9</ele>
        <time>2016-07-31T09:26:55Z</time>
      </trkpt>
      <trkpt lat="42.43547" lon="0.05413">
        <ele>866.4</ele>
        <time>2016-07-31T09:26:57Z</time>
      </trkpt>
      <trkpt lat="42.43544" lon="0.05411">
        <ele>866.9</ele>
        <time>2016-07-31T09:26:59Z</time>
      </trkpt>
      <trkpt lat="42.43541" lon="0.0541">
        <ele>867</ele>
        <time>2016-07-31T09:27:01Z</time>
      </trkpt>
      <trkpt lat="42.43538" lon="0.0541">
        <ele>866.8</ele>
        <time>2016-07-31T09:27:03Z</time>
      </trkpt>
      <trkpt lat="42.43535" lon="0.0541">
        <ele>866.3</ele>
        <time>2016-07-31T09:27:05Z</time>
      </trkpt>
      <trkpt lat="42.43531" lon="0.0541">
        <ele>865.9</ele>
        <time>2016-07-31T09:27:07Z</time>
      </trkpt>
      <trkpt lat="42.43527" lon="0.05409">
        <ele>865.4</ele>
        <time>2016-07-31T09:27:09Z</time>
      </trkpt>
      <trkpt lat="42.43523" lon="0.05409">
        <ele>865</ele>
        <time>2016-07-31T09:27:11Z</time>
      </trkpt>
      <trkpt lat="42.4352" lon="0.05407">
        <ele>864.8</ele>
        <time>2016-07-31T09:27:13Z</time>
      </trkpt>
      <trkpt lat="42.43516" lon="0.05407">
        <ele>864.4</ele>
        <time>2016-07-31T09:27:15Z</time>
      </trkpt>
      <trkpt lat="42.43513" lon="0.05407">
        <ele>863.9</ele>
        <time>2016-07-31T09:27:17Z</time>
      </trkpt>
      <trkpt lat="42.43509" lon="0.05406">
        <ele>863.6</ele>
        <time>2016-07-31T09:27:19Z</time>
      </trkpt>
      <trkpt lat="42.43505" lon="0.05406">
        <ele>863.3</ele>
        <time>2016-07-31T09:27:21Z</time>
      </trkpt>
      <trkpt lat="42.43501" lon="0.05405">
        <ele>862.7</ele>
        <time>2016-07-31T09:27:23Z</time>
      </trkpt>
      <trkpt lat="42.43498" lon="0.05405">
        <ele>862.2</ele>
        <time>2016-07-31T09:27:25Z</time>
      </trkpt>
      <trkpt lat="42.43494" lon="0.05405">
        <ele>861.8</ele>
        <time>2016-07-31T09:27:27Z</time>
      </trkpt>
      <trkpt lat="42.43491" lon="0.05405">
        <ele>861.3</ele>
        <time>2016-07-31T09:27:29Z</time>
      </trkpt>
      <trkpt lat="42.43488" lon="0.05406">
        <ele>860.7</ele>
        <time>2016-07-31T09:27:31Z</time>
      </trkpt>
      <trkpt lat="42.43485" lon="0.05406">
        <ele>860.1</ele>
        <time>2016-07-31T09:27:33Z</time>
      </trkpt>
      <trkpt lat="42.43482" lon="0.05405">
        <ele>859.9</ele>
        <time>2016-07-31T09:27:35Z</time>
      </trkpt>
      <trkpt lat="42.43479" lon="0.05404">
        <ele>859.8</ele>
        <time>2016-07-31T09:27:37Z</time>
      </trkpt>
      <trkpt lat="42.43476" lon="0.05403">
        <ele>859.7</ele>
        <time>2016-07-31T09:27:39Z</time>
      </trkpt>
      <trkpt lat="42.43473" lon="0.05402">
        <ele>859.5</ele>
        <time>2016-07-31T09:27:41Z</time>
      </trkpt>
      <trkpt lat="42.4347" lon="0.054">
        <ele>859.6</ele>
        <time>2016-07-31T09:27:43Z</time>
      </trkpt>
      <trkpt lat="42.43467" lon="0.05398">
        <ele>859.7</ele>
        <time>2016-07-31T09:27:45Z</time>
      </trkpt>
      <trkpt lat="42.43464" lon="0.05396">
        <ele>859.9</ele>
        <time>2016-07-31T09:27:47Z</time>
      </trkpt>
      <trkpt lat="42.43462" lon="0.05394">
        <ele>860.1</ele>
        <time>2016-07-31T09:27:49Z</time>
      </trkpt>
      <trkpt lat="42.43459" lon="0.05391">
        <ele>860.6</ele>
        <time>2016-07-31T09:27:51Z</time>
      </trkpt>
      <trkpt lat="42.43457" lon="0.05388">
        <ele>861.2</ele>
        <time>2016-07-31T09:27:53Z</time>
      </trkpt>
      <trkpt lat="42.43454" lon="0.05384">
        <ele>862</ele>
        <time>2016-07-31T09:27:55Z</time>
      </trkpt>
      <trkpt lat="42.43451" lon="0.05381">
        <ele>862.7</ele>
        <time>2016-07-31T09:27:57Z</time>
      </trkpt>
      <trkpt lat="42.43449" lon="0.05377">
        <ele>863.4</ele>
        <time>2016-07-31T09:27:59Z</time>
      </trkpt>
      <trkpt lat="42.43447" lon="0.05374">
        <ele>864.1</ele>
        <time>2016-07-31T09:28:01Z</time>
      </trkpt>
      <trkpt lat="42.43444" lon="0.05371">
        <ele>864.5</ele>
        <time>2016-07-31T09:28:03Z</time>
      </trkpt>
      <trkpt lat="42.43442" lon="0.05368">
        <ele>864.8</ele>
        <time>2016-07-31T09:28:05Z</time>
      </trkpt>
      <trkpt lat="42.4344" lon="0.05365">
        <ele>865.2</ele>
        <time>2016-07-31T09:28:07Z</time>
      </trkpt>
      <trkpt lat="42.43438" lon="0.05362">
        <ele>865.6</ele>
        <time>2016-07-31T09:28:09Z</time>
      </trkpt>
      <trkpt lat="42.43436" lon="0.0536">
        <ele>866</ele>
        <time>2016-07-31T09:28:11Z</time>
      </trkpt>
      <trkpt lat="42.43434" lon="0.05357">
        <ele>866.4</ele>
        <time>2016-07-31T09:28:13Z</time>
      </trkpt>
      <trkpt lat="42.43432" lon="0.05354">
        <ele>866.9</ele>
        <time>2016-07-31T09:28:15Z</time>
      </trkpt>
      <trkpt lat="42.43431" lon="0.0535">
        <ele>867.5</ele>
        <time>2016-07-31T09:28:17Z</time>
      </trkpt>
      <trkpt lat="42.4343" lon="0.05347">
        <ele>868.2</ele>
        <time>2016-07-31T09:28:19Z</time>
      </trkpt>
      <trkpt lat="42.43428" lon="0.05343">
        <ele>868.8</ele>
        <time>2016-07-31T09:28:21Z</time>
      </trkpt>
      <trkpt lat="42.43428" lon="0.0534">
        <ele>869.5</ele>
        <time>2016-07-31T09:28:23Z</time>
      </trkpt>
      <trkpt lat="42.43427" lon="0.05335">
        <ele>870.3</ele>
        <time>2016-07-31T09:28:25Z</time>
      </trkpt>
      <trkpt lat="42.43427" lon="0.05331">
        <ele>871.2</ele>
        <time>2016-07-31T09:28:27Z</time>
      </trkpt>
      <trkpt lat="42.43427" lon="0.05327">
        <ele>872.2</ele>
        <time>2016-07-31T09:28:29Z</time>
      </trkpt>
      <trkpt lat="42.43427" lon="0.05323">
        <ele>872.9</ele>
        <time>2016-07-31T09:28:31Z</time>
      </trkpt>
      <trkpt lat="42.43426" lon="0.05319">
        <ele>873.7</ele>
        <time>2016-07-31T09:28:33Z</time>
      </trkpt>
      <trkpt lat="42.43426" lon="0.05315">
        <ele>874.6</ele>
        <time>2016-07-31T09:28:35Z</time>
      </trkpt>
      <trkpt lat="42.43426" lon="0.0531">
        <ele>875.5</ele>
        <time>2016-07-31T09:28:37Z</time>
      </trkpt>
      <trkpt lat="42.43425" lon="0.05306">
        <ele>876.3</ele>
        <time>2016-07-31T09:28:39Z</time>
      </trkpt>
      <trkpt lat="42.43425" lon="0.05303">
        <ele>877.1</ele>
        <time>2016-07-31T09:28:41Z</time>
      </trkpt>
      <trkpt lat="42.43425" lon="0.05299">
        <ele>877.9</ele>
        <time>2016-07-31T09:28:43Z</time>
      </trkpt>
      <trkpt lat="42.43424" lon="0.05295">
        <ele>878.7</ele>
        <time>2016-07-31T09:28:45Z</time>
      </trkpt>
      <trkpt lat="42.43423" lon="0.05291">
        <ele>879.4</ele>
        <time>2016-07-31T09:28:47Z</time>
      </trkpt>
      <trkpt lat="42.43421" lon="0.05287">
        <ele>880.5</ele>
        <time>2016-07-31T09:28:50Z</time>
      </trkpt>
      <trkpt lat="42.43419" lon="0.05283">
        <ele>881.2</ele>
        <time>2016-07-31T09:28:52Z</time>
      </trkpt>
      <trkpt lat="42.43416" lon="0.05281">
        <ele>881.8</ele>
        <time>2016-07-31T09:28:54Z</time>
      </trkpt>
      <trkpt lat="42.43413" lon="0.05278">
        <ele>882.4</ele>
        <time>2016-07-31T09:28:56Z</time>
      </trkpt>
      <trkpt lat="42.43411" lon="0.05275">
        <ele>883</ele>
        <time>2016-07-31T09:28:58Z</time>
      </trkpt>
      <trkpt lat="42.43408" lon="0.05272">
        <ele>883.6</ele>
        <time>2016-07-31T09:29:00Z</time>
      </trkpt>
      <trkpt lat="42.43405" lon="0.0527">
        <ele>883.9</ele>
        <time>2016-07-31T09:29:02Z</time>
      </trkpt>
      <trkpt lat="42.43402" lon="0.05269">
        <ele>884.1</ele>
        <time>2016-07-31T09:29:04Z</time>
      </trkpt>
      <trkpt lat="42.43399" lon="0.05267">
        <ele>884.3</ele>
        <time>2016-07-31T09:29:06Z</time>
      </trkpt>
      <trkpt lat="42.43396" lon="0.05266">
        <ele>884.4</ele>
        <time>2016-07-31T09:29:08Z</time>
      </trkpt>
      <trkpt lat="42.43392" lon="0.05266">
        <ele>884.4</ele>
        <time>2016-07-31T09:29:10Z</time>
      </trkpt>
      <trkpt lat="42.43389" lon="0.05266">
        <ele>884.2</ele>
        <time>2016-07-31T09:29:12Z</time>
      </trkpt>
      <trkpt lat="42.43385" lon="0.05266">
        <ele>883.9</ele>
        <time>2016-07-31T09:29:14Z</time>
      </trkpt>
      <trkpt lat="42.43382" lon="0.05267">
        <ele>883.6</ele>
        <time>2016-07-31T09:29:16Z</time>
      </trkpt>
      <trkpt lat="42.43379" lon="0.05267">
        <ele>883.3</ele>
        <time>2016-07-31T09:29:18Z</time>
      </trkpt>
      <trkpt lat="42.43375" lon="0.05268">
        <ele>883.1</ele>
        <time>2016-07-31T09:29:20Z</time>
      </trkpt>
      <trkpt lat="42.43372" lon="0.05267">
        <ele>883</ele>
        <time>2016-07-31T09:29:22Z</time>
      </trkpt>
      <trkpt lat="42.43369" lon="0.05266">
        <ele>883.2</ele>
        <time>2016-07-31T09:29:24Z</time>
      </trkpt>
      <trkpt lat="42.43365" lon="0.05264">
        <ele>883.4</ele>
        <time>2016-07-31T09:29:26Z</time>
      </trkpt>
      <trkpt lat="42.43362" lon="0.05262">
        <ele>883.7</ele>
        <time>2016-07-31T09:29:28Z</time>
      </trkpt>
      <trkpt lat="42.43359" lon="0.05259">
        <ele>884.3</ele>
        <time>2016-07-31T09:29:30Z</time>
      </trkpt>
      <trkpt lat="42.43356" lon="0.05256">
        <ele>884.9</ele>
        <time>2016-07-31T09:29:32Z</time>
      </trkpt>
      <trkpt lat="42.43353" lon="0.05253">
        <ele>885.5</ele>
        <time>2016-07-31T09:29:34Z</time>
      </trkpt>
      <trkpt lat="42.43351" lon="0.0525">
        <ele>886</ele>
        <time>2016-07-31T09:29:36Z</time>
      </trkpt>
      <trkpt lat="42.43348" lon="0.05247">
        <ele>886.5</ele>
        <time>2016-07-31T09:29:38Z</time>
      </trkpt>
      <trkpt lat="42.43345" lon="0.05245">
        <ele>887</ele>
        <time>2016-07-31T09:29:40Z</time>
      </trkpt>
      <trkpt lat="42.43342" lon="0.05242">
        <ele>887.4</ele>
        <time>2016-07-31T09:29:42Z</time>
      </trkpt>
      <trkpt lat="42.43339" lon="0.0524">
        <ele>887.8</ele>
        <time>2016-07-31T09:29:44Z</time>
      </trkpt>
      <trkpt lat="42.43336" lon="0.05238">
        <ele>888</ele>
        <time>2016-07-31T09:29:46Z</time>
      </trkpt>
      <trkpt lat="42.43333" lon="0.05236">
        <ele>888.3</ele>
        <time>2016-07-31T09:29:48Z</time>
      </trkpt>
      <trkpt lat="42.43331" lon="0.05234">
        <ele>888.6</ele>
        <time>2016-07-31T09:29:50Z</time>
      </trkpt>
      <trkpt lat="42.43328" lon="0.05232">
        <ele>889.1</ele>
        <time>2016-07-31T09:29:52Z</time>
      </trkpt>
      <trkpt lat="42.43326" lon="0.05229">
        <ele>889.6</ele>
        <time>2016-07-31T09:29:54Z</time>
      </trkpt>
      <trkpt lat="42.43323" lon="0.05225">
        <ele>890.2</ele>
        <time>2016-07-31T09:29:56Z</time>
      </trkpt>
      <trkpt lat="42.4332" lon="0.05222">
        <ele>890.8</ele>
        <time>2016-07-31T09:29:58Z</time>
      </trkpt>
      <trkpt lat="42.43317" lon="0.05219">
        <ele>891.4</ele>
        <time>2016-07-31T09:30:00Z</time>
      </trkpt>
      <trkpt lat="42.43314" lon="0.05216">
        <ele>891.9</ele>
        <time>2016-07-31T09:30:02Z</time>
      </trkpt>
      <trkpt lat="42.43311" lon="0.05212">
        <ele>892.5</ele>
        <time>2016-07-31T09:30:04Z</time>
      </trkpt>
      <trkpt lat="42.43308" lon="0.0521">
        <ele>892.7</ele>
        <time>2016-07-31T09:30:06Z</time>
      </trkpt>
      <trkpt lat="42.43304" lon="0.0521">
        <ele>892.5</ele>
        <time>2016-07-31T09:30:08Z</time>
      </trkpt>
      <trkpt lat="42.43301" lon="0.05209">
        <ele>892.4</ele>
        <time>2016-07-31T09:30:10Z</time>
      </trkpt>
      <trkpt lat="42.43298" lon="0.05209">
        <ele>892.2</ele>
        <time>2016-07-31T09:30:12Z</time>
      </trkpt>
      <trkpt lat="42.43294" lon="0.0521">
        <ele>891.8</ele>
        <time>2016-07-31T09:30:14Z</time>
      </trkpt>
      <trkpt lat="42.43291" lon="0.05211">
        <ele>891.1</ele>
        <time>2016-07-31T09:30:16Z</time>
      </trkpt>
      <trkpt lat="42.43287" lon="0.05211">
        <ele>889.8</ele>
        <time>2016-07-31T09:30:18Z</time>
      </trkpt>
      <trkpt lat="42.43284" lon="0.05211">
        <ele>888.8</ele>
        <time>2016-07-31T09:30:20Z</time>
      </trkpt>
      <trkpt lat="42.43281" lon="0.05211">
        <ele>887.7</ele>
        <time>2016-07-31T09:30:22Z</time>
      </trkpt>
      <trkpt lat="42.43277" lon="0.05211">
        <ele>886.5</ele>
        <time>2016-07-31T09:30:24Z</time>
      </trkpt>
      <trkpt lat="42.43274" lon="0.05211">
        <ele>885.6</ele>
        <time>2016-07-31T09:30:26Z</time>
      </trkpt>
      <trkpt lat="42.43271" lon="0.05211">
        <ele>884.5</ele>
        <time>2016-07-31T09:30:28Z</time>
      </trkpt>
      <trkpt lat="42.43267" lon="0.0521">
        <ele>883.4</ele>
        <time>2016-07-31T09:30:30Z</time>
      </trkpt>
      <trkpt lat="42.43264" lon="0.05209">
        <ele>882.4</ele>
        <time>2016-07-31T09:30:32Z</time>
      </trkpt>
      <trkpt lat="42.4326" lon="0.05209">
        <ele>881.3</ele>
        <time>2016-07-31T09:30:34Z</time>
      </trkpt>
      <trkpt lat="42.43257" lon="0.05209">
        <ele>880.2</ele>
        <time>2016-07-31T09:30:36Z</time>
      </trkpt>
      <trkpt lat="42.43253" lon="0.05208">
        <ele>879.4</ele>
        <time>2016-07-31T09:30:38Z</time>
      </trkpt>
      <trkpt lat="42.4325" lon="0.05206">
        <ele>878.5</ele>
        <time>2016-07-31T09:30:40Z</time>
      </trkpt>
      <trkpt lat="42.43247" lon="0.05206">
        <ele>877.6</ele>
        <time>2016-07-31T09:30:42Z</time>
      </trkpt>
      <trkpt lat="42.43243" lon="0.05205">
        <ele>876.6</ele>
        <time>2016-07-31T09:30:44Z</time>
      </trkpt>
      <trkpt lat="42.4324" lon="0.05204">
        <ele>875.8</ele>
        <time>2016-07-31T09:30:46Z</time>
      </trkpt>
      <trkpt lat="42.43237" lon="0.05203">
        <ele>875.1</ele>
        <time>2016-07-31T09:30:48Z</time>
      </trkpt>
      <trkpt lat="42.43234" lon="0.05201">
        <ele>875.1</ele>
        <time>2016-07-31T09:30:50Z</time>
      </trkpt>
      <trkpt lat="42.43233" lon="0.05197">
        <ele>875.9</ele>
        <time>2016-07-31T09:30:52Z</time>
      </trkpt>
      <trkpt lat="42.43235" lon="0.05192">
        <ele>877.6</ele>
        <time>2016-07-31T09:30:54Z</time>
      </trkpt>
      <trkpt lat="42.43238" lon="0.05189">
        <ele>879.4</ele>
        <time>2016-07-31T09:30:56Z</time>
      </trkpt>
      <trkpt lat="42.43241" lon="0.05188">
        <ele>880.8</ele>
        <time>2016-07-31T09:30:58Z</time>
      </trkpt>
      <trkpt lat="42.43245" lon="0.05188">
        <ele>881.7</ele>
        <time>2016-07-31T09:31:00Z</time>
      </trkpt>
      <trkpt lat="42.43248" lon="0.0519">
        <ele>882.4</ele>
        <time>2016-07-31T09:31:02Z</time>
      </trkpt>
      <trkpt lat="42.43252" lon="0.05191">
        <ele>883.2</ele>
        <time>2016-07-31T09:31:04Z</time>
      </trkpt>
      <trkpt lat="42.43256" lon="0.05192">
        <ele>884.1</ele>
        <time>2016-07-31T09:31:06Z</time>
      </trkpt>
      <trkpt lat="42.4326" lon="0.05193">
        <ele>885.1</ele>
        <time>2016-07-31T09:31:08Z</time>
      </trkpt>
      <trkpt lat="42.43263" lon="0.05192">
        <ele>886.2</ele>
        <time>2016-07-31T09:31:10Z</time>
      </trkpt>
      <trkpt lat="42.43266" lon="0.05191">
        <ele>887.3</ele>
        <time>2016-07-31T09:31:12Z</time>
      </trkpt>
      <trkpt lat="42.43269" lon="0.0519">
        <ele>888.5</ele>
        <time>2016-07-31T09:31:14Z</time>
      </trkpt>
      <trkpt lat="42.43272" lon="0.05188">
        <ele>889.8</ele>
        <time>2016-07-31T09:31:16Z</time>
      </trkpt>
      <trkpt lat="42.43275" lon="0.05186">
        <ele>891.1</ele>
        <time>2016-07-31T09:31:18Z</time>
      </trkpt>
      <trkpt lat="42.43278" lon="0.05183">
        <ele>892.5</ele>
        <time>2016-07-31T09:31:20Z</time>
      </trkpt>
      <trkpt lat="42.43281" lon="0.0518">
        <ele>893.9</ele>
        <time>2016-07-31T09:31:22Z</time>
      </trkpt>
      <trkpt lat="42.43283" lon="0.05178">
        <ele>895.3</ele>
        <time>2016-07-31T09:31:24Z</time>
      </trkpt>
      <trkpt lat="42.43286" lon="0.05175">
        <ele>896.6</ele>
        <time>2016-07-31T09:31:26Z</time>
      </trkpt>
      <trkpt lat="42.4329" lon="0.05173">
        <ele>897.8</ele>
        <time>2016-07-31T09:31:28Z</time>
      </trkpt>
      <trkpt lat="42.43293" lon="0.05171">
        <ele>898.8</ele>
        <time>2016-07-31T09:31:30Z</time>
      </trkpt>
      <trkpt lat="42.43295" lon="0.05167">
        <ele>899.7</ele>
        <time>2016-07-31T09:31:32Z</time>
      </trkpt>
      <trkpt lat="42.43296" lon="0.05163">
        <ele>900.6</ele>
        <time>2016-07-31T09:31:34Z</time>
      </trkpt>
      <trkpt lat="42.43298" lon="0.05159">
        <ele>901.5</ele>
        <time>2016-07-31T09:31:36Z</time>
      </trkpt>
      <trkpt lat="42.43299" lon="0.05154">
        <ele>902.3</ele>
        <time>2016-07-31T09:31:38Z</time>
      </trkpt>
      <trkpt lat="42.43301" lon="0.0515">
        <ele>903.2</ele>
        <time>2016-07-31T09:31:40Z</time>
      </trkpt>
      <trkpt lat="42.43303" lon="0.05147">
        <ele>904</ele>
        <time>2016-07-31T09:31:42Z</time>
      </trkpt>
      <trkpt lat="42.43306" lon="0.05144">
        <ele>904.7</ele>
        <time>2016-07-31T09:31:44Z</time>
      </trkpt>
      <trkpt lat="42.43309" lon="0.05142">
        <ele>905.4</ele>
        <time>2016-07-31T09:31:46Z</time>
      </trkpt>
      <trkpt lat="42.43312" lon="0.05139">
        <ele>906.1</ele>
        <time>2016-07-31T09:31:48Z</time>
      </trkpt>
      <trkpt lat="42.43315" lon="0.05137">
        <ele>906.8</ele>
        <time>2016-07-31T09:31:50Z</time>
      </trkpt>
      <trkpt lat="42.43319" lon="0.05136">
        <ele>907.3</ele>
        <time>2016-07-31T09:31:52Z</time>
      </trkpt>
      <trkpt lat="42.43323" lon="0.05136">
        <ele>907.6</ele>
        <time>2016-07-31T09:31:54Z</time>
      </trkpt>
      <trkpt lat="42.43328" lon="0.05137">
        <ele>907.8</ele>
        <time>2016-07-31T09:31:56Z</time>
      </trkpt>
      <trkpt lat="42.43332" lon="0.05139">
        <ele>907.8</ele>
        <time>2016-07-31T09:31:58Z</time>
      </trkpt>
      <trkpt lat="42.43335" lon="0.05143">
        <ele>907.4</ele>
        <time>2016-07-31T09:32:00Z</time>
      </trkpt>
      <trkpt lat="42.43339" lon="0.05146">
        <ele>907</ele>
        <time>2016-07-31T09:32:02Z</time>
      </trkpt>
      <trkpt lat="42.43342" lon="0.05148">
        <ele>906.9</ele>
        <time>2016-07-31T09:32:03Z</time>
      </trkpt>
      <trkpt lat="42.43345" lon="0.0515">
        <ele>906.9</ele>
        <time>2016-07-31T09:32:04Z</time>
      </trkpt>
      <trkpt lat="42.43348" lon="0.0515">
        <ele>907</ele>
        <time>2016-07-31T09:32:05Z</time>
      </trkpt>
      <trkpt lat="42.43351" lon="0.05151">
        <ele>907.1</ele>
        <time>2016-07-31T09:32:06Z</time>
      </trkpt>
      <trkpt lat="42.43354" lon="0.05151">
        <ele>907.3</ele>
        <time>2016-07-31T09:32:07Z</time>
      </trkpt>
      <trkpt lat="42.43357" lon="0.05151">
        <ele>907.6</ele>
        <time>2016-07-31T09:32:08Z</time>
      </trkpt>
      <trkpt lat="42.4336" lon="0.0515">
        <ele>907.9</ele>
        <time>2016-07-31T09:32:09Z</time>
      </trkpt>
      <trkpt lat="42.43362" lon="0.05149">
        <ele>908.4</ele>
        <time>2016-07-31T09:32:10Z</time>
      </trkpt>
      <trkpt lat="42.43365" lon="0.05148">
        <ele>908.9</ele>
        <time>2016-07-31T09:32:11Z</time>
      </trkpt>
      <trkpt lat="42.43367" lon="0.05146">
        <ele>909.4</ele>
        <time>2016-07-31T09:32:12Z</time>
      </trkpt>
      <trkpt lat="42.4337" lon="0.05144">
        <ele>910</ele>
        <time>2016-07-31T09:32:13Z</time>
      </trkpt>
      <trkpt lat="42.43374" lon="0.0514">
        <ele>911</ele>
        <time>2016-07-31T09:32:15Z</time>
      </trkpt>
      <trkpt lat="42.43378" lon="0.05137">
        <ele>911.9</ele>
        <time>2016-07-31T09:32:17Z</time>
      </trkpt>
      <trkpt lat="42.43382" lon="0.05136">
        <ele>912.7</ele>
        <time>2016-07-31T09:32:19Z</time>
      </trkpt>
      <trkpt lat="42.43387" lon="0.05136">
        <ele>913.2</ele>
        <time>2016-07-31T09:32:21Z</time>
      </trkpt>
      <trkpt lat="42.43393" lon="0.05137">
        <ele>913.6</ele>
        <time>2016-07-31T09:32:23Z</time>
      </trkpt>
      <trkpt lat="42.43398" lon="0.05139">
        <ele>913.8</ele>
        <time>2016-07-31T09:32:25Z</time>
      </trkpt>
      <trkpt lat="42.43403" lon="0.05141">
        <ele>913.9</ele>
        <time>2016-07-31T09:32:27Z</time>
      </trkpt>
      <trkpt lat="42.43408" lon="0.05143">
        <ele>914</ele>
        <time>2016-07-31T09:32:29Z</time>
      </trkpt>
      <trkpt lat="42.4341" lon="0.05143">
        <ele>914.2</ele>
        <time>2016-07-31T09:32:30Z</time>
      </trkpt>
      <trkpt lat="42.43416" lon="0.05145">
        <ele>914.4</ele>
        <time>2016-07-31T09:32:32Z</time>
      </trkpt>
      <trkpt lat="42.43421" lon="0.05146">
        <ele>914.6</ele>
        <time>2016-07-31T09:32:34Z</time>
      </trkpt>
      <trkpt lat="42.43426" lon="0.05148">
        <ele>914.7</ele>
        <time>2016-07-31T09:32:36Z</time>
      </trkpt>
      <trkpt lat="42.43431" lon="0.0515">
        <ele>914.7</ele>
        <time>2016-07-31T09:32:38Z</time>
      </trkpt>
      <trkpt lat="42.43435" lon="0.05153">
        <ele>914.4</ele>
        <time>2016-07-31T09:32:40Z</time>
      </trkpt>
      <trkpt lat="42.43439" lon="0.05156">
        <ele>914.1</ele>
        <time>2016-07-31T09:32:42Z</time>
      </trkpt>
      <trkpt lat="42.43443" lon="0.05159">
        <ele>913.6</ele>
        <time>2016-07-31T09:32:44Z</time>
      </trkpt>
      <trkpt lat="42.43448" lon="0.05162">
        <ele>913.2</ele>
        <time>2016-07-31T09:32:46Z</time>
      </trkpt>
      <trkpt lat="42.43452" lon="0.05165">
        <ele>912.8</ele>
        <time>2016-07-31T09:32:48Z</time>
      </trkpt>
      <trkpt lat="42.43456" lon="0.05168">
        <ele>912.4</ele>
        <time>2016-07-31T09:32:50Z</time>
      </trkpt>
      <trkpt lat="42.4346" lon="0.05171">
        <ele>912.2</ele>
        <time>2016-07-31T09:32:52Z</time>
      </trkpt>
      <trkpt lat="42.43465" lon="0.05174">
        <ele>912</ele>
        <time>2016-07-31T09:32:54Z</time>
      </trkpt>
      <trkpt lat="42.43469" lon="0.05177">
        <ele>911.9</ele>
        <time>2016-07-31T09:32:56Z</time>
      </trkpt>
      <trkpt lat="42.43473" lon="0.05179">
        <ele>912</ele>
        <time>2016-07-31T09:32:58Z</time>
      </trkpt>
      <trkpt lat="42.43478" lon="0.0518">
        <ele>912.2</ele>
        <time>2016-07-31T09:33:00Z</time>
      </trkpt>
      <trkpt lat="42.43482" lon="0.05181">
        <ele>912.5</ele>
        <time>2016-07-31T09:33:02Z</time>
      </trkpt>
      <trkpt lat="42.43486" lon="0.05182">
        <ele>912.9</ele>
        <time>2016-07-31T09:33:04Z</time>
      </trkpt>
      <trkpt lat="42.43491" lon="0.05184">
        <ele>913.2</ele>
        <time>2016-07-31T09:33:06Z</time>
      </trkpt>
      <trkpt lat="42.43495" lon="0.05186">
        <ele>913.3</ele>
        <time>2016-07-31T09:33:08Z</time>
      </trkpt>
      <trkpt lat="42.43499" lon="0.05189">
        <ele>913</ele>
        <time>2016-07-31T09:33:10Z</time>
      </trkpt>
      <trkpt lat="42.43503" lon="0.05192">
        <ele>912.7</ele>
        <time>2016-07-31T09:33:12Z</time>
      </trkpt>
      <trkpt lat="42.43507" lon="0.05196">
        <ele>912.3</ele>
        <time>2016-07-31T09:33:14Z</time>
      </trkpt>
      <trkpt lat="42.43511" lon="0.05201">
        <ele>911.5</ele>
        <time>2016-07-31T09:33:16Z</time>
      </trkpt>
      <trkpt lat="42.43514" lon="0.05206">
        <ele>910.8</ele>
        <time>2016-07-31T09:33:18Z</time>
      </trkpt>
      <trkpt lat="42.43518" lon="0.05211">
        <ele>910.1</ele>
        <time>2016-07-31T09:33:20Z</time>
      </trkpt>
      <trkpt lat="42.43521" lon="0.05215">
        <ele>909.7</ele>
        <time>2016-07-31T09:33:22Z</time>
      </trkpt>
      <trkpt lat="42.43524" lon="0.0522">
        <ele>909.3</ele>
        <time>2016-07-31T09:33:24Z</time>
      </trkpt>
      <trkpt lat="42.43527" lon="0.05225">
        <ele>908.7</ele>
        <time>2016-07-31T09:33:26Z</time>
      </trkpt>
      <trkpt lat="42.43529" lon="0.05231">
        <ele>908</ele>
        <time>2016-07-31T09:33:28Z</time>
      </trkpt>
      <trkpt lat="42.43532" lon="0.05236">
        <ele>907.6</ele>
        <time>2016-07-31T09:33:30Z</time>
      </trkpt>
      <trkpt lat="42.43535" lon="0.0524">
        <ele>907.4</ele>
        <time>2016-07-31T09:33:32Z</time>
      </trkpt>
      <trkpt lat="42.43538" lon="0.05242">
        <ele>907.7</ele>
        <time>2016-07-31T09:33:34Z</time>
      </trkpt>
      <trkpt lat="42.43542" lon="0.05243">
        <ele>908.3</ele>
        <time>2016-07-31T09:33:36Z</time>
      </trkpt>
      <trkpt lat="42.43545" lon="0.0524">
        <ele>909.2</ele>
        <time>2016-07-31T09:33:38Z</time>
      </trkpt>
      <trkpt lat="42.43546" lon="0.05236">
        <ele>910.2</ele>
        <time>2016-07-31T09:33:40Z</time>
      </trkpt>
      <trkpt lat="42.43544" lon="0.05231">
        <ele>910.8</ele>
        <time>2016-07-31T09:33:42Z</time>
      </trkpt>
      <trkpt lat="42.43542" lon="0.05227">
        <ele>911</ele>
        <time>2016-07-31T09:33:44Z</time>
      </trkpt>
      <trkpt lat="42.4354" lon="0.05222">
        <ele>911.4</ele>
        <time>2016-07-31T09:33:46Z</time>
      </trkpt>
      <trkpt lat="42.43538" lon="0.05217">
        <ele>912</ele>
        <time>2016-07-31T09:33:48Z</time>
      </trkpt>
      <trkpt lat="42.43537" lon="0.05213">
        <ele>912.5</ele>
        <time>2016-07-31T09:33:50Z</time>
      </trkpt>
      <trkpt lat="42.43535" lon="0.05208">
        <ele>913.1</ele>
        <time>2016-07-31T09:33:52Z</time>
      </trkpt>
      <trkpt lat="42.43533" lon="0.05204">
        <ele>913.9</ele>
        <time>2016-07-31T09:33:54Z</time>
      </trkpt>
      <trkpt lat="42.43531" lon="0.052">
        <ele>914.6</ele>
        <time>2016-07-31T09:33:56Z</time>
      </trkpt>
      <trkpt lat="42.43529" lon="0.05195">
        <ele>915.5</ele>
        <time>2016-07-31T09:33:58Z</time>
      </trkpt>
      <trkpt lat="42.43527" lon="0.05191">
        <ele>916.4</ele>
        <time>2016-07-31T09:34:00Z</time>
      </trkpt>
      <trkpt lat="42.43525" lon="0.05187">
        <ele>917.4</ele>
        <time>2016-07-31T09:34:02Z</time>
      </trkpt>
      <trkpt lat="42.43524" lon="0.05182">
        <ele>918.4</ele>
        <time>2016-07-31T09:34:04Z</time>
      </trkpt>
      <trkpt lat="42.43522" lon="0.05177">
        <ele>919.5</ele>
        <time>2016-07-31T09:34:06Z</time>
      </trkpt>
      <trkpt lat="42.43521" lon="0.05172">
        <ele>920.5</ele>
        <time>2016-07-31T09:34:08Z</time>
      </trkpt>
      <trkpt lat="42.4352" lon="0.05167">
        <ele>921.7</ele>
        <time>2016-07-31T09:34:10Z</time>
      </trkpt>
      <trkpt lat="42.43519" lon="0.05162">
        <ele>922.8</ele>
        <time>2016-07-31T09:34:12Z</time>
      </trkpt>
      <trkpt lat="42.43517" lon="0.05158">
        <ele>923.6</ele>
        <time>2016-07-31T09:34:14Z</time>
      </trkpt>
      <trkpt lat="42.43514" lon="0.05154">
        <ele>924.3</ele>
        <time>2016-07-31T09:34:16Z</time>
      </trkpt>
      <trkpt lat="42.43511" lon="0.0515">
        <ele>925</ele>
        <time>2016-07-31T09:34:18Z</time>
      </trkpt>
      <trkpt lat="42.43508" lon="0.05148">
        <ele>925.1</ele>
        <time>2016-07-31T09:34:20Z</time>
      </trkpt>
      <trkpt lat="42.43504" lon="0.05147">
        <ele>924.8</ele>
        <time>2016-07-31T09:34:22Z</time>
      </trkpt>
      <trkpt lat="42.43501" lon="0.05145">
        <ele>924.8</ele>
        <time>2016-07-31T09:34:24Z</time>
      </trkpt>
      <trkpt lat="42.43499" lon="0.05142">
        <ele>925.4</ele>
        <time>2016-07-31T09:34:26Z</time>
      </trkpt>
      <trkpt lat="42.43499" lon="0.05138">
        <ele>926.4</ele>
        <time>2016-07-31T09:34:28Z</time>
      </trkpt>
      <trkpt lat="42.435" lon="0.05134">
        <ele>927.6</ele>
        <time>2016-07-31T09:34:30Z</time>
      </trkpt>
      <trkpt lat="42.43503" lon="0.05133">
        <ele>928.3</ele>
        <time>2016-07-31T09:34:32Z</time>
      </trkpt>
      <trkpt lat="42.43507" lon="0.05134">
        <ele>928.7</ele>
        <time>2016-07-31T09:34:35Z</time>
      </trkpt>
      <trkpt lat="42.43511" lon="0.05137">
        <ele>928.4</ele>
        <time>2016-07-31T09:34:37Z</time>
      </trkpt>
      <trkpt lat="42.43515" lon="0.05141">
        <ele>928.1</ele>
        <time>2016-07-31T09:34:39Z</time>
      </trkpt>
      <trkpt lat="42.43519" lon="0.05144">
        <ele>927.8</ele>
        <time>2016-07-31T09:34:41Z</time>
      </trkpt>
      <trkpt lat="42.43523" lon="0.05148">
        <ele>927.4</ele>
        <time>2016-07-31T09:34:43Z</time>
      </trkpt>
      <trkpt lat="42.43527" lon="0.05152">
        <ele>926.9</ele>
        <time>2016-07-31T09:34:45Z</time>
      </trkpt>
      <trkpt lat="42.4353" lon="0.05156">
        <ele>926.2</ele>
        <time>2016-07-31T09:34:47Z</time>
      </trkpt>
      <trkpt lat="42.43533" lon="0.0516">
        <ele>925.4</ele>
        <time>2016-07-31T09:34:49Z</time>
      </trkpt>
      <trkpt lat="42.43536" lon="0.05165">
        <ele>924.7</ele>
        <time>2016-07-31T09:34:51Z</time>
      </trkpt>
      <trkpt lat="42.43539" lon="0.05168">
        <ele>924.2</ele>
        <time>2016-07-31T09:34:53Z</time>
      </trkpt>
      <trkpt lat="42.43542" lon="0.05172">
        <ele>923.8</ele>
        <time>2016-07-31T09:34:55Z</time>
      </trkpt>
      <trkpt lat="42.43546" lon="0.05175">
        <ele>923.6</ele>
        <time>2016-07-31T09:34:57Z</time>
      </trkpt>
      <trkpt lat="42.4355" lon="0.05178">
        <ele>923.7</ele>
        <time>2016-07-31T09:34:59Z</time>
      </trkpt>
      <trkpt lat="42.43554" lon="0.05181">
        <ele>923.6</ele>
        <time>2016-07-31T09:35:01Z</time>
      </trkpt>
      <trkpt lat="42.43557" lon="0.05185">
        <ele>923.3</ele>
        <time>2016-07-31T09:35:03Z</time>
      </trkpt>
      <trkpt lat="42.4356" lon="0.05189">
        <ele>923</ele>
        <time>2016-07-31T09:35:05Z</time>
      </trkpt>
      <trkpt lat="42.43564" lon="0.05193">
        <ele>922.8</ele>
        <time>2016-07-31T09:35:07Z</time>
      </trkpt>
      <trkpt lat="42.43567" lon="0.05197">
        <ele>922.4</ele>
        <time>2016-07-31T09:35:09Z</time>
      </trkpt>
      <trkpt lat="42.4357" lon="0.05201">
        <ele>922.1</ele>
        <time>2016-07-31T09:35:11Z</time>
      </trkpt>
      <trkpt lat="42.43573" lon="0.05204">
        <ele>922.3</ele>
        <time>2016-07-31T09:35:13Z</time>
      </trkpt>
      <trkpt lat="42.43577" lon="0.05203">
        <ele>923.4</ele>
        <time>2016-07-31T09:35:15Z</time>
      </trkpt>
      <trkpt lat="42.43581" lon="0.052">
        <ele>924.9</ele>
        <time>2016-07-31T09:35:17Z</time>
      </trkpt>
      <trkpt lat="42.43582" lon="0.05195">
        <ele>926.1</ele>
        <time>2016-07-31T09:35:19Z</time>
      </trkpt>
      <trkpt lat="42.4358" lon="0.05191">
        <ele>926.7</ele>
        <time>2016-07-31T09:35:21Z</time>
      </trkpt>
      <trkpt lat="42.43577" lon="0.05187">
        <ele>926.9</ele>
        <time>2016-07-31T09:35:23Z</time>
      </trkpt>
      <trkpt lat="42.43574" lon="0.05183">
        <ele>927.3</ele>
        <time>2016-07-31T09:35:25Z</time>
      </trkpt>
      <trkpt lat="42.43572" lon="0.05179">
        <ele>927.8</ele>
        <time>2016-07-31T09:35:27Z</time>
      </trkpt>
      <trkpt lat="42.4357" lon="0.05174">
        <ele>928.5</ele>
        <time>2016-07-31T09:35:29Z</time>
      </trkpt>
      <trkpt lat="42.43569" lon="0.05169">
        <ele>929.4</ele>
        <time>2016-07-31T09:35:31Z</time>
      </trkpt>
      <trkpt lat="42.43567" lon="0.05165">
        <ele>930.1</ele>
        <time>2016-07-31T09:35:33Z</time>
      </trkpt>
      <trkpt lat="42.43566" lon="0.05161">
        <ele>930.8</ele>
        <time>2016-07-31T09:35:35Z</time>
      </trkpt>
      <trkpt lat="42.43564" lon="0.05157">
        <ele>931.6</ele>
        <time>2016-07-31T09:35:37Z</time>
      </trkpt>
      <trkpt lat="42.43563" lon="0.05153">
        <ele>932.3</ele>
        <time>2016-07-31T09:35:39Z</time>
      </trkpt>
      <trkpt lat="42.4356" lon="0.05149">
        <ele>932.8</ele>
        <time>2016-07-31T09:35:41Z</time>
      </trkpt>
      <trkpt lat="42.43559" lon="0.05145">
        <ele>933.5</ele>
        <time>2016-07-31T09:35:43Z</time>
      </trkpt>
      <trkpt lat="42.43558" lon="0.05141">
        <ele>934.3</ele>
        <time>2016-07-31T09:35:45Z</time>
      </trkpt>
      <trkpt lat="42.43558" lon="0.05136">
        <ele>935.5</ele>
        <time>2016-07-31T09:35:47Z</time>
      </trkpt>
      <trkpt lat="42.4356" lon="0.05133">
        <ele>936.6</ele>
        <time>2016-07-31T09:35:49Z</time>
      </trkpt>
      <trkpt lat="42.43563" lon="0.05132">
        <ele>937.4</ele>
        <time>2016-07-31T09:35:51Z</time>
      </trkpt>
      <trkpt lat="42.43567" lon="0.05132">
        <ele>937.8</ele>
        <time>2016-07-31T09:35:54Z</time>
      </trkpt>
      <trkpt lat="42.43569" lon="0.05136">
        <ele>937.3</ele>
        <time>2016-07-31T09:35:56Z</time>
      </trkpt>
      <trkpt lat="42.43572" lon="0.05141">
        <ele>936.6</ele>
        <time>2016-07-31T09:35:58Z</time>
      </trkpt>
      <trkpt lat="42.43574" lon="0.05146">
        <ele>935.9</ele>
        <time>2016-07-31T09:36:00Z</time>
      </trkpt>
      <trkpt lat="42.43577" lon="0.0515">
        <ele>935.3</ele>
        <time>2016-07-31T09:36:02Z</time>
      </trkpt>
      <trkpt lat="42.43579" lon="0.05155">
        <ele>934.8</ele>
        <time>2016-07-31T09:36:04Z</time>
      </trkpt>
      <trkpt lat="42.43583" lon="0.05158">
        <ele>934.4</ele>
        <time>2016-07-31T09:36:06Z</time>
      </trkpt>
      <trkpt lat="42.43586" lon="0.05162">
        <ele>934.3</ele>
        <time>2016-07-31T09:36:08Z</time>
      </trkpt>
      <trkpt lat="42.43589" lon="0.05165">
        <ele>934.1</ele>
        <time>2016-07-31T09:36:10Z</time>
      </trkpt>
      <trkpt lat="42.43592" lon="0.05168">
        <ele>934.1</ele>
        <time>2016-07-31T09:36:12Z</time>
      </trkpt>
      <trkpt lat="42.43596" lon="0.0517">
        <ele>934.4</ele>
        <time>2016-07-31T09:36:14Z</time>
      </trkpt>
      <trkpt lat="42.43599" lon="0.05172">
        <ele>934.6</ele>
        <time>2016-07-31T09:36:16Z</time>
      </trkpt>
      <trkpt lat="42.43603" lon="0.05173">
        <ele>935</ele>
        <time>2016-07-31T09:36:18Z</time>
      </trkpt>
      <trkpt lat="42.43607" lon="0.05175">
        <ele>935.5</ele>
        <time>2016-07-31T09:36:20Z</time>
      </trkpt>
      <trkpt lat="42.43611" lon="0.05175">
        <ele>936.2</ele>
        <time>2016-07-31T09:36:22Z</time>
      </trkpt>
      <trkpt lat="42.43615" lon="0.05175">
        <ele>937</ele>
        <time>2016-07-31T09:36:24Z</time>
      </trkpt>
      <trkpt lat="42.43619" lon="0.05175">
        <ele>937.9</ele>
        <time>2016-07-31T09:36:26Z</time>
      </trkpt>
      <trkpt lat="42.43623" lon="0.05175">
        <ele>938.8</ele>
        <time>2016-07-31T09:36:28Z</time>
      </trkpt>
      <trkpt lat="42.43628" lon="0.05174">
        <ele>939.5</ele>
        <time>2016-07-31T09:36:30Z</time>
      </trkpt>
      <trkpt lat="42.43632" lon="0.05173">
        <ele>940.1</ele>
        <time>2016-07-31T09:36:32Z</time>
      </trkpt>
      <trkpt lat="42.43636" lon="0.05172">
        <ele>940.7</ele>
        <time>2016-07-31T09:36:34Z</time>
      </trkpt>
      <trkpt lat="42.4364" lon="0.05171">
        <ele>941.3</ele>
        <time>2016-07-31T09:36:36Z</time>
      </trkpt>
      <trkpt lat="42.43643" lon="0.05169">
        <ele>942.1</ele>
        <time>2016-07-31T09:36:38Z</time>
      </trkpt>
      <trkpt lat="42.43646" lon="0.05166">
        <ele>943.1</ele>
        <time>2016-07-31T09:36:40Z</time>
      </trkpt>
      <trkpt lat="42.43647" lon="0.05162">
        <ele>943.9</ele>
        <time>2016-07-31T09:36:42Z</time>
      </trkpt>
      <trkpt lat="42.43646" lon="0.05158">
        <ele>944.7</ele>
        <time>2016-07-31T09:36:44Z</time>
      </trkpt>
      <trkpt lat="42.43645" lon="0.05153">
        <ele>945.5</ele>
        <time>2016-07-31T09:36:46Z</time>
      </trkpt>
      <trkpt lat="42.43643" lon="0.05149">
        <ele>946</ele>
        <time>2016-07-31T09:36:48Z</time>
      </trkpt>
      <trkpt lat="42.4364" lon="0.05147">
        <ele>946.1</ele>
        <time>2016-07-31T09:36:50Z</time>
      </trkpt>
      <trkpt lat="42.43637" lon="0.05145">
        <ele>946</ele>
        <time>2016-07-31T09:36:52Z</time>
      </trkpt>
      <trkpt lat="42.43634" lon="0.05143">
        <ele>945.9</ele>
        <time>2016-07-31T09:36:54Z</time>
      </trkpt>
      <trkpt lat="42.43631" lon="0.05142">
        <ele>945.7</ele>
        <time>2016-07-31T09:36:56Z</time>
      </trkpt>
      <trkpt lat="42.43627" lon="0.05141">
        <ele>945.5</ele>
        <time>2016-07-31T09:36:58Z</time>
      </trkpt>
      <trkpt lat="42.43624" lon="0.05139">
        <ele>945.4</ele>
        <time>2016-07-31T09:37:00Z</time>
      </trkpt>
      <trkpt lat="42.43622" lon="0.05136">
        <ele>945.5</ele>
        <time>2016-07-31T09:37:02Z</time>
      </trkpt>
      <trkpt lat="42.43619" lon="0.05133">
        <ele>945.6</ele>
        <time>2016-07-31T09:37:04Z</time>
      </trkpt>
      <trkpt lat="42.43617" lon="0.0513">
        <ele>945.8</ele>
        <time>2016-07-31T09:37:06Z</time>
      </trkpt>
      <trkpt lat="42.43615" lon="0.05127">
        <ele>946.1</ele>
        <time>2016-07-31T09:37:08Z</time>
      </trkpt>
      <trkpt lat="42.43613" lon="0.05124">
        <ele>946.5</ele>
        <time>2016-07-31T09:37:10Z</time>
      </trkpt>
      <trkpt lat="42.4361" lon="0.05121">
        <ele>946.9</ele>
        <time>2016-07-31T09:37:12Z</time>
      </trkpt>
      <trkpt lat="42.43608" lon="0.05118">
        <ele>947.4</ele>
        <time>2016-07-31T09:37:14Z</time>
      </trkpt>
      <trkpt lat="42.43606" lon="0.05115">
        <ele>947.8</ele>
        <time>2016-07-31T09:37:16Z</time>
      </trkpt>
      <trkpt lat="42.43603" lon="0.05113">
        <ele>948.1</ele>
        <time>2016-07-31T09:37:18Z</time>
      </trkpt>
      <trkpt lat="42.43601" lon="0.0511">
        <ele>948.5</ele>
        <time>2016-07-31T09:37:20Z</time>
      </trkpt>
      <trkpt lat="42.43598" lon="0.05107">
        <ele>949</ele>
        <time>2016-07-31T09:37:22Z</time>
      </trkpt>
      <trkpt lat="42.43596" lon="0.05103">
        <ele>949.5</ele>
        <time>2016-07-31T09:37:24Z</time>
      </trkpt>
      <trkpt lat="42.43592" lon="0.05099">
        <ele>950.2</ele>
        <time>2016-07-31T09:37:26Z</time>
      </trkpt>
      <trkpt lat="42.43588" lon="0.05095">
        <ele>950.8</ele>
        <time>2016-07-31T09:37:28Z</time>
      </trkpt>
      <trkpt lat="42.43585" lon="0.05091">
        <ele>951.5</ele>
        <time>2016-07-31T09:37:30Z</time>
      </trkpt>
      <trkpt lat="42.43582" lon="0.05087">
        <ele>952.2</ele>
        <time>2016-07-31T09:37:32Z</time>
      </trkpt>
      <trkpt lat="42.43579" lon="0.05083">
        <ele>952.8</ele>
        <time>2016-07-31T09:37:34Z</time>
      </trkpt>
      <trkpt lat="42.43576" lon="0.05081">
        <ele>953.1</ele>
        <time>2016-07-31T09:37:36Z</time>
      </trkpt>
      <trkpt lat="42.43574" lon="0.05078">
        <ele>953.6</ele>
        <time>2016-07-31T09:37:38Z</time>
      </trkpt>
      <trkpt lat="42.43572" lon="0.05074">
        <ele>954.2</ele>
        <time>2016-07-31T09:37:40Z</time>
      </trkpt>
      <trkpt lat="42.43569" lon="0.05071">
        <ele>954.7</ele>
        <time>2016-07-31T09:37:42Z</time>
      </trkpt>
      <trkpt lat="42.43565" lon="0.05068">
        <ele>955.1</ele>
        <time>2016-07-31T09:37:44Z</time>
      </trkpt>
      <trkpt lat="42.43562" lon="0.05065">
        <ele>955.6</ele>
        <time>2016-07-31T09:37:46Z</time>
      </trkpt>
      <trkpt lat="42.43559" lon="0.05063">
        <ele>955.9</ele>
        <time>2016-07-31T09:37:48Z</time>
      </trkpt>
      <trkpt lat="42.43555" lon="0.0506">
        <ele>956.2</ele>
        <time>2016-07-31T09:37:50Z</time>
      </trkpt>
      <trkpt lat="42.43551" lon="0.05058">
        <ele>956.5</ele>
        <time>2016-07-31T09:37:52Z</time>
      </trkpt>
      <trkpt lat="42.43548" lon="0.05055">
        <ele>957</ele>
        <time>2016-07-31T09:37:54Z</time>
      </trkpt>
      <trkpt lat="42.43544" lon="0.05052">
        <ele>957.4</ele>
        <time>2016-07-31T09:37:56Z</time>
      </trkpt>
      <trkpt lat="42.4354" lon="0.05049">
        <ele>957.6</ele>
        <time>2016-07-31T09:37:58Z</time>
      </trkpt>
      <trkpt lat="42.43536" lon="0.05047">
        <ele>957.7</ele>
        <time>2016-07-31T09:38:00Z</time>
      </trkpt>
      <trkpt lat="42.43532" lon="0.05045">
        <ele>957.9</ele>
        <time>2016-07-31T09:38:02Z</time>
      </trkpt>
      <trkpt lat="42.43529" lon="0.05043">
        <ele>958.1</ele>
        <time>2016-07-31T09:38:04Z</time>
      </trkpt>
      <trkpt lat="42.43526" lon="0.0504">
        <ele>958.3</ele>
        <time>2016-07-31T09:38:06Z</time>
      </trkpt>
      <trkpt lat="42.43522" lon="0.05038">
        <ele>958.4</ele>
        <time>2016-07-31T09:38:08Z</time>
      </trkpt>
      <trkpt lat="42.43518" lon="0.05036">
        <ele>958.5</ele>
        <time>2016-07-31T09:38:10Z</time>
      </trkpt>
      <trkpt lat="42.43515" lon="0.05034">
        <ele>958.6</ele>
        <time>2016-07-31T09:38:12Z</time>
      </trkpt>
      <trkpt lat="42.43511" lon="0.05032">
        <ele>958.6</ele>
        <time>2016-07-31T09:38:14Z</time>
      </trkpt>
      <trkpt lat="42.43507" lon="0.0503">
        <ele>958.8</ele>
        <time>2016-07-31T09:38:16Z</time>
      </trkpt>
      <trkpt lat="42.43503" lon="0.05028">
        <ele>959</ele>
        <time>2016-07-31T09:38:18Z</time>
      </trkpt>
      <trkpt lat="42.435" lon="0.05026">
        <ele>959.3</ele>
        <time>2016-07-31T09:38:20Z</time>
      </trkpt>
      <trkpt lat="42.43497" lon="0.05023">
        <ele>959.6</ele>
        <time>2016-07-31T09:38:22Z</time>
      </trkpt>
      <trkpt lat="42.43493" lon="0.05021">
        <ele>959.8</ele>
        <time>2016-07-31T09:38:24Z</time>
      </trkpt>
      <trkpt lat="42.4349" lon="0.05019">
        <ele>960.1</ele>
        <time>2016-07-31T09:38:26Z</time>
      </trkpt>
      <trkpt lat="42.43487" lon="0.05017">
        <ele>960.4</ele>
        <time>2016-07-31T09:38:28Z</time>
      </trkpt>
      <trkpt lat="42.43484" lon="0.05014">
        <ele>960.8</ele>
        <time>2016-07-31T09:38:30Z</time>
      </trkpt>
      <trkpt lat="42.43481" lon="0.05012">
        <ele>961.2</ele>
        <time>2016-07-31T09:38:32Z</time>
      </trkpt>
      <trkpt lat="42.43478" lon="0.05009">
        <ele>961.5</ele>
        <time>2016-07-31T09:38:34Z</time>
      </trkpt>
      <trkpt lat="42.43475" lon="0.05007">
        <ele>961.9</ele>
        <time>2016-07-31T09:38:36Z</time>
      </trkpt>
      <trkpt lat="42.43473" lon="0.05005">
        <ele>962.2</ele>
        <time>2016-07-31T09:38:38Z</time>
      </trkpt>
      <trkpt lat="42.4347" lon="0.05003">
        <ele>962.5</ele>
        <time>2016-07-31T09:38:40Z</time>
      </trkpt>
      <trkpt lat="42.43468" lon="0.05001">
        <ele>962.8</ele>
        <time>2016-07-31T09:38:42Z</time>
      </trkpt>
      <trkpt lat="42.43464" lon="0.04999">
        <ele>963.1</ele>
        <time>2016-07-31T09:38:44Z</time>
      </trkpt>
      <trkpt lat="42.43462" lon="0.04996">
        <ele>963.6</ele>
        <time>2016-07-31T09:38:46Z</time>
      </trkpt>
      <trkpt lat="42.43459" lon="0.04993">
        <ele>964.2</ele>
        <time>2016-07-31T09:38:48Z</time>
      </trkpt>
      <trkpt lat="42.43456" lon="0.04991">
        <ele>964.6</ele>
        <time>2016-07-31T09:38:50Z</time>
      </trkpt>
      <trkpt lat="42.43454" lon="0.0499">
        <ele>964.7</ele>
        <time>2016-07-31T09:38:52Z</time>
      </trkpt>
      <trkpt lat="42.43451" lon="0.04988">
        <ele>964.9</ele>
        <time>2016-07-31T09:38:54Z</time>
      </trkpt>
      <trkpt lat="42.43448" lon="0.04986">
        <ele>965.3</ele>
        <time>2016-07-31T09:38:56Z</time>
      </trkpt>
      <trkpt lat="42.43445" lon="0.04984">
        <ele>965.6</ele>
        <time>2016-07-31T09:38:58Z</time>
      </trkpt>
      <trkpt lat="42.43442" lon="0.04981">
        <ele>966</ele>
        <time>2016-07-31T09:39:00Z</time>
      </trkpt>
      <trkpt lat="42.43439" lon="0.04978">
        <ele>966.5</ele>
        <time>2016-07-31T09:39:02Z</time>
      </trkpt>
      <trkpt lat="42.43435" lon="0.04976">
        <ele>966.7</ele>
        <time>2016-07-31T09:39:04Z</time>
      </trkpt>
      <trkpt lat="42.43432" lon="0.04975">
        <ele>966.8</ele>
        <time>2016-07-31T09:39:06Z</time>
      </trkpt>
      <trkpt lat="42.43429" lon="0.04972">
        <ele>967.2</ele>
        <time>2016-07-31T09:39:08Z</time>
      </trkpt>
      <trkpt lat="42.43426" lon="0.0497">
        <ele>967.6</ele>
        <time>2016-07-31T09:39:10Z</time>
      </trkpt>
      <trkpt lat="42.43423" lon="0.04968">
        <ele>967.9</ele>
        <time>2016-07-31T09:39:12Z</time>
      </trkpt>
      <trkpt lat="42.4342" lon="0.04965">
        <ele>968.2</ele>
        <time>2016-07-31T09:39:14Z</time>
      </trkpt>
      <trkpt lat="42.43417" lon="0.04963">
        <ele>968.5</ele>
        <time>2016-07-31T09:39:16Z</time>
      </trkpt>
      <trkpt lat="42.43414" lon="0.04961">
        <ele>968.8</ele>
        <time>2016-07-31T09:39:18Z</time>
      </trkpt>
      <trkpt lat="42.43412" lon="0.04959">
        <ele>969.3</ele>
        <time>2016-07-31T09:39:20Z</time>
      </trkpt>
      <trkpt lat="42.43409" lon="0.04957">
        <ele>969.5</ele>
        <time>2016-07-31T09:39:22Z</time>
      </trkpt>
      <trkpt lat="42.43406" lon="0.04955">
        <ele>969.6</ele>
        <time>2016-07-31T09:39:24Z</time>
      </trkpt>
      <trkpt lat="42.43403" lon="0.04952">
        <ele>969.9</ele>
        <time>2016-07-31T09:39:26Z</time>
      </trkpt>
      <trkpt lat="42.434" lon="0.04949">
        <ele>970.3</ele>
        <time>2016-07-31T09:39:28Z</time>
      </trkpt>
      <trkpt lat="42.43397" lon="0.04947">
        <ele>970.6</ele>
        <time>2016-07-31T09:39:30Z</time>
      </trkpt>
      <trkpt lat="42.43394" lon="0.04944">
        <ele>971</ele>
        <time>2016-07-31T09:39:32Z</time>
      </trkpt>
      <trkpt lat="42.43391" lon="0.04941">
        <ele>971.3</ele>
        <time>2016-07-31T09:39:34Z</time>
      </trkpt>
      <trkpt lat="42.43388" lon="0.04938">
        <ele>971.7</ele>
        <time>2016-07-31T09:39:36Z</time>
      </trkpt>
      <trkpt lat="42.43385" lon="0.04935">
        <ele>972</ele>
        <time>2016-07-31T09:39:38Z</time>
      </trkpt>
      <trkpt lat="42.43382" lon="0.04933">
        <ele>972.3</ele>
        <time>2016-07-31T09:39:40Z</time>
      </trkpt>
      <trkpt lat="42.43378" lon="0.0493">
        <ele>972.5</ele>
        <time>2016-07-31T09:39:42Z</time>
      </trkpt>
      <trkpt lat="42.43375" lon="0.04928">
        <ele>972.7</ele>
        <time>2016-07-31T09:39:44Z</time>
      </trkpt>
      <trkpt lat="42.43372" lon="0.04926">
        <ele>972.5</ele>
        <time>2016-07-31T09:39:46Z</time>
      </trkpt>
      <trkpt lat="42.43369" lon="0.04924">
        <ele>972.4</ele>
        <time>2016-07-31T09:39:48Z</time>
      </trkpt>
      <trkpt lat="42.43365" lon="0.04922">
        <ele>972.2</ele>
        <time>2016-07-31T09:39:50Z</time>
      </trkpt>
      <trkpt lat="42.43362" lon="0.0492">
        <ele>971.9</ele>
        <time>2016-07-31T09:39:52Z</time>
      </trkpt>
      <trkpt lat="42.43359" lon="0.04919">
        <ele>971.7</ele>
        <time>2016-07-31T09:39:54Z</time>
      </trkpt>
      <trkpt lat="42.43355" lon="0.04916">
        <ele>971.5</ele>
        <time>2016-07-31T09:39:56Z</time>
      </trkpt>
      <trkpt lat="42.43351" lon="0.04915">
        <ele>971.2</ele>
        <time>2016-07-31T09:39:58Z</time>
      </trkpt>
      <trkpt lat="42.43348" lon="0.04913">
        <ele>970.9</ele>
        <time>2016-07-31T09:40:00Z</time>
      </trkpt>
      <trkpt lat="42.43345" lon="0.04911">
        <ele>970.6</ele>
        <time>2016-07-31T09:40:02Z</time>
      </trkpt>
      <trkpt lat="42.43341" lon="0.04909">
        <ele>970.3</ele>
        <time>2016-07-31T09:40:04Z</time>
      </trkpt>
      <trkpt lat="42.43337" lon="0.04907">
        <ele>970</ele>
        <time>2016-07-31T09:40:06Z</time>
      </trkpt>
      <trkpt lat="42.43334" lon="0.04905">
        <ele>969.8</ele>
        <time>2016-07-31T09:40:08Z</time>
      </trkpt>
      <trkpt lat="42.4333" lon="0.04903">
        <ele>969.5</ele>
        <time>2016-07-31T09:40:10Z</time>
      </trkpt>
      <trkpt lat="42.43326" lon="0.049">
        <ele>969.2</ele>
        <time>2016-07-31T09:40:12Z</time>
      </trkpt>
      <trkpt lat="42.43323" lon="0.04898">
        <ele>969.1</ele>
        <time>2016-07-31T09:40:14Z</time>
      </trkpt>
      <trkpt lat="42.4332" lon="0.04895">
        <ele>969.1</ele>
        <time>2016-07-31T09:40:16Z</time>
      </trkpt>
      <trkpt lat="42.43317" lon="0.04891">
        <ele>969.2</ele>
        <time>2016-07-31T09:40:18Z</time>
      </trkpt>
      <trkpt lat="42.43314" lon="0.04888">
        <ele>969.3</ele>
        <time>2016-07-31T09:40:20Z</time>
      </trkpt>
      <trkpt lat="42.43311" lon="0.04885">
        <ele>969.3</ele>
        <time>2016-07-31T09:40:22Z</time>
      </trkpt>
      <trkpt lat="42.43308" lon="0.04881">
        <ele>969.5</ele>
        <time>2016-07-31T09:40:24Z</time>
      </trkpt>
      <trkpt lat="42.43306" lon="0.04877">
        <ele>969.7</ele>
        <time>2016-07-31T09:40:26Z</time>
      </trkpt>
      <trkpt lat="42.43303" lon="0.04874">
        <ele>969.8</ele>
        <time>2016-07-31T09:40:28Z</time>
      </trkpt>
      <trkpt lat="42.433" lon="0.0487">
        <ele>970</ele>
        <time>2016-07-31T09:40:30Z</time>
      </trkpt>
      <trkpt lat="42.43297" lon="0.04866">
        <ele>970.4</ele>
        <time>2016-07-31T09:40:32Z</time>
      </trkpt>
      <trkpt lat="42.43294" lon="0.04862">
        <ele>970.7</ele>
        <time>2016-07-31T09:40:34Z</time>
      </trkpt>
      <trkpt lat="42.43291" lon="0.04858">
        <ele>970.9</ele>
        <time>2016-07-31T09:40:36Z</time>
      </trkpt>
      <trkpt lat="42.43288" lon="0.04855">
        <ele>971.4</ele>
        <time>2016-07-31T09:40:38Z</time>
      </trkpt>
      <trkpt lat="42.43284" lon="0.04851">
        <ele>971.9</ele>
        <time>2016-07-31T09:40:40Z</time>
      </trkpt>
      <trkpt lat="42.43281" lon="0.04847">
        <ele>972.6</ele>
        <time>2016-07-31T09:40:42Z</time>
      </trkpt>
      <trkpt lat="42.4328" lon="0.04842">
        <ele>973.6</ele>
        <time>2016-07-31T09:40:44Z</time>
      </trkpt>
      <trkpt lat="42.43281" lon="0.04837">
        <ele>974.8</ele>
        <time>2016-07-31T09:40:46Z</time>
      </trkpt>
      <trkpt lat="42.43285" lon="0.04835">
        <ele>975.7</ele>
        <time>2016-07-31T09:40:48Z</time>
      </trkpt>
      <trkpt lat="42.4329" lon="0.04837">
        <ele>975.8</ele>
        <time>2016-07-31T09:40:50Z</time>
      </trkpt>
      <trkpt lat="42.43293" lon="0.04841">
        <ele>975.5</ele>
        <time>2016-07-31T09:40:52Z</time>
      </trkpt>
      <trkpt lat="42.43297" lon="0.04845">
        <ele>975.2</ele>
        <time>2016-07-31T09:40:54Z</time>
      </trkpt>
      <trkpt lat="42.433" lon="0.0485">
        <ele>975</ele>
        <time>2016-07-31T09:40:56Z</time>
      </trkpt>
      <trkpt lat="42.43304" lon="0.04853">
        <ele>974.9</ele>
        <time>2016-07-31T09:40:58Z</time>
      </trkpt>
      <trkpt lat="42.43308" lon="0.04857">
        <ele>974.9</ele>
        <time>2016-07-31T09:41:00Z</time>
      </trkpt>
      <trkpt lat="42.43312" lon="0.04861">
        <ele>974.9</ele>
        <time>2016-07-31T09:41:02Z</time>
      </trkpt>
      <trkpt lat="42.43315" lon="0.04864">
        <ele>974.9</ele>
        <time>2016-07-31T09:41:04Z</time>
      </trkpt>
      <trkpt lat="42.43318" lon="0.04866">
        <ele>975.1</ele>
        <time>2016-07-31T09:41:06Z</time>
      </trkpt>
      <trkpt lat="42.43321" lon="0.04869">
        <ele>975.3</ele>
        <time>2016-07-31T09:41:09Z</time>
      </trkpt>
      <trkpt lat="42.43325" lon="0.0487">
        <ele>975.6</ele>
        <time>2016-07-31T09:41:11Z</time>
      </trkpt>
      <trkpt lat="42.43328" lon="0.04872">
        <ele>975.8</ele>
        <time>2016-07-31T09:41:13Z</time>
      </trkpt>
      <trkpt lat="42.43331" lon="0.04874">
        <ele>976.2</ele>
        <time>2016-07-31T09:41:15Z</time>
      </trkpt>
      <trkpt lat="42.43334" lon="0.04875">
        <ele>976.6</ele>
        <time>2016-07-31T09:41:17Z</time>
      </trkpt>
      <trkpt lat="42.43337" lon="0.04876">
        <ele>977.2</ele>
        <time>2016-07-31T09:41:19Z</time>
      </trkpt>
      <trkpt lat="42.43341" lon="0.04877">
        <ele>977.8</ele>
        <time>2016-07-31T09:41:21Z</time>
      </trkpt>
      <trkpt lat="42.43345" lon="0.04877">
        <ele>978.6</ele>
        <time>2016-07-31T09:41:23Z</time>
      </trkpt>
      <trkpt lat="42.43348" lon="0.04876">
        <ele>979.6</ele>
        <time>2016-07-31T09:41:25Z</time>
      </trkpt>
      <trkpt lat="42.43352" lon="0.04876">
        <ele>980.5</ele>
        <time>2016-07-31T09:41:27Z</time>
      </trkpt>
      <trkpt lat="42.43356" lon="0.04875">
        <ele>981.6</ele>
        <time>2016-07-31T09:41:29Z</time>
      </trkpt>
      <trkpt lat="42.43359" lon="0.04874">
        <ele>982.6</ele>
        <time>2016-07-31T09:41:31Z</time>
      </trkpt>
      <trkpt lat="42.43363" lon="0.04873">
        <ele>983.6</ele>
        <time>2016-07-31T09:41:33Z</time>
      </trkpt>
      <trkpt lat="42.43367" lon="0.04873">
        <ele>984.6</ele>
        <time>2016-07-31T09:41:35Z</time>
      </trkpt>
      <trkpt lat="42.4337" lon="0.04873">
        <ele>985.5</ele>
        <time>2016-07-31T09:41:37Z</time>
      </trkpt>
      <trkpt lat="42.43374" lon="0.04873">
        <ele>986.3</ele>
        <time>2016-07-31T09:41:39Z</time>
      </trkpt>
      <trkpt lat="42.43378" lon="0.04873">
        <ele>986.8</ele>
        <time>2016-07-31T09:41:41Z</time>
      </trkpt>
      <trkpt lat="42.43381" lon="0.04874">
        <ele>987.1</ele>
        <time>2016-07-31T09:41:43Z</time>
      </trkpt>
      <trkpt lat="42.43385" lon="0.04874">
        <ele>987.4</ele>
        <time>2016-07-31T09:41:45Z</time>
      </trkpt>
      <trkpt lat="42.43388" lon="0.04874">
        <ele>987.8</ele>
        <time>2016-07-31T09:41:47Z</time>
      </trkpt>
      <trkpt lat="42.43392" lon="0.04874">
        <ele>988.2</ele>
        <time>2016-07-31T09:41:49Z</time>
      </trkpt>
      <trkpt lat="42.43396" lon="0.04875">
        <ele>988.5</ele>
        <time>2016-07-31T09:41:51Z</time>
      </trkpt>
      <trkpt lat="42.434" lon="0.04876">
        <ele>988.8</ele>
        <time>2016-07-31T09:41:53Z</time>
      </trkpt>
      <trkpt lat="42.43403" lon="0.04876">
        <ele>989</ele>
        <time>2016-07-31T09:41:55Z</time>
      </trkpt>
      <trkpt lat="42.43406" lon="0.04877">
        <ele>989.2</ele>
        <time>2016-07-31T09:41:57Z</time>
      </trkpt>
      <trkpt lat="42.4341" lon="0.04878">
        <ele>989.5</ele>
        <time>2016-07-31T09:41:59Z</time>
      </trkpt>
      <trkpt lat="42.43414" lon="0.04879">
        <ele>989.7</ele>
        <time>2016-07-31T09:42:01Z</time>
      </trkpt>
      <trkpt lat="42.43418" lon="0.04879">
        <ele>990.1</ele>
        <time>2016-07-31T09:42:03Z</time>
      </trkpt>
      <trkpt lat="42.43422" lon="0.0488">
        <ele>990.5</ele>
        <time>2016-07-31T09:42:05Z</time>
      </trkpt>
      <trkpt lat="42.43425" lon="0.0488">
        <ele>990.8</ele>
        <time>2016-07-31T09:42:07Z</time>
      </trkpt>
      <trkpt lat="42.43429" lon="0.0488">
        <ele>991.3</ele>
        <time>2016-07-31T09:42:09Z</time>
      </trkpt>
      <trkpt lat="42.43432" lon="0.0488">
        <ele>991.6</ele>
        <time>2016-07-31T09:42:11Z</time>
      </trkpt>
      <trkpt lat="42.43436" lon="0.04882">
        <ele>991.6</ele>
        <time>2016-07-31T09:42:13Z</time>
      </trkpt>
      <trkpt lat="42.43439" lon="0.04881">
        <ele>992</ele>
        <time>2016-07-31T09:42:15Z</time>
      </trkpt>
      <trkpt lat="42.43442" lon="0.04881">
        <ele>992.5</ele>
        <time>2016-07-31T09:42:17Z</time>
      </trkpt>
      <trkpt lat="42.43446" lon="0.04881">
        <ele>992.9</ele>
        <time>2016-07-31T09:42:19Z</time>
      </trkpt>
      <trkpt lat="42.4345" lon="0.04882">
        <ele>993.3</ele>
        <time>2016-07-31T09:42:21Z</time>
      </trkpt>
      <trkpt lat="42.43454" lon="0.04882">
        <ele>993.7</ele>
        <time>2016-07-31T09:42:23Z</time>
      </trkpt>
      <trkpt lat="42.43458" lon="0.04883">
        <ele>994.1</ele>
        <time>2016-07-31T09:42:25Z</time>
      </trkpt>
      <trkpt lat="42.43462" lon="0.04883">
        <ele>994.2</ele>
        <time>2016-07-31T09:42:27Z</time>
      </trkpt>
      <trkpt lat="42.43466" lon="0.04883">
        <ele>994.5</ele>
        <time>2016-07-31T09:42:29Z</time>
      </trkpt>
      <trkpt lat="42.43469" lon="0.04884">
        <ele>994.7</ele>
        <time>2016-07-31T09:42:31Z</time>
      </trkpt>
      <trkpt lat="42.43473" lon="0.04884">
        <ele>994.9</ele>
        <time>2016-07-31T09:42:33Z</time>
      </trkpt>
      <trkpt lat="42.43477" lon="0.04885">
        <ele>995</ele>
        <time>2016-07-31T09:42:35Z</time>
      </trkpt>
      <trkpt lat="42.4348" lon="0.04885">
        <ele>995.1</ele>
        <time>2016-07-31T09:42:37Z</time>
      </trkpt>
      <trkpt lat="42.43484" lon="0.04886">
        <ele>995.3</ele>
        <time>2016-07-31T09:42:39Z</time>
      </trkpt>
      <trkpt lat="42.43488" lon="0.04887">
        <ele>995.4</ele>
        <time>2016-07-31T09:42:41Z</time>
      </trkpt>
      <trkpt lat="42.43492" lon="0.04887">
        <ele>995.5</ele>
        <time>2016-07-31T09:42:43Z</time>
      </trkpt>
      <trkpt lat="42.43496" lon="0.04888">
        <ele>995.7</ele>
        <time>2016-07-31T09:42:45Z</time>
      </trkpt>
      <trkpt lat="42.435" lon="0.04889">
        <ele>995.8</ele>
        <time>2016-07-31T09:42:47Z</time>
      </trkpt>
      <trkpt lat="42.43503" lon="0.04889">
        <ele>995.9</ele>
        <time>2016-07-31T09:42:49Z</time>
      </trkpt>
      <trkpt lat="42.43507" lon="0.0489">
        <ele>996</ele>
        <time>2016-07-31T09:42:51Z</time>
      </trkpt>
      <trkpt lat="42.43512" lon="0.04891">
        <ele>996.2</ele>
        <time>2016-07-31T09:42:53Z</time>
      </trkpt>
      <trkpt lat="42.43515" lon="0.04891">
        <ele>996.4</ele>
        <time>2016-07-31T09:42:55Z</time>
      </trkpt>
      <trkpt lat="42.43519" lon="0.04892">
        <ele>996.6</ele>
        <time>2016-07-31T09:42:57Z</time>
      </trkpt>
      <trkpt lat="42.43522" lon="0.04892">
        <ele>996.8</ele>
        <time>2016-07-31T09:42:59Z</time>
      </trkpt>
      <trkpt lat="42.43526" lon="0.04892">
        <ele>997</ele>
        <time>2016-07-31T09:43:01Z</time>
      </trkpt>
      <trkpt lat="42.43529" lon="0.04893">
        <ele>997.2</ele>
        <time>2016-07-31T09:43:03Z</time>
      </trkpt>
      <trkpt lat="42.43532" lon="0.04893">
        <ele>997.4</ele>
        <time>2016-07-31T09:43:05Z</time>
      </trkpt>
      <trkpt lat="42.43536" lon="0.04893">
        <ele>997.6</ele>
        <time>2016-07-31T09:43:07Z</time>
      </trkpt>
      <trkpt lat="42.4354" lon="0.04894">
        <ele>997.8</ele>
        <time>2016-07-31T09:43:09Z</time>
      </trkpt>
      <trkpt lat="42.43543" lon="0.04894">
        <ele>997.5</ele>
        <time>2016-07-31T09:43:11Z</time>
      </trkpt>
      <trkpt lat="42.43547" lon="0.04894">
        <ele>996.7</ele>
        <time>2016-07-31T09:43:13Z</time>
      </trkpt>
      <trkpt lat="42.4355" lon="0.04895">
        <ele>995.8</ele>
        <time>2016-07-31T09:43:15Z</time>
      </trkpt>
      <trkpt lat="42.43554" lon="0.04896">
        <ele>994.9</ele>
        <time>2016-07-31T09:43:17Z</time>
      </trkpt>
      <trkpt lat="42.43557" lon="0.04896">
        <ele>994</ele>
        <time>2016-07-31T09:43:19Z</time>
      </trkpt>
      <trkpt lat="42.43561" lon="0.04897">
        <ele>993.1</ele>
        <time>2016-07-31T09:43:21Z</time>
      </trkpt>
      <trkpt lat="42.43564" lon="0.04897">
        <ele>992.4</ele>
        <time>2016-07-31T09:43:23Z</time>
      </trkpt>
      <trkpt lat="42.43568" lon="0.04895">
        <ele>991.8</ele>
        <time>2016-07-31T09:43:25Z</time>
      </trkpt>
      <trkpt lat="42.4357" lon="0.04892">
        <ele>991.7</ele>
        <time>2016-07-31T09:43:27Z</time>
      </trkpt>
      <trkpt lat="42.43571" lon="0.04888">
        <ele>991.8</ele>
        <time>2016-07-31T09:43:29Z</time>
      </trkpt>
      <trkpt lat="42.4357" lon="0.04883">
        <ele>992.7</ele>
        <time>2016-07-31T09:43:32Z</time>
      </trkpt>
      <trkpt lat="42.43566" lon="0.04882">
        <ele>993.9</ele>
        <time>2016-07-31T09:43:34Z</time>
      </trkpt>
      <trkpt lat="42.43561" lon="0.04883">
        <ele>995.1</ele>
        <time>2016-07-31T09:43:36Z</time>
      </trkpt>
      <trkpt lat="42.43557" lon="0.04881">
        <ele>996.4</ele>
        <time>2016-07-31T09:43:38Z</time>
      </trkpt>
      <trkpt lat="42.43553" lon="0.04879">
        <ele>997.9</ele>
        <time>2016-07-31T09:43:40Z</time>
      </trkpt>
      <trkpt lat="42.43549" lon="0.04877">
        <ele>999.3</ele>
        <time>2016-07-31T09:43:42Z</time>
      </trkpt>
      <trkpt lat="42.43545" lon="0.04875">
        <ele>1000.9</ele>
        <time>2016-07-31T09:43:44Z</time>
      </trkpt>
      <trkpt lat="42.43542" lon="0.04874">
        <ele>1001.9</ele>
        <time>2016-07-31T09:43:46Z</time>
      </trkpt>
      <trkpt lat="42.43538" lon="0.04872">
        <ele>1001.6</ele>
        <time>2016-07-31T09:43:48Z</time>
      </trkpt>
      <trkpt lat="42.43534" lon="0.0487">
        <ele>1001.4</ele>
        <time>2016-07-31T09:43:50Z</time>
      </trkpt>
      <trkpt lat="42.4353" lon="0.04868">
        <ele>1001.2</ele>
        <time>2016-07-31T09:43:52Z</time>
      </trkpt>
      <trkpt lat="42.43527" lon="0.04866">
        <ele>1001</ele>
        <time>2016-07-31T09:43:54Z</time>
      </trkpt>
      <trkpt lat="42.43524" lon="0.04864">
        <ele>1000.9</ele>
        <time>2016-07-31T09:43:56Z</time>
      </trkpt>
      <trkpt lat="42.4352" lon="0.04862">
        <ele>1000.8</ele>
        <time>2016-07-31T09:43:58Z</time>
      </trkpt>
      <trkpt lat="42.43517" lon="0.0486">
        <ele>1000.8</ele>
        <time>2016-07-31T09:44:00Z</time>
      </trkpt>
      <trkpt lat="42.43514" lon="0.04858">
        <ele>1000.8</ele>
        <time>2016-07-31T09:44:02Z</time>
      </trkpt>
      <trkpt lat="42.43512" lon="0.04856">
        <ele>1000.9</ele>
        <time>2016-07-31T09:44:04Z</time>
      </trkpt>
      <trkpt lat="42.43509" lon="0.04854">
        <ele>1001</ele>
        <time>2016-07-31T09:44:06Z</time>
      </trkpt>
      <trkpt lat="42.43506" lon="0.04851">
        <ele>1001.1</ele>
        <time>2016-07-31T09:44:08Z</time>
      </trkpt>
      <trkpt lat="42.43504" lon="0.04848">
        <ele>1001.4</ele>
        <time>2016-07-31T09:44:10Z</time>
      </trkpt>
      <trkpt lat="42.435" lon="0.04845">
        <ele>1001.7</ele>
        <time>2016-07-31T09:44:12Z</time>
      </trkpt>
      <trkpt lat="42.43497" lon="0.04842">
        <ele>1002.1</ele>
        <time>2016-07-31T09:44:14Z</time>
      </trkpt>
      <trkpt lat="42.43493" lon="0.04839">
        <ele>1002.5</ele>
        <time>2016-07-31T09:44:16Z</time>
      </trkpt>
      <trkpt lat="42.4349" lon="0.04836">
        <ele>1003</ele>
        <time>2016-07-31T09:44:18Z</time>
      </trkpt>
      <trkpt lat="42.43487" lon="0.04833">
        <ele>1003.5</ele>
        <time>2016-07-31T09:44:20Z</time>
      </trkpt>
      <trkpt lat="42.43484" lon="0.04829">
        <ele>1004.2</ele>
        <time>2016-07-31T09:44:22Z</time>
      </trkpt>
      <trkpt lat="42.43482" lon="0.04825">
        <ele>1004.9</ele>
        <time>2016-07-31T09:44:24Z</time>
      </trkpt>
      <trkpt lat="42.4348" lon="0.04821">
        <ele>1005.6</ele>
        <time>2016-07-31T09:44:26Z</time>
      </trkpt>
      <trkpt lat="42.43479" lon="0.04817">
        <ele>1006.4</ele>
        <time>2016-07-31T09:44:28Z</time>
      </trkpt>
      <trkpt lat="42.43477" lon="0.04813">
        <ele>1007.2</ele>
        <time>2016-07-31T09:44:30Z</time>
      </trkpt>
      <trkpt lat="42.43475" lon="0.0481">
        <ele>1008.1</ele>
        <time>2016-07-31T09:44:32Z</time>
      </trkpt>
      <trkpt lat="42.43472" lon="0.04806">
        <ele>1008.9</ele>
        <time>2016-07-31T09:44:34Z</time>
      </trkpt>
      <trkpt lat="42.4347" lon="0.04804">
        <ele>1009.8</ele>
        <time>2016-07-31T09:44:36Z</time>
      </trkpt>
      <trkpt lat="42.43468" lon="0.04801">
        <ele>1010.6</ele>
        <time>2016-07-31T09:44:38Z</time>
      </trkpt>
      <trkpt lat="42.43466" lon="0.04798">
        <ele>1011.5</ele>
        <time>2016-07-31T09:44:40Z</time>
      </trkpt>
      <trkpt lat="42.43463" lon="0.04796">
        <ele>1012.3</ele>
        <time>2016-07-31T09:44:42Z</time>
      </trkpt>
      <trkpt lat="42.4346" lon="0.04793">
        <ele>1013.5</ele>
        <time>2016-07-31T09:44:45Z</time>
      </trkpt>
      <trkpt lat="42.43458" lon="0.04791">
        <ele>1013.9</ele>
        <time>2016-07-31T09:44:47Z</time>
      </trkpt>
      <trkpt lat="42.43454" lon="0.04788">
        <ele>1013.7</ele>
        <time>2016-07-31T09:44:50Z</time>
      </trkpt>
      <trkpt lat="42.4345" lon="0.04786">
        <ele>1013.4</ele>
        <time>2016-07-31T09:44:53Z</time>
      </trkpt>
      <trkpt lat="42.43448" lon="0.04785">
        <ele>1013.3</ele>
        <time>2016-07-31T09:44:55Z</time>
      </trkpt>
      <trkpt lat="42.43445" lon="0.04782">
        <ele>1013.2</ele>
        <time>2016-07-31T09:44:57Z</time>
      </trkpt>
      <trkpt lat="42.43442" lon="0.0478">
        <ele>1013.1</ele>
        <time>2016-07-31T09:44:59Z</time>
      </trkpt>
      <trkpt lat="42.4344" lon="0.04778">
        <ele>1013</ele>
        <time>2016-07-31T09:45:01Z</time>
      </trkpt>
      <trkpt lat="42.43437" lon="0.04775">
        <ele>1013</ele>
        <time>2016-07-31T09:45:03Z</time>
      </trkpt>
      <trkpt lat="42.43434" lon="0.04773">
        <ele>1013</ele>
        <time>2016-07-31T09:45:05Z</time>
      </trkpt>
      <trkpt lat="42.43432" lon="0.04771">
        <ele>1013</ele>
        <time>2016-07-31T09:45:07Z</time>
      </trkpt>
      <trkpt lat="42.43429" lon="0.04768">
        <ele>1013.1</ele>
        <time>2016-07-31T09:45:09Z</time>
      </trkpt>
      <trkpt lat="42.43426" lon="0.04765">
        <ele>1013.2</ele>
        <time>2016-07-31T09:45:11Z</time>
      </trkpt>
      <trkpt lat="42.43423" lon="0.04762">
        <ele>1013.4</ele>
        <time>2016-07-31T09:45:13Z</time>
      </trkpt>
      <trkpt lat="42.43421" lon="0.04759">
        <ele>1013.6</ele>
        <time>2016-07-31T09:45:15Z</time>
      </trkpt>
      <trkpt lat="42.43419" lon="0.04757">
        <ele>1013.8</ele>
        <time>2016-07-31T09:45:17Z</time>
      </trkpt>
      <trkpt lat="42.43416" lon="0.04754">
        <ele>1014</ele>
        <time>2016-07-31T09:45:19Z</time>
      </trkpt>
      <trkpt lat="42.43413" lon="0.04751">
        <ele>1014.2</ele>
        <time>2016-07-31T09:45:21Z</time>
      </trkpt>
      <trkpt lat="42.4341" lon="0.04749">
        <ele>1014.5</ele>
        <time>2016-07-31T09:45:23Z</time>
      </trkpt>
      <trkpt lat="42.43408" lon="0.04747">
        <ele>1014.8</ele>
        <time>2016-07-31T09:45:25Z</time>
      </trkpt>
      <trkpt lat="42.43405" lon="0.04745">
        <ele>1015</ele>
        <time>2016-07-31T09:45:27Z</time>
      </trkpt>
      <trkpt lat="42.43402" lon="0.04743">
        <ele>1015.3</ele>
        <time>2016-07-31T09:45:29Z</time>
      </trkpt>
      <trkpt lat="42.434" lon="0.04739">
        <ele>1015.7</ele>
        <time>2016-07-31T09:45:31Z</time>
      </trkpt>
      <trkpt lat="42.43398" lon="0.04736">
        <ele>1016.2</ele>
        <time>2016-07-31T09:45:33Z</time>
      </trkpt>
      <trkpt lat="42.43396" lon="0.04733">
        <ele>1016.8</ele>
        <time>2016-07-31T09:45:35Z</time>
      </trkpt>
      <trkpt lat="42.43394" lon="0.04729">
        <ele>1017.4</ele>
        <time>2016-07-31T09:45:37Z</time>
      </trkpt>
      <trkpt lat="42.43392" lon="0.04725">
        <ele>1018.1</ele>
        <time>2016-07-31T09:45:39Z</time>
      </trkpt>
      <trkpt lat="42.4339" lon="0.04721">
        <ele>1018.9</ele>
        <time>2016-07-31T09:45:41Z</time>
      </trkpt>
      <trkpt lat="42.43388" lon="0.04718">
        <ele>1019.6</ele>
        <time>2016-07-31T09:45:43Z</time>
      </trkpt>
      <trkpt lat="42.43386" lon="0.04714">
        <ele>1020.3</ele>
        <time>2016-07-31T09:45:45Z</time>
      </trkpt>
      <trkpt lat="42.43384" lon="0.0471">
        <ele>1021.1</ele>
        <time>2016-07-31T09:45:47Z</time>
      </trkpt>
      <trkpt lat="42.43382" lon="0.04706">
        <ele>1021.7</ele>
        <time>2016-07-31T09:45:49Z</time>
      </trkpt>
      <trkpt lat="42.4338" lon="0.04702">
        <ele>1022</ele>
        <time>2016-07-31T09:45:51Z</time>
      </trkpt>
      <trkpt lat="42.43377" lon="0.04698">
        <ele>1022.4</ele>
        <time>2016-07-31T09:45:53Z</time>
      </trkpt>
      <trkpt lat="42.43375" lon="0.04694">
        <ele>1022.8</ele>
        <time>2016-07-31T09:45:55Z</time>
      </trkpt>
      <trkpt lat="42.43372" lon="0.04691">
        <ele>1022.5</ele>
        <time>2016-07-31T09:45:57Z</time>
      </trkpt>
      <trkpt lat="42.43369" lon="0.04689">
        <ele>1022.3</ele>
        <time>2016-07-31T09:45:59Z</time>
      </trkpt>
      <trkpt lat="42.43366" lon="0.04685">
        <ele>1022.2</ele>
        <time>2016-07-31T09:46:01Z</time>
      </trkpt>
      <trkpt lat="42.43363" lon="0.04682">
        <ele>1022</ele>
        <time>2016-07-31T09:46:03Z</time>
      </trkpt>
      <trkpt lat="42.4336" lon="0.04679">
        <ele>1021.9</ele>
        <time>2016-07-31T09:46:05Z</time>
      </trkpt>
      <trkpt lat="42.43357" lon="0.04676">
        <ele>1021.9</ele>
        <time>2016-07-31T09:46:07Z</time>
      </trkpt>
      <trkpt lat="42.43354" lon="0.04673">
        <ele>1021.8</ele>
        <time>2016-07-31T09:46:09Z</time>
      </trkpt>
      <trkpt lat="42.43351" lon="0.0467">
        <ele>1021.9</ele>
        <time>2016-07-31T09:46:11Z</time>
      </trkpt>
      <trkpt lat="42.43348" lon="0.04666">
        <ele>1022</ele>
        <time>2016-07-31T09:46:13Z</time>
      </trkpt>
      <trkpt lat="42.43346" lon="0.04663">
        <ele>1022.2</ele>
        <time>2016-07-31T09:46:15Z</time>
      </trkpt>
      <trkpt lat="42.43344" lon="0.0466">
        <ele>1022.5</ele>
        <time>2016-07-31T09:46:17Z</time>
      </trkpt>
      <trkpt lat="42.43342" lon="0.04657">
        <ele>1022.7</ele>
        <time>2016-07-31T09:46:19Z</time>
      </trkpt>
      <trkpt lat="42.43339" lon="0.04653">
        <ele>1023</ele>
        <time>2016-07-31T09:46:21Z</time>
      </trkpt>
      <trkpt lat="42.43337" lon="0.0465">
        <ele>1023.3</ele>
        <time>2016-07-31T09:46:23Z</time>
      </trkpt>
      <trkpt lat="42.43334" lon="0.04648">
        <ele>1023.5</ele>
        <time>2016-07-31T09:46:25Z</time>
      </trkpt>
      <trkpt lat="42.43332" lon="0.04645">
        <ele>1023.8</ele>
        <time>2016-07-31T09:46:27Z</time>
      </trkpt>
      <trkpt lat="42.4333" lon="0.04641">
        <ele>1024.3</ele>
        <time>2016-07-31T09:46:29Z</time>
      </trkpt>
      <trkpt lat="42.4333" lon="0.04637">
        <ele>1025.1</ele>
        <time>2016-07-31T09:46:31Z</time>
      </trkpt>
      <trkpt lat="42.43332" lon="0.04633">
        <ele>1025.8</ele>
        <time>2016-07-31T09:46:33Z</time>
      </trkpt>
      <trkpt lat="42.43335" lon="0.04631">
        <ele>1026.1</ele>
        <time>2016-07-31T09:46:35Z</time>
      </trkpt>
      <trkpt lat="42.43339" lon="0.04632">
        <ele>1026</ele>
        <time>2016-07-31T09:46:37Z</time>
      </trkpt>
      <trkpt lat="42.43343" lon="0.04634">
        <ele>1025.7</ele>
        <time>2016-07-31T09:46:39Z</time>
      </trkpt>
      <trkpt lat="42.43346" lon="0.04638">
        <ele>1025.3</ele>
        <time>2016-07-31T09:46:41Z</time>
      </trkpt>
      <trkpt lat="42.43349" lon="0.04641">
        <ele>1025</ele>
        <time>2016-07-31T09:46:43Z</time>
      </trkpt>
      <trkpt lat="42.43352" lon="0.04643">
        <ele>1024.9</ele>
        <time>2016-07-31T09:46:45Z</time>
      </trkpt>
      <trkpt lat="42.43356" lon="0.04644">
        <ele>1025</ele>
        <time>2016-07-31T09:46:47Z</time>
      </trkpt>
      <trkpt lat="42.43359" lon="0.04644">
        <ele>1025.1</ele>
        <time>2016-07-31T09:46:49Z</time>
      </trkpt>
      <trkpt lat="42.43362" lon="0.04643">
        <ele>1025.4</ele>
        <time>2016-07-31T09:46:51Z</time>
      </trkpt>
      <trkpt lat="42.43365" lon="0.04641">
        <ele>1025.7</ele>
        <time>2016-07-31T09:46:54Z</time>
      </trkpt>
      <trkpt lat="42.43365" lon="0.04636">
        <ele>1026.1</ele>
        <time>2016-07-31T09:46:56Z</time>
      </trkpt>
      <trkpt lat="42.43363" lon="0.04632">
        <ele>1026.4</ele>
        <time>2016-07-31T09:46:58Z</time>
      </trkpt>
      <trkpt lat="42.43361" lon="0.04628">
        <ele>1026.7</ele>
        <time>2016-07-31T09:47:00Z</time>
      </trkpt>
      <trkpt lat="42.43357" lon="0.04626">
        <ele>1026.9</ele>
        <time>2016-07-31T09:47:02Z</time>
      </trkpt>
      <trkpt lat="42.43353" lon="0.04624">
        <ele>1026.9</ele>
        <time>2016-07-31T09:47:04Z</time>
      </trkpt>
      <trkpt lat="42.4335" lon="0.04621">
        <ele>1026.8</ele>
        <time>2016-07-31T09:47:06Z</time>
      </trkpt>
      <trkpt lat="42.43347" lon="0.04619">
        <ele>1026.8</ele>
        <time>2016-07-31T09:47:08Z</time>
      </trkpt>
      <trkpt lat="42.43344" lon="0.04616">
        <ele>1026.7</ele>
        <time>2016-07-31T09:47:10Z</time>
      </trkpt>
      <trkpt lat="42.43341" lon="0.04613">
        <ele>1026.8</ele>
        <time>2016-07-31T09:47:12Z</time>
      </trkpt>
      <trkpt lat="42.43338" lon="0.0461">
        <ele>1026.9</ele>
        <time>2016-07-31T09:47:14Z</time>
      </trkpt>
      <trkpt lat="42.43335" lon="0.04607">
        <ele>1027</ele>
        <time>2016-07-31T09:47:16Z</time>
      </trkpt>
      <trkpt lat="42.43333" lon="0.04604">
        <ele>1027.2</ele>
        <time>2016-07-31T09:47:18Z</time>
      </trkpt>
      <trkpt lat="42.4333" lon="0.04601">
        <ele>1027.4</ele>
        <time>2016-07-31T09:47:20Z</time>
      </trkpt>
      <trkpt lat="42.43327" lon="0.04597">
        <ele>1027.7</ele>
        <time>2016-07-31T09:47:22Z</time>
      </trkpt>
      <trkpt lat="42.43325" lon="0.04594">
        <ele>1028.1</ele>
        <time>2016-07-31T09:47:24Z</time>
      </trkpt>
      <trkpt lat="42.43322" lon="0.0459">
        <ele>1028.5</ele>
        <time>2016-07-31T09:47:26Z</time>
      </trkpt>
      <trkpt lat="42.4332" lon="0.04587">
        <ele>1029</ele>
        <time>2016-07-31T09:47:28Z</time>
      </trkpt>
      <trkpt lat="42.43317" lon="0.04583">
        <ele>1029.6</ele>
        <time>2016-07-31T09:47:30Z</time>
      </trkpt>
      <trkpt lat="42.43314" lon="0.0458">
        <ele>1030.2</ele>
        <time>2016-07-31T09:47:32Z</time>
      </trkpt>
      <trkpt lat="42.4331" lon="0.04577">
        <ele>1030.9</ele>
        <time>2016-07-31T09:47:34Z</time>
      </trkpt>
      <trkpt lat="42.43307" lon="0.04575">
        <ele>1031.6</ele>
        <time>2016-07-31T09:47:36Z</time>
      </trkpt>
      <trkpt lat="42.43305" lon="0.04572">
        <ele>1032.4</ele>
        <time>2016-07-31T09:47:38Z</time>
      </trkpt>
      <trkpt lat="42.43302" lon="0.04568">
        <ele>1033.2</ele>
        <time>2016-07-31T09:47:40Z</time>
      </trkpt>
      <trkpt lat="42.433" lon="0.04565">
        <ele>1034.1</ele>
        <time>2016-07-31T09:47:42Z</time>
      </trkpt>
      <trkpt lat="42.43297" lon="0.04561">
        <ele>1035</ele>
        <time>2016-07-31T09:47:44Z</time>
      </trkpt>
      <trkpt lat="42.43294" lon="0.04558">
        <ele>1036.1</ele>
        <time>2016-07-31T09:47:46Z</time>
      </trkpt>
      <trkpt lat="42.43291" lon="0.04555">
        <ele>1037.2</ele>
        <time>2016-07-31T09:47:48Z</time>
      </trkpt>
      <trkpt lat="42.43288" lon="0.04551">
        <ele>1037.8</ele>
        <time>2016-07-31T09:47:50Z</time>
      </trkpt>
      <trkpt lat="42.43285" lon="0.04548">
        <ele>1038.4</ele>
        <time>2016-07-31T09:47:52Z</time>
      </trkpt>
      <trkpt lat="42.43282" lon="0.04545">
        <ele>1039</ele>
        <time>2016-07-31T09:47:54Z</time>
      </trkpt>
      <trkpt lat="42.43279" lon="0.04543">
        <ele>1039.5</ele>
        <time>2016-07-31T09:47:56Z</time>
      </trkpt>
      <trkpt lat="42.43276" lon="0.04541">
        <ele>1039.9</ele>
        <time>2016-07-31T09:47:58Z</time>
      </trkpt>
      <trkpt lat="42.43273" lon="0.04538">
        <ele>1039.9</ele>
        <time>2016-07-31T09:48:00Z</time>
      </trkpt>
      <trkpt lat="42.43269" lon="0.04535">
        <ele>1039.9</ele>
        <time>2016-07-31T09:48:02Z</time>
      </trkpt>
      <trkpt lat="42.43266" lon="0.04532">
        <ele>1040</ele>
        <time>2016-07-31T09:48:04Z</time>
      </trkpt>
      <trkpt lat="42.43262" lon="0.04529">
        <ele>1040.2</ele>
        <time>2016-07-31T09:48:06Z</time>
      </trkpt>
      <trkpt lat="42.43259" lon="0.04526">
        <ele>1040.3</ele>
        <time>2016-07-31T09:48:08Z</time>
      </trkpt>
      <trkpt lat="42.43256" lon="0.04523">
        <ele>1040.5</ele>
        <time>2016-07-31T09:48:10Z</time>
      </trkpt>
      <trkpt lat="42.43253" lon="0.04519">
        <ele>1040.7</ele>
        <time>2016-07-31T09:48:12Z</time>
      </trkpt>
      <trkpt lat="42.4325" lon="0.04516">
        <ele>1041</ele>
        <time>2016-07-31T09:48:14Z</time>
      </trkpt>
      <trkpt lat="42.43248" lon="0.04512">
        <ele>1041.3</ele>
        <time>2016-07-31T09:48:16Z</time>
      </trkpt>
      <trkpt lat="42.43245" lon="0.04508">
        <ele>1041.6</ele>
        <time>2016-07-31T09:48:18Z</time>
      </trkpt>
      <trkpt lat="42.43242" lon="0.04504">
        <ele>1042</ele>
        <time>2016-07-31T09:48:20Z</time>
      </trkpt>
      <trkpt lat="42.4324" lon="0.045">
        <ele>1042.5</ele>
        <time>2016-07-31T09:48:22Z</time>
      </trkpt>
      <trkpt lat="42.43238" lon="0.04496">
        <ele>1042.8</ele>
        <time>2016-07-31T09:48:24Z</time>
      </trkpt>
      <trkpt lat="42.43236" lon="0.04492">
        <ele>1043.1</ele>
        <time>2016-07-31T09:48:26Z</time>
      </trkpt>
      <trkpt lat="42.43235" lon="0.04489">
        <ele>1043.4</ele>
        <time>2016-07-31T09:48:28Z</time>
      </trkpt>
      <trkpt lat="42.43236" lon="0.04485">
        <ele>1043.3</ele>
        <time>2016-07-31T09:48:30Z</time>
      </trkpt>
      <trkpt lat="42.4324" lon="0.04484">
        <ele>1042.4</ele>
        <time>2016-07-31T09:48:32Z</time>
      </trkpt>
      <trkpt lat="42.43245" lon="0.04486">
        <ele>1041.6</ele>
        <time>2016-07-31T09:48:34Z</time>
      </trkpt>
      <trkpt lat="42.43248" lon="0.04488">
        <ele>1040.9</ele>
        <time>2016-07-31T09:48:36Z</time>
      </trkpt>
      <trkpt lat="42.43253" lon="0.04491">
        <ele>1040.1</ele>
        <time>2016-07-31T09:48:38Z</time>
      </trkpt>
      <trkpt lat="42.43256" lon="0.04495">
        <ele>1039.6</ele>
        <time>2016-07-31T09:48:40Z</time>
      </trkpt>
      <trkpt lat="42.43259" lon="0.04496">
        <ele>1039.1</ele>
        <time>2016-07-31T09:48:42Z</time>
      </trkpt>
      <trkpt lat="42.43265" lon="0.04502">
        <ele>1038.4</ele>
        <time>2016-07-31T09:54:17Z</time>
      </trkpt>
      <trkpt lat="42.43269" lon="0.04506">
        <ele>1038.1</ele>
        <time>2016-07-31T09:54:19Z</time>
      </trkpt>
      <trkpt lat="42.43272" lon="0.0451">
        <ele>1037.9</ele>
        <time>2016-07-31T09:54:21Z</time>
      </trkpt>
      <trkpt lat="42.43274" lon="0.04514">
        <ele>1037.9</ele>
        <time>2016-07-31T09:54:23Z</time>
      </trkpt>
      <trkpt lat="42.43275" lon="0.04519">
        <ele>1038.2</ele>
        <time>2016-07-31T09:54:30Z</time>
      </trkpt>
      <trkpt lat="42.43277" lon="0.04524">
        <ele>1038.4</ele>
        <time>2016-07-31T09:54:32Z</time>
      </trkpt>
      <trkpt lat="42.43279" lon="0.04528">
        <ele>1038.6</ele>
        <time>2016-07-31T09:54:34Z</time>
      </trkpt>
      <trkpt lat="42.4328" lon="0.04532">
        <ele>1038.8</ele>
        <time>2016-07-31T09:54:36Z</time>
      </trkpt>
      <trkpt lat="42.43283" lon="0.04535">
        <ele>1038.9</ele>
        <time>2016-07-31T09:54:38Z</time>
      </trkpt>
      <trkpt lat="42.43285" lon="0.04537">
        <ele>1038.9</ele>
        <time>2016-07-31T09:54:39Z</time>
      </trkpt>
      <trkpt lat="42.43288" lon="0.04539">
        <ele>1038.9</ele>
        <time>2016-07-31T09:54:40Z</time>
      </trkpt>
      <trkpt lat="42.43291" lon="0.04542">
        <ele>1039</ele>
        <time>2016-07-31T09:54:41Z</time>
      </trkpt>
      <trkpt lat="42.43294" lon="0.04544">
        <ele>1038.1</ele>
        <time>2016-07-31T09:54:42Z</time>
      </trkpt>
      <trkpt lat="42.43297" lon="0.04546">
        <ele>1037.1</ele>
        <time>2016-07-31T09:54:43Z</time>
      </trkpt>
      <trkpt lat="42.43299" lon="0.04548">
        <ele>1036.3</ele>
        <time>2016-07-31T09:54:44Z</time>
      </trkpt>
      <trkpt lat="42.43303" lon="0.04553">
        <ele>1034.7</ele>
        <time>2016-07-31T09:54:46Z</time>
      </trkpt>
      <trkpt lat="42.43306" lon="0.04555">
        <ele>1033.9</ele>
        <time>2016-07-31T09:54:47Z</time>
      </trkpt>
      <trkpt lat="42.43308" lon="0.04557">
        <ele>1033.1</ele>
        <time>2016-07-31T09:54:48Z</time>
      </trkpt>
      <trkpt lat="42.43311" lon="0.04559">
        <ele>1032.3</ele>
        <time>2016-07-31T09:54:49Z</time>
      </trkpt>
      <trkpt lat="42.43314" lon="0.04562">
        <ele>1031.4</ele>
        <time>2016-07-31T09:54:50Z</time>
      </trkpt>
      <trkpt lat="42.43317" lon="0.04566">
        <ele>1030.6</ele>
        <time>2016-07-31T09:54:51Z</time>
      </trkpt>
      <trkpt lat="42.43319" lon="0.04571">
        <ele>1029.9</ele>
        <time>2016-07-31T09:54:52Z</time>
      </trkpt>
      <trkpt lat="42.43322" lon="0.04574">
        <ele>1029.3</ele>
        <time>2016-07-31T09:54:53Z</time>
      </trkpt>
      <trkpt lat="42.43323" lon="0.04577">
        <ele>1028.9</ele>
        <time>2016-07-31T09:54:54Z</time>
      </trkpt>
      <trkpt lat="42.43328" lon="0.04581">
        <ele>1028.1</ele>
        <time>2016-07-31T09:54:56Z</time>
      </trkpt>
      <trkpt lat="42.43332" lon="0.04585">
        <ele>1027.5</ele>
        <time>2016-07-31T09:54:58Z</time>
      </trkpt>
      <trkpt lat="42.43334" lon="0.0459">
        <ele>1027.1</ele>
        <time>2016-07-31T09:55:00Z</time>
      </trkpt>
      <trkpt lat="42.43336" lon="0.04593">
        <ele>1026.9</ele>
        <time>2016-07-31T09:55:01Z</time>
      </trkpt>
      <trkpt lat="42.43339" lon="0.04596">
        <ele>1026.6</ele>
        <time>2016-07-31T09:55:02Z</time>
      </trkpt>
      <trkpt lat="42.43342" lon="0.04598">
        <ele>1026.4</ele>
        <time>2016-07-31T09:55:03Z</time>
      </trkpt>
      <trkpt lat="42.43345" lon="0.04601">
        <ele>1026.2</ele>
        <time>2016-07-31T09:55:04Z</time>
      </trkpt>
      <trkpt lat="42.43348" lon="0.04604">
        <ele>1026.1</ele>
        <time>2016-07-31T09:55:05Z</time>
      </trkpt>
      <trkpt lat="42.4335" lon="0.04607">
        <ele>1026.1</ele>
        <time>2016-07-31T09:55:06Z</time>
      </trkpt>
      <trkpt lat="42.43352" lon="0.04611">
        <ele>1026.2</ele>
        <time>2016-07-31T09:55:08Z</time>
      </trkpt>
      <trkpt lat="42.43355" lon="0.04615">
        <ele>1026.3</ele>
        <time>2016-07-31T09:55:10Z</time>
      </trkpt>
      <trkpt lat="42.4336" lon="0.04618">
        <ele>1026.4</ele>
        <time>2016-07-31T09:55:12Z</time>
      </trkpt>
      <trkpt lat="42.43362" lon="0.0462">
        <ele>1026.5</ele>
        <time>2016-07-31T09:55:13Z</time>
      </trkpt>
      <trkpt lat="42.43365" lon="0.04622">
        <ele>1026.7</ele>
        <time>2016-07-31T09:55:14Z</time>
      </trkpt>
      <trkpt lat="42.43368" lon="0.04624">
        <ele>1026.9</ele>
        <time>2016-07-31T09:55:15Z</time>
      </trkpt>
      <trkpt lat="42.4337" lon="0.04627">
        <ele>1026.8</ele>
        <time>2016-07-31T09:55:16Z</time>
      </trkpt>
      <trkpt lat="42.43371" lon="0.04631">
        <ele>1026.6</ele>
        <time>2016-07-31T09:55:17Z</time>
      </trkpt>
      <trkpt lat="42.43372" lon="0.04635">
        <ele>1026.4</ele>
        <time>2016-07-31T09:55:18Z</time>
      </trkpt>
      <trkpt lat="42.43373" lon="0.04639">
        <ele>1026.1</ele>
        <time>2016-07-31T09:55:19Z</time>
      </trkpt>
      <trkpt lat="42.43375" lon="0.04644">
        <ele>1025.7</ele>
        <time>2016-07-31T09:55:20Z</time>
      </trkpt>
      <trkpt lat="42.43379" lon="0.0465">
        <ele>1024.6</ele>
        <time>2016-07-31T09:55:21Z</time>
      </trkpt>
      <trkpt lat="42.43383" lon="0.04655">
        <ele>1023.4</ele>
        <time>2016-07-31T09:55:22Z</time>
      </trkpt>
      <trkpt lat="42.43387" lon="0.0466">
        <ele>1022.4</ele>
        <time>2016-07-31T09:55:23Z</time>
      </trkpt>
      <trkpt lat="42.4339" lon="0.04664">
        <ele>1021.7</ele>
        <time>2016-07-31T09:55:24Z</time>
      </trkpt>
      <trkpt lat="42.43391" lon="0.04668">
        <ele>1021.4</ele>
        <time>2016-07-31T09:55:25Z</time>
      </trkpt>
      <trkpt lat="42.43393" lon="0.04671">
        <ele>1021</ele>
        <time>2016-07-31T09:55:29Z</time>
      </trkpt>
      <trkpt lat="42.43396" lon="0.04674">
        <ele>1020.5</ele>
        <time>2016-07-31T09:55:32Z</time>
      </trkpt>
      <trkpt lat="42.43401" lon="0.04677">
        <ele>1019.8</ele>
        <time>2016-07-31T09:55:34Z</time>
      </trkpt>
      <trkpt lat="42.43403" lon="0.04679">
        <ele>1019.5</ele>
        <time>2016-07-31T09:55:35Z</time>
      </trkpt>
      <trkpt lat="42.43406" lon="0.04681">
        <ele>1019.1</ele>
        <time>2016-07-31T09:55:36Z</time>
      </trkpt>
      <trkpt lat="42.43409" lon="0.04683">
        <ele>1018.7</ele>
        <time>2016-07-31T09:55:37Z</time>
      </trkpt>
      <trkpt lat="42.43412" lon="0.04685">
        <ele>1018.4</ele>
        <time>2016-07-31T09:55:38Z</time>
      </trkpt>
      <trkpt lat="42.43415" lon="0.04686">
        <ele>1018.1</ele>
        <time>2016-07-31T09:55:39Z</time>
      </trkpt>
      <trkpt lat="42.43418" lon="0.04688">
        <ele>1017.9</ele>
        <time>2016-07-31T09:55:40Z</time>
      </trkpt>
      <trkpt lat="42.4342" lon="0.0469">
        <ele>1017.7</ele>
        <time>2016-07-31T09:55:41Z</time>
      </trkpt>
      <trkpt lat="42.43423" lon="0.04693">
        <ele>1017.7</ele>
        <time>2016-07-31T09:55:42Z</time>
      </trkpt>
      <trkpt lat="42.43426" lon="0.04695">
        <ele>1017.6</ele>
        <time>2016-07-31T09:55:43Z</time>
      </trkpt>
      <trkpt lat="42.43429" lon="0.04697">
        <ele>1017.5</ele>
        <time>2016-07-31T09:55:44Z</time>
      </trkpt>
      <trkpt lat="42.43433" lon="0.04699">
        <ele>1017.4</ele>
        <time>2016-07-31T09:55:45Z</time>
      </trkpt>
      <trkpt lat="42.43436" lon="0.047">
        <ele>1017.2</ele>
        <time>2016-07-31T09:55:46Z</time>
      </trkpt>
      <trkpt lat="42.43439" lon="0.04701">
        <ele>1017</ele>
        <time>2016-07-31T09:55:47Z</time>
      </trkpt>
      <trkpt lat="42.43443" lon="0.04703">
        <ele>1017</ele>
        <time>2016-07-31T09:55:49Z</time>
      </trkpt>
      <trkpt lat="42.43447" lon="0.04706">
        <ele>1017.2</ele>
        <time>2016-07-31T09:55:51Z</time>
      </trkpt>
      <trkpt lat="42.4345" lon="0.04707">
        <ele>1017.3</ele>
        <time>2016-07-31T09:55:53Z</time>
      </trkpt>
      <trkpt lat="42.43454" lon="0.04709">
        <ele>1017.2</ele>
        <time>2016-07-31T09:55:55Z</time>
      </trkpt>
      <trkpt lat="42.43457" lon="0.04714">
        <ele>1016.9</ele>
        <time>2016-07-31T09:55:57Z</time>
      </trkpt>
      <trkpt lat="42.43458" lon="0.04718">
        <ele>1016.6</ele>
        <time>2016-07-31T09:55:58Z</time>
      </trkpt>
      <trkpt lat="42.4346" lon="0.04723">
        <ele>1016</ele>
        <time>2016-07-31T09:55:59Z</time>
      </trkpt>
      <trkpt lat="42.43461" lon="0.04729">
        <ele>1015.3</ele>
        <time>2016-07-31T09:56:00Z</time>
      </trkpt>
      <trkpt lat="42.43462" lon="0.04735">
        <ele>1014.6</ele>
        <time>2016-07-31T09:56:01Z</time>
      </trkpt>
      <trkpt lat="42.43465" lon="0.04741">
        <ele>1013.7</ele>
        <time>2016-07-31T09:56:02Z</time>
      </trkpt>
      <trkpt lat="42.43468" lon="0.04748">
        <ele>1012.7</ele>
        <time>2016-07-31T09:56:03Z</time>
      </trkpt>
      <trkpt lat="42.43471" lon="0.04754">
        <ele>1011.6</ele>
        <time>2016-07-31T09:56:04Z</time>
      </trkpt>
      <trkpt lat="42.43475" lon="0.0476">
        <ele>1010.4</ele>
        <time>2016-07-31T09:56:05Z</time>
      </trkpt>
      <trkpt lat="42.4348" lon="0.04765">
        <ele>1009.4</ele>
        <time>2016-07-31T09:56:06Z</time>
      </trkpt>
      <trkpt lat="42.43484" lon="0.04771">
        <ele>1008.6</ele>
        <time>2016-07-31T09:56:07Z</time>
      </trkpt>
      <trkpt lat="42.43487" lon="0.04777">
        <ele>1008</ele>
        <time>2016-07-31T09:56:08Z</time>
      </trkpt>
      <trkpt lat="42.4349" lon="0.04784">
        <ele>1007.7</ele>
        <time>2016-07-31T09:56:09Z</time>
      </trkpt>
      <trkpt lat="42.43494" lon="0.0479">
        <ele>1007.5</ele>
        <time>2016-07-31T09:56:10Z</time>
      </trkpt>
      <trkpt lat="42.43497" lon="0.04794">
        <ele>1006.9</ele>
        <time>2016-07-31T09:56:12Z</time>
      </trkpt>
      <trkpt lat="42.43499" lon="0.04797">
        <ele>1006.3</ele>
        <time>2016-07-31T09:56:14Z</time>
      </trkpt>
      <trkpt lat="42.43502" lon="0.04799">
        <ele>1005.6</ele>
        <time>2016-07-31T09:56:16Z</time>
      </trkpt>
      <trkpt lat="42.43504" lon="0.04802">
        <ele>1005</ele>
        <time>2016-07-31T09:56:17Z</time>
      </trkpt>
      <trkpt lat="42.43508" lon="0.04805">
        <ele>1004.2</ele>
        <time>2016-07-31T09:56:19Z</time>
      </trkpt>
      <trkpt lat="42.4351" lon="0.04809">
        <ele>1003.7</ele>
        <time>2016-07-31T09:56:20Z</time>
      </trkpt>
      <trkpt lat="42.43512" lon="0.04812">
        <ele>1003.3</ele>
        <time>2016-07-31T09:56:21Z</time>
      </trkpt>
      <trkpt lat="42.43513" lon="0.04815">
        <ele>1003</ele>
        <time>2016-07-31T09:56:22Z</time>
      </trkpt>
      <trkpt lat="42.43515" lon="0.04818">
        <ele>1002.6</ele>
        <time>2016-07-31T09:56:23Z</time>
      </trkpt>
      <trkpt lat="42.43518" lon="0.04821">
        <ele>1002.2</ele>
        <time>2016-07-31T09:56:24Z</time>
      </trkpt>
      <trkpt lat="42.43521" lon="0.04825">
        <ele>1001.9</ele>
        <time>2016-07-31T09:56:25Z</time>
      </trkpt>
      <trkpt lat="42.43524" lon="0.04829">
        <ele>1001.6</ele>
        <time>2016-07-31T09:56:26Z</time>
      </trkpt>
      <trkpt lat="42.43527" lon="0.04833">
        <ele>1001.3</ele>
        <time>2016-07-31T09:56:27Z</time>
      </trkpt>
      <trkpt lat="42.4353" lon="0.04836">
        <ele>1001.1</ele>
        <time>2016-07-31T09:56:28Z</time>
      </trkpt>
      <trkpt lat="42.43533" lon="0.04839">
        <ele>1001</ele>
        <time>2016-07-31T09:56:29Z</time>
      </trkpt>
      <trkpt lat="42.43535" lon="0.04842">
        <ele>1001</ele>
        <time>2016-07-31T09:56:30Z</time>
      </trkpt>
      <trkpt lat="42.43538" lon="0.04845">
        <ele>1001</ele>
        <time>2016-07-31T09:56:31Z</time>
      </trkpt>
      <trkpt lat="42.4354" lon="0.04849">
        <ele>1001.1</ele>
        <time>2016-07-31T09:56:32Z</time>
      </trkpt>
      <trkpt lat="42.43542" lon="0.04851">
        <ele>1001.1</ele>
        <time>2016-07-31T09:56:33Z</time>
      </trkpt>
      <trkpt lat="42.43545" lon="0.04857">
        <ele>1000.2</ele>
        <time>2016-07-31T09:56:35Z</time>
      </trkpt>
      <trkpt lat="42.43548" lon="0.0486">
        <ele>999.4</ele>
        <time>2016-07-31T09:56:36Z</time>
      </trkpt>
      <trkpt lat="42.43551" lon="0.04862">
        <ele>998.4</ele>
        <time>2016-07-31T09:56:37Z</time>
      </trkpt>
      <trkpt lat="42.43555" lon="0.04863">
        <ele>997.3</ele>
        <time>2016-07-31T09:56:38Z</time>
      </trkpt>
      <trkpt lat="42.43558" lon="0.04865">
        <ele>996.2</ele>
        <time>2016-07-31T09:56:39Z</time>
      </trkpt>
      <trkpt lat="42.43561" lon="0.04866">
        <ele>995.3</ele>
        <time>2016-07-31T09:56:40Z</time>
      </trkpt>
      <trkpt lat="42.43564" lon="0.04867">
        <ele>994.5</ele>
        <time>2016-07-31T09:56:41Z</time>
      </trkpt>
      <trkpt lat="42.43567" lon="0.04871">
        <ele>993.8</ele>
        <time>2016-07-31T09:56:43Z</time>
      </trkpt>
      <trkpt lat="42.43569" lon="0.04875">
        <ele>993.7</ele>
        <time>2016-07-31T09:56:45Z</time>
      </trkpt>
      <trkpt lat="42.43572" lon="0.04878">
        <ele>992.5</ele>
        <time>2016-07-31T09:56:48Z</time>
      </trkpt>
      <trkpt lat="42.43576" lon="0.04881">
        <ele>991.3</ele>
        <time>2016-07-31T09:56:50Z</time>
      </trkpt>
      <trkpt lat="42.43579" lon="0.04884">
        <ele>990.2</ele>
        <time>2016-07-31T09:56:52Z</time>
      </trkpt>
      <trkpt lat="42.4358" lon="0.04888">
        <ele>989.6</ele>
        <time>2016-07-31T09:56:53Z</time>
      </trkpt>
      <trkpt lat="42.43581" lon="0.04891">
        <ele>989.1</ele>
        <time>2016-07-31T09:56:54Z</time>
      </trkpt>
      <trkpt lat="42.43581" lon="0.04898">
        <ele>988.6</ele>
        <time>2016-07-31T09:56:56Z</time>
      </trkpt>
      <trkpt lat="42.43583" lon="0.04903">
        <ele>987.8</ele>
        <time>2016-07-31T09:56:58Z</time>
      </trkpt>
      <trkpt lat="42.43586" lon="0.04905">
        <ele>987.3</ele>
        <time>2016-07-31T09:56:59Z</time>
      </trkpt>
      <trkpt lat="42.43591" lon="0.04907">
        <ele>986.3</ele>
        <time>2016-07-31T09:57:01Z</time>
      </trkpt>
      <trkpt lat="42.43594" lon="0.04908">
        <ele>985.6</ele>
        <time>2016-07-31T09:57:03Z</time>
      </trkpt>
      <trkpt lat="42.43597" lon="0.04911">
        <ele>985</ele>
        <time>2016-07-31T09:57:05Z</time>
      </trkpt>
      <trkpt lat="42.43601" lon="0.04915">
        <ele>984.4</ele>
        <time>2016-07-31T09:57:07Z</time>
      </trkpt>
      <trkpt lat="42.43604" lon="0.04918">
        <ele>984</ele>
        <time>2016-07-31T09:57:09Z</time>
      </trkpt>
      <trkpt lat="42.43606" lon="0.04922">
        <ele>983.9</ele>
        <time>2016-07-31T09:57:14Z</time>
      </trkpt>
      <trkpt lat="42.43609" lon="0.04924">
        <ele>983.6</ele>
        <time>2016-07-31T09:57:21Z</time>
      </trkpt>
      <trkpt lat="42.43611" lon="0.04927">
        <ele>983.4</ele>
        <time>2016-07-31T09:57:23Z</time>
      </trkpt>
      <trkpt lat="42.43614" lon="0.04932">
        <ele>983.4</ele>
        <time>2016-07-31T09:57:25Z</time>
      </trkpt>
      <trkpt lat="42.43618" lon="0.04935">
        <ele>983.3</ele>
        <time>2016-07-31T09:57:27Z</time>
      </trkpt>
      <trkpt lat="42.43622" lon="0.04937">
        <ele>983.2</ele>
        <time>2016-07-31T09:57:29Z</time>
      </trkpt>
      <trkpt lat="42.43625" lon="0.0494">
        <ele>983.3</ele>
        <time>2016-07-31T09:57:31Z</time>
      </trkpt>
      <trkpt lat="42.43627" lon="0.04944">
        <ele>983</ele>
        <time>2016-07-31T09:57:33Z</time>
      </trkpt>
      <trkpt lat="42.43629" lon="0.04948">
        <ele>982.7</ele>
        <time>2016-07-31T09:57:35Z</time>
      </trkpt>
      <trkpt lat="42.43631" lon="0.04952">
        <ele>982.4</ele>
        <time>2016-07-31T09:57:37Z</time>
      </trkpt>
      <trkpt lat="42.43634" lon="0.04955">
        <ele>981.8</ele>
        <time>2016-07-31T09:57:39Z</time>
      </trkpt>
      <trkpt lat="42.43637" lon="0.04957">
        <ele>981.1</ele>
        <time>2016-07-31T09:57:41Z</time>
      </trkpt>
      <trkpt lat="42.43641" lon="0.04959">
        <ele>980.2</ele>
        <time>2016-07-31T09:57:43Z</time>
      </trkpt>
      <trkpt lat="42.43644" lon="0.04961">
        <ele>979.1</ele>
        <time>2016-07-31T09:57:45Z</time>
      </trkpt>
      <trkpt lat="42.43647" lon="0.04964">
        <ele>977.9</ele>
        <time>2016-07-31T09:57:47Z</time>
      </trkpt>
      <trkpt lat="42.4365" lon="0.04969">
        <ele>976.8</ele>
        <time>2016-07-31T09:57:49Z</time>
      </trkpt>
      <trkpt lat="42.43652" lon="0.04971">
        <ele>976.1</ele>
        <time>2016-07-31T09:57:50Z</time>
      </trkpt>
      <trkpt lat="42.43654" lon="0.04974">
        <ele>975.2</ele>
        <time>2016-07-31T09:57:51Z</time>
      </trkpt>
      <trkpt lat="42.43658" lon="0.04976">
        <ele>974.3</ele>
        <time>2016-07-31T09:57:52Z</time>
      </trkpt>
      <trkpt lat="42.43661" lon="0.04979">
        <ele>973.4</ele>
        <time>2016-07-31T09:57:53Z</time>
      </trkpt>
      <trkpt lat="42.43664" lon="0.04982">
        <ele>972.8</ele>
        <time>2016-07-31T09:57:54Z</time>
      </trkpt>
      <trkpt lat="42.43666" lon="0.04984">
        <ele>972.4</ele>
        <time>2016-07-31T09:57:55Z</time>
      </trkpt>
      <trkpt lat="42.43668" lon="0.04987">
        <ele>971.9</ele>
        <time>2016-07-31T09:57:56Z</time>
      </trkpt>
      <trkpt lat="42.43671" lon="0.0499">
        <ele>971.4</ele>
        <time>2016-07-31T09:57:57Z</time>
      </trkpt>
      <trkpt lat="42.43674" lon="0.04992">
        <ele>971</ele>
        <time>2016-07-31T09:57:58Z</time>
      </trkpt>
      <trkpt lat="42.43677" lon="0.04995">
        <ele>970.7</ele>
        <time>2016-07-31T09:57:59Z</time>
      </trkpt>
      <trkpt lat="42.4368" lon="0.04999">
        <ele>970.4</ele>
        <time>2016-07-31T09:58:01Z</time>
      </trkpt>
      <trkpt lat="42.43683" lon="0.05004">
        <ele>970.3</ele>
        <time>2016-07-31T09:58:03Z</time>
      </trkpt>
      <trkpt lat="42.43686" lon="0.05007">
        <ele>970.2</ele>
        <time>2016-07-31T09:58:05Z</time>
      </trkpt>
      <trkpt lat="42.4369" lon="0.0501">
        <ele>970.1</ele>
        <time>2016-07-31T09:58:07Z</time>
      </trkpt>
      <trkpt lat="42.43692" lon="0.05012">
        <ele>970.1</ele>
        <time>2016-07-31T09:58:08Z</time>
      </trkpt>
      <trkpt lat="42.43695" lon="0.05014">
        <ele>970.2</ele>
        <time>2016-07-31T09:58:09Z</time>
      </trkpt>
      <trkpt lat="42.43697" lon="0.05017">
        <ele>970.3</ele>
        <time>2016-07-31T09:58:10Z</time>
      </trkpt>
      <trkpt lat="42.43699" lon="0.05019">
        <ele>970.5</ele>
        <time>2016-07-31T09:58:11Z</time>
      </trkpt>
      <trkpt lat="42.43701" lon="0.05021">
        <ele>970.8</ele>
        <time>2016-07-31T09:58:12Z</time>
      </trkpt>
      <trkpt lat="42.43705" lon="0.05026">
        <ele>971.3</ele>
        <time>2016-07-31T09:58:14Z</time>
      </trkpt>
      <trkpt lat="42.4371" lon="0.05027">
        <ele>971.1</ele>
        <time>2016-07-31T09:58:16Z</time>
      </trkpt>
      <trkpt lat="42.43714" lon="0.05029">
        <ele>970</ele>
        <time>2016-07-31T09:58:18Z</time>
      </trkpt>
      <trkpt lat="42.43717" lon="0.05032">
        <ele>969.2</ele>
        <time>2016-07-31T09:58:20Z</time>
      </trkpt>
      <trkpt lat="42.43721" lon="0.05035">
        <ele>968.7</ele>
        <time>2016-07-31T09:58:22Z</time>
      </trkpt>
      <trkpt lat="42.43724" lon="0.05038">
        <ele>968.3</ele>
        <time>2016-07-31T09:58:24Z</time>
      </trkpt>
      <trkpt lat="42.43727" lon="0.05041">
        <ele>968.2</ele>
        <time>2016-07-31T09:58:26Z</time>
      </trkpt>
      <trkpt lat="42.43728" lon="0.05048">
        <ele>967.1</ele>
        <time>2016-07-31T09:58:28Z</time>
      </trkpt>
      <trkpt lat="42.43729" lon="0.05053">
        <ele>966.3</ele>
        <time>2016-07-31T09:58:30Z</time>
      </trkpt>
      <trkpt lat="42.43731" lon="0.05057">
        <ele>965.6</ele>
        <time>2016-07-31T09:58:32Z</time>
      </trkpt>
      <trkpt lat="42.43734" lon="0.05059">
        <ele>964.6</ele>
        <time>2016-07-31T09:58:34Z</time>
      </trkpt>
      <trkpt lat="42.43737" lon="0.05062">
        <ele>963.5</ele>
        <time>2016-07-31T09:58:36Z</time>
      </trkpt>
      <trkpt lat="42.43742" lon="0.05064">
        <ele>962.2</ele>
        <time>2016-07-31T09:58:38Z</time>
      </trkpt>
      <trkpt lat="42.43747" lon="0.05066">
        <ele>960.9</ele>
        <time>2016-07-31T09:58:40Z</time>
      </trkpt>
      <trkpt lat="42.4375" lon="0.05068">
        <ele>960.2</ele>
        <time>2016-07-31T09:58:41Z</time>
      </trkpt>
      <trkpt lat="42.43753" lon="0.0507">
        <ele>959.3</ele>
        <time>2016-07-31T09:58:42Z</time>
      </trkpt>
      <trkpt lat="42.43757" lon="0.05073">
        <ele>958.4</ele>
        <time>2016-07-31T09:58:43Z</time>
      </trkpt>
      <trkpt lat="42.43761" lon="0.05076">
        <ele>957.5</ele>
        <time>2016-07-31T09:58:44Z</time>
      </trkpt>
      <trkpt lat="42.43764" lon="0.05078">
        <ele>956.9</ele>
        <time>2016-07-31T09:58:45Z</time>
      </trkpt>
      <trkpt lat="42.43767" lon="0.0508">
        <ele>956.3</ele>
        <time>2016-07-31T09:58:46Z</time>
      </trkpt>
      <trkpt lat="42.43771" lon="0.05083">
        <ele>955.7</ele>
        <time>2016-07-31T09:58:47Z</time>
      </trkpt>
      <trkpt lat="42.43774" lon="0.05086">
        <ele>955.2</ele>
        <time>2016-07-31T09:58:48Z</time>
      </trkpt>
      <trkpt lat="42.43777" lon="0.05089">
        <ele>954.9</ele>
        <time>2016-07-31T09:58:49Z</time>
      </trkpt>
      <trkpt lat="42.4378" lon="0.05093">
        <ele>954.7</ele>
        <time>2016-07-31T09:58:50Z</time>
      </trkpt>
      <trkpt lat="42.43782" lon="0.05096">
        <ele>954.5</ele>
        <time>2016-07-31T09:58:51Z</time>
      </trkpt>
      <trkpt lat="42.43786" lon="0.05099">
        <ele>954.3</ele>
        <time>2016-07-31T09:58:52Z</time>
      </trkpt>
      <trkpt lat="42.4379" lon="0.05103">
        <ele>954.1</ele>
        <time>2016-07-31T09:58:53Z</time>
      </trkpt>
      <trkpt lat="42.43793" lon="0.05106">
        <ele>953.6</ele>
        <time>2016-07-31T09:58:54Z</time>
      </trkpt>
      <trkpt lat="42.43797" lon="0.05109">
        <ele>952.9</ele>
        <time>2016-07-31T09:58:55Z</time>
      </trkpt>
      <trkpt lat="42.438" lon="0.05112">
        <ele>952.2</ele>
        <time>2016-07-31T09:58:56Z</time>
      </trkpt>
      <trkpt lat="42.43804" lon="0.05114">
        <ele>951.5</ele>
        <time>2016-07-31T09:58:57Z</time>
      </trkpt>
      <trkpt lat="42.43808" lon="0.05117">
        <ele>950.8</ele>
        <time>2016-07-31T09:58:58Z</time>
      </trkpt>
      <trkpt lat="42.43811" lon="0.05119">
        <ele>950.2</ele>
        <time>2016-07-31T09:58:59Z</time>
      </trkpt>
      <trkpt lat="42.43814" lon="0.0512">
        <ele>949.6</ele>
        <time>2016-07-31T09:59:00Z</time>
      </trkpt>
      <trkpt lat="42.43817" lon="0.05122">
        <ele>949.1</ele>
        <time>2016-07-31T09:59:01Z</time>
      </trkpt>
      <trkpt lat="42.4382" lon="0.05123">
        <ele>948.5</ele>
        <time>2016-07-31T09:59:02Z</time>
      </trkpt>
      <trkpt lat="42.43823" lon="0.05124">
        <ele>947.8</ele>
        <time>2016-07-31T09:59:03Z</time>
      </trkpt>
      <trkpt lat="42.43827" lon="0.05126">
        <ele>947.1</ele>
        <time>2016-07-31T09:59:04Z</time>
      </trkpt>
      <trkpt lat="42.4383" lon="0.05128">
        <ele>946</ele>
        <time>2016-07-31T09:59:05Z</time>
      </trkpt>
      <trkpt lat="42.43833" lon="0.05131">
        <ele>944.9</ele>
        <time>2016-07-31T09:59:06Z</time>
      </trkpt>
      <trkpt lat="42.43836" lon="0.05134">
        <ele>944.1</ele>
        <time>2016-07-31T09:59:07Z</time>
      </trkpt>
      <trkpt lat="42.43838" lon="0.05136">
        <ele>943.3</ele>
        <time>2016-07-31T09:59:08Z</time>
      </trkpt>
      <trkpt lat="42.4384" lon="0.05139">
        <ele>942.7</ele>
        <time>2016-07-31T09:59:09Z</time>
      </trkpt>
      <trkpt lat="42.43842" lon="0.05143">
        <ele>942</ele>
        <time>2016-07-31T09:59:10Z</time>
      </trkpt>
      <trkpt lat="42.43845" lon="0.05147">
        <ele>941.3</ele>
        <time>2016-07-31T09:59:11Z</time>
      </trkpt>
      <trkpt lat="42.43849" lon="0.05151">
        <ele>940.3</ele>
        <time>2016-07-31T09:59:12Z</time>
      </trkpt>
      <trkpt lat="42.43853" lon="0.05154">
        <ele>939.5</ele>
        <time>2016-07-31T09:59:13Z</time>
      </trkpt>
      <trkpt lat="42.43856" lon="0.05156">
        <ele>938.9</ele>
        <time>2016-07-31T09:59:14Z</time>
      </trkpt>
      <trkpt lat="42.43859" lon="0.05156">
        <ele>938.5</ele>
        <time>2016-07-31T09:59:15Z</time>
      </trkpt>
      <trkpt lat="42.43864" lon="0.05159">
        <ele>937.8</ele>
        <time>2016-07-31T09:59:17Z</time>
      </trkpt>
      <trkpt lat="42.43866" lon="0.05162">
        <ele>937.5</ele>
        <time>2016-07-31T09:59:18Z</time>
      </trkpt>
      <trkpt lat="42.43869" lon="0.05165">
        <ele>937.2</ele>
        <time>2016-07-31T09:59:20Z</time>
      </trkpt>
      <trkpt lat="42.43874" lon="0.05169">
        <ele>936.7</ele>
        <time>2016-07-31T10:00:14Z</time>
      </trkpt>
      <trkpt lat="42.43876" lon="0.05172">
        <ele>936.4</ele>
        <time>2016-07-31T10:00:16Z</time>
      </trkpt>
      <trkpt lat="42.43878" lon="0.05175">
        <ele>936.1</ele>
        <time>2016-07-31T10:00:18Z</time>
      </trkpt>
      <trkpt lat="42.43879" lon="0.05179">
        <ele>936</ele>
        <time>2016-07-31T10:00:20Z</time>
      </trkpt>
      <trkpt lat="42.4388" lon="0.05184">
        <ele>936</ele>
        <time>2016-07-31T10:00:22Z</time>
      </trkpt>
      <trkpt lat="42.43882" lon="0.05188">
        <ele>936</ele>
        <time>2016-07-31T10:00:23Z</time>
      </trkpt>
      <trkpt lat="42.43883" lon="0.05192">
        <ele>936</ele>
        <time>2016-07-31T10:00:24Z</time>
      </trkpt>
      <trkpt lat="42.43884" lon="0.05195">
        <ele>936</ele>
        <time>2016-07-31T10:00:25Z</time>
      </trkpt>
      <trkpt lat="42.43886" lon="0.05198">
        <ele>936</ele>
        <time>2016-07-31T10:00:26Z</time>
      </trkpt>
      <trkpt lat="42.43888" lon="0.05202">
        <ele>936</ele>
        <time>2016-07-31T10:00:27Z</time>
      </trkpt>
      <trkpt lat="42.43891" lon="0.05206">
        <ele>936.1</ele>
        <time>2016-07-31T10:00:29Z</time>
      </trkpt>
      <trkpt lat="42.43893" lon="0.0521">
        <ele>935.8</ele>
        <time>2016-07-31T10:00:31Z</time>
      </trkpt>
      <trkpt lat="42.43896" lon="0.05213">
        <ele>934.8</ele>
        <time>2016-07-31T10:00:33Z</time>
      </trkpt>
      <trkpt lat="42.43898" lon="0.05216">
        <ele>934.1</ele>
        <time>2016-07-31T10:00:35Z</time>
      </trkpt>
      <trkpt lat="42.43899" lon="0.05219">
        <ele>933.3</ele>
        <time>2016-07-31T10:00:37Z</time>
      </trkpt>
      <trkpt lat="42.43901" lon="0.05225">
        <ele>932.1</ele>
        <time>2016-07-31T10:00:39Z</time>
      </trkpt>
      <trkpt lat="42.43902" lon="0.05229">
        <ele>931.1</ele>
        <time>2016-07-31T10:00:41Z</time>
      </trkpt>
      <trkpt lat="42.43905" lon="0.05235">
        <ele>929.9</ele>
        <time>2016-07-31T10:00:43Z</time>
      </trkpt>
      <trkpt lat="42.43906" lon="0.05239">
        <ele>929.2</ele>
        <time>2016-07-31T10:00:45Z</time>
      </trkpt>
      <trkpt lat="42.43908" lon="0.05242">
        <ele>928.6</ele>
        <time>2016-07-31T10:00:52Z</time>
      </trkpt>
      <trkpt lat="42.43909" lon="0.05246">
        <ele>927.9</ele>
        <time>2016-07-31T10:00:57Z</time>
      </trkpt>
      <trkpt lat="42.43911" lon="0.05249">
        <ele>927.4</ele>
        <time>2016-07-31T10:01:04Z</time>
      </trkpt>
      <trkpt lat="42.43913" lon="0.05253">
        <ele>926.8</ele>
        <time>2016-07-31T10:01:07Z</time>
      </trkpt>
      <trkpt lat="42.43913" lon="0.05257">
        <ele>926.2</ele>
        <time>2016-07-31T10:01:09Z</time>
      </trkpt>
      <trkpt lat="42.43914" lon="0.05261">
        <ele>925.5</ele>
        <time>2016-07-31T10:01:11Z</time>
      </trkpt>
      <trkpt lat="42.43914" lon="0.05264">
        <ele>925</ele>
        <time>2016-07-31T10:01:13Z</time>
      </trkpt>
      <trkpt lat="42.43915" lon="0.05268">
        <ele>924.4</ele>
        <time>2016-07-31T10:01:16Z</time>
      </trkpt>
      <trkpt lat="42.43917" lon="0.05272">
        <ele>923.9</ele>
        <time>2016-07-31T10:01:19Z</time>
      </trkpt>
      <trkpt lat="42.43919" lon="0.05275">
        <ele>923.7</ele>
        <time>2016-07-31T10:01:26Z</time>
      </trkpt>
      <trkpt lat="42.43922" lon="0.05277">
        <ele>923.6</ele>
        <time>2016-07-31T10:01:29Z</time>
      </trkpt>
      <trkpt lat="42.43925" lon="0.05281">
        <ele>923.4</ele>
        <time>2016-07-31T10:01:31Z</time>
      </trkpt>
      <trkpt lat="42.43927" lon="0.05284">
        <ele>923.1</ele>
        <time>2016-07-31T10:01:33Z</time>
      </trkpt>
      <trkpt lat="42.43928" lon="0.05288">
        <ele>922.9</ele>
        <time>2016-07-31T10:01:35Z</time>
      </trkpt>
      <trkpt lat="42.4393" lon="0.05292">
        <ele>922.6</ele>
        <time>2016-07-31T10:01:37Z</time>
      </trkpt>
      <trkpt lat="42.43933" lon="0.05296">
        <ele>921.6</ele>
        <time>2016-07-31T10:01:39Z</time>
      </trkpt>
      <trkpt lat="42.43935" lon="0.05299">
        <ele>920.9</ele>
        <time>2016-07-31T10:01:41Z</time>
      </trkpt>
      <trkpt lat="42.43938" lon="0.05304">
        <ele>919.9</ele>
        <time>2016-07-31T10:01:43Z</time>
      </trkpt>
      <trkpt lat="42.4394" lon="0.05309">
        <ele>918.5</ele>
        <time>2016-07-31T10:01:45Z</time>
      </trkpt>
      <trkpt lat="42.43942" lon="0.05314">
        <ele>917.3</ele>
        <time>2016-07-31T10:01:47Z</time>
      </trkpt>
      <trkpt lat="42.43943" lon="0.05318">
        <ele>916.4</ele>
        <time>2016-07-31T10:01:49Z</time>
      </trkpt>
      <trkpt lat="42.43944" lon="0.05322">
        <ele>915.4</ele>
        <time>2016-07-31T10:01:53Z</time>
      </trkpt>
      <trkpt lat="42.43946" lon="0.05325">
        <ele>914.5</ele>
        <time>2016-07-31T10:02:00Z</time>
      </trkpt>
      <trkpt lat="42.43947" lon="0.05329">
        <ele>913.5</ele>
        <time>2016-07-31T10:02:09Z</time>
      </trkpt>
      <trkpt lat="42.43949" lon="0.05332">
        <ele>912.8</ele>
        <time>2016-07-31T10:02:13Z</time>
      </trkpt>
      <trkpt lat="42.4395" lon="0.05336">
        <ele>911.9</ele>
        <time>2016-07-31T10:02:16Z</time>
      </trkpt>
      <trkpt lat="42.43951" lon="0.0534">
        <ele>910.8</ele>
        <time>2016-07-31T10:02:19Z</time>
      </trkpt>
      <trkpt lat="42.43953" lon="0.05343">
        <ele>910.1</ele>
        <time>2016-07-31T10:02:23Z</time>
      </trkpt>
      <trkpt lat="42.43955" lon="0.05345">
        <ele>909.6</ele>
        <time>2016-07-31T10:02:34Z</time>
      </trkpt>
      <trkpt lat="42.43958" lon="0.05353">
        <ele>907.6</ele>
        <time>2016-07-31T10:02:52Z</time>
      </trkpt>
      <trkpt lat="42.4396" lon="0.05355">
        <ele>907.2</ele>
        <time>2016-07-31T10:03:06Z</time>
      </trkpt>
      <trkpt lat="42.43962" lon="0.05359">
        <ele>906.1</ele>
        <time>2016-07-31T10:03:10Z</time>
      </trkpt>
      <trkpt lat="42.43964" lon="0.05363">
        <ele>905.2</ele>
        <time>2016-07-31T10:03:12Z</time>
      </trkpt>
      <trkpt lat="42.43966" lon="0.05368">
        <ele>903.8</ele>
        <time>2016-07-31T10:03:14Z</time>
      </trkpt>
      <trkpt lat="42.43968" lon="0.05373">
        <ele>902.6</ele>
        <time>2016-07-31T10:03:16Z</time>
      </trkpt>
      <trkpt lat="42.4397" lon="0.05378">
        <ele>901.4</ele>
        <time>2016-07-31T10:03:18Z</time>
      </trkpt>
      <trkpt lat="42.43972" lon="0.05382">
        <ele>900.2</ele>
        <time>2016-07-31T10:03:20Z</time>
      </trkpt>
      <trkpt lat="42.43974" lon="0.05387">
        <ele>898.8</ele>
        <time>2016-07-31T10:03:22Z</time>
      </trkpt>
      <trkpt lat="42.43975" lon="0.05391">
        <ele>897.8</ele>
        <time>2016-07-31T10:03:24Z</time>
      </trkpt>
      <trkpt lat="42.43978" lon="0.05395">
        <ele>896.8</ele>
        <time>2016-07-31T10:03:26Z</time>
      </trkpt>
      <trkpt lat="42.4398" lon="0.05399">
        <ele>895.8</ele>
        <time>2016-07-31T10:03:28Z</time>
      </trkpt>
      <trkpt lat="42.43983" lon="0.05403">
        <ele>895</ele>
        <time>2016-07-31T10:03:30Z</time>
      </trkpt>
      <trkpt lat="42.43985" lon="0.05407">
        <ele>894</ele>
        <time>2016-07-31T10:03:32Z</time>
      </trkpt>
      <trkpt lat="42.43988" lon="0.05411">
        <ele>892.8</ele>
        <time>2016-07-31T10:03:34Z</time>
      </trkpt>
      <trkpt lat="42.4399" lon="0.05416">
        <ele>891.7</ele>
        <time>2016-07-31T10:03:36Z</time>
      </trkpt>
      <trkpt lat="42.43992" lon="0.05419">
        <ele>891</ele>
        <time>2016-07-31T10:03:38Z</time>
      </trkpt>
      <trkpt lat="42.43994" lon="0.05421">
        <ele>890.3</ele>
        <time>2016-07-31T10:03:40Z</time>
      </trkpt>
      <trkpt lat="42.43995" lon="0.05425">
        <ele>889.4</ele>
        <time>2016-07-31T10:03:42Z</time>
      </trkpt>
      <trkpt lat="42.43996" lon="0.05428">
        <ele>888.4</ele>
        <time>2016-07-31T10:03:44Z</time>
      </trkpt>
      <trkpt lat="42.43998" lon="0.05431">
        <ele>887.7</ele>
        <time>2016-07-31T10:03:56Z</time>
      </trkpt>
      <trkpt lat="42.43998" lon="0.05436">
        <ele>886.4</ele>
        <time>2016-07-31T10:04:07Z</time>
      </trkpt>
      <trkpt lat="42.44" lon="0.0544">
        <ele>885.2</ele>
        <time>2016-07-31T10:04:15Z</time>
      </trkpt>
      <trkpt lat="42.44001" lon="0.05443">
        <ele>884.3</ele>
        <time>2016-07-31T10:04:21Z</time>
      </trkpt>
      <trkpt lat="42.44002" lon="0.05447">
        <ele>883.3</ele>
        <time>2016-07-31T10:04:27Z</time>
      </trkpt>
      <trkpt lat="42.44004" lon="0.0545">
        <ele>882.7</ele>
        <time>2016-07-31T10:04:33Z</time>
      </trkpt>
      <trkpt lat="42.44005" lon="0.05453">
        <ele>881.8</ele>
        <time>2016-07-31T10:04:37Z</time>
      </trkpt>
      <trkpt lat="42.44006" lon="0.05457">
        <ele>880.7</ele>
        <time>2016-07-31T10:04:43Z</time>
      </trkpt>
      <trkpt lat="42.44009" lon="0.05459">
        <ele>880.1</ele>
        <time>2016-07-31T10:04:48Z</time>
      </trkpt>
      <trkpt lat="42.4401" lon="0.05463">
        <ele>879.2</ele>
        <time>2016-07-31T10:04:55Z</time>
      </trkpt>
      <trkpt lat="42.44012" lon="0.05466">
        <ele>878.5</ele>
        <time>2016-07-31T10:05:02Z</time>
      </trkpt>
      <trkpt lat="42.44014" lon="0.05469">
        <ele>877.8</ele>
        <time>2016-07-31T10:05:05Z</time>
      </trkpt>
      <trkpt lat="42.44015" lon="0.05473">
        <ele>876.6</ele>
        <time>2016-07-31T10:05:09Z</time>
      </trkpt>
      <trkpt lat="42.44017" lon="0.05476">
        <ele>875.7</ele>
        <time>2016-07-31T10:05:15Z</time>
      </trkpt>
      <trkpt lat="42.44017" lon="0.0548">
        <ele>874.5</ele>
        <time>2016-07-31T10:05:19Z</time>
      </trkpt>
      <trkpt lat="42.44018" lon="0.05484">
        <ele>873.4</ele>
        <time>2016-07-31T10:05:23Z</time>
      </trkpt>
      <trkpt lat="42.44019" lon="0.05487">
        <ele>872.4</ele>
        <time>2016-07-31T10:05:27Z</time>
      </trkpt>
      <trkpt lat="42.44022" lon="0.05491">
        <ele>871.6</ele>
        <time>2016-07-31T10:05:31Z</time>
      </trkpt>
      <trkpt lat="42.44024" lon="0.05494">
        <ele>870.8</ele>
        <time>2016-07-31T10:05:34Z</time>
      </trkpt>
      <trkpt lat="42.44026" lon="0.05496">
        <ele>870.2</ele>
        <time>2016-07-31T10:05:37Z</time>
      </trkpt>
      <trkpt lat="42.44028" lon="0.05501">
        <ele>869</ele>
        <time>2016-07-31T10:05:39Z</time>
      </trkpt>
      <trkpt lat="42.44029" lon="0.05505">
        <ele>867.5</ele>
        <time>2016-07-31T10:05:41Z</time>
      </trkpt>
      <trkpt lat="42.4403" lon="0.05509">
        <ele>866.5</ele>
        <time>2016-07-31T10:05:43Z</time>
      </trkpt>
      <trkpt lat="42.44032" lon="0.05513">
        <ele>865.6</ele>
        <time>2016-07-31T10:05:45Z</time>
      </trkpt>
      <trkpt lat="42.44034" lon="0.05516">
        <ele>864.7</ele>
        <time>2016-07-31T10:05:47Z</time>
      </trkpt>
      <trkpt lat="42.44037" lon="0.0552">
        <ele>863.6</ele>
        <time>2016-07-31T10:05:49Z</time>
      </trkpt>
      <trkpt lat="42.44039" lon="0.05524">
        <ele>862.3</ele>
        <time>2016-07-31T10:05:51Z</time>
      </trkpt>
      <trkpt lat="42.44041" lon="0.05529">
        <ele>861</ele>
        <time>2016-07-31T10:05:53Z</time>
      </trkpt>
      <trkpt lat="42.44043" lon="0.05533">
        <ele>860</ele>
        <time>2016-07-31T10:05:55Z</time>
      </trkpt>
      <trkpt lat="42.44044" lon="0.05536">
        <ele>859.1</ele>
        <time>2016-07-31T10:05:57Z</time>
      </trkpt>
      <trkpt lat="42.44046" lon="0.0554">
        <ele>858</ele>
        <time>2016-07-31T10:05:59Z</time>
      </trkpt>
      <trkpt lat="42.44047" lon="0.05544">
        <ele>857.2</ele>
        <time>2016-07-31T10:06:01Z</time>
      </trkpt>
      <trkpt lat="42.4405" lon="0.05547">
        <ele>856.6</ele>
        <time>2016-07-31T10:06:04Z</time>
      </trkpt>
      <trkpt lat="42.44052" lon="0.0555">
        <ele>855.9</ele>
        <time>2016-07-31T10:06:06Z</time>
      </trkpt>
      <trkpt lat="42.44054" lon="0.05554">
        <ele>855</ele>
        <time>2016-07-31T10:06:08Z</time>
      </trkpt>
      <trkpt lat="42.44056" lon="0.05558">
        <ele>854.3</ele>
        <time>2016-07-31T10:06:10Z</time>
      </trkpt>
      <trkpt lat="42.44059" lon="0.05561">
        <ele>853.8</ele>
        <time>2016-07-31T10:06:12Z</time>
      </trkpt>
      <trkpt lat="42.44061" lon="0.05564">
        <ele>853.1</ele>
        <time>2016-07-31T10:06:14Z</time>
      </trkpt>
      <trkpt lat="42.44062" lon="0.05568">
        <ele>852.2</ele>
        <time>2016-07-31T10:06:16Z</time>
      </trkpt>
      <trkpt lat="42.44064" lon="0.05572">
        <ele>851.1</ele>
        <time>2016-07-31T10:06:18Z</time>
      </trkpt>
      <trkpt lat="42.44066" lon="0.05577">
        <ele>850.1</ele>
        <time>2016-07-31T10:06:20Z</time>
      </trkpt>
      <trkpt lat="42.44069" lon="0.05581">
        <ele>849</ele>
        <time>2016-07-31T10:06:22Z</time>
      </trkpt>
      <trkpt lat="42.4407" lon="0.05585">
        <ele>848</ele>
        <time>2016-07-31T10:06:24Z</time>
      </trkpt>
      <trkpt lat="42.44075" lon="0.05591">
        <ele>846.8</ele>
        <time>2016-07-31T10:06:45Z</time>
      </trkpt>
      <trkpt lat="42.44076" lon="0.05594">
        <ele>846</ele>
        <time>2016-07-31T10:06:51Z</time>
      </trkpt>
      <trkpt lat="42.44077" lon="0.05599">
        <ele>844.8</ele>
        <time>2016-07-31T10:06:55Z</time>
      </trkpt>
      <trkpt lat="42.44077" lon="0.05605">
        <ele>843.1</ele>
        <time>2016-07-31T10:06:57Z</time>
      </trkpt>
      <trkpt lat="42.44079" lon="0.05611">
        <ele>841.3</ele>
        <time>2016-07-31T10:06:59Z</time>
      </trkpt>
      <trkpt lat="42.44081" lon="0.05615">
        <ele>840.3</ele>
        <time>2016-07-31T10:07:03Z</time>
      </trkpt>
      <trkpt lat="42.44084" lon="0.05618">
        <ele>839.6</ele>
        <time>2016-07-31T10:07:05Z</time>
      </trkpt>
      <trkpt lat="42.44087" lon="0.05622">
        <ele>838.7</ele>
        <time>2016-07-31T10:07:07Z</time>
      </trkpt>
      <trkpt lat="42.44089" lon="0.05625">
        <ele>838</ele>
        <time>2016-07-31T10:07:09Z</time>
      </trkpt>
      <trkpt lat="42.44091" lon="0.05628">
        <ele>837.2</ele>
        <time>2016-07-31T10:07:11Z</time>
      </trkpt>
      <trkpt lat="42.44094" lon="0.05633">
        <ele>836</ele>
        <time>2016-07-31T10:07:13Z</time>
      </trkpt>
      <trkpt lat="42.44097" lon="0.05638">
        <ele>834.7</ele>
        <time>2016-07-31T10:07:15Z</time>
      </trkpt>
      <trkpt lat="42.44098" lon="0.05642">
        <ele>833.6</ele>
        <time>2016-07-31T10:07:17Z</time>
      </trkpt>
      <trkpt lat="42.44099" lon="0.05647">
        <ele>832.1</ele>
        <time>2016-07-31T10:07:19Z</time>
      </trkpt>
      <trkpt lat="42.441" lon="0.0565">
        <ele>831.1</ele>
        <time>2016-07-31T10:07:21Z</time>
      </trkpt>
      <trkpt lat="42.44102" lon="0.05654">
        <ele>830.1</ele>
        <time>2016-07-31T10:07:23Z</time>
      </trkpt>
      <trkpt lat="42.44104" lon="0.05657">
        <ele>829.4</ele>
        <time>2016-07-31T10:07:24Z</time>
      </trkpt>
      <trkpt lat="42.44106" lon="0.05661">
        <ele>828.5</ele>
        <time>2016-07-31T10:07:25Z</time>
      </trkpt>
      <trkpt lat="42.44109" lon="0.05665">
        <ele>827.6</ele>
        <time>2016-07-31T10:07:26Z</time>
      </trkpt>
      <trkpt lat="42.44111" lon="0.05668">
        <ele>826.8</ele>
        <time>2016-07-31T10:07:27Z</time>
      </trkpt>
      <trkpt lat="42.44115" lon="0.05672">
        <ele>826.1</ele>
        <time>2016-07-31T10:07:29Z</time>
      </trkpt>
      <trkpt lat="42.44118" lon="0.05675">
        <ele>825.5</ele>
        <time>2016-07-31T10:07:31Z</time>
      </trkpt>
      <trkpt lat="42.4412" lon="0.05678">
        <ele>824.5</ele>
        <time>2016-07-31T10:07:33Z</time>
      </trkpt>
      <trkpt lat="42.44123" lon="0.05682">
        <ele>823.6</ele>
        <time>2016-07-31T10:07:36Z</time>
      </trkpt>
      <trkpt lat="42.44123" lon="0.05686">
        <ele>822.4</ele>
        <time>2016-07-31T10:07:47Z</time>
      </trkpt>
      <trkpt lat="42.44125" lon="0.05689">
        <ele>821.8</ele>
        <time>2016-07-31T10:07:51Z</time>
      </trkpt>
      <trkpt lat="42.44126" lon="0.05692">
        <ele>821</ele>
        <time>2016-07-31T10:07:55Z</time>
      </trkpt>
      <trkpt lat="42.44128" lon="0.05696">
        <ele>820.1</ele>
        <time>2016-07-31T10:07:58Z</time>
      </trkpt>
      <trkpt lat="42.44129" lon="0.05701">
        <ele>819</ele>
        <time>2016-07-31T10:08:02Z</time>
      </trkpt>
      <trkpt lat="42.44131" lon="0.05703">
        <ele>818.5</ele>
        <time>2016-07-31T10:08:05Z</time>
      </trkpt>
      <trkpt lat="42.44134" lon="0.05706">
        <ele>818.3</ele>
        <time>2016-07-31T10:08:08Z</time>
      </trkpt>
      <trkpt lat="42.44136" lon="0.05709">
        <ele>817.7</ele>
        <time>2016-07-31T10:08:12Z</time>
      </trkpt>
      <trkpt lat="42.44137" lon="0.05713">
        <ele>816.8</ele>
        <time>2016-07-31T10:08:17Z</time>
      </trkpt>
      <trkpt lat="42.44138" lon="0.05717">
        <ele>815.6</ele>
        <time>2016-07-31T10:08:25Z</time>
      </trkpt>
      <trkpt lat="42.44138" lon="0.05721">
        <ele>814.5</ele>
        <time>2016-07-31T10:08:28Z</time>
      </trkpt>
      <trkpt lat="42.4414" lon="0.05723">
        <ele>814.4</ele>
        <time>2016-07-31T10:08:39Z</time>
      </trkpt>
      <trkpt lat="42.44143" lon="0.05731">
        <ele>812.5</ele>
        <time>2016-07-31T10:09:25Z</time>
      </trkpt>
      <trkpt lat="42.44144" lon="0.05734">
        <ele>811.8</ele>
        <time>2016-07-31T10:09:28Z</time>
      </trkpt>
      <trkpt lat="42.44147" lon="0.05737">
        <ele>811.2</ele>
        <time>2016-07-31T10:09:31Z</time>
      </trkpt>
      <trkpt lat="42.44148" lon="0.05741">
        <ele>810.4</ele>
        <time>2016-07-31T10:09:34Z</time>
      </trkpt>
      <trkpt lat="42.4415" lon="0.05743">
        <ele>809.9</ele>
        <time>2016-07-31T10:09:37Z</time>
      </trkpt>
      <trkpt lat="42.44151" lon="0.05747">
        <ele>809.2</ele>
        <time>2016-07-31T10:09:41Z</time>
      </trkpt>
      <trkpt lat="42.44153" lon="0.05751">
        <ele>808.2</ele>
        <time>2016-07-31T10:09:45Z</time>
      </trkpt>
      <trkpt lat="42.44155" lon="0.05754">
        <ele>807.8</ele>
        <time>2016-07-31T10:09:48Z</time>
      </trkpt>
      <trkpt lat="42.44157" lon="0.05757">
        <ele>807</ele>
        <time>2016-07-31T10:09:51Z</time>
      </trkpt>
      <trkpt lat="42.44159" lon="0.05761">
        <ele>806.3</ele>
        <time>2016-07-31T10:09:54Z</time>
      </trkpt>
      <trkpt lat="42.44159" lon="0.05766">
        <ele>805</ele>
        <time>2016-07-31T10:09:58Z</time>
      </trkpt>
      <trkpt lat="42.4416" lon="0.05769">
        <ele>804</ele>
        <time>2016-07-31T10:10:01Z</time>
      </trkpt>
      <trkpt lat="42.44162" lon="0.05773">
        <ele>803.4</ele>
        <time>2016-07-31T10:10:04Z</time>
      </trkpt>
      <trkpt lat="42.44164" lon="0.05776">
        <ele>802.7</ele>
        <time>2016-07-31T10:10:10Z</time>
      </trkpt>
      <trkpt lat="42.44166" lon="0.05779">
        <ele>802.2</ele>
        <time>2016-07-31T10:10:13Z</time>
      </trkpt>
      <trkpt lat="42.44167" lon="0.05783">
        <ele>801.1</ele>
        <time>2016-07-31T10:10:16Z</time>
      </trkpt>
      <trkpt lat="42.44168" lon="0.05787">
        <ele>800</ele>
        <time>2016-07-31T10:10:18Z</time>
      </trkpt>
      <trkpt lat="42.44168" lon="0.05791">
        <ele>798.9</ele>
        <time>2016-07-31T10:10:22Z</time>
      </trkpt>
      <trkpt lat="42.4417" lon="0.05795">
        <ele>798.1</ele>
        <time>2016-07-31T10:10:26Z</time>
      </trkpt>
      <trkpt lat="42.44172" lon="0.05798">
        <ele>797.8</ele>
        <time>2016-07-31T10:10:30Z</time>
      </trkpt>
      <trkpt lat="42.44174" lon="0.058">
        <ele>797.7</ele>
        <time>2016-07-31T10:10:34Z</time>
      </trkpt>
      <trkpt lat="42.44178" lon="0.058">
        <ele>798</ele>
        <time>2016-07-31T10:10:37Z</time>
      </trkpt>
      <trkpt lat="42.4418" lon="0.05802">
        <ele>797.9</ele>
        <time>2016-07-31T10:10:40Z</time>
      </trkpt>
      <trkpt lat="42.44182" lon="0.05805">
        <ele>797.4</ele>
        <time>2016-07-31T10:10:45Z</time>
      </trkpt>
      <trkpt lat="42.44184" lon="0.05809">
        <ele>796.6</ele>
        <time>2016-07-31T10:10:49Z</time>
      </trkpt>
      <trkpt lat="42.44184" lon="0.05813">
        <ele>795.7</ele>
        <time>2016-07-31T10:10:52Z</time>
      </trkpt>
      <trkpt lat="42.44186" lon="0.05817">
        <ele>795</ele>
        <time>2016-07-31T10:10:56Z</time>
      </trkpt>
      <trkpt lat="42.44189" lon="0.05819">
        <ele>794.8</ele>
        <time>2016-07-31T10:10:59Z</time>
      </trkpt>
      <trkpt lat="42.44191" lon="0.05822">
        <ele>794.3</ele>
        <time>2016-07-31T10:11:03Z</time>
      </trkpt>
      <trkpt lat="42.44192" lon="0.05826">
        <ele>793.3</ele>
        <time>2016-07-31T10:11:08Z</time>
      </trkpt>
      <trkpt lat="42.44192" lon="0.0583">
        <ele>792.3</ele>
        <time>2016-07-31T10:11:12Z</time>
      </trkpt>
      <trkpt lat="42.44193" lon="0.05835">
        <ele>791</ele>
        <time>2016-07-31T10:11:16Z</time>
      </trkpt>
      <trkpt lat="42.44195" lon="0.0584">
        <ele>790</ele>
        <time>2016-07-31T10:11:18Z</time>
      </trkpt>
      <trkpt lat="42.44198" lon="0.05844">
        <ele>789.2</ele>
        <time>2016-07-31T10:11:20Z</time>
      </trkpt>
      <trkpt lat="42.44201" lon="0.05848">
        <ele>788.5</ele>
        <time>2016-07-31T10:11:22Z</time>
      </trkpt>
      <trkpt lat="42.44204" lon="0.05852">
        <ele>788</ele>
        <time>2016-07-31T10:11:24Z</time>
      </trkpt>
      <trkpt lat="42.44207" lon="0.05855">
        <ele>787.3</ele>
        <time>2016-07-31T10:11:26Z</time>
      </trkpt>
      <trkpt lat="42.4421" lon="0.05861">
        <ele>786.2</ele>
        <time>2016-07-31T10:11:28Z</time>
      </trkpt>
      <trkpt lat="42.44213" lon="0.05866">
        <ele>785.1</ele>
        <time>2016-07-31T10:11:30Z</time>
      </trkpt>
      <trkpt lat="42.44214" lon="0.05869">
        <ele>784.2</ele>
        <time>2016-07-31T10:11:31Z</time>
      </trkpt>
      <trkpt lat="42.44215" lon="0.05875">
        <ele>782.7</ele>
        <time>2016-07-31T10:11:33Z</time>
      </trkpt>
      <trkpt lat="42.44217" lon="0.05881">
        <ele>781.6</ele>
        <time>2016-07-31T10:11:35Z</time>
      </trkpt>
      <trkpt lat="42.44219" lon="0.05888">
        <ele>780.1</ele>
        <time>2016-07-31T10:11:37Z</time>
      </trkpt>
      <trkpt lat="42.44221" lon="0.05892">
        <ele>779.4</ele>
        <time>2016-07-31T10:11:38Z</time>
      </trkpt>
      <trkpt lat="42.44222" lon="0.05896">
        <ele>778.7</ele>
        <time>2016-07-31T10:11:39Z</time>
      </trkpt>
      <trkpt lat="42.44224" lon="0.05899">
        <ele>778.1</ele>
        <time>2016-07-31T10:11:40Z</time>
      </trkpt>
      <trkpt lat="42.44225" lon="0.05904">
        <ele>777</ele>
        <time>2016-07-31T10:11:42Z</time>
      </trkpt>
      <trkpt lat="42.44225" lon="0.05909">
        <ele>775.8</ele>
        <time>2016-07-31T10:11:44Z</time>
      </trkpt>
      <trkpt lat="42.44224" lon="0.05914">
        <ele>774.6</ele>
        <time>2016-07-31T10:11:46Z</time>
      </trkpt>
      <trkpt lat="42.44226" lon="0.05919">
        <ele>773.6</ele>
        <time>2016-07-31T10:11:48Z</time>
      </trkpt>
      <trkpt lat="42.44229" lon="0.05922">
        <ele>773.2</ele>
        <time>2016-07-31T10:11:50Z</time>
      </trkpt>
      <trkpt lat="42.44233" lon="0.05926">
        <ele>772.6</ele>
        <time>2016-07-31T10:11:52Z</time>
      </trkpt>
      <trkpt lat="42.44236" lon="0.05931">
        <ele>771.8</ele>
        <time>2016-07-31T10:11:54Z</time>
      </trkpt>
      <trkpt lat="42.44238" lon="0.05935">
        <ele>771</ele>
        <time>2016-07-31T10:11:56Z</time>
      </trkpt>
      <trkpt lat="42.4424" lon="0.0594">
        <ele>770</ele>
        <time>2016-07-31T10:11:58Z</time>
      </trkpt>
      <trkpt lat="42.44241" lon="0.05946">
        <ele>768.6</ele>
        <time>2016-07-31T10:12:00Z</time>
      </trkpt>
      <trkpt lat="42.44242" lon="0.05952">
        <ele>767.4</ele>
        <time>2016-07-31T10:12:02Z</time>
      </trkpt>
      <trkpt lat="42.44244" lon="0.05955">
        <ele>766.7</ele>
        <time>2016-07-31T10:12:04Z</time>
      </trkpt>
      <trkpt lat="42.44247" lon="0.05958">
        <ele>766.4</ele>
        <time>2016-07-31T10:12:06Z</time>
      </trkpt>
      <trkpt lat="42.44249" lon="0.05961">
        <ele>765.4</ele>
        <time>2016-07-31T10:12:18Z</time>
      </trkpt>
      <trkpt lat="42.4425" lon="0.05965">
        <ele>764.5</ele>
        <time>2016-07-31T10:12:34Z</time>
      </trkpt>
      <trkpt lat="42.44251" lon="0.05969">
        <ele>763.4</ele>
        <time>2016-07-31T10:12:38Z</time>
      </trkpt>
      <trkpt lat="42.44252" lon="0.05972">
        <ele>762.5</ele>
        <time>2016-07-31T10:12:42Z</time>
      </trkpt>
      <trkpt lat="42.44254" lon="0.05976">
        <ele>761.3</ele>
        <time>2016-07-31T10:12:51Z</time>
      </trkpt>
      <trkpt lat="42.44255" lon="0.0598">
        <ele>760.1</ele>
        <time>2016-07-31T10:12:55Z</time>
      </trkpt>
      <trkpt lat="42.44255" lon="0.05984">
        <ele>758.9</ele>
        <time>2016-07-31T10:13:02Z</time>
      </trkpt>
      <trkpt lat="42.44256" lon="0.05988">
        <ele>757.8</ele>
        <time>2016-07-31T10:13:11Z</time>
      </trkpt>
      <trkpt lat="42.44258" lon="0.05991">
        <ele>757.2</ele>
        <time>2016-07-31T10:13:16Z</time>
      </trkpt>
      <trkpt lat="42.4426" lon="0.05994">
        <ele>756.3</ele>
        <time>2016-07-31T10:13:19Z</time>
      </trkpt>
      <trkpt lat="42.44263" lon="0.05998">
        <ele>755.3</ele>
        <time>2016-07-31T10:13:22Z</time>
      </trkpt>
      <trkpt lat="42.44265" lon="0.06">
        <ele>754.9</ele>
        <time>2016-07-31T10:13:26Z</time>
      </trkpt>
      <trkpt lat="42.44266" lon="0.06004">
        <ele>753.7</ele>
        <time>2016-07-31T10:13:32Z</time>
      </trkpt>
      <trkpt lat="42.44268" lon="0.06006">
        <ele>753</ele>
        <time>2016-07-31T10:13:37Z</time>
      </trkpt>
      <trkpt lat="42.44269" lon="0.0601">
        <ele>751.8</ele>
        <time>2016-07-31T10:13:42Z</time>
      </trkpt>
      <trkpt lat="42.44269" lon="0.06014">
        <ele>750.5</ele>
        <time>2016-07-31T10:13:45Z</time>
      </trkpt>
      <trkpt lat="42.44271" lon="0.06018">
        <ele>749.5</ele>
        <time>2016-07-31T10:13:50Z</time>
      </trkpt>
      <trkpt lat="42.44273" lon="0.0602">
        <ele>748.9</ele>
        <time>2016-07-31T10:13:57Z</time>
      </trkpt>
      <trkpt lat="42.44275" lon="0.06026">
        <ele>747.2</ele>
        <time>2016-07-31T10:13:59Z</time>
      </trkpt>
      <trkpt lat="42.44276" lon="0.0603">
        <ele>746</ele>
        <time>2016-07-31T10:14:00Z</time>
      </trkpt>
      <trkpt lat="42.44278" lon="0.06035">
        <ele>744.6</ele>
        <time>2016-07-31T10:14:01Z</time>
      </trkpt>
      <trkpt lat="42.44279" lon="0.06039">
        <ele>743.1</ele>
        <time>2016-07-31T10:14:02Z</time>
      </trkpt>
      <trkpt lat="42.44281" lon="0.06043">
        <ele>742.2</ele>
        <time>2016-07-31T10:14:03Z</time>
      </trkpt>
      <trkpt lat="42.44284" lon="0.06049">
        <ele>740.2</ele>
        <time>2016-07-31T10:14:05Z</time>
      </trkpt>
      <trkpt lat="42.44287" lon="0.06054">
        <ele>738.7</ele>
        <time>2016-07-31T10:14:06Z</time>
      </trkpt>
      <trkpt lat="42.4429" lon="0.06059">
        <ele>737.2</ele>
        <time>2016-07-31T10:14:07Z</time>
      </trkpt>
      <trkpt lat="42.44293" lon="0.06065">
        <ele>735.7</ele>
        <time>2016-07-31T10:14:08Z</time>
      </trkpt>
      <trkpt lat="42.44296" lon="0.0607">
        <ele>734.1</ele>
        <time>2016-07-31T10:14:09Z</time>
      </trkpt>
      <trkpt lat="42.44299" lon="0.06077">
        <ele>732.4</ele>
        <time>2016-07-31T10:14:10Z</time>
      </trkpt>
      <trkpt lat="42.44301" lon="0.06083">
        <ele>730.8</ele>
        <time>2016-07-31T10:14:11Z</time>
      </trkpt>
      <trkpt lat="42.44304" lon="0.06087">
        <ele>729.6</ele>
        <time>2016-07-31T10:14:12Z</time>
      </trkpt>
      <trkpt lat="42.44307" lon="0.06092">
        <ele>728.6</ele>
        <time>2016-07-31T10:14:13Z</time>
      </trkpt>
      <trkpt lat="42.4431" lon="0.06096">
        <ele>727.7</ele>
        <time>2016-07-31T10:14:14Z</time>
      </trkpt>
      <trkpt lat="42.44313" lon="0.06099">
        <ele>726.8</ele>
        <time>2016-07-31T10:14:15Z</time>
      </trkpt>
      <trkpt lat="42.44316" lon="0.06103">
        <ele>726.1</ele>
        <time>2016-07-31T10:14:16Z</time>
      </trkpt>
      <trkpt lat="42.44319" lon="0.06105">
        <ele>725.6</ele>
        <time>2016-07-31T10:14:17Z</time>
      </trkpt>
      <trkpt lat="42.44323" lon="0.06109">
        <ele>724.9</ele>
        <time>2016-07-31T10:14:19Z</time>
      </trkpt>
      <trkpt lat="42.44325" lon="0.06112">
        <ele>724.1</ele>
        <time>2016-07-31T10:14:20Z</time>
      </trkpt>
      <trkpt lat="42.44327" lon="0.06116">
        <ele>723.2</ele>
        <time>2016-07-31T10:14:21Z</time>
      </trkpt>
      <trkpt lat="42.44328" lon="0.0612">
        <ele>722</ele>
        <time>2016-07-31T10:14:22Z</time>
      </trkpt>
      <trkpt lat="42.4433" lon="0.06125">
        <ele>720.6</ele>
        <time>2016-07-31T10:14:24Z</time>
      </trkpt>
      <trkpt lat="42.44332" lon="0.06128">
        <ele>720</ele>
        <time>2016-07-31T10:14:26Z</time>
      </trkpt>
      <trkpt lat="42.44334" lon="0.06133">
        <ele>718.7</ele>
        <time>2016-07-31T10:14:28Z</time>
      </trkpt>
      <trkpt lat="42.44335" lon="0.06138">
        <ele>717.5</ele>
        <time>2016-07-31T10:14:30Z</time>
      </trkpt>
      <trkpt lat="42.44337" lon="0.06142">
        <ele>716.6</ele>
        <time>2016-07-31T10:14:31Z</time>
      </trkpt>
      <trkpt lat="42.44338" lon="0.06146">
        <ele>715.7</ele>
        <time>2016-07-31T10:14:32Z</time>
      </trkpt>
      <trkpt lat="42.44339" lon="0.06151">
        <ele>714.2</ele>
        <time>2016-07-31T10:14:34Z</time>
      </trkpt>
      <trkpt lat="42.44336" lon="0.06151">
        <ele>714</ele>
        <time>2016-07-31T10:15:45Z</time>
      </trkpt>
      <trkpt lat="42.44332" lon="0.06151">
        <ele>713.6</ele>
        <time>2016-07-31T10:15:47Z</time>
      </trkpt>
      <trkpt lat="42.44328" lon="0.06151">
        <ele>713.1</ele>
        <time>2016-07-31T10:15:49Z</time>
      </trkpt>
      <trkpt lat="42.44326" lon="0.06153">
        <ele>712.1</ele>
        <time>2016-07-31T10:15:52Z</time>
      </trkpt>
      <trkpt lat="42.44327" lon="0.06157">
        <ele>711.4</ele>
        <time>2016-07-31T10:15:56Z</time>
      </trkpt>
      <trkpt lat="42.44332" lon="0.06158">
        <ele>711.4</ele>
        <time>2016-07-31T10:15:59Z</time>
      </trkpt>
      <trkpt lat="42.44335" lon="0.06162">
        <ele>710.9</ele>
        <time>2016-07-31T10:16:01Z</time>
      </trkpt>
      <trkpt lat="42.44336" lon="0.06167">
        <ele>709.4</ele>
        <time>2016-07-31T10:16:03Z</time>
      </trkpt>
      <trkpt lat="42.44334" lon="0.06173">
        <ele>707.6</ele>
        <time>2016-07-31T10:16:05Z</time>
      </trkpt>
      <trkpt lat="42.44332" lon="0.06176">
        <ele>706.5</ele>
        <time>2016-07-31T10:16:07Z</time>
      </trkpt>
      <trkpt lat="42.44335" lon="0.06177">
        <ele>706.6</ele>
        <time>2016-07-31T10:16:17Z</time>
      </trkpt>
      <trkpt lat="42.44334" lon="0.06181">
        <ele>705.4</ele>
        <time>2016-07-31T10:16:25Z</time>
      </trkpt>
      <trkpt lat="42.44333" lon="0.06185">
        <ele>704</ele>
        <time>2016-07-31T10:16:28Z</time>
      </trkpt>
      <trkpt lat="42.44331" lon="0.06189">
        <ele>702.7</ele>
        <time>2016-07-31T10:16:30Z</time>
      </trkpt>
      <trkpt lat="42.44332" lon="0.06193">
        <ele>701.8</ele>
        <time>2016-07-31T10:16:34Z</time>
      </trkpt>
      <trkpt lat="42.44336" lon="0.06193">
        <ele>702.2</ele>
        <time>2016-07-31T10:16:36Z</time>
      </trkpt>
      <trkpt lat="42.44339" lon="0.06192">
        <ele>702.8</ele>
        <time>2016-07-31T10:16:38Z</time>
      </trkpt>
      <trkpt lat="42.4434" lon="0.06198">
        <ele>701.3</ele>
        <time>2016-07-31T10:16:41Z</time>
      </trkpt>
      <trkpt lat="42.44338" lon="0.06202">
        <ele>699.8</ele>
        <time>2016-07-31T10:16:43Z</time>
      </trkpt>
      <trkpt lat="42.44337" lon="0.06207">
        <ele>698.4</ele>
        <time>2016-07-31T10:16:45Z</time>
      </trkpt>
      <trkpt lat="42.44341" lon="0.06208">
        <ele>698.6</ele>
        <time>2016-07-31T10:16:49Z</time>
      </trkpt>
      <trkpt lat="42.44345" lon="0.06205">
        <ele>699.8</ele>
        <time>2016-07-31T10:16:51Z</time>
      </trkpt>
      <trkpt lat="42.44348" lon="0.06203">
        <ele>700.8</ele>
        <time>2016-07-31T10:16:53Z</time>
      </trkpt>
      <trkpt lat="42.44351" lon="0.06201">
        <ele>701.8</ele>
        <time>2016-07-31T10:16:55Z</time>
      </trkpt>
      <trkpt lat="42.44353" lon="0.06199">
        <ele>702.8</ele>
        <time>2016-07-31T10:16:57Z</time>
      </trkpt>
      <trkpt lat="42.44356" lon="0.06197">
        <ele>703.6</ele>
        <time>2016-07-31T10:16:59Z</time>
      </trkpt>
      <trkpt lat="42.44359" lon="0.06199">
        <ele>703.4</ele>
        <time>2016-07-31T10:17:09Z</time>
      </trkpt>
      <trkpt lat="42.4436" lon="0.06203">
        <ele>702.4</ele>
        <time>2016-07-31T10:17:15Z</time>
      </trkpt>
      <trkpt lat="42.44359" lon="0.06208">
        <ele>701.1</ele>
        <time>2016-07-31T10:17:18Z</time>
      </trkpt>
      <trkpt lat="42.44357" lon="0.06209">
        <ele>700.5</ele>
        <time>2016-07-31T10:17:21Z</time>
      </trkpt>
      <trkpt lat="42.44355" lon="0.06212">
        <ele>699.1</ele>
        <time>2016-07-31T10:17:25Z</time>
      </trkpt>
      <trkpt lat="42.44354" lon="0.06216">
        <ele>697.8</ele>
        <time>2016-07-31T10:17:28Z</time>
      </trkpt>
      <trkpt lat="42.44357" lon="0.06216">
        <ele>698.3</ele>
        <time>2016-07-31T10:17:35Z</time>
      </trkpt>
      <trkpt lat="42.4436" lon="0.06214">
        <ele>699.2</ele>
        <time>2016-07-31T10:17:39Z</time>
      </trkpt>
      <trkpt lat="42.44364" lon="0.06211">
        <ele>700.5</ele>
        <time>2016-07-31T10:17:42Z</time>
      </trkpt>
      <trkpt lat="42.44368" lon="0.06208">
        <ele>702.3</ele>
        <time>2016-07-31T10:17:44Z</time>
      </trkpt>
      <trkpt lat="42.44372" lon="0.06205">
        <ele>703.4</ele>
        <time>2016-07-31T10:17:45Z</time>
      </trkpt>
      <trkpt lat="42.44375" lon="0.06203">
        <ele>704.4</ele>
        <time>2016-07-31T10:17:46Z</time>
      </trkpt>
      <trkpt lat="42.44379" lon="0.06201">
        <ele>703.6</ele>
        <time>2016-07-31T10:17:47Z</time>
      </trkpt>
      <trkpt lat="42.44381" lon="0.06198">
        <ele>703.3</ele>
        <time>2016-07-31T10:17:48Z</time>
      </trkpt>
      <trkpt lat="42.44383" lon="0.06194">
        <ele>703.4</ele>
        <time>2016-07-31T10:17:50Z</time>
      </trkpt>
      <trkpt lat="42.44386" lon="0.06189">
        <ele>703.7</ele>
        <time>2016-07-31T10:17:52Z</time>
      </trkpt>
      <trkpt lat="42.44388" lon="0.06185">
        <ele>703.8</ele>
        <time>2016-07-31T10:17:53Z</time>
      </trkpt>
      <trkpt lat="42.4439" lon="0.06182">
        <ele>703.8</ele>
        <time>2016-07-31T10:17:54Z</time>
      </trkpt>
      <trkpt lat="42.44391" lon="0.06179">
        <ele>704.3</ele>
        <time>2016-07-31T10:17:55Z</time>
      </trkpt>
      <trkpt lat="42.44392" lon="0.06172">
        <ele>706</ele>
        <time>2016-07-31T10:17:57Z</time>
      </trkpt>
      <trkpt lat="42.44393" lon="0.06166">
        <ele>707.5</ele>
        <time>2016-07-31T10:17:59Z</time>
      </trkpt>
      <trkpt lat="42.44396" lon="0.06161">
        <ele>707.4</ele>
        <time>2016-07-31T10:18:01Z</time>
      </trkpt>
      <trkpt lat="42.44401" lon="0.06159">
        <ele>706</ele>
        <time>2016-07-31T10:18:03Z</time>
      </trkpt>
      <trkpt lat="42.44404" lon="0.06157">
        <ele>705</ele>
        <time>2016-07-31T10:18:05Z</time>
      </trkpt>
      <trkpt lat="42.44406" lon="0.0616">
        <ele>703.4</ele>
        <time>2016-07-31T10:18:09Z</time>
      </trkpt>
      <trkpt lat="42.44409" lon="0.06161">
        <ele>701.9</ele>
        <time>2016-07-31T10:18:12Z</time>
      </trkpt>
      <trkpt lat="42.44411" lon="0.06158">
        <ele>702</ele>
        <time>2016-07-31T10:18:17Z</time>
      </trkpt>
      <trkpt lat="42.44413" lon="0.06155">
        <ele>702.1</ele>
        <time>2016-07-31T10:18:24Z</time>
      </trkpt>
      <trkpt lat="42.44415" lon="0.06153">
        <ele>701.7</ele>
        <time>2016-07-31T10:18:27Z</time>
      </trkpt>
      <trkpt lat="42.44418" lon="0.06151">
        <ele>701.2</ele>
        <time>2016-07-31T10:18:31Z</time>
      </trkpt>
      <trkpt lat="42.44421" lon="0.0615">
        <ele>700.1</ele>
        <time>2016-07-31T10:18:33Z</time>
      </trkpt>
      <trkpt lat="42.44424" lon="0.0615">
        <ele>699</ele>
        <time>2016-07-31T10:18:34Z</time>
      </trkpt>
      <trkpt lat="42.44428" lon="0.06148">
        <ele>697.9</ele>
        <time>2016-07-31T10:18:35Z</time>
      </trkpt>
      <trkpt lat="42.44431" lon="0.06146">
        <ele>697</ele>
        <time>2016-07-31T10:18:36Z</time>
      </trkpt>
      <trkpt lat="42.44434" lon="0.06144">
        <ele>696.5</ele>
        <time>2016-07-31T10:18:37Z</time>
      </trkpt>
      <trkpt lat="42.44437" lon="0.06141">
        <ele>696.1</ele>
        <time>2016-07-31T10:18:38Z</time>
      </trkpt>
      <trkpt lat="42.44439" lon="0.06138">
        <ele>695.9</ele>
        <time>2016-07-31T10:18:39Z</time>
      </trkpt>
      <trkpt lat="42.44443" lon="0.06135">
        <ele>695.3</ele>
        <time>2016-07-31T10:18:41Z</time>
      </trkpt>
      <trkpt lat="42.44448" lon="0.06134">
        <ele>693.7</ele>
        <time>2016-07-31T10:18:43Z</time>
      </trkpt>
      <trkpt lat="42.44452" lon="0.06133">
        <ele>692.3</ele>
        <time>2016-07-31T10:18:45Z</time>
      </trkpt>
      <trkpt lat="42.44454" lon="0.06131">
        <ele>692.1</ele>
        <time>2016-07-31T10:18:47Z</time>
      </trkpt>
      <trkpt lat="42.44455" lon="0.06127">
        <ele>692.6</ele>
        <time>2016-07-31T10:18:50Z</time>
      </trkpt>
      <trkpt lat="42.44453" lon="0.06126">
        <ele>694</ele>
        <time>2016-07-31T10:18:56Z</time>
      </trkpt>
      <trkpt lat="42.44455" lon="0.06123">
        <ele>694</ele>
        <time>2016-07-31T10:19:03Z</time>
      </trkpt>
      <trkpt lat="42.44457" lon="0.06119">
        <ele>694.3</ele>
        <time>2016-07-31T10:19:07Z</time>
      </trkpt>
      <trkpt lat="42.44459" lon="0.06114">
        <ele>694.4</ele>
        <time>2016-07-31T10:19:10Z</time>
      </trkpt>
      <trkpt lat="42.44462" lon="0.06109">
        <ele>693.9</ele>
        <time>2016-07-31T10:19:12Z</time>
      </trkpt>
      <trkpt lat="42.44463" lon="0.06104">
        <ele>694.3</ele>
        <time>2016-07-31T10:19:14Z</time>
      </trkpt>
      <trkpt lat="42.44464" lon="0.061">
        <ele>694.9</ele>
        <time>2016-07-31T10:19:15Z</time>
      </trkpt>
      <trkpt lat="42.44465" lon="0.06096">
        <ele>695.5</ele>
        <time>2016-07-31T10:19:16Z</time>
      </trkpt>
      <trkpt lat="42.44466" lon="0.06092">
        <ele>696</ele>
        <time>2016-07-31T10:19:17Z</time>
      </trkpt>
      <trkpt lat="42.44467" lon="0.06088">
        <ele>696.2</ele>
        <time>2016-07-31T10:19:18Z</time>
      </trkpt>
      <trkpt lat="42.44469" lon="0.06084">
        <ele>695.9</ele>
        <time>2016-07-31T10:19:19Z</time>
      </trkpt>
      <trkpt lat="42.4447" lon="0.06081">
        <ele>695.3</ele>
        <time>2016-07-31T10:19:20Z</time>
      </trkpt>
      <trkpt lat="42.44474" lon="0.06077">
        <ele>693.9</ele>
        <time>2016-07-31T10:19:22Z</time>
      </trkpt>
      <trkpt lat="42.44476" lon="0.06072">
        <ele>693.1</ele>
        <time>2016-07-31T10:19:24Z</time>
      </trkpt>
      <trkpt lat="42.44478" lon="0.06068">
        <ele>693</ele>
        <time>2016-07-31T10:19:26Z</time>
      </trkpt>
      <trkpt lat="42.44481" lon="0.06061">
        <ele>692.9</ele>
        <time>2016-07-31T10:19:28Z</time>
      </trkpt>
      <trkpt lat="42.44483" lon="0.06057">
        <ele>692</ele>
        <time>2016-07-31T10:19:29Z</time>
      </trkpt>
      <trkpt lat="42.44486" lon="0.06053">
        <ele>690.6</ele>
        <time>2016-07-31T10:19:30Z</time>
      </trkpt>
      <trkpt lat="42.44489" lon="0.06051">
        <ele>688.8</ele>
        <time>2016-07-31T10:19:32Z</time>
      </trkpt>
      <trkpt lat="42.4449" lon="0.06055">
        <ele>687</ele>
        <time>2016-07-31T10:19:34Z</time>
      </trkpt>
      <trkpt lat="42.44489" lon="0.06059">
        <ele>686.6</ele>
        <time>2016-07-31T10:19:35Z</time>
      </trkpt>
      <trkpt lat="42.44488" lon="0.06063">
        <ele>686.6</ele>
        <time>2016-07-31T10:19:36Z</time>
      </trkpt>
      <trkpt lat="42.44486" lon="0.06067">
        <ele>686.8</ele>
        <time>2016-07-31T10:19:37Z</time>
      </trkpt>
      <trkpt lat="42.44485" lon="0.06071">
        <ele>686.8</ele>
        <time>2016-07-31T10:19:38Z</time>
      </trkpt>
      <trkpt lat="42.44484" lon="0.06074">
        <ele>686.6</ele>
        <time>2016-07-31T10:19:39Z</time>
      </trkpt>
      <trkpt lat="42.44482" lon="0.06078">
        <ele>687.3</ele>
        <time>2016-07-31T10:19:40Z</time>
      </trkpt>
      <trkpt lat="42.4448" lon="0.06082">
        <ele>687.5</ele>
        <time>2016-07-31T10:19:42Z</time>
      </trkpt>
      <trkpt lat="42.44484" lon="0.06084">
        <ele>683.7</ele>
        <time>2016-07-31T10:19:52Z</time>
      </trkpt>
      <trkpt lat="42.44488" lon="0.06083">
        <ele>681.6</ele>
        <time>2016-07-31T10:19:59Z</time>
      </trkpt>
      <trkpt lat="42.44488" lon="0.06087">
        <ele>680</ele>
        <time>2016-07-31T10:20:55Z</time>
      </trkpt>
      <trkpt lat="42.4449" lon="0.06091">
        <ele>677.6</ele>
        <time>2016-07-31T10:20:57Z</time>
      </trkpt>
      <trkpt lat="42.44491" lon="0.06098">
        <ele>674.7</ele>
        <time>2016-07-31T10:20:59Z</time>
      </trkpt>
      <trkpt lat="42.44493" lon="0.06104">
        <ele>671.6</ele>
        <time>2016-07-31T10:21:01Z</time>
      </trkpt>
      <trkpt lat="42.44495" lon="0.06109">
        <ele>668.8</ele>
        <time>2016-07-31T10:21:03Z</time>
      </trkpt>
      <trkpt lat="42.44499" lon="0.06109">
        <ele>665.8</ele>
        <time>2016-07-31T10:21:05Z</time>
      </trkpt>
      <trkpt lat="42.44503" lon="0.0611">
        <ele>662.5</ele>
        <time>2016-07-31T10:21:07Z</time>
      </trkpt>
      <trkpt lat="42.44505" lon="0.06113">
        <ele>660.5</ele>
        <time>2016-07-31T10:21:09Z</time>
      </trkpt>
      <trkpt lat="42.44504" lon="0.06119">
        <ele>659.6</ele>
        <time>2016-07-31T10:21:11Z</time>
      </trkpt>
      <trkpt lat="42.44502" lon="0.06125">
        <ele>659.3</ele>
        <time>2016-07-31T10:21:13Z</time>
      </trkpt>
      <trkpt lat="42.44506" lon="0.06124">
        <ele>656.6</ele>
        <time>2016-07-31T10:21:19Z</time>
      </trkpt>
      <trkpt lat="42.44509" lon="0.06122">
        <ele>655.3</ele>
        <time>2016-07-31T10:21:22Z</time>
      </trkpt>
      <trkpt lat="42.4451" lon="0.06126">
        <ele>653.6</ele>
        <time>2016-07-31T10:21:30Z</time>
      </trkpt>
      <trkpt lat="42.44507" lon="0.0613">
        <ele>654.4</ele>
        <time>2016-07-31T10:21:32Z</time>
      </trkpt>
      <trkpt lat="42.44504" lon="0.06134">
        <ele>655.9</ele>
        <time>2016-07-31T10:21:34Z</time>
      </trkpt>
      <trkpt lat="42.44501" lon="0.06136">
        <ele>657.4</ele>
        <time>2016-07-31T10:21:36Z</time>
      </trkpt>
      <trkpt lat="42.44499" lon="0.0614">
        <ele>658</ele>
        <time>2016-07-31T10:21:38Z</time>
      </trkpt>
      <trkpt lat="42.44499" lon="0.06144">
        <ele>657.3</ele>
        <time>2016-07-31T10:21:40Z</time>
      </trkpt>
      <trkpt lat="42.445" lon="0.06149">
        <ele>655.8</ele>
        <time>2016-07-31T10:21:42Z</time>
      </trkpt>
      <trkpt lat="42.44501" lon="0.06152">
        <ele>654.3</ele>
        <time>2016-07-31T10:21:44Z</time>
      </trkpt>
      <trkpt lat="42.445" lon="0.06158">
        <ele>653.5</ele>
        <time>2016-07-31T10:21:46Z</time>
      </trkpt>
      <trkpt lat="42.44499" lon="0.06161">
        <ele>653.4</ele>
        <time>2016-07-31T10:21:47Z</time>
      </trkpt>
      <trkpt lat="42.44497" lon="0.06166">
        <ele>653.3</ele>
        <time>2016-07-31T10:21:48Z</time>
      </trkpt>
      <trkpt lat="42.44496" lon="0.0617">
        <ele>653.1</ele>
        <time>2016-07-31T10:21:49Z</time>
      </trkpt>
      <trkpt lat="42.44495" lon="0.06174">
        <ele>652.9</ele>
        <time>2016-07-31T10:21:50Z</time>
      </trkpt>
      <trkpt lat="42.44494" lon="0.06178">
        <ele>652.5</ele>
        <time>2016-07-31T10:21:51Z</time>
      </trkpt>
      <trkpt lat="42.44494" lon="0.06185">
        <ele>650.9</ele>
        <time>2016-07-31T10:21:53Z</time>
      </trkpt>
      <trkpt lat="42.44494" lon="0.06189">
        <ele>650.2</ele>
        <time>2016-07-31T10:21:54Z</time>
      </trkpt>
      <trkpt lat="42.44493" lon="0.06193">
        <ele>649.8</ele>
        <time>2016-07-31T10:21:55Z</time>
      </trkpt>
      <trkpt lat="42.44492" lon="0.06197">
        <ele>649.3</ele>
        <time>2016-07-31T10:21:56Z</time>
      </trkpt>
      <trkpt lat="42.4449" lon="0.06202">
        <ele>649.1</ele>
        <time>2016-07-31T10:21:57Z</time>
      </trkpt>
      <trkpt lat="42.44489" lon="0.06206">
        <ele>649.1</ele>
        <time>2016-07-31T10:21:58Z</time>
      </trkpt>
      <trkpt lat="42.44487" lon="0.0621">
        <ele>649</ele>
        <time>2016-07-31T10:21:59Z</time>
      </trkpt>
      <trkpt lat="42.44485" lon="0.06213">
        <ele>649.3</ele>
        <time>2016-07-31T10:22:00Z</time>
      </trkpt>
      <trkpt lat="42.44483" lon="0.06218">
        <ele>649.2</ele>
        <time>2016-07-31T10:22:01Z</time>
      </trkpt>
      <trkpt lat="42.44481" lon="0.06223">
        <ele>648.8</ele>
        <time>2016-07-31T10:22:02Z</time>
      </trkpt>
      <trkpt lat="42.44478" lon="0.06228">
        <ele>648.7</ele>
        <time>2016-07-31T10:22:03Z</time>
      </trkpt>
      <trkpt lat="42.44476" lon="0.06234">
        <ele>648.4</ele>
        <time>2016-07-31T10:22:04Z</time>
      </trkpt>
      <trkpt lat="42.44475" lon="0.06239">
        <ele>647.4</ele>
        <time>2016-07-31T10:22:05Z</time>
      </trkpt>
      <trkpt lat="42.44474" lon="0.06242">
        <ele>646.3</ele>
        <time>2016-07-31T10:22:06Z</time>
      </trkpt>
      <trkpt lat="42.44475" lon="0.06246">
        <ele>644.6</ele>
        <time>2016-07-31T10:22:07Z</time>
      </trkpt>
      <trkpt lat="42.44477" lon="0.0625">
        <ele>642.6</ele>
        <time>2016-07-31T10:22:08Z</time>
      </trkpt>
      <trkpt lat="42.44479" lon="0.06253">
        <ele>640.5</ele>
        <time>2016-07-31T10:22:09Z</time>
      </trkpt>
      <trkpt lat="42.44482" lon="0.06258">
        <ele>637.2</ele>
        <time>2016-07-31T10:22:11Z</time>
      </trkpt>
      <trkpt lat="42.44484" lon="0.06261">
        <ele>635.4</ele>
        <time>2016-07-31T10:22:12Z</time>
      </trkpt>
      <trkpt lat="42.44485" lon="0.06265">
        <ele>633.8</ele>
        <time>2016-07-31T10:22:13Z</time>
      </trkpt>
      <trkpt lat="42.44485" lon="0.0627">
        <ele>632.2</ele>
        <time>2016-07-31T10:22:14Z</time>
      </trkpt>
      <trkpt lat="42.44485" lon="0.06275">
        <ele>630.9</ele>
        <time>2016-07-31T10:22:15Z</time>
      </trkpt>
      <trkpt lat="42.44483" lon="0.06281">
        <ele>629.8</ele>
        <time>2016-07-31T10:22:16Z</time>
      </trkpt>
      <trkpt lat="42.44482" lon="0.06287">
        <ele>628.8</ele>
        <time>2016-07-31T10:22:17Z</time>
      </trkpt>
      <trkpt lat="42.4448" lon="0.06293">
        <ele>627.8</ele>
        <time>2016-07-31T10:22:18Z</time>
      </trkpt>
      <trkpt lat="42.44478" lon="0.06298">
        <ele>627.3</ele>
        <time>2016-07-31T10:22:19Z</time>
      </trkpt>
      <trkpt lat="42.44476" lon="0.06305">
        <ele>626.6</ele>
        <time>2016-07-31T10:22:20Z</time>
      </trkpt>
      <trkpt lat="42.44475" lon="0.06311">
        <ele>625.8</ele>
        <time>2016-07-31T10:22:21Z</time>
      </trkpt>
      <trkpt lat="42.44473" lon="0.06316">
        <ele>625.1</ele>
        <time>2016-07-31T10:22:22Z</time>
      </trkpt>
      <trkpt lat="42.44471" lon="0.06321">
        <ele>624.6</ele>
        <time>2016-07-31T10:22:23Z</time>
      </trkpt>
      <trkpt lat="42.4447" lon="0.06326">
        <ele>623.8</ele>
        <time>2016-07-31T10:22:24Z</time>
      </trkpt>
      <trkpt lat="42.44468" lon="0.06331">
        <ele>622.9</ele>
        <time>2016-07-31T10:22:25Z</time>
      </trkpt>
      <trkpt lat="42.44467" lon="0.06337">
        <ele>621.9</ele>
        <time>2016-07-31T10:22:26Z</time>
      </trkpt>
      <trkpt lat="42.44466" lon="0.06342">
        <ele>620.8</ele>
        <time>2016-07-31T10:22:27Z</time>
      </trkpt>
      <trkpt lat="42.44464" lon="0.06348">
        <ele>619.8</ele>
        <time>2016-07-31T10:22:28Z</time>
      </trkpt>
      <trkpt lat="42.44463" lon="0.06354">
        <ele>618.6</ele>
        <time>2016-07-31T10:22:29Z</time>
      </trkpt>
      <trkpt lat="42.44462" lon="0.0636">
        <ele>617.3</ele>
        <time>2016-07-31T10:22:30Z</time>
      </trkpt>
      <trkpt lat="42.4446" lon="0.06366">
        <ele>616</ele>
        <time>2016-07-31T10:22:31Z</time>
      </trkpt>
      <trkpt lat="42.44459" lon="0.06372">
        <ele>614.7</ele>
        <time>2016-07-31T10:22:32Z</time>
      </trkpt>
      <trkpt lat="42.44458" lon="0.06377">
        <ele>613.6</ele>
        <time>2016-07-31T10:22:33Z</time>
      </trkpt>
      <trkpt lat="42.44457" lon="0.06383">
        <ele>613</ele>
        <time>2016-07-31T10:22:34Z</time>
      </trkpt>
      <trkpt lat="42.44456" lon="0.06388">
        <ele>612.4</ele>
        <time>2016-07-31T10:22:35Z</time>
      </trkpt>
      <trkpt lat="42.44455" lon="0.06394">
        <ele>611.7</ele>
        <time>2016-07-31T10:22:36Z</time>
      </trkpt>
      <trkpt lat="42.44454" lon="0.064">
        <ele>611</ele>
        <time>2016-07-31T10:22:37Z</time>
      </trkpt>
      <trkpt lat="42.44453" lon="0.06405">
        <ele>610.3</ele>
        <time>2016-07-31T10:22:38Z</time>
      </trkpt>
      <trkpt lat="42.44451" lon="0.06411">
        <ele>609.7</ele>
        <time>2016-07-31T10:22:39Z</time>
      </trkpt>
      <trkpt lat="42.44449" lon="0.06416">
        <ele>609.2</ele>
        <time>2016-07-31T10:22:40Z</time>
      </trkpt>
      <trkpt lat="42.44447" lon="0.06421">
        <ele>608.7</ele>
        <time>2016-07-31T10:22:41Z</time>
      </trkpt>
      <trkpt lat="42.44445" lon="0.06426">
        <ele>608.2</ele>
        <time>2016-07-31T10:22:42Z</time>
      </trkpt>
      <trkpt lat="42.44443" lon="0.06431">
        <ele>607.6</ele>
        <time>2016-07-31T10:22:43Z</time>
      </trkpt>
      <trkpt lat="42.44441" lon="0.06437">
        <ele>606.9</ele>
        <time>2016-07-31T10:22:44Z</time>
      </trkpt>
      <trkpt lat="42.44439" lon="0.06443">
        <ele>606.2</ele>
        <time>2016-07-31T10:22:45Z</time>
      </trkpt>
      <trkpt lat="42.44437" lon="0.06448">
        <ele>605.4</ele>
        <time>2016-07-31T10:22:46Z</time>
      </trkpt>
      <trkpt lat="42.44435" lon="0.06454">
        <ele>604.6</ele>
        <time>2016-07-31T10:22:47Z</time>
      </trkpt>
      <trkpt lat="42.44432" lon="0.06459">
        <ele>603.9</ele>
        <time>2016-07-31T10:22:48Z</time>
      </trkpt>
      <trkpt lat="42.4443" lon="0.06465">
        <ele>603.8</ele>
        <time>2016-07-31T10:22:49Z</time>
      </trkpt>
      <trkpt lat="42.44427" lon="0.0647">
        <ele>603.8</ele>
        <time>2016-07-31T10:22:50Z</time>
      </trkpt>
      <trkpt lat="42.44425" lon="0.06476">
        <ele>603.7</ele>
        <time>2016-07-31T10:22:51Z</time>
      </trkpt>
      <trkpt lat="42.44422" lon="0.06481">
        <ele>603.5</ele>
        <time>2016-07-31T10:22:52Z</time>
      </trkpt>
      <trkpt lat="42.44419" lon="0.06486">
        <ele>603.4</ele>
        <time>2016-07-31T10:22:53Z</time>
      </trkpt>
      <trkpt lat="42.44417" lon="0.06491">
        <ele>603.3</ele>
        <time>2016-07-31T10:22:54Z</time>
      </trkpt>
      <trkpt lat="42.44414" lon="0.06496">
        <ele>603.1</ele>
        <time>2016-07-31T10:22:55Z</time>
      </trkpt>
      <trkpt lat="42.44411" lon="0.06501">
        <ele>602.9</ele>
        <time>2016-07-31T10:22:56Z</time>
      </trkpt>
      <trkpt lat="42.44409" lon="0.06507">
        <ele>602.6</ele>
        <time>2016-07-31T10:22:57Z</time>
      </trkpt>
      <trkpt lat="42.44406" lon="0.06512">
        <ele>602.4</ele>
        <time>2016-07-31T10:22:58Z</time>
      </trkpt>
      <trkpt lat="42.44403" lon="0.06517">
        <ele>602.1</ele>
        <time>2016-07-31T10:22:59Z</time>
      </trkpt>
      <trkpt lat="42.444" lon="0.06522">
        <ele>601.8</ele>
        <time>2016-07-31T10:23:00Z</time>
      </trkpt>
      <trkpt lat="42.44398" lon="0.06527">
        <ele>601.6</ele>
        <time>2016-07-31T10:23:01Z</time>
      </trkpt>
      <trkpt lat="42.44395" lon="0.06531">
        <ele>601.2</ele>
        <time>2016-07-31T10:23:02Z</time>
      </trkpt>
      <trkpt lat="42.44393" lon="0.06535">
        <ele>601</ele>
        <time>2016-07-31T10:23:03Z</time>
      </trkpt>
      <trkpt lat="42.44391" lon="0.06539">
        <ele>600.7</ele>
        <time>2016-07-31T10:23:04Z</time>
      </trkpt>
      <trkpt lat="42.44387" lon="0.06543">
        <ele>600.6</ele>
        <time>2016-07-31T10:23:06Z</time>
      </trkpt>
      <trkpt lat="42.44384" lon="0.06543">
        <ele>600.9</ele>
        <time>2016-07-31T10:23:07Z</time>
      </trkpt>
      <trkpt lat="42.4438" lon="0.06542">
        <ele>601.4</ele>
        <time>2016-07-31T10:23:08Z</time>
      </trkpt>
      <trkpt lat="42.44377" lon="0.06541">
        <ele>601.9</ele>
        <time>2016-07-31T10:23:09Z</time>
      </trkpt>
      <trkpt lat="42.44373" lon="0.06541">
        <ele>602.2</ele>
        <time>2016-07-31T10:23:10Z</time>
      </trkpt>
      <trkpt lat="42.4437" lon="0.06542">
        <ele>602.4</ele>
        <time>2016-07-31T10:23:11Z</time>
      </trkpt>
      <trkpt lat="42.44367" lon="0.06542">
        <ele>602.5</ele>
        <time>2016-07-31T10:23:12Z</time>
      </trkpt>
      <trkpt lat="42.44362" lon="0.06544">
        <ele>602.7</ele>
        <time>2016-07-31T10:23:14Z</time>
      </trkpt>
      <trkpt lat="42.44357" lon="0.06547">
        <ele>602.9</ele>
        <time>2016-07-31T10:23:16Z</time>
      </trkpt>
      <trkpt lat="42.44353" lon="0.06549">
        <ele>603</ele>
        <time>2016-07-31T10:23:18Z</time>
      </trkpt>
      <trkpt lat="42.4435" lon="0.06552">
        <ele>603</ele>
        <time>2016-07-31T10:23:20Z</time>
      </trkpt>
      <trkpt lat="42.44346" lon="0.06555">
        <ele>603.1</ele>
        <time>2016-07-31T10:23:22Z</time>
      </trkpt>
      <trkpt lat="42.44343" lon="0.06558">
        <ele>603</ele>
        <time>2016-07-31T10:23:24Z</time>
      </trkpt>
      <trkpt lat="42.44341" lon="0.0656">
        <ele>603</ele>
        <time>2016-07-31T10:23:26Z</time>
      </trkpt>
      <trkpt lat="42.44338" lon="0.06563">
        <ele>603</ele>
        <time>2016-07-31T10:23:29Z</time>
      </trkpt>
      <trkpt lat="42.44339" lon="0.06567">
        <ele>602.7</ele>
        <time>2016-07-31T10:23:44Z</time>
      </trkpt>
      <trkpt lat="42.44337" lon="0.06563">
        <ele>603.1</ele>
        <time>2016-07-31T10:28:45Z</time>
      </trkpt>
      <trkpt lat="42.44333" lon="0.06561">
        <ele>603.5</ele>
        <time>2016-07-31T10:28:48Z</time>
      </trkpt>
      <trkpt lat="42.44329" lon="0.06562">
        <ele>603.7</ele>
        <time>2016-07-31T10:28:50Z</time>
      </trkpt>
      <trkpt lat="42.44325" lon="0.06565">
        <ele>603.7</ele>
        <time>2016-07-31T10:28:52Z</time>
      </trkpt>
      <trkpt lat="42.44322" lon="0.06568">
        <ele>603.7</ele>
        <time>2016-07-31T10:28:54Z</time>
      </trkpt>
      <trkpt lat="42.44318" lon="0.06571">
        <ele>603.8</ele>
        <time>2016-07-31T10:28:56Z</time>
      </trkpt>
      <trkpt lat="42.44314" lon="0.06573">
        <ele>603.8</ele>
        <time>2016-07-31T10:28:58Z</time>
      </trkpt>
      <trkpt lat="42.4431" lon="0.06576">
        <ele>603.8</ele>
        <time>2016-07-31T10:29:00Z</time>
      </trkpt>
      <trkpt lat="42.44308" lon="0.06579">
        <ele>603.8</ele>
        <time>2016-07-31T10:29:01Z</time>
      </trkpt>
      <trkpt lat="42.44306" lon="0.06581">
        <ele>603.7</ele>
        <time>2016-07-31T10:29:02Z</time>
      </trkpt>
      <trkpt lat="42.44304" lon="0.06584">
        <ele>603.7</ele>
        <time>2016-07-31T10:29:03Z</time>
      </trkpt>
      <trkpt lat="42.44301" lon="0.06586">
        <ele>603.7</ele>
        <time>2016-07-31T10:29:04Z</time>
      </trkpt>
      <trkpt lat="42.44299" lon="0.06588">
        <ele>603.6</ele>
        <time>2016-07-31T10:29:05Z</time>
      </trkpt>
      <trkpt lat="42.44296" lon="0.06591">
        <ele>603.6</ele>
        <time>2016-07-31T10:29:06Z</time>
      </trkpt>
      <trkpt lat="42.44294" lon="0.06593">
        <ele>603.6</ele>
        <time>2016-07-31T10:29:07Z</time>
      </trkpt>
      <trkpt lat="42.44291" lon="0.06595">
        <ele>603.5</ele>
        <time>2016-07-31T10:29:08Z</time>
      </trkpt>
      <trkpt lat="42.44289" lon="0.06598">
        <ele>603.3</ele>
        <time>2016-07-31T10:29:09Z</time>
      </trkpt>
      <trkpt lat="42.44286" lon="0.066">
        <ele>603.1</ele>
        <time>2016-07-31T10:29:10Z</time>
      </trkpt>
      <trkpt lat="42.44284" lon="0.06602">
        <ele>602.9</ele>
        <time>2016-07-31T10:29:11Z</time>
      </trkpt>
      <trkpt lat="42.44281" lon="0.06604">
        <ele>602.7</ele>
        <time>2016-07-31T10:29:12Z</time>
      </trkpt>
      <trkpt lat="42.44279" lon="0.06607">
        <ele>602.5</ele>
        <time>2016-07-31T10:29:13Z</time>
      </trkpt>
      <trkpt lat="42.44276" lon="0.06609">
        <ele>602.2</ele>
        <time>2016-07-31T10:29:14Z</time>
      </trkpt>
      <trkpt lat="42.44273" lon="0.06612">
        <ele>602</ele>
        <time>2016-07-31T10:29:15Z</time>
      </trkpt>
      <trkpt lat="42.44271" lon="0.06615">
        <ele>601.7</ele>
        <time>2016-07-31T10:29:16Z</time>
      </trkpt>
      <trkpt lat="42.44268" lon="0.06618">
        <ele>601.4</ele>
        <time>2016-07-31T10:29:17Z</time>
      </trkpt>
      <trkpt lat="42.44265" lon="0.06621">
        <ele>601</ele>
        <time>2016-07-31T10:29:18Z</time>
      </trkpt>
      <trkpt lat="42.44261" lon="0.06625">
        <ele>600.6</ele>
        <time>2016-07-31T10:29:19Z</time>
      </trkpt>
      <trkpt lat="42.44258" lon="0.06628">
        <ele>600.4</ele>
        <time>2016-07-31T10:29:20Z</time>
      </trkpt>
      <trkpt lat="42.44255" lon="0.06632">
        <ele>600.1</ele>
        <time>2016-07-31T10:29:21Z</time>
      </trkpt>
      <trkpt lat="42.44252" lon="0.06635">
        <ele>599.9</ele>
        <time>2016-07-31T10:29:22Z</time>
      </trkpt>
      <trkpt lat="42.44249" lon="0.06639">
        <ele>599.6</ele>
        <time>2016-07-31T10:29:23Z</time>
      </trkpt>
      <trkpt lat="42.44246" lon="0.06642">
        <ele>599.4</ele>
        <time>2016-07-31T10:29:24Z</time>
      </trkpt>
      <trkpt lat="42.44242" lon="0.06646">
        <ele>599.1</ele>
        <time>2016-07-31T10:29:25Z</time>
      </trkpt>
      <trkpt lat="42.44238" lon="0.06649">
        <ele>598.9</ele>
        <time>2016-07-31T10:29:26Z</time>
      </trkpt>
      <trkpt lat="42.44235" lon="0.06652">
        <ele>598.7</ele>
        <time>2016-07-31T10:29:27Z</time>
      </trkpt>
      <trkpt lat="42.44231" lon="0.06655">
        <ele>598.5</ele>
        <time>2016-07-31T10:29:28Z</time>
      </trkpt>
      <trkpt lat="42.44228" lon="0.06659">
        <ele>598.3</ele>
        <time>2016-07-31T10:29:29Z</time>
      </trkpt>
      <trkpt lat="42.44224" lon="0.06662">
        <ele>598.2</ele>
        <time>2016-07-31T10:29:30Z</time>
      </trkpt>
      <trkpt lat="42.4422" lon="0.06665">
        <ele>598</ele>
        <time>2016-07-31T10:29:31Z</time>
      </trkpt>
      <trkpt lat="42.44217" lon="0.06668">
        <ele>597.9</ele>
        <time>2016-07-31T10:29:32Z</time>
      </trkpt>
      <trkpt lat="42.44212" lon="0.0667">
        <ele>597.8</ele>
        <time>2016-07-31T10:29:33Z</time>
      </trkpt>
      <trkpt lat="42.44208" lon="0.06671">
        <ele>597.8</ele>
        <time>2016-07-31T10:29:34Z</time>
      </trkpt>
      <trkpt lat="42.44204" lon="0.06673">
        <ele>597.7</ele>
        <time>2016-07-31T10:29:35Z</time>
      </trkpt>
      <trkpt lat="42.442" lon="0.06674">
        <ele>597.7</ele>
        <time>2016-07-31T10:29:36Z</time>
      </trkpt>
      <trkpt lat="42.44195" lon="0.06675">
        <ele>597.6</ele>
        <time>2016-07-31T10:29:37Z</time>
      </trkpt>
      <trkpt lat="42.44191" lon="0.06675">
        <ele>597.6</ele>
        <time>2016-07-31T10:29:38Z</time>
      </trkpt>
      <trkpt lat="42.44187" lon="0.06676">
        <ele>597.6</ele>
        <time>2016-07-31T10:29:39Z</time>
      </trkpt>
      <trkpt lat="42.44183" lon="0.06677">
        <ele>597.5</ele>
        <time>2016-07-31T10:29:40Z</time>
      </trkpt>
      <trkpt lat="42.44179" lon="0.06678">
        <ele>597.5</ele>
        <time>2016-07-31T10:29:41Z</time>
      </trkpt>
      <trkpt lat="42.44175" lon="0.0668">
        <ele>597.4</ele>
        <time>2016-07-31T10:29:42Z</time>
      </trkpt>
      <trkpt lat="42.44171" lon="0.06681">
        <ele>597.3</ele>
        <time>2016-07-31T10:29:43Z</time>
      </trkpt>
      <trkpt lat="42.44167" lon="0.06682">
        <ele>597.3</ele>
        <time>2016-07-31T10:29:44Z</time>
      </trkpt>
      <trkpt lat="42.44163" lon="0.06683">
        <ele>597.2</ele>
        <time>2016-07-31T10:29:45Z</time>
      </trkpt>
      <trkpt lat="42.44159" lon="0.06683">
        <ele>597.2</ele>
        <time>2016-07-31T10:29:46Z</time>
      </trkpt>
      <trkpt lat="42.44155" lon="0.06683">
        <ele>597.2</ele>
        <time>2016-07-31T10:29:47Z</time>
      </trkpt>
      <trkpt lat="42.4415" lon="0.06683">
        <ele>597.1</ele>
        <time>2016-07-31T10:29:48Z</time>
      </trkpt>
      <trkpt lat="42.44146" lon="0.06684">
        <ele>597.1</ele>
        <time>2016-07-31T10:29:49Z</time>
      </trkpt>
      <trkpt lat="42.44141" lon="0.06684">
        <ele>597.1</ele>
        <time>2016-07-31T10:29:50Z</time>
      </trkpt>
      <trkpt lat="42.44137" lon="0.06685">
        <ele>597</ele>
        <time>2016-07-31T10:29:51Z</time>
      </trkpt>
      <trkpt lat="42.44132" lon="0.06686">
        <ele>596.9</ele>
        <time>2016-07-31T10:29:52Z</time>
      </trkpt>
      <trkpt lat="42.44128" lon="0.06687">
        <ele>596.8</ele>
        <time>2016-07-31T10:29:53Z</time>
      </trkpt>
      <trkpt lat="42.44123" lon="0.06687">
        <ele>596.8</ele>
        <time>2016-07-31T10:29:54Z</time>
      </trkpt>
      <trkpt lat="42.44119" lon="0.06687">
        <ele>596.9</ele>
        <time>2016-07-31T10:29:55Z</time>
      </trkpt>
      <trkpt lat="42.44114" lon="0.06686">
        <ele>597.1</ele>
        <time>2016-07-31T10:29:56Z</time>
      </trkpt>
      <trkpt lat="42.4411" lon="0.06685">
        <ele>597.2</ele>
        <time>2016-07-31T10:29:57Z</time>
      </trkpt>
      <trkpt lat="42.44105" lon="0.06684">
        <ele>597.3</ele>
        <time>2016-07-31T10:29:58Z</time>
      </trkpt>
      <trkpt lat="42.44101" lon="0.06684">
        <ele>597.4</ele>
        <time>2016-07-31T10:29:59Z</time>
      </trkpt>
      <trkpt lat="42.44096" lon="0.06683">
        <ele>597.6</ele>
        <time>2016-07-31T10:30:00Z</time>
      </trkpt>
      <trkpt lat="42.44091" lon="0.06683">
        <ele>597.7</ele>
        <time>2016-07-31T10:30:01Z</time>
      </trkpt>
      <trkpt lat="42.44085" lon="0.06683">
        <ele>597.8</ele>
        <time>2016-07-31T10:30:02Z</time>
      </trkpt>
      <trkpt lat="42.44079" lon="0.06682">
        <ele>597.9</ele>
        <time>2016-07-31T10:30:03Z</time>
      </trkpt>
      <trkpt lat="42.44072" lon="0.06683">
        <ele>598</ele>
        <time>2016-07-31T10:30:04Z</time>
      </trkpt>
      <trkpt lat="42.44065" lon="0.06684">
        <ele>598</ele>
        <time>2016-07-31T10:30:05Z</time>
      </trkpt>
      <trkpt lat="42.44057" lon="0.06685">
        <ele>598</ele>
        <time>2016-07-31T10:30:06Z</time>
      </trkpt>
      <trkpt lat="42.4405" lon="0.06686">
        <ele>598</ele>
        <time>2016-07-31T10:30:07Z</time>
      </trkpt>
      <trkpt lat="42.44041" lon="0.06686">
        <ele>598.2</ele>
        <time>2016-07-31T10:30:08Z</time>
      </trkpt>
      <trkpt lat="42.44035" lon="0.06685">
        <ele>598.5</ele>
        <time>2016-07-31T10:30:09Z</time>
      </trkpt>
      <trkpt lat="42.44031" lon="0.06686">
        <ele>598.6</ele>
        <time>2016-07-31T10:30:10Z</time>
      </trkpt>
      <trkpt lat="42.44027" lon="0.06686">
        <ele>598.7</ele>
        <time>2016-07-31T10:30:11Z</time>
      </trkpt>
      <trkpt lat="42.44024" lon="0.06685">
        <ele>598.9</ele>
        <time>2016-07-31T10:30:12Z</time>
      </trkpt>
      <trkpt lat="42.44021" lon="0.06684">
        <ele>599.2</ele>
        <time>2016-07-31T10:30:13Z</time>
      </trkpt>
      <trkpt lat="42.44018" lon="0.06683">
        <ele>599.4</ele>
        <time>2016-07-31T10:30:14Z</time>
      </trkpt>
      <trkpt lat="42.44015" lon="0.06683">
        <ele>599.5</ele>
        <time>2016-07-31T10:30:15Z</time>
      </trkpt>
      <trkpt lat="42.44012" lon="0.06682">
        <ele>599.7</ele>
        <time>2016-07-31T10:30:16Z</time>
      </trkpt>
      <trkpt lat="42.44008" lon="0.06682">
        <ele>599.8</ele>
        <time>2016-07-31T10:30:17Z</time>
      </trkpt>
      <trkpt lat="42.44005" lon="0.06683">
        <ele>599.9</ele>
        <time>2016-07-31T10:30:18Z</time>
      </trkpt>
      <trkpt lat="42.44002" lon="0.06684">
        <ele>599.9</ele>
        <time>2016-07-31T10:30:19Z</time>
      </trkpt>
      <trkpt lat="42.43998" lon="0.06685">
        <ele>599.9</ele>
        <time>2016-07-31T10:30:20Z</time>
      </trkpt>
      <trkpt lat="42.43992" lon="0.06688">
        <ele>599.9</ele>
        <time>2016-07-31T10:30:21Z</time>
      </trkpt>
      <trkpt lat="42.43986" lon="0.06692">
        <ele>599.7</ele>
        <time>2016-07-31T10:30:22Z</time>
      </trkpt>
      <trkpt lat="42.43981" lon="0.06696">
        <ele>599.4</ele>
        <time>2016-07-31T10:30:23Z</time>
      </trkpt>
      <trkpt lat="42.43974" lon="0.06702">
        <ele>599.2</ele>
        <time>2016-07-31T10:30:24Z</time>
      </trkpt>
      <trkpt lat="42.43968" lon="0.06705">
        <ele>599</ele>
        <time>2016-07-31T10:30:25Z</time>
      </trkpt>
      <trkpt lat="42.43961" lon="0.06708">
        <ele>598.9</ele>
        <time>2016-07-31T10:30:26Z</time>
      </trkpt>
      <trkpt lat="42.43955" lon="0.06711">
        <ele>598.5</ele>
        <time>2016-07-31T10:30:27Z</time>
      </trkpt>
      <trkpt lat="42.43948" lon="0.06714">
        <ele>598</ele>
        <time>2016-07-31T10:30:28Z</time>
      </trkpt>
      <trkpt lat="42.43941" lon="0.06716">
        <ele>597.6</ele>
        <time>2016-07-31T10:30:29Z</time>
      </trkpt>
      <trkpt lat="42.43934" lon="0.06718">
        <ele>597.2</ele>
        <time>2016-07-31T10:30:30Z</time>
      </trkpt>
      <trkpt lat="42.43927" lon="0.0672">
        <ele>596.9</ele>
        <time>2016-07-31T10:30:31Z</time>
      </trkpt>
      <trkpt lat="42.4392" lon="0.06721">
        <ele>596.6</ele>
        <time>2016-07-31T10:30:32Z</time>
      </trkpt>
      <trkpt lat="42.43914" lon="0.06723">
        <ele>596.3</ele>
        <time>2016-07-31T10:30:33Z</time>
      </trkpt>
      <trkpt lat="42.43907" lon="0.06724">
        <ele>596.1</ele>
        <time>2016-07-31T10:30:34Z</time>
      </trkpt>
      <trkpt lat="42.43901" lon="0.06725">
        <ele>595.9</ele>
        <time>2016-07-31T10:30:35Z</time>
      </trkpt>
      <trkpt lat="42.43895" lon="0.06726">
        <ele>595.8</ele>
        <time>2016-07-31T10:30:36Z</time>
      </trkpt>
      <trkpt lat="42.43889" lon="0.06727">
        <ele>595.6</ele>
        <time>2016-07-31T10:30:37Z</time>
      </trkpt>
      <trkpt lat="42.43883" lon="0.06727">
        <ele>595.5</ele>
        <time>2016-07-31T10:30:38Z</time>
      </trkpt>
      <trkpt lat="42.43877" lon="0.06728">
        <ele>595.3</ele>
        <time>2016-07-31T10:30:39Z</time>
      </trkpt>
      <trkpt lat="42.43872" lon="0.0673">
        <ele>595.5</ele>
        <time>2016-07-31T10:30:40Z</time>
      </trkpt>
      <trkpt lat="42.43867" lon="0.06732">
        <ele>596.1</ele>
        <time>2016-07-31T10:30:41Z</time>
      </trkpt>
      <trkpt lat="42.43862" lon="0.06734">
        <ele>596.5</ele>
        <time>2016-07-31T10:30:42Z</time>
      </trkpt>
      <trkpt lat="42.43857" lon="0.06734">
        <ele>597.1</ele>
        <time>2016-07-31T10:30:43Z</time>
      </trkpt>
      <trkpt lat="42.43853" lon="0.06736">
        <ele>597.6</ele>
        <time>2016-07-31T10:30:44Z</time>
      </trkpt>
      <trkpt lat="42.43848" lon="0.06737">
        <ele>598.1</ele>
        <time>2016-07-31T10:30:45Z</time>
      </trkpt>
      <trkpt lat="42.43844" lon="0.06738">
        <ele>598.5</ele>
        <time>2016-07-31T10:30:46Z</time>
      </trkpt>
      <trkpt lat="42.4384" lon="0.06738">
        <ele>598.9</ele>
        <time>2016-07-31T10:30:47Z</time>
      </trkpt>
      <trkpt lat="42.43836" lon="0.06738">
        <ele>599.6</ele>
        <time>2016-07-31T10:30:48Z</time>
      </trkpt>
      <trkpt lat="42.43831" lon="0.06735">
        <ele>600.4</ele>
        <time>2016-07-31T10:30:49Z</time>
      </trkpt>
      <trkpt lat="42.43827" lon="0.0673">
        <ele>601.4</ele>
        <time>2016-07-31T10:30:50Z</time>
      </trkpt>
      <trkpt lat="42.43824" lon="0.06724">
        <ele>602.6</ele>
        <time>2016-07-31T10:30:51Z</time>
      </trkpt>
      <trkpt lat="42.43821" lon="0.06718">
        <ele>603.6</ele>
        <time>2016-07-31T10:30:52Z</time>
      </trkpt>
      <trkpt lat="42.43819" lon="0.06713">
        <ele>604.6</ele>
        <time>2016-07-31T10:30:53Z</time>
      </trkpt>
      <trkpt lat="42.43816" lon="0.06709">
        <ele>605.4</ele>
        <time>2016-07-31T10:30:54Z</time>
      </trkpt>
      <trkpt lat="42.43813" lon="0.06706">
        <ele>606.1</ele>
        <time>2016-07-31T10:30:55Z</time>
      </trkpt>
      <trkpt lat="42.4381" lon="0.06706">
        <ele>606.5</ele>
        <time>2016-07-31T10:30:56Z</time>
      </trkpt>
      <trkpt lat="42.43805" lon="0.06708">
        <ele>607.1</ele>
        <time>2016-07-31T10:30:57Z</time>
      </trkpt>
      <trkpt lat="42.43803" lon="0.06713">
        <ele>606.8</ele>
        <time>2016-07-31T10:30:58Z</time>
      </trkpt>
      <trkpt lat="42.43801" lon="0.06719">
        <ele>606.3</ele>
        <time>2016-07-31T10:30:59Z</time>
      </trkpt>
      <trkpt lat="42.438" lon="0.06727">
        <ele>605.5</ele>
        <time>2016-07-31T10:31:00Z</time>
      </trkpt>
      <trkpt lat="42.43798" lon="0.06734">
        <ele>604.9</ele>
        <time>2016-07-31T10:31:01Z</time>
      </trkpt>
      <trkpt lat="42.43796" lon="0.06741">
        <ele>604.1</ele>
        <time>2016-07-31T10:31:02Z</time>
      </trkpt>
      <trkpt lat="42.43794" lon="0.06747">
        <ele>603.5</ele>
        <time>2016-07-31T10:31:03Z</time>
      </trkpt>
      <trkpt lat="42.43792" lon="0.06754">
        <ele>602.9</ele>
        <time>2016-07-31T10:31:04Z</time>
      </trkpt>
      <trkpt lat="42.43789" lon="0.06759">
        <ele>603.1</ele>
        <time>2016-07-31T10:31:05Z</time>
      </trkpt>
      <trkpt lat="42.43787" lon="0.06763">
        <ele>603.4</ele>
        <time>2016-07-31T10:31:06Z</time>
      </trkpt>
      <trkpt lat="42.43784" lon="0.06765">
        <ele>604</ele>
        <time>2016-07-31T10:31:07Z</time>
      </trkpt>
      <trkpt lat="42.4378" lon="0.06767">
        <ele>605</ele>
        <time>2016-07-31T10:31:08Z</time>
      </trkpt>
      <trkpt lat="42.43775" lon="0.06769">
        <ele>606.1</ele>
        <time>2016-07-31T10:31:09Z</time>
      </trkpt>
      <trkpt lat="42.43771" lon="0.06771">
        <ele>607.1</ele>
        <time>2016-07-31T10:31:10Z</time>
      </trkpt>
      <trkpt lat="42.43767" lon="0.06773">
        <ele>608.2</ele>
        <time>2016-07-31T10:31:11Z</time>
      </trkpt>
      <trkpt lat="42.43762" lon="0.06774">
        <ele>609.6</ele>
        <time>2016-07-31T10:31:12Z</time>
      </trkpt>
      <trkpt lat="42.43758" lon="0.06776">
        <ele>610.7</ele>
        <time>2016-07-31T10:31:13Z</time>
      </trkpt>
      <trkpt lat="42.43753" lon="0.06779">
        <ele>611.8</ele>
        <time>2016-07-31T10:31:14Z</time>
      </trkpt>
      <trkpt lat="42.43748" lon="0.06783">
        <ele>612.7</ele>
        <time>2016-07-31T10:31:15Z</time>
      </trkpt>
      <trkpt lat="42.43744" lon="0.06787">
        <ele>613.5</ele>
        <time>2016-07-31T10:31:16Z</time>
      </trkpt>
      <trkpt lat="42.4374" lon="0.06791">
        <ele>614.2</ele>
        <time>2016-07-31T10:31:17Z</time>
      </trkpt>
      <trkpt lat="42.43737" lon="0.06795">
        <ele>614.9</ele>
        <time>2016-07-31T10:31:18Z</time>
      </trkpt>
      <trkpt lat="42.43734" lon="0.068">
        <ele>615.5</ele>
        <time>2016-07-31T10:31:19Z</time>
      </trkpt>
      <trkpt lat="42.4373" lon="0.06805">
        <ele>616.5</ele>
        <time>2016-07-31T10:31:20Z</time>
      </trkpt>
      <trkpt lat="42.43727" lon="0.06809">
        <ele>617.3</ele>
        <time>2016-07-31T10:31:21Z</time>
      </trkpt>
      <trkpt lat="42.43723" lon="0.06815">
        <ele>618</ele>
        <time>2016-07-31T10:31:22Z</time>
      </trkpt>
      <trkpt lat="42.4372" lon="0.0682">
        <ele>618.9</ele>
        <time>2016-07-31T10:31:23Z</time>
      </trkpt>
      <trkpt lat="42.43717" lon="0.06825">
        <ele>619.7</ele>
        <time>2016-07-31T10:31:24Z</time>
      </trkpt>
      <trkpt lat="42.43714" lon="0.0683">
        <ele>620.5</ele>
        <time>2016-07-31T10:31:25Z</time>
      </trkpt>
      <trkpt lat="42.43712" lon="0.06835">
        <ele>621.1</ele>
        <time>2016-07-31T10:31:26Z</time>
      </trkpt>
      <trkpt lat="42.43709" lon="0.0684">
        <ele>622</ele>
        <time>2016-07-31T10:31:27Z</time>
      </trkpt>
      <trkpt lat="42.43707" lon="0.06846">
        <ele>623</ele>
        <time>2016-07-31T10:31:28Z</time>
      </trkpt>
      <trkpt lat="42.43704" lon="0.06852">
        <ele>624.5</ele>
        <time>2016-07-31T10:31:29Z</time>
      </trkpt>
      <trkpt lat="42.43703" lon="0.06857">
        <ele>625.5</ele>
        <time>2016-07-31T10:31:30Z</time>
      </trkpt>
      <trkpt lat="42.43701" lon="0.06861">
        <ele>626.7</ele>
        <time>2016-07-31T10:31:31Z</time>
      </trkpt>
      <trkpt lat="42.43699" lon="0.06866">
        <ele>627.5</ele>
        <time>2016-07-31T10:31:32Z</time>
      </trkpt>
      <trkpt lat="42.43697" lon="0.06871">
        <ele>628.9</ele>
        <time>2016-07-31T10:31:33Z</time>
      </trkpt>
      <trkpt lat="42.43696" lon="0.06875">
        <ele>629.9</ele>
        <time>2016-07-31T10:31:34Z</time>
      </trkpt>
      <trkpt lat="42.43693" lon="0.06879">
        <ele>631.1</ele>
        <time>2016-07-31T10:31:35Z</time>
      </trkpt>
      <trkpt lat="42.43692" lon="0.06884">
        <ele>631.7</ele>
        <time>2016-07-31T10:31:36Z</time>
      </trkpt>
      <trkpt lat="42.4369" lon="0.06888">
        <ele>633</ele>
        <time>2016-07-31T10:31:37Z</time>
      </trkpt>
      <trkpt lat="42.43688" lon="0.06891">
        <ele>634</ele>
        <time>2016-07-31T10:31:38Z</time>
      </trkpt>
      <trkpt lat="42.43686" lon="0.06894">
        <ele>635.3</ele>
        <time>2016-07-31T10:31:39Z</time>
      </trkpt>
      <trkpt lat="42.43685" lon="0.06897">
        <ele>636.2</ele>
        <time>2016-07-31T10:31:40Z</time>
      </trkpt>
      <trkpt lat="42.43682" lon="0.06904">
        <ele>637.3</ele>
        <time>2016-07-31T10:31:42Z</time>
      </trkpt>
      <trkpt lat="42.43681" lon="0.0691">
        <ele>637.9</ele>
        <time>2016-07-31T10:31:44Z</time>
      </trkpt>
      <trkpt lat="42.4368" lon="0.06914">
        <ele>638.1</ele>
        <time>2016-07-31T10:31:45Z</time>
      </trkpt>
      <trkpt lat="42.4368" lon="0.06919">
        <ele>638.5</ele>
        <time>2016-07-31T10:31:46Z</time>
      </trkpt>
      <trkpt lat="42.43679" lon="0.06923">
        <ele>639</ele>
        <time>2016-07-31T10:31:47Z</time>
      </trkpt>
      <trkpt lat="42.43678" lon="0.06927">
        <ele>639.4</ele>
        <time>2016-07-31T10:31:48Z</time>
      </trkpt>
      <trkpt lat="42.43677" lon="0.06932">
        <ele>639.8</ele>
        <time>2016-07-31T10:31:49Z</time>
      </trkpt>
      <trkpt lat="42.43676" lon="0.06936">
        <ele>640.1</ele>
        <time>2016-07-31T10:31:50Z</time>
      </trkpt>
      <trkpt lat="42.43675" lon="0.0694">
        <ele>640.5</ele>
        <time>2016-07-31T10:31:51Z</time>
      </trkpt>
      <trkpt lat="42.43674" lon="0.06944">
        <ele>640.8</ele>
        <time>2016-07-31T10:31:52Z</time>
      </trkpt>
      <trkpt lat="42.43674" lon="0.06951">
        <ele>641.1</ele>
        <time>2016-07-31T10:31:54Z</time>
      </trkpt>
      <trkpt lat="42.43673" lon="0.06959">
        <ele>640.8</ele>
        <time>2016-07-31T10:31:56Z</time>
      </trkpt>
      <trkpt lat="42.43673" lon="0.06964">
        <ele>640.4</ele>
        <time>2016-07-31T10:31:58Z</time>
      </trkpt>
      <trkpt lat="42.43673" lon="0.06969">
        <ele>639.9</ele>
        <time>2016-07-31T10:32:00Z</time>
      </trkpt>
      <trkpt lat="42.43673" lon="0.06973">
        <ele>639.4</ele>
        <time>2016-07-31T10:32:02Z</time>
      </trkpt>
      <trkpt lat="42.43673" lon="0.06979">
        <ele>638.9</ele>
        <time>2016-07-31T10:32:04Z</time>
      </trkpt>
      <trkpt lat="42.43673" lon="0.06983">
        <ele>638.6</ele>
        <time>2016-07-31T10:32:05Z</time>
      </trkpt>
      <trkpt lat="42.43672" lon="0.06987">
        <ele>638.5</ele>
        <time>2016-07-31T10:32:06Z</time>
      </trkpt>
      <trkpt lat="42.43672" lon="0.06992">
        <ele>638.2</ele>
        <time>2016-07-31T10:32:07Z</time>
      </trkpt>
      <trkpt lat="42.43672" lon="0.06998">
        <ele>637.8</ele>
        <time>2016-07-31T10:32:08Z</time>
      </trkpt>
      <trkpt lat="42.43671" lon="0.07004">
        <ele>637.4</ele>
        <time>2016-07-31T10:32:09Z</time>
      </trkpt>
      <trkpt lat="42.4367" lon="0.07012">
        <ele>637.2</ele>
        <time>2016-07-31T10:32:10Z</time>
      </trkpt>
      <trkpt lat="42.43669" lon="0.07018">
        <ele>637.7</ele>
        <time>2016-07-31T10:32:11Z</time>
      </trkpt>
      <trkpt lat="42.43668" lon="0.07023">
        <ele>637.8</ele>
        <time>2016-07-31T10:32:12Z</time>
      </trkpt>
      <trkpt lat="42.43667" lon="0.07027">
        <ele>638</ele>
        <time>2016-07-31T10:32:13Z</time>
      </trkpt>
      <trkpt lat="42.43667" lon="0.07031">
        <ele>637.3</ele>
        <time>2016-07-31T10:32:14Z</time>
      </trkpt>
      <trkpt lat="42.43666" lon="0.07037">
        <ele>637.5</ele>
        <time>2016-07-31T10:32:16Z</time>
      </trkpt>
      <trkpt lat="42.43665" lon="0.07043">
        <ele>637.2</ele>
        <time>2016-07-31T10:32:18Z</time>
      </trkpt>
      <trkpt lat="42.43664" lon="0.07051">
        <ele>637</ele>
        <time>2016-07-31T10:32:20Z</time>
      </trkpt>
      <trkpt lat="42.43663" lon="0.07056">
        <ele>636.9</ele>
        <time>2016-07-31T10:32:21Z</time>
      </trkpt>
      <trkpt lat="42.43662" lon="0.07061">
        <ele>636.3</ele>
        <time>2016-07-31T10:32:22Z</time>
      </trkpt>
      <trkpt lat="42.43662" lon="0.07069">
        <ele>635</ele>
        <time>2016-07-31T10:32:23Z</time>
      </trkpt>
      <trkpt lat="42.43663" lon="0.07076">
        <ele>633.2</ele>
        <time>2016-07-31T10:32:24Z</time>
      </trkpt>
      <trkpt lat="42.43663" lon="0.07082">
        <ele>631.7</ele>
        <time>2016-07-31T10:32:25Z</time>
      </trkpt>
      <trkpt lat="42.43666" lon="0.07089">
        <ele>628.8</ele>
        <time>2016-07-31T10:32:26Z</time>
      </trkpt>
      <trkpt lat="42.43667" lon="0.07098">
        <ele>626.6</ele>
        <time>2016-07-31T10:32:27Z</time>
      </trkpt>
      <trkpt lat="42.43667" lon="0.07104">
        <ele>625.6</ele>
        <time>2016-07-31T10:32:28Z</time>
      </trkpt>
      <trkpt lat="42.43667" lon="0.07113">
        <ele>624.1</ele>
        <time>2016-07-31T10:32:29Z</time>
      </trkpt>
      <trkpt lat="42.4367" lon="0.07124">
        <ele>620.2</ele>
        <time>2016-07-31T10:32:30Z</time>
      </trkpt>
      <trkpt lat="42.43672" lon="0.07133">
        <ele>618.3</ele>
        <time>2016-07-31T10:32:31Z</time>
      </trkpt>
      <trkpt lat="42.43673" lon="0.07143">
        <ele>617.2</ele>
        <time>2016-07-31T10:32:32Z</time>
      </trkpt>
      <trkpt lat="42.43673" lon="0.07155">
        <ele>616</ele>
        <time>2016-07-31T10:32:33Z</time>
      </trkpt>
      <trkpt lat="42.43672" lon="0.07165">
        <ele>615.6</ele>
        <time>2016-07-31T10:32:34Z</time>
      </trkpt>
      <trkpt lat="42.4367" lon="0.07174">
        <ele>615.9</ele>
        <time>2016-07-31T10:32:35Z</time>
      </trkpt>
      <trkpt lat="42.43668" lon="0.07184">
        <ele>615.6</ele>
        <time>2016-07-31T10:32:36Z</time>
      </trkpt>
      <trkpt lat="42.43666" lon="0.07193">
        <ele>615.9</ele>
        <time>2016-07-31T10:32:37Z</time>
      </trkpt>
      <trkpt lat="42.43662" lon="0.072">
        <ele>616.9</ele>
        <time>2016-07-31T10:32:38Z</time>
      </trkpt>
      <trkpt lat="42.43657" lon="0.07207">
        <ele>618.2</ele>
        <time>2016-07-31T10:32:39Z</time>
      </trkpt>
      <trkpt lat="42.43655" lon="0.07214">
        <ele>618.5</ele>
        <time>2016-07-31T10:32:40Z</time>
      </trkpt>
      <trkpt lat="42.43654" lon="0.07222">
        <ele>618</ele>
        <time>2016-07-31T10:32:41Z</time>
      </trkpt>
      <trkpt lat="42.43655" lon="0.0723">
        <ele>617</ele>
        <time>2016-07-31T10:32:42Z</time>
      </trkpt>
      <trkpt lat="42.43657" lon="0.07235">
        <ele>615.6</ele>
        <time>2016-07-31T10:32:43Z</time>
      </trkpt>
      <trkpt lat="42.43656" lon="0.07242">
        <ele>615.5</ele>
        <time>2016-07-31T10:32:44Z</time>
      </trkpt>
      <trkpt lat="42.43653" lon="0.0725">
        <ele>615.9</ele>
        <time>2016-07-31T10:32:45Z</time>
      </trkpt>
      <trkpt lat="42.43653" lon="0.07258">
        <ele>615.3</ele>
        <time>2016-07-31T10:32:46Z</time>
      </trkpt>
      <trkpt lat="42.43653" lon="0.07264">
        <ele>614.8</ele>
        <time>2016-07-31T10:32:47Z</time>
      </trkpt>
      <trkpt lat="42.43652" lon="0.0727">
        <ele>614.8</ele>
        <time>2016-07-31T10:32:48Z</time>
      </trkpt>
      <trkpt lat="42.43649" lon="0.07276">
        <ele>615.3</ele>
        <time>2016-07-31T10:32:49Z</time>
      </trkpt>
      <trkpt lat="42.43648" lon="0.07283">
        <ele>615.5</ele>
        <time>2016-07-31T10:32:50Z</time>
      </trkpt>
      <trkpt lat="42.43645" lon="0.07289">
        <ele>615.9</ele>
        <time>2016-07-31T10:32:51Z</time>
      </trkpt>
      <trkpt lat="42.43642" lon="0.07296">
        <ele>616.7</ele>
        <time>2016-07-31T10:32:52Z</time>
      </trkpt>
      <trkpt lat="42.43642" lon="0.07302">
        <ele>616.3</ele>
        <time>2016-07-31T10:32:53Z</time>
      </trkpt>
      <trkpt lat="42.4364" lon="0.07308">
        <ele>616.2</ele>
        <time>2016-07-31T10:32:54Z</time>
      </trkpt>
      <trkpt lat="42.43638" lon="0.07313">
        <ele>616.5</ele>
        <time>2016-07-31T10:32:55Z</time>
      </trkpt>
      <trkpt lat="42.43637" lon="0.0732">
        <ele>616.3</ele>
        <time>2016-07-31T10:32:56Z</time>
      </trkpt>
      <trkpt lat="42.43635" lon="0.07327">
        <ele>616.2</ele>
        <time>2016-07-31T10:32:57Z</time>
      </trkpt>
      <trkpt lat="42.43633" lon="0.07334">
        <ele>616</ele>
        <time>2016-07-31T10:32:58Z</time>
      </trkpt>
      <trkpt lat="42.43631" lon="0.07341">
        <ele>615.9</ele>
        <time>2016-07-31T10:32:59Z</time>
      </trkpt>
      <trkpt lat="42.4363" lon="0.07349">
        <ele>615.6</ele>
        <time>2016-07-31T10:33:00Z</time>
      </trkpt>
      <trkpt lat="42.43628" lon="0.07356">
        <ele>615.5</ele>
        <time>2016-07-31T10:33:01Z</time>
      </trkpt>
      <trkpt lat="42.43625" lon="0.07362">
        <ele>615.7</ele>
        <time>2016-07-31T10:33:02Z</time>
      </trkpt>
      <trkpt lat="42.43623" lon="0.07369">
        <ele>615.1</ele>
        <time>2016-07-31T10:33:03Z</time>
      </trkpt>
      <trkpt lat="42.43621" lon="0.07376">
        <ele>614.5</ele>
        <time>2016-07-31T10:33:04Z</time>
      </trkpt>
      <trkpt lat="42.43619" lon="0.07383">
        <ele>613.7</ele>
        <time>2016-07-31T10:33:05Z</time>
      </trkpt>
      <trkpt lat="42.43617" lon="0.07391">
        <ele>612.6</ele>
        <time>2016-07-31T10:33:06Z</time>
      </trkpt>
      <trkpt lat="42.43616" lon="0.07398">
        <ele>611.3</ele>
        <time>2016-07-31T10:33:07Z</time>
      </trkpt>
      <trkpt lat="42.43615" lon="0.07405">
        <ele>610.3</ele>
        <time>2016-07-31T10:33:08Z</time>
      </trkpt>
      <trkpt lat="42.43614" lon="0.07413">
        <ele>609.1</ele>
        <time>2016-07-31T10:33:09Z</time>
      </trkpt>
      <trkpt lat="42.43613" lon="0.07421">
        <ele>607.8</ele>
        <time>2016-07-31T10:33:10Z</time>
      </trkpt>
      <trkpt lat="42.43613" lon="0.07431">
        <ele>605.9</ele>
        <time>2016-07-31T10:33:11Z</time>
      </trkpt>
      <trkpt lat="42.43613" lon="0.0744">
        <ele>604.4</ele>
        <time>2016-07-31T10:33:12Z</time>
      </trkpt>
      <trkpt lat="42.43612" lon="0.07449">
        <ele>602.9</ele>
        <time>2016-07-31T10:33:13Z</time>
      </trkpt>
      <trkpt lat="42.43611" lon="0.07457">
        <ele>601.7</ele>
        <time>2016-07-31T10:33:14Z</time>
      </trkpt>
      <trkpt lat="42.43609" lon="0.07465">
        <ele>600.7</ele>
        <time>2016-07-31T10:33:15Z</time>
      </trkpt>
      <trkpt lat="42.43608" lon="0.07473">
        <ele>599.6</ele>
        <time>2016-07-31T10:33:16Z</time>
      </trkpt>
      <trkpt lat="42.43607" lon="0.07481">
        <ele>598.6</ele>
        <time>2016-07-31T10:33:17Z</time>
      </trkpt>
      <trkpt lat="42.43606" lon="0.07488">
        <ele>597.7</ele>
        <time>2016-07-31T10:33:18Z</time>
      </trkpt>
      <trkpt lat="42.43605" lon="0.07496">
        <ele>596.6</ele>
        <time>2016-07-31T10:33:19Z</time>
      </trkpt>
      <trkpt lat="42.43603" lon="0.07503">
        <ele>595.7</ele>
        <time>2016-07-31T10:33:20Z</time>
      </trkpt>
      <trkpt lat="42.43601" lon="0.07511">
        <ele>594.8</ele>
        <time>2016-07-31T10:33:21Z</time>
      </trkpt>
      <trkpt lat="42.43599" lon="0.07518">
        <ele>593.6</ele>
        <time>2016-07-31T10:33:22Z</time>
      </trkpt>
      <trkpt lat="42.43598" lon="0.07526">
        <ele>592.4</ele>
        <time>2016-07-31T10:33:23Z</time>
      </trkpt>
      <trkpt lat="42.43597" lon="0.07533">
        <ele>591.2</ele>
        <time>2016-07-31T10:33:24Z</time>
      </trkpt>
      <trkpt lat="42.43597" lon="0.0754">
        <ele>590</ele>
        <time>2016-07-31T10:33:25Z</time>
      </trkpt>
      <trkpt lat="42.43596" lon="0.07547">
        <ele>589.4</ele>
        <time>2016-07-31T10:33:26Z</time>
      </trkpt>
      <trkpt lat="42.43594" lon="0.07554">
        <ele>589</ele>
        <time>2016-07-31T10:33:27Z</time>
      </trkpt>
      <trkpt lat="42.43593" lon="0.0756">
        <ele>588.6</ele>
        <time>2016-07-31T10:33:28Z</time>
      </trkpt>
      <trkpt lat="42.43591" lon="0.07566">
        <ele>588.2</ele>
        <time>2016-07-31T10:33:29Z</time>
      </trkpt>
      <trkpt lat="42.4359" lon="0.07571">
        <ele>587.9</ele>
        <time>2016-07-31T10:33:30Z</time>
      </trkpt>
      <trkpt lat="42.43589" lon="0.07576">
        <ele>587.5</ele>
        <time>2016-07-31T10:33:31Z</time>
      </trkpt>
      <trkpt lat="42.43587" lon="0.07581">
        <ele>587.2</ele>
        <time>2016-07-31T10:33:32Z</time>
      </trkpt>
      <trkpt lat="42.43585" lon="0.07585">
        <ele>587</ele>
        <time>2016-07-31T10:33:33Z</time>
      </trkpt>
      <trkpt lat="42.43583" lon="0.07588">
        <ele>586.9</ele>
        <time>2016-07-31T10:33:34Z</time>
      </trkpt>
      <trkpt lat="42.4358" lon="0.07589">
        <ele>587</ele>
        <time>2016-07-31T10:33:35Z</time>
      </trkpt>
      <trkpt lat="42.43578" lon="0.07591">
        <ele>586.9</ele>
        <time>2016-07-31T10:33:36Z</time>
      </trkpt>
      <trkpt lat="42.43575" lon="0.07593">
        <ele>586.9</ele>
        <time>2016-07-31T10:33:37Z</time>
      </trkpt>
      <trkpt lat="42.43572" lon="0.07594">
        <ele>586.9</ele>
        <time>2016-07-31T10:33:38Z</time>
      </trkpt>
      <trkpt lat="42.43569" lon="0.07596">
        <ele>586.9</ele>
        <time>2016-07-31T10:33:40Z</time>
      </trkpt>
      <trkpt lat="42.43565" lon="0.07601">
        <ele>586.6</ele>
        <time>2016-07-31T10:33:42Z</time>
      </trkpt>
      <trkpt lat="42.43564" lon="0.07604">
        <ele>586.4</ele>
        <time>2016-07-31T10:33:43Z</time>
      </trkpt>
      <trkpt lat="42.43563" lon="0.07609">
        <ele>585.9</ele>
        <time>2016-07-31T10:33:44Z</time>
      </trkpt>
      <trkpt lat="42.43562" lon="0.07614">
        <ele>585.4</ele>
        <time>2016-07-31T10:33:45Z</time>
      </trkpt>
      <trkpt lat="42.43562" lon="0.07619">
        <ele>584.9</ele>
        <time>2016-07-31T10:33:46Z</time>
      </trkpt>
      <trkpt lat="42.43561" lon="0.07624">
        <ele>584.4</ele>
        <time>2016-07-31T10:33:47Z</time>
      </trkpt>
      <trkpt lat="42.43561" lon="0.0763">
        <ele>584.3</ele>
        <time>2016-07-31T10:33:48Z</time>
      </trkpt>
      <trkpt lat="42.4356" lon="0.07635">
        <ele>584.4</ele>
        <time>2016-07-31T10:33:49Z</time>
      </trkpt>
      <trkpt lat="42.4356" lon="0.0764">
        <ele>584.4</ele>
        <time>2016-07-31T10:33:50Z</time>
      </trkpt>
      <trkpt lat="42.43559" lon="0.07644">
        <ele>584.4</ele>
        <time>2016-07-31T10:33:51Z</time>
      </trkpt>
      <trkpt lat="42.43559" lon="0.07648">
        <ele>584.4</ele>
        <time>2016-07-31T10:33:52Z</time>
      </trkpt>
      <trkpt lat="42.43558" lon="0.07652">
        <ele>584.5</ele>
        <time>2016-07-31T10:33:53Z</time>
      </trkpt>
      <trkpt lat="42.43557" lon="0.07655">
        <ele>584.5</ele>
        <time>2016-07-31T10:33:54Z</time>
      </trkpt>
      <trkpt lat="42.43555" lon="0.07658">
        <ele>584.6</ele>
        <time>2016-07-31T10:33:55Z</time>
      </trkpt>
      <trkpt lat="42.43553" lon="0.07661">
        <ele>584.6</ele>
        <time>2016-07-31T10:33:56Z</time>
      </trkpt>
      <trkpt lat="42.43551" lon="0.07664">
        <ele>584.7</ele>
        <time>2016-07-31T10:33:57Z</time>
      </trkpt>
      <trkpt lat="42.43549" lon="0.07666">
        <ele>584.8</ele>
        <time>2016-07-31T10:33:58Z</time>
      </trkpt>
      <trkpt lat="42.43547" lon="0.07668">
        <ele>584.9</ele>
        <time>2016-07-31T10:33:59Z</time>
      </trkpt>
      <trkpt lat="42.43544" lon="0.07671">
        <ele>584.9</ele>
        <time>2016-07-31T10:34:00Z</time>
      </trkpt>
      <trkpt lat="42.43541" lon="0.07673">
        <ele>585</ele>
        <time>2016-07-31T10:34:01Z</time>
      </trkpt>
      <trkpt lat="42.43538" lon="0.07676">
        <ele>585</ele>
        <time>2016-07-31T10:34:02Z</time>
      </trkpt>
      <trkpt lat="42.43535" lon="0.07678">
        <ele>585</ele>
        <time>2016-07-31T10:34:03Z</time>
      </trkpt>
      <trkpt lat="42.43532" lon="0.07681">
        <ele>585</ele>
        <time>2016-07-31T10:34:04Z</time>
      </trkpt>
      <trkpt lat="42.4353" lon="0.07683">
        <ele>585</ele>
        <time>2016-07-31T10:34:05Z</time>
      </trkpt>
      <trkpt lat="42.43527" lon="0.07686">
        <ele>585</ele>
        <time>2016-07-31T10:34:06Z</time>
      </trkpt>
      <trkpt lat="42.43525" lon="0.07688">
        <ele>585</ele>
        <time>2016-07-31T10:34:07Z</time>
      </trkpt>
      <trkpt lat="42.43523" lon="0.07691">
        <ele>585</ele>
        <time>2016-07-31T10:34:08Z</time>
      </trkpt>
      <trkpt lat="42.43521" lon="0.07694">
        <ele>584.9</ele>
        <time>2016-07-31T10:34:09Z</time>
      </trkpt>
      <trkpt lat="42.43519" lon="0.07697">
        <ele>584.9</ele>
        <time>2016-07-31T10:34:10Z</time>
      </trkpt>
      <trkpt lat="42.43517" lon="0.077">
        <ele>584.8</ele>
        <time>2016-07-31T10:34:11Z</time>
      </trkpt>
      <trkpt lat="42.43515" lon="0.07703">
        <ele>584.8</ele>
        <time>2016-07-31T10:34:12Z</time>
      </trkpt>
      <trkpt lat="42.43513" lon="0.07706">
        <ele>584.7</ele>
        <time>2016-07-31T10:34:13Z</time>
      </trkpt>
      <trkpt lat="42.43511" lon="0.0771">
        <ele>584.6</ele>
        <time>2016-07-31T10:34:14Z</time>
      </trkpt>
      <trkpt lat="42.43509" lon="0.07713">
        <ele>584.6</ele>
        <time>2016-07-31T10:34:15Z</time>
      </trkpt>
      <trkpt lat="42.43508" lon="0.07717">
        <ele>584.5</ele>
        <time>2016-07-31T10:34:16Z</time>
      </trkpt>
      <trkpt lat="42.43505" lon="0.07722">
        <ele>584.4</ele>
        <time>2016-07-31T10:34:18Z</time>
      </trkpt>
      <trkpt lat="42.43504" lon="0.07726">
        <ele>584.3</ele>
        <time>2016-07-31T10:34:20Z</time>
      </trkpt>
      <trkpt lat="42.43503" lon="0.07731">
        <ele>584.3</ele>
        <time>2016-07-31T10:34:22Z</time>
      </trkpt>
      <trkpt lat="42.43501" lon="0.07735">
        <ele>584.2</ele>
        <time>2016-07-31T10:34:24Z</time>
      </trkpt>
      <trkpt lat="42.435" lon="0.0774">
        <ele>584.1</ele>
        <time>2016-07-31T10:34:26Z</time>
      </trkpt>
      <trkpt lat="42.43501" lon="0.07745">
        <ele>584.1</ele>
        <time>2016-07-31T10:34:28Z</time>
      </trkpt>
      <trkpt lat="42.435" lon="0.0775">
        <ele>584</ele>
        <time>2016-07-31T10:34:30Z</time>
      </trkpt>
      <trkpt lat="42.435" lon="0.07757">
        <ele>583.9</ele>
        <time>2016-07-31T10:34:32Z</time>
      </trkpt>
      <trkpt lat="42.435" lon="0.07761">
        <ele>583.9</ele>
        <time>2016-07-31T10:34:33Z</time>
      </trkpt>
      <trkpt lat="42.43499" lon="0.07765">
        <ele>583.8</ele>
        <time>2016-07-31T10:34:34Z</time>
      </trkpt>
      <trkpt lat="42.43499" lon="0.0777">
        <ele>583.7</ele>
        <time>2016-07-31T10:34:35Z</time>
      </trkpt>
      <trkpt lat="42.43499" lon="0.07774">
        <ele>583.7</ele>
        <time>2016-07-31T10:34:36Z</time>
      </trkpt>
      <trkpt lat="42.43499" lon="0.0778">
        <ele>583.6</ele>
        <time>2016-07-31T10:34:38Z</time>
      </trkpt>
      <trkpt lat="42.43502" lon="0.0778">
        <ele>583.7</ele>
        <time>2016-07-31T10:34:40Z</time>
      </trkpt>
      <trkpt lat="42.43505" lon="0.07774">
        <ele>583.9</ele>
        <time>2016-07-31T10:34:42Z</time>
      </trkpt>
      <trkpt lat="42.43505" lon="0.0777">
        <ele>583.9</ele>
        <time>2016-07-31T10:34:43Z</time>
      </trkpt>
      <trkpt lat="42.43505" lon="0.07766">
        <ele>584</ele>
        <time>2016-07-31T10:34:44Z</time>
      </trkpt>
      <trkpt lat="42.43505" lon="0.07762">
        <ele>584</ele>
        <time>2016-07-31T10:34:45Z</time>
      </trkpt>
      <trkpt lat="42.43505" lon="0.07759">
        <ele>584</ele>
        <time>2016-07-31T10:34:46Z</time>
      </trkpt>
      <trkpt lat="42.43505" lon="0.07752">
        <ele>584.1</ele>
        <time>2016-07-31T10:34:48Z</time>
      </trkpt>
      <trkpt lat="42.43506" lon="0.07747">
        <ele>584.2</ele>
        <time>2016-07-31T10:34:50Z</time>
      </trkpt>
      <trkpt lat="42.43506" lon="0.07743">
        <ele>584.2</ele>
        <time>2016-07-31T10:34:52Z</time>
      </trkpt>
      <trkpt lat="42.43506" lon="0.07738">
        <ele>584.3</ele>
        <time>2016-07-31T10:34:54Z</time>
      </trkpt>
      <trkpt lat="42.43507" lon="0.07734">
        <ele>584.3</ele>
        <time>2016-07-31T10:34:57Z</time>
      </trkpt>
      <trkpt lat="42.43509" lon="0.0773">
        <ele>584.4</ele>
        <time>2016-07-31T10:35:00Z</time>
      </trkpt>
      <trkpt lat="42.4351" lon="0.07726">
        <ele>584.5</ele>
        <time>2016-07-31T10:35:03Z</time>
      </trkpt>
      <trkpt lat="42.43512" lon="0.07724">
        <ele>584.5</ele>
        <time>2016-07-31T10:35:06Z</time>
      </trkpt>
      <trkpt lat="42.43515" lon="0.07721">
        <ele>584.6</ele>
        <time>2016-07-31T10:35:09Z</time>
      </trkpt>
      <trkpt lat="42.43515" lon="0.07717">
        <ele>584.6</ele>
        <time>2016-07-31T10:35:17Z</time>
      </trkpt>
      <trkpt lat="42.43514" lon="0.07713">
        <ele>584.6</ele>
        <time>2016-07-31T10:37:42Z</time>
      </trkpt>
      <trkpt lat="42.43516" lon="0.07711">
        <ele>584.7</ele>
        <time>2016-07-31T10:37:44Z</time>
      </trkpt>
      <trkpt lat="42.43519" lon="0.07707">
        <ele>584.7</ele>
        <time>2016-07-31T10:37:46Z</time>
      </trkpt>
      <trkpt lat="42.43522" lon="0.07704">
        <ele>584.8</ele>
        <time>2016-07-31T10:37:48Z</time>
      </trkpt>
      <trkpt lat="42.43527" lon="0.07703">
        <ele>584.9</ele>
        <time>2016-07-31T10:37:50Z</time>
      </trkpt>
      <trkpt lat="42.43531" lon="0.07703">
        <ele>584.9</ele>
        <time>2016-07-31T10:37:52Z</time>
      </trkpt>
      <trkpt lat="42.43533" lon="0.07707">
        <ele>584.9</ele>
        <time>2016-07-31T10:38:00Z</time>
      </trkpt>
      <trkpt lat="42.43534" lon="0.0771">
        <ele>584.9</ele>
        <time>2016-07-31T10:38:06Z</time>
      </trkpt>
      <trkpt lat="42.43538" lon="0.0771">
        <ele>585</ele>
        <time>2016-07-31T10:38:13Z</time>
      </trkpt>
      <trkpt lat="42.4354" lon="0.0771">
        <ele>585</ele>
        <time>2016-07-31T10:38:22Z</time>
      </trkpt>
      <trkpt lat="42.43538" lon="0.07707">
        <ele>585</ele>
        <time>2016-07-31T10:38:27Z</time>
      </trkpt>
      <trkpt lat="42.43535" lon="0.07707">
        <ele>584.9</ele>
        <time>2016-07-31T10:38:30Z</time>
      </trkpt>
      <trkpt lat="42.43532" lon="0.07707">
        <ele>584.9</ele>
        <time>2016-07-31T10:38:33Z</time>
      </trkpt>
      <trkpt lat="42.43529" lon="0.07705">
        <ele>584.9</ele>
        <time>2016-07-31T10:38:35Z</time>
      </trkpt>
      <trkpt lat="42.43525" lon="0.07701">
        <ele>584.9</ele>
        <time>2016-07-31T10:38:37Z</time>
      </trkpt>
      <trkpt lat="42.43524" lon="0.07694">
        <ele>584.9</ele>
        <time>2016-07-31T10:38:39Z</time>
      </trkpt>
      <trkpt lat="42.43527" lon="0.0769">
        <ele>585</ele>
        <time>2016-07-31T10:38:40Z</time>
      </trkpt>
      <trkpt lat="42.4353" lon="0.07687">
        <ele>585</ele>
        <time>2016-07-31T10:38:41Z</time>
      </trkpt>
      <trkpt lat="42.43533" lon="0.07684">
        <ele>585</ele>
        <time>2016-07-31T10:38:42Z</time>
      </trkpt>
      <trkpt lat="42.43537" lon="0.07682">
        <ele>585</ele>
        <time>2016-07-31T10:38:43Z</time>
      </trkpt>
      <trkpt lat="42.4354" lon="0.07679">
        <ele>585</ele>
        <time>2016-07-31T10:38:44Z</time>
      </trkpt>
      <trkpt lat="42.43544" lon="0.07676">
        <ele>584.9</ele>
        <time>2016-07-31T10:38:45Z</time>
      </trkpt>
      <trkpt lat="42.43547" lon="0.07674">
        <ele>584.9</ele>
        <time>2016-07-31T10:38:46Z</time>
      </trkpt>
      <trkpt lat="42.4355" lon="0.07671">
        <ele>584.8</ele>
        <time>2016-07-31T10:38:47Z</time>
      </trkpt>
      <trkpt lat="42.43553" lon="0.07667">
        <ele>584.7</ele>
        <time>2016-07-31T10:38:48Z</time>
      </trkpt>
      <trkpt lat="42.43555" lon="0.07664">
        <ele>584.6</ele>
        <time>2016-07-31T10:38:49Z</time>
      </trkpt>
      <trkpt lat="42.43558" lon="0.0766">
        <ele>584.5</ele>
        <time>2016-07-31T10:38:50Z</time>
      </trkpt>
      <trkpt lat="42.4356" lon="0.07656">
        <ele>584.4</ele>
        <time>2016-07-31T10:38:51Z</time>
      </trkpt>
      <trkpt lat="42.43562" lon="0.07652">
        <ele>584.4</ele>
        <time>2016-07-31T10:38:52Z</time>
      </trkpt>
      <trkpt lat="42.43564" lon="0.07648">
        <ele>584.3</ele>
        <time>2016-07-31T10:38:53Z</time>
      </trkpt>
      <trkpt lat="42.43566" lon="0.07645">
        <ele>584.2</ele>
        <time>2016-07-31T10:38:54Z</time>
      </trkpt>
      <trkpt lat="42.43568" lon="0.07643">
        <ele>584.1</ele>
        <time>2016-07-31T10:38:55Z</time>
      </trkpt>
      <trkpt lat="42.43573" lon="0.0764">
        <ele>584</ele>
        <time>2016-07-31T10:38:57Z</time>
      </trkpt>
      <trkpt lat="42.43576" lon="0.07641">
        <ele>583.8</ele>
        <time>2016-07-31T10:38:59Z</time>
      </trkpt>
      <trkpt lat="42.43579" lon="0.07643">
        <ele>583.8</ele>
        <time>2016-07-31T10:39:02Z</time>
      </trkpt>
      <trkpt lat="42.43575" lon="0.07642">
        <ele>583.9</ele>
        <time>2016-07-31T10:39:28Z</time>
      </trkpt>
      <trkpt lat="42.43573" lon="0.07638">
        <ele>583.9</ele>
        <time>2016-07-31T10:39:30Z</time>
      </trkpt>
      <trkpt lat="42.43571" lon="0.07635">
        <ele>584</ele>
        <time>2016-07-31T10:39:32Z</time>
      </trkpt>
      <trkpt lat="42.43568" lon="0.07634">
        <ele>584.1</ele>
        <time>2016-07-31T10:39:34Z</time>
      </trkpt>
      <trkpt lat="42.43564" lon="0.07636">
        <ele>584.2</ele>
        <time>2016-07-31T10:39:36Z</time>
      </trkpt>
      <trkpt lat="42.4356" lon="0.0764">
        <ele>584.4</ele>
        <time>2016-07-31T10:39:38Z</time>
      </trkpt>
      <trkpt lat="42.43559" lon="0.07643">
        <ele>584.4</ele>
        <time>2016-07-31T10:39:39Z</time>
      </trkpt>
      <trkpt lat="42.43557" lon="0.07647">
        <ele>584.5</ele>
        <time>2016-07-31T10:39:40Z</time>
      </trkpt>
      <trkpt lat="42.43556" lon="0.07651">
        <ele>584.5</ele>
        <time>2016-07-31T10:39:41Z</time>
      </trkpt>
      <trkpt lat="42.43554" lon="0.07654">
        <ele>584.6</ele>
        <time>2016-07-31T10:39:42Z</time>
      </trkpt>
      <trkpt lat="42.43552" lon="0.07659">
        <ele>584.7</ele>
        <time>2016-07-31T10:39:44Z</time>
      </trkpt>
      <trkpt lat="42.43552" lon="0.07663">
        <ele>584.7</ele>
        <time>2016-07-31T10:39:46Z</time>
      </trkpt>
      <trkpt lat="42.43557" lon="0.07662">
        <ele>584.5</ele>
        <time>2016-07-31T10:39:48Z</time>
      </trkpt>
      <trkpt lat="42.43559" lon="0.0766">
        <ele>584.5</ele>
        <time>2016-07-31T10:39:49Z</time>
      </trkpt>
      <trkpt lat="42.43561" lon="0.07656">
        <ele>584.4</ele>
        <time>2016-07-31T10:39:50Z</time>
      </trkpt>
      <trkpt lat="42.43562" lon="0.07652">
        <ele>584.3</ele>
        <time>2016-07-31T10:39:51Z</time>
      </trkpt>
      <trkpt lat="42.43564" lon="0.07648">
        <ele>584.3</ele>
        <time>2016-07-31T10:39:52Z</time>
      </trkpt>
      <trkpt lat="42.43565" lon="0.07645">
        <ele>584.2</ele>
        <time>2016-07-31T10:39:53Z</time>
      </trkpt>
      <trkpt lat="42.43568" lon="0.0764">
        <ele>584.1</ele>
        <time>2016-07-31T10:39:55Z</time>
      </trkpt>
      <trkpt lat="42.43571" lon="0.0764">
        <ele>584</ele>
        <time>2016-07-31T10:39:57Z</time>
      </trkpt>
      <trkpt lat="42.43575" lon="0.07641">
        <ele>583.9</ele>
        <time>2016-07-31T10:39:59Z</time>
      </trkpt>
      <trkpt lat="42.43578" lon="0.07642">
        <ele>583.8</ele>
        <time>2016-07-31T10:40:02Z</time>
      </trkpt>
      <trkpt lat="42.43575" lon="0.07637">
        <ele>583.9</ele>
        <time>2016-07-31T10:45:35Z</time>
      </trkpt>
      <trkpt lat="42.4357" lon="0.07634">
        <ele>584</ele>
        <time>2016-07-31T10:45:37Z</time>
      </trkpt>
      <trkpt lat="42.43565" lon="0.07635">
        <ele>584.2</ele>
        <time>2016-07-31T10:45:39Z</time>
      </trkpt>
      <trkpt lat="42.43562" lon="0.07638">
        <ele>584.3</ele>
        <time>2016-07-31T10:45:40Z</time>
      </trkpt>
      <trkpt lat="42.4356" lon="0.07641">
        <ele>584.4</ele>
        <time>2016-07-31T10:45:41Z</time>
      </trkpt>
      <trkpt lat="42.43558" lon="0.07645">
        <ele>584.5</ele>
        <time>2016-07-31T10:45:42Z</time>
      </trkpt>
      <trkpt lat="42.43556" lon="0.07649">
        <ele>584.5</ele>
        <time>2016-07-31T10:45:43Z</time>
      </trkpt>
      <trkpt lat="42.43554" lon="0.07653">
        <ele>584.6</ele>
        <time>2016-07-31T10:45:44Z</time>
      </trkpt>
      <trkpt lat="42.43552" lon="0.07657">
        <ele>584.7</ele>
        <time>2016-07-31T10:45:45Z</time>
      </trkpt>
      <trkpt lat="42.4355" lon="0.0766">
        <ele>584.8</ele>
        <time>2016-07-31T10:45:46Z</time>
      </trkpt>
      <trkpt lat="42.43547" lon="0.07663">
        <ele>584.8</ele>
        <time>2016-07-31T10:45:47Z</time>
      </trkpt>
      <trkpt lat="42.43544" lon="0.07666">
        <ele>584.9</ele>
        <time>2016-07-31T10:45:48Z</time>
      </trkpt>
      <trkpt lat="42.43541" lon="0.07669">
        <ele>585</ele>
        <time>2016-07-31T10:45:49Z</time>
      </trkpt>
      <trkpt lat="42.43539" lon="0.07673">
        <ele>585</ele>
        <time>2016-07-31T10:45:50Z</time>
      </trkpt>
      <trkpt lat="42.43536" lon="0.07676">
        <ele>585</ele>
        <time>2016-07-31T10:45:51Z</time>
      </trkpt>
      <trkpt lat="42.43532" lon="0.0768">
        <ele>585</ele>
        <time>2016-07-31T10:45:52Z</time>
      </trkpt>
      <trkpt lat="42.43529" lon="0.07684">
        <ele>585</ele>
        <time>2016-07-31T10:45:53Z</time>
      </trkpt>
      <trkpt lat="42.43526" lon="0.07687">
        <ele>585</ele>
        <time>2016-07-31T10:45:54Z</time>
      </trkpt>
      <trkpt lat="42.43523" lon="0.07691">
        <ele>585</ele>
        <time>2016-07-31T10:45:55Z</time>
      </trkpt>
      <trkpt lat="42.4352" lon="0.07695">
        <ele>584.9</ele>
        <time>2016-07-31T10:45:56Z</time>
      </trkpt>
      <trkpt lat="42.43517" lon="0.07699">
        <ele>584.8</ele>
        <time>2016-07-31T10:45:57Z</time>
      </trkpt>
      <trkpt lat="42.43514" lon="0.07704">
        <ele>584.7</ele>
        <time>2016-07-31T10:45:58Z</time>
      </trkpt>
      <trkpt lat="42.43512" lon="0.0771">
        <ele>584.6</ele>
        <time>2016-07-31T10:45:59Z</time>
      </trkpt>
      <trkpt lat="42.4351" lon="0.07715">
        <ele>584.6</ele>
        <time>2016-07-31T10:46:00Z</time>
      </trkpt>
      <trkpt lat="42.43507" lon="0.0772">
        <ele>584.5</ele>
        <time>2016-07-31T10:46:01Z</time>
      </trkpt>
      <trkpt lat="42.43504" lon="0.07725">
        <ele>584.4</ele>
        <time>2016-07-31T10:46:02Z</time>
      </trkpt>
      <trkpt lat="42.43501" lon="0.0773">
        <ele>584.3</ele>
        <time>2016-07-31T10:46:03Z</time>
      </trkpt>
      <trkpt lat="42.43498" lon="0.07734">
        <ele>584.2</ele>
        <time>2016-07-31T10:46:04Z</time>
      </trkpt>
      <trkpt lat="42.43495" lon="0.07737">
        <ele>584</ele>
        <time>2016-07-31T10:46:05Z</time>
      </trkpt>
      <trkpt lat="42.43491" lon="0.07741">
        <ele>583.9</ele>
        <time>2016-07-31T10:46:06Z</time>
      </trkpt>
      <trkpt lat="42.43489" lon="0.07745">
        <ele>583.8</ele>
        <time>2016-07-31T10:46:07Z</time>
      </trkpt>
      <trkpt lat="42.43486" lon="0.07749">
        <ele>583.7</ele>
        <time>2016-07-31T10:46:08Z</time>
      </trkpt>
      <trkpt lat="42.43483" lon="0.07754">
        <ele>583.5</ele>
        <time>2016-07-31T10:46:09Z</time>
      </trkpt>
      <trkpt lat="42.4348" lon="0.07758">
        <ele>583.4</ele>
        <time>2016-07-31T10:46:10Z</time>
      </trkpt>
      <trkpt lat="42.43476" lon="0.07762">
        <ele>583.2</ele>
        <time>2016-07-31T10:46:11Z</time>
      </trkpt>
      <trkpt lat="42.43472" lon="0.07766">
        <ele>583</ele>
        <time>2016-07-31T10:46:12Z</time>
      </trkpt>
      <trkpt lat="42.43468" lon="0.07769">
        <ele>582.8</ele>
        <time>2016-07-31T10:46:13Z</time>
      </trkpt>
      <trkpt lat="42.43464" lon="0.07772">
        <ele>582.6</ele>
        <time>2016-07-31T10:46:14Z</time>
      </trkpt>
      <trkpt lat="42.43459" lon="0.07775">
        <ele>582.4</ele>
        <time>2016-07-31T10:46:15Z</time>
      </trkpt>
      <trkpt lat="42.43455" lon="0.07778">
        <ele>582.4</ele>
        <time>2016-07-31T10:46:16Z</time>
      </trkpt>
      <trkpt lat="42.43451" lon="0.07781">
        <ele>582.4</ele>
        <time>2016-07-31T10:46:17Z</time>
      </trkpt>
      <trkpt lat="42.43447" lon="0.07784">
        <ele>582.3</ele>
        <time>2016-07-31T10:46:18Z</time>
      </trkpt>
      <trkpt lat="42.43443" lon="0.07787">
        <ele>582.3</ele>
        <time>2016-07-31T10:46:19Z</time>
      </trkpt>
      <trkpt lat="42.43439" lon="0.0779">
        <ele>582.3</ele>
        <time>2016-07-31T10:46:20Z</time>
      </trkpt>
      <trkpt lat="42.43435" lon="0.07793">
        <ele>582.2</ele>
        <time>2016-07-31T10:46:21Z</time>
      </trkpt>
      <trkpt lat="42.43431" lon="0.07796">
        <ele>582.2</ele>
        <time>2016-07-31T10:46:22Z</time>
      </trkpt>
      <trkpt lat="42.43427" lon="0.07799">
        <ele>582.1</ele>
        <time>2016-07-31T10:46:23Z</time>
      </trkpt>
      <trkpt lat="42.43423" lon="0.07802">
        <ele>582</ele>
        <time>2016-07-31T10:46:24Z</time>
      </trkpt>
      <trkpt lat="42.4342" lon="0.07806">
        <ele>582</ele>
        <time>2016-07-31T10:46:25Z</time>
      </trkpt>
      <trkpt lat="42.43416" lon="0.07809">
        <ele>581.9</ele>
        <time>2016-07-31T10:46:26Z</time>
      </trkpt>
      <trkpt lat="42.43413" lon="0.07813">
        <ele>581.8</ele>
        <time>2016-07-31T10:46:27Z</time>
      </trkpt>
      <trkpt lat="42.4341" lon="0.07816">
        <ele>581.7</ele>
        <time>2016-07-31T10:46:28Z</time>
      </trkpt>
      <trkpt lat="42.43408" lon="0.0782">
        <ele>581.6</ele>
        <time>2016-07-31T10:46:29Z</time>
      </trkpt>
      <trkpt lat="42.43405" lon="0.07824">
        <ele>581.5</ele>
        <time>2016-07-31T10:46:30Z</time>
      </trkpt>
      <trkpt lat="42.43402" lon="0.07828">
        <ele>581.4</ele>
        <time>2016-07-31T10:46:31Z</time>
      </trkpt>
      <trkpt lat="42.43398" lon="0.07832">
        <ele>581.3</ele>
        <time>2016-07-31T10:46:32Z</time>
      </trkpt>
      <trkpt lat="42.43395" lon="0.07836">
        <ele>581.2</ele>
        <time>2016-07-31T10:46:33Z</time>
      </trkpt>
      <trkpt lat="42.43391" lon="0.0784">
        <ele>581.1</ele>
        <time>2016-07-31T10:46:34Z</time>
      </trkpt>
      <trkpt lat="42.43387" lon="0.07844">
        <ele>581</ele>
        <time>2016-07-31T10:46:35Z</time>
      </trkpt>
      <trkpt lat="42.43384" lon="0.07849">
        <ele>580.8</ele>
        <time>2016-07-31T10:46:36Z</time>
      </trkpt>
      <trkpt lat="42.4338" lon="0.07853">
        <ele>580.7</ele>
        <time>2016-07-31T10:46:37Z</time>
      </trkpt>
      <trkpt lat="42.43377" lon="0.07858">
        <ele>580.6</ele>
        <time>2016-07-31T10:46:38Z</time>
      </trkpt>
      <trkpt lat="42.43373" lon="0.07862">
        <ele>580.5</ele>
        <time>2016-07-31T10:46:39Z</time>
      </trkpt>
      <trkpt lat="42.43369" lon="0.07867">
        <ele>580.4</ele>
        <time>2016-07-31T10:46:40Z</time>
      </trkpt>
      <trkpt lat="42.43365" lon="0.07872">
        <ele>580.2</ele>
        <time>2016-07-31T10:46:41Z</time>
      </trkpt>
      <trkpt lat="42.43361" lon="0.07876">
        <ele>580.2</ele>
        <time>2016-07-31T10:46:42Z</time>
      </trkpt>
      <trkpt lat="42.43357" lon="0.07881">
        <ele>580.2</ele>
        <time>2016-07-31T10:46:43Z</time>
      </trkpt>
      <trkpt lat="42.43352" lon="0.07886">
        <ele>580.2</ele>
        <time>2016-07-31T10:46:44Z</time>
      </trkpt>
      <trkpt lat="42.43348" lon="0.07891">
        <ele>580.2</ele>
        <time>2016-07-31T10:46:45Z</time>
      </trkpt>
      <trkpt lat="42.43343" lon="0.07895">
        <ele>580.2</ele>
        <time>2016-07-31T10:46:46Z</time>
      </trkpt>
      <trkpt lat="42.43339" lon="0.079">
        <ele>580.2</ele>
        <time>2016-07-31T10:46:47Z</time>
      </trkpt>
      <trkpt lat="42.43334" lon="0.07904">
        <ele>580.1</ele>
        <time>2016-07-31T10:46:48Z</time>
      </trkpt>
      <trkpt lat="42.4333" lon="0.07908">
        <ele>580.1</ele>
        <time>2016-07-31T10:46:49Z</time>
      </trkpt>
      <trkpt lat="42.43326" lon="0.07912">
        <ele>580.1</ele>
        <time>2016-07-31T10:46:50Z</time>
      </trkpt>
      <trkpt lat="42.43321" lon="0.07917">
        <ele>580</ele>
        <time>2016-07-31T10:46:51Z</time>
      </trkpt>
      <trkpt lat="42.43317" lon="0.07921">
        <ele>579.9</ele>
        <time>2016-07-31T10:46:52Z</time>
      </trkpt>
      <trkpt lat="42.43313" lon="0.07926">
        <ele>579.8</ele>
        <time>2016-07-31T10:46:53Z</time>
      </trkpt>
      <trkpt lat="42.43309" lon="0.0793">
        <ele>579.7</ele>
        <time>2016-07-31T10:46:54Z</time>
      </trkpt>
      <trkpt lat="42.43305" lon="0.07935">
        <ele>579.6</ele>
        <time>2016-07-31T10:46:55Z</time>
      </trkpt>
      <trkpt lat="42.43301" lon="0.07939">
        <ele>579.5</ele>
        <time>2016-07-31T10:46:56Z</time>
      </trkpt>
      <trkpt lat="42.43297" lon="0.07943">
        <ele>579.4</ele>
        <time>2016-07-31T10:46:57Z</time>
      </trkpt>
      <trkpt lat="42.43293" lon="0.07948">
        <ele>579.3</ele>
        <time>2016-07-31T10:46:58Z</time>
      </trkpt>
      <trkpt lat="42.43289" lon="0.07952">
        <ele>579.1</ele>
        <time>2016-07-31T10:46:59Z</time>
      </trkpt>
      <trkpt lat="42.43285" lon="0.07957">
        <ele>579</ele>
        <time>2016-07-31T10:47:00Z</time>
      </trkpt>
      <trkpt lat="42.43281" lon="0.07962">
        <ele>578.8</ele>
        <time>2016-07-31T10:47:01Z</time>
      </trkpt>
      <trkpt lat="42.43278" lon="0.07967">
        <ele>578.6</ele>
        <time>2016-07-31T10:47:02Z</time>
      </trkpt>
      <trkpt lat="42.43274" lon="0.07972">
        <ele>578.5</ele>
        <time>2016-07-31T10:47:03Z</time>
      </trkpt>
      <trkpt lat="42.43271" lon="0.07977">
        <ele>578.3</ele>
        <time>2016-07-31T10:47:04Z</time>
      </trkpt>
      <trkpt lat="42.43267" lon="0.07982">
        <ele>578.1</ele>
        <time>2016-07-31T10:47:05Z</time>
      </trkpt>
      <trkpt lat="42.43264" lon="0.07987">
        <ele>578</ele>
        <time>2016-07-31T10:47:06Z</time>
      </trkpt>
      <trkpt lat="42.4326" lon="0.07992">
        <ele>577.8</ele>
        <time>2016-07-31T10:47:07Z</time>
      </trkpt>
      <trkpt lat="42.43256" lon="0.07996">
        <ele>577.7</ele>
        <time>2016-07-31T10:47:08Z</time>
      </trkpt>
      <trkpt lat="42.43252" lon="0.07999">
        <ele>577.5</ele>
        <time>2016-07-31T10:47:09Z</time>
      </trkpt>
      <trkpt lat="42.43248" lon="0.08003">
        <ele>577.4</ele>
        <time>2016-07-31T10:47:10Z</time>
      </trkpt>
      <trkpt lat="42.43243" lon="0.08006">
        <ele>577.3</ele>
        <time>2016-07-31T10:47:11Z</time>
      </trkpt>
      <trkpt lat="42.43239" lon="0.08009">
        <ele>577.2</ele>
        <time>2016-07-31T10:47:12Z</time>
      </trkpt>
      <trkpt lat="42.43235" lon="0.08012">
        <ele>577</ele>
        <time>2016-07-31T10:47:13Z</time>
      </trkpt>
      <trkpt lat="42.43231" lon="0.08015">
        <ele>576.9</ele>
        <time>2016-07-31T10:47:14Z</time>
      </trkpt>
      <trkpt lat="42.43226" lon="0.08018">
        <ele>576.8</ele>
        <time>2016-07-31T10:47:15Z</time>
      </trkpt>
      <trkpt lat="42.43222" lon="0.08021">
        <ele>576.7</ele>
        <time>2016-07-31T10:47:16Z</time>
      </trkpt>
      <trkpt lat="42.43218" lon="0.08024">
        <ele>576.5</ele>
        <time>2016-07-31T10:47:17Z</time>
      </trkpt>
      <trkpt lat="42.43213" lon="0.08027">
        <ele>576.4</ele>
        <time>2016-07-31T10:47:18Z</time>
      </trkpt>
      <trkpt lat="42.43209" lon="0.0803">
        <ele>576.3</ele>
        <time>2016-07-31T10:47:19Z</time>
      </trkpt>
      <trkpt lat="42.43205" lon="0.08033">
        <ele>576.3</ele>
        <time>2016-07-31T10:47:20Z</time>
      </trkpt>
      <trkpt lat="42.43201" lon="0.08036">
        <ele>576.2</ele>
        <time>2016-07-31T10:47:21Z</time>
      </trkpt>
      <trkpt lat="42.43197" lon="0.08039">
        <ele>576.2</ele>
        <time>2016-07-31T10:47:22Z</time>
      </trkpt>
      <trkpt lat="42.43192" lon="0.08042">
        <ele>576.2</ele>
        <time>2016-07-31T10:47:23Z</time>
      </trkpt>
      <trkpt lat="42.43188" lon="0.08045">
        <ele>576.3</ele>
        <time>2016-07-31T10:47:24Z</time>
      </trkpt>
      <trkpt lat="42.43184" lon="0.08048">
        <ele>576.4</ele>
        <time>2016-07-31T10:47:25Z</time>
      </trkpt>
      <trkpt lat="42.4318" lon="0.0805">
        <ele>576.5</ele>
        <time>2016-07-31T10:47:26Z</time>
      </trkpt>
      <trkpt lat="42.43176" lon="0.08053">
        <ele>576.6</ele>
        <time>2016-07-31T10:47:27Z</time>
      </trkpt>
      <trkpt lat="42.43171" lon="0.08056">
        <ele>576.7</ele>
        <time>2016-07-31T10:47:28Z</time>
      </trkpt>
      <trkpt lat="42.43167" lon="0.08058">
        <ele>576.8</ele>
        <time>2016-07-31T10:47:29Z</time>
      </trkpt>
      <trkpt lat="42.43162" lon="0.08061">
        <ele>576.9</ele>
        <time>2016-07-31T10:47:30Z</time>
      </trkpt>
      <trkpt lat="42.43157" lon="0.08063">
        <ele>577</ele>
        <time>2016-07-31T10:47:31Z</time>
      </trkpt>
      <trkpt lat="42.43153" lon="0.08066">
        <ele>577.1</ele>
        <time>2016-07-31T10:47:32Z</time>
      </trkpt>
      <trkpt lat="42.43148" lon="0.08068">
        <ele>577.3</ele>
        <time>2016-07-31T10:47:33Z</time>
      </trkpt>
      <trkpt lat="42.43144" lon="0.08071">
        <ele>577.4</ele>
        <time>2016-07-31T10:47:34Z</time>
      </trkpt>
      <trkpt lat="42.43139" lon="0.08074">
        <ele>577.5</ele>
        <time>2016-07-31T10:47:35Z</time>
      </trkpt>
      <trkpt lat="42.43134" lon="0.08076">
        <ele>577.7</ele>
        <time>2016-07-31T10:47:36Z</time>
      </trkpt>
      <trkpt lat="42.4313" lon="0.08078">
        <ele>577.8</ele>
        <time>2016-07-31T10:47:37Z</time>
      </trkpt>
      <trkpt lat="42.43125" lon="0.08081">
        <ele>577.9</ele>
        <time>2016-07-31T10:47:38Z</time>
      </trkpt>
      <trkpt lat="42.4312" lon="0.08083">
        <ele>578.4</ele>
        <time>2016-07-31T10:47:39Z</time>
      </trkpt>
      <trkpt lat="42.43115" lon="0.08086">
        <ele>578.8</ele>
        <time>2016-07-31T10:47:40Z</time>
      </trkpt>
      <trkpt lat="42.43111" lon="0.08088">
        <ele>579.2</ele>
        <time>2016-07-31T10:47:41Z</time>
      </trkpt>
      <trkpt lat="42.43107" lon="0.0809">
        <ele>579.6</ele>
        <time>2016-07-31T10:47:42Z</time>
      </trkpt>
      <trkpt lat="42.43103" lon="0.08092">
        <ele>579.9</ele>
        <time>2016-07-31T10:47:43Z</time>
      </trkpt>
      <trkpt lat="42.43098" lon="0.08094">
        <ele>580.2</ele>
        <time>2016-07-31T10:47:44Z</time>
      </trkpt>
      <trkpt lat="42.43094" lon="0.08096">
        <ele>580.5</ele>
        <time>2016-07-31T10:47:45Z</time>
      </trkpt>
      <trkpt lat="42.4309" lon="0.08099">
        <ele>580.7</ele>
        <time>2016-07-31T10:47:46Z</time>
      </trkpt>
      <trkpt lat="42.43085" lon="0.08101">
        <ele>580.9</ele>
        <time>2016-07-31T10:47:47Z</time>
      </trkpt>
      <trkpt lat="42.43081" lon="0.08104">
        <ele>581.2</ele>
        <time>2016-07-31T10:47:48Z</time>
      </trkpt>
      <trkpt lat="42.43077" lon="0.08106">
        <ele>581.3</ele>
        <time>2016-07-31T10:47:49Z</time>
      </trkpt>
      <trkpt lat="42.43072" lon="0.08108">
        <ele>581.5</ele>
        <time>2016-07-31T10:47:50Z</time>
      </trkpt>
      <trkpt lat="42.43068" lon="0.0811">
        <ele>581.7</ele>
        <time>2016-07-31T10:47:51Z</time>
      </trkpt>
      <trkpt lat="42.43064" lon="0.08112">
        <ele>581.8</ele>
        <time>2016-07-31T10:47:52Z</time>
      </trkpt>
      <trkpt lat="42.4306" lon="0.08114">
        <ele>581.9</ele>
        <time>2016-07-31T10:47:53Z</time>
      </trkpt>
      <trkpt lat="42.43056" lon="0.08117">
        <ele>582</ele>
        <time>2016-07-31T10:47:54Z</time>
      </trkpt>
      <trkpt lat="42.43052" lon="0.08119">
        <ele>582</ele>
        <time>2016-07-31T10:47:55Z</time>
      </trkpt>
      <trkpt lat="42.43048" lon="0.08121">
        <ele>582</ele>
        <time>2016-07-31T10:47:56Z</time>
      </trkpt>
      <trkpt lat="42.43044" lon="0.08123">
        <ele>582</ele>
        <time>2016-07-31T10:47:57Z</time>
      </trkpt>
      <trkpt lat="42.4304" lon="0.08125">
        <ele>582.3</ele>
        <time>2016-07-31T10:47:58Z</time>
      </trkpt>
      <trkpt lat="42.43037" lon="0.08127">
        <ele>582.9</ele>
        <time>2016-07-31T10:47:59Z</time>
      </trkpt>
      <trkpt lat="42.43034" lon="0.08129">
        <ele>583.5</ele>
        <time>2016-07-31T10:48:00Z</time>
      </trkpt>
      <trkpt lat="42.4303" lon="0.08131">
        <ele>584.2</ele>
        <time>2016-07-31T10:48:01Z</time>
      </trkpt>
      <trkpt lat="42.43027" lon="0.08134">
        <ele>584.8</ele>
        <time>2016-07-31T10:48:02Z</time>
      </trkpt>
      <trkpt lat="42.43023" lon="0.08136">
        <ele>585.4</ele>
        <time>2016-07-31T10:48:03Z</time>
      </trkpt>
      <trkpt lat="42.43019" lon="0.08138">
        <ele>586</ele>
        <time>2016-07-31T10:48:04Z</time>
      </trkpt>
      <trkpt lat="42.43015" lon="0.08141">
        <ele>586.6</ele>
        <time>2016-07-31T10:48:05Z</time>
      </trkpt>
      <trkpt lat="42.43011" lon="0.08144">
        <ele>587.1</ele>
        <time>2016-07-31T10:48:06Z</time>
      </trkpt>
      <trkpt lat="42.43007" lon="0.08147">
        <ele>587.5</ele>
        <time>2016-07-31T10:48:07Z</time>
      </trkpt>
      <trkpt lat="42.43004" lon="0.0815">
        <ele>587.9</ele>
        <time>2016-07-31T10:48:08Z</time>
      </trkpt>
      <trkpt lat="42.43001" lon="0.08153">
        <ele>588.2</ele>
        <time>2016-07-31T10:48:09Z</time>
      </trkpt>
      <trkpt lat="42.42998" lon="0.08155">
        <ele>588.5</ele>
        <time>2016-07-31T10:48:10Z</time>
      </trkpt>
      <trkpt lat="42.42994" lon="0.08158">
        <ele>588.8</ele>
        <time>2016-07-31T10:48:11Z</time>
      </trkpt>
      <trkpt lat="42.42991" lon="0.08161">
        <ele>589</ele>
        <time>2016-07-31T10:48:12Z</time>
      </trkpt>
      <trkpt lat="42.42988" lon="0.08164">
        <ele>589.2</ele>
        <time>2016-07-31T10:48:13Z</time>
      </trkpt>
      <trkpt lat="42.42984" lon="0.08167">
        <ele>589.4</ele>
        <time>2016-07-31T10:48:14Z</time>
      </trkpt>
      <trkpt lat="42.42981" lon="0.0817">
        <ele>589.5</ele>
        <time>2016-07-31T10:48:15Z</time>
      </trkpt>
      <trkpt lat="42.42978" lon="0.08174">
        <ele>589.6</ele>
        <time>2016-07-31T10:48:16Z</time>
      </trkpt>
      <trkpt lat="42.42975" lon="0.08178">
        <ele>589.4</ele>
        <time>2016-07-31T10:48:17Z</time>
      </trkpt>
      <trkpt lat="42.42972" lon="0.08182">
        <ele>589.2</ele>
        <time>2016-07-31T10:48:18Z</time>
      </trkpt>
      <trkpt lat="42.4297" lon="0.08187">
        <ele>588.8</ele>
        <time>2016-07-31T10:48:19Z</time>
      </trkpt>
      <trkpt lat="42.42968" lon="0.08193">
        <ele>588.3</ele>
        <time>2016-07-31T10:48:20Z</time>
      </trkpt>
      <trkpt lat="42.42966" lon="0.08198">
        <ele>587.8</ele>
        <time>2016-07-31T10:48:21Z</time>
      </trkpt>
      <trkpt lat="42.42964" lon="0.08202">
        <ele>587.4</ele>
        <time>2016-07-31T10:48:22Z</time>
      </trkpt>
      <trkpt lat="42.42962" lon="0.08206">
        <ele>587.1</ele>
        <time>2016-07-31T10:48:23Z</time>
      </trkpt>
      <trkpt lat="42.42959" lon="0.08208">
        <ele>587</ele>
        <time>2016-07-31T10:48:24Z</time>
      </trkpt>
      <trkpt lat="42.42955" lon="0.08208">
        <ele>587.1</ele>
        <time>2016-07-31T10:48:25Z</time>
      </trkpt>
      <trkpt lat="42.42951" lon="0.08206">
        <ele>587.4</ele>
        <time>2016-07-31T10:48:26Z</time>
      </trkpt>
      <trkpt lat="42.42947" lon="0.08203">
        <ele>587.9</ele>
        <time>2016-07-31T10:48:27Z</time>
      </trkpt>
      <trkpt lat="42.42942" lon="0.082">
        <ele>588.4</ele>
        <time>2016-07-31T10:48:28Z</time>
      </trkpt>
      <trkpt lat="42.42938" lon="0.08197">
        <ele>589</ele>
        <time>2016-07-31T10:48:29Z</time>
      </trkpt>
      <trkpt lat="42.42934" lon="0.08194">
        <ele>589.6</ele>
        <time>2016-07-31T10:48:30Z</time>
      </trkpt>
      <trkpt lat="42.42929" lon="0.08191">
        <ele>590.1</ele>
        <time>2016-07-31T10:48:31Z</time>
      </trkpt>
      <trkpt lat="42.42925" lon="0.08188">
        <ele>590.6</ele>
        <time>2016-07-31T10:48:32Z</time>
      </trkpt>
      <trkpt lat="42.42921" lon="0.08186">
        <ele>591.1</ele>
        <time>2016-07-31T10:48:33Z</time>
      </trkpt>
      <trkpt lat="42.42917" lon="0.08183">
        <ele>591.7</ele>
        <time>2016-07-31T10:48:34Z</time>
      </trkpt>
      <trkpt lat="42.42913" lon="0.08181">
        <ele>592.2</ele>
        <time>2016-07-31T10:48:35Z</time>
      </trkpt>
      <trkpt lat="42.42909" lon="0.08178">
        <ele>592.8</ele>
        <time>2016-07-31T10:48:36Z</time>
      </trkpt>
      <trkpt lat="42.42905" lon="0.08175">
        <ele>593.4</ele>
        <time>2016-07-31T10:48:37Z</time>
      </trkpt>
      <trkpt lat="42.42901" lon="0.08173">
        <ele>594</ele>
        <time>2016-07-31T10:48:38Z</time>
      </trkpt>
      <trkpt lat="42.42897" lon="0.08171">
        <ele>594.6</ele>
        <time>2016-07-31T10:48:39Z</time>
      </trkpt>
      <trkpt lat="42.42894" lon="0.08168">
        <ele>595.2</ele>
        <time>2016-07-31T10:48:40Z</time>
      </trkpt>
      <trkpt lat="42.4289" lon="0.08166">
        <ele>595.8</ele>
        <time>2016-07-31T10:48:41Z</time>
      </trkpt>
      <trkpt lat="42.42886" lon="0.08163">
        <ele>596.4</ele>
        <time>2016-07-31T10:48:42Z</time>
      </trkpt>
      <trkpt lat="42.42882" lon="0.08161">
        <ele>597.1</ele>
        <time>2016-07-31T10:48:43Z</time>
      </trkpt>
      <trkpt lat="42.42878" lon="0.08158">
        <ele>597.7</ele>
        <time>2016-07-31T10:48:44Z</time>
      </trkpt>
      <trkpt lat="42.42875" lon="0.08156">
        <ele>598.2</ele>
        <time>2016-07-31T10:48:45Z</time>
      </trkpt>
      <trkpt lat="42.42871" lon="0.08154">
        <ele>598.3</ele>
        <time>2016-07-31T10:48:46Z</time>
      </trkpt>
      <trkpt lat="42.42867" lon="0.08151">
        <ele>598.3</ele>
        <time>2016-07-31T10:48:47Z</time>
      </trkpt>
      <trkpt lat="42.42863" lon="0.08149">
        <ele>598.3</ele>
        <time>2016-07-31T10:48:48Z</time>
      </trkpt>
      <trkpt lat="42.42859" lon="0.08146">
        <ele>598.1</ele>
        <time>2016-07-31T10:48:49Z</time>
      </trkpt>
      <trkpt lat="42.42856" lon="0.08144">
        <ele>598</ele>
        <time>2016-07-31T10:48:50Z</time>
      </trkpt>
      <trkpt lat="42.42852" lon="0.08142">
        <ele>597.7</ele>
        <time>2016-07-31T10:48:51Z</time>
      </trkpt>
      <trkpt lat="42.42848" lon="0.0814">
        <ele>597.5</ele>
        <time>2016-07-31T10:48:52Z</time>
      </trkpt>
      <trkpt lat="42.42844" lon="0.08137">
        <ele>597.1</ele>
        <time>2016-07-31T10:48:53Z</time>
      </trkpt>
      <trkpt lat="42.4284" lon="0.08135">
        <ele>596.8</ele>
        <time>2016-07-31T10:48:54Z</time>
      </trkpt>
      <trkpt lat="42.42837" lon="0.08133">
        <ele>596.4</ele>
        <time>2016-07-31T10:48:55Z</time>
      </trkpt>
      <trkpt lat="42.42833" lon="0.08131">
        <ele>595.9</ele>
        <time>2016-07-31T10:48:56Z</time>
      </trkpt>
      <trkpt lat="42.4283" lon="0.08129">
        <ele>595.4</ele>
        <time>2016-07-31T10:48:57Z</time>
      </trkpt>
      <trkpt lat="42.42826" lon="0.08127">
        <ele>594.9</ele>
        <time>2016-07-31T10:48:58Z</time>
      </trkpt>
      <trkpt lat="42.42823" lon="0.08124">
        <ele>594.4</ele>
        <time>2016-07-31T10:48:59Z</time>
      </trkpt>
      <trkpt lat="42.42819" lon="0.08122">
        <ele>593.9</ele>
        <time>2016-07-31T10:49:00Z</time>
      </trkpt>
      <trkpt lat="42.42815" lon="0.0812">
        <ele>593.4</ele>
        <time>2016-07-31T10:49:01Z</time>
      </trkpt>
      <trkpt lat="42.42811" lon="0.08117">
        <ele>592.8</ele>
        <time>2016-07-31T10:49:02Z</time>
      </trkpt>
      <trkpt lat="42.42808" lon="0.08115">
        <ele>592.3</ele>
        <time>2016-07-31T10:49:03Z</time>
      </trkpt>
      <trkpt lat="42.42803" lon="0.08112">
        <ele>591.6</ele>
        <time>2016-07-31T10:49:04Z</time>
      </trkpt>
      <trkpt lat="42.42799" lon="0.0811">
        <ele>591</ele>
        <time>2016-07-31T10:49:05Z</time>
      </trkpt>
      <trkpt lat="42.42795" lon="0.08107">
        <ele>590.3</ele>
        <time>2016-07-31T10:49:06Z</time>
      </trkpt>
      <trkpt lat="42.42791" lon="0.08104">
        <ele>589.8</ele>
        <time>2016-07-31T10:49:07Z</time>
      </trkpt>
      <trkpt lat="42.42788" lon="0.081">
        <ele>590</ele>
        <time>2016-07-31T10:49:08Z</time>
      </trkpt>
      <trkpt lat="42.42783" lon="0.08097">
        <ele>590.1</ele>
        <time>2016-07-31T10:49:09Z</time>
      </trkpt>
      <trkpt lat="42.42779" lon="0.08093">
        <ele>590.3</ele>
        <time>2016-07-31T10:49:10Z</time>
      </trkpt>
      <trkpt lat="42.42775" lon="0.0809">
        <ele>590.4</ele>
        <time>2016-07-31T10:49:11Z</time>
      </trkpt>
      <trkpt lat="42.42771" lon="0.08086">
        <ele>590.5</ele>
        <time>2016-07-31T10:49:12Z</time>
      </trkpt>
      <trkpt lat="42.42767" lon="0.08083">
        <ele>590.5</ele>
        <time>2016-07-31T10:49:13Z</time>
      </trkpt>
      <trkpt lat="42.42764" lon="0.0808">
        <ele>590.5</ele>
        <time>2016-07-31T10:49:14Z</time>
      </trkpt>
      <trkpt lat="42.4276" lon="0.08076">
        <ele>590.5</ele>
        <time>2016-07-31T10:49:15Z</time>
      </trkpt>
      <trkpt lat="42.42756" lon="0.08073">
        <ele>590.5</ele>
        <time>2016-07-31T10:49:16Z</time>
      </trkpt>
      <trkpt lat="42.42752" lon="0.0807">
        <ele>590.4</ele>
        <time>2016-07-31T10:49:17Z</time>
      </trkpt>
      <trkpt lat="42.42749" lon="0.08066">
        <ele>590.4</ele>
        <time>2016-07-31T10:49:18Z</time>
      </trkpt>
      <trkpt lat="42.42746" lon="0.08062">
        <ele>590.4</ele>
        <time>2016-07-31T10:49:19Z</time>
      </trkpt>
      <trkpt lat="42.42743" lon="0.08057">
        <ele>590.4</ele>
        <time>2016-07-31T10:49:20Z</time>
      </trkpt>
      <trkpt lat="42.4274" lon="0.08053">
        <ele>590.3</ele>
        <time>2016-07-31T10:49:21Z</time>
      </trkpt>
      <trkpt lat="42.42738" lon="0.08048">
        <ele>590.3</ele>
        <time>2016-07-31T10:49:22Z</time>
      </trkpt>
      <trkpt lat="42.42736" lon="0.08044">
        <ele>590.2</ele>
        <time>2016-07-31T10:49:23Z</time>
      </trkpt>
      <trkpt lat="42.42734" lon="0.0804">
        <ele>590.2</ele>
        <time>2016-07-31T10:49:24Z</time>
      </trkpt>
      <trkpt lat="42.42732" lon="0.08035">
        <ele>590.1</ele>
        <time>2016-07-31T10:49:25Z</time>
      </trkpt>
      <trkpt lat="42.4273" lon="0.0803">
        <ele>590.1</ele>
        <time>2016-07-31T10:49:26Z</time>
      </trkpt>
      <trkpt lat="42.42728" lon="0.08025">
        <ele>590.1</ele>
        <time>2016-07-31T10:49:27Z</time>
      </trkpt>
      <trkpt lat="42.42727" lon="0.0802">
        <ele>590.1</ele>
        <time>2016-07-31T10:49:28Z</time>
      </trkpt>
      <trkpt lat="42.42725" lon="0.08015">
        <ele>590.1</ele>
        <time>2016-07-31T10:49:29Z</time>
      </trkpt>
      <trkpt lat="42.42724" lon="0.0801">
        <ele>590.2</ele>
        <time>2016-07-31T10:49:30Z</time>
      </trkpt>
      <trkpt lat="42.42723" lon="0.08005">
        <ele>590.2</ele>
        <time>2016-07-31T10:49:31Z</time>
      </trkpt>
      <trkpt lat="42.42721" lon="0.08">
        <ele>590.3</ele>
        <time>2016-07-31T10:49:32Z</time>
      </trkpt>
      <trkpt lat="42.4272" lon="0.07995">
        <ele>590.4</ele>
        <time>2016-07-31T10:49:33Z</time>
      </trkpt>
      <trkpt lat="42.42719" lon="0.0799">
        <ele>590.4</ele>
        <time>2016-07-31T10:49:34Z</time>
      </trkpt>
      <trkpt lat="42.42718" lon="0.07985">
        <ele>590.5</ele>
        <time>2016-07-31T10:49:35Z</time>
      </trkpt>
      <trkpt lat="42.42716" lon="0.0798">
        <ele>590.6</ele>
        <time>2016-07-31T10:49:36Z</time>
      </trkpt>
      <trkpt lat="42.42715" lon="0.07976">
        <ele>590.7</ele>
        <time>2016-07-31T10:49:37Z</time>
      </trkpt>
      <trkpt lat="42.42713" lon="0.07971">
        <ele>590.8</ele>
        <time>2016-07-31T10:49:38Z</time>
      </trkpt>
      <trkpt lat="42.42712" lon="0.07966">
        <ele>590.9</ele>
        <time>2016-07-31T10:49:39Z</time>
      </trkpt>
      <trkpt lat="42.42711" lon="0.07961">
        <ele>591</ele>
        <time>2016-07-31T10:49:40Z</time>
      </trkpt>
      <trkpt lat="42.4271" lon="0.07956">
        <ele>591.1</ele>
        <time>2016-07-31T10:49:41Z</time>
      </trkpt>
      <trkpt lat="42.42708" lon="0.07952">
        <ele>591.2</ele>
        <time>2016-07-31T10:49:42Z</time>
      </trkpt>
      <trkpt lat="42.42707" lon="0.07948">
        <ele>591.6</ele>
        <time>2016-07-31T10:49:43Z</time>
      </trkpt>
      <trkpt lat="42.42705" lon="0.07943">
        <ele>592</ele>
        <time>2016-07-31T10:49:44Z</time>
      </trkpt>
      <trkpt lat="42.42704" lon="0.07939">
        <ele>592.5</ele>
        <time>2016-07-31T10:49:45Z</time>
      </trkpt>
      <trkpt lat="42.42702" lon="0.07934">
        <ele>592.9</ele>
        <time>2016-07-31T10:49:46Z</time>
      </trkpt>
      <trkpt lat="42.42701" lon="0.0793">
        <ele>593.3</ele>
        <time>2016-07-31T10:49:47Z</time>
      </trkpt>
      <trkpt lat="42.42699" lon="0.07926">
        <ele>593.6</ele>
        <time>2016-07-31T10:49:48Z</time>
      </trkpt>
      <trkpt lat="42.42698" lon="0.07922">
        <ele>593.9</ele>
        <time>2016-07-31T10:49:49Z</time>
      </trkpt>
      <trkpt lat="42.42696" lon="0.07918">
        <ele>594.2</ele>
        <time>2016-07-31T10:49:50Z</time>
      </trkpt>
      <trkpt lat="42.42695" lon="0.07915">
        <ele>594.6</ele>
        <time>2016-07-31T10:49:51Z</time>
      </trkpt>
      <trkpt lat="42.42693" lon="0.07911">
        <ele>595</ele>
        <time>2016-07-31T10:49:52Z</time>
      </trkpt>
      <trkpt lat="42.4269" lon="0.07907">
        <ele>595.4</ele>
        <time>2016-07-31T10:49:53Z</time>
      </trkpt>
      <trkpt lat="42.42687" lon="0.07902">
        <ele>595.9</ele>
        <time>2016-07-31T10:49:54Z</time>
      </trkpt>
      <trkpt lat="42.42683" lon="0.07897">
        <ele>596.5</ele>
        <time>2016-07-31T10:49:55Z</time>
      </trkpt>
      <trkpt lat="42.42679" lon="0.07892">
        <ele>597.1</ele>
        <time>2016-07-31T10:49:56Z</time>
      </trkpt>
      <trkpt lat="42.42675" lon="0.07887">
        <ele>597.6</ele>
        <time>2016-07-31T10:49:57Z</time>
      </trkpt>
      <trkpt lat="42.42671" lon="0.07881">
        <ele>598</ele>
        <time>2016-07-31T10:49:58Z</time>
      </trkpt>
      <trkpt lat="42.42667" lon="0.07876">
        <ele>598.4</ele>
        <time>2016-07-31T10:49:59Z</time>
      </trkpt>
      <trkpt lat="42.42663" lon="0.07872">
        <ele>598.8</ele>
        <time>2016-07-31T10:50:00Z</time>
      </trkpt>
      <trkpt lat="42.42659" lon="0.07869">
        <ele>599.2</ele>
        <time>2016-07-31T10:50:01Z</time>
      </trkpt>
      <trkpt lat="42.42656" lon="0.07867">
        <ele>599.4</ele>
        <time>2016-07-31T10:50:02Z</time>
      </trkpt>
      <trkpt lat="42.42652" lon="0.07864">
        <ele>599.6</ele>
        <time>2016-07-31T10:50:03Z</time>
      </trkpt>
      <trkpt lat="42.4265" lon="0.0786">
        <ele>599.7</ele>
        <time>2016-07-31T10:50:04Z</time>
      </trkpt>
      <trkpt lat="42.42647" lon="0.07856">
        <ele>599.7</ele>
        <time>2016-07-31T10:50:05Z</time>
      </trkpt>
      <trkpt lat="42.42645" lon="0.07853">
        <ele>599.7</ele>
        <time>2016-07-31T10:50:06Z</time>
      </trkpt>
      <trkpt lat="42.42642" lon="0.07849">
        <ele>599.6</ele>
        <time>2016-07-31T10:50:07Z</time>
      </trkpt>
      <trkpt lat="42.4264" lon="0.07846">
        <ele>599.5</ele>
        <time>2016-07-31T10:50:08Z</time>
      </trkpt>
      <trkpt lat="42.42637" lon="0.07843">
        <ele>599.5</ele>
        <time>2016-07-31T10:50:09Z</time>
      </trkpt>
      <trkpt lat="42.42634" lon="0.0784">
        <ele>599.6</ele>
        <time>2016-07-31T10:50:10Z</time>
      </trkpt>
      <trkpt lat="42.4263" lon="0.07838">
        <ele>599.7</ele>
        <time>2016-07-31T10:50:11Z</time>
      </trkpt>
      <trkpt lat="42.42626" lon="0.07837">
        <ele>599.8</ele>
        <time>2016-07-31T10:50:12Z</time>
      </trkpt>
      <trkpt lat="42.42622" lon="0.07836">
        <ele>600.6</ele>
        <time>2016-07-31T10:50:13Z</time>
      </trkpt>
      <trkpt lat="42.42619" lon="0.07835">
        <ele>601.7</ele>
        <time>2016-07-31T10:50:14Z</time>
      </trkpt>
      <trkpt lat="42.42615" lon="0.07833">
        <ele>602.7</ele>
        <time>2016-07-31T10:50:15Z</time>
      </trkpt>
      <trkpt lat="42.42611" lon="0.07832">
        <ele>603.8</ele>
        <time>2016-07-31T10:50:16Z</time>
      </trkpt>
      <trkpt lat="42.42607" lon="0.0783">
        <ele>604.8</ele>
        <time>2016-07-31T10:50:17Z</time>
      </trkpt>
      <trkpt lat="42.42603" lon="0.07828">
        <ele>605.8</ele>
        <time>2016-07-31T10:50:18Z</time>
      </trkpt>
      <trkpt lat="42.42599" lon="0.07826">
        <ele>606.7</ele>
        <time>2016-07-31T10:50:19Z</time>
      </trkpt>
      <trkpt lat="42.42596" lon="0.07824">
        <ele>607.5</ele>
        <time>2016-07-31T10:50:20Z</time>
      </trkpt>
      <trkpt lat="42.42592" lon="0.07822">
        <ele>608.4</ele>
        <time>2016-07-31T10:50:21Z</time>
      </trkpt>
      <trkpt lat="42.42588" lon="0.0782">
        <ele>609.2</ele>
        <time>2016-07-31T10:50:22Z</time>
      </trkpt>
      <trkpt lat="42.42585" lon="0.07818">
        <ele>610.1</ele>
        <time>2016-07-31T10:50:23Z</time>
      </trkpt>
      <trkpt lat="42.42582" lon="0.07816">
        <ele>610.8</ele>
        <time>2016-07-31T10:50:24Z</time>
      </trkpt>
      <trkpt lat="42.42579" lon="0.07814">
        <ele>611.3</ele>
        <time>2016-07-31T10:50:25Z</time>
      </trkpt>
      <trkpt lat="42.42576" lon="0.07811">
        <ele>611.8</ele>
        <time>2016-07-31T10:50:26Z</time>
      </trkpt>
      <trkpt lat="42.42574" lon="0.07808">
        <ele>612.1</ele>
        <time>2016-07-31T10:50:27Z</time>
      </trkpt>
      <trkpt lat="42.42571" lon="0.07806">
        <ele>612.5</ele>
        <time>2016-07-31T10:50:28Z</time>
      </trkpt>
      <trkpt lat="42.42569" lon="0.07803">
        <ele>612.9</ele>
        <time>2016-07-31T10:50:29Z</time>
      </trkpt>
      <trkpt lat="42.42566" lon="0.07801">
        <ele>613.3</ele>
        <time>2016-07-31T10:50:30Z</time>
      </trkpt>
      <trkpt lat="42.42564" lon="0.07799">
        <ele>613.7</ele>
        <time>2016-07-31T10:50:31Z</time>
      </trkpt>
      <trkpt lat="42.4256" lon="0.07794">
        <ele>613.9</ele>
        <time>2016-07-31T10:50:33Z</time>
      </trkpt>
      <trkpt lat="42.42558" lon="0.07788">
        <ele>613.9</ele>
        <time>2016-07-31T10:50:35Z</time>
      </trkpt>
      <trkpt lat="42.42556" lon="0.07785">
        <ele>614</ele>
        <time>2016-07-31T10:50:36Z</time>
      </trkpt>
      <trkpt lat="42.42554" lon="0.07782">
        <ele>614.2</ele>
        <time>2016-07-31T10:50:37Z</time>
      </trkpt>
      <trkpt lat="42.42553" lon="0.07779">
        <ele>614.3</ele>
        <time>2016-07-31T10:50:38Z</time>
      </trkpt>
      <trkpt lat="42.4255" lon="0.07776">
        <ele>614.5</ele>
        <time>2016-07-31T10:50:39Z</time>
      </trkpt>
      <trkpt lat="42.42548" lon="0.07773">
        <ele>614.7</ele>
        <time>2016-07-31T10:50:40Z</time>
      </trkpt>
      <trkpt lat="42.42546" lon="0.07769">
        <ele>614.8</ele>
        <time>2016-07-31T10:50:41Z</time>
      </trkpt>
      <trkpt lat="42.42543" lon="0.07766">
        <ele>614.9</ele>
        <time>2016-07-31T10:50:42Z</time>
      </trkpt>
      <trkpt lat="42.42541" lon="0.07763">
        <ele>614.9</ele>
        <time>2016-07-31T10:50:43Z</time>
      </trkpt>
      <trkpt lat="42.42539" lon="0.0776">
        <ele>614.7</ele>
        <time>2016-07-31T10:50:44Z</time>
      </trkpt>
      <trkpt lat="42.42536" lon="0.07757">
        <ele>614.5</ele>
        <time>2016-07-31T10:50:46Z</time>
      </trkpt>
      <trkpt lat="42.42533" lon="0.07754">
        <ele>614.4</ele>
        <time>2016-07-31T10:50:48Z</time>
      </trkpt>
      <trkpt lat="42.4253" lon="0.07751">
        <ele>614.1</ele>
        <time>2016-07-31T10:50:50Z</time>
      </trkpt>
      <trkpt lat="42.42528" lon="0.07746">
        <ele>613.6</ele>
        <time>2016-07-31T10:50:52Z</time>
      </trkpt>
      <trkpt lat="42.42524" lon="0.0774">
        <ele>613</ele>
        <time>2016-07-31T10:50:54Z</time>
      </trkpt>
      <trkpt lat="42.42521" lon="0.07735">
        <ele>612.4</ele>
        <time>2016-07-31T10:50:56Z</time>
      </trkpt>
      <trkpt lat="42.42519" lon="0.07729">
        <ele>611.6</ele>
        <time>2016-07-31T10:50:58Z</time>
      </trkpt>
      <trkpt lat="42.42518" lon="0.07725">
        <ele>611.1</ele>
        <time>2016-07-31T10:50:59Z</time>
      </trkpt>
      <trkpt lat="42.42518" lon="0.07719">
        <ele>610.1</ele>
        <time>2016-07-31T10:51:01Z</time>
      </trkpt>
      <trkpt lat="42.42518" lon="0.07713">
        <ele>609.1</ele>
        <time>2016-07-31T10:51:03Z</time>
      </trkpt>
      <trkpt lat="42.4252" lon="0.07708">
        <ele>608.3</ele>
        <time>2016-07-31T10:51:05Z</time>
      </trkpt>
      <trkpt lat="42.42522" lon="0.07703">
        <ele>608.4</ele>
        <time>2016-07-31T10:51:07Z</time>
      </trkpt>
      <trkpt lat="42.42523" lon="0.07696">
        <ele>608.6</ele>
        <time>2016-07-31T10:51:09Z</time>
      </trkpt>
      <trkpt lat="42.42524" lon="0.07689">
        <ele>608.7</ele>
        <time>2016-07-31T10:51:11Z</time>
      </trkpt>
      <trkpt lat="42.42526" lon="0.07684">
        <ele>608.8</ele>
        <time>2016-07-31T10:51:13Z</time>
      </trkpt>
      <trkpt lat="42.42529" lon="0.07679">
        <ele>608.7</ele>
        <time>2016-07-31T10:51:15Z</time>
      </trkpt>
      <trkpt lat="42.42532" lon="0.07675">
        <ele>608.6</ele>
        <time>2016-07-31T10:51:17Z</time>
      </trkpt>
      <trkpt lat="42.42534" lon="0.07672">
        <ele>608.6</ele>
        <time>2016-07-31T10:51:19Z</time>
      </trkpt>
      <trkpt lat="42.42535" lon="0.07668">
        <ele>608.6</ele>
        <time>2016-07-31T10:51:22Z</time>
      </trkpt>
      <trkpt lat="42.42536" lon="0.07664">
        <ele>608.6</ele>
        <time>2016-07-31T10:51:24Z</time>
      </trkpt>
      <trkpt lat="42.42535" lon="0.07659">
        <ele>608.8</ele>
        <time>2016-07-31T10:51:26Z</time>
      </trkpt>
      <trkpt lat="42.42534" lon="0.07655">
        <ele>609.1</ele>
        <time>2016-07-31T10:51:28Z</time>
      </trkpt>
      <trkpt lat="42.42531" lon="0.0765">
        <ele>609.4</ele>
        <time>2016-07-31T10:51:30Z</time>
      </trkpt>
      <trkpt lat="42.42529" lon="0.07645">
        <ele>609.8</ele>
        <time>2016-07-31T10:51:32Z</time>
      </trkpt>
      <trkpt lat="42.42528" lon="0.07638">
        <ele>610.2</ele>
        <time>2016-07-31T10:51:34Z</time>
      </trkpt>
      <trkpt lat="42.42526" lon="0.07633">
        <ele>610.7</ele>
        <time>2016-07-31T10:51:36Z</time>
      </trkpt>
      <trkpt lat="42.42524" lon="0.07629">
        <ele>610.9</ele>
        <time>2016-07-31T10:51:37Z</time>
      </trkpt>
      <trkpt lat="42.42521" lon="0.07624">
        <ele>611.7</ele>
        <time>2016-07-31T10:51:39Z</time>
      </trkpt>
      <trkpt lat="42.42518" lon="0.07621">
        <ele>613</ele>
        <time>2016-07-31T10:51:41Z</time>
      </trkpt>
      <trkpt lat="42.42515" lon="0.07619">
        <ele>613.8</ele>
        <time>2016-07-31T10:51:43Z</time>
      </trkpt>
      <trkpt lat="42.42511" lon="0.07619">
        <ele>614.3</ele>
        <time>2016-07-31T10:51:45Z</time>
      </trkpt>
      <trkpt lat="42.42508" lon="0.07621">
        <ele>614</ele>
        <time>2016-07-31T10:51:47Z</time>
      </trkpt>
      <trkpt lat="42.42504" lon="0.07624">
        <ele>613.7</ele>
        <time>2016-07-31T10:51:49Z</time>
      </trkpt>
      <trkpt lat="42.425" lon="0.07626">
        <ele>614</ele>
        <time>2016-07-31T10:51:51Z</time>
      </trkpt>
      <trkpt lat="42.42496" lon="0.07628">
        <ele>614.4</ele>
        <time>2016-07-31T10:51:53Z</time>
      </trkpt>
      <trkpt lat="42.42493" lon="0.07629">
        <ele>614.6</ele>
        <time>2016-07-31T10:51:54Z</time>
      </trkpt>
      <trkpt lat="42.4249" lon="0.0763">
        <ele>614.9</ele>
        <time>2016-07-31T10:51:55Z</time>
      </trkpt>
      <trkpt lat="42.42484" lon="0.0763">
        <ele>615.6</ele>
        <time>2016-07-31T10:51:57Z</time>
      </trkpt>
      <trkpt lat="42.42479" lon="0.07631">
        <ele>616.2</ele>
        <time>2016-07-31T10:51:59Z</time>
      </trkpt>
      <trkpt lat="42.42474" lon="0.07628">
        <ele>616.9</ele>
        <time>2016-07-31T10:52:01Z</time>
      </trkpt>
      <trkpt lat="42.42472" lon="0.07626">
        <ele>617.4</ele>
        <time>2016-07-31T10:52:02Z</time>
      </trkpt>
      <trkpt lat="42.42469" lon="0.07623">
        <ele>618.3</ele>
        <time>2016-07-31T10:52:03Z</time>
      </trkpt>
      <trkpt lat="42.42466" lon="0.0762">
        <ele>619.2</ele>
        <time>2016-07-31T10:52:04Z</time>
      </trkpt>
      <trkpt lat="42.42463" lon="0.07618">
        <ele>619.9</ele>
        <time>2016-07-31T10:52:05Z</time>
      </trkpt>
      <trkpt lat="42.4246" lon="0.07614">
        <ele>621.2</ele>
        <time>2016-07-31T10:52:07Z</time>
      </trkpt>
      <trkpt lat="42.42456" lon="0.0761">
        <ele>622.3</ele>
        <time>2016-07-31T10:52:09Z</time>
      </trkpt>
      <trkpt lat="42.42454" lon="0.07607">
        <ele>622.9</ele>
        <time>2016-07-31T10:52:10Z</time>
      </trkpt>
      <trkpt lat="42.42451" lon="0.07603">
        <ele>623.9</ele>
        <time>2016-07-31T10:52:12Z</time>
      </trkpt>
      <trkpt lat="42.42448" lon="0.07601">
        <ele>624.3</ele>
        <time>2016-07-31T10:52:14Z</time>
      </trkpt>
      <trkpt lat="42.42445" lon="0.07601">
        <ele>624.3</ele>
        <time>2016-07-31T10:52:16Z</time>
      </trkpt>
      <trkpt lat="42.42442" lon="0.07602">
        <ele>624.2</ele>
        <time>2016-07-31T10:52:18Z</time>
      </trkpt>
      <trkpt lat="42.42438" lon="0.07603">
        <ele>624.1</ele>
        <time>2016-07-31T10:52:20Z</time>
      </trkpt>
      <trkpt lat="42.42435" lon="0.07604">
        <ele>623.8</ele>
        <time>2016-07-31T10:52:22Z</time>
      </trkpt>
      <trkpt lat="42.42431" lon="0.07606">
        <ele>623.4</ele>
        <time>2016-07-31T10:52:24Z</time>
      </trkpt>
      <trkpt lat="42.42428" lon="0.07608">
        <ele>623</ele>
        <time>2016-07-31T10:52:26Z</time>
      </trkpt>
      <trkpt lat="42.42426" lon="0.07609">
        <ele>622.6</ele>
        <time>2016-07-31T10:52:28Z</time>
      </trkpt>
      <trkpt lat="42.42423" lon="0.0761">
        <ele>622.5</ele>
        <time>2016-07-31T10:52:30Z</time>
      </trkpt>
      <trkpt lat="42.4242" lon="0.07611">
        <ele>622.4</ele>
        <time>2016-07-31T10:52:32Z</time>
      </trkpt>
      <trkpt lat="42.42417" lon="0.07612">
        <ele>622.1</ele>
        <time>2016-07-31T10:52:34Z</time>
      </trkpt>
      <trkpt lat="42.42414" lon="0.07612">
        <ele>622</ele>
        <time>2016-07-31T10:52:36Z</time>
      </trkpt>
      <trkpt lat="42.42411" lon="0.07612">
        <ele>622.1</ele>
        <time>2016-07-31T10:52:38Z</time>
      </trkpt>
      <trkpt lat="42.42408" lon="0.07612">
        <ele>622.2</ele>
        <time>2016-07-31T10:52:40Z</time>
      </trkpt>
      <trkpt lat="42.42405" lon="0.07612">
        <ele>622.1</ele>
        <time>2016-07-31T10:52:42Z</time>
      </trkpt>
      <trkpt lat="42.42402" lon="0.07611">
        <ele>622.4</ele>
        <time>2016-07-31T10:52:44Z</time>
      </trkpt>
      <trkpt lat="42.424" lon="0.07609">
        <ele>622.9</ele>
        <time>2016-07-31T10:52:46Z</time>
      </trkpt>
      <trkpt lat="42.42397" lon="0.07607">
        <ele>623.3</ele>
        <time>2016-07-31T10:52:48Z</time>
      </trkpt>
      <trkpt lat="42.42394" lon="0.07606">
        <ele>623.6</ele>
        <time>2016-07-31T10:52:51Z</time>
      </trkpt>
      <trkpt lat="42.4239" lon="0.07605">
        <ele>623.9</ele>
        <time>2016-07-31T10:52:54Z</time>
      </trkpt>
      <trkpt lat="42.42387" lon="0.07603">
        <ele>624.4</ele>
        <time>2016-07-31T10:52:57Z</time>
      </trkpt>
      <trkpt lat="42.42385" lon="0.076">
        <ele>625.1</ele>
        <time>2016-07-31T10:53:00Z</time>
      </trkpt>
      <trkpt lat="42.42383" lon="0.07596">
        <ele>626.1</ele>
        <time>2016-07-31T10:53:03Z</time>
      </trkpt>
      <trkpt lat="42.4238" lon="0.07592">
        <ele>627.1</ele>
        <time>2016-07-31T10:53:06Z</time>
      </trkpt>
      <trkpt lat="42.42378" lon="0.07589">
        <ele>628.1</ele>
        <time>2016-07-31T10:53:09Z</time>
      </trkpt>
      <trkpt lat="42.42375" lon="0.07585">
        <ele>629</ele>
        <time>2016-07-31T10:53:12Z</time>
      </trkpt>
      <trkpt lat="42.42373" lon="0.07583">
        <ele>629.4</ele>
        <time>2016-07-31T10:53:14Z</time>
      </trkpt>
      <trkpt lat="42.4237" lon="0.07581">
        <ele>629.9</ele>
        <time>2016-07-31T10:53:17Z</time>
      </trkpt>
      <trkpt lat="42.42366" lon="0.07578">
        <ele>630.4</ele>
        <time>2016-07-31T10:53:20Z</time>
      </trkpt>
      <trkpt lat="42.42364" lon="0.07575">
        <ele>630.8</ele>
        <time>2016-07-31T10:53:22Z</time>
      </trkpt>
      <trkpt lat="42.42361" lon="0.07572">
        <ele>631.3</ele>
        <time>2016-07-31T10:53:25Z</time>
      </trkpt>
      <trkpt lat="42.42358" lon="0.07568">
        <ele>632.1</ele>
        <time>2016-07-31T10:53:28Z</time>
      </trkpt>
      <trkpt lat="42.42356" lon="0.07564">
        <ele>632.9</ele>
        <time>2016-07-31T10:53:31Z</time>
      </trkpt>
      <trkpt lat="42.42353" lon="0.07561">
        <ele>633.3</ele>
        <time>2016-07-31T10:53:34Z</time>
      </trkpt>
      <trkpt lat="42.4235" lon="0.0756">
        <ele>633.2</ele>
        <time>2016-07-31T10:53:36Z</time>
      </trkpt>
      <trkpt lat="42.42348" lon="0.07561">
        <ele>632.8</ele>
        <time>2016-07-31T10:53:38Z</time>
      </trkpt>
      <trkpt lat="42.42345" lon="0.07559">
        <ele>633</ele>
        <time>2016-07-31T10:53:41Z</time>
      </trkpt>
      <trkpt lat="42.42343" lon="0.07555">
        <ele>633.6</ele>
        <time>2016-07-31T10:53:44Z</time>
      </trkpt>
      <trkpt lat="42.4234" lon="0.07552">
        <ele>634.1</ele>
        <time>2016-07-31T10:53:47Z</time>
      </trkpt>
      <trkpt lat="42.42337" lon="0.07549">
        <ele>634.3</ele>
        <time>2016-07-31T10:53:50Z</time>
      </trkpt>
      <trkpt lat="42.42334" lon="0.07546">
        <ele>634.7</ele>
        <time>2016-07-31T10:53:53Z</time>
      </trkpt>
      <trkpt lat="42.42332" lon="0.07541">
        <ele>635.4</ele>
        <time>2016-07-31T10:53:56Z</time>
      </trkpt>
      <trkpt lat="42.4233" lon="0.07536">
        <ele>636</ele>
        <time>2016-07-31T10:53:59Z</time>
      </trkpt>
      <trkpt lat="42.42328" lon="0.07533">
        <ele>636.3</ele>
        <time>2016-07-31T10:54:01Z</time>
      </trkpt>
      <trkpt lat="42.42327" lon="0.0753">
        <ele>636.6</ele>
        <time>2016-07-31T10:54:03Z</time>
      </trkpt>
      <trkpt lat="42.42325" lon="0.07527">
        <ele>636.9</ele>
        <time>2016-07-31T10:54:05Z</time>
      </trkpt>
      <trkpt lat="42.42323" lon="0.07523">
        <ele>637.4</ele>
        <time>2016-07-31T10:54:08Z</time>
      </trkpt>
      <trkpt lat="42.4232" lon="0.07519">
        <ele>637.9</ele>
        <time>2016-07-31T10:54:11Z</time>
      </trkpt>
      <trkpt lat="42.42318" lon="0.07516">
        <ele>638.3</ele>
        <time>2016-07-31T10:54:13Z</time>
      </trkpt>
      <trkpt lat="42.42317" lon="0.07513">
        <ele>638.6</ele>
        <time>2016-07-31T10:54:15Z</time>
      </trkpt>
      <trkpt lat="42.42314" lon="0.07511">
        <ele>638.8</ele>
        <time>2016-07-31T10:54:17Z</time>
      </trkpt>
      <trkpt lat="42.42312" lon="0.07509">
        <ele>639.1</ele>
        <time>2016-07-31T10:54:19Z</time>
      </trkpt>
      <trkpt lat="42.4231" lon="0.07506">
        <ele>639.3</ele>
        <time>2016-07-31T10:54:21Z</time>
      </trkpt>
      <trkpt lat="42.42307" lon="0.07503">
        <ele>639.8</ele>
        <time>2016-07-31T10:54:23Z</time>
      </trkpt>
      <trkpt lat="42.42305" lon="0.075">
        <ele>640.2</ele>
        <time>2016-07-31T10:54:25Z</time>
      </trkpt>
      <trkpt lat="42.42303" lon="0.07497">
        <ele>640.7</ele>
        <time>2016-07-31T10:54:27Z</time>
      </trkpt>
      <trkpt lat="42.42301" lon="0.07494">
        <ele>641.1</ele>
        <time>2016-07-31T10:54:29Z</time>
      </trkpt>
      <trkpt lat="42.42299" lon="0.07491">
        <ele>641.6</ele>
        <time>2016-07-31T10:54:32Z</time>
      </trkpt>
      <trkpt lat="42.42296" lon="0.07488">
        <ele>642.2</ele>
        <time>2016-07-31T10:54:35Z</time>
      </trkpt>
      <trkpt lat="42.42294" lon="0.07486">
        <ele>642.5</ele>
        <time>2016-07-31T10:54:37Z</time>
      </trkpt>
      <trkpt lat="42.4229" lon="0.07484">
        <ele>642.7</ele>
        <time>2016-07-31T10:54:39Z</time>
      </trkpt>
      <trkpt lat="42.42287" lon="0.07484">
        <ele>642.8</ele>
        <time>2016-07-31T10:54:41Z</time>
      </trkpt>
      <trkpt lat="42.42284" lon="0.07483">
        <ele>642.9</ele>
        <time>2016-07-31T10:54:43Z</time>
      </trkpt>
      <trkpt lat="42.42282" lon="0.0748">
        <ele>643.5</ele>
        <time>2016-07-31T10:54:45Z</time>
      </trkpt>
      <trkpt lat="42.4228" lon="0.07477">
        <ele>644.1</ele>
        <time>2016-07-31T10:54:47Z</time>
      </trkpt>
      <trkpt lat="42.42278" lon="0.07474">
        <ele>644.7</ele>
        <time>2016-07-31T10:54:49Z</time>
      </trkpt>
      <trkpt lat="42.42277" lon="0.07471">
        <ele>645.5</ele>
        <time>2016-07-31T10:54:51Z</time>
      </trkpt>
      <trkpt lat="42.42276" lon="0.07467">
        <ele>646.4</ele>
        <time>2016-07-31T10:54:54Z</time>
      </trkpt>
      <trkpt lat="42.42275" lon="0.07463">
        <ele>647.3</ele>
        <time>2016-07-31T10:54:56Z</time>
      </trkpt>
      <trkpt lat="42.42274" lon="0.07459">
        <ele>648.2</ele>
        <time>2016-07-31T10:54:58Z</time>
      </trkpt>
      <trkpt lat="42.42272" lon="0.07455">
        <ele>648.7</ele>
        <time>2016-07-31T10:55:01Z</time>
      </trkpt>
      <trkpt lat="42.4227" lon="0.07451">
        <ele>649.2</ele>
        <time>2016-07-31T10:55:03Z</time>
      </trkpt>
      <trkpt lat="42.42269" lon="0.07448">
        <ele>649.6</ele>
        <time>2016-07-31T10:55:05Z</time>
      </trkpt>
      <trkpt lat="42.42268" lon="0.07444">
        <ele>650.2</ele>
        <time>2016-07-31T10:55:07Z</time>
      </trkpt>
      <trkpt lat="42.42268" lon="0.07439">
        <ele>650.7</ele>
        <time>2016-07-31T10:55:09Z</time>
      </trkpt>
      <trkpt lat="42.42266" lon="0.07435">
        <ele>651.3</ele>
        <time>2016-07-31T10:55:12Z</time>
      </trkpt>
      <trkpt lat="42.42265" lon="0.07431">
        <ele>651.7</ele>
        <time>2016-07-31T10:55:14Z</time>
      </trkpt>
      <trkpt lat="42.42264" lon="0.07428">
        <ele>652</ele>
        <time>2016-07-31T10:55:16Z</time>
      </trkpt>
      <trkpt lat="42.42261" lon="0.07424">
        <ele>652.5</ele>
        <time>2016-07-31T10:55:19Z</time>
      </trkpt>
      <trkpt lat="42.42258" lon="0.07422">
        <ele>652.8</ele>
        <time>2016-07-31T10:55:22Z</time>
      </trkpt>
      <trkpt lat="42.42255" lon="0.07422">
        <ele>652.7</ele>
        <time>2016-07-31T10:55:24Z</time>
      </trkpt>
      <trkpt lat="42.42252" lon="0.07422">
        <ele>652.7</ele>
        <time>2016-07-31T10:55:26Z</time>
      </trkpt>
      <trkpt lat="42.42249" lon="0.0742">
        <ele>652.8</ele>
        <time>2016-07-31T10:55:28Z</time>
      </trkpt>
      <trkpt lat="42.42246" lon="0.07419">
        <ele>652.9</ele>
        <time>2016-07-31T10:55:30Z</time>
      </trkpt>
      <trkpt lat="42.42243" lon="0.07417">
        <ele>653.1</ele>
        <time>2016-07-31T10:55:32Z</time>
      </trkpt>
      <trkpt lat="42.42241" lon="0.07415">
        <ele>653.2</ele>
        <time>2016-07-31T10:55:34Z</time>
      </trkpt>
      <trkpt lat="42.42239" lon="0.07411">
        <ele>653.7</ele>
        <time>2016-07-31T10:55:37Z</time>
      </trkpt>
      <trkpt lat="42.42239" lon="0.07405">
        <ele>654.3</ele>
        <time>2016-07-31T10:55:40Z</time>
      </trkpt>
      <trkpt lat="42.4224" lon="0.07402">
        <ele>654.7</ele>
        <time>2016-07-31T10:55:42Z</time>
      </trkpt>
      <trkpt lat="42.42239" lon="0.07398">
        <ele>655</ele>
        <time>2016-07-31T10:55:44Z</time>
      </trkpt>
      <trkpt lat="42.42238" lon="0.07394">
        <ele>655.4</ele>
        <time>2016-07-31T10:55:47Z</time>
      </trkpt>
      <trkpt lat="42.42236" lon="0.07389">
        <ele>655.8</ele>
        <time>2016-07-31T10:55:50Z</time>
      </trkpt>
      <trkpt lat="42.42235" lon="0.07384">
        <ele>656.3</ele>
        <time>2016-07-31T10:55:53Z</time>
      </trkpt>
      <trkpt lat="42.42235" lon="0.0738">
        <ele>656.8</ele>
        <time>2016-07-31T10:55:55Z</time>
      </trkpt>
      <trkpt lat="42.42234" lon="0.07376">
        <ele>657.2</ele>
        <time>2016-07-31T10:55:57Z</time>
      </trkpt>
      <trkpt lat="42.42234" lon="0.07372">
        <ele>657.6</ele>
        <time>2016-07-31T10:55:59Z</time>
      </trkpt>
      <trkpt lat="42.42233" lon="0.07368">
        <ele>658.1</ele>
        <time>2016-07-31T10:56:01Z</time>
      </trkpt>
      <trkpt lat="42.42232" lon="0.07365">
        <ele>658.5</ele>
        <time>2016-07-31T10:56:03Z</time>
      </trkpt>
      <trkpt lat="42.42232" lon="0.07359">
        <ele>659.3</ele>
        <time>2016-07-31T10:56:06Z</time>
      </trkpt>
      <trkpt lat="42.42231" lon="0.07355">
        <ele>659.9</ele>
        <time>2016-07-31T10:56:09Z</time>
      </trkpt>
      <trkpt lat="42.42231" lon="0.07349">
        <ele>660.6</ele>
        <time>2016-07-31T10:56:12Z</time>
      </trkpt>
      <trkpt lat="42.42231" lon="0.07345">
        <ele>661.1</ele>
        <time>2016-07-31T10:56:14Z</time>
      </trkpt>
      <trkpt lat="42.42233" lon="0.07341">
        <ele>661.8</ele>
        <time>2016-07-31T10:56:16Z</time>
      </trkpt>
      <trkpt lat="42.42234" lon="0.07337">
        <ele>662.4</ele>
        <time>2016-07-31T10:56:18Z</time>
      </trkpt>
      <trkpt lat="42.42235" lon="0.07332">
        <ele>663.1</ele>
        <time>2016-07-31T10:56:20Z</time>
      </trkpt>
      <trkpt lat="42.42236" lon="0.07328">
        <ele>663.8</ele>
        <time>2016-07-31T10:56:22Z</time>
      </trkpt>
      <trkpt lat="42.42237" lon="0.07324">
        <ele>664.4</ele>
        <time>2016-07-31T10:56:24Z</time>
      </trkpt>
      <trkpt lat="42.42238" lon="0.0732">
        <ele>665</ele>
        <time>2016-07-31T10:56:26Z</time>
      </trkpt>
      <trkpt lat="42.42239" lon="0.07316">
        <ele>665.5</ele>
        <time>2016-07-31T10:56:28Z</time>
      </trkpt>
      <trkpt lat="42.42238" lon="0.07312">
        <ele>666</ele>
        <time>2016-07-31T10:56:30Z</time>
      </trkpt>
      <trkpt lat="42.42236" lon="0.07309">
        <ele>666.4</ele>
        <time>2016-07-31T10:56:32Z</time>
      </trkpt>
      <trkpt lat="42.42235" lon="0.07305">
        <ele>666.7</ele>
        <time>2016-07-31T10:56:34Z</time>
      </trkpt>
      <trkpt lat="42.42233" lon="0.07301">
        <ele>667.2</ele>
        <time>2016-07-31T10:56:36Z</time>
      </trkpt>
      <trkpt lat="42.42231" lon="0.07297">
        <ele>667.6</ele>
        <time>2016-07-31T10:56:38Z</time>
      </trkpt>
      <trkpt lat="42.42229" lon="0.07293">
        <ele>668</ele>
        <time>2016-07-31T10:56:40Z</time>
      </trkpt>
      <trkpt lat="42.42227" lon="0.0729">
        <ele>668.5</ele>
        <time>2016-07-31T10:56:42Z</time>
      </trkpt>
      <trkpt lat="42.42225" lon="0.07286">
        <ele>668.9</ele>
        <time>2016-07-31T10:56:44Z</time>
      </trkpt>
      <trkpt lat="42.42222" lon="0.07283">
        <ele>669.4</ele>
        <time>2016-07-31T10:56:46Z</time>
      </trkpt>
      <trkpt lat="42.42219" lon="0.07279">
        <ele>669.9</ele>
        <time>2016-07-31T10:56:48Z</time>
      </trkpt>
      <trkpt lat="42.42217" lon="0.07274">
        <ele>670.6</ele>
        <time>2016-07-31T10:56:50Z</time>
      </trkpt>
      <trkpt lat="42.42216" lon="0.07269">
        <ele>671.4</ele>
        <time>2016-07-31T10:56:52Z</time>
      </trkpt>
      <trkpt lat="42.42214" lon="0.07263">
        <ele>672.3</ele>
        <time>2016-07-31T10:56:54Z</time>
      </trkpt>
      <trkpt lat="42.42213" lon="0.07257">
        <ele>673.2</ele>
        <time>2016-07-31T10:56:56Z</time>
      </trkpt>
      <trkpt lat="42.42211" lon="0.07252">
        <ele>674</ele>
        <time>2016-07-31T10:56:58Z</time>
      </trkpt>
      <trkpt lat="42.42209" lon="0.07246">
        <ele>674.8</ele>
        <time>2016-07-31T10:57:00Z</time>
      </trkpt>
      <trkpt lat="42.42207" lon="0.0724">
        <ele>675.5</ele>
        <time>2016-07-31T10:57:02Z</time>
      </trkpt>
      <trkpt lat="42.42205" lon="0.07234">
        <ele>676.1</ele>
        <time>2016-07-31T10:57:04Z</time>
      </trkpt>
      <trkpt lat="42.42203" lon="0.07228">
        <ele>676.7</ele>
        <time>2016-07-31T10:57:06Z</time>
      </trkpt>
      <trkpt lat="42.422" lon="0.07222">
        <ele>677.2</ele>
        <time>2016-07-31T10:57:08Z</time>
      </trkpt>
      <trkpt lat="42.42197" lon="0.07216">
        <ele>677.7</ele>
        <time>2016-07-31T10:57:10Z</time>
      </trkpt>
      <trkpt lat="42.42193" lon="0.07211">
        <ele>677.9</ele>
        <time>2016-07-31T10:57:12Z</time>
      </trkpt>
      <trkpt lat="42.42189" lon="0.07207">
        <ele>677.9</ele>
        <time>2016-07-31T10:57:14Z</time>
      </trkpt>
      <trkpt lat="42.42187" lon="0.07205">
        <ele>677.8</ele>
        <time>2016-07-31T10:57:15Z</time>
      </trkpt>
      <trkpt lat="42.42184" lon="0.07203">
        <ele>677.7</ele>
        <time>2016-07-31T10:57:16Z</time>
      </trkpt>
      <trkpt lat="42.42181" lon="0.07201">
        <ele>677.6</ele>
        <time>2016-07-31T10:57:17Z</time>
      </trkpt>
      <trkpt lat="42.42178" lon="0.07199">
        <ele>677.4</ele>
        <time>2016-07-31T10:57:18Z</time>
      </trkpt>
      <trkpt lat="42.42175" lon="0.07197">
        <ele>677.2</ele>
        <time>2016-07-31T10:57:19Z</time>
      </trkpt>
      <trkpt lat="42.42173" lon="0.07195">
        <ele>677</ele>
        <time>2016-07-31T10:57:20Z</time>
      </trkpt>
      <trkpt lat="42.4217" lon="0.07193">
        <ele>677</ele>
        <time>2016-07-31T10:57:21Z</time>
      </trkpt>
      <trkpt lat="42.42167" lon="0.0719">
        <ele>676.9</ele>
        <time>2016-07-31T10:57:22Z</time>
      </trkpt>
      <trkpt lat="42.42165" lon="0.07188">
        <ele>676.9</ele>
        <time>2016-07-31T10:57:23Z</time>
      </trkpt>
      <trkpt lat="42.42162" lon="0.07186">
        <ele>676.7</ele>
        <time>2016-07-31T10:57:24Z</time>
      </trkpt>
      <trkpt lat="42.42159" lon="0.07184">
        <ele>676.6</ele>
        <time>2016-07-31T10:57:25Z</time>
      </trkpt>
      <trkpt lat="42.42157" lon="0.07183">
        <ele>676.4</ele>
        <time>2016-07-31T10:57:26Z</time>
      </trkpt>
      <trkpt lat="42.42154" lon="0.07182">
        <ele>676.2</ele>
        <time>2016-07-31T10:57:27Z</time>
      </trkpt>
      <trkpt lat="42.42151" lon="0.0718">
        <ele>675.9</ele>
        <time>2016-07-31T10:57:28Z</time>
      </trkpt>
      <trkpt lat="42.42148" lon="0.07179">
        <ele>675.6</ele>
        <time>2016-07-31T10:57:29Z</time>
      </trkpt>
      <trkpt lat="42.42146" lon="0.07178">
        <ele>675.3</ele>
        <time>2016-07-31T10:57:30Z</time>
      </trkpt>
      <trkpt lat="42.42143" lon="0.07177">
        <ele>675</ele>
        <time>2016-07-31T10:57:31Z</time>
      </trkpt>
      <trkpt lat="42.4214" lon="0.07176">
        <ele>674.7</ele>
        <time>2016-07-31T10:57:32Z</time>
      </trkpt>
      <trkpt lat="42.42137" lon="0.07175">
        <ele>674.5</ele>
        <time>2016-07-31T10:57:33Z</time>
      </trkpt>
      <trkpt lat="42.42134" lon="0.07173">
        <ele>674.3</ele>
        <time>2016-07-31T10:57:34Z</time>
      </trkpt>
      <trkpt lat="42.42131" lon="0.07171">
        <ele>674.2</ele>
        <time>2016-07-31T10:57:35Z</time>
      </trkpt>
      <trkpt lat="42.42128" lon="0.07169">
        <ele>674.1</ele>
        <time>2016-07-31T10:57:36Z</time>
      </trkpt>
      <trkpt lat="42.42125" lon="0.07167">
        <ele>674</ele>
        <time>2016-07-31T10:57:37Z</time>
      </trkpt>
      <trkpt lat="42.42122" lon="0.07164">
        <ele>674.3</ele>
        <time>2016-07-31T10:57:38Z</time>
      </trkpt>
      <trkpt lat="42.4212" lon="0.07161">
        <ele>674.7</ele>
        <time>2016-07-31T10:57:39Z</time>
      </trkpt>
      <trkpt lat="42.42117" lon="0.07157">
        <ele>675.2</ele>
        <time>2016-07-31T10:57:40Z</time>
      </trkpt>
      <trkpt lat="42.42115" lon="0.07153">
        <ele>675.7</ele>
        <time>2016-07-31T10:57:41Z</time>
      </trkpt>
      <trkpt lat="42.42114" lon="0.07149">
        <ele>676.2</ele>
        <time>2016-07-31T10:57:42Z</time>
      </trkpt>
      <trkpt lat="42.42113" lon="0.07146">
        <ele>676.8</ele>
        <time>2016-07-31T10:57:43Z</time>
      </trkpt>
      <trkpt lat="42.42114" lon="0.07142">
        <ele>677.4</ele>
        <time>2016-07-31T10:57:44Z</time>
      </trkpt>
      <trkpt lat="42.42115" lon="0.07138">
        <ele>678.1</ele>
        <time>2016-07-31T10:57:45Z</time>
      </trkpt>
      <trkpt lat="42.42116" lon="0.07135">
        <ele>678.8</ele>
        <time>2016-07-31T10:57:46Z</time>
      </trkpt>
      <trkpt lat="42.42118" lon="0.07131">
        <ele>679.5</ele>
        <time>2016-07-31T10:57:47Z</time>
      </trkpt>
      <trkpt lat="42.4212" lon="0.07128">
        <ele>680.1</ele>
        <time>2016-07-31T10:57:48Z</time>
      </trkpt>
      <trkpt lat="42.42122" lon="0.07121">
        <ele>681.3</ele>
        <time>2016-07-31T10:57:50Z</time>
      </trkpt>
      <trkpt lat="42.42124" lon="0.07115">
        <ele>682.5</ele>
        <time>2016-07-31T10:57:52Z</time>
      </trkpt>
      <trkpt lat="42.42126" lon="0.07109">
        <ele>683.5</ele>
        <time>2016-07-31T10:57:54Z</time>
      </trkpt>
      <trkpt lat="42.42128" lon="0.07104">
        <ele>684.7</ele>
        <time>2016-07-31T10:57:56Z</time>
      </trkpt>
      <trkpt lat="42.42129" lon="0.07099">
        <ele>685.7</ele>
        <time>2016-07-31T10:57:58Z</time>
      </trkpt>
      <trkpt lat="42.42131" lon="0.07094">
        <ele>686.7</ele>
        <time>2016-07-31T10:58:00Z</time>
      </trkpt>
      <trkpt lat="42.42132" lon="0.07088">
        <ele>687.8</ele>
        <time>2016-07-31T10:58:02Z</time>
      </trkpt>
      <trkpt lat="42.42133" lon="0.07082">
        <ele>688.9</ele>
        <time>2016-07-31T10:58:04Z</time>
      </trkpt>
      <trkpt lat="42.42135" lon="0.07076">
        <ele>690</ele>
        <time>2016-07-31T10:58:06Z</time>
      </trkpt>
      <trkpt lat="42.42136" lon="0.07071">
        <ele>691</ele>
        <time>2016-07-31T10:58:08Z</time>
      </trkpt>
      <trkpt lat="42.42136" lon="0.07066">
        <ele>691.8</ele>
        <time>2016-07-31T10:58:10Z</time>
      </trkpt>
      <trkpt lat="42.42135" lon="0.07063">
        <ele>692.1</ele>
        <time>2016-07-31T10:58:12Z</time>
      </trkpt>
      <trkpt lat="42.42132" lon="0.07061">
        <ele>692</ele>
        <time>2016-07-31T10:58:14Z</time>
      </trkpt>
      <trkpt lat="42.42128" lon="0.07059">
        <ele>691.8</ele>
        <time>2016-07-31T10:58:16Z</time>
      </trkpt>
      <trkpt lat="42.42125" lon="0.07057">
        <ele>691.7</ele>
        <time>2016-07-31T10:58:19Z</time>
      </trkpt>
      <trkpt lat="42.42121" lon="0.07055">
        <ele>691.6</ele>
        <time>2016-07-31T10:58:22Z</time>
      </trkpt>
      <trkpt lat="42.42118" lon="0.07052">
        <ele>691.6</ele>
        <time>2016-07-31T10:58:25Z</time>
      </trkpt>
      <trkpt lat="42.42115" lon="0.07049">
        <ele>691.9</ele>
        <time>2016-07-31T10:58:27Z</time>
      </trkpt>
      <trkpt lat="42.42113" lon="0.07045">
        <ele>692.2</ele>
        <time>2016-07-31T10:58:29Z</time>
      </trkpt>
      <trkpt lat="42.42111" lon="0.07041">
        <ele>692.6</ele>
        <time>2016-07-31T10:58:31Z</time>
      </trkpt>
      <trkpt lat="42.42108" lon="0.07037">
        <ele>692.9</ele>
        <time>2016-07-31T10:58:33Z</time>
      </trkpt>
      <trkpt lat="42.42106" lon="0.07034">
        <ele>693.4</ele>
        <time>2016-07-31T10:58:35Z</time>
      </trkpt>
      <trkpt lat="42.42103" lon="0.0703">
        <ele>693.8</ele>
        <time>2016-07-31T10:58:37Z</time>
      </trkpt>
      <trkpt lat="42.42101" lon="0.07026">
        <ele>694.2</ele>
        <time>2016-07-31T10:58:39Z</time>
      </trkpt>
      <trkpt lat="42.42099" lon="0.07022">
        <ele>694.8</ele>
        <time>2016-07-31T10:58:41Z</time>
      </trkpt>
      <trkpt lat="42.42097" lon="0.07017">
        <ele>695.4</ele>
        <time>2016-07-31T10:58:43Z</time>
      </trkpt>
      <trkpt lat="42.42095" lon="0.07013">
        <ele>695.9</ele>
        <time>2016-07-31T10:58:45Z</time>
      </trkpt>
      <trkpt lat="42.42093" lon="0.07008">
        <ele>696.5</ele>
        <time>2016-07-31T10:58:47Z</time>
      </trkpt>
      <trkpt lat="42.42091" lon="0.07003">
        <ele>697.1</ele>
        <time>2016-07-31T10:58:49Z</time>
      </trkpt>
      <trkpt lat="42.42088" lon="0.06999">
        <ele>697.7</ele>
        <time>2016-07-31T10:58:51Z</time>
      </trkpt>
      <trkpt lat="42.42086" lon="0.06994">
        <ele>698.2</ele>
        <time>2016-07-31T10:58:53Z</time>
      </trkpt>
      <trkpt lat="42.42083" lon="0.06989">
        <ele>698.7</ele>
        <time>2016-07-31T10:58:55Z</time>
      </trkpt>
      <trkpt lat="42.42081" lon="0.06983">
        <ele>699.3</ele>
        <time>2016-07-31T10:58:57Z</time>
      </trkpt>
      <trkpt lat="42.42078" lon="0.06979">
        <ele>699.7</ele>
        <time>2016-07-31T10:58:59Z</time>
      </trkpt>
      <trkpt lat="42.42075" lon="0.06975">
        <ele>700</ele>
        <time>2016-07-31T10:59:01Z</time>
      </trkpt>
      <trkpt lat="42.42072" lon="0.0697">
        <ele>700.3</ele>
        <time>2016-07-31T10:59:03Z</time>
      </trkpt>
      <trkpt lat="42.42068" lon="0.06966">
        <ele>700.5</ele>
        <time>2016-07-31T10:59:05Z</time>
      </trkpt>
      <trkpt lat="42.42064" lon="0.06962">
        <ele>700.7</ele>
        <time>2016-07-31T10:59:07Z</time>
      </trkpt>
      <trkpt lat="42.42061" lon="0.06957">
        <ele>701.2</ele>
        <time>2016-07-31T10:59:09Z</time>
      </trkpt>
      <trkpt lat="42.42058" lon="0.06951">
        <ele>702.3</ele>
        <time>2016-07-31T10:59:11Z</time>
      </trkpt>
      <trkpt lat="42.42055" lon="0.06945">
        <ele>703.3</ele>
        <time>2016-07-31T10:59:13Z</time>
      </trkpt>
      <trkpt lat="42.42052" lon="0.0694">
        <ele>704.2</ele>
        <time>2016-07-31T10:59:15Z</time>
      </trkpt>
      <trkpt lat="42.42049" lon="0.06937">
        <ele>704.4</ele>
        <time>2016-07-31T10:59:16Z</time>
      </trkpt>
      <trkpt lat="42.42047" lon="0.06935">
        <ele>704.7</ele>
        <time>2016-07-31T10:59:17Z</time>
      </trkpt>
      <trkpt lat="42.42044" lon="0.06932">
        <ele>704.9</ele>
        <time>2016-07-31T10:59:18Z</time>
      </trkpt>
      <trkpt lat="42.42041" lon="0.0693">
        <ele>705.1</ele>
        <time>2016-07-31T10:59:19Z</time>
      </trkpt>
      <trkpt lat="42.42038" lon="0.06927">
        <ele>705.5</ele>
        <time>2016-07-31T10:59:20Z</time>
      </trkpt>
      <trkpt lat="42.42035" lon="0.06925">
        <ele>705.8</ele>
        <time>2016-07-31T10:59:21Z</time>
      </trkpt>
      <trkpt lat="42.42032" lon="0.06923">
        <ele>706.1</ele>
        <time>2016-07-31T10:59:22Z</time>
      </trkpt>
      <trkpt lat="42.42029" lon="0.06921">
        <ele>706.2</ele>
        <time>2016-07-31T10:59:23Z</time>
      </trkpt>
      <trkpt lat="42.42027" lon="0.0692">
        <ele>706.2</ele>
        <time>2016-07-31T10:59:24Z</time>
      </trkpt>
      <trkpt lat="42.42022" lon="0.06919">
        <ele>706.1</ele>
        <time>2016-07-31T10:59:26Z</time>
      </trkpt>
      <trkpt lat="42.42017" lon="0.06917">
        <ele>706.2</ele>
        <time>2016-07-31T10:59:28Z</time>
      </trkpt>
      <trkpt lat="42.42013" lon="0.06915">
        <ele>706.2</ele>
        <time>2016-07-31T10:59:30Z</time>
      </trkpt>
      <trkpt lat="42.42009" lon="0.06912">
        <ele>706.4</ele>
        <time>2016-07-31T10:59:32Z</time>
      </trkpt>
      <trkpt lat="42.42006" lon="0.06908">
        <ele>707</ele>
        <time>2016-07-31T10:59:34Z</time>
      </trkpt>
      <trkpt lat="42.42003" lon="0.06903">
        <ele>707.6</ele>
        <time>2016-07-31T10:59:36Z</time>
      </trkpt>
      <trkpt lat="42.42" lon="0.069">
        <ele>708</ele>
        <time>2016-07-31T10:59:38Z</time>
      </trkpt>
      <trkpt lat="42.41997" lon="0.06897">
        <ele>708.2</ele>
        <time>2016-07-31T10:59:40Z</time>
      </trkpt>
      <trkpt lat="42.41994" lon="0.06893">
        <ele>708.5</ele>
        <time>2016-07-31T10:59:42Z</time>
      </trkpt>
      <trkpt lat="42.41991" lon="0.0689">
        <ele>708.8</ele>
        <time>2016-07-31T10:59:44Z</time>
      </trkpt>
      <trkpt lat="42.41988" lon="0.06887">
        <ele>709.1</ele>
        <time>2016-07-31T10:59:46Z</time>
      </trkpt>
      <trkpt lat="42.41986" lon="0.06883">
        <ele>709.4</ele>
        <time>2016-07-31T10:59:48Z</time>
      </trkpt>
      <trkpt lat="42.41983" lon="0.0688">
        <ele>709.8</ele>
        <time>2016-07-31T10:59:50Z</time>
      </trkpt>
      <trkpt lat="42.41981" lon="0.06876">
        <ele>710.1</ele>
        <time>2016-07-31T10:59:52Z</time>
      </trkpt>
      <trkpt lat="42.4198" lon="0.06873">
        <ele>710.6</ele>
        <time>2016-07-31T10:59:54Z</time>
      </trkpt>
      <trkpt lat="42.41978" lon="0.06869">
        <ele>711.1</ele>
        <time>2016-07-31T10:59:56Z</time>
      </trkpt>
      <trkpt lat="42.41976" lon="0.06866">
        <ele>711.6</ele>
        <time>2016-07-31T10:59:58Z</time>
      </trkpt>
      <trkpt lat="42.41975" lon="0.06862">
        <ele>712.2</ele>
        <time>2016-07-31T11:00:00Z</time>
      </trkpt>
      <trkpt lat="42.41973" lon="0.06857">
        <ele>713.1</ele>
        <time>2016-07-31T11:00:03Z</time>
      </trkpt>
      <trkpt lat="42.41972" lon="0.06853">
        <ele>713.8</ele>
        <time>2016-07-31T11:00:05Z</time>
      </trkpt>
      <trkpt lat="42.41971" lon="0.06849">
        <ele>714.5</ele>
        <time>2016-07-31T11:00:07Z</time>
      </trkpt>
      <trkpt lat="42.4197" lon="0.06846">
        <ele>715.2</ele>
        <time>2016-07-31T11:00:09Z</time>
      </trkpt>
      <trkpt lat="42.41969" lon="0.06842">
        <ele>715.7</ele>
        <time>2016-07-31T11:00:11Z</time>
      </trkpt>
      <trkpt lat="42.41968" lon="0.06838">
        <ele>716.4</ele>
        <time>2016-07-31T11:00:13Z</time>
      </trkpt>
      <trkpt lat="42.41966" lon="0.06834">
        <ele>717.1</ele>
        <time>2016-07-31T11:00:15Z</time>
      </trkpt>
      <trkpt lat="42.41965" lon="0.0683">
        <ele>717.7</ele>
        <time>2016-07-31T11:00:17Z</time>
      </trkpt>
      <trkpt lat="42.41964" lon="0.06826">
        <ele>718.4</ele>
        <time>2016-07-31T11:00:19Z</time>
      </trkpt>
      <trkpt lat="42.41963" lon="0.06823">
        <ele>719.1</ele>
        <time>2016-07-31T11:00:21Z</time>
      </trkpt>
      <trkpt lat="42.41962" lon="0.06819">
        <ele>719.6</ele>
        <time>2016-07-31T11:00:23Z</time>
      </trkpt>
      <trkpt lat="42.4196" lon="0.06815">
        <ele>720.2</ele>
        <time>2016-07-31T11:00:25Z</time>
      </trkpt>
      <trkpt lat="42.41959" lon="0.06811">
        <ele>720.9</ele>
        <time>2016-07-31T11:00:27Z</time>
      </trkpt>
      <trkpt lat="42.41957" lon="0.06806">
        <ele>721.8</ele>
        <time>2016-07-31T11:00:29Z</time>
      </trkpt>
      <trkpt lat="42.41957" lon="0.06802">
        <ele>722.7</ele>
        <time>2016-07-31T11:00:31Z</time>
      </trkpt>
      <trkpt lat="42.41956" lon="0.06797">
        <ele>723.7</ele>
        <time>2016-07-31T11:00:33Z</time>
      </trkpt>
      <trkpt lat="42.41956" lon="0.06792">
        <ele>724.7</ele>
        <time>2016-07-31T11:00:35Z</time>
      </trkpt>
      <trkpt lat="42.41955" lon="0.06788">
        <ele>725.9</ele>
        <time>2016-07-31T11:00:37Z</time>
      </trkpt>
      <trkpt lat="42.41954" lon="0.06783">
        <ele>727.3</ele>
        <time>2016-07-31T11:00:39Z</time>
      </trkpt>
      <trkpt lat="42.41952" lon="0.06777">
        <ele>728.6</ele>
        <time>2016-07-31T11:00:41Z</time>
      </trkpt>
      <trkpt lat="42.41948" lon="0.06772">
        <ele>729.9</ele>
        <time>2016-07-31T11:00:43Z</time>
      </trkpt>
      <trkpt lat="42.41944" lon="0.0677">
        <ele>730.1</ele>
        <time>2016-07-31T11:00:45Z</time>
      </trkpt>
      <trkpt lat="42.41939" lon="0.06771">
        <ele>729.7</ele>
        <time>2016-07-31T11:00:47Z</time>
      </trkpt>
      <trkpt lat="42.41934" lon="0.0677">
        <ele>729.4</ele>
        <time>2016-07-31T11:00:49Z</time>
      </trkpt>
      <trkpt lat="42.4193" lon="0.06771">
        <ele>728.9</ele>
        <time>2016-07-31T11:00:51Z</time>
      </trkpt>
      <trkpt lat="42.41926" lon="0.06772">
        <ele>728.5</ele>
        <time>2016-07-31T11:00:53Z</time>
      </trkpt>
      <trkpt lat="42.41922" lon="0.06772">
        <ele>728.2</ele>
        <time>2016-07-31T11:00:55Z</time>
      </trkpt>
      <trkpt lat="42.41919" lon="0.06771">
        <ele>728</ele>
        <time>2016-07-31T11:00:57Z</time>
      </trkpt>
      <trkpt lat="42.41915" lon="0.0677">
        <ele>728</ele>
        <time>2016-07-31T11:00:59Z</time>
      </trkpt>
      <trkpt lat="42.41912" lon="0.0677">
        <ele>728</ele>
        <time>2016-07-31T11:01:01Z</time>
      </trkpt>
      <trkpt lat="42.41908" lon="0.06768">
        <ele>728.3</ele>
        <time>2016-07-31T11:01:03Z</time>
      </trkpt>
      <trkpt lat="42.41904" lon="0.06765">
        <ele>728.8</ele>
        <time>2016-07-31T11:01:05Z</time>
      </trkpt>
      <trkpt lat="42.419" lon="0.06762">
        <ele>729.4</ele>
        <time>2016-07-31T11:01:07Z</time>
      </trkpt>
      <trkpt lat="42.41897" lon="0.0676">
        <ele>729.7</ele>
        <time>2016-07-31T11:01:08Z</time>
      </trkpt>
      <trkpt lat="42.41895" lon="0.06758">
        <ele>730.1</ele>
        <time>2016-07-31T11:01:09Z</time>
      </trkpt>
      <trkpt lat="42.41892" lon="0.06756">
        <ele>730.4</ele>
        <time>2016-07-31T11:01:10Z</time>
      </trkpt>
      <trkpt lat="42.41888" lon="0.06753">
        <ele>731.1</ele>
        <time>2016-07-31T11:01:12Z</time>
      </trkpt>
      <trkpt lat="42.41883" lon="0.0675">
        <ele>731.7</ele>
        <time>2016-07-31T11:01:14Z</time>
      </trkpt>
      <trkpt lat="42.41881" lon="0.06748">
        <ele>731.9</ele>
        <time>2016-07-31T11:01:15Z</time>
      </trkpt>
      <trkpt lat="42.41878" lon="0.06747">
        <ele>732.2</ele>
        <time>2016-07-31T11:01:16Z</time>
      </trkpt>
      <trkpt lat="42.41876" lon="0.06745">
        <ele>732.6</ele>
        <time>2016-07-31T11:01:17Z</time>
      </trkpt>
      <trkpt lat="42.41872" lon="0.0674">
        <ele>734</ele>
        <time>2016-07-31T11:01:19Z</time>
      </trkpt>
      <trkpt lat="42.41868" lon="0.06736">
        <ele>735.2</ele>
        <time>2016-07-31T11:01:21Z</time>
      </trkpt>
      <trkpt lat="42.41866" lon="0.06734">
        <ele>735.8</ele>
        <time>2016-07-31T11:01:22Z</time>
      </trkpt>
      <trkpt lat="42.41864" lon="0.06732">
        <ele>736.4</ele>
        <time>2016-07-31T11:01:23Z</time>
      </trkpt>
      <trkpt lat="42.4186" lon="0.06727">
        <ele>737.7</ele>
        <time>2016-07-31T11:01:25Z</time>
      </trkpt>
      <trkpt lat="42.41857" lon="0.06723">
        <ele>738.9</ele>
        <time>2016-07-31T11:01:27Z</time>
      </trkpt>
      <trkpt lat="42.41853" lon="0.06719">
        <ele>739.9</ele>
        <time>2016-07-31T11:01:29Z</time>
      </trkpt>
      <trkpt lat="42.4185" lon="0.06714">
        <ele>740.9</ele>
        <time>2016-07-31T11:01:31Z</time>
      </trkpt>
      <trkpt lat="42.41847" lon="0.0671">
        <ele>742</ele>
        <time>2016-07-31T11:01:33Z</time>
      </trkpt>
      <trkpt lat="42.41844" lon="0.06705">
        <ele>743.2</ele>
        <time>2016-07-31T11:01:35Z</time>
      </trkpt>
      <trkpt lat="42.41842" lon="0.06702">
        <ele>744.2</ele>
        <time>2016-07-31T11:01:37Z</time>
      </trkpt>
      <trkpt lat="42.41839" lon="0.06698">
        <ele>745.2</ele>
        <time>2016-07-31T11:01:39Z</time>
      </trkpt>
      <trkpt lat="42.41835" lon="0.06696">
        <ele>745.8</ele>
        <time>2016-07-31T11:01:41Z</time>
      </trkpt>
      <trkpt lat="42.4183" lon="0.06694">
        <ele>746.2</ele>
        <time>2016-07-31T11:01:43Z</time>
      </trkpt>
      <trkpt lat="42.41826" lon="0.06692">
        <ele>746.6</ele>
        <time>2016-07-31T11:01:45Z</time>
      </trkpt>
      <trkpt lat="42.41821" lon="0.06691">
        <ele>746.7</ele>
        <time>2016-07-31T11:01:47Z</time>
      </trkpt>
      <trkpt lat="42.41816" lon="0.06691">
        <ele>746.6</ele>
        <time>2016-07-31T11:01:49Z</time>
      </trkpt>
      <trkpt lat="42.41811" lon="0.0669">
        <ele>746.8</ele>
        <time>2016-07-31T11:01:51Z</time>
      </trkpt>
      <trkpt lat="42.41807" lon="0.06688">
        <ele>747.4</ele>
        <time>2016-07-31T11:01:53Z</time>
      </trkpt>
      <trkpt lat="42.41804" lon="0.06686">
        <ele>747.9</ele>
        <time>2016-07-31T11:01:55Z</time>
      </trkpt>
      <trkpt lat="42.41801" lon="0.06684">
        <ele>748.3</ele>
        <time>2016-07-31T11:01:57Z</time>
      </trkpt>
      <trkpt lat="42.41796" lon="0.06683">
        <ele>748.4</ele>
        <time>2016-07-31T11:01:59Z</time>
      </trkpt>
      <trkpt lat="42.41792" lon="0.06683">
        <ele>748.2</ele>
        <time>2016-07-31T11:02:01Z</time>
      </trkpt>
      <trkpt lat="42.41789" lon="0.06682">
        <ele>748.7</ele>
        <time>2016-07-31T11:02:04Z</time>
      </trkpt>
      <trkpt lat="42.41787" lon="0.06678">
        <ele>749.9</ele>
        <time>2016-07-31T11:02:06Z</time>
      </trkpt>
      <trkpt lat="42.41786" lon="0.06675">
        <ele>751</ele>
        <time>2016-07-31T11:02:09Z</time>
      </trkpt>
      <trkpt lat="42.41784" lon="0.06672">
        <ele>751.8</ele>
        <time>2016-07-31T11:02:11Z</time>
      </trkpt>
      <trkpt lat="42.41781" lon="0.0667">
        <ele>752.5</ele>
        <time>2016-07-31T11:02:13Z</time>
      </trkpt>
      <trkpt lat="42.41778" lon="0.06669">
        <ele>752.9</ele>
        <time>2016-07-31T11:02:15Z</time>
      </trkpt>
      <trkpt lat="42.41775" lon="0.06667">
        <ele>753.4</ele>
        <time>2016-07-31T11:02:17Z</time>
      </trkpt>
      <trkpt lat="42.41772" lon="0.06664">
        <ele>754.2</ele>
        <time>2016-07-31T11:02:19Z</time>
      </trkpt>
      <trkpt lat="42.4177" lon="0.06662">
        <ele>754.8</ele>
        <time>2016-07-31T11:02:21Z</time>
      </trkpt>
      <trkpt lat="42.41767" lon="0.0666">
        <ele>755.3</ele>
        <time>2016-07-31T11:02:23Z</time>
      </trkpt>
      <trkpt lat="42.41765" lon="0.06657">
        <ele>756.1</ele>
        <time>2016-07-31T11:02:25Z</time>
      </trkpt>
      <trkpt lat="42.41763" lon="0.06654">
        <ele>756.9</ele>
        <time>2016-07-31T11:02:27Z</time>
      </trkpt>
      <trkpt lat="42.41761" lon="0.06651">
        <ele>757.5</ele>
        <time>2016-07-31T11:02:29Z</time>
      </trkpt>
      <trkpt lat="42.41759" lon="0.06649">
        <ele>757.9</ele>
        <time>2016-07-31T11:02:31Z</time>
      </trkpt>
      <trkpt lat="42.41756" lon="0.06648">
        <ele>758.2</ele>
        <time>2016-07-31T11:02:33Z</time>
      </trkpt>
      <trkpt lat="42.41753" lon="0.06645">
        <ele>758.8</ele>
        <time>2016-07-31T11:02:35Z</time>
      </trkpt>
      <trkpt lat="42.4175" lon="0.06645">
        <ele>758.9</ele>
        <time>2016-07-31T11:02:38Z</time>
      </trkpt>
      <trkpt lat="42.41748" lon="0.06646">
        <ele>758.5</ele>
        <time>2016-07-31T11:02:41Z</time>
      </trkpt>
      <trkpt lat="42.41745" lon="0.06648">
        <ele>758.2</ele>
        <time>2016-07-31T11:02:43Z</time>
      </trkpt>
      <trkpt lat="42.41742" lon="0.06649">
        <ele>758</ele>
        <time>2016-07-31T11:02:45Z</time>
      </trkpt>
      <trkpt lat="42.41739" lon="0.06649">
        <ele>757.9</ele>
        <time>2016-07-31T11:02:47Z</time>
      </trkpt>
      <trkpt lat="42.41736" lon="0.06651">
        <ele>757.6</ele>
        <time>2016-07-31T11:02:50Z</time>
      </trkpt>
      <trkpt lat="42.41732" lon="0.0665">
        <ele>757.7</ele>
        <time>2016-07-31T11:02:53Z</time>
      </trkpt>
      <trkpt lat="42.41729" lon="0.0665">
        <ele>757.7</ele>
        <time>2016-07-31T11:02:55Z</time>
      </trkpt>
      <trkpt lat="42.41726" lon="0.0665">
        <ele>757.8</ele>
        <time>2016-07-31T11:02:57Z</time>
      </trkpt>
      <trkpt lat="42.41723" lon="0.06649">
        <ele>757.9</ele>
        <time>2016-07-31T11:02:59Z</time>
      </trkpt>
      <trkpt lat="42.41718" lon="0.06649">
        <ele>757.8</ele>
        <time>2016-07-31T11:03:01Z</time>
      </trkpt>
      <trkpt lat="42.41714" lon="0.0665">
        <ele>757.8</ele>
        <time>2016-07-31T11:03:03Z</time>
      </trkpt>
      <trkpt lat="42.41709" lon="0.0665">
        <ele>757.7</ele>
        <time>2016-07-31T11:03:05Z</time>
      </trkpt>
      <trkpt lat="42.41704" lon="0.06651">
        <ele>756.9</ele>
        <time>2016-07-31T11:03:07Z</time>
      </trkpt>
      <trkpt lat="42.41699" lon="0.06653">
        <ele>756.1</ele>
        <time>2016-07-31T11:03:09Z</time>
      </trkpt>
      <trkpt lat="42.41696" lon="0.06654">
        <ele>755.5</ele>
        <time>2016-07-31T11:03:10Z</time>
      </trkpt>
      <trkpt lat="42.41692" lon="0.06654">
        <ele>755</ele>
        <time>2016-07-31T11:03:12Z</time>
      </trkpt>
      <trkpt lat="42.4169" lon="0.06652">
        <ele>754.9</ele>
        <time>2016-07-31T11:03:15Z</time>
      </trkpt>
      <trkpt lat="42.41687" lon="0.0665">
        <ele>754.7</ele>
        <time>2016-07-31T11:03:19Z</time>
      </trkpt>
      <trkpt lat="42.41684" lon="0.06651">
        <ele>754.3</ele>
        <time>2016-07-31T11:03:21Z</time>
      </trkpt>
      <trkpt lat="42.41681" lon="0.06651">
        <ele>753.7</ele>
        <time>2016-07-31T11:03:23Z</time>
      </trkpt>
      <trkpt lat="42.41677" lon="0.06651">
        <ele>753.2</ele>
        <time>2016-07-31T11:03:26Z</time>
      </trkpt>
      <trkpt lat="42.41675" lon="0.06652">
        <ele>752.7</ele>
        <time>2016-07-31T11:03:28Z</time>
      </trkpt>
      <trkpt lat="42.41671" lon="0.06652">
        <ele>752.2</ele>
        <time>2016-07-31T11:03:31Z</time>
      </trkpt>
      <trkpt lat="42.41669" lon="0.0665">
        <ele>752.3</ele>
        <time>2016-07-31T11:03:33Z</time>
      </trkpt>
      <trkpt lat="42.41665" lon="0.06647">
        <ele>752.3</ele>
        <time>2016-07-31T11:03:36Z</time>
      </trkpt>
      <trkpt lat="42.41661" lon="0.06645">
        <ele>752.2</ele>
        <time>2016-07-31T11:03:38Z</time>
      </trkpt>
      <trkpt lat="42.41657" lon="0.0664">
        <ele>752.5</ele>
        <time>2016-07-31T11:03:40Z</time>
      </trkpt>
      <trkpt lat="42.41655" lon="0.06637">
        <ele>752.9</ele>
        <time>2016-07-31T11:03:41Z</time>
      </trkpt>
      <trkpt lat="42.41652" lon="0.06632">
        <ele>753.5</ele>
        <time>2016-07-31T11:03:43Z</time>
      </trkpt>
      <trkpt lat="42.4165" lon="0.06629">
        <ele>754</ele>
        <time>2016-07-31T11:03:45Z</time>
      </trkpt>
      <trkpt lat="42.41648" lon="0.06625">
        <ele>754.5</ele>
        <time>2016-07-31T11:03:47Z</time>
      </trkpt>
      <trkpt lat="42.41646" lon="0.06621">
        <ele>755.3</ele>
        <time>2016-07-31T11:03:49Z</time>
      </trkpt>
      <trkpt lat="42.41646" lon="0.06618">
        <ele>756.2</ele>
        <time>2016-07-31T11:03:51Z</time>
      </trkpt>
      <trkpt lat="42.41646" lon="0.06614">
        <ele>757.3</ele>
        <time>2016-07-31T11:03:53Z</time>
      </trkpt>
      <trkpt lat="42.41644" lon="0.0661">
        <ele>757.9</ele>
        <time>2016-07-31T11:03:55Z</time>
      </trkpt>
      <trkpt lat="42.41642" lon="0.06607">
        <ele>758.6</ele>
        <time>2016-07-31T11:03:57Z</time>
      </trkpt>
      <trkpt lat="42.41641" lon="0.06603">
        <ele>759.6</ele>
        <time>2016-07-31T11:03:59Z</time>
      </trkpt>
      <trkpt lat="42.4164" lon="0.06599">
        <ele>760.4</ele>
        <time>2016-07-31T11:04:01Z</time>
      </trkpt>
      <trkpt lat="42.41639" lon="0.06595">
        <ele>761.3</ele>
        <time>2016-07-31T11:04:03Z</time>
      </trkpt>
      <trkpt lat="42.4164" lon="0.06591">
        <ele>762.6</ele>
        <time>2016-07-31T11:04:09Z</time>
      </trkpt>
      <trkpt lat="42.4164" lon="0.06587">
        <ele>763.6</ele>
        <time>2016-07-31T11:04:12Z</time>
      </trkpt>
      <trkpt lat="42.41638" lon="0.06583">
        <ele>764.2</ele>
        <time>2016-07-31T11:04:16Z</time>
      </trkpt>
      <trkpt lat="42.41635" lon="0.06581">
        <ele>764.6</ele>
        <time>2016-07-31T11:04:19Z</time>
      </trkpt>
      <trkpt lat="42.41633" lon="0.06577">
        <ele>765.3</ele>
        <time>2016-07-31T11:04:22Z</time>
      </trkpt>
      <trkpt lat="42.41631" lon="0.06573">
        <ele>765.9</ele>
        <time>2016-07-31T11:04:26Z</time>
      </trkpt>
      <trkpt lat="42.41629" lon="0.0657">
        <ele>766.3</ele>
        <time>2016-07-31T11:04:29Z</time>
      </trkpt>
      <trkpt lat="42.41627" lon="0.06567">
        <ele>766.9</ele>
        <time>2016-07-31T11:04:32Z</time>
      </trkpt>
      <trkpt lat="42.41627" lon="0.06563">
        <ele>767.9</ele>
        <time>2016-07-31T11:04:36Z</time>
      </trkpt>
      <trkpt lat="42.41628" lon="0.06558">
        <ele>769.3</ele>
        <time>2016-07-31T11:04:40Z</time>
      </trkpt>
      <trkpt lat="42.41629" lon="0.06554">
        <ele>770.4</ele>
        <time>2016-07-31T11:04:44Z</time>
      </trkpt>
      <trkpt lat="42.41628" lon="0.06551">
        <ele>771.2</ele>
        <time>2016-07-31T11:04:49Z</time>
      </trkpt>
      <trkpt lat="42.41625" lon="0.06549">
        <ele>771</ele>
        <time>2016-07-31T11:04:56Z</time>
      </trkpt>
      <trkpt lat="42.41622" lon="0.06547">
        <ele>771.2</ele>
        <time>2016-07-31T11:05:01Z</time>
      </trkpt>
      <trkpt lat="42.4162" lon="0.06543">
        <ele>771.9</ele>
        <time>2016-07-31T11:05:04Z</time>
      </trkpt>
      <trkpt lat="42.41619" lon="0.06539">
        <ele>772.4</ele>
        <time>2016-07-31T11:05:06Z</time>
      </trkpt>
      <trkpt lat="42.41619" lon="0.06534">
        <ele>773</ele>
        <time>2016-07-31T11:05:09Z</time>
      </trkpt>
      <trkpt lat="42.41618" lon="0.0653">
        <ele>773.3</ele>
        <time>2016-07-31T11:05:11Z</time>
      </trkpt>
      <trkpt lat="42.41615" lon="0.06526">
        <ele>773.5</ele>
        <time>2016-07-31T11:05:13Z</time>
      </trkpt>
      <trkpt lat="42.41613" lon="0.06523">
        <ele>773.7</ele>
        <time>2016-07-31T11:05:15Z</time>
      </trkpt>
      <trkpt lat="42.41611" lon="0.06519">
        <ele>773.9</ele>
        <time>2016-07-31T11:05:17Z</time>
      </trkpt>
      <trkpt lat="42.41608" lon="0.06515">
        <ele>774.1</ele>
        <time>2016-07-31T11:05:19Z</time>
      </trkpt>
      <trkpt lat="42.41606" lon="0.0651">
        <ele>774.5</ele>
        <time>2016-07-31T11:05:21Z</time>
      </trkpt>
      <trkpt lat="42.41605" lon="0.06507">
        <ele>774.8</ele>
        <time>2016-07-31T11:05:23Z</time>
      </trkpt>
      <trkpt lat="42.41603" lon="0.06504">
        <ele>775.1</ele>
        <time>2016-07-31T11:05:25Z</time>
      </trkpt>
      <trkpt lat="42.416" lon="0.06501">
        <ele>775.1</ele>
        <time>2016-07-31T11:05:28Z</time>
      </trkpt>
      <trkpt lat="42.41597" lon="0.06498">
        <ele>775.1</ele>
        <time>2016-07-31T11:05:30Z</time>
      </trkpt>
      <trkpt lat="42.41595" lon="0.06495">
        <ele>775.3</ele>
        <time>2016-07-31T11:05:32Z</time>
      </trkpt>
      <trkpt lat="42.41593" lon="0.06492">
        <ele>775.6</ele>
        <time>2016-07-31T11:05:34Z</time>
      </trkpt>
      <trkpt lat="42.41591" lon="0.06488">
        <ele>776</ele>
        <time>2016-07-31T11:05:36Z</time>
      </trkpt>
      <trkpt lat="42.41589" lon="0.06485">
        <ele>776.2</ele>
        <time>2016-07-31T11:05:38Z</time>
      </trkpt>
      <trkpt lat="42.41586" lon="0.06482">
        <ele>776.2</ele>
        <time>2016-07-31T11:05:40Z</time>
      </trkpt>
      <trkpt lat="42.41583" lon="0.06479">
        <ele>776.5</ele>
        <time>2016-07-31T11:05:43Z</time>
      </trkpt>
      <trkpt lat="42.4158" lon="0.06476">
        <ele>776.6</ele>
        <time>2016-07-31T11:05:46Z</time>
      </trkpt>
      <trkpt lat="42.41576" lon="0.06473">
        <ele>776.7</ele>
        <time>2016-07-31T11:05:49Z</time>
      </trkpt>
      <trkpt lat="42.41573" lon="0.06471">
        <ele>776.8</ele>
        <time>2016-07-31T11:05:51Z</time>
      </trkpt>
      <trkpt lat="42.41571" lon="0.06468">
        <ele>777.1</ele>
        <time>2016-07-31T11:05:53Z</time>
      </trkpt>
      <trkpt lat="42.41569" lon="0.06465">
        <ele>777.4</ele>
        <time>2016-07-31T11:05:55Z</time>
      </trkpt>
      <trkpt lat="42.41566" lon="0.06462">
        <ele>777.6</ele>
        <time>2016-07-31T11:05:58Z</time>
      </trkpt>
      <trkpt lat="42.41564" lon="0.06459">
        <ele>778.1</ele>
        <time>2016-07-31T11:06:01Z</time>
      </trkpt>
      <trkpt lat="42.41562" lon="0.06455">
        <ele>778</ele>
        <time>2016-07-31T11:06:04Z</time>
      </trkpt>
      <trkpt lat="42.4156" lon="0.06452">
        <ele>777.9</ele>
        <time>2016-07-31T11:06:06Z</time>
      </trkpt>
      <trkpt lat="42.41558" lon="0.06449">
        <ele>777.9</ele>
        <time>2016-07-31T11:06:08Z</time>
      </trkpt>
      <trkpt lat="42.41557" lon="0.06443">
        <ele>778.1</ele>
        <time>2016-07-31T11:06:11Z</time>
      </trkpt>
      <trkpt lat="42.41556" lon="0.06439">
        <ele>778.2</ele>
        <time>2016-07-31T11:06:14Z</time>
      </trkpt>
      <trkpt lat="42.41554" lon="0.06435">
        <ele>778.3</ele>
        <time>2016-07-31T11:06:16Z</time>
      </trkpt>
      <trkpt lat="42.41552" lon="0.06431">
        <ele>778.5</ele>
        <time>2016-07-31T11:06:18Z</time>
      </trkpt>
      <trkpt lat="42.4155" lon="0.06427">
        <ele>778.7</ele>
        <time>2016-07-31T11:06:20Z</time>
      </trkpt>
      <trkpt lat="42.41548" lon="0.06423">
        <ele>778.9</ele>
        <time>2016-07-31T11:06:22Z</time>
      </trkpt>
      <trkpt lat="42.41547" lon="0.06419">
        <ele>779.2</ele>
        <time>2016-07-31T11:06:25Z</time>
      </trkpt>
      <trkpt lat="42.41547" lon="0.06415">
        <ele>779.5</ele>
        <time>2016-07-31T11:06:27Z</time>
      </trkpt>
      <trkpt lat="42.41546" lon="0.0641">
        <ele>779.9</ele>
        <time>2016-07-31T11:06:29Z</time>
      </trkpt>
      <trkpt lat="42.41545" lon="0.06406">
        <ele>780.2</ele>
        <time>2016-07-31T11:06:31Z</time>
      </trkpt>
      <trkpt lat="42.41543" lon="0.06402">
        <ele>780.6</ele>
        <time>2016-07-31T11:06:33Z</time>
      </trkpt>
      <trkpt lat="42.41542" lon="0.06398">
        <ele>781.1</ele>
        <time>2016-07-31T11:06:35Z</time>
      </trkpt>
      <trkpt lat="42.41541" lon="0.06394">
        <ele>781.5</ele>
        <time>2016-07-31T11:06:37Z</time>
      </trkpt>
      <trkpt lat="42.41538" lon="0.06391">
        <ele>781.9</ele>
        <time>2016-07-31T11:06:39Z</time>
      </trkpt>
      <trkpt lat="42.41536" lon="0.06388">
        <ele>782.5</ele>
        <time>2016-07-31T11:06:41Z</time>
      </trkpt>
      <trkpt lat="42.41535" lon="0.06383">
        <ele>783</ele>
        <time>2016-07-31T11:06:43Z</time>
      </trkpt>
      <trkpt lat="42.41533" lon="0.0638">
        <ele>783.6</ele>
        <time>2016-07-31T11:06:45Z</time>
      </trkpt>
      <trkpt lat="42.41531" lon="0.06377">
        <ele>784.2</ele>
        <time>2016-07-31T11:06:47Z</time>
      </trkpt>
      <trkpt lat="42.41533" lon="0.06375">
        <ele>784</ele>
        <time>2016-07-31T11:06:53Z</time>
      </trkpt>
      <trkpt lat="42.41536" lon="0.06377">
        <ele>783.5</ele>
        <time>2016-07-31T11:06:55Z</time>
      </trkpt>
      <trkpt lat="42.41538" lon="0.06378">
        <ele>783.1</ele>
        <time>2016-07-31T11:06:57Z</time>
      </trkpt>
      <trkpt lat="42.41541" lon="0.06381">
        <ele>782.6</ele>
        <time>2016-07-31T11:08:33Z</time>
      </trkpt>
      <trkpt lat="42.41543" lon="0.06384">
        <ele>782.1</ele>
        <time>2016-07-31T11:08:38Z</time>
      </trkpt>
      <trkpt lat="42.41546" lon="0.06385">
        <ele>781.6</ele>
        <time>2016-07-31T11:08:40Z</time>
      </trkpt>
      <trkpt lat="42.41549" lon="0.06388">
        <ele>781.1</ele>
        <time>2016-07-31T11:08:42Z</time>
      </trkpt>
      <trkpt lat="42.41552" lon="0.0639">
        <ele>780.6</ele>
        <time>2016-07-31T11:08:44Z</time>
      </trkpt>
      <trkpt lat="42.41556" lon="0.06392">
        <ele>780.2</ele>
        <time>2016-07-31T11:08:46Z</time>
      </trkpt>
      <trkpt lat="42.41559" lon="0.06395">
        <ele>779.8</ele>
        <time>2016-07-31T11:08:48Z</time>
      </trkpt>
      <trkpt lat="42.41563" lon="0.06397">
        <ele>779.5</ele>
        <time>2016-07-31T11:08:50Z</time>
      </trkpt>
      <trkpt lat="42.41566" lon="0.06399">
        <ele>779.2</ele>
        <time>2016-07-31T11:08:52Z</time>
      </trkpt>
      <trkpt lat="42.4157" lon="0.06399">
        <ele>778.9</ele>
        <time>2016-07-31T11:08:54Z</time>
      </trkpt>
      <trkpt lat="42.41573" lon="0.064">
        <ele>778.7</ele>
        <time>2016-07-31T11:08:56Z</time>
      </trkpt>
      <trkpt lat="42.41576" lon="0.06402">
        <ele>778.5</ele>
        <time>2016-07-31T11:08:58Z</time>
      </trkpt>
      <trkpt lat="42.41579" lon="0.06404">
        <ele>778.3</ele>
        <time>2016-07-31T11:09:00Z</time>
      </trkpt>
      <trkpt lat="42.41582" lon="0.06405">
        <ele>778.2</ele>
        <time>2016-07-31T11:09:02Z</time>
      </trkpt>
      <trkpt lat="42.41585" lon="0.06407">
        <ele>778.1</ele>
        <time>2016-07-31T11:09:04Z</time>
      </trkpt>
      <trkpt lat="42.41588" lon="0.06408">
        <ele>778</ele>
        <time>2016-07-31T11:09:06Z</time>
      </trkpt>
      <trkpt lat="42.41591" lon="0.06408">
        <ele>777.8</ele>
        <time>2016-07-31T11:09:08Z</time>
      </trkpt>
      <trkpt lat="42.41595" lon="0.06409">
        <ele>777.7</ele>
        <time>2016-07-31T11:09:10Z</time>
      </trkpt>
      <trkpt lat="42.41597" lon="0.0641">
        <ele>777.6</ele>
        <time>2016-07-31T11:09:12Z</time>
      </trkpt>
      <trkpt lat="42.416" lon="0.06411">
        <ele>777.6</ele>
        <time>2016-07-31T11:09:14Z</time>
      </trkpt>
      <trkpt lat="42.41603" lon="0.06413">
        <ele>777.7</ele>
        <time>2016-07-31T11:09:16Z</time>
      </trkpt>
      <trkpt lat="42.41606" lon="0.06415">
        <ele>777.7</ele>
        <time>2016-07-31T11:09:18Z</time>
      </trkpt>
      <trkpt lat="42.4161" lon="0.06416">
        <ele>777.8</ele>
        <time>2016-07-31T11:09:20Z</time>
      </trkpt>
      <trkpt lat="42.41613" lon="0.06418">
        <ele>777.9</ele>
        <time>2016-07-31T11:09:22Z</time>
      </trkpt>
      <trkpt lat="42.41617" lon="0.0642">
        <ele>778.1</ele>
        <time>2016-07-31T11:09:24Z</time>
      </trkpt>
      <trkpt lat="42.4162" lon="0.06421">
        <ele>778.2</ele>
        <time>2016-07-31T11:09:26Z</time>
      </trkpt>
      <trkpt lat="42.41623" lon="0.0642">
        <ele>778</ele>
        <time>2016-07-31T11:09:28Z</time>
      </trkpt>
      <trkpt lat="42.41626" lon="0.06419">
        <ele>778</ele>
        <time>2016-07-31T11:09:30Z</time>
      </trkpt>
      <trkpt lat="42.4163" lon="0.06419">
        <ele>778.4</ele>
        <time>2016-07-31T11:09:32Z</time>
      </trkpt>
      <trkpt lat="42.41634" lon="0.06419">
        <ele>778.9</ele>
        <time>2016-07-31T11:09:34Z</time>
      </trkpt>
      <trkpt lat="42.41637" lon="0.06421">
        <ele>779.6</ele>
        <time>2016-07-31T11:09:36Z</time>
      </trkpt>
      <trkpt lat="42.41641" lon="0.06423">
        <ele>780.5</ele>
        <time>2016-07-31T11:09:38Z</time>
      </trkpt>
      <trkpt lat="42.41644" lon="0.06426">
        <ele>781.3</ele>
        <time>2016-07-31T11:09:40Z</time>
      </trkpt>
      <trkpt lat="42.41647" lon="0.06428">
        <ele>782</ele>
        <time>2016-07-31T11:09:42Z</time>
      </trkpt>
      <trkpt lat="42.4165" lon="0.06426">
        <ele>782.1</ele>
        <time>2016-07-31T11:09:44Z</time>
      </trkpt>
      <trkpt lat="42.41652" lon="0.06422">
        <ele>781.7</ele>
        <time>2016-07-31T11:09:46Z</time>
      </trkpt>
      <trkpt lat="42.41655" lon="0.06419">
        <ele>781.6</ele>
        <time>2016-07-31T11:09:48Z</time>
      </trkpt>
      <trkpt lat="42.41659" lon="0.06421">
        <ele>782.2</ele>
        <time>2016-07-31T11:09:50Z</time>
      </trkpt>
      <trkpt lat="42.41662" lon="0.06424">
        <ele>783.1</ele>
        <time>2016-07-31T11:09:52Z</time>
      </trkpt>
      <trkpt lat="42.41665" lon="0.06426">
        <ele>783.9</ele>
        <time>2016-07-31T11:09:54Z</time>
      </trkpt>
      <trkpt lat="42.41669" lon="0.06426">
        <ele>784.3</ele>
        <time>2016-07-31T11:09:56Z</time>
      </trkpt>
      <trkpt lat="42.41673" lon="0.06426">
        <ele>784.7</ele>
        <time>2016-07-31T11:09:58Z</time>
      </trkpt>
      <trkpt lat="42.41676" lon="0.06425">
        <ele>785.1</ele>
        <time>2016-07-31T11:10:00Z</time>
      </trkpt>
      <trkpt lat="42.41679" lon="0.06424">
        <ele>785.3</ele>
        <time>2016-07-31T11:10:02Z</time>
      </trkpt>
      <trkpt lat="42.41683" lon="0.06425">
        <ele>785.8</ele>
        <time>2016-07-31T11:10:04Z</time>
      </trkpt>
      <trkpt lat="42.41686" lon="0.06427">
        <ele>786.6</ele>
        <time>2016-07-31T11:10:06Z</time>
      </trkpt>
      <trkpt lat="42.41689" lon="0.06429">
        <ele>787.3</ele>
        <time>2016-07-31T11:10:08Z</time>
      </trkpt>
      <trkpt lat="42.41692" lon="0.0643">
        <ele>787.9</ele>
        <time>2016-07-31T11:10:10Z</time>
      </trkpt>
      <trkpt lat="42.41696" lon="0.0643">
        <ele>788.4</ele>
        <time>2016-07-31T11:10:12Z</time>
      </trkpt>
      <trkpt lat="42.41699" lon="0.06431">
        <ele>788.9</ele>
        <time>2016-07-31T11:10:14Z</time>
      </trkpt>
      <trkpt lat="42.41703" lon="0.06432">
        <ele>789.6</ele>
        <time>2016-07-31T11:10:16Z</time>
      </trkpt>
      <trkpt lat="42.41706" lon="0.06434">
        <ele>790.3</ele>
        <time>2016-07-31T11:10:18Z</time>
      </trkpt>
      <trkpt lat="42.4171" lon="0.06434">
        <ele>790.8</ele>
        <time>2016-07-31T11:10:20Z</time>
      </trkpt>
      <trkpt lat="42.41714" lon="0.06434">
        <ele>791.2</ele>
        <time>2016-07-31T11:10:22Z</time>
      </trkpt>
      <trkpt lat="42.41718" lon="0.06434">
        <ele>791.7</ele>
        <time>2016-07-31T11:10:24Z</time>
      </trkpt>
      <trkpt lat="42.41721" lon="0.06436">
        <ele>792.4</ele>
        <time>2016-07-31T11:10:26Z</time>
      </trkpt>
      <trkpt lat="42.41725" lon="0.06437">
        <ele>792.9</ele>
        <time>2016-07-31T11:10:28Z</time>
      </trkpt>
      <trkpt lat="42.41727" lon="0.06436">
        <ele>793</ele>
        <time>2016-07-31T11:10:33Z</time>
      </trkpt>
      <trkpt lat="42.4173" lon="0.06433">
        <ele>792.8</ele>
        <time>2016-07-31T11:10:38Z</time>
      </trkpt>
      <trkpt lat="42.41732" lon="0.06431">
        <ele>792.8</ele>
        <time>2016-07-31T11:10:41Z</time>
      </trkpt>
      <trkpt lat="42.41735" lon="0.06429">
        <ele>792.7</ele>
        <time>2016-07-31T11:10:44Z</time>
      </trkpt>
      <trkpt lat="42.41738" lon="0.06426">
        <ele>792.5</ele>
        <time>2016-07-31T11:10:47Z</time>
      </trkpt>
      <trkpt lat="42.41741" lon="0.06426">
        <ele>792.8</ele>
        <time>2016-07-31T11:10:55Z</time>
      </trkpt>
      <trkpt lat="42.41744" lon="0.06423">
        <ele>792.7</ele>
        <time>2016-07-31T11:10:57Z</time>
      </trkpt>
      <trkpt lat="42.41748" lon="0.06421">
        <ele>792.8</ele>
        <time>2016-07-31T11:10:59Z</time>
      </trkpt>
      <trkpt lat="42.41753" lon="0.06419">
        <ele>793.1</ele>
        <time>2016-07-31T11:11:01Z</time>
      </trkpt>
      <trkpt lat="42.41756" lon="0.06418">
        <ele>793.2</ele>
        <time>2016-07-31T11:11:02Z</time>
      </trkpt>
      <trkpt lat="42.41759" lon="0.06416">
        <ele>793.2</ele>
        <time>2016-07-31T11:11:03Z</time>
      </trkpt>
      <trkpt lat="42.41761" lon="0.06414">
        <ele>793.1</ele>
        <time>2016-07-31T11:11:04Z</time>
      </trkpt>
      <trkpt lat="42.41764" lon="0.06411">
        <ele>792.9</ele>
        <time>2016-07-31T11:11:05Z</time>
      </trkpt>
      <trkpt lat="42.41768" lon="0.06409">
        <ele>792.9</ele>
        <time>2016-07-31T11:11:06Z</time>
      </trkpt>
      <trkpt lat="42.41772" lon="0.06408">
        <ele>793.2</ele>
        <time>2016-07-31T11:11:07Z</time>
      </trkpt>
      <trkpt lat="42.41777" lon="0.06407">
        <ele>793.6</ele>
        <time>2016-07-31T11:11:08Z</time>
      </trkpt>
      <trkpt lat="42.41781" lon="0.06406">
        <ele>794.1</ele>
        <time>2016-07-31T11:11:09Z</time>
      </trkpt>
      <trkpt lat="42.41786" lon="0.06406">
        <ele>794.6</ele>
        <time>2016-07-31T11:11:10Z</time>
      </trkpt>
      <trkpt lat="42.4179" lon="0.06406">
        <ele>795</ele>
        <time>2016-07-31T11:11:11Z</time>
      </trkpt>
      <trkpt lat="42.41794" lon="0.06407">
        <ele>795.5</ele>
        <time>2016-07-31T11:11:12Z</time>
      </trkpt>
      <trkpt lat="42.41797" lon="0.06408">
        <ele>796</ele>
        <time>2016-07-31T11:11:13Z</time>
      </trkpt>
      <trkpt lat="42.418" lon="0.0641">
        <ele>796.6</ele>
        <time>2016-07-31T11:11:14Z</time>
      </trkpt>
      <trkpt lat="42.41802" lon="0.06413">
        <ele>797.2</ele>
        <time>2016-07-31T11:11:15Z</time>
      </trkpt>
      <trkpt lat="42.41804" lon="0.06417">
        <ele>797.9</ele>
        <time>2016-07-31T11:11:16Z</time>
      </trkpt>
      <trkpt lat="42.41806" lon="0.0642">
        <ele>798.5</ele>
        <time>2016-07-31T11:11:17Z</time>
      </trkpt>
      <trkpt lat="42.41811" lon="0.06424">
        <ele>799.4</ele>
        <time>2016-07-31T11:11:19Z</time>
      </trkpt>
      <trkpt lat="42.41815" lon="0.06426">
        <ele>799.9</ele>
        <time>2016-07-31T11:11:20Z</time>
      </trkpt>
      <trkpt lat="42.41819" lon="0.06427">
        <ele>800.2</ele>
        <time>2016-07-31T11:11:21Z</time>
      </trkpt>
      <trkpt lat="42.41821" lon="0.06428">
        <ele>800.5</ele>
        <time>2016-07-31T11:11:23Z</time>
      </trkpt>
      <trkpt lat="42.41823" lon="0.06431">
        <ele>801</ele>
        <time>2016-07-31T11:11:25Z</time>
      </trkpt>
      <trkpt lat="42.41825" lon="0.06436">
        <ele>801.7</ele>
        <time>2016-07-31T11:11:27Z</time>
      </trkpt>
      <trkpt lat="42.41827" lon="0.06438">
        <ele>802</ele>
        <time>2016-07-31T11:11:28Z</time>
      </trkpt>
      <trkpt lat="42.41831" lon="0.06439">
        <ele>802.4</ele>
        <time>2016-07-31T11:11:29Z</time>
      </trkpt>
      <trkpt lat="42.41835" lon="0.0644">
        <ele>802.6</ele>
        <time>2016-07-31T11:11:30Z</time>
      </trkpt>
      <trkpt lat="42.4184" lon="0.06441">
        <ele>802.9</ele>
        <time>2016-07-31T11:11:31Z</time>
      </trkpt>
      <trkpt lat="42.41845" lon="0.06441">
        <ele>803.1</ele>
        <time>2016-07-31T11:11:32Z</time>
      </trkpt>
      <trkpt lat="42.4185" lon="0.06442">
        <ele>803.3</ele>
        <time>2016-07-31T11:11:33Z</time>
      </trkpt>
      <trkpt lat="42.41856" lon="0.06444">
        <ele>803.7</ele>
        <time>2016-07-31T11:11:34Z</time>
      </trkpt>
      <trkpt lat="42.41862" lon="0.06446">
        <ele>804</ele>
        <time>2016-07-31T11:11:35Z</time>
      </trkpt>
      <trkpt lat="42.41868" lon="0.0645">
        <ele>804.4</ele>
        <time>2016-07-31T11:11:36Z</time>
      </trkpt>
      <trkpt lat="42.41873" lon="0.06455">
        <ele>804.8</ele>
        <time>2016-07-31T11:11:37Z</time>
      </trkpt>
      <trkpt lat="42.41878" lon="0.06459">
        <ele>805</ele>
        <time>2016-07-31T11:11:38Z</time>
      </trkpt>
      <trkpt lat="42.41881" lon="0.06464">
        <ele>804.4</ele>
        <time>2016-07-31T11:11:39Z</time>
      </trkpt>
      <trkpt lat="42.41885" lon="0.06468">
        <ele>803.7</ele>
        <time>2016-07-31T11:11:40Z</time>
      </trkpt>
      <trkpt lat="42.41889" lon="0.06472">
        <ele>803.1</ele>
        <time>2016-07-31T11:11:41Z</time>
      </trkpt>
      <trkpt lat="42.41893" lon="0.06476">
        <ele>802.6</ele>
        <time>2016-07-31T11:11:42Z</time>
      </trkpt>
      <trkpt lat="42.41896" lon="0.06479">
        <ele>802.2</ele>
        <time>2016-07-31T11:11:43Z</time>
      </trkpt>
      <trkpt lat="42.419" lon="0.0648">
        <ele>802</ele>
        <time>2016-07-31T11:11:45Z</time>
      </trkpt>
      <trkpt lat="42.41904" lon="0.0648">
        <ele>802.3</ele>
        <time>2016-07-31T11:11:47Z</time>
      </trkpt>
      <trkpt lat="42.41907" lon="0.0648">
        <ele>802.5</ele>
        <time>2016-07-31T11:11:49Z</time>
      </trkpt>
      <trkpt lat="42.4191" lon="0.06481">
        <ele>802.5</ele>
        <time>2016-07-31T11:11:51Z</time>
      </trkpt>
      <trkpt lat="42.41914" lon="0.06483">
        <ele>802.3</ele>
        <time>2016-07-31T11:11:54Z</time>
      </trkpt>
      <trkpt lat="42.41918" lon="0.06483">
        <ele>802.6</ele>
        <time>2016-07-31T11:11:57Z</time>
      </trkpt>
      <trkpt lat="42.41922" lon="0.06483">
        <ele>802.8</ele>
        <time>2016-07-31T11:12:00Z</time>
      </trkpt>
      <trkpt lat="42.41926" lon="0.06484">
        <ele>802.8</ele>
        <time>2016-07-31T11:12:03Z</time>
      </trkpt>
      <trkpt lat="42.41928" lon="0.06484">
        <ele>803</ele>
        <time>2016-07-31T11:12:06Z</time>
      </trkpt>
      <trkpt lat="42.41932" lon="0.06483">
        <ele>803.5</ele>
        <time>2016-07-31T11:12:09Z</time>
      </trkpt>
      <trkpt lat="42.41935" lon="0.06484">
        <ele>803.5</ele>
        <time>2016-07-31T11:12:11Z</time>
      </trkpt>
      <trkpt lat="42.41939" lon="0.06485">
        <ele>803.3</ele>
        <time>2016-07-31T11:12:13Z</time>
      </trkpt>
      <trkpt lat="42.41943" lon="0.06486">
        <ele>803.4</ele>
        <time>2016-07-31T11:12:15Z</time>
      </trkpt>
      <trkpt lat="42.41949" lon="0.06486">
        <ele>803.9</ele>
        <time>2016-07-31T11:12:17Z</time>
      </trkpt>
      <trkpt lat="42.41953" lon="0.06484">
        <ele>804.7</ele>
        <time>2016-07-31T11:12:19Z</time>
      </trkpt>
      <trkpt lat="42.41957" lon="0.06484">
        <ele>804.9</ele>
        <time>2016-07-31T11:12:21Z</time>
      </trkpt>
      <trkpt lat="42.41962" lon="0.06485">
        <ele>805.2</ele>
        <time>2016-07-31T11:12:23Z</time>
      </trkpt>
      <trkpt lat="42.41965" lon="0.06485">
        <ele>805.4</ele>
        <time>2016-07-31T11:12:24Z</time>
      </trkpt>
      <trkpt lat="42.4197" lon="0.06483">
        <ele>806.3</ele>
        <time>2016-07-31T11:12:26Z</time>
      </trkpt>
      <trkpt lat="42.41973" lon="0.06479">
        <ele>807.8</ele>
        <time>2016-07-31T11:12:28Z</time>
      </trkpt>
      <trkpt lat="42.41975" lon="0.06475">
        <ele>809.2</ele>
        <time>2016-07-31T11:12:30Z</time>
      </trkpt>
      <trkpt lat="42.41981" lon="0.06474">
        <ele>809.9</ele>
        <time>2016-07-31T11:12:32Z</time>
      </trkpt>
      <trkpt lat="42.41986" lon="0.06474">
        <ele>810</ele>
        <time>2016-07-31T11:12:34Z</time>
      </trkpt>
      <trkpt lat="42.41989" lon="0.06475">
        <ele>810.1</ele>
        <time>2016-07-31T11:12:35Z</time>
      </trkpt>
      <trkpt lat="42.41992" lon="0.06476">
        <ele>810.1</ele>
        <time>2016-07-31T11:12:36Z</time>
      </trkpt>
      <trkpt lat="42.41997" lon="0.06476">
        <ele>810.4</ele>
        <time>2016-07-31T11:12:38Z</time>
      </trkpt>
      <trkpt lat="42.42" lon="0.06477">
        <ele>810.5</ele>
        <time>2016-07-31T11:12:39Z</time>
      </trkpt>
      <trkpt lat="42.42003" lon="0.06477">
        <ele>810.7</ele>
        <time>2016-07-31T11:12:40Z</time>
      </trkpt>
      <trkpt lat="42.42009" lon="0.06478">
        <ele>810.7</ele>
        <time>2016-07-31T11:12:42Z</time>
      </trkpt>
      <trkpt lat="42.42012" lon="0.0648">
        <ele>810.6</ele>
        <time>2016-07-31T11:12:43Z</time>
      </trkpt>
      <trkpt lat="42.42016" lon="0.06482">
        <ele>810.4</ele>
        <time>2016-07-31T11:12:44Z</time>
      </trkpt>
      <trkpt lat="42.42019" lon="0.06483">
        <ele>810.2</ele>
        <time>2016-07-31T11:12:45Z</time>
      </trkpt>
      <trkpt lat="42.42022" lon="0.06485">
        <ele>810</ele>
        <time>2016-07-31T11:12:46Z</time>
      </trkpt>
      <trkpt lat="42.42025" lon="0.06487">
        <ele>809.7</ele>
        <time>2016-07-31T11:12:47Z</time>
      </trkpt>
      <trkpt lat="42.42027" lon="0.06489">
        <ele>809.3</ele>
        <time>2016-07-31T11:12:48Z</time>
      </trkpt>
      <trkpt lat="42.4203" lon="0.06492">
        <ele>809</ele>
        <time>2016-07-31T11:12:49Z</time>
      </trkpt>
      <trkpt lat="42.42033" lon="0.06494">
        <ele>808.7</ele>
        <time>2016-07-31T11:12:50Z</time>
      </trkpt>
      <trkpt lat="42.42035" lon="0.06495">
        <ele>808.5</ele>
        <time>2016-07-31T11:12:51Z</time>
      </trkpt>
      <trkpt lat="42.42038" lon="0.06498">
        <ele>808.3</ele>
        <time>2016-07-31T11:12:52Z</time>
      </trkpt>
      <trkpt lat="42.42041" lon="0.065">
        <ele>808</ele>
        <time>2016-07-31T11:12:53Z</time>
      </trkpt>
      <trkpt lat="42.42044" lon="0.06502">
        <ele>807.8</ele>
        <time>2016-07-31T11:12:54Z</time>
      </trkpt>
      <trkpt lat="42.42047" lon="0.06504">
        <ele>807.7</ele>
        <time>2016-07-31T11:12:55Z</time>
      </trkpt>
      <trkpt lat="42.42052" lon="0.06506">
        <ele>807.8</ele>
        <time>2016-07-31T11:12:57Z</time>
      </trkpt>
      <trkpt lat="42.42056" lon="0.06508">
        <ele>808</ele>
        <time>2016-07-31T11:12:58Z</time>
      </trkpt>
      <trkpt lat="42.42059" lon="0.06509">
        <ele>808.1</ele>
        <time>2016-07-31T11:12:59Z</time>
      </trkpt>
      <trkpt lat="42.42062" lon="0.0651">
        <ele>808.2</ele>
        <time>2016-07-31T11:13:00Z</time>
      </trkpt>
      <trkpt lat="42.42065" lon="0.06512">
        <ele>808</ele>
        <time>2016-07-31T11:13:01Z</time>
      </trkpt>
      <trkpt lat="42.42067" lon="0.06515">
        <ele>807.7</ele>
        <time>2016-07-31T11:13:02Z</time>
      </trkpt>
      <trkpt lat="42.4207" lon="0.06518">
        <ele>807.3</ele>
        <time>2016-07-31T11:13:03Z</time>
      </trkpt>
      <trkpt lat="42.42072" lon="0.06521">
        <ele>806.8</ele>
        <time>2016-07-31T11:13:04Z</time>
      </trkpt>
      <trkpt lat="42.42074" lon="0.06524">
        <ele>806.5</ele>
        <time>2016-07-31T11:13:05Z</time>
      </trkpt>
      <trkpt lat="42.42076" lon="0.06527">
        <ele>806.1</ele>
        <time>2016-07-31T11:13:07Z</time>
      </trkpt>
      <trkpt lat="42.42081" lon="0.06527">
        <ele>806.5</ele>
        <time>2016-07-31T11:13:09Z</time>
      </trkpt>
      <trkpt lat="42.42084" lon="0.06528">
        <ele>806.9</ele>
        <time>2016-07-31T11:13:10Z</time>
      </trkpt>
      <trkpt lat="42.42087" lon="0.06529">
        <ele>807</ele>
        <time>2016-07-31T11:13:11Z</time>
      </trkpt>
      <trkpt lat="42.4209" lon="0.06532">
        <ele>806.8</ele>
        <time>2016-07-31T11:13:12Z</time>
      </trkpt>
      <trkpt lat="42.42094" lon="0.06535">
        <ele>806.4</ele>
        <time>2016-07-31T11:13:13Z</time>
      </trkpt>
      <trkpt lat="42.42098" lon="0.0654">
        <ele>805.9</ele>
        <time>2016-07-31T11:13:14Z</time>
      </trkpt>
      <trkpt lat="42.42101" lon="0.06543">
        <ele>805.4</ele>
        <time>2016-07-31T11:13:15Z</time>
      </trkpt>
      <trkpt lat="42.42103" lon="0.06546">
        <ele>804.9</ele>
        <time>2016-07-31T11:13:16Z</time>
      </trkpt>
      <trkpt lat="42.42106" lon="0.06547">
        <ele>804.8</ele>
        <time>2016-07-31T11:13:17Z</time>
      </trkpt>
      <trkpt lat="42.4211" lon="0.06549">
        <ele>804.7</ele>
        <time>2016-07-31T11:13:18Z</time>
      </trkpt>
      <trkpt lat="42.42113" lon="0.06552">
        <ele>804.4</ele>
        <time>2016-07-31T11:13:19Z</time>
      </trkpt>
      <trkpt lat="42.42117" lon="0.06555">
        <ele>803.8</ele>
        <time>2016-07-31T11:13:20Z</time>
      </trkpt>
      <trkpt lat="42.42121" lon="0.06559">
        <ele>803.2</ele>
        <time>2016-07-31T11:13:21Z</time>
      </trkpt>
      <trkpt lat="42.42124" lon="0.06563">
        <ele>802.6</ele>
        <time>2016-07-31T11:13:22Z</time>
      </trkpt>
      <trkpt lat="42.42127" lon="0.06565">
        <ele>802.3</ele>
        <time>2016-07-31T11:13:23Z</time>
      </trkpt>
      <trkpt lat="42.42131" lon="0.06567">
        <ele>802.3</ele>
        <time>2016-07-31T11:13:24Z</time>
      </trkpt>
      <trkpt lat="42.42133" lon="0.06569">
        <ele>802</ele>
        <time>2016-07-31T11:13:25Z</time>
      </trkpt>
      <trkpt lat="42.42137" lon="0.06575">
        <ele>801</ele>
        <time>2016-07-31T11:13:27Z</time>
      </trkpt>
      <trkpt lat="42.42141" lon="0.06577">
        <ele>800.8</ele>
        <time>2016-07-31T11:13:28Z</time>
      </trkpt>
      <trkpt lat="42.42145" lon="0.06579">
        <ele>800.9</ele>
        <time>2016-07-31T11:13:29Z</time>
      </trkpt>
      <trkpt lat="42.42149" lon="0.0658">
        <ele>801.2</ele>
        <time>2016-07-31T11:13:30Z</time>
      </trkpt>
      <trkpt lat="42.42154" lon="0.06581">
        <ele>801.7</ele>
        <time>2016-07-31T11:13:31Z</time>
      </trkpt>
      <trkpt lat="42.42159" lon="0.06582">
        <ele>802.1</ele>
        <time>2016-07-31T11:13:32Z</time>
      </trkpt>
      <trkpt lat="42.42164" lon="0.06583">
        <ele>802.3</ele>
        <time>2016-07-31T11:13:33Z</time>
      </trkpt>
      <trkpt lat="42.42168" lon="0.06586">
        <ele>802.2</ele>
        <time>2016-07-31T11:13:34Z</time>
      </trkpt>
      <trkpt lat="42.42172" lon="0.06588">
        <ele>802.2</ele>
        <time>2016-07-31T11:13:35Z</time>
      </trkpt>
      <trkpt lat="42.42176" lon="0.06589">
        <ele>802.3</ele>
        <time>2016-07-31T11:13:36Z</time>
      </trkpt>
      <trkpt lat="42.4218" lon="0.0659">
        <ele>802.6</ele>
        <time>2016-07-31T11:13:37Z</time>
      </trkpt>
      <trkpt lat="42.42183" lon="0.06591">
        <ele>802.8</ele>
        <time>2016-07-31T11:13:38Z</time>
      </trkpt>
      <trkpt lat="42.42186" lon="0.06591">
        <ele>803.1</ele>
        <time>2016-07-31T11:13:39Z</time>
      </trkpt>
      <trkpt lat="42.42191" lon="0.06592">
        <ele>803.4</ele>
        <time>2016-07-31T11:13:40Z</time>
      </trkpt>
      <trkpt lat="42.42195" lon="0.06592">
        <ele>804.1</ele>
        <time>2016-07-31T11:13:41Z</time>
      </trkpt>
      <trkpt lat="42.422" lon="0.06592">
        <ele>805</ele>
        <time>2016-07-31T11:13:42Z</time>
      </trkpt>
      <trkpt lat="42.42204" lon="0.06591">
        <ele>805.8</ele>
        <time>2016-07-31T11:13:43Z</time>
      </trkpt>
      <trkpt lat="42.42209" lon="0.06591">
        <ele>806.6</ele>
        <time>2016-07-31T11:13:44Z</time>
      </trkpt>
      <trkpt lat="42.42214" lon="0.06591">
        <ele>806.7</ele>
        <time>2016-07-31T11:13:45Z</time>
      </trkpt>
      <trkpt lat="42.42219" lon="0.06592">
        <ele>806.8</ele>
        <time>2016-07-31T11:13:46Z</time>
      </trkpt>
      <trkpt lat="42.42224" lon="0.06592">
        <ele>806.7</ele>
        <time>2016-07-31T11:13:47Z</time>
      </trkpt>
      <trkpt lat="42.42229" lon="0.06593">
        <ele>806.8</ele>
        <time>2016-07-31T11:13:48Z</time>
      </trkpt>
      <trkpt lat="42.42233" lon="0.06593">
        <ele>807</ele>
        <time>2016-07-31T11:13:49Z</time>
      </trkpt>
      <trkpt lat="42.42236" lon="0.06593">
        <ele>807.2</ele>
        <time>2016-07-31T11:13:50Z</time>
      </trkpt>
      <trkpt lat="42.42241" lon="0.06594">
        <ele>807.2</ele>
        <time>2016-07-31T11:13:54Z</time>
      </trkpt>
      <trkpt lat="42.42244" lon="0.06594">
        <ele>807.2</ele>
        <time>2016-07-31T11:13:55Z</time>
      </trkpt>
      <trkpt lat="42.42247" lon="0.06595">
        <ele>807.2</ele>
        <time>2016-07-31T11:13:56Z</time>
      </trkpt>
      <trkpt lat="42.42251" lon="0.06595">
        <ele>807.2</ele>
        <time>2016-07-31T11:13:57Z</time>
      </trkpt>
      <trkpt lat="42.42254" lon="0.06595">
        <ele>807.4</ele>
        <time>2016-07-31T11:13:58Z</time>
      </trkpt>
      <trkpt lat="42.42258" lon="0.06596">
        <ele>807.5</ele>
        <time>2016-07-31T11:13:59Z</time>
      </trkpt>
      <trkpt lat="42.42262" lon="0.06596">
        <ele>807.5</ele>
        <time>2016-07-31T11:14:00Z</time>
      </trkpt>
      <trkpt lat="42.42267" lon="0.06597">
        <ele>807.6</ele>
        <time>2016-07-31T11:14:01Z</time>
      </trkpt>
      <trkpt lat="42.42273" lon="0.06597">
        <ele>807.7</ele>
        <time>2016-07-31T11:14:02Z</time>
      </trkpt>
      <trkpt lat="42.42278" lon="0.06599">
        <ele>807.5</ele>
        <time>2016-07-31T11:14:03Z</time>
      </trkpt>
      <trkpt lat="42.42284" lon="0.066">
        <ele>807.4</ele>
        <time>2016-07-31T11:14:04Z</time>
      </trkpt>
      <trkpt lat="42.4229" lon="0.06602">
        <ele>807</ele>
        <time>2016-07-31T11:14:05Z</time>
      </trkpt>
      <trkpt lat="42.42295" lon="0.06605">
        <ele>806.6</ele>
        <time>2016-07-31T11:14:06Z</time>
      </trkpt>
      <trkpt lat="42.423" lon="0.06608">
        <ele>806.3</ele>
        <time>2016-07-31T11:14:07Z</time>
      </trkpt>
      <trkpt lat="42.42304" lon="0.06611">
        <ele>805.9</ele>
        <time>2016-07-31T11:14:08Z</time>
      </trkpt>
      <trkpt lat="42.42307" lon="0.06613">
        <ele>805.5</ele>
        <time>2016-07-31T11:14:09Z</time>
      </trkpt>
      <trkpt lat="42.42311" lon="0.06617">
        <ele>805</ele>
        <time>2016-07-31T11:14:10Z</time>
      </trkpt>
      <trkpt lat="42.42316" lon="0.0662">
        <ele>804.4</ele>
        <time>2016-07-31T11:14:11Z</time>
      </trkpt>
      <trkpt lat="42.42319" lon="0.06625">
        <ele>803.5</ele>
        <time>2016-07-31T11:14:12Z</time>
      </trkpt>
      <trkpt lat="42.42323" lon="0.0663">
        <ele>802.6</ele>
        <time>2016-07-31T11:14:13Z</time>
      </trkpt>
      <trkpt lat="42.42326" lon="0.06635">
        <ele>801.6</ele>
        <time>2016-07-31T11:14:14Z</time>
      </trkpt>
      <trkpt lat="42.42328" lon="0.06641">
        <ele>800.6</ele>
        <time>2016-07-31T11:14:15Z</time>
      </trkpt>
      <trkpt lat="42.4233" lon="0.06646">
        <ele>799.5</ele>
        <time>2016-07-31T11:14:16Z</time>
      </trkpt>
      <trkpt lat="42.42331" lon="0.06651">
        <ele>798.4</ele>
        <time>2016-07-31T11:14:17Z</time>
      </trkpt>
      <trkpt lat="42.42333" lon="0.06655">
        <ele>797.6</ele>
        <time>2016-07-31T11:14:18Z</time>
      </trkpt>
      <trkpt lat="42.42336" lon="0.06658">
        <ele>797.2</ele>
        <time>2016-07-31T11:14:19Z</time>
      </trkpt>
      <trkpt lat="42.4234" lon="0.06661">
        <ele>797</ele>
        <time>2016-07-31T11:14:20Z</time>
      </trkpt>
      <trkpt lat="42.42345" lon="0.06663">
        <ele>797</ele>
        <time>2016-07-31T11:14:21Z</time>
      </trkpt>
      <trkpt lat="42.42349" lon="0.06664">
        <ele>797</ele>
        <time>2016-07-31T11:14:22Z</time>
      </trkpt>
      <trkpt lat="42.42354" lon="0.06666">
        <ele>797</ele>
        <time>2016-07-31T11:14:23Z</time>
      </trkpt>
      <trkpt lat="42.42359" lon="0.06668">
        <ele>796.9</ele>
        <time>2016-07-31T11:14:24Z</time>
      </trkpt>
      <trkpt lat="42.42365" lon="0.06671">
        <ele>796.9</ele>
        <time>2016-07-31T11:14:25Z</time>
      </trkpt>
      <trkpt lat="42.42371" lon="0.06673">
        <ele>796.9</ele>
        <time>2016-07-31T11:14:26Z</time>
      </trkpt>
      <trkpt lat="42.42378" lon="0.06676">
        <ele>797</ele>
        <time>2016-07-31T11:14:27Z</time>
      </trkpt>
      <trkpt lat="42.42384" lon="0.06678">
        <ele>797.3</ele>
        <time>2016-07-31T11:14:28Z</time>
      </trkpt>
      <trkpt lat="42.42389" lon="0.06679">
        <ele>797.6</ele>
        <time>2016-07-31T11:14:29Z</time>
      </trkpt>
      <trkpt lat="42.42393" lon="0.06681">
        <ele>797.7</ele>
        <time>2016-07-31T11:14:30Z</time>
      </trkpt>
      <trkpt lat="42.42398" lon="0.06683">
        <ele>797.7</ele>
        <time>2016-07-31T11:14:31Z</time>
      </trkpt>
      <trkpt lat="42.42401" lon="0.06686">
        <ele>797.4</ele>
        <time>2016-07-31T11:14:32Z</time>
      </trkpt>
      <trkpt lat="42.42405" lon="0.06689">
        <ele>797.1</ele>
        <time>2016-07-31T11:14:33Z</time>
      </trkpt>
      <trkpt lat="42.42408" lon="0.06693">
        <ele>796.6</ele>
        <time>2016-07-31T11:14:34Z</time>
      </trkpt>
      <trkpt lat="42.42411" lon="0.06696">
        <ele>796</ele>
        <time>2016-07-31T11:14:35Z</time>
      </trkpt>
      <trkpt lat="42.42414" lon="0.067">
        <ele>795.4</ele>
        <time>2016-07-31T11:14:36Z</time>
      </trkpt>
      <trkpt lat="42.42417" lon="0.06704">
        <ele>794.8</ele>
        <time>2016-07-31T11:14:37Z</time>
      </trkpt>
      <trkpt lat="42.42419" lon="0.06706">
        <ele>794.3</ele>
        <time>2016-07-31T11:14:38Z</time>
      </trkpt>
      <trkpt lat="42.42421" lon="0.06709">
        <ele>793.8</ele>
        <time>2016-07-31T11:14:39Z</time>
      </trkpt>
      <trkpt lat="42.42423" lon="0.06713">
        <ele>793.2</ele>
        <time>2016-07-31T11:14:40Z</time>
      </trkpt>
      <trkpt lat="42.42425" lon="0.06718">
        <ele>792.3</ele>
        <time>2016-07-31T11:14:41Z</time>
      </trkpt>
      <trkpt lat="42.42427" lon="0.06723">
        <ele>791.3</ele>
        <time>2016-07-31T11:14:42Z</time>
      </trkpt>
      <trkpt lat="42.4243" lon="0.06728">
        <ele>790.5</ele>
        <time>2016-07-31T11:14:43Z</time>
      </trkpt>
      <trkpt lat="42.42433" lon="0.06732">
        <ele>790</ele>
        <time>2016-07-31T11:14:44Z</time>
      </trkpt>
      <trkpt lat="42.42436" lon="0.06734">
        <ele>789.8</ele>
        <time>2016-07-31T11:14:45Z</time>
      </trkpt>
      <trkpt lat="42.42439" lon="0.06737">
        <ele>789.5</ele>
        <time>2016-07-31T11:14:47Z</time>
      </trkpt>
      <trkpt lat="42.42441" lon="0.06742">
        <ele>788.5</ele>
        <time>2016-07-31T11:14:49Z</time>
      </trkpt>
      <trkpt lat="42.42437" lon="0.06746">
        <ele>787.1</ele>
        <time>2016-07-31T11:14:51Z</time>
      </trkpt>
      <trkpt lat="42.42433" lon="0.06747">
        <ele>786.2</ele>
        <time>2016-07-31T11:14:52Z</time>
      </trkpt>
      <trkpt lat="42.4243" lon="0.06747">
        <ele>785.7</ele>
        <time>2016-07-31T11:14:54Z</time>
      </trkpt>
      <trkpt lat="42.42431" lon="0.06753">
        <ele>784.5</ele>
        <time>2016-07-31T11:14:58Z</time>
      </trkpt>
      <trkpt lat="42.42433" lon="0.06757">
        <ele>783.8</ele>
        <time>2016-07-31T11:14:59Z</time>
      </trkpt>
      <trkpt lat="42.42435" lon="0.06761">
        <ele>783</ele>
        <time>2016-07-31T11:15:00Z</time>
      </trkpt>
      <trkpt lat="42.42436" lon="0.06766">
        <ele>782.2</ele>
        <time>2016-07-31T11:15:01Z</time>
      </trkpt>
      <trkpt lat="42.42438" lon="0.06769">
        <ele>781.7</ele>
        <time>2016-07-31T11:15:02Z</time>
      </trkpt>
      <trkpt lat="42.42442" lon="0.06771">
        <ele>781.6</ele>
        <time>2016-07-31T11:15:04Z</time>
      </trkpt>
      <trkpt lat="42.42444" lon="0.06775">
        <ele>781</ele>
        <time>2016-07-31T11:15:06Z</time>
      </trkpt>
      <trkpt lat="42.42441" lon="0.06779">
        <ele>779.5</ele>
        <time>2016-07-31T11:15:08Z</time>
      </trkpt>
      <trkpt lat="42.42438" lon="0.06781">
        <ele>778.7</ele>
        <time>2016-07-31T11:15:09Z</time>
      </trkpt>
      <trkpt lat="42.42435" lon="0.06783">
        <ele>777.8</ele>
        <time>2016-07-31T11:15:10Z</time>
      </trkpt>
      <trkpt lat="42.42432" lon="0.06783">
        <ele>777.3</ele>
        <time>2016-07-31T11:15:11Z</time>
      </trkpt>
      <trkpt lat="42.42428" lon="0.06782">
        <ele>777</ele>
        <time>2016-07-31T11:15:12Z</time>
      </trkpt>
      <trkpt lat="42.42425" lon="0.06781">
        <ele>776.9</ele>
        <time>2016-07-31T11:15:13Z</time>
      </trkpt>
      <trkpt lat="42.42422" lon="0.06779">
        <ele>777</ele>
        <time>2016-07-31T11:15:14Z</time>
      </trkpt>
      <trkpt lat="42.42419" lon="0.06778">
        <ele>776.8</ele>
        <time>2016-07-31T11:15:15Z</time>
      </trkpt>
      <trkpt lat="42.42416" lon="0.06782">
        <ele>775.4</ele>
        <time>2016-07-31T11:15:17Z</time>
      </trkpt>
      <trkpt lat="42.42416" lon="0.06786">
        <ele>774.3</ele>
        <time>2016-07-31T11:15:18Z</time>
      </trkpt>
      <trkpt lat="42.42417" lon="0.0679">
        <ele>773.3</ele>
        <time>2016-07-31T11:15:19Z</time>
      </trkpt>
      <trkpt lat="42.42418" lon="0.06794">
        <ele>772.7</ele>
        <time>2016-07-31T11:15:20Z</time>
      </trkpt>
      <trkpt lat="42.42421" lon="0.06799">
        <ele>772.3</ele>
        <time>2016-07-31T11:15:22Z</time>
      </trkpt>
      <trkpt lat="42.42424" lon="0.06801">
        <ele>772.5</ele>
        <time>2016-07-31T11:15:23Z</time>
      </trkpt>
      <trkpt lat="42.42428" lon="0.06802">
        <ele>772.9</ele>
        <time>2016-07-31T11:15:24Z</time>
      </trkpt>
      <trkpt lat="42.42433" lon="0.06803">
        <ele>773.2</ele>
        <time>2016-07-31T11:15:25Z</time>
      </trkpt>
      <trkpt lat="42.42437" lon="0.06805">
        <ele>773.4</ele>
        <time>2016-07-31T11:15:26Z</time>
      </trkpt>
      <trkpt lat="42.4244" lon="0.06807">
        <ele>773.5</ele>
        <time>2016-07-31T11:15:27Z</time>
      </trkpt>
      <trkpt lat="42.42442" lon="0.06809">
        <ele>773.4</ele>
        <time>2016-07-31T11:15:28Z</time>
      </trkpt>
      <trkpt lat="42.42441" lon="0.06813">
        <ele>772.4</ele>
        <time>2016-07-31T11:15:32Z</time>
      </trkpt>
      <trkpt lat="42.42438" lon="0.06816">
        <ele>771.5</ele>
        <time>2016-07-31T11:15:34Z</time>
      </trkpt>
      <trkpt lat="42.42437" lon="0.06819">
        <ele>770.7</ele>
        <time>2016-07-31T11:15:36Z</time>
      </trkpt>
      <trkpt lat="42.4244" lon="0.06823">
        <ele>770.6</ele>
        <time>2016-07-31T11:15:40Z</time>
      </trkpt>
      <trkpt lat="42.42445" lon="0.06824">
        <ele>770.9</ele>
        <time>2016-07-31T11:15:42Z</time>
      </trkpt>
      <trkpt lat="42.42448" lon="0.06825">
        <ele>771.2</ele>
        <time>2016-07-31T11:15:43Z</time>
      </trkpt>
      <trkpt lat="42.42451" lon="0.06825">
        <ele>771.5</ele>
        <time>2016-07-31T11:15:44Z</time>
      </trkpt>
      <trkpt lat="42.42454" lon="0.06826">
        <ele>771.9</ele>
        <time>2016-07-31T11:15:45Z</time>
      </trkpt>
      <trkpt lat="42.42458" lon="0.06826">
        <ele>772.3</ele>
        <time>2016-07-31T11:15:46Z</time>
      </trkpt>
      <trkpt lat="42.42461" lon="0.06827">
        <ele>772</ele>
        <time>2016-07-31T11:15:47Z</time>
      </trkpt>
      <trkpt lat="42.42465" lon="0.06829">
        <ele>771.3</ele>
        <time>2016-07-31T11:15:48Z</time>
      </trkpt>
      <trkpt lat="42.42468" lon="0.06831">
        <ele>770.7</ele>
        <time>2016-07-31T11:15:49Z</time>
      </trkpt>
      <trkpt lat="42.42472" lon="0.06834">
        <ele>769.9</ele>
        <time>2016-07-31T11:15:51Z</time>
      </trkpt>
      <trkpt lat="42.42476" lon="0.06835">
        <ele>769.4</ele>
        <time>2016-07-31T11:15:53Z</time>
      </trkpt>
      <trkpt lat="42.42478" lon="0.06836">
        <ele>769</ele>
        <time>2016-07-31T11:15:55Z</time>
      </trkpt>
      <trkpt lat="42.4248" lon="0.0684">
        <ele>768</ele>
        <time>2016-07-31T11:15:57Z</time>
      </trkpt>
      <trkpt lat="42.42478" lon="0.06845">
        <ele>767.1</ele>
        <time>2016-07-31T11:15:59Z</time>
      </trkpt>
      <trkpt lat="42.42475" lon="0.06848">
        <ele>766.6</ele>
        <time>2016-07-31T11:16:00Z</time>
      </trkpt>
      <trkpt lat="42.42473" lon="0.06851">
        <ele>766.3</ele>
        <time>2016-07-31T11:16:01Z</time>
      </trkpt>
      <trkpt lat="42.42471" lon="0.06854">
        <ele>765.9</ele>
        <time>2016-07-31T11:16:02Z</time>
      </trkpt>
      <trkpt lat="42.42467" lon="0.06858">
        <ele>765.4</ele>
        <time>2016-07-31T11:16:03Z</time>
      </trkpt>
      <trkpt lat="42.42464" lon="0.06861">
        <ele>765</ele>
        <time>2016-07-31T11:16:04Z</time>
      </trkpt>
      <trkpt lat="42.42462" lon="0.06864">
        <ele>764.7</ele>
        <time>2016-07-31T11:16:05Z</time>
      </trkpt>
      <trkpt lat="42.42463" lon="0.06869">
        <ele>763.7</ele>
        <time>2016-07-31T11:16:08Z</time>
      </trkpt>
      <trkpt lat="42.42467" lon="0.06871">
        <ele>762.7</ele>
        <time>2016-07-31T11:16:10Z</time>
      </trkpt>
      <trkpt lat="42.4247" lon="0.06872">
        <ele>762.3</ele>
        <time>2016-07-31T11:16:11Z</time>
      </trkpt>
      <trkpt lat="42.42474" lon="0.06872">
        <ele>761.8</ele>
        <time>2016-07-31T11:16:13Z</time>
      </trkpt>
      <trkpt lat="42.42475" lon="0.06877">
        <ele>760.7</ele>
        <time>2016-07-31T11:16:16Z</time>
      </trkpt>
      <trkpt lat="42.42477" lon="0.06881">
        <ele>760.2</ele>
        <time>2016-07-31T11:16:18Z</time>
      </trkpt>
      <trkpt lat="42.42481" lon="0.06882">
        <ele>759.5</ele>
        <time>2016-07-31T11:16:20Z</time>
      </trkpt>
      <trkpt lat="42.42484" lon="0.06883">
        <ele>759.1</ele>
        <time>2016-07-31T11:16:21Z</time>
      </trkpt>
      <trkpt lat="42.42488" lon="0.06885">
        <ele>758.2</ele>
        <time>2016-07-31T11:16:23Z</time>
      </trkpt>
      <trkpt lat="42.42492" lon="0.06889">
        <ele>757.3</ele>
        <time>2016-07-31T11:16:25Z</time>
      </trkpt>
      <trkpt lat="42.42494" lon="0.0689">
        <ele>756.7</ele>
        <time>2016-07-31T11:16:26Z</time>
      </trkpt>
      <trkpt lat="42.42499" lon="0.06891">
        <ele>756</ele>
        <time>2016-07-31T11:16:28Z</time>
      </trkpt>
      <trkpt lat="42.42501" lon="0.06892">
        <ele>755.3</ele>
        <time>2016-07-31T11:16:31Z</time>
      </trkpt>
      <trkpt lat="42.42501" lon="0.06898">
        <ele>754.6</ele>
        <time>2016-07-31T11:16:33Z</time>
      </trkpt>
      <trkpt lat="42.42499" lon="0.06904">
        <ele>754</ele>
        <time>2016-07-31T11:16:35Z</time>
      </trkpt>
      <trkpt lat="42.42498" lon="0.06907">
        <ele>753.8</ele>
        <time>2016-07-31T11:16:36Z</time>
      </trkpt>
      <trkpt lat="42.42496" lon="0.06913">
        <ele>753.3</ele>
        <time>2016-07-31T11:16:38Z</time>
      </trkpt>
      <trkpt lat="42.42496" lon="0.06917">
        <ele>752.7</ele>
        <time>2016-07-31T11:16:47Z</time>
      </trkpt>
      <trkpt lat="42.425" lon="0.06915">
        <ele>752.4</ele>
        <time>2016-07-31T11:16:51Z</time>
      </trkpt>
      <trkpt lat="42.42503" lon="0.06912">
        <ele>752.1</ele>
        <time>2016-07-31T11:16:53Z</time>
      </trkpt>
      <trkpt lat="42.42506" lon="0.0691">
        <ele>751.8</ele>
        <time>2016-07-31T11:16:54Z</time>
      </trkpt>
      <trkpt lat="42.4251" lon="0.06907">
        <ele>751.5</ele>
        <time>2016-07-31T11:16:55Z</time>
      </trkpt>
      <trkpt lat="42.42513" lon="0.06905">
        <ele>751.4</ele>
        <time>2016-07-31T11:16:56Z</time>
      </trkpt>
      <trkpt lat="42.42516" lon="0.06903">
        <ele>751.2</ele>
        <time>2016-07-31T11:16:57Z</time>
      </trkpt>
      <trkpt lat="42.42519" lon="0.06901">
        <ele>751</ele>
        <time>2016-07-31T11:16:58Z</time>
      </trkpt>
      <trkpt lat="42.42523" lon="0.06899">
        <ele>750.7</ele>
        <time>2016-07-31T11:17:00Z</time>
      </trkpt>
      <trkpt lat="42.42526" lon="0.06897">
        <ele>750.5</ele>
        <time>2016-07-31T11:17:02Z</time>
      </trkpt>
      <trkpt lat="42.42529" lon="0.06895">
        <ele>750.6</ele>
        <time>2016-07-31T11:17:04Z</time>
      </trkpt>
      <trkpt lat="42.42533" lon="0.06891">
        <ele>750.7</ele>
        <time>2016-07-31T11:17:06Z</time>
      </trkpt>
      <trkpt lat="42.42537" lon="0.06887">
        <ele>750.9</ele>
        <time>2016-07-31T11:17:08Z</time>
      </trkpt>
      <trkpt lat="42.42541" lon="0.06883">
        <ele>751.3</ele>
        <time>2016-07-31T11:17:10Z</time>
      </trkpt>
      <trkpt lat="42.42544" lon="0.06881">
        <ele>750.7</ele>
        <time>2016-07-31T11:17:11Z</time>
      </trkpt>
      <trkpt lat="42.42547" lon="0.06879">
        <ele>749.6</ele>
        <time>2016-07-31T11:17:12Z</time>
      </trkpt>
      <trkpt lat="42.42551" lon="0.06876">
        <ele>748.4</ele>
        <time>2016-07-31T11:17:13Z</time>
      </trkpt>
      <trkpt lat="42.42555" lon="0.06873">
        <ele>747.4</ele>
        <time>2016-07-31T11:17:14Z</time>
      </trkpt>
      <trkpt lat="42.4256" lon="0.0687">
        <ele>746.1</ele>
        <time>2016-07-31T11:17:15Z</time>
      </trkpt>
      <trkpt lat="42.42564" lon="0.06867">
        <ele>745.1</ele>
        <time>2016-07-31T11:17:16Z</time>
      </trkpt>
      <trkpt lat="42.42568" lon="0.06865">
        <ele>744.2</ele>
        <time>2016-07-31T11:17:17Z</time>
      </trkpt>
      <trkpt lat="42.42571" lon="0.06863">
        <ele>743.4</ele>
        <time>2016-07-31T11:17:18Z</time>
      </trkpt>
      <trkpt lat="42.42574" lon="0.06861">
        <ele>742.5</ele>
        <time>2016-07-31T11:17:19Z</time>
      </trkpt>
      <trkpt lat="42.42578" lon="0.06858">
        <ele>741.8</ele>
        <time>2016-07-31T11:17:20Z</time>
      </trkpt>
      <trkpt lat="42.42582" lon="0.06855">
        <ele>741.1</ele>
        <time>2016-07-31T11:17:21Z</time>
      </trkpt>
      <trkpt lat="42.42586" lon="0.06851">
        <ele>740.6</ele>
        <time>2016-07-31T11:17:22Z</time>
      </trkpt>
      <trkpt lat="42.42589" lon="0.06847">
        <ele>740.3</ele>
        <time>2016-07-31T11:17:23Z</time>
      </trkpt>
      <trkpt lat="42.4259" lon="0.06844">
        <ele>741</ele>
        <time>2016-07-31T11:17:30Z</time>
      </trkpt>
      <trkpt lat="42.42593" lon="0.06843">
        <ele>740</ele>
        <time>2016-07-31T11:17:33Z</time>
      </trkpt>
      <trkpt lat="42.42596" lon="0.0684">
        <ele>739.4</ele>
        <time>2016-07-31T11:17:36Z</time>
      </trkpt>
      <trkpt lat="42.42599" lon="0.06837">
        <ele>739.1</ele>
        <time>2016-07-31T11:17:40Z</time>
      </trkpt>
      <trkpt lat="42.426" lon="0.06834">
        <ele>739.6</ele>
        <time>2016-07-31T11:17:44Z</time>
      </trkpt>
      <trkpt lat="42.42603" lon="0.06831">
        <ele>739.6</ele>
        <time>2016-07-31T11:17:47Z</time>
      </trkpt>
      <trkpt lat="42.42605" lon="0.06831">
        <ele>738.2</ele>
        <time>2016-07-31T11:17:51Z</time>
      </trkpt>
      <trkpt lat="42.42609" lon="0.06832">
        <ele>736.1</ele>
        <time>2016-07-31T11:17:54Z</time>
      </trkpt>
      <trkpt lat="42.42614" lon="0.06832">
        <ele>734.2</ele>
        <time>2016-07-31T11:17:56Z</time>
      </trkpt>
      <trkpt lat="42.42618" lon="0.0683">
        <ele>733</ele>
        <time>2016-07-31T11:17:58Z</time>
      </trkpt>
      <trkpt lat="42.42623" lon="0.06829">
        <ele>731.6</ele>
        <time>2016-07-31T11:18:00Z</time>
      </trkpt>
      <trkpt lat="42.42626" lon="0.06827">
        <ele>730.5</ele>
        <time>2016-07-31T11:18:02Z</time>
      </trkpt>
      <trkpt lat="42.42629" lon="0.06825">
        <ele>730</ele>
        <time>2016-07-31T11:18:04Z</time>
      </trkpt>
      <trkpt lat="42.42632" lon="0.06822">
        <ele>729.9</ele>
        <time>2016-07-31T11:18:06Z</time>
      </trkpt>
      <trkpt lat="42.42635" lon="0.06818">
        <ele>729.6</ele>
        <time>2016-07-31T11:18:08Z</time>
      </trkpt>
      <trkpt lat="42.42638" lon="0.06816">
        <ele>728.7</ele>
        <time>2016-07-31T11:18:09Z</time>
      </trkpt>
      <trkpt lat="42.42642" lon="0.06814">
        <ele>727.6</ele>
        <time>2016-07-31T11:18:10Z</time>
      </trkpt>
      <trkpt lat="42.42646" lon="0.06811">
        <ele>726.7</ele>
        <time>2016-07-31T11:18:11Z</time>
      </trkpt>
      <trkpt lat="42.4265" lon="0.06806">
        <ele>726.3</ele>
        <time>2016-07-31T11:18:12Z</time>
      </trkpt>
      <trkpt lat="42.42653" lon="0.06802">
        <ele>726.1</ele>
        <time>2016-07-31T11:18:13Z</time>
      </trkpt>
      <trkpt lat="42.42655" lon="0.06799">
        <ele>726.1</ele>
        <time>2016-07-31T11:18:14Z</time>
      </trkpt>
      <trkpt lat="42.42657" lon="0.06796">
        <ele>725.9</ele>
        <time>2016-07-31T11:18:15Z</time>
      </trkpt>
      <trkpt lat="42.4266" lon="0.06792">
        <ele>725.6</ele>
        <time>2016-07-31T11:18:16Z</time>
      </trkpt>
      <trkpt lat="42.42663" lon="0.06789">
        <ele>725</ele>
        <time>2016-07-31T11:18:17Z</time>
      </trkpt>
      <trkpt lat="42.42665" lon="0.06784">
        <ele>724.8</ele>
        <time>2016-07-31T11:18:18Z</time>
      </trkpt>
      <trkpt lat="42.42667" lon="0.0678">
        <ele>725</ele>
        <time>2016-07-31T11:18:19Z</time>
      </trkpt>
      <trkpt lat="42.42667" lon="0.06776">
        <ele>725.8</ele>
        <time>2016-07-31T11:18:20Z</time>
      </trkpt>
      <trkpt lat="42.42667" lon="0.06772">
        <ele>726.6</ele>
        <time>2016-07-31T11:18:22Z</time>
      </trkpt>
      <trkpt lat="42.42672" lon="0.06769">
        <ele>725.1</ele>
        <time>2016-07-31T11:18:24Z</time>
      </trkpt>
      <trkpt lat="42.42677" lon="0.0677">
        <ele>722.4</ele>
        <time>2016-07-31T11:18:26Z</time>
      </trkpt>
      <trkpt lat="42.4268" lon="0.06771">
        <ele>720.6</ele>
        <time>2016-07-31T11:18:27Z</time>
      </trkpt>
      <trkpt lat="42.42682" lon="0.06773">
        <ele>719</ele>
        <time>2016-07-31T11:18:28Z</time>
      </trkpt>
      <trkpt lat="42.42684" lon="0.06776">
        <ele>717.2</ele>
        <time>2016-07-31T11:18:29Z</time>
      </trkpt>
      <trkpt lat="42.42688" lon="0.06777">
        <ele>715.1</ele>
        <time>2016-07-31T11:18:30Z</time>
      </trkpt>
      <trkpt lat="42.42692" lon="0.06779">
        <ele>712.7</ele>
        <time>2016-07-31T11:18:31Z</time>
      </trkpt>
      <trkpt lat="42.42696" lon="0.06779">
        <ele>710.7</ele>
        <time>2016-07-31T11:18:32Z</time>
      </trkpt>
      <trkpt lat="42.427" lon="0.06778">
        <ele>709.1</ele>
        <time>2016-07-31T11:18:33Z</time>
      </trkpt>
      <trkpt lat="42.42703" lon="0.06776">
        <ele>707.6</ele>
        <time>2016-07-31T11:18:34Z</time>
      </trkpt>
      <trkpt lat="42.42706" lon="0.06775">
        <ele>706.3</ele>
        <time>2016-07-31T11:18:35Z</time>
      </trkpt>
      <trkpt lat="42.42711" lon="0.06774">
        <ele>704.8</ele>
        <time>2016-07-31T11:18:37Z</time>
      </trkpt>
      <trkpt lat="42.42717" lon="0.06773">
        <ele>703.3</ele>
        <time>2016-07-31T11:18:39Z</time>
      </trkpt>
      <trkpt lat="42.4272" lon="0.06772">
        <ele>702.7</ele>
        <time>2016-07-31T11:18:40Z</time>
      </trkpt>
      <trkpt lat="42.42723" lon="0.06771">
        <ele>702.1</ele>
        <time>2016-07-31T11:18:41Z</time>
      </trkpt>
      <trkpt lat="42.42726" lon="0.0677">
        <ele>701.3</ele>
        <time>2016-07-31T11:18:42Z</time>
      </trkpt>
      <trkpt lat="42.4273" lon="0.06769">
        <ele>700.3</ele>
        <time>2016-07-31T11:18:44Z</time>
      </trkpt>
      <trkpt lat="42.42734" lon="0.06765">
        <ele>699.8</ele>
        <time>2016-07-31T11:18:46Z</time>
      </trkpt>
      <trkpt lat="42.42738" lon="0.06766">
        <ele>698.6</ele>
        <time>2016-07-31T11:18:49Z</time>
      </trkpt>
      <trkpt lat="42.42738" lon="0.06773">
        <ele>697.1</ele>
        <time>2016-07-31T11:18:51Z</time>
      </trkpt>
      <trkpt lat="42.42739" lon="0.06779">
        <ele>695.6</ele>
        <time>2016-07-31T11:18:53Z</time>
      </trkpt>
      <trkpt lat="42.4274" lon="0.06783">
        <ele>694.5</ele>
        <time>2016-07-31T11:18:55Z</time>
      </trkpt>
      <trkpt lat="42.42743" lon="0.06785">
        <ele>693.4</ele>
        <time>2016-07-31T11:18:58Z</time>
      </trkpt>
      <trkpt lat="42.42745" lon="0.06788">
        <ele>692.3</ele>
        <time>2016-07-31T11:19:00Z</time>
      </trkpt>
      <trkpt lat="42.42745" lon="0.06792">
        <ele>691.5</ele>
        <time>2016-07-31T11:19:03Z</time>
      </trkpt>
      <trkpt lat="42.42749" lon="0.06793">
        <ele>690</ele>
        <time>2016-07-31T11:19:06Z</time>
      </trkpt>
      <trkpt lat="42.42753" lon="0.06792">
        <ele>689.2</ele>
        <time>2016-07-31T11:19:07Z</time>
      </trkpt>
      <trkpt lat="42.42756" lon="0.0679">
        <ele>688.6</ele>
        <time>2016-07-31T11:19:08Z</time>
      </trkpt>
      <trkpt lat="42.42756" lon="0.06795">
        <ele>687.3</ele>
        <time>2016-07-31T11:19:14Z</time>
      </trkpt>
      <trkpt lat="42.42755" lon="0.06798">
        <ele>686.9</ele>
        <time>2016-07-31T11:19:15Z</time>
      </trkpt>
      <trkpt lat="42.42754" lon="0.06805">
        <ele>685.7</ele>
        <time>2016-07-31T11:19:17Z</time>
      </trkpt>
      <trkpt lat="42.42755" lon="0.06809">
        <ele>684.2</ele>
        <time>2016-07-31T11:19:19Z</time>
      </trkpt>
      <trkpt lat="42.42758" lon="0.06812">
        <ele>682.7</ele>
        <time>2016-07-31T11:19:21Z</time>
      </trkpt>
      <trkpt lat="42.42759" lon="0.06818">
        <ele>680.6</ele>
        <time>2016-07-31T11:19:23Z</time>
      </trkpt>
      <trkpt lat="42.4276" lon="0.06822">
        <ele>679.4</ele>
        <time>2016-07-31T11:19:24Z</time>
      </trkpt>
      <trkpt lat="42.4276" lon="0.06826">
        <ele>678.2</ele>
        <time>2016-07-31T11:19:25Z</time>
      </trkpt>
      <trkpt lat="42.42762" lon="0.06832">
        <ele>676.1</ele>
        <time>2016-07-31T11:19:27Z</time>
      </trkpt>
      <trkpt lat="42.42765" lon="0.06834">
        <ele>674.8</ele>
        <time>2016-07-31T11:19:28Z</time>
      </trkpt>
      <trkpt lat="42.42769" lon="0.06836">
        <ele>673.1</ele>
        <time>2016-07-31T11:19:30Z</time>
      </trkpt>
      <trkpt lat="42.42771" lon="0.06842">
        <ele>671.3</ele>
        <time>2016-07-31T11:19:32Z</time>
      </trkpt>
      <trkpt lat="42.42771" lon="0.06846">
        <ele>670</ele>
        <time>2016-07-31T11:19:34Z</time>
      </trkpt>
      <trkpt lat="42.42775" lon="0.06849">
        <ele>668.3</ele>
        <time>2016-07-31T11:19:36Z</time>
      </trkpt>
      <trkpt lat="42.42779" lon="0.06853">
        <ele>666.1</ele>
        <time>2016-07-31T11:19:38Z</time>
      </trkpt>
      <trkpt lat="42.42781" lon="0.06856">
        <ele>664.8</ele>
        <time>2016-07-31T11:19:39Z</time>
      </trkpt>
      <trkpt lat="42.42785" lon="0.06857">
        <ele>663.2</ele>
        <time>2016-07-31T11:19:41Z</time>
      </trkpt>
      <trkpt lat="42.4279" lon="0.06856">
        <ele>662.3</ele>
        <time>2016-07-31T11:19:43Z</time>
      </trkpt>
      <trkpt lat="42.42793" lon="0.06854">
        <ele>662.2</ele>
        <time>2016-07-31T11:19:44Z</time>
      </trkpt>
      <trkpt lat="42.42795" lon="0.06852">
        <ele>662.3</ele>
        <time>2016-07-31T11:19:50Z</time>
      </trkpt>
      <trkpt lat="42.42799" lon="0.06854">
        <ele>661.2</ele>
        <time>2016-07-31T11:19:53Z</time>
      </trkpt>
      <trkpt lat="42.42802" lon="0.06857">
        <ele>659.9</ele>
        <time>2016-07-31T11:19:57Z</time>
      </trkpt>
      <trkpt lat="42.42807" lon="0.06858">
        <ele>658.9</ele>
        <time>2016-07-31T11:19:59Z</time>
      </trkpt>
      <trkpt lat="42.42811" lon="0.06857">
        <ele>658.7</ele>
        <time>2016-07-31T11:20:00Z</time>
      </trkpt>
      <trkpt lat="42.42814" lon="0.06854">
        <ele>658.7</ele>
        <time>2016-07-31T11:20:01Z</time>
      </trkpt>
      <trkpt lat="42.42817" lon="0.06851">
        <ele>658.9</ele>
        <time>2016-07-31T11:20:02Z</time>
      </trkpt>
      <trkpt lat="42.42819" lon="0.06849">
        <ele>659.1</ele>
        <time>2016-07-31T11:20:03Z</time>
      </trkpt>
      <trkpt lat="42.42822" lon="0.06846">
        <ele>659.2</ele>
        <time>2016-07-31T11:20:04Z</time>
      </trkpt>
      <trkpt lat="42.42825" lon="0.06843">
        <ele>659.2</ele>
        <time>2016-07-31T11:20:05Z</time>
      </trkpt>
      <trkpt lat="42.42828" lon="0.06841">
        <ele>659.2</ele>
        <time>2016-07-31T11:20:06Z</time>
      </trkpt>
      <trkpt lat="42.42832" lon="0.06838">
        <ele>659</ele>
        <time>2016-07-31T11:20:07Z</time>
      </trkpt>
      <trkpt lat="42.42835" lon="0.06836">
        <ele>658.8</ele>
        <time>2016-07-31T11:20:08Z</time>
      </trkpt>
      <trkpt lat="42.42838" lon="0.06834">
        <ele>658.7</ele>
        <time>2016-07-31T11:20:09Z</time>
      </trkpt>
      <trkpt lat="42.42841" lon="0.06831">
        <ele>658.7</ele>
        <time>2016-07-31T11:20:10Z</time>
      </trkpt>
      <trkpt lat="42.42843" lon="0.06828">
        <ele>659.1</ele>
        <time>2016-07-31T11:20:11Z</time>
      </trkpt>
      <trkpt lat="42.42843" lon="0.06823">
        <ele>659.8</ele>
        <time>2016-07-31T11:20:13Z</time>
      </trkpt>
      <trkpt lat="42.4284" lon="0.06821">
        <ele>660.8</ele>
        <time>2016-07-31T11:20:18Z</time>
      </trkpt>
      <trkpt lat="42.42841" lon="0.06825">
        <ele>660</ele>
        <time>2016-07-31T11:20:32Z</time>
      </trkpt>
      <trkpt lat="42.42837" lon="0.06829">
        <ele>659.8</ele>
        <time>2016-07-31T11:20:34Z</time>
      </trkpt>
      <trkpt lat="42.42835" lon="0.06831">
        <ele>659.9</ele>
        <time>2016-07-31T11:20:35Z</time>
      </trkpt>
      <trkpt lat="42.42832" lon="0.06834">
        <ele>659.8</ele>
        <time>2016-07-31T11:20:36Z</time>
      </trkpt>
      <trkpt lat="42.42829" lon="0.06837">
        <ele>659.7</ele>
        <time>2016-07-31T11:20:37Z</time>
      </trkpt>
      <trkpt lat="42.42826" lon="0.06841">
        <ele>659.5</ele>
        <time>2016-07-31T11:20:38Z</time>
      </trkpt>
      <trkpt lat="42.42823" lon="0.06845">
        <ele>659.2</ele>
        <time>2016-07-31T11:20:39Z</time>
      </trkpt>
      <trkpt lat="42.4282" lon="0.06849">
        <ele>658.9</ele>
        <time>2016-07-31T11:20:40Z</time>
      </trkpt>
      <trkpt lat="42.42818" lon="0.06852">
        <ele>658.7</ele>
        <time>2016-07-31T11:20:41Z</time>
      </trkpt>
      <trkpt lat="42.42815" lon="0.06854">
        <ele>658.6</ele>
        <time>2016-07-31T11:20:42Z</time>
      </trkpt>
      <trkpt lat="42.42811" lon="0.06855">
        <ele>658.9</ele>
        <time>2016-07-31T11:20:43Z</time>
      </trkpt>
      <trkpt lat="42.42808" lon="0.06855">
        <ele>659.4</ele>
        <time>2016-07-31T11:20:44Z</time>
      </trkpt>
      <trkpt lat="42.42805" lon="0.06855">
        <ele>660</ele>
        <time>2016-07-31T11:20:45Z</time>
      </trkpt>
      <trkpt lat="42.42802" lon="0.06855">
        <ele>660.5</ele>
        <time>2016-07-31T11:20:46Z</time>
      </trkpt>
      <trkpt lat="42.42799" lon="0.06855">
        <ele>660.9</ele>
        <time>2016-07-31T11:20:49Z</time>
      </trkpt>
      <trkpt lat="42.42796" lon="0.06856">
        <ele>661</ele>
        <time>2016-07-31T11:20:56Z</time>
      </trkpt>
      <trkpt lat="42.42799" lon="0.06856">
        <ele>660.7</ele>
        <time>2016-07-31T11:21:18Z</time>
      </trkpt>
      <trkpt lat="42.42804" lon="0.06856">
        <ele>659.8</ele>
        <time>2016-07-31T11:21:20Z</time>
      </trkpt>
      <trkpt lat="42.42807" lon="0.06856">
        <ele>659.3</ele>
        <time>2016-07-31T11:21:21Z</time>
      </trkpt>
      <trkpt lat="42.42811" lon="0.06855">
        <ele>658.9</ele>
        <time>2016-07-31T11:21:22Z</time>
      </trkpt>
      <trkpt lat="42.42814" lon="0.06853">
        <ele>658.9</ele>
        <time>2016-07-31T11:21:23Z</time>
      </trkpt>
      <trkpt lat="42.42817" lon="0.06851">
        <ele>659.1</ele>
        <time>2016-07-31T11:21:24Z</time>
      </trkpt>
      <trkpt lat="42.42819" lon="0.06847">
        <ele>659.5</ele>
        <time>2016-07-31T11:21:25Z</time>
      </trkpt>
      <trkpt lat="42.42821" lon="0.06844">
        <ele>659.9</ele>
        <time>2016-07-31T11:21:26Z</time>
      </trkpt>
      <trkpt lat="42.42823" lon="0.0684">
        <ele>660.2</ele>
        <time>2016-07-31T11:21:27Z</time>
      </trkpt>
      <trkpt lat="42.42826" lon="0.06837">
        <ele>660.4</ele>
        <time>2016-07-31T11:21:28Z</time>
      </trkpt>
      <trkpt lat="42.4283" lon="0.06834">
        <ele>660.3</ele>
        <time>2016-07-31T11:21:29Z</time>
      </trkpt>
      <trkpt lat="42.42833" lon="0.06831">
        <ele>660.3</ele>
        <time>2016-07-31T11:21:30Z</time>
      </trkpt>
      <trkpt lat="42.42836" lon="0.06828">
        <ele>660.3</ele>
        <time>2016-07-31T11:21:31Z</time>
      </trkpt>
      <trkpt lat="42.42839" lon="0.06824">
        <ele>660.5</ele>
        <time>2016-07-31T11:21:32Z</time>
      </trkpt>
      <trkpt lat="42.42841" lon="0.06819">
        <ele>660.9</ele>
        <time>2016-07-31T11:21:33Z</time>
      </trkpt>
      <trkpt lat="42.42843" lon="0.06816">
        <ele>661.3</ele>
        <time>2016-07-31T11:21:34Z</time>
      </trkpt>
      <trkpt lat="42.42844" lon="0.06813">
        <ele>661.6</ele>
        <time>2016-07-31T11:21:35Z</time>
      </trkpt>
      <trkpt lat="42.42846" lon="0.06809">
        <ele>661.8</ele>
        <time>2016-07-31T11:21:36Z</time>
      </trkpt>
      <trkpt lat="42.42848" lon="0.06806">
        <ele>661.8</ele>
        <time>2016-07-31T11:21:37Z</time>
      </trkpt>
      <trkpt lat="42.42851" lon="0.06803">
        <ele>661.8</ele>
        <time>2016-07-31T11:21:38Z</time>
      </trkpt>
      <trkpt lat="42.42853" lon="0.06801">
        <ele>661.9</ele>
        <time>2016-07-31T11:21:39Z</time>
      </trkpt>
      <trkpt lat="42.42856" lon="0.06794">
        <ele>662</ele>
        <time>2016-07-31T11:21:41Z</time>
      </trkpt>
      <trkpt lat="42.42859" lon="0.06791">
        <ele>661.9</ele>
        <time>2016-07-31T11:21:42Z</time>
      </trkpt>
      <trkpt lat="42.42862" lon="0.06788">
        <ele>661.4</ele>
        <time>2016-07-31T11:21:43Z</time>
      </trkpt>
      <trkpt lat="42.42864" lon="0.06785">
        <ele>661.1</ele>
        <time>2016-07-31T11:21:44Z</time>
      </trkpt>
      <trkpt lat="42.42866" lon="0.0678">
        <ele>660.8</ele>
        <time>2016-07-31T11:21:45Z</time>
      </trkpt>
      <trkpt lat="42.42868" lon="0.06775">
        <ele>660.7</ele>
        <time>2016-07-31T11:21:46Z</time>
      </trkpt>
      <trkpt lat="42.42869" lon="0.0677">
        <ele>660.7</ele>
        <time>2016-07-31T11:21:47Z</time>
      </trkpt>
      <trkpt lat="42.42869" lon="0.06765">
        <ele>660.8</ele>
        <time>2016-07-31T11:21:48Z</time>
      </trkpt>
      <trkpt lat="42.4287" lon="0.06761">
        <ele>660.9</ele>
        <time>2016-07-31T11:21:49Z</time>
      </trkpt>
      <trkpt lat="42.42871" lon="0.06757">
        <ele>660.9</ele>
        <time>2016-07-31T11:21:50Z</time>
      </trkpt>
      <trkpt lat="42.42872" lon="0.06752">
        <ele>660.7</ele>
        <time>2016-07-31T11:21:51Z</time>
      </trkpt>
      <trkpt lat="42.42875" lon="0.06748">
        <ele>660.3</ele>
        <time>2016-07-31T11:21:52Z</time>
      </trkpt>
      <trkpt lat="42.42877" lon="0.06744">
        <ele>660</ele>
        <time>2016-07-31T11:21:53Z</time>
      </trkpt>
      <trkpt lat="42.42878" lon="0.0674">
        <ele>659.9</ele>
        <time>2016-07-31T11:21:54Z</time>
      </trkpt>
      <trkpt lat="42.4288" lon="0.06736">
        <ele>659.9</ele>
        <time>2016-07-31T11:21:55Z</time>
      </trkpt>
      <trkpt lat="42.42881" lon="0.06731">
        <ele>659.9</ele>
        <time>2016-07-31T11:21:56Z</time>
      </trkpt>
      <trkpt lat="42.42882" lon="0.06726">
        <ele>659.9</ele>
        <time>2016-07-31T11:21:57Z</time>
      </trkpt>
      <trkpt lat="42.42883" lon="0.06722">
        <ele>660</ele>
        <time>2016-07-31T11:21:58Z</time>
      </trkpt>
      <trkpt lat="42.42883" lon="0.06717">
        <ele>660</ele>
        <time>2016-07-31T11:21:59Z</time>
      </trkpt>
      <trkpt lat="42.42883" lon="0.06714">
        <ele>660.2</ele>
        <time>2016-07-31T11:22:00Z</time>
      </trkpt>
      <trkpt lat="42.42883" lon="0.0671">
        <ele>660.3</ele>
        <time>2016-07-31T11:22:01Z</time>
      </trkpt>
      <trkpt lat="42.42882" lon="0.06704">
        <ele>659.9</ele>
        <time>2016-07-31T11:22:03Z</time>
      </trkpt>
      <trkpt lat="42.42881" lon="0.06698">
        <ele>659.3</ele>
        <time>2016-07-31T11:22:05Z</time>
      </trkpt>
      <trkpt lat="42.42879" lon="0.06693">
        <ele>658.7</ele>
        <time>2016-07-31T11:22:07Z</time>
      </trkpt>
      <trkpt lat="42.42877" lon="0.06686">
        <ele>658</ele>
        <time>2016-07-31T11:22:09Z</time>
      </trkpt>
      <trkpt lat="42.42876" lon="0.06683">
        <ele>657.7</ele>
        <time>2016-07-31T11:22:10Z</time>
      </trkpt>
      <trkpt lat="42.42873" lon="0.06678">
        <ele>657.9</ele>
        <time>2016-07-31T11:22:12Z</time>
      </trkpt>
      <trkpt lat="42.4287" lon="0.06673">
        <ele>658.6</ele>
        <time>2016-07-31T11:22:14Z</time>
      </trkpt>
      <trkpt lat="42.42867" lon="0.06667">
        <ele>658.7</ele>
        <time>2016-07-31T11:22:16Z</time>
      </trkpt>
      <trkpt lat="42.42866" lon="0.06663">
        <ele>658.8</ele>
        <time>2016-07-31T11:22:17Z</time>
      </trkpt>
      <trkpt lat="42.42864" lon="0.06659">
        <ele>659.1</ele>
        <time>2016-07-31T11:22:18Z</time>
      </trkpt>
      <trkpt lat="42.42862" lon="0.06654">
        <ele>659.6</ele>
        <time>2016-07-31T11:22:19Z</time>
      </trkpt>
      <trkpt lat="42.4286" lon="0.06651">
        <ele>660.1</ele>
        <time>2016-07-31T11:22:20Z</time>
      </trkpt>
      <trkpt lat="42.42858" lon="0.06647">
        <ele>661</ele>
        <time>2016-07-31T11:22:22Z</time>
      </trkpt>
      <trkpt lat="42.42856" lon="0.06644">
        <ele>661.9</ele>
        <time>2016-07-31T11:22:24Z</time>
      </trkpt>
      <trkpt lat="42.42854" lon="0.06641">
        <ele>662.3</ele>
        <time>2016-07-31T11:22:29Z</time>
      </trkpt>
      <trkpt lat="42.42854" lon="0.06637">
        <ele>661.7</ele>
        <time>2016-07-31T11:22:44Z</time>
      </trkpt>
      <trkpt lat="42.42856" lon="0.06634">
        <ele>660.3</ele>
        <time>2016-07-31T11:22:55Z</time>
      </trkpt>
      <trkpt lat="42.42859" lon="0.06632">
        <ele>658.4</ele>
        <time>2016-07-31T11:23:05Z</time>
      </trkpt>
      <trkpt lat="42.4286" lon="0.06628">
        <ele>657.2</ele>
        <time>2016-07-31T11:23:12Z</time>
      </trkpt>
      <trkpt lat="42.42862" lon="0.06624">
        <ele>655.9</ele>
        <time>2016-07-31T11:23:23Z</time>
      </trkpt>
      <trkpt lat="42.42862" lon="0.0662">
        <ele>655.3</ele>
        <time>2016-07-31T11:23:27Z</time>
      </trkpt>
      <trkpt lat="42.42864" lon="0.0662">
        <ele>653.6</ele>
        <time>2016-07-31T11:23:33Z</time>
      </trkpt>
      <trkpt lat="42.42867" lon="0.06623">
        <ele>652.6</ele>
        <time>2016-07-31T11:23:36Z</time>
      </trkpt>
      <trkpt lat="42.42869" lon="0.06626">
        <ele>651.9</ele>
        <time>2016-07-31T11:23:38Z</time>
      </trkpt>
      <trkpt lat="42.42871" lon="0.06631">
        <ele>651.4</ele>
        <time>2016-07-31T11:23:41Z</time>
      </trkpt>
      <trkpt lat="42.42874" lon="0.06628">
        <ele>649.3</ele>
        <time>2016-07-31T11:23:45Z</time>
      </trkpt>
      <trkpt lat="42.42874" lon="0.06624">
        <ele>648.2</ele>
        <time>2016-07-31T11:23:47Z</time>
      </trkpt>
      <trkpt lat="42.42872" lon="0.06617">
        <ele>648.4</ele>
        <time>2016-07-31T11:23:49Z</time>
      </trkpt>
      <trkpt lat="42.42871" lon="0.06613">
        <ele>648.4</ele>
        <time>2016-07-31T11:23:50Z</time>
      </trkpt>
      <trkpt lat="42.42869" lon="0.06608">
        <ele>649.1</ele>
        <time>2016-07-31T11:23:52Z</time>
      </trkpt>
      <trkpt lat="42.42866" lon="0.06604">
        <ele>650.5</ele>
        <time>2016-07-31T11:23:54Z</time>
      </trkpt>
      <trkpt lat="42.42863" lon="0.06602">
        <ele>651.5</ele>
        <time>2016-07-31T11:23:55Z</time>
      </trkpt>
      <trkpt lat="42.42861" lon="0.066">
        <ele>652.5</ele>
        <time>2016-07-31T11:23:56Z</time>
      </trkpt>
      <trkpt lat="42.42858" lon="0.06596">
        <ele>653.7</ele>
        <time>2016-07-31T11:23:58Z</time>
      </trkpt>
      <trkpt lat="42.42855" lon="0.0659">
        <ele>654.7</ele>
        <time>2016-07-31T11:24:00Z</time>
      </trkpt>
      <trkpt lat="42.42851" lon="0.06586">
        <ele>655.8</ele>
        <time>2016-07-31T11:24:02Z</time>
      </trkpt>
      <trkpt lat="42.42849" lon="0.06583">
        <ele>656.7</ele>
        <time>2016-07-31T11:24:08Z</time>
      </trkpt>
      <trkpt lat="42.42847" lon="0.06579">
        <ele>656.9</ele>
        <time>2016-07-31T11:24:13Z</time>
      </trkpt>
      <trkpt lat="42.42846" lon="0.06576">
        <ele>657.2</ele>
        <time>2016-07-31T11:24:17Z</time>
      </trkpt>
      <trkpt lat="42.42844" lon="0.06573">
        <ele>657.7</ele>
        <time>2016-07-31T11:24:21Z</time>
      </trkpt>
      <trkpt lat="42.42841" lon="0.06571">
        <ele>658.8</ele>
        <time>2016-07-31T11:24:25Z</time>
      </trkpt>
      <trkpt lat="42.42839" lon="0.06568">
        <ele>659.5</ele>
        <time>2016-07-31T11:24:29Z</time>
      </trkpt>
      <trkpt lat="42.42836" lon="0.06565">
        <ele>660.7</ele>
        <time>2016-07-31T11:24:33Z</time>
      </trkpt>
      <trkpt lat="42.42835" lon="0.06562">
        <ele>661</ele>
        <time>2016-07-31T11:24:41Z</time>
      </trkpt>
      <trkpt lat="42.42833" lon="0.06559">
        <ele>661</ele>
        <time>2016-07-31T11:24:44Z</time>
      </trkpt>
      <trkpt lat="42.42831" lon="0.06554">
        <ele>661.6</ele>
        <time>2016-07-31T11:24:47Z</time>
      </trkpt>
      <trkpt lat="42.42829" lon="0.06552">
        <ele>662.2</ele>
        <time>2016-07-31T11:24:50Z</time>
      </trkpt>
      <trkpt lat="42.42827" lon="0.06549">
        <ele>663</ele>
        <time>2016-07-31T11:24:56Z</time>
      </trkpt>
      <trkpt lat="42.42824" lon="0.06547">
        <ele>663.9</ele>
        <time>2016-07-31T11:24:59Z</time>
      </trkpt>
      <trkpt lat="42.42822" lon="0.06546">
        <ele>664.9</ele>
        <time>2016-07-31T11:25:02Z</time>
      </trkpt>
      <trkpt lat="42.42819" lon="0.06543">
        <ele>665.8</ele>
        <time>2016-07-31T11:25:05Z</time>
      </trkpt>
      <trkpt lat="42.42817" lon="0.0654">
        <ele>666.4</ele>
        <time>2016-07-31T11:25:10Z</time>
      </trkpt>
      <trkpt lat="42.42815" lon="0.06538">
        <ele>667.1</ele>
        <time>2016-07-31T11:25:15Z</time>
      </trkpt>
      <trkpt lat="42.42812" lon="0.06535">
        <ele>667.8</ele>
        <time>2016-07-31T11:25:19Z</time>
      </trkpt>
      <trkpt lat="42.42809" lon="0.06532">
        <ele>668.7</ele>
        <time>2016-07-31T11:25:23Z</time>
      </trkpt>
      <trkpt lat="42.42807" lon="0.06528">
        <ele>668.6</ele>
        <time>2016-07-31T11:25:27Z</time>
      </trkpt>
      <trkpt lat="42.42807" lon="0.06524">
        <ele>668</ele>
        <time>2016-07-31T11:25:30Z</time>
      </trkpt>
      <trkpt lat="42.42805" lon="0.06521">
        <ele>667.8</ele>
        <time>2016-07-31T11:25:34Z</time>
      </trkpt>
      <trkpt lat="42.42803" lon="0.06518">
        <ele>668.3</ele>
        <time>2016-07-31T11:25:39Z</time>
      </trkpt>
      <trkpt lat="42.42801" lon="0.06516">
        <ele>668.5</ele>
        <time>2016-07-31T11:25:44Z</time>
      </trkpt>
      <trkpt lat="42.428" lon="0.06512">
        <ele>667.9</ele>
        <time>2016-07-31T11:25:48Z</time>
      </trkpt>
      <trkpt lat="42.42799" lon="0.06508">
        <ele>667.3</ele>
        <time>2016-07-31T11:25:51Z</time>
      </trkpt>
      <trkpt lat="42.42798" lon="0.06504">
        <ele>666.4</ele>
        <time>2016-07-31T11:25:54Z</time>
      </trkpt>
      <trkpt lat="42.42798" lon="0.06499">
        <ele>665.5</ele>
        <time>2016-07-31T11:25:57Z</time>
      </trkpt>
      <trkpt lat="42.42798" lon="0.06494">
        <ele>664.1</ele>
        <time>2016-07-31T11:25:59Z</time>
      </trkpt>
      <trkpt lat="42.42798" lon="0.06487">
        <ele>662.3</ele>
        <time>2016-07-31T11:26:01Z</time>
      </trkpt>
      <trkpt lat="42.42799" lon="0.06481">
        <ele>660.2</ele>
        <time>2016-07-31T11:26:03Z</time>
      </trkpt>
      <trkpt lat="42.42799" lon="0.06477">
        <ele>659.1</ele>
        <time>2016-07-31T11:26:04Z</time>
      </trkpt>
      <trkpt lat="42.42799" lon="0.06472">
        <ele>658</ele>
        <time>2016-07-31T11:26:05Z</time>
      </trkpt>
      <trkpt lat="42.42799" lon="0.06468">
        <ele>656.9</ele>
        <time>2016-07-31T11:26:06Z</time>
      </trkpt>
      <trkpt lat="42.42798" lon="0.06464">
        <ele>655.9</ele>
        <time>2016-07-31T11:26:07Z</time>
      </trkpt>
      <trkpt lat="42.42798" lon="0.0646">
        <ele>654.9</ele>
        <time>2016-07-31T11:26:08Z</time>
      </trkpt>
      <trkpt lat="42.42798" lon="0.06456">
        <ele>654.1</ele>
        <time>2016-07-31T11:26:09Z</time>
      </trkpt>
      <trkpt lat="42.42798" lon="0.06452">
        <ele>653.5</ele>
        <time>2016-07-31T11:26:10Z</time>
      </trkpt>
      <trkpt lat="42.42798" lon="0.06445">
        <ele>652.4</ele>
        <time>2016-07-31T11:26:12Z</time>
      </trkpt>
      <trkpt lat="42.42798" lon="0.06441">
        <ele>651.8</ele>
        <time>2016-07-31T11:26:13Z</time>
      </trkpt>
      <trkpt lat="42.42798" lon="0.06437">
        <ele>651.2</ele>
        <time>2016-07-31T11:26:14Z</time>
      </trkpt>
      <trkpt lat="42.42798" lon="0.06433">
        <ele>650.5</ele>
        <time>2016-07-31T11:26:15Z</time>
      </trkpt>
      <trkpt lat="42.42798" lon="0.06429">
        <ele>649.8</ele>
        <time>2016-07-31T11:26:16Z</time>
      </trkpt>
      <trkpt lat="42.42799" lon="0.06425">
        <ele>649</ele>
        <time>2016-07-31T11:26:17Z</time>
      </trkpt>
      <trkpt lat="42.428" lon="0.06421">
        <ele>648.2</ele>
        <time>2016-07-31T11:26:18Z</time>
      </trkpt>
      <trkpt lat="42.428" lon="0.06417">
        <ele>647.5</ele>
        <time>2016-07-31T11:26:19Z</time>
      </trkpt>
      <trkpt lat="42.42801" lon="0.06413">
        <ele>646.8</ele>
        <time>2016-07-31T11:26:20Z</time>
      </trkpt>
      <trkpt lat="42.42802" lon="0.06409">
        <ele>646.1</ele>
        <time>2016-07-31T11:26:21Z</time>
      </trkpt>
      <trkpt lat="42.42802" lon="0.06405">
        <ele>645.4</ele>
        <time>2016-07-31T11:26:22Z</time>
      </trkpt>
      <trkpt lat="42.42803" lon="0.06402">
        <ele>644.8</ele>
        <time>2016-07-31T11:26:23Z</time>
      </trkpt>
      <trkpt lat="42.42803" lon="0.06398">
        <ele>644.2</ele>
        <time>2016-07-31T11:26:24Z</time>
      </trkpt>
      <trkpt lat="42.42804" lon="0.06394">
        <ele>643.6</ele>
        <time>2016-07-31T11:26:25Z</time>
      </trkpt>
      <trkpt lat="42.42804" lon="0.0639">
        <ele>643</ele>
        <time>2016-07-31T11:26:26Z</time>
      </trkpt>
      <trkpt lat="42.42803" lon="0.06386">
        <ele>642.4</ele>
        <time>2016-07-31T11:26:27Z</time>
      </trkpt>
      <trkpt lat="42.42803" lon="0.06382">
        <ele>641.8</ele>
        <time>2016-07-31T11:26:28Z</time>
      </trkpt>
      <trkpt lat="42.42802" lon="0.06378">
        <ele>641.2</ele>
        <time>2016-07-31T11:26:29Z</time>
      </trkpt>
      <trkpt lat="42.42802" lon="0.06374">
        <ele>640.7</ele>
        <time>2016-07-31T11:26:30Z</time>
      </trkpt>
      <trkpt lat="42.42802" lon="0.06369">
        <ele>640.6</ele>
        <time>2016-07-31T11:26:31Z</time>
      </trkpt>
      <trkpt lat="42.42803" lon="0.06365">
        <ele>640.4</ele>
        <time>2016-07-31T11:26:32Z</time>
      </trkpt>
      <trkpt lat="42.42803" lon="0.06361">
        <ele>640.3</ele>
        <time>2016-07-31T11:26:33Z</time>
      </trkpt>
      <trkpt lat="42.42803" lon="0.06356">
        <ele>640.2</ele>
        <time>2016-07-31T11:26:34Z</time>
      </trkpt>
      <trkpt lat="42.42804" lon="0.06352">
        <ele>640</ele>
        <time>2016-07-31T11:26:35Z</time>
      </trkpt>
      <trkpt lat="42.42804" lon="0.06348">
        <ele>639.9</ele>
        <time>2016-07-31T11:26:36Z</time>
      </trkpt>
      <trkpt lat="42.42804" lon="0.06343">
        <ele>639.8</ele>
        <time>2016-07-31T11:26:37Z</time>
      </trkpt>
      <trkpt lat="42.42803" lon="0.0634">
        <ele>639.7</ele>
        <time>2016-07-31T11:26:38Z</time>
      </trkpt>
      <trkpt lat="42.42802" lon="0.06336">
        <ele>639.6</ele>
        <time>2016-07-31T11:26:39Z</time>
      </trkpt>
      <trkpt lat="42.42801" lon="0.06333">
        <ele>639.5</ele>
        <time>2016-07-31T11:26:40Z</time>
      </trkpt>
      <trkpt lat="42.428" lon="0.06329">
        <ele>639.4</ele>
        <time>2016-07-31T11:26:41Z</time>
      </trkpt>
      <trkpt lat="42.42797" lon="0.06324">
        <ele>639.2</ele>
        <time>2016-07-31T11:26:43Z</time>
      </trkpt>
      <trkpt lat="42.42794" lon="0.0632">
        <ele>639</ele>
        <time>2016-07-31T11:26:45Z</time>
      </trkpt>
      <trkpt lat="42.42793" lon="0.06314">
        <ele>638.8</ele>
        <time>2016-07-31T11:26:47Z</time>
      </trkpt>
      <trkpt lat="42.42793" lon="0.0631">
        <ele>638.7</ele>
        <time>2016-07-31T11:26:48Z</time>
      </trkpt>
      <trkpt lat="42.42794" lon="0.06306">
        <ele>638.6</ele>
        <time>2016-07-31T11:26:49Z</time>
      </trkpt>
      <trkpt lat="42.42794" lon="0.06302">
        <ele>638.4</ele>
        <time>2016-07-31T11:26:50Z</time>
      </trkpt>
      <trkpt lat="42.42795" lon="0.06299">
        <ele>638.3</ele>
        <time>2016-07-31T11:26:51Z</time>
      </trkpt>
      <trkpt lat="42.42796" lon="0.06295">
        <ele>638.2</ele>
        <time>2016-07-31T11:26:52Z</time>
      </trkpt>
      <trkpt lat="42.42798" lon="0.0629">
        <ele>638.2</ele>
        <time>2016-07-31T11:26:54Z</time>
      </trkpt>
      <trkpt lat="42.428" lon="0.06284">
        <ele>638.4</ele>
        <time>2016-07-31T11:26:56Z</time>
      </trkpt>
      <trkpt lat="42.42802" lon="0.06277">
        <ele>638.6</ele>
        <time>2016-07-31T11:26:58Z</time>
      </trkpt>
      <trkpt lat="42.42802" lon="0.06273">
        <ele>638.7</ele>
        <time>2016-07-31T11:26:59Z</time>
      </trkpt>
      <trkpt lat="42.42803" lon="0.0627">
        <ele>638.8</ele>
        <time>2016-07-31T11:27:00Z</time>
      </trkpt>
      <trkpt lat="42.42804" lon="0.06266">
        <ele>639</ele>
        <time>2016-07-31T11:27:01Z</time>
      </trkpt>
      <trkpt lat="42.42805" lon="0.06262">
        <ele>639.1</ele>
        <time>2016-07-31T11:27:02Z</time>
      </trkpt>
      <trkpt lat="42.42805" lon="0.06259">
        <ele>639.2</ele>
        <time>2016-07-31T11:27:03Z</time>
      </trkpt>
      <trkpt lat="42.42805" lon="0.06255">
        <ele>639.3</ele>
        <time>2016-07-31T11:27:04Z</time>
      </trkpt>
      <trkpt lat="42.42805" lon="0.06251">
        <ele>639.4</ele>
        <time>2016-07-31T11:27:05Z</time>
      </trkpt>
      <trkpt lat="42.42804" lon="0.06247">
        <ele>639.5</ele>
        <time>2016-07-31T11:27:06Z</time>
      </trkpt>
      <trkpt lat="42.42803" lon="0.06243">
        <ele>639.5</ele>
        <time>2016-07-31T11:27:07Z</time>
      </trkpt>
      <trkpt lat="42.42802" lon="0.06239">
        <ele>639.5</ele>
        <time>2016-07-31T11:27:08Z</time>
      </trkpt>
      <trkpt lat="42.42802" lon="0.06234">
        <ele>639.6</ele>
        <time>2016-07-31T11:27:09Z</time>
      </trkpt>
      <trkpt lat="42.42801" lon="0.0623">
        <ele>639.7</ele>
        <time>2016-07-31T11:27:10Z</time>
      </trkpt>
      <trkpt lat="42.42801" lon="0.06225">
        <ele>639.8</ele>
        <time>2016-07-31T11:27:11Z</time>
      </trkpt>
      <trkpt lat="42.42802" lon="0.0622">
        <ele>640</ele>
        <time>2016-07-31T11:27:12Z</time>
      </trkpt>
      <trkpt lat="42.42803" lon="0.06215">
        <ele>640.2</ele>
        <time>2016-07-31T11:27:13Z</time>
      </trkpt>
      <trkpt lat="42.42804" lon="0.0621">
        <ele>640.4</ele>
        <time>2016-07-31T11:27:14Z</time>
      </trkpt>
      <trkpt lat="42.42804" lon="0.06206">
        <ele>640.9</ele>
        <time>2016-07-31T11:27:15Z</time>
      </trkpt>
      <trkpt lat="42.42805" lon="0.06201">
        <ele>641.6</ele>
        <time>2016-07-31T11:27:16Z</time>
      </trkpt>
      <trkpt lat="42.42806" lon="0.06196">
        <ele>642.5</ele>
        <time>2016-07-31T11:27:17Z</time>
      </trkpt>
      <trkpt lat="42.42808" lon="0.06193">
        <ele>643.2</ele>
        <time>2016-07-31T11:27:18Z</time>
      </trkpt>
      <trkpt lat="42.4281" lon="0.0619">
        <ele>643.8</ele>
        <time>2016-07-31T11:27:19Z</time>
      </trkpt>
      <trkpt lat="42.42813" lon="0.06189">
        <ele>644.3</ele>
        <time>2016-07-31T11:27:20Z</time>
      </trkpt>
      <trkpt lat="42.42817" lon="0.06189">
        <ele>644.7</ele>
        <time>2016-07-31T11:27:21Z</time>
      </trkpt>
      <trkpt lat="42.42821" lon="0.06192">
        <ele>644.9</ele>
        <time>2016-07-31T11:27:22Z</time>
      </trkpt>
      <trkpt lat="42.42826" lon="0.06195">
        <ele>645</ele>
        <time>2016-07-31T11:27:23Z</time>
      </trkpt>
      <trkpt lat="42.4283" lon="0.06198">
        <ele>645</ele>
        <time>2016-07-31T11:27:24Z</time>
      </trkpt>
      <trkpt lat="42.42835" lon="0.06202">
        <ele>645.1</ele>
        <time>2016-07-31T11:27:25Z</time>
      </trkpt>
      <trkpt lat="42.42839" lon="0.06205">
        <ele>645.1</ele>
        <time>2016-07-31T11:27:26Z</time>
      </trkpt>
      <trkpt lat="42.42843" lon="0.06209">
        <ele>645.2</ele>
        <time>2016-07-31T11:27:27Z</time>
      </trkpt>
      <trkpt lat="42.42848" lon="0.06212">
        <ele>645.4</ele>
        <time>2016-07-31T11:27:28Z</time>
      </trkpt>
      <trkpt lat="42.42852" lon="0.06215">
        <ele>645.6</ele>
        <time>2016-07-31T11:27:29Z</time>
      </trkpt>
      <trkpt lat="42.42855" lon="0.06218">
        <ele>645.8</ele>
        <time>2016-07-31T11:27:30Z</time>
      </trkpt>
      <trkpt lat="42.42859" lon="0.06221">
        <ele>645.9</ele>
        <time>2016-07-31T11:27:31Z</time>
      </trkpt>
      <trkpt lat="42.42862" lon="0.06224">
        <ele>646</ele>
        <time>2016-07-31T11:27:32Z</time>
      </trkpt>
      <trkpt lat="42.42866" lon="0.06227">
        <ele>646.1</ele>
        <time>2016-07-31T11:27:33Z</time>
      </trkpt>
      <trkpt lat="42.42869" lon="0.0623">
        <ele>646.1</ele>
        <time>2016-07-31T11:27:34Z</time>
      </trkpt>
      <trkpt lat="42.42871" lon="0.06233">
        <ele>646</ele>
        <time>2016-07-31T11:27:35Z</time>
      </trkpt>
      <trkpt lat="42.42873" lon="0.06236">
        <ele>645.8</ele>
        <time>2016-07-31T11:27:36Z</time>
      </trkpt>
      <trkpt lat="42.42874" lon="0.0624">
        <ele>645.6</ele>
        <time>2016-07-31T11:27:37Z</time>
      </trkpt>
      <trkpt lat="42.42877" lon="0.06246">
        <ele>645.1</ele>
        <time>2016-07-31T11:27:39Z</time>
      </trkpt>
      <trkpt lat="42.42878" lon="0.06252">
        <ele>644.6</ele>
        <time>2016-07-31T11:27:41Z</time>
      </trkpt>
      <trkpt lat="42.4288" lon="0.06257">
        <ele>644.1</ele>
        <time>2016-07-31T11:27:43Z</time>
      </trkpt>
      <trkpt lat="42.42881" lon="0.06263">
        <ele>643.6</ele>
        <time>2016-07-31T11:27:45Z</time>
      </trkpt>
      <trkpt lat="42.42881" lon="0.06268">
        <ele>643.1</ele>
        <time>2016-07-31T11:27:47Z</time>
      </trkpt>
      <trkpt lat="42.42882" lon="0.06274">
        <ele>642.6</ele>
        <time>2016-07-31T11:27:49Z</time>
      </trkpt>
      <trkpt lat="42.42882" lon="0.06279">
        <ele>642</ele>
        <time>2016-07-31T11:27:51Z</time>
      </trkpt>
      <trkpt lat="42.42881" lon="0.06284">
        <ele>641.5</ele>
        <time>2016-07-31T11:27:53Z</time>
      </trkpt>
      <trkpt lat="42.42881" lon="0.0629">
        <ele>640.9</ele>
        <time>2016-07-31T11:27:55Z</time>
      </trkpt>
      <trkpt lat="42.42881" lon="0.06295">
        <ele>640.7</ele>
        <time>2016-07-31T11:27:57Z</time>
      </trkpt>
      <trkpt lat="42.4288" lon="0.063">
        <ele>640.6</ele>
        <time>2016-07-31T11:27:59Z</time>
      </trkpt>
      <trkpt lat="42.4288" lon="0.06305">
        <ele>640.5</ele>
        <time>2016-07-31T11:28:01Z</time>
      </trkpt>
      <trkpt lat="42.42881" lon="0.0631">
        <ele>640.6</ele>
        <time>2016-07-31T11:28:03Z</time>
      </trkpt>
      <trkpt lat="42.4288" lon="0.06315">
        <ele>640.4</ele>
        <time>2016-07-31T11:28:05Z</time>
      </trkpt>
      <trkpt lat="42.42879" lon="0.0632">
        <ele>640.4</ele>
        <time>2016-07-31T11:28:07Z</time>
      </trkpt>
      <trkpt lat="42.4288" lon="0.06324">
        <ele>640.4</ele>
        <time>2016-07-31T11:28:09Z</time>
      </trkpt>
      <trkpt lat="42.4288" lon="0.06329">
        <ele>640.4</ele>
        <time>2016-07-31T11:28:11Z</time>
      </trkpt>
      <trkpt lat="42.4288" lon="0.06334">
        <ele>640.4</ele>
        <time>2016-07-31T11:28:13Z</time>
      </trkpt>
      <trkpt lat="42.4288" lon="0.06339">
        <ele>640.3</ele>
        <time>2016-07-31T11:28:15Z</time>
      </trkpt>
      <trkpt lat="42.4288" lon="0.06344">
        <ele>640.4</ele>
        <time>2016-07-31T11:28:17Z</time>
      </trkpt>
      <trkpt lat="42.4288" lon="0.0635">
        <ele>640.5</ele>
        <time>2016-07-31T11:28:19Z</time>
      </trkpt>
      <trkpt lat="42.42881" lon="0.06355">
        <ele>640.7</ele>
        <time>2016-07-31T11:28:21Z</time>
      </trkpt>
      <trkpt lat="42.42883" lon="0.06359">
        <ele>641.1</ele>
        <time>2016-07-31T11:28:23Z</time>
      </trkpt>
      <trkpt lat="42.42885" lon="0.06364">
        <ele>641.5</ele>
        <time>2016-07-31T11:28:25Z</time>
      </trkpt>
      <trkpt lat="42.42886" lon="0.06369">
        <ele>641.9</ele>
        <time>2016-07-31T11:28:27Z</time>
      </trkpt>
      <trkpt lat="42.42888" lon="0.06374">
        <ele>642.3</ele>
        <time>2016-07-31T11:28:29Z</time>
      </trkpt>
      <trkpt lat="42.42889" lon="0.06379">
        <ele>642.6</ele>
        <time>2016-07-31T11:28:31Z</time>
      </trkpt>
      <trkpt lat="42.42891" lon="0.06383">
        <ele>643</ele>
        <time>2016-07-31T11:28:33Z</time>
      </trkpt>
      <trkpt lat="42.42893" lon="0.06386">
        <ele>643.6</ele>
        <time>2016-07-31T11:28:35Z</time>
      </trkpt>
      <trkpt lat="42.42896" lon="0.0639">
        <ele>644.3</ele>
        <time>2016-07-31T11:28:37Z</time>
      </trkpt>
      <trkpt lat="42.42899" lon="0.06393">
        <ele>645.1</ele>
        <time>2016-07-31T11:28:39Z</time>
      </trkpt>
      <trkpt lat="42.42902" lon="0.06397">
        <ele>645.8</ele>
        <time>2016-07-31T11:28:41Z</time>
      </trkpt>
      <trkpt lat="42.42905" lon="0.06401">
        <ele>646.5</ele>
        <time>2016-07-31T11:28:43Z</time>
      </trkpt>
      <trkpt lat="42.42907" lon="0.06404">
        <ele>647.1</ele>
        <time>2016-07-31T11:28:45Z</time>
      </trkpt>
      <trkpt lat="42.42909" lon="0.06407">
        <ele>647.6</ele>
        <time>2016-07-31T11:28:47Z</time>
      </trkpt>
      <trkpt lat="42.42911" lon="0.0641">
        <ele>648.1</ele>
        <time>2016-07-31T11:28:49Z</time>
      </trkpt>
      <trkpt lat="42.42913" lon="0.06414">
        <ele>648.6</ele>
        <time>2016-07-31T11:28:51Z</time>
      </trkpt>
      <trkpt lat="42.42915" lon="0.06419">
        <ele>649.1</ele>
        <time>2016-07-31T11:28:53Z</time>
      </trkpt>
      <trkpt lat="42.42917" lon="0.06423">
        <ele>649.4</ele>
        <time>2016-07-31T11:28:55Z</time>
      </trkpt>
      <trkpt lat="42.42918" lon="0.06427">
        <ele>649.9</ele>
        <time>2016-07-31T11:28:57Z</time>
      </trkpt>
      <trkpt lat="42.4292" lon="0.06431">
        <ele>650.3</ele>
        <time>2016-07-31T11:28:59Z</time>
      </trkpt>
      <trkpt lat="42.42922" lon="0.06435">
        <ele>650.8</ele>
        <time>2016-07-31T11:29:01Z</time>
      </trkpt>
      <trkpt lat="42.42924" lon="0.06439">
        <ele>651.4</ele>
        <time>2016-07-31T11:29:03Z</time>
      </trkpt>
      <trkpt lat="42.42926" lon="0.06443">
        <ele>651.9</ele>
        <time>2016-07-31T11:29:05Z</time>
      </trkpt>
      <trkpt lat="42.42929" lon="0.06446">
        <ele>652.6</ele>
        <time>2016-07-31T11:29:07Z</time>
      </trkpt>
      <trkpt lat="42.42932" lon="0.06449">
        <ele>653.4</ele>
        <time>2016-07-31T11:29:09Z</time>
      </trkpt>
      <trkpt lat="42.42935" lon="0.06451">
        <ele>654.3</ele>
        <time>2016-07-31T11:29:11Z</time>
      </trkpt>
      <trkpt lat="42.42938" lon="0.06454">
        <ele>655.1</ele>
        <time>2016-07-31T11:29:13Z</time>
      </trkpt>
      <trkpt lat="42.42941" lon="0.06456">
        <ele>655.9</ele>
        <time>2016-07-31T11:29:15Z</time>
      </trkpt>
      <trkpt lat="42.42944" lon="0.06458">
        <ele>656.8</ele>
        <time>2016-07-31T11:29:17Z</time>
      </trkpt>
      <trkpt lat="42.42947" lon="0.06461">
        <ele>657.5</ele>
        <time>2016-07-31T11:29:19Z</time>
      </trkpt>
      <trkpt lat="42.4295" lon="0.06462">
        <ele>658.2</ele>
        <time>2016-07-31T11:29:21Z</time>
      </trkpt>
      <trkpt lat="42.42953" lon="0.06464">
        <ele>658.9</ele>
        <time>2016-07-31T11:29:23Z</time>
      </trkpt>
      <trkpt lat="42.42956" lon="0.06464">
        <ele>659.6</ele>
        <time>2016-07-31T11:29:25Z</time>
      </trkpt>
      <trkpt lat="42.42958" lon="0.06466">
        <ele>660.2</ele>
        <time>2016-07-31T11:29:27Z</time>
      </trkpt>
      <trkpt lat="42.42961" lon="0.06468">
        <ele>660.7</ele>
        <time>2016-07-31T11:29:29Z</time>
      </trkpt>
      <trkpt lat="42.42964" lon="0.0647">
        <ele>661.2</ele>
        <time>2016-07-31T11:29:31Z</time>
      </trkpt>
      <trkpt lat="42.42967" lon="0.06472">
        <ele>661.9</ele>
        <time>2016-07-31T11:29:33Z</time>
      </trkpt>
      <trkpt lat="42.4297" lon="0.06474">
        <ele>662.5</ele>
        <time>2016-07-31T11:29:35Z</time>
      </trkpt>
      <trkpt lat="42.42972" lon="0.06477">
        <ele>662.9</ele>
        <time>2016-07-31T11:29:37Z</time>
      </trkpt>
      <trkpt lat="42.42972" lon="0.06482">
        <ele>662.6</ele>
        <time>2016-07-31T11:29:39Z</time>
      </trkpt>
      <trkpt lat="42.42973" lon="0.06487">
        <ele>662.4</ele>
        <time>2016-07-31T11:29:41Z</time>
      </trkpt>
      <trkpt lat="42.42973" lon="0.06492">
        <ele>662.2</ele>
        <time>2016-07-31T11:29:43Z</time>
      </trkpt>
      <trkpt lat="42.42974" lon="0.06497">
        <ele>662</ele>
        <time>2016-07-31T11:29:45Z</time>
      </trkpt>
      <trkpt lat="42.42974" lon="0.06501">
        <ele>661.7</ele>
        <time>2016-07-31T11:29:47Z</time>
      </trkpt>
      <trkpt lat="42.42974" lon="0.06506">
        <ele>661.5</ele>
        <time>2016-07-31T11:29:49Z</time>
      </trkpt>
      <trkpt lat="42.42975" lon="0.06511">
        <ele>661.5</ele>
        <time>2016-07-31T11:29:51Z</time>
      </trkpt>
      <trkpt lat="42.42975" lon="0.06516">
        <ele>661.2</ele>
        <time>2016-07-31T11:29:53Z</time>
      </trkpt>
      <trkpt lat="42.42976" lon="0.06521">
        <ele>661.1</ele>
        <time>2016-07-31T11:29:55Z</time>
      </trkpt>
      <trkpt lat="42.42977" lon="0.06526">
        <ele>661.3</ele>
        <time>2016-07-31T11:29:57Z</time>
      </trkpt>
      <trkpt lat="42.42978" lon="0.06531">
        <ele>661.3</ele>
        <time>2016-07-31T11:29:59Z</time>
      </trkpt>
      <trkpt lat="42.42978" lon="0.06536">
        <ele>661.2</ele>
        <time>2016-07-31T11:30:01Z</time>
      </trkpt>
      <trkpt lat="42.42979" lon="0.06542">
        <ele>661.3</ele>
        <time>2016-07-31T11:30:03Z</time>
      </trkpt>
      <trkpt lat="42.4298" lon="0.06548">
        <ele>661.4</ele>
        <time>2016-07-31T11:30:05Z</time>
      </trkpt>
      <trkpt lat="42.4298" lon="0.06555">
        <ele>661.2</ele>
        <time>2016-07-31T11:30:07Z</time>
      </trkpt>
      <trkpt lat="42.42981" lon="0.06559">
        <ele>661</ele>
        <time>2016-07-31T11:30:08Z</time>
      </trkpt>
      <trkpt lat="42.42981" lon="0.06563">
        <ele>661</ele>
        <time>2016-07-31T11:30:09Z</time>
      </trkpt>
      <trkpt lat="42.42981" lon="0.06567">
        <ele>660.9</ele>
        <time>2016-07-31T11:30:10Z</time>
      </trkpt>
      <trkpt lat="42.42981" lon="0.0657">
        <ele>660.8</ele>
        <time>2016-07-31T11:30:11Z</time>
      </trkpt>
      <trkpt lat="42.42981" lon="0.06574">
        <ele>660.6</ele>
        <time>2016-07-31T11:30:12Z</time>
      </trkpt>
      <trkpt lat="42.42981" lon="0.06578">
        <ele>660.4</ele>
        <time>2016-07-31T11:30:13Z</time>
      </trkpt>
      <trkpt lat="42.42981" lon="0.06585">
        <ele>659.9</ele>
        <time>2016-07-31T11:30:15Z</time>
      </trkpt>
      <trkpt lat="42.42981" lon="0.06589">
        <ele>659.7</ele>
        <time>2016-07-31T11:30:16Z</time>
      </trkpt>
      <trkpt lat="42.4298" lon="0.06596">
        <ele>659.3</ele>
        <time>2016-07-31T11:30:18Z</time>
      </trkpt>
      <trkpt lat="42.42981" lon="0.06603">
        <ele>659</ele>
        <time>2016-07-31T11:30:20Z</time>
      </trkpt>
      <trkpt lat="42.42981" lon="0.0661">
        <ele>658.7</ele>
        <time>2016-07-31T11:30:22Z</time>
      </trkpt>
      <trkpt lat="42.4298" lon="0.06617">
        <ele>658.3</ele>
        <time>2016-07-31T11:30:24Z</time>
      </trkpt>
      <trkpt lat="42.42981" lon="0.06623">
        <ele>658.1</ele>
        <time>2016-07-31T11:30:26Z</time>
      </trkpt>
      <trkpt lat="42.42981" lon="0.0663">
        <ele>658.2</ele>
        <time>2016-07-31T11:30:28Z</time>
      </trkpt>
      <trkpt lat="42.42982" lon="0.06637">
        <ele>658.7</ele>
        <time>2016-07-31T11:30:30Z</time>
      </trkpt>
      <trkpt lat="42.42983" lon="0.06643">
        <ele>659.3</ele>
        <time>2016-07-31T11:30:32Z</time>
      </trkpt>
      <trkpt lat="42.42985" lon="0.06649">
        <ele>660.2</ele>
        <time>2016-07-31T11:30:34Z</time>
      </trkpt>
      <trkpt lat="42.42987" lon="0.06656">
        <ele>660.9</ele>
        <time>2016-07-31T11:30:36Z</time>
      </trkpt>
      <trkpt lat="42.42988" lon="0.06662">
        <ele>661.8</ele>
        <time>2016-07-31T11:30:38Z</time>
      </trkpt>
      <trkpt lat="42.4299" lon="0.06669">
        <ele>662.5</ele>
        <time>2016-07-31T11:30:40Z</time>
      </trkpt>
      <trkpt lat="42.42991" lon="0.06676">
        <ele>663.1</ele>
        <time>2016-07-31T11:30:42Z</time>
      </trkpt>
      <trkpt lat="42.42994" lon="0.06682">
        <ele>664.2</ele>
        <time>2016-07-31T11:30:44Z</time>
      </trkpt>
      <trkpt lat="42.42995" lon="0.06685">
        <ele>664.9</ele>
        <time>2016-07-31T11:30:45Z</time>
      </trkpt>
      <trkpt lat="42.42998" lon="0.06691">
        <ele>666.4</ele>
        <time>2016-07-31T11:30:47Z</time>
      </trkpt>
      <trkpt lat="42.43002" lon="0.06696">
        <ele>668.1</ele>
        <time>2016-07-31T11:30:49Z</time>
      </trkpt>
      <trkpt lat="42.43006" lon="0.067">
        <ele>670</ele>
        <time>2016-07-31T11:30:51Z</time>
      </trkpt>
      <trkpt lat="42.4301" lon="0.06705">
        <ele>671.9</ele>
        <time>2016-07-31T11:30:53Z</time>
      </trkpt>
      <trkpt lat="42.43012" lon="0.06711">
        <ele>673.1</ele>
        <time>2016-07-31T11:30:55Z</time>
      </trkpt>
      <trkpt lat="42.43014" lon="0.06717">
        <ele>674</ele>
        <time>2016-07-31T11:30:57Z</time>
      </trkpt>
      <trkpt lat="42.43016" lon="0.06724">
        <ele>674.7</ele>
        <time>2016-07-31T11:30:59Z</time>
      </trkpt>
      <trkpt lat="42.43017" lon="0.06728">
        <ele>675</ele>
        <time>2016-07-31T11:31:00Z</time>
      </trkpt>
      <trkpt lat="42.43018" lon="0.06731">
        <ele>675.4</ele>
        <time>2016-07-31T11:31:01Z</time>
      </trkpt>
      <trkpt lat="42.43019" lon="0.06735">
        <ele>675.8</ele>
        <time>2016-07-31T11:31:02Z</time>
      </trkpt>
      <trkpt lat="42.4302" lon="0.06738">
        <ele>676.2</ele>
        <time>2016-07-31T11:31:03Z</time>
      </trkpt>
      <trkpt lat="42.43021" lon="0.06743">
        <ele>676.5</ele>
        <time>2016-07-31T11:31:04Z</time>
      </trkpt>
      <trkpt lat="42.43022" lon="0.06747">
        <ele>676.7</ele>
        <time>2016-07-31T11:31:05Z</time>
      </trkpt>
      <trkpt lat="42.43023" lon="0.06751">
        <ele>676.9</ele>
        <time>2016-07-31T11:31:06Z</time>
      </trkpt>
      <trkpt lat="42.43023" lon="0.06756">
        <ele>677</ele>
        <time>2016-07-31T11:31:07Z</time>
      </trkpt>
      <trkpt lat="42.43024" lon="0.06761">
        <ele>677.2</ele>
        <time>2016-07-31T11:31:08Z</time>
      </trkpt>
      <trkpt lat="42.43025" lon="0.06766">
        <ele>677.4</ele>
        <time>2016-07-31T11:31:09Z</time>
      </trkpt>
      <trkpt lat="42.43025" lon="0.06771">
        <ele>677.3</ele>
        <time>2016-07-31T11:31:10Z</time>
      </trkpt>
      <trkpt lat="42.43025" lon="0.06776">
        <ele>677.1</ele>
        <time>2016-07-31T11:31:11Z</time>
      </trkpt>
      <trkpt lat="42.43025" lon="0.06781">
        <ele>676.8</ele>
        <time>2016-07-31T11:31:12Z</time>
      </trkpt>
      <trkpt lat="42.43025" lon="0.06786">
        <ele>676.4</ele>
        <time>2016-07-31T11:31:13Z</time>
      </trkpt>
      <trkpt lat="42.43024" lon="0.06791">
        <ele>676</ele>
        <time>2016-07-31T11:31:14Z</time>
      </trkpt>
      <trkpt lat="42.43023" lon="0.06796">
        <ele>675.6</ele>
        <time>2016-07-31T11:31:15Z</time>
      </trkpt>
      <trkpt lat="42.43022" lon="0.06801">
        <ele>675.2</ele>
        <time>2016-07-31T11:31:16Z</time>
      </trkpt>
      <trkpt lat="42.43021" lon="0.06806">
        <ele>674.7</ele>
        <time>2016-07-31T11:31:17Z</time>
      </trkpt>
      <trkpt lat="42.4302" lon="0.06811">
        <ele>674.2</ele>
        <time>2016-07-31T11:31:18Z</time>
      </trkpt>
      <trkpt lat="42.43019" lon="0.06816">
        <ele>673.7</ele>
        <time>2016-07-31T11:31:19Z</time>
      </trkpt>
      <trkpt lat="42.43018" lon="0.06821">
        <ele>673.2</ele>
        <time>2016-07-31T11:31:20Z</time>
      </trkpt>
      <trkpt lat="42.43017" lon="0.06825">
        <ele>672.7</ele>
        <time>2016-07-31T11:31:21Z</time>
      </trkpt>
      <trkpt lat="42.43016" lon="0.0683">
        <ele>672.2</ele>
        <time>2016-07-31T11:31:22Z</time>
      </trkpt>
      <trkpt lat="42.43015" lon="0.06833">
        <ele>671.7</ele>
        <time>2016-07-31T11:31:23Z</time>
      </trkpt>
      <trkpt lat="42.43014" lon="0.06837">
        <ele>671.2</ele>
        <time>2016-07-31T11:31:24Z</time>
      </trkpt>
      <trkpt lat="42.43012" lon="0.06841">
        <ele>670.7</ele>
        <time>2016-07-31T11:31:25Z</time>
      </trkpt>
      <trkpt lat="42.43011" lon="0.06845">
        <ele>670.2</ele>
        <time>2016-07-31T11:31:26Z</time>
      </trkpt>
      <trkpt lat="42.4301" lon="0.06851">
        <ele>669.4</ele>
        <time>2016-07-31T11:31:28Z</time>
      </trkpt>
      <trkpt lat="42.4301" lon="0.06856">
        <ele>669.7</ele>
        <time>2016-07-31T11:31:30Z</time>
      </trkpt>
      <trkpt lat="42.43014" lon="0.06855">
        <ele>671.3</ele>
        <time>2016-07-31T11:31:32Z</time>
      </trkpt>
      <trkpt lat="42.43017" lon="0.0685">
        <ele>672.8</ele>
        <time>2016-07-31T11:31:34Z</time>
      </trkpt>
      <trkpt lat="42.4302" lon="0.06844">
        <ele>673.9</ele>
        <time>2016-07-31T11:31:36Z</time>
      </trkpt>
      <trkpt lat="42.43021" lon="0.06838">
        <ele>674.7</ele>
        <time>2016-07-31T11:31:38Z</time>
      </trkpt>
      <trkpt lat="42.43023" lon="0.06831">
        <ele>675.4</ele>
        <time>2016-07-31T11:31:40Z</time>
      </trkpt>
      <trkpt lat="42.43025" lon="0.06825">
        <ele>676.2</ele>
        <time>2016-07-31T11:31:42Z</time>
      </trkpt>
      <trkpt lat="42.43027" lon="0.0682">
        <ele>677.1</ele>
        <time>2016-07-31T11:31:44Z</time>
      </trkpt>
      <trkpt lat="42.43029" lon="0.06814">
        <ele>678.1</ele>
        <time>2016-07-31T11:31:46Z</time>
      </trkpt>
      <trkpt lat="42.43032" lon="0.06809">
        <ele>679.4</ele>
        <time>2016-07-31T11:31:48Z</time>
      </trkpt>
      <trkpt lat="42.43036" lon="0.0681">
        <ele>681.2</ele>
        <time>2016-07-31T11:31:50Z</time>
      </trkpt>
      <trkpt lat="42.43037" lon="0.06817">
        <ele>681.6</ele>
        <time>2016-07-31T11:31:52Z</time>
      </trkpt>
      <trkpt lat="42.43036" lon="0.06821">
        <ele>681.2</ele>
        <time>2016-07-31T11:31:53Z</time>
      </trkpt>
      <trkpt lat="42.43034" lon="0.06825">
        <ele>680.5</ele>
        <time>2016-07-31T11:31:54Z</time>
      </trkpt>
      <trkpt lat="42.43032" lon="0.06829">
        <ele>679.8</ele>
        <time>2016-07-31T11:31:55Z</time>
      </trkpt>
      <trkpt lat="42.43031" lon="0.06832">
        <ele>679.1</ele>
        <time>2016-07-31T11:31:56Z</time>
      </trkpt>
      <trkpt lat="42.4303" lon="0.06836">
        <ele>678.6</ele>
        <time>2016-07-31T11:31:57Z</time>
      </trkpt>
      <trkpt lat="42.43029" lon="0.0684">
        <ele>678.2</ele>
        <time>2016-07-31T11:31:58Z</time>
      </trkpt>
      <trkpt lat="42.43028" lon="0.06847">
        <ele>677.7</ele>
        <time>2016-07-31T11:32:00Z</time>
      </trkpt>
      <trkpt lat="42.43027" lon="0.06854">
        <ele>677.4</ele>
        <time>2016-07-31T11:32:02Z</time>
      </trkpt>
      <trkpt lat="42.43028" lon="0.06861">
        <ele>677.5</ele>
        <time>2016-07-31T11:32:04Z</time>
      </trkpt>
      <trkpt lat="42.43028" lon="0.06868">
        <ele>677.9</ele>
        <time>2016-07-31T11:32:06Z</time>
      </trkpt>
      <trkpt lat="42.43029" lon="0.06874">
        <ele>678.3</ele>
        <time>2016-07-31T11:32:08Z</time>
      </trkpt>
      <trkpt lat="42.4303" lon="0.06881">
        <ele>679.2</ele>
        <time>2016-07-31T11:32:10Z</time>
      </trkpt>
      <trkpt lat="42.43031" lon="0.06888">
        <ele>680.2</ele>
        <time>2016-07-31T11:32:12Z</time>
      </trkpt>
      <trkpt lat="42.43032" lon="0.06895">
        <ele>681.1</ele>
        <time>2016-07-31T11:32:14Z</time>
      </trkpt>
      <trkpt lat="42.43032" lon="0.06899">
        <ele>681.6</ele>
        <time>2016-07-31T11:32:15Z</time>
      </trkpt>
      <trkpt lat="42.43033" lon="0.06903">
        <ele>682.1</ele>
        <time>2016-07-31T11:32:16Z</time>
      </trkpt>
      <trkpt lat="42.43033" lon="0.06909">
        <ele>682.9</ele>
        <time>2016-07-31T11:32:18Z</time>
      </trkpt>
      <trkpt lat="42.43033" lon="0.06914">
        <ele>683.4</ele>
        <time>2016-07-31T11:32:20Z</time>
      </trkpt>
      <trkpt lat="42.43034" lon="0.06919">
        <ele>684.1</ele>
        <time>2016-07-31T11:32:22Z</time>
      </trkpt>
      <trkpt lat="42.43037" lon="0.06921">
        <ele>685.6</ele>
        <time>2016-07-31T11:32:24Z</time>
      </trkpt>
      <trkpt lat="42.43041" lon="0.0692">
        <ele>687.2</ele>
        <time>2016-07-31T11:32:26Z</time>
      </trkpt>
      <trkpt lat="42.43044" lon="0.06916">
        <ele>687.9</ele>
        <time>2016-07-31T11:32:28Z</time>
      </trkpt>
      <trkpt lat="42.43045" lon="0.06911">
        <ele>688.1</ele>
        <time>2016-07-31T11:32:30Z</time>
      </trkpt>
      <trkpt lat="42.43046" lon="0.06906">
        <ele>688</ele>
        <time>2016-07-31T11:32:32Z</time>
      </trkpt>
      <trkpt lat="42.43047" lon="0.06901">
        <ele>687.7</ele>
        <time>2016-07-31T11:32:34Z</time>
      </trkpt>
      <trkpt lat="42.43047" lon="0.06895">
        <ele>687.5</ele>
        <time>2016-07-31T11:32:36Z</time>
      </trkpt>
      <trkpt lat="42.43048" lon="0.0689">
        <ele>687.3</ele>
        <time>2016-07-31T11:32:38Z</time>
      </trkpt>
      <trkpt lat="42.43047" lon="0.06885">
        <ele>686.9</ele>
        <time>2016-07-31T11:32:40Z</time>
      </trkpt>
      <trkpt lat="42.43047" lon="0.0688">
        <ele>686.4</ele>
        <time>2016-07-31T11:32:42Z</time>
      </trkpt>
      <trkpt lat="42.43047" lon="0.06875">
        <ele>686</ele>
        <time>2016-07-31T11:32:44Z</time>
      </trkpt>
      <trkpt lat="42.43047" lon="0.0687">
        <ele>686.1</ele>
        <time>2016-07-31T11:32:46Z</time>
      </trkpt>
      <trkpt lat="42.43047" lon="0.06866">
        <ele>686.2</ele>
        <time>2016-07-31T11:32:48Z</time>
      </trkpt>
      <trkpt lat="42.43048" lon="0.0686">
        <ele>686.6</ele>
        <time>2016-07-31T11:32:50Z</time>
      </trkpt>
      <trkpt lat="42.4305" lon="0.06856">
        <ele>687.3</ele>
        <time>2016-07-31T11:32:52Z</time>
      </trkpt>
      <trkpt lat="42.43052" lon="0.06853">
        <ele>688.1</ele>
        <time>2016-07-31T11:32:54Z</time>
      </trkpt>
      <trkpt lat="42.43054" lon="0.06849">
        <ele>688.8</ele>
        <time>2016-07-31T11:32:56Z</time>
      </trkpt>
      <trkpt lat="42.43055" lon="0.06844">
        <ele>689.4</ele>
        <time>2016-07-31T11:32:59Z</time>
      </trkpt>
      <trkpt lat="42.43056" lon="0.0684">
        <ele>689.9</ele>
        <time>2016-07-31T11:33:01Z</time>
      </trkpt>
      <trkpt lat="42.43058" lon="0.06836">
        <ele>690.5</ele>
        <time>2016-07-31T11:33:04Z</time>
      </trkpt>
      <trkpt lat="42.43059" lon="0.06831">
        <ele>691.3</ele>
        <time>2016-07-31T11:33:07Z</time>
      </trkpt>
      <trkpt lat="42.43061" lon="0.06828">
        <ele>692.1</ele>
        <time>2016-07-31T11:33:09Z</time>
      </trkpt>
      <trkpt lat="42.43063" lon="0.06825">
        <ele>692.9</ele>
        <time>2016-07-31T11:33:11Z</time>
      </trkpt>
      <trkpt lat="42.43065" lon="0.06823">
        <ele>693.7</ele>
        <time>2016-07-31T11:33:13Z</time>
      </trkpt>
      <trkpt lat="42.43067" lon="0.06821">
        <ele>694.6</ele>
        <time>2016-07-31T11:33:15Z</time>
      </trkpt>
      <trkpt lat="42.43071" lon="0.06818">
        <ele>696.2</ele>
        <time>2016-07-31T11:33:18Z</time>
      </trkpt>
      <trkpt lat="42.43074" lon="0.06818">
        <ele>697.3</ele>
        <time>2016-07-31T11:33:20Z</time>
      </trkpt>
      <trkpt lat="42.43077" lon="0.0682">
        <ele>698.9</ele>
        <time>2016-07-31T11:33:23Z</time>
      </trkpt>
      <trkpt lat="42.4308" lon="0.06821">
        <ele>699.9</ele>
        <time>2016-07-31T11:33:25Z</time>
      </trkpt>
      <trkpt lat="42.43084" lon="0.06823">
        <ele>701.4</ele>
        <time>2016-07-31T11:33:28Z</time>
      </trkpt>
      <trkpt lat="42.43087" lon="0.06826">
        <ele>702.6</ele>
        <time>2016-07-31T11:33:31Z</time>
      </trkpt>
      <trkpt lat="42.43089" lon="0.06828">
        <ele>703.5</ele>
        <time>2016-07-31T11:33:33Z</time>
      </trkpt>
      <trkpt lat="42.43092" lon="0.06829">
        <ele>704.7</ele>
        <time>2016-07-31T11:33:35Z</time>
      </trkpt>
      <trkpt lat="42.43095" lon="0.06829">
        <ele>705.9</ele>
        <time>2016-07-31T11:33:37Z</time>
      </trkpt>
      <trkpt lat="42.43098" lon="0.06827">
        <ele>707.1</ele>
        <time>2016-07-31T11:33:39Z</time>
      </trkpt>
      <trkpt lat="42.43101" lon="0.06825">
        <ele>708.3</ele>
        <time>2016-07-31T11:33:41Z</time>
      </trkpt>
      <trkpt lat="42.43103" lon="0.06823">
        <ele>709.4</ele>
        <time>2016-07-31T11:33:43Z</time>
      </trkpt>
      <trkpt lat="42.43105" lon="0.0682">
        <ele>710.3</ele>
        <time>2016-07-31T11:33:45Z</time>
      </trkpt>
      <trkpt lat="42.43106" lon="0.06816">
        <ele>710.9</ele>
        <time>2016-07-31T11:33:47Z</time>
      </trkpt>
      <trkpt lat="42.43106" lon="0.06811">
        <ele>711.1</ele>
        <time>2016-07-31T11:33:49Z</time>
      </trkpt>
      <trkpt lat="42.43106" lon="0.06807">
        <ele>711.1</ele>
        <time>2016-07-31T11:33:51Z</time>
      </trkpt>
      <trkpt lat="42.43105" lon="0.06803">
        <ele>711</ele>
        <time>2016-07-31T11:33:53Z</time>
      </trkpt>
      <trkpt lat="42.43104" lon="0.06797">
        <ele>710.5</ele>
        <time>2016-07-31T11:33:55Z</time>
      </trkpt>
      <trkpt lat="42.43102" lon="0.06792">
        <ele>709.9</ele>
        <time>2016-07-31T11:33:57Z</time>
      </trkpt>
      <trkpt lat="42.43102" lon="0.06788">
        <ele>710.4</ele>
        <time>2016-07-31T11:34:07Z</time>
      </trkpt>
      <trkpt lat="42.43105" lon="0.06786">
        <ele>711.6</ele>
        <time>2016-07-31T11:34:11Z</time>
      </trkpt>
      <trkpt lat="42.43107" lon="0.06785">
        <ele>712.9</ele>
        <time>2016-07-31T11:34:17Z</time>
      </trkpt>
      <trkpt lat="42.43108" lon="0.06781">
        <ele>713.4</ele>
        <time>2016-07-31T11:34:24Z</time>
      </trkpt>
      <trkpt lat="42.43109" lon="0.06776">
        <ele>714.3</ele>
        <time>2016-07-31T11:34:28Z</time>
      </trkpt>
      <trkpt lat="42.4311" lon="0.06772">
        <ele>715</ele>
        <time>2016-07-31T11:34:31Z</time>
      </trkpt>
      <trkpt lat="42.4311" lon="0.06768">
        <ele>715.2</ele>
        <time>2016-07-31T11:34:36Z</time>
      </trkpt>
      <trkpt lat="42.4311" lon="0.06763">
        <ele>715.5</ele>
        <time>2016-07-31T11:34:39Z</time>
      </trkpt>
      <trkpt lat="42.4311" lon="0.06759">
        <ele>716</ele>
        <time>2016-07-31T11:34:43Z</time>
      </trkpt>
      <trkpt lat="42.43109" lon="0.06755">
        <ele>715.9</ele>
        <time>2016-07-31T11:34:47Z</time>
      </trkpt>
      <trkpt lat="42.43107" lon="0.06752">
        <ele>715.4</ele>
        <time>2016-07-31T11:34:50Z</time>
      </trkpt>
      <trkpt lat="42.43106" lon="0.06748">
        <ele>715.1</ele>
        <time>2016-07-31T11:34:54Z</time>
      </trkpt>
      <trkpt lat="42.43106" lon="0.06743">
        <ele>715.5</ele>
        <time>2016-07-31T11:34:58Z</time>
      </trkpt>
      <trkpt lat="42.43106" lon="0.06739">
        <ele>715.8</ele>
        <time>2016-07-31T11:35:01Z</time>
      </trkpt>
      <trkpt lat="42.43107" lon="0.06735">
        <ele>716.3</ele>
        <time>2016-07-31T11:35:04Z</time>
      </trkpt>
      <trkpt lat="42.43106" lon="0.06731">
        <ele>716.5</ele>
        <time>2016-07-31T11:35:07Z</time>
      </trkpt>
      <trkpt lat="42.43105" lon="0.06727">
        <ele>716.1</ele>
        <time>2016-07-31T11:35:13Z</time>
      </trkpt>
      <trkpt lat="42.43103" lon="0.06722">
        <ele>715.7</ele>
        <time>2016-07-31T11:35:16Z</time>
      </trkpt>
      <trkpt lat="42.43101" lon="0.06719">
        <ele>715.2</ele>
        <time>2016-07-31T11:35:19Z</time>
      </trkpt>
      <trkpt lat="42.431" lon="0.06715">
        <ele>714.6</ele>
        <time>2016-07-31T11:35:22Z</time>
      </trkpt>
      <trkpt lat="42.43099" lon="0.06711">
        <ele>714.4</ele>
        <time>2016-07-31T11:35:25Z</time>
      </trkpt>
      <trkpt lat="42.43098" lon="0.06707">
        <ele>714.6</ele>
        <time>2016-07-31T11:35:28Z</time>
      </trkpt>
      <trkpt lat="42.43097" lon="0.06703">
        <ele>714.4</ele>
        <time>2016-07-31T11:35:31Z</time>
      </trkpt>
      <trkpt lat="42.43096" lon="0.06698">
        <ele>714.7</ele>
        <time>2016-07-31T11:35:34Z</time>
      </trkpt>
      <trkpt lat="42.43098" lon="0.06695">
        <ele>715.8</ele>
        <time>2016-07-31T11:35:36Z</time>
      </trkpt>
      <trkpt lat="42.43099" lon="0.06691">
        <ele>716.9</ele>
        <time>2016-07-31T11:35:39Z</time>
      </trkpt>
      <trkpt lat="42.43099" lon="0.06687">
        <ele>717.6</ele>
        <time>2016-07-31T11:35:42Z</time>
      </trkpt>
      <trkpt lat="42.431" lon="0.06681">
        <ele>718.6</ele>
        <time>2016-07-31T11:35:44Z</time>
      </trkpt>
      <trkpt lat="42.431" lon="0.06676">
        <ele>719</ele>
        <time>2016-07-31T11:35:46Z</time>
      </trkpt>
      <trkpt lat="42.43098" lon="0.06673">
        <ele>718.7</ele>
        <time>2016-07-31T11:35:48Z</time>
      </trkpt>
      <trkpt lat="42.43101" lon="0.0667">
        <ele>720.4</ele>
        <time>2016-07-31T11:35:53Z</time>
      </trkpt>
      <trkpt lat="42.43103" lon="0.06668">
        <ele>721.9</ele>
        <time>2016-07-31T11:35:57Z</time>
      </trkpt>
      <trkpt lat="42.43105" lon="0.06664">
        <ele>723.1</ele>
        <time>2016-07-31T11:36:00Z</time>
      </trkpt>
      <trkpt lat="42.43104" lon="0.06659">
        <ele>723.3</ele>
        <time>2016-07-31T11:36:03Z</time>
      </trkpt>
      <trkpt lat="42.43102" lon="0.06654">
        <ele>723</ele>
        <time>2016-07-31T11:36:06Z</time>
      </trkpt>
      <trkpt lat="42.43101" lon="0.06649">
        <ele>723</ele>
        <time>2016-07-31T11:36:08Z</time>
      </trkpt>
      <trkpt lat="42.431" lon="0.06645">
        <ele>723</ele>
        <time>2016-07-31T11:36:09Z</time>
      </trkpt>
      <trkpt lat="42.43099" lon="0.06641">
        <ele>723</ele>
        <time>2016-07-31T11:36:10Z</time>
      </trkpt>
      <trkpt lat="42.43098" lon="0.06637">
        <ele>722.9</ele>
        <time>2016-07-31T11:36:11Z</time>
      </trkpt>
      <trkpt lat="42.43097" lon="0.06634">
        <ele>722.7</ele>
        <time>2016-07-31T11:36:12Z</time>
      </trkpt>
      <trkpt lat="42.43096" lon="0.06631">
        <ele>722.4</ele>
        <time>2016-07-31T11:36:13Z</time>
      </trkpt>
      <trkpt lat="42.43095" lon="0.06627">
        <ele>722</ele>
        <time>2016-07-31T11:36:14Z</time>
      </trkpt>
      <trkpt lat="42.43094" lon="0.06624">
        <ele>721.4</ele>
        <time>2016-07-31T11:36:15Z</time>
      </trkpt>
      <trkpt lat="42.43091" lon="0.06619">
        <ele>719.8</ele>
        <time>2016-07-31T11:36:17Z</time>
      </trkpt>
      <trkpt lat="42.43089" lon="0.06614">
        <ele>718.4</ele>
        <time>2016-07-31T11:36:19Z</time>
      </trkpt>
      <trkpt lat="42.43086" lon="0.06609">
        <ele>716.5</ele>
        <time>2016-07-31T11:36:21Z</time>
      </trkpt>
      <trkpt lat="42.43083" lon="0.06603">
        <ele>714.5</ele>
        <time>2016-07-31T11:36:23Z</time>
      </trkpt>
      <trkpt lat="42.43081" lon="0.06599">
        <ele>713.3</ele>
        <time>2016-07-31T11:36:24Z</time>
      </trkpt>
      <trkpt lat="42.4308" lon="0.06596">
        <ele>712.1</ele>
        <time>2016-07-31T11:36:25Z</time>
      </trkpt>
      <trkpt lat="42.43077" lon="0.06593">
        <ele>710.7</ele>
        <time>2016-07-31T11:36:26Z</time>
      </trkpt>
      <trkpt lat="42.43075" lon="0.06589">
        <ele>709.4</ele>
        <time>2016-07-31T11:36:27Z</time>
      </trkpt>
      <trkpt lat="42.43074" lon="0.06586">
        <ele>708.3</ele>
        <time>2016-07-31T11:36:28Z</time>
      </trkpt>
      <trkpt lat="42.43073" lon="0.06582">
        <ele>707.6</ele>
        <time>2016-07-31T11:36:29Z</time>
      </trkpt>
      <trkpt lat="42.43072" lon="0.06578">
        <ele>707.3</ele>
        <time>2016-07-31T11:36:30Z</time>
      </trkpt>
      <trkpt lat="42.43072" lon="0.06572">
        <ele>707.1</ele>
        <time>2016-07-31T11:36:32Z</time>
      </trkpt>
      <trkpt lat="42.43071" lon="0.06565">
        <ele>706.3</ele>
        <time>2016-07-31T11:36:34Z</time>
      </trkpt>
      <trkpt lat="42.43071" lon="0.06558">
        <ele>705.9</ele>
        <time>2016-07-31T11:36:36Z</time>
      </trkpt>
      <trkpt lat="42.43071" lon="0.06551">
        <ele>705.4</ele>
        <time>2016-07-31T11:36:38Z</time>
      </trkpt>
      <trkpt lat="42.4307" lon="0.06547">
        <ele>705.1</ele>
        <time>2016-07-31T11:36:39Z</time>
      </trkpt>
      <trkpt lat="42.43071" lon="0.0654">
        <ele>704.6</ele>
        <time>2016-07-31T11:36:41Z</time>
      </trkpt>
      <trkpt lat="42.43071" lon="0.06536">
        <ele>704.3</ele>
        <time>2016-07-31T11:36:42Z</time>
      </trkpt>
      <trkpt lat="42.43072" lon="0.0653">
        <ele>704</ele>
        <time>2016-07-31T11:36:44Z</time>
      </trkpt>
      <trkpt lat="42.43075" lon="0.06525">
        <ele>704.2</ele>
        <time>2016-07-31T11:36:46Z</time>
      </trkpt>
      <trkpt lat="42.43076" lon="0.06521">
        <ele>704.4</ele>
        <time>2016-07-31T11:36:48Z</time>
      </trkpt>
      <trkpt lat="42.43079" lon="0.06515">
        <ele>704.5</ele>
        <time>2016-07-31T11:36:50Z</time>
      </trkpt>
      <trkpt lat="42.43081" lon="0.06509">
        <ele>704.8</ele>
        <time>2016-07-31T11:36:52Z</time>
      </trkpt>
      <trkpt lat="42.43084" lon="0.06504">
        <ele>705.2</ele>
        <time>2016-07-31T11:36:54Z</time>
      </trkpt>
      <trkpt lat="42.43088" lon="0.06498">
        <ele>705.5</ele>
        <time>2016-07-31T11:36:56Z</time>
      </trkpt>
      <trkpt lat="42.43089" lon="0.06494">
        <ele>705.4</ele>
        <time>2016-07-31T11:36:57Z</time>
      </trkpt>
      <trkpt lat="42.43091" lon="0.0649">
        <ele>705.4</ele>
        <time>2016-07-31T11:36:58Z</time>
      </trkpt>
      <trkpt lat="42.43093" lon="0.06486">
        <ele>705.4</ele>
        <time>2016-07-31T11:36:59Z</time>
      </trkpt>
      <trkpt lat="42.43095" lon="0.06483">
        <ele>705.6</ele>
        <time>2016-07-31T11:37:00Z</time>
      </trkpt>
      <trkpt lat="42.43097" lon="0.0648">
        <ele>705.8</ele>
        <time>2016-07-31T11:37:01Z</time>
      </trkpt>
      <trkpt lat="42.431" lon="0.06476">
        <ele>706.1</ele>
        <time>2016-07-31T11:37:03Z</time>
      </trkpt>
      <trkpt lat="42.43102" lon="0.06472">
        <ele>706</ele>
        <time>2016-07-31T11:37:05Z</time>
      </trkpt>
      <trkpt lat="42.43105" lon="0.06466">
        <ele>705.7</ele>
        <time>2016-07-31T11:37:07Z</time>
      </trkpt>
      <trkpt lat="42.43107" lon="0.06462">
        <ele>705.3</ele>
        <time>2016-07-31T11:37:08Z</time>
      </trkpt>
      <trkpt lat="42.43108" lon="0.06458">
        <ele>704.9</ele>
        <time>2016-07-31T11:37:09Z</time>
      </trkpt>
      <trkpt lat="42.4311" lon="0.06455">
        <ele>704.9</ele>
        <time>2016-07-31T11:37:10Z</time>
      </trkpt>
      <trkpt lat="42.43114" lon="0.06451">
        <ele>705.2</ele>
        <time>2016-07-31T11:37:12Z</time>
      </trkpt>
      <trkpt lat="42.43117" lon="0.06446">
        <ele>705.5</ele>
        <time>2016-07-31T11:37:14Z</time>
      </trkpt>
      <trkpt lat="42.4312" lon="0.06443">
        <ele>705.7</ele>
        <time>2016-07-31T11:37:15Z</time>
      </trkpt>
      <trkpt lat="42.43123" lon="0.06441">
        <ele>706.1</ele>
        <time>2016-07-31T11:37:16Z</time>
      </trkpt>
      <trkpt lat="42.43126" lon="0.06439">
        <ele>706.7</ele>
        <time>2016-07-31T11:37:17Z</time>
      </trkpt>
      <trkpt lat="42.43129" lon="0.06437">
        <ele>707.5</ele>
        <time>2016-07-31T11:37:18Z</time>
      </trkpt>
      <trkpt lat="42.43132" lon="0.06435">
        <ele>708.5</ele>
        <time>2016-07-31T11:37:20Z</time>
      </trkpt>
      <trkpt lat="42.43136" lon="0.06432">
        <ele>709.2</ele>
        <time>2016-07-31T11:37:22Z</time>
      </trkpt>
      <trkpt lat="42.43139" lon="0.06429">
        <ele>709.8</ele>
        <time>2016-07-31T11:37:24Z</time>
      </trkpt>
      <trkpt lat="42.43143" lon="0.06425">
        <ele>710.3</ele>
        <time>2016-07-31T11:37:26Z</time>
      </trkpt>
      <trkpt lat="42.43145" lon="0.06422">
        <ele>710.4</ele>
        <time>2016-07-31T11:37:27Z</time>
      </trkpt>
      <trkpt lat="42.43147" lon="0.06419">
        <ele>710.5</ele>
        <time>2016-07-31T11:37:28Z</time>
      </trkpt>
      <trkpt lat="42.4315" lon="0.06416">
        <ele>710.6</ele>
        <time>2016-07-31T11:37:29Z</time>
      </trkpt>
      <trkpt lat="42.43152" lon="0.06413">
        <ele>710.8</ele>
        <time>2016-07-31T11:37:30Z</time>
      </trkpt>
      <trkpt lat="42.43154" lon="0.06411">
        <ele>711.2</ele>
        <time>2016-07-31T11:37:31Z</time>
      </trkpt>
      <trkpt lat="42.43157" lon="0.06409">
        <ele>711.5</ele>
        <time>2016-07-31T11:37:32Z</time>
      </trkpt>
      <trkpt lat="42.43159" lon="0.06406">
        <ele>711.6</ele>
        <time>2016-07-31T11:37:33Z</time>
      </trkpt>
      <trkpt lat="42.43161" lon="0.06403">
        <ele>711.4</ele>
        <time>2016-07-31T11:37:34Z</time>
      </trkpt>
      <trkpt lat="42.43163" lon="0.06399">
        <ele>711.1</ele>
        <time>2016-07-31T11:37:35Z</time>
      </trkpt>
      <trkpt lat="42.43164" lon="0.06396">
        <ele>710.7</ele>
        <time>2016-07-31T11:37:36Z</time>
      </trkpt>
      <trkpt lat="42.43165" lon="0.06393">
        <ele>710.3</ele>
        <time>2016-07-31T11:37:37Z</time>
      </trkpt>
      <trkpt lat="42.43167" lon="0.0639">
        <ele>709.8</ele>
        <time>2016-07-31T11:37:38Z</time>
      </trkpt>
      <trkpt lat="42.43169" lon="0.06386">
        <ele>709.6</ele>
        <time>2016-07-31T11:37:39Z</time>
      </trkpt>
      <trkpt lat="42.43171" lon="0.06383">
        <ele>709.5</ele>
        <time>2016-07-31T11:37:40Z</time>
      </trkpt>
      <trkpt lat="42.43174" lon="0.0638">
        <ele>709.5</ele>
        <time>2016-07-31T11:37:41Z</time>
      </trkpt>
      <trkpt lat="42.43176" lon="0.06377">
        <ele>709.5</ele>
        <time>2016-07-31T11:37:42Z</time>
      </trkpt>
      <trkpt lat="42.43179" lon="0.06374">
        <ele>709.5</ele>
        <time>2016-07-31T11:37:43Z</time>
      </trkpt>
      <trkpt lat="42.4318" lon="0.06371">
        <ele>709.2</ele>
        <time>2016-07-31T11:37:44Z</time>
      </trkpt>
      <trkpt lat="42.43182" lon="0.06367">
        <ele>708.7</ele>
        <time>2016-07-31T11:37:45Z</time>
      </trkpt>
      <trkpt lat="42.43184" lon="0.06363">
        <ele>708.1</ele>
        <time>2016-07-31T11:37:46Z</time>
      </trkpt>
      <trkpt lat="42.43185" lon="0.06359">
        <ele>707.6</ele>
        <time>2016-07-31T11:37:47Z</time>
      </trkpt>
      <trkpt lat="42.43187" lon="0.06356">
        <ele>707.1</ele>
        <time>2016-07-31T11:37:48Z</time>
      </trkpt>
      <trkpt lat="42.43188" lon="0.06352">
        <ele>706.7</ele>
        <time>2016-07-31T11:37:49Z</time>
      </trkpt>
      <trkpt lat="42.43192" lon="0.06347">
        <ele>706.5</ele>
        <time>2016-07-31T11:37:51Z</time>
      </trkpt>
      <trkpt lat="42.43194" lon="0.06345">
        <ele>706.6</ele>
        <time>2016-07-31T11:37:52Z</time>
      </trkpt>
      <trkpt lat="42.43197" lon="0.06343">
        <ele>706.8</ele>
        <time>2016-07-31T11:37:53Z</time>
      </trkpt>
      <trkpt lat="42.43199" lon="0.06341">
        <ele>706.8</ele>
        <time>2016-07-31T11:37:54Z</time>
      </trkpt>
      <trkpt lat="42.43202" lon="0.06337">
        <ele>706.7</ele>
        <time>2016-07-31T11:37:56Z</time>
      </trkpt>
      <trkpt lat="42.43205" lon="0.06334">
        <ele>706.5</ele>
        <time>2016-07-31T11:38:03Z</time>
      </trkpt>
      <trkpt lat="42.43209" lon="0.06332">
        <ele>707.3</ele>
        <time>2016-07-31T11:38:05Z</time>
      </trkpt>
      <trkpt lat="42.43212" lon="0.0633">
        <ele>707.8</ele>
        <time>2016-07-31T11:38:14Z</time>
      </trkpt>
      <trkpt lat="42.43213" lon="0.06325">
        <ele>706.4</ele>
        <time>2016-07-31T11:38:18Z</time>
      </trkpt>
      <trkpt lat="42.43212" lon="0.0632">
        <ele>705</ele>
        <time>2016-07-31T11:38:22Z</time>
      </trkpt>
      <trkpt lat="42.43213" lon="0.06316">
        <ele>703.8</ele>
        <time>2016-07-31T11:38:24Z</time>
      </trkpt>
      <trkpt lat="42.43215" lon="0.06309">
        <ele>702.5</ele>
        <time>2016-07-31T11:38:26Z</time>
      </trkpt>
      <trkpt lat="42.43218" lon="0.06306">
        <ele>702.2</ele>
        <time>2016-07-31T11:38:28Z</time>
      </trkpt>
      <trkpt lat="42.43221" lon="0.06306">
        <ele>703.4</ele>
        <time>2016-07-31T11:38:35Z</time>
      </trkpt>
      <trkpt lat="42.43224" lon="0.06308">
        <ele>704.8</ele>
        <time>2016-07-31T11:38:38Z</time>
      </trkpt>
      <trkpt lat="42.43227" lon="0.06309">
        <ele>706.3</ele>
        <time>2016-07-31T11:38:41Z</time>
      </trkpt>
      <trkpt lat="42.43229" lon="0.06311">
        <ele>707.7</ele>
        <time>2016-07-31T11:38:45Z</time>
      </trkpt>
      <trkpt lat="42.43233" lon="0.06309">
        <ele>708.2</ele>
        <time>2016-07-31T11:38:52Z</time>
      </trkpt>
      <trkpt lat="42.43236" lon="0.06307">
        <ele>708.6</ele>
        <time>2016-07-31T11:38:57Z</time>
      </trkpt>
      <trkpt lat="42.43238" lon="0.06308">
        <ele>709.7</ele>
        <time>2016-07-31T11:39:01Z</time>
      </trkpt>
      <trkpt lat="42.43241" lon="0.06308">
        <ele>710.7</ele>
        <time>2016-07-31T11:39:05Z</time>
      </trkpt>
      <trkpt lat="42.43244" lon="0.06307">
        <ele>711.3</ele>
        <time>2016-07-31T11:39:13Z</time>
      </trkpt>
      <trkpt lat="42.43247" lon="0.06308">
        <ele>712.5</ele>
        <time>2016-07-31T11:39:19Z</time>
      </trkpt>
      <trkpt lat="42.43251" lon="0.06308">
        <ele>713.8</ele>
        <time>2016-07-31T11:39:22Z</time>
      </trkpt>
      <trkpt lat="42.43254" lon="0.06307">
        <ele>714.6</ele>
        <time>2016-07-31T11:39:25Z</time>
      </trkpt>
      <trkpt lat="42.43257" lon="0.06305">
        <ele>715.1</ele>
        <time>2016-07-31T11:39:29Z</time>
      </trkpt>
      <trkpt lat="42.43259" lon="0.06303">
        <ele>715.1</ele>
        <time>2016-07-31T11:39:32Z</time>
      </trkpt>
      <trkpt lat="42.43262" lon="0.063">
        <ele>715.1</ele>
        <time>2016-07-31T11:39:36Z</time>
      </trkpt>
      <trkpt lat="42.43265" lon="0.06301">
        <ele>716.2</ele>
        <time>2016-07-31T11:39:41Z</time>
      </trkpt>
      <trkpt lat="42.43268" lon="0.063">
        <ele>717</ele>
        <time>2016-07-31T11:39:43Z</time>
      </trkpt>
      <trkpt lat="42.43273" lon="0.06301">
        <ele>718.9</ele>
        <time>2016-07-31T11:39:45Z</time>
      </trkpt>
      <trkpt lat="42.43275" lon="0.06303">
        <ele>720.3</ele>
        <time>2016-07-31T11:39:46Z</time>
      </trkpt>
      <trkpt lat="42.4328" lon="0.06305">
        <ele>722.4</ele>
        <time>2016-07-31T11:39:48Z</time>
      </trkpt>
      <trkpt lat="42.43282" lon="0.06303">
        <ele>722.5</ele>
        <time>2016-07-31T11:39:55Z</time>
      </trkpt>
      <trkpt lat="42.43286" lon="0.06301">
        <ele>723.3</ele>
        <time>2016-07-31T11:40:01Z</time>
      </trkpt>
      <trkpt lat="42.4329" lon="0.06301">
        <ele>724.5</ele>
        <time>2016-07-31T11:40:03Z</time>
      </trkpt>
      <trkpt lat="42.43295" lon="0.063">
        <ele>724.8</ele>
        <time>2016-07-31T11:40:05Z</time>
      </trkpt>
      <trkpt lat="42.43297" lon="0.06298">
        <ele>724.5</ele>
        <time>2016-07-31T11:40:06Z</time>
      </trkpt>
      <trkpt lat="42.43301" lon="0.06296">
        <ele>724</ele>
        <time>2016-07-31T11:40:08Z</time>
      </trkpt>
      <trkpt lat="42.43304" lon="0.06295">
        <ele>723.8</ele>
        <time>2016-07-31T11:40:10Z</time>
      </trkpt>
      <trkpt lat="42.43307" lon="0.06295">
        <ele>724</ele>
        <time>2016-07-31T11:40:15Z</time>
      </trkpt>
      <trkpt lat="42.43308" lon="0.06299">
        <ele>725.5</ele>
        <time>2016-07-31T11:40:18Z</time>
      </trkpt>
      <trkpt lat="42.43308" lon="0.06304">
        <ele>727</ele>
        <time>2016-07-31T11:40:21Z</time>
      </trkpt>
      <trkpt lat="42.4331" lon="0.06307">
        <ele>728.2</ele>
        <time>2016-07-31T11:40:24Z</time>
      </trkpt>
      <trkpt lat="42.43312" lon="0.06311">
        <ele>729.5</ele>
        <time>2016-07-31T11:40:28Z</time>
      </trkpt>
      <trkpt lat="42.43315" lon="0.06312">
        <ele>730.2</ele>
        <time>2016-07-31T11:40:31Z</time>
      </trkpt>
      <trkpt lat="42.43318" lon="0.06311">
        <ele>730.2</ele>
        <time>2016-07-31T11:40:35Z</time>
      </trkpt>
      <trkpt lat="42.4332" lon="0.06316">
        <ele>731.8</ele>
        <time>2016-07-31T11:40:40Z</time>
      </trkpt>
      <trkpt lat="42.43321" lon="0.06319">
        <ele>733.1</ele>
        <time>2016-07-31T11:40:45Z</time>
      </trkpt>
      <trkpt lat="42.43323" lon="0.06323">
        <ele>734.3</ele>
        <time>2016-07-31T11:40:48Z</time>
      </trkpt>
      <trkpt lat="42.43325" lon="0.06325">
        <ele>735.4</ele>
        <time>2016-07-31T11:40:51Z</time>
      </trkpt>
      <trkpt lat="42.43329" lon="0.06324">
        <ele>735</ele>
        <time>2016-07-31T11:40:54Z</time>
      </trkpt>
      <trkpt lat="42.43331" lon="0.0632">
        <ele>734.1</ele>
        <time>2016-07-31T11:40:57Z</time>
      </trkpt>
      <trkpt lat="42.43333" lon="0.06317">
        <ele>733.2</ele>
        <time>2016-07-31T11:41:01Z</time>
      </trkpt>
      <trkpt lat="42.43336" lon="0.06318">
        <ele>733.7</ele>
        <time>2016-07-31T11:41:05Z</time>
      </trkpt>
      <trkpt lat="42.43338" lon="0.06322">
        <ele>735</ele>
        <time>2016-07-31T11:41:08Z</time>
      </trkpt>
      <trkpt lat="42.4334" lon="0.06326">
        <ele>736.9</ele>
        <time>2016-07-31T11:41:10Z</time>
      </trkpt>
      <trkpt lat="42.43343" lon="0.06328">
        <ele>737.7</ele>
        <time>2016-07-31T11:41:14Z</time>
      </trkpt>
      <trkpt lat="42.43348" lon="0.06329">
        <ele>738.5</ele>
        <time>2016-07-31T11:41:17Z</time>
      </trkpt>
      <trkpt lat="42.43351" lon="0.06329">
        <ele>738.4</ele>
        <time>2016-07-31T11:41:20Z</time>
      </trkpt>
      <trkpt lat="42.43354" lon="0.06327">
        <ele>738.1</ele>
        <time>2016-07-31T11:41:24Z</time>
      </trkpt>
      <trkpt lat="42.43357" lon="0.06324">
        <ele>737.4</ele>
        <time>2016-07-31T11:41:27Z</time>
      </trkpt>
      <trkpt lat="42.4336" lon="0.06325">
        <ele>737.8</ele>
        <time>2016-07-31T11:41:31Z</time>
      </trkpt>
      <trkpt lat="42.43364" lon="0.06328">
        <ele>739.4</ele>
        <time>2016-07-31T11:41:35Z</time>
      </trkpt>
      <trkpt lat="42.43366" lon="0.06331">
        <ele>740.6</ele>
        <time>2016-07-31T11:41:37Z</time>
      </trkpt>
      <trkpt lat="42.43368" lon="0.06334">
        <ele>741.8</ele>
        <time>2016-07-31T11:41:39Z</time>
      </trkpt>
      <trkpt lat="42.43371" lon="0.06336">
        <ele>742.6</ele>
        <time>2016-07-31T11:41:41Z</time>
      </trkpt>
      <trkpt lat="42.43375" lon="0.06337">
        <ele>743.4</ele>
        <time>2016-07-31T11:41:43Z</time>
      </trkpt>
      <trkpt lat="42.43378" lon="0.06341">
        <ele>744</ele>
        <time>2016-07-31T11:41:45Z</time>
      </trkpt>
      <trkpt lat="42.4338" lon="0.06346">
        <ele>745.3</ele>
        <time>2016-07-31T11:41:47Z</time>
      </trkpt>
      <trkpt lat="42.43382" lon="0.06348">
        <ele>745.3</ele>
        <time>2016-07-31T11:41:50Z</time>
      </trkpt>
      <trkpt lat="42.43385" lon="0.06352">
        <ele>745.6</ele>
        <time>2016-07-31T11:41:52Z</time>
      </trkpt>
      <trkpt lat="42.43388" lon="0.06355">
        <ele>746.3</ele>
        <time>2016-07-31T11:41:54Z</time>
      </trkpt>
      <trkpt lat="42.43391" lon="0.06359">
        <ele>746.3</ele>
        <time>2016-07-31T11:41:56Z</time>
      </trkpt>
      <trkpt lat="42.43395" lon="0.06364">
        <ele>747</ele>
        <time>2016-07-31T11:41:58Z</time>
      </trkpt>
      <trkpt lat="42.43396" lon="0.06367">
        <ele>747.6</ele>
        <time>2016-07-31T11:41:59Z</time>
      </trkpt>
      <trkpt lat="42.43399" lon="0.0637">
        <ele>747.7</ele>
        <time>2016-07-31T11:42:00Z</time>
      </trkpt>
      <trkpt lat="42.43403" lon="0.06372">
        <ele>747.3</ele>
        <time>2016-07-31T11:42:01Z</time>
      </trkpt>
      <trkpt lat="42.43406" lon="0.06374">
        <ele>746.9</ele>
        <time>2016-07-31T11:42:02Z</time>
      </trkpt>
      <trkpt lat="42.4341" lon="0.06377">
        <ele>746.4</ele>
        <time>2016-07-31T11:42:03Z</time>
      </trkpt>
      <trkpt lat="42.43415" lon="0.0638">
        <ele>746.2</ele>
        <time>2016-07-31T11:42:04Z</time>
      </trkpt>
      <trkpt lat="42.43418" lon="0.06384">
        <ele>746.2</ele>
        <time>2016-07-31T11:42:05Z</time>
      </trkpt>
      <trkpt lat="42.4342" lon="0.06389">
        <ele>746.8</ele>
        <time>2016-07-31T11:42:06Z</time>
      </trkpt>
      <trkpt lat="42.43422" lon="0.06394">
        <ele>747.5</ele>
        <time>2016-07-31T11:42:07Z</time>
      </trkpt>
      <trkpt lat="42.43424" lon="0.06398">
        <ele>748.1</ele>
        <time>2016-07-31T11:42:08Z</time>
      </trkpt>
      <trkpt lat="42.43425" lon="0.06402">
        <ele>748.8</ele>
        <time>2016-07-31T11:42:09Z</time>
      </trkpt>
      <trkpt lat="42.43426" lon="0.06406">
        <ele>749.5</ele>
        <time>2016-07-31T11:42:10Z</time>
      </trkpt>
      <trkpt lat="42.43427" lon="0.0641">
        <ele>750.1</ele>
        <time>2016-07-31T11:42:11Z</time>
      </trkpt>
      <trkpt lat="42.43428" lon="0.06415">
        <ele>751.2</ele>
        <time>2016-07-31T11:42:13Z</time>
      </trkpt>
      <trkpt lat="42.4343" lon="0.06421">
        <ele>752.2</ele>
        <time>2016-07-31T11:42:15Z</time>
      </trkpt>
      <trkpt lat="42.43432" lon="0.06426">
        <ele>752.5</ele>
        <time>2016-07-31T11:42:17Z</time>
      </trkpt>
      <trkpt lat="42.43434" lon="0.06429">
        <ele>752.2</ele>
        <time>2016-07-31T11:42:18Z</time>
      </trkpt>
      <trkpt lat="42.43437" lon="0.06431">
        <ele>751.7</ele>
        <time>2016-07-31T11:42:19Z</time>
      </trkpt>
      <trkpt lat="42.4344" lon="0.06433">
        <ele>751.1</ele>
        <time>2016-07-31T11:42:21Z</time>
      </trkpt>
      <trkpt lat="42.43443" lon="0.06436">
        <ele>750.5</ele>
        <time>2016-07-31T11:42:23Z</time>
      </trkpt>
      <trkpt lat="42.43445" lon="0.06443">
        <ele>751</ele>
        <time>2016-07-31T11:42:25Z</time>
      </trkpt>
      <trkpt lat="42.43446" lon="0.06449">
        <ele>751.8</ele>
        <time>2016-07-31T11:42:26Z</time>
      </trkpt>
      <trkpt lat="42.43448" lon="0.06455">
        <ele>752.4</ele>
        <time>2016-07-31T11:42:27Z</time>
      </trkpt>
      <trkpt lat="42.4345" lon="0.06459">
        <ele>752.2</ele>
        <time>2016-07-31T11:42:29Z</time>
      </trkpt>
      <trkpt lat="42.43454" lon="0.0646">
        <ele>750.5</ele>
        <time>2016-07-31T11:42:31Z</time>
      </trkpt>
      <trkpt lat="42.43458" lon="0.06458">
        <ele>748.3</ele>
        <time>2016-07-31T11:42:33Z</time>
      </trkpt>
      <trkpt lat="42.43461" lon="0.06459">
        <ele>747</ele>
        <time>2016-07-31T11:42:36Z</time>
      </trkpt>
      <trkpt lat="42.43464" lon="0.06457">
        <ele>745.4</ele>
        <time>2016-07-31T11:42:39Z</time>
      </trkpt>
      <trkpt lat="42.43468" lon="0.0646">
        <ele>744.3</ele>
        <time>2016-07-31T11:42:41Z</time>
      </trkpt>
      <trkpt lat="42.43473" lon="0.06465">
        <ele>743.8</ele>
        <time>2016-07-31T11:42:43Z</time>
      </trkpt>
      <trkpt lat="42.43475" lon="0.06469">
        <ele>743.5</ele>
        <time>2016-07-31T11:42:44Z</time>
      </trkpt>
      <trkpt lat="42.43479" lon="0.06473">
        <ele>743.2</ele>
        <time>2016-07-31T11:42:45Z</time>
      </trkpt>
      <trkpt lat="42.43481" lon="0.06477">
        <ele>743</ele>
        <time>2016-07-31T11:42:46Z</time>
      </trkpt>
      <trkpt lat="42.43484" lon="0.06481">
        <ele>742.7</ele>
        <time>2016-07-31T11:42:47Z</time>
      </trkpt>
      <trkpt lat="42.43487" lon="0.06486">
        <ele>742.5</ele>
        <time>2016-07-31T11:42:48Z</time>
      </trkpt>
      <trkpt lat="42.4349" lon="0.06492">
        <ele>742</ele>
        <time>2016-07-31T11:42:49Z</time>
      </trkpt>
      <trkpt lat="42.43494" lon="0.06497">
        <ele>741.6</ele>
        <time>2016-07-31T11:42:50Z</time>
      </trkpt>
      <trkpt lat="42.43497" lon="0.06503">
        <ele>741.1</ele>
        <time>2016-07-31T11:42:51Z</time>
      </trkpt>
      <trkpt lat="42.43501" lon="0.06509">
        <ele>740.3</ele>
        <time>2016-07-31T11:42:52Z</time>
      </trkpt>
      <trkpt lat="42.43506" lon="0.06514">
        <ele>739.3</ele>
        <time>2016-07-31T11:42:53Z</time>
      </trkpt>
      <trkpt lat="42.4351" lon="0.06519">
        <ele>738.2</ele>
        <time>2016-07-31T11:42:54Z</time>
      </trkpt>
      <trkpt lat="42.43513" lon="0.06522">
        <ele>737</ele>
        <time>2016-07-31T11:42:55Z</time>
      </trkpt>
      <trkpt lat="42.43516" lon="0.06526">
        <ele>736.2</ele>
        <time>2016-07-31T11:42:56Z</time>
      </trkpt>
      <trkpt lat="42.43518" lon="0.06529">
        <ele>735.7</ele>
        <time>2016-07-31T11:42:57Z</time>
      </trkpt>
      <trkpt lat="42.4352" lon="0.06532">
        <ele>735.3</ele>
        <time>2016-07-31T11:42:58Z</time>
      </trkpt>
      <trkpt lat="42.43523" lon="0.06538">
        <ele>734.3</ele>
        <time>2016-07-31T11:43:00Z</time>
      </trkpt>
      <trkpt lat="42.43525" lon="0.06543">
        <ele>733.9</ele>
        <time>2016-07-31T11:43:01Z</time>
      </trkpt>
      <trkpt lat="42.43527" lon="0.06548">
        <ele>733.4</ele>
        <time>2016-07-31T11:43:02Z</time>
      </trkpt>
      <trkpt lat="42.43529" lon="0.06554">
        <ele>733.2</ele>
        <time>2016-07-31T11:43:03Z</time>
      </trkpt>
      <trkpt lat="42.4353" lon="0.06558">
        <ele>732.9</ele>
        <time>2016-07-31T11:43:04Z</time>
      </trkpt>
      <trkpt lat="42.43532" lon="0.06563">
        <ele>732.6</ele>
        <time>2016-07-31T11:43:05Z</time>
      </trkpt>
      <trkpt lat="42.43532" lon="0.06567">
        <ele>732.6</ele>
        <time>2016-07-31T11:43:06Z</time>
      </trkpt>
      <trkpt lat="42.43533" lon="0.06571">
        <ele>732.6</ele>
        <time>2016-07-31T11:43:07Z</time>
      </trkpt>
      <trkpt lat="42.43534" lon="0.06575">
        <ele>732.6</ele>
        <time>2016-07-31T11:43:08Z</time>
      </trkpt>
      <trkpt lat="42.43535" lon="0.06579">
        <ele>732.4</ele>
        <time>2016-07-31T11:43:09Z</time>
      </trkpt>
      <trkpt lat="42.43536" lon="0.06583">
        <ele>732.2</ele>
        <time>2016-07-31T11:43:10Z</time>
      </trkpt>
      <trkpt lat="42.43538" lon="0.0659">
        <ele>731.6</ele>
        <time>2016-07-31T11:43:12Z</time>
      </trkpt>
      <trkpt lat="42.43539" lon="0.06594">
        <ele>731.3</ele>
        <time>2016-07-31T11:43:13Z</time>
      </trkpt>
      <trkpt lat="42.4354" lon="0.06599">
        <ele>731.3</ele>
        <time>2016-07-31T11:43:14Z</time>
      </trkpt>
      <trkpt lat="42.43541" lon="0.06603">
        <ele>731.5</ele>
        <time>2016-07-31T11:43:15Z</time>
      </trkpt>
      <trkpt lat="42.43541" lon="0.06608">
        <ele>731.9</ele>
        <time>2016-07-31T11:43:16Z</time>
      </trkpt>
      <trkpt lat="42.43541" lon="0.06612">
        <ele>732.2</ele>
        <time>2016-07-31T11:43:17Z</time>
      </trkpt>
      <trkpt lat="42.43541" lon="0.06615">
        <ele>732.6</ele>
        <time>2016-07-31T11:43:18Z</time>
      </trkpt>
      <trkpt lat="42.43541" lon="0.06619">
        <ele>733.1</ele>
        <time>2016-07-31T11:43:19Z</time>
      </trkpt>
      <trkpt lat="42.43541" lon="0.06625">
        <ele>733.2</ele>
        <time>2016-07-31T11:43:21Z</time>
      </trkpt>
      <trkpt lat="42.43542" lon="0.06631">
        <ele>732.7</ele>
        <time>2016-07-31T11:43:23Z</time>
      </trkpt>
      <trkpt lat="42.43543" lon="0.06635">
        <ele>732.4</ele>
        <time>2016-07-31T11:43:25Z</time>
      </trkpt>
      <trkpt lat="42.43544" lon="0.06639">
        <ele>731.6</ele>
        <time>2016-07-31T11:43:28Z</time>
      </trkpt>
      <trkpt lat="42.43546" lon="0.06642">
        <ele>730.6</ele>
        <time>2016-07-31T11:43:37Z</time>
      </trkpt>
      <trkpt lat="42.43544" lon="0.06646">
        <ele>731.8</ele>
        <time>2016-07-31T11:43:43Z</time>
      </trkpt>
      <trkpt lat="42.43548" lon="0.06648">
        <ele>729.7</ele>
        <time>2016-07-31T11:43:50Z</time>
      </trkpt>
      <trkpt lat="42.43551" lon="0.06644">
        <ele>727.4</ele>
        <time>2016-07-31T11:43:52Z</time>
      </trkpt>
      <trkpt lat="42.43553" lon="0.06641">
        <ele>725.8</ele>
        <time>2016-07-31T11:43:54Z</time>
      </trkpt>
      <trkpt lat="42.43555" lon="0.06638">
        <ele>724.4</ele>
        <time>2016-07-31T11:44:03Z</time>
      </trkpt>
      <trkpt lat="42.43555" lon="0.06644">
        <ele>725.1</ele>
        <time>2016-07-31T11:44:09Z</time>
      </trkpt>
      <trkpt lat="42.43555" lon="0.06648">
        <ele>725.1</ele>
        <time>2016-07-31T11:44:10Z</time>
      </trkpt>
      <trkpt lat="42.43555" lon="0.06652">
        <ele>725</ele>
        <time>2016-07-31T11:44:11Z</time>
      </trkpt>
      <trkpt lat="42.43555" lon="0.06657">
        <ele>725.2</ele>
        <time>2016-07-31T11:44:12Z</time>
      </trkpt>
      <trkpt lat="42.43555" lon="0.06661">
        <ele>725.1</ele>
        <time>2016-07-31T11:44:13Z</time>
      </trkpt>
      <trkpt lat="42.43554" lon="0.06668">
        <ele>725.5</ele>
        <time>2016-07-31T11:44:15Z</time>
      </trkpt>
      <trkpt lat="42.43554" lon="0.06672">
        <ele>725.8</ele>
        <time>2016-07-31T11:44:16Z</time>
      </trkpt>
      <trkpt lat="42.43553" lon="0.06679">
        <ele>726.7</ele>
        <time>2016-07-31T11:44:18Z</time>
      </trkpt>
      <trkpt lat="42.43552" lon="0.06682">
        <ele>727.4</ele>
        <time>2016-07-31T11:44:19Z</time>
      </trkpt>
      <trkpt lat="42.43552" lon="0.06687">
        <ele>727.5</ele>
        <time>2016-07-31T11:44:20Z</time>
      </trkpt>
      <trkpt lat="42.43552" lon="0.06692">
        <ele>727.2</ele>
        <time>2016-07-31T11:44:21Z</time>
      </trkpt>
      <trkpt lat="42.43552" lon="0.06698">
        <ele>727.6</ele>
        <time>2016-07-31T11:44:22Z</time>
      </trkpt>
      <trkpt lat="42.43552" lon="0.06703">
        <ele>727.7</ele>
        <time>2016-07-31T11:44:24Z</time>
      </trkpt>
      <trkpt lat="42.43552" lon="0.06707">
        <ele>727.5</ele>
        <time>2016-07-31T11:44:25Z</time>
      </trkpt>
      <trkpt lat="42.43553" lon="0.06712">
        <ele>726.6</ele>
        <time>2016-07-31T11:44:26Z</time>
      </trkpt>
      <trkpt lat="42.43554" lon="0.06716">
        <ele>725.7</ele>
        <time>2016-07-31T11:44:27Z</time>
      </trkpt>
      <trkpt lat="42.43554" lon="0.0672">
        <ele>724.9</ele>
        <time>2016-07-31T11:44:28Z</time>
      </trkpt>
      <trkpt lat="42.43555" lon="0.06724">
        <ele>724</ele>
        <time>2016-07-31T11:44:29Z</time>
      </trkpt>
      <trkpt lat="42.43557" lon="0.0673">
        <ele>722.5</ele>
        <time>2016-07-31T11:44:30Z</time>
      </trkpt>
      <trkpt lat="42.43559" lon="0.06735">
        <ele>720.6</ele>
        <time>2016-07-31T11:44:31Z</time>
      </trkpt>
      <trkpt lat="42.43561" lon="0.06741">
        <ele>718.7</ele>
        <time>2016-07-31T11:44:32Z</time>
      </trkpt>
      <trkpt lat="42.43563" lon="0.06747">
        <ele>716.8</ele>
        <time>2016-07-31T11:44:33Z</time>
      </trkpt>
      <trkpt lat="42.43564" lon="0.06752">
        <ele>715.6</ele>
        <time>2016-07-31T11:44:34Z</time>
      </trkpt>
      <trkpt lat="42.43565" lon="0.06756">
        <ele>714.5</ele>
        <time>2016-07-31T11:44:35Z</time>
      </trkpt>
      <trkpt lat="42.43567" lon="0.0676">
        <ele>713.2</ele>
        <time>2016-07-31T11:44:36Z</time>
      </trkpt>
      <trkpt lat="42.43568" lon="0.06763">
        <ele>711.8</ele>
        <time>2016-07-31T11:44:37Z</time>
      </trkpt>
      <trkpt lat="42.4357" lon="0.06767">
        <ele>710.5</ele>
        <time>2016-07-31T11:44:38Z</time>
      </trkpt>
      <trkpt lat="42.43571" lon="0.06771">
        <ele>709.4</ele>
        <time>2016-07-31T11:44:39Z</time>
      </trkpt>
      <trkpt lat="42.43572" lon="0.06775">
        <ele>708.7</ele>
        <time>2016-07-31T11:44:40Z</time>
      </trkpt>
      <trkpt lat="42.43572" lon="0.0678">
        <ele>707.7</ele>
        <time>2016-07-31T11:44:42Z</time>
      </trkpt>
      <trkpt lat="42.43575" lon="0.06786">
        <ele>705.8</ele>
        <time>2016-07-31T11:44:44Z</time>
      </trkpt>
      <trkpt lat="42.43576" lon="0.0679">
        <ele>704.5</ele>
        <time>2016-07-31T11:44:46Z</time>
      </trkpt>
      <trkpt lat="42.43574" lon="0.06793">
        <ele>705.6</ele>
        <time>2016-07-31T11:44:54Z</time>
      </trkpt>
      <trkpt lat="42.43574" lon="0.06797">
        <ele>705.7</ele>
        <time>2016-07-31T11:44:58Z</time>
      </trkpt>
      <trkpt lat="42.43573" lon="0.06801">
        <ele>706.1</ele>
        <time>2016-07-31T11:45:01Z</time>
      </trkpt>
      <trkpt lat="42.43573" lon="0.06806">
        <ele>705.7</ele>
        <time>2016-07-31T11:45:03Z</time>
      </trkpt>
      <trkpt lat="42.43575" lon="0.06811">
        <ele>704.5</ele>
        <time>2016-07-31T11:45:05Z</time>
      </trkpt>
      <trkpt lat="42.43578" lon="0.06817">
        <ele>702.9</ele>
        <time>2016-07-31T11:45:07Z</time>
      </trkpt>
      <trkpt lat="42.4358" lon="0.06821">
        <ele>701.6</ele>
        <time>2016-07-31T11:45:08Z</time>
      </trkpt>
      <trkpt lat="42.43581" lon="0.06825">
        <ele>700.5</ele>
        <time>2016-07-31T11:45:09Z</time>
      </trkpt>
      <trkpt lat="42.43583" lon="0.06831">
        <ele>699.6</ele>
        <time>2016-07-31T11:45:10Z</time>
      </trkpt>
      <trkpt lat="42.43583" lon="0.06835">
        <ele>699.3</ele>
        <time>2016-07-31T11:45:11Z</time>
      </trkpt>
      <trkpt lat="42.43583" lon="0.06841">
        <ele>699.5</ele>
        <time>2016-07-31T11:45:12Z</time>
      </trkpt>
      <trkpt lat="42.43582" lon="0.06846">
        <ele>699.6</ele>
        <time>2016-07-31T11:45:13Z</time>
      </trkpt>
      <trkpt lat="42.43582" lon="0.06851">
        <ele>699.7</ele>
        <time>2016-07-31T11:45:14Z</time>
      </trkpt>
      <trkpt lat="42.43582" lon="0.06857">
        <ele>699.6</ele>
        <time>2016-07-31T11:45:15Z</time>
      </trkpt>
      <trkpt lat="42.43582" lon="0.06863">
        <ele>699.4</ele>
        <time>2016-07-31T11:45:16Z</time>
      </trkpt>
      <trkpt lat="42.43583" lon="0.06868">
        <ele>698.7</ele>
        <time>2016-07-31T11:45:17Z</time>
      </trkpt>
      <trkpt lat="42.43584" lon="0.06873">
        <ele>698.1</ele>
        <time>2016-07-31T11:45:18Z</time>
      </trkpt>
      <trkpt lat="42.43586" lon="0.06878">
        <ele>697.2</ele>
        <time>2016-07-31T11:45:19Z</time>
      </trkpt>
      <trkpt lat="42.43586" lon="0.06884">
        <ele>696.3</ele>
        <time>2016-07-31T11:45:20Z</time>
      </trkpt>
      <trkpt lat="42.43586" lon="0.0689">
        <ele>695.7</ele>
        <time>2016-07-31T11:45:21Z</time>
      </trkpt>
      <trkpt lat="42.43586" lon="0.06895">
        <ele>695</ele>
        <time>2016-07-31T11:45:22Z</time>
      </trkpt>
      <trkpt lat="42.43586" lon="0.06899">
        <ele>694.8</ele>
        <time>2016-07-31T11:45:23Z</time>
      </trkpt>
      <trkpt lat="42.43585" lon="0.06906">
        <ele>694.5</ele>
        <time>2016-07-31T11:45:25Z</time>
      </trkpt>
      <trkpt lat="42.43585" lon="0.0691">
        <ele>694</ele>
        <time>2016-07-31T11:45:26Z</time>
      </trkpt>
      <trkpt lat="42.43586" lon="0.06914">
        <ele>693.2</ele>
        <time>2016-07-31T11:45:27Z</time>
      </trkpt>
      <trkpt lat="42.43588" lon="0.06918">
        <ele>692</ele>
        <time>2016-07-31T11:45:28Z</time>
      </trkpt>
      <trkpt lat="42.43591" lon="0.06924">
        <ele>690.5</ele>
        <time>2016-07-31T11:45:29Z</time>
      </trkpt>
      <trkpt lat="42.43593" lon="0.0693">
        <ele>689.2</ele>
        <time>2016-07-31T11:45:30Z</time>
      </trkpt>
      <trkpt lat="42.43596" lon="0.06937">
        <ele>687.8</ele>
        <time>2016-07-31T11:45:31Z</time>
      </trkpt>
      <trkpt lat="42.43598" lon="0.06945">
        <ele>686.6</ele>
        <time>2016-07-31T11:45:32Z</time>
      </trkpt>
      <trkpt lat="42.43599" lon="0.06953">
        <ele>685.5</ele>
        <time>2016-07-31T11:45:33Z</time>
      </trkpt>
      <trkpt lat="42.436" lon="0.0696">
        <ele>684.7</ele>
        <time>2016-07-31T11:45:34Z</time>
      </trkpt>
      <trkpt lat="42.436" lon="0.06965">
        <ele>683.7</ele>
        <time>2016-07-31T11:45:35Z</time>
      </trkpt>
      <trkpt lat="42.436" lon="0.06971">
        <ele>682.8</ele>
        <time>2016-07-31T11:45:36Z</time>
      </trkpt>
      <trkpt lat="42.43599" lon="0.06976">
        <ele>682.1</ele>
        <time>2016-07-31T11:45:37Z</time>
      </trkpt>
      <trkpt lat="42.43599" lon="0.06982">
        <ele>681.2</ele>
        <time>2016-07-31T11:45:38Z</time>
      </trkpt>
      <trkpt lat="42.43598" lon="0.06986">
        <ele>680.5</ele>
        <time>2016-07-31T11:45:39Z</time>
      </trkpt>
      <trkpt lat="42.43598" lon="0.06991">
        <ele>679.7</ele>
        <time>2016-07-31T11:45:40Z</time>
      </trkpt>
      <trkpt lat="42.43597" lon="0.06996">
        <ele>679</ele>
        <time>2016-07-31T11:45:41Z</time>
      </trkpt>
      <trkpt lat="42.43595" lon="0.07">
        <ele>678.8</ele>
        <time>2016-07-31T11:45:44Z</time>
      </trkpt>
      <trkpt lat="42.43593" lon="0.07004">
        <ele>678.6</ele>
        <time>2016-07-31T11:45:50Z</time>
      </trkpt>
      <trkpt lat="42.43595" lon="0.07008">
        <ele>677.5</ele>
        <time>2016-07-31T11:45:55Z</time>
      </trkpt>
      <trkpt lat="42.43593" lon="0.07012">
        <ele>677.1</ele>
        <time>2016-07-31T11:45:58Z</time>
      </trkpt>
      <trkpt lat="42.43591" lon="0.07017">
        <ele>676.8</ele>
        <time>2016-07-31T11:46:00Z</time>
      </trkpt>
      <trkpt lat="42.43589" lon="0.07022">
        <ele>676</ele>
        <time>2016-07-31T11:46:02Z</time>
      </trkpt>
      <trkpt lat="42.43591" lon="0.07026">
        <ele>674.9</ele>
        <time>2016-07-31T11:46:04Z</time>
      </trkpt>
      <trkpt lat="42.43594" lon="0.07028">
        <ele>674</ele>
        <time>2016-07-31T11:46:06Z</time>
      </trkpt>
      <trkpt lat="42.43597" lon="0.07032">
        <ele>672.9</ele>
        <time>2016-07-31T11:46:08Z</time>
      </trkpt>
      <trkpt lat="42.43596" lon="0.07039">
        <ele>671.8</ele>
        <time>2016-07-31T11:46:10Z</time>
      </trkpt>
      <trkpt lat="42.43594" lon="0.07043">
        <ele>671.2</ele>
        <time>2016-07-31T11:46:11Z</time>
      </trkpt>
      <trkpt lat="42.43593" lon="0.07046">
        <ele>670.5</ele>
        <time>2016-07-31T11:46:12Z</time>
      </trkpt>
      <trkpt lat="42.43592" lon="0.07051">
        <ele>669.4</ele>
        <time>2016-07-31T11:46:14Z</time>
      </trkpt>
      <trkpt lat="42.43595" lon="0.0705">
        <ele>669.2</ele>
        <time>2016-07-31T11:46:18Z</time>
      </trkpt>
      <trkpt lat="42.43597" lon="0.07056">
        <ele>667.2</ele>
        <time>2016-07-31T11:46:21Z</time>
      </trkpt>
      <trkpt lat="42.43597" lon="0.07059">
        <ele>666.1</ele>
        <time>2016-07-31T11:46:22Z</time>
      </trkpt>
      <trkpt lat="42.43596" lon="0.07064">
        <ele>665</ele>
        <time>2016-07-31T11:46:23Z</time>
      </trkpt>
      <trkpt lat="42.43594" lon="0.07069">
        <ele>663.9</ele>
        <time>2016-07-31T11:46:24Z</time>
      </trkpt>
      <trkpt lat="42.43593" lon="0.07073">
        <ele>663</ele>
        <time>2016-07-31T11:46:25Z</time>
      </trkpt>
      <trkpt lat="42.43591" lon="0.07077">
        <ele>662.3</ele>
        <time>2016-07-31T11:46:26Z</time>
      </trkpt>
      <trkpt lat="42.43588" lon="0.07083">
        <ele>660.8</ele>
        <time>2016-07-31T11:46:28Z</time>
      </trkpt>
      <trkpt lat="42.43587" lon="0.07086">
        <ele>660.1</ele>
        <time>2016-07-31T11:46:29Z</time>
      </trkpt>
      <trkpt lat="42.43586" lon="0.0709">
        <ele>659.3</ele>
        <time>2016-07-31T11:46:30Z</time>
      </trkpt>
      <trkpt lat="42.43584" lon="0.07094">
        <ele>658.2</ele>
        <time>2016-07-31T11:46:31Z</time>
      </trkpt>
      <trkpt lat="42.43583" lon="0.071">
        <ele>656.8</ele>
        <time>2016-07-31T11:46:32Z</time>
      </trkpt>
      <trkpt lat="42.43582" lon="0.07105">
        <ele>655.6</ele>
        <time>2016-07-31T11:46:33Z</time>
      </trkpt>
      <trkpt lat="42.43581" lon="0.0711">
        <ele>654.1</ele>
        <time>2016-07-31T11:46:35Z</time>
      </trkpt>
      <trkpt lat="42.43581" lon="0.07115">
        <ele>652.7</ele>
        <time>2016-07-31T11:46:37Z</time>
      </trkpt>
      <trkpt lat="42.43584" lon="0.07116">
        <ele>652.1</ele>
        <time>2016-07-31T11:46:40Z</time>
      </trkpt>
      <trkpt lat="42.43588" lon="0.07112">
        <ele>652.6</ele>
        <time>2016-07-31T11:46:42Z</time>
      </trkpt>
      <trkpt lat="42.43591" lon="0.07112">
        <ele>652.3</ele>
        <time>2016-07-31T11:46:44Z</time>
      </trkpt>
      <trkpt lat="42.43593" lon="0.07118">
        <ele>650.3</ele>
        <time>2016-07-31T11:46:46Z</time>
      </trkpt>
      <trkpt lat="42.43593" lon="0.07122">
        <ele>649.1</ele>
        <time>2016-07-31T11:46:48Z</time>
      </trkpt>
      <trkpt lat="42.43595" lon="0.07125">
        <ele>647.9</ele>
        <time>2016-07-31T11:46:50Z</time>
      </trkpt>
      <trkpt lat="42.43599" lon="0.07127">
        <ele>647.1</ele>
        <time>2016-07-31T11:46:52Z</time>
      </trkpt>
      <trkpt lat="42.43602" lon="0.07128">
        <ele>646.6</ele>
        <time>2016-07-31T11:46:54Z</time>
      </trkpt>
      <trkpt lat="42.43605" lon="0.07127">
        <ele>646.3</ele>
        <time>2016-07-31T11:46:56Z</time>
      </trkpt>
      <trkpt lat="42.43608" lon="0.07126">
        <ele>646</ele>
        <time>2016-07-31T11:46:58Z</time>
      </trkpt>
      <trkpt lat="42.43608" lon="0.07132">
        <ele>645.2</ele>
        <time>2016-07-31T11:47:01Z</time>
      </trkpt>
      <trkpt lat="42.43607" lon="0.07136">
        <ele>644.7</ele>
        <time>2016-07-31T11:47:03Z</time>
      </trkpt>
      <trkpt lat="42.43607" lon="0.0714">
        <ele>644.1</ele>
        <time>2016-07-31T11:47:05Z</time>
      </trkpt>
      <trkpt lat="42.43605" lon="0.07146">
        <ele>643.5</ele>
        <time>2016-07-31T11:47:07Z</time>
      </trkpt>
      <trkpt lat="42.43604" lon="0.07153">
        <ele>642.7</ele>
        <time>2016-07-31T11:47:09Z</time>
      </trkpt>
      <trkpt lat="42.43604" lon="0.07157">
        <ele>642.1</ele>
        <time>2016-07-31T11:47:10Z</time>
      </trkpt>
      <trkpt lat="42.43604" lon="0.07161">
        <ele>641.4</ele>
        <time>2016-07-31T11:47:11Z</time>
      </trkpt>
      <trkpt lat="42.43604" lon="0.07165">
        <ele>640.7</ele>
        <time>2016-07-31T11:47:12Z</time>
      </trkpt>
      <trkpt lat="42.43605" lon="0.07169">
        <ele>640</ele>
        <time>2016-07-31T11:47:13Z</time>
      </trkpt>
      <trkpt lat="42.43606" lon="0.07173">
        <ele>639.4</ele>
        <time>2016-07-31T11:47:14Z</time>
      </trkpt>
      <trkpt lat="42.43607" lon="0.07176">
        <ele>638.7</ele>
        <time>2016-07-31T11:47:15Z</time>
      </trkpt>
      <trkpt lat="42.43608" lon="0.07182">
        <ele>637.8</ele>
        <time>2016-07-31T11:47:17Z</time>
      </trkpt>
      <trkpt lat="42.4361" lon="0.07185">
        <ele>637.1</ele>
        <time>2016-07-31T11:47:20Z</time>
      </trkpt>
      <trkpt lat="42.43613" lon="0.07183">
        <ele>637.1</ele>
        <time>2016-07-31T11:47:24Z</time>
      </trkpt>
      <trkpt lat="42.43615" lon="0.0718">
        <ele>637.3</ele>
        <time>2016-07-31T11:47:28Z</time>
      </trkpt>
      <trkpt lat="42.43615" lon="0.07176">
        <ele>637.8</ele>
        <time>2016-07-31T11:47:32Z</time>
      </trkpt>
      <trkpt lat="42.43616" lon="0.07172">
        <ele>638.3</ele>
        <time>2016-07-31T11:47:37Z</time>
      </trkpt>
      <trkpt lat="42.43618" lon="0.07167">
        <ele>638.8</ele>
        <time>2016-07-31T11:47:41Z</time>
      </trkpt>
      <trkpt lat="42.43621" lon="0.07164">
        <ele>639</ele>
        <time>2016-07-31T11:47:43Z</time>
      </trkpt>
      <trkpt lat="42.43624" lon="0.0716">
        <ele>639.1</ele>
        <time>2016-07-31T11:47:45Z</time>
      </trkpt>
      <trkpt lat="42.43626" lon="0.07157">
        <ele>638.9</ele>
        <time>2016-07-31T11:47:47Z</time>
      </trkpt>
      <trkpt lat="42.43629" lon="0.07154">
        <ele>637.8</ele>
        <time>2016-07-31T11:47:49Z</time>
      </trkpt>
      <trkpt lat="42.43632" lon="0.07153">
        <ele>636.3</ele>
        <time>2016-07-31T11:47:51Z</time>
      </trkpt>
      <trkpt lat="42.43636" lon="0.07157">
        <ele>634.2</ele>
        <time>2016-07-31T11:47:53Z</time>
      </trkpt>
      <trkpt lat="42.43636" lon="0.07163">
        <ele>633.3</ele>
        <time>2016-07-31T11:47:55Z</time>
      </trkpt>
      <trkpt lat="42.43635" lon="0.07167">
        <ele>633.4</ele>
        <time>2016-07-31T11:47:56Z</time>
      </trkpt>
      <trkpt lat="42.43633" lon="0.07171">
        <ele>633.6</ele>
        <time>2016-07-31T11:47:57Z</time>
      </trkpt>
      <trkpt lat="42.43632" lon="0.07175">
        <ele>633.7</ele>
        <time>2016-07-31T11:47:58Z</time>
      </trkpt>
      <trkpt lat="42.43631" lon="0.07179">
        <ele>633.6</ele>
        <time>2016-07-31T11:47:59Z</time>
      </trkpt>
      <trkpt lat="42.43629" lon="0.07183">
        <ele>633.6</ele>
        <time>2016-07-31T11:48:00Z</time>
      </trkpt>
      <trkpt lat="42.43628" lon="0.07189">
        <ele>633.4</ele>
        <time>2016-07-31T11:48:02Z</time>
      </trkpt>
      <trkpt lat="42.43627" lon="0.07194">
        <ele>633.1</ele>
        <time>2016-07-31T11:48:04Z</time>
      </trkpt>
      <trkpt lat="42.43625" lon="0.07199">
        <ele>633.3</ele>
        <time>2016-07-31T11:48:06Z</time>
      </trkpt>
      <trkpt lat="42.43625" lon="0.07204">
        <ele>632.5</ele>
        <time>2016-07-31T11:48:09Z</time>
      </trkpt>
      <trkpt lat="42.43627" lon="0.07208">
        <ele>631.4</ele>
        <time>2016-07-31T11:48:11Z</time>
      </trkpt>
      <trkpt lat="42.43628" lon="0.07214">
        <ele>630</ele>
        <time>2016-07-31T11:48:13Z</time>
      </trkpt>
      <trkpt lat="42.4363" lon="0.07218">
        <ele>629.3</ele>
        <time>2016-07-31T11:48:14Z</time>
      </trkpt>
      <trkpt lat="42.43631" lon="0.07221">
        <ele>628.5</ele>
        <time>2016-07-31T11:48:15Z</time>
      </trkpt>
      <trkpt lat="42.43632" lon="0.07225">
        <ele>627.4</ele>
        <time>2016-07-31T11:48:16Z</time>
      </trkpt>
      <trkpt lat="42.43634" lon="0.0723">
        <ele>626.1</ele>
        <time>2016-07-31T11:48:17Z</time>
      </trkpt>
      <trkpt lat="42.43636" lon="0.07235">
        <ele>624.8</ele>
        <time>2016-07-31T11:48:18Z</time>
      </trkpt>
      <trkpt lat="42.43637" lon="0.07241">
        <ele>623.8</ele>
        <time>2016-07-31T11:48:19Z</time>
      </trkpt>
      <trkpt lat="42.43638" lon="0.07248">
        <ele>623</ele>
        <time>2016-07-31T11:48:20Z</time>
      </trkpt>
      <trkpt lat="42.43637" lon="0.07254">
        <ele>622.7</ele>
        <time>2016-07-31T11:48:21Z</time>
      </trkpt>
      <trkpt lat="42.43637" lon="0.07258">
        <ele>622.7</ele>
        <time>2016-07-31T11:48:22Z</time>
      </trkpt>
      <trkpt lat="42.43635" lon="0.07262">
        <ele>623</ele>
        <time>2016-07-31T11:48:24Z</time>
      </trkpt>
      <trkpt lat="42.43635" lon="0.07266">
        <ele>622.8</ele>
        <time>2016-07-31T11:48:26Z</time>
      </trkpt>
      <trkpt lat="42.43637" lon="0.07269">
        <ele>621.6</ele>
        <time>2016-07-31T11:48:38Z</time>
      </trkpt>
      <trkpt lat="42.43636" lon="0.07272">
        <ele>621.7</ele>
        <time>2016-07-31T11:48:41Z</time>
      </trkpt>
      <trkpt lat="42.43635" lon="0.07279">
        <ele>621.6</ele>
        <time>2016-07-31T11:48:43Z</time>
      </trkpt>
      <trkpt lat="42.43635" lon="0.07283">
        <ele>621.3</ele>
        <time>2016-07-31T11:48:44Z</time>
      </trkpt>
      <trkpt lat="42.43635" lon="0.07287">
        <ele>621.1</ele>
        <time>2016-07-31T11:48:45Z</time>
      </trkpt>
      <trkpt lat="42.43634" lon="0.07291">
        <ele>620.9</ele>
        <time>2016-07-31T11:48:46Z</time>
      </trkpt>
      <trkpt lat="42.43634" lon="0.07295">
        <ele>620.7</ele>
        <time>2016-07-31T11:48:47Z</time>
      </trkpt>
      <trkpt lat="42.43633" lon="0.07298">
        <ele>620.4</ele>
        <time>2016-07-31T11:48:48Z</time>
      </trkpt>
      <trkpt lat="42.43633" lon="0.07302">
        <ele>620.1</ele>
        <time>2016-07-31T11:48:49Z</time>
      </trkpt>
      <trkpt lat="42.43633" lon="0.07306">
        <ele>619.7</ele>
        <time>2016-07-31T11:48:50Z</time>
      </trkpt>
      <trkpt lat="42.43633" lon="0.07312">
        <ele>618.9</ele>
        <time>2016-07-31T11:48:52Z</time>
      </trkpt>
      <trkpt lat="42.43634" lon="0.07317">
        <ele>618</ele>
        <time>2016-07-31T11:48:54Z</time>
      </trkpt>
      <trkpt lat="42.43633" lon="0.07322">
        <ele>617.6</ele>
        <time>2016-07-31T11:48:56Z</time>
      </trkpt>
      <trkpt lat="42.43633" lon="0.07327">
        <ele>617.1</ele>
        <time>2016-07-31T11:48:58Z</time>
      </trkpt>
      <trkpt lat="42.43632" lon="0.07331">
        <ele>616.8</ele>
        <time>2016-07-31T11:49:00Z</time>
      </trkpt>
      <trkpt lat="42.43633" lon="0.07335">
        <ele>616.2</ele>
        <time>2016-07-31T11:49:02Z</time>
      </trkpt>
      <trkpt lat="42.43633" lon="0.07339">
        <ele>615.6</ele>
        <time>2016-07-31T11:49:03Z</time>
      </trkpt>
      <trkpt lat="42.43633" lon="0.07344">
        <ele>615.1</ele>
        <time>2016-07-31T11:49:04Z</time>
      </trkpt>
      <trkpt lat="42.43632" lon="0.07348">
        <ele>614.8</ele>
        <time>2016-07-31T11:49:05Z</time>
      </trkpt>
      <trkpt lat="42.43632" lon="0.07354">
        <ele>614.2</ele>
        <time>2016-07-31T11:49:07Z</time>
      </trkpt>
      <trkpt lat="42.43635" lon="0.07353">
        <ele>613.1</ele>
        <time>2016-07-31T11:49:10Z</time>
      </trkpt>
      <trkpt lat="42.43636" lon="0.07347">
        <ele>613.4</ele>
        <time>2016-07-31T11:49:12Z</time>
      </trkpt>
      <trkpt lat="42.43636" lon="0.07342">
        <ele>613.9</ele>
        <time>2016-07-31T11:49:14Z</time>
      </trkpt>
      <trkpt lat="42.43637" lon="0.07338">
        <ele>614.2</ele>
        <time>2016-07-31T11:49:16Z</time>
      </trkpt>
      <trkpt lat="42.43637" lon="0.07334">
        <ele>614.4</ele>
        <time>2016-07-31T11:49:18Z</time>
      </trkpt>
      <trkpt lat="42.43638" lon="0.0733">
        <ele>614.8</ele>
        <time>2016-07-31T11:49:26Z</time>
      </trkpt>
      <trkpt lat="42.43638" lon="0.07325">
        <ele>615</ele>
        <time>2016-07-31T11:49:28Z</time>
      </trkpt>
      <trkpt lat="42.4364" lon="0.07318">
        <ele>615.4</ele>
        <time>2016-07-31T11:49:30Z</time>
      </trkpt>
      <trkpt lat="42.4364" lon="0.07314">
        <ele>615.6</ele>
        <time>2016-07-31T11:49:31Z</time>
      </trkpt>
      <trkpt lat="42.43641" lon="0.07308">
        <ele>615.7</ele>
        <time>2016-07-31T11:49:33Z</time>
      </trkpt>
      <trkpt lat="42.43643" lon="0.07303">
        <ele>615.8</ele>
        <time>2016-07-31T11:49:35Z</time>
      </trkpt>
      <trkpt lat="42.43644" lon="0.07296">
        <ele>615.9</ele>
        <time>2016-07-31T11:49:37Z</time>
      </trkpt>
      <trkpt lat="42.43646" lon="0.0729">
        <ele>615.8</ele>
        <time>2016-07-31T11:49:39Z</time>
      </trkpt>
      <trkpt lat="42.43648" lon="0.07283">
        <ele>615.1</ele>
        <time>2016-07-31T11:49:41Z</time>
      </trkpt>
      <trkpt lat="42.4365" lon="0.07279">
        <ele>614.9</ele>
        <time>2016-07-31T11:49:42Z</time>
      </trkpt>
      <trkpt lat="42.43651" lon="0.07275">
        <ele>614.7</ele>
        <time>2016-07-31T11:49:43Z</time>
      </trkpt>
      <trkpt lat="42.43652" lon="0.0727">
        <ele>614.7</ele>
        <time>2016-07-31T11:49:44Z</time>
      </trkpt>
      <trkpt lat="42.43653" lon="0.07264">
        <ele>614.8</ele>
        <time>2016-07-31T11:49:45Z</time>
      </trkpt>
      <trkpt lat="42.43654" lon="0.07258">
        <ele>615</ele>
        <time>2016-07-31T11:49:46Z</time>
      </trkpt>
      <trkpt lat="42.43654" lon="0.07251">
        <ele>615.4</ele>
        <time>2016-07-31T11:49:47Z</time>
      </trkpt>
      <trkpt lat="42.43655" lon="0.07245">
        <ele>615.8</ele>
        <time>2016-07-31T11:49:48Z</time>
      </trkpt>
      <trkpt lat="42.43655" lon="0.07238">
        <ele>616.5</ele>
        <time>2016-07-31T11:49:49Z</time>
      </trkpt>
      <trkpt lat="42.43654" lon="0.07232">
        <ele>617.3</ele>
        <time>2016-07-31T11:49:50Z</time>
      </trkpt>
      <trkpt lat="42.43653" lon="0.07226">
        <ele>618.3</ele>
        <time>2016-07-31T11:49:51Z</time>
      </trkpt>
      <trkpt lat="42.43652" lon="0.0722">
        <ele>619.1</ele>
        <time>2016-07-31T11:49:52Z</time>
      </trkpt>
      <trkpt lat="42.43653" lon="0.07214">
        <ele>619.5</ele>
        <time>2016-07-31T11:49:53Z</time>
      </trkpt>
      <trkpt lat="42.43654" lon="0.07208">
        <ele>619.7</ele>
        <time>2016-07-31T11:49:54Z</time>
      </trkpt>
      <trkpt lat="42.43655" lon="0.07202">
        <ele>619.6</ele>
        <time>2016-07-31T11:49:55Z</time>
      </trkpt>
      <trkpt lat="42.43658" lon="0.07196">
        <ele>619.3</ele>
        <time>2016-07-31T11:49:56Z</time>
      </trkpt>
      <trkpt lat="42.4366" lon="0.07189">
        <ele>618.9</ele>
        <time>2016-07-31T11:49:57Z</time>
      </trkpt>
      <trkpt lat="42.43663" lon="0.07183">
        <ele>618.4</ele>
        <time>2016-07-31T11:49:58Z</time>
      </trkpt>
      <trkpt lat="42.43665" lon="0.07176">
        <ele>618</ele>
        <time>2016-07-31T11:49:59Z</time>
      </trkpt>
      <trkpt lat="42.43666" lon="0.07169">
        <ele>617.9</ele>
        <time>2016-07-31T11:50:00Z</time>
      </trkpt>
      <trkpt lat="42.43667" lon="0.07162">
        <ele>618.1</ele>
        <time>2016-07-31T11:50:01Z</time>
      </trkpt>
      <trkpt lat="42.43668" lon="0.07155">
        <ele>618.4</ele>
        <time>2016-07-31T11:50:02Z</time>
      </trkpt>
      <trkpt lat="42.43668" lon="0.07148">
        <ele>619</ele>
        <time>2016-07-31T11:50:03Z</time>
      </trkpt>
      <trkpt lat="42.43668" lon="0.07143">
        <ele>619.6</ele>
        <time>2016-07-31T11:50:04Z</time>
      </trkpt>
      <trkpt lat="42.43667" lon="0.07137">
        <ele>620.5</ele>
        <time>2016-07-31T11:50:05Z</time>
      </trkpt>
      <trkpt lat="42.43666" lon="0.07133">
        <ele>621.5</ele>
        <time>2016-07-31T11:50:06Z</time>
      </trkpt>
      <trkpt lat="42.43665" lon="0.07129">
        <ele>622.3</ele>
        <time>2016-07-31T11:50:07Z</time>
      </trkpt>
      <trkpt lat="42.43663" lon="0.07123">
        <ele>624.1</ele>
        <time>2016-07-31T11:50:09Z</time>
      </trkpt>
      <trkpt lat="42.43662" lon="0.07119">
        <ele>625.7</ele>
        <time>2016-07-31T11:50:11Z</time>
      </trkpt>
      <trkpt lat="42.4366" lon="0.07114">
        <ele>627.5</ele>
        <time>2016-07-31T11:50:13Z</time>
      </trkpt>
      <trkpt lat="42.4366" lon="0.07109">
        <ele>628.9</ele>
        <time>2016-07-31T11:50:15Z</time>
      </trkpt>
      <trkpt lat="42.4366" lon="0.07103">
        <ele>629.8</ele>
        <time>2016-07-31T11:50:17Z</time>
      </trkpt>
      <trkpt lat="42.4366" lon="0.07098">
        <ele>630.6</ele>
        <time>2016-07-31T11:50:19Z</time>
      </trkpt>
      <trkpt lat="42.4366" lon="0.07093">
        <ele>631.5</ele>
        <time>2016-07-31T11:50:21Z</time>
      </trkpt>
      <trkpt lat="42.4366" lon="0.07088">
        <ele>632.3</ele>
        <time>2016-07-31T11:50:23Z</time>
      </trkpt>
      <trkpt lat="42.43661" lon="0.07083">
        <ele>632.9</ele>
        <time>2016-07-31T11:50:25Z</time>
      </trkpt>
      <trkpt lat="42.43661" lon="0.07078">
        <ele>633.7</ele>
        <time>2016-07-31T11:50:27Z</time>
      </trkpt>
      <trkpt lat="42.43661" lon="0.07074">
        <ele>634.7</ele>
        <time>2016-07-31T11:50:29Z</time>
      </trkpt>
      <trkpt lat="42.4366" lon="0.07069">
        <ele>636</ele>
        <time>2016-07-31T11:50:31Z</time>
      </trkpt>
      <trkpt lat="42.43659" lon="0.07065">
        <ele>637.4</ele>
        <time>2016-07-31T11:50:33Z</time>
      </trkpt>
      <trkpt lat="42.43659" lon="0.0706">
        <ele>638.7</ele>
        <time>2016-07-31T11:50:35Z</time>
      </trkpt>
      <trkpt lat="42.43659" lon="0.07055">
        <ele>639.5</ele>
        <time>2016-07-31T11:50:37Z</time>
      </trkpt>
      <trkpt lat="42.4366" lon="0.0705">
        <ele>639.7</ele>
        <time>2016-07-31T11:50:39Z</time>
      </trkpt>
      <trkpt lat="42.43661" lon="0.07045">
        <ele>640.2</ele>
        <time>2016-07-31T11:50:41Z</time>
      </trkpt>
      <trkpt lat="42.43661" lon="0.0704">
        <ele>640.4</ele>
        <time>2016-07-31T11:50:43Z</time>
      </trkpt>
      <trkpt lat="42.43662" lon="0.07035">
        <ele>640.4</ele>
        <time>2016-07-31T11:50:45Z</time>
      </trkpt>
      <trkpt lat="42.43663" lon="0.07031">
        <ele>640.2</ele>
        <time>2016-07-31T11:50:47Z</time>
      </trkpt>
      <trkpt lat="42.43665" lon="0.07024">
        <ele>640</ele>
        <time>2016-07-31T11:50:49Z</time>
      </trkpt>
      <trkpt lat="42.43666" lon="0.0702">
        <ele>639.9</ele>
        <time>2016-07-31T11:50:50Z</time>
      </trkpt>
      <trkpt lat="42.43667" lon="0.07014">
        <ele>639.7</ele>
        <time>2016-07-31T11:50:51Z</time>
      </trkpt>
      <trkpt lat="42.43667" lon="0.07009">
        <ele>639.8</ele>
        <time>2016-07-31T11:50:52Z</time>
      </trkpt>
      <trkpt lat="42.43668" lon="0.07004">
        <ele>639.8</ele>
        <time>2016-07-31T11:50:53Z</time>
      </trkpt>
      <trkpt lat="42.43669" lon="0.06999">
        <ele>640</ele>
        <time>2016-07-31T11:50:54Z</time>
      </trkpt>
      <trkpt lat="42.43669" lon="0.06994">
        <ele>640</ele>
        <time>2016-07-31T11:50:55Z</time>
      </trkpt>
      <trkpt lat="42.4367" lon="0.0699">
        <ele>640.1</ele>
        <time>2016-07-31T11:50:56Z</time>
      </trkpt>
      <trkpt lat="42.4367" lon="0.06986">
        <ele>640.4</ele>
        <time>2016-07-31T11:50:57Z</time>
      </trkpt>
      <trkpt lat="42.4367" lon="0.06979">
        <ele>641.1</ele>
        <time>2016-07-31T11:50:59Z</time>
      </trkpt>
      <trkpt lat="42.4367" lon="0.06974">
        <ele>641.9</ele>
        <time>2016-07-31T11:51:01Z</time>
      </trkpt>
      <trkpt lat="42.43669" lon="0.0697">
        <ele>642.7</ele>
        <time>2016-07-31T11:51:03Z</time>
      </trkpt>
      <trkpt lat="42.43669" lon="0.06966">
        <ele>643.1</ele>
        <time>2016-07-31T11:51:05Z</time>
      </trkpt>
      <trkpt lat="42.4367" lon="0.06961">
        <ele>643.4</ele>
        <time>2016-07-31T11:51:07Z</time>
      </trkpt>
      <trkpt lat="42.4367" lon="0.06957">
        <ele>643.3</ele>
        <time>2016-07-31T11:51:09Z</time>
      </trkpt>
      <trkpt lat="42.43672" lon="0.06952">
        <ele>642.5</ele>
        <time>2016-07-31T11:51:11Z</time>
      </trkpt>
      <trkpt lat="42.43673" lon="0.06947">
        <ele>642</ele>
        <time>2016-07-31T11:51:13Z</time>
      </trkpt>
      <trkpt lat="42.43673" lon="0.06944">
        <ele>641.7</ele>
        <time>2016-07-31T11:51:15Z</time>
      </trkpt>
      <trkpt lat="42.43674" lon="0.06938">
        <ele>641.3</ele>
        <time>2016-07-31T11:51:18Z</time>
      </trkpt>
      <trkpt lat="42.43675" lon="0.06934">
        <ele>640.8</ele>
        <time>2016-07-31T11:51:20Z</time>
      </trkpt>
      <trkpt lat="42.43677" lon="0.06926">
        <ele>640.1</ele>
        <time>2016-07-31T11:51:22Z</time>
      </trkpt>
      <trkpt lat="42.43678" lon="0.06921">
        <ele>639.5</ele>
        <time>2016-07-31T11:51:23Z</time>
      </trkpt>
      <trkpt lat="42.43679" lon="0.06916">
        <ele>638.9</ele>
        <time>2016-07-31T11:51:24Z</time>
      </trkpt>
      <trkpt lat="42.43681" lon="0.0691">
        <ele>638</ele>
        <time>2016-07-31T11:51:25Z</time>
      </trkpt>
      <trkpt lat="42.43682" lon="0.06905">
        <ele>637.5</ele>
        <time>2016-07-31T11:51:26Z</time>
      </trkpt>
      <trkpt lat="42.43683" lon="0.06899">
        <ele>636.9</ele>
        <time>2016-07-31T11:51:27Z</time>
      </trkpt>
      <trkpt lat="42.43686" lon="0.06892">
        <ele>635.5</ele>
        <time>2016-07-31T11:51:28Z</time>
      </trkpt>
      <trkpt lat="42.43689" lon="0.06886">
        <ele>633.5</ele>
        <time>2016-07-31T11:51:29Z</time>
      </trkpt>
      <trkpt lat="42.43694" lon="0.06879">
        <ele>630.6</ele>
        <time>2016-07-31T11:51:30Z</time>
      </trkpt>
      <trkpt lat="42.43699" lon="0.06871">
        <ele>627.5</ele>
        <time>2016-07-31T11:51:31Z</time>
      </trkpt>
      <trkpt lat="42.43704" lon="0.06864">
        <ele>624.6</ele>
        <time>2016-07-31T11:51:32Z</time>
      </trkpt>
      <trkpt lat="42.43708" lon="0.06856">
        <ele>622.3</ele>
        <time>2016-07-31T11:51:33Z</time>
      </trkpt>
      <trkpt lat="42.4371" lon="0.06847">
        <ele>621.3</ele>
        <time>2016-07-31T11:51:34Z</time>
      </trkpt>
      <trkpt lat="42.43713" lon="0.06841">
        <ele>620.5</ele>
        <time>2016-07-31T11:51:35Z</time>
      </trkpt>
      <trkpt lat="42.43714" lon="0.06836">
        <ele>620.2</ele>
        <time>2016-07-31T11:51:36Z</time>
      </trkpt>
      <trkpt lat="42.43716" lon="0.06832">
        <ele>619.8</ele>
        <time>2016-07-31T11:51:37Z</time>
      </trkpt>
      <trkpt lat="42.43718" lon="0.06828">
        <ele>619.4</ele>
        <time>2016-07-31T11:51:38Z</time>
      </trkpt>
      <trkpt lat="42.4372" lon="0.06824">
        <ele>618.8</ele>
        <time>2016-07-31T11:51:39Z</time>
      </trkpt>
      <trkpt lat="42.43722" lon="0.0682">
        <ele>618.1</ele>
        <time>2016-07-31T11:51:40Z</time>
      </trkpt>
      <trkpt lat="42.43725" lon="0.06816">
        <ele>617.5</ele>
        <time>2016-07-31T11:51:41Z</time>
      </trkpt>
      <trkpt lat="42.43727" lon="0.06812">
        <ele>616.8</ele>
        <time>2016-07-31T11:51:42Z</time>
      </trkpt>
      <trkpt lat="42.4373" lon="0.06807">
        <ele>616.1</ele>
        <time>2016-07-31T11:51:43Z</time>
      </trkpt>
      <trkpt lat="42.43734" lon="0.06802">
        <ele>615.3</ele>
        <time>2016-07-31T11:51:44Z</time>
      </trkpt>
      <trkpt lat="42.43738" lon="0.06797">
        <ele>614.5</ele>
        <time>2016-07-31T11:51:45Z</time>
      </trkpt>
      <trkpt lat="42.43742" lon="0.06792">
        <ele>613.6</ele>
        <time>2016-07-31T11:51:46Z</time>
      </trkpt>
      <trkpt lat="42.43746" lon="0.06787">
        <ele>612.9</ele>
        <time>2016-07-31T11:51:47Z</time>
      </trkpt>
      <trkpt lat="42.4375" lon="0.06782">
        <ele>612.1</ele>
        <time>2016-07-31T11:51:48Z</time>
      </trkpt>
      <trkpt lat="42.43755" lon="0.06779">
        <ele>611.2</ele>
        <time>2016-07-31T11:51:49Z</time>
      </trkpt>
      <trkpt lat="42.4376" lon="0.06775">
        <ele>610.2</ele>
        <time>2016-07-31T11:51:50Z</time>
      </trkpt>
      <trkpt lat="42.43765" lon="0.06772">
        <ele>609</ele>
        <time>2016-07-31T11:51:51Z</time>
      </trkpt>
      <trkpt lat="42.4377" lon="0.0677">
        <ele>607.7</ele>
        <time>2016-07-31T11:51:52Z</time>
      </trkpt>
      <trkpt lat="42.43775" lon="0.06768">
        <ele>606.3</ele>
        <time>2016-07-31T11:51:53Z</time>
      </trkpt>
      <trkpt lat="42.4378" lon="0.06767">
        <ele>604.8</ele>
        <time>2016-07-31T11:51:54Z</time>
      </trkpt>
      <trkpt lat="42.43786" lon="0.06765">
        <ele>603.4</ele>
        <time>2016-07-31T11:51:55Z</time>
      </trkpt>
      <trkpt lat="42.4379" lon="0.06762">
        <ele>602.4</ele>
        <time>2016-07-31T11:51:56Z</time>
      </trkpt>
      <trkpt lat="42.43794" lon="0.06757">
        <ele>602.3</ele>
        <time>2016-07-31T11:51:57Z</time>
      </trkpt>
      <trkpt lat="42.43797" lon="0.0675">
        <ele>602.9</ele>
        <time>2016-07-31T11:51:58Z</time>
      </trkpt>
      <trkpt lat="42.43798" lon="0.06743">
        <ele>603.7</ele>
        <time>2016-07-31T11:51:59Z</time>
      </trkpt>
      <trkpt lat="42.43799" lon="0.06735">
        <ele>604.6</ele>
        <time>2016-07-31T11:52:00Z</time>
      </trkpt>
      <trkpt lat="42.438" lon="0.06727">
        <ele>605.4</ele>
        <time>2016-07-31T11:52:01Z</time>
      </trkpt>
      <trkpt lat="42.438" lon="0.06721">
        <ele>606.1</ele>
        <time>2016-07-31T11:52:02Z</time>
      </trkpt>
      <trkpt lat="42.43801" lon="0.06716">
        <ele>606.7</ele>
        <time>2016-07-31T11:52:03Z</time>
      </trkpt>
      <trkpt lat="42.43803" lon="0.06711">
        <ele>607</ele>
        <time>2016-07-31T11:52:04Z</time>
      </trkpt>
      <trkpt lat="42.43805" lon="0.06707">
        <ele>607.2</ele>
        <time>2016-07-31T11:52:05Z</time>
      </trkpt>
      <trkpt lat="42.43806" lon="0.06705">
        <ele>607.1</ele>
        <time>2016-07-31T11:52:06Z</time>
      </trkpt>
      <trkpt lat="42.43811" lon="0.06702">
        <ele>606.7</ele>
        <time>2016-07-31T11:52:08Z</time>
      </trkpt>
      <trkpt lat="42.43814" lon="0.06706">
        <ele>605.9</ele>
        <time>2016-07-31T11:52:09Z</time>
      </trkpt>
      <trkpt lat="42.43818" lon="0.06712">
        <ele>604.8</ele>
        <time>2016-07-31T11:52:10Z</time>
      </trkpt>
      <trkpt lat="42.43821" lon="0.06719">
        <ele>603.5</ele>
        <time>2016-07-31T11:52:11Z</time>
      </trkpt>
      <trkpt lat="42.43824" lon="0.06727">
        <ele>602.2</ele>
        <time>2016-07-31T11:52:12Z</time>
      </trkpt>
      <trkpt lat="42.43828" lon="0.06732">
        <ele>601.2</ele>
        <time>2016-07-31T11:52:13Z</time>
      </trkpt>
      <trkpt lat="42.43831" lon="0.06736">
        <ele>600.3</ele>
        <time>2016-07-31T11:52:14Z</time>
      </trkpt>
      <trkpt lat="42.43835" lon="0.06739">
        <ele>599.5</ele>
        <time>2016-07-31T11:52:15Z</time>
      </trkpt>
      <trkpt lat="42.4384" lon="0.0674">
        <ele>598.8</ele>
        <time>2016-07-31T11:52:16Z</time>
      </trkpt>
      <trkpt lat="42.43845" lon="0.0674">
        <ele>598.2</ele>
        <time>2016-07-31T11:52:17Z</time>
      </trkpt>
      <trkpt lat="42.4385" lon="0.06738">
        <ele>597.7</ele>
        <time>2016-07-31T11:52:18Z</time>
      </trkpt>
      <trkpt lat="42.43855" lon="0.06737">
        <ele>597.2</ele>
        <time>2016-07-31T11:52:19Z</time>
      </trkpt>
      <trkpt lat="42.4386" lon="0.06736">
        <ele>596.7</ele>
        <time>2016-07-31T11:52:20Z</time>
      </trkpt>
      <trkpt lat="42.43865" lon="0.06734">
        <ele>596.1</ele>
        <time>2016-07-31T11:52:21Z</time>
      </trkpt>
      <trkpt lat="42.4387" lon="0.06733">
        <ele>595.6</ele>
        <time>2016-07-31T11:52:22Z</time>
      </trkpt>
      <trkpt lat="42.43876" lon="0.06731">
        <ele>595.1</ele>
        <time>2016-07-31T11:52:23Z</time>
      </trkpt>
      <trkpt lat="42.43882" lon="0.06729">
        <ele>595.3</ele>
        <time>2016-07-31T11:52:24Z</time>
      </trkpt>
      <trkpt lat="42.43888" lon="0.06727">
        <ele>595.5</ele>
        <time>2016-07-31T11:52:25Z</time>
      </trkpt>
      <trkpt lat="42.43893" lon="0.06726">
        <ele>595.7</ele>
        <time>2016-07-31T11:52:26Z</time>
      </trkpt>
      <trkpt lat="42.43899" lon="0.06725">
        <ele>595.9</ele>
        <time>2016-07-31T11:52:27Z</time>
      </trkpt>
      <trkpt lat="42.43905" lon="0.06724">
        <ele>596.1</ele>
        <time>2016-07-31T11:52:28Z</time>
      </trkpt>
      <trkpt lat="42.43911" lon="0.06724">
        <ele>596.1</ele>
        <time>2016-07-31T11:52:29Z</time>
      </trkpt>
      <trkpt lat="42.43917" lon="0.06724">
        <ele>596.2</ele>
        <time>2016-07-31T11:52:30Z</time>
      </trkpt>
      <trkpt lat="42.43922" lon="0.06723">
        <ele>596.4</ele>
        <time>2016-07-31T11:52:31Z</time>
      </trkpt>
      <trkpt lat="42.43928" lon="0.06721">
        <ele>596.7</ele>
        <time>2016-07-31T11:52:32Z</time>
      </trkpt>
      <trkpt lat="42.43934" lon="0.06719">
        <ele>597</ele>
        <time>2016-07-31T11:52:33Z</time>
      </trkpt>
      <trkpt lat="42.43939" lon="0.06718">
        <ele>597.2</ele>
        <time>2016-07-31T11:52:34Z</time>
      </trkpt>
      <trkpt lat="42.43944" lon="0.06716">
        <ele>597.6</ele>
        <time>2016-07-31T11:52:35Z</time>
      </trkpt>
      <trkpt lat="42.43949" lon="0.06715">
        <ele>597.9</ele>
        <time>2016-07-31T11:52:36Z</time>
      </trkpt>
      <trkpt lat="42.43954" lon="0.06713">
        <ele>598.3</ele>
        <time>2016-07-31T11:52:37Z</time>
      </trkpt>
      <trkpt lat="42.43959" lon="0.0671">
        <ele>598.7</ele>
        <time>2016-07-31T11:52:38Z</time>
      </trkpt>
      <trkpt lat="42.43964" lon="0.0671">
        <ele>598.6</ele>
        <time>2016-07-31T11:52:39Z</time>
      </trkpt>
      <trkpt lat="42.43968" lon="0.06707">
        <ele>598.7</ele>
        <time>2016-07-31T11:52:40Z</time>
      </trkpt>
      <trkpt lat="42.43973" lon="0.06705">
        <ele>598.9</ele>
        <time>2016-07-31T11:52:41Z</time>
      </trkpt>
      <trkpt lat="42.43976" lon="0.06702">
        <ele>599</ele>
        <time>2016-07-31T11:52:42Z</time>
      </trkpt>
      <trkpt lat="42.4398" lon="0.067">
        <ele>599.1</ele>
        <time>2016-07-31T11:52:43Z</time>
      </trkpt>
      <trkpt lat="42.43983" lon="0.06694">
        <ele>599.6</ele>
        <time>2016-07-31T11:52:44Z</time>
      </trkpt>
      <trkpt lat="42.43987" lon="0.06692">
        <ele>599.7</ele>
        <time>2016-07-31T11:52:45Z</time>
      </trkpt>
      <trkpt lat="42.4399" lon="0.0669">
        <ele>599.7</ele>
        <time>2016-07-31T11:52:46Z</time>
      </trkpt>
      <trkpt lat="42.43993" lon="0.06688">
        <ele>599.9</ele>
        <time>2016-07-31T11:52:47Z</time>
      </trkpt>
      <trkpt lat="42.43995" lon="0.06686">
        <ele>600</ele>
        <time>2016-07-31T11:52:48Z</time>
      </trkpt>
      <trkpt lat="42.43998" lon="0.06684">
        <ele>600.1</ele>
        <time>2016-07-31T11:52:49Z</time>
      </trkpt>
      <trkpt lat="42.44001" lon="0.06683">
        <ele>600</ele>
        <time>2016-07-31T11:52:50Z</time>
      </trkpt>
      <trkpt lat="42.44004" lon="0.06682">
        <ele>600</ele>
        <time>2016-07-31T11:52:51Z</time>
      </trkpt>
      <trkpt lat="42.44009" lon="0.06682">
        <ele>599.8</ele>
        <time>2016-07-31T11:52:53Z</time>
      </trkpt>
      <trkpt lat="42.44012" lon="0.06682">
        <ele>599.7</ele>
        <time>2016-07-31T11:52:54Z</time>
      </trkpt>
      <trkpt lat="42.44015" lon="0.06683">
        <ele>599.4</ele>
        <time>2016-07-31T11:52:55Z</time>
      </trkpt>
      <trkpt lat="42.44019" lon="0.06685">
        <ele>599.2</ele>
        <time>2016-07-31T11:52:56Z</time>
      </trkpt>
      <trkpt lat="42.44023" lon="0.06686">
        <ele>598.9</ele>
        <time>2016-07-31T11:52:57Z</time>
      </trkpt>
      <trkpt lat="42.44029" lon="0.06687">
        <ele>598.6</ele>
        <time>2016-07-31T11:52:58Z</time>
      </trkpt>
      <trkpt lat="42.44035" lon="0.06686">
        <ele>598.4</ele>
        <time>2016-07-31T11:52:59Z</time>
      </trkpt>
      <trkpt lat="42.44042" lon="0.06688">
        <ele>598</ele>
        <time>2016-07-31T11:53:00Z</time>
      </trkpt>
      <trkpt lat="42.44049" lon="0.06688">
        <ele>597.8</ele>
        <time>2016-07-31T11:53:01Z</time>
      </trkpt>
      <trkpt lat="42.44055" lon="0.06687">
        <ele>597.8</ele>
        <time>2016-07-31T11:53:02Z</time>
      </trkpt>
      <trkpt lat="42.4406" lon="0.06687">
        <ele>597.7</ele>
        <time>2016-07-31T11:53:03Z</time>
      </trkpt>
      <trkpt lat="42.44066" lon="0.06687">
        <ele>597.7</ele>
        <time>2016-07-31T11:53:04Z</time>
      </trkpt>
      <trkpt lat="42.4407" lon="0.06687">
        <ele>597.6</ele>
        <time>2016-07-31T11:53:05Z</time>
      </trkpt>
      <trkpt lat="42.44074" lon="0.06686">
        <ele>597.6</ele>
        <time>2016-07-31T11:53:06Z</time>
      </trkpt>
      <trkpt lat="42.44078" lon="0.06685">
        <ele>597.7</ele>
        <time>2016-07-31T11:53:07Z</time>
      </trkpt>
      <trkpt lat="42.44082" lon="0.06685">
        <ele>597.6</ele>
        <time>2016-07-31T11:53:08Z</time>
      </trkpt>
      <trkpt lat="42.44085" lon="0.06685">
        <ele>597.6</ele>
        <time>2016-07-31T11:53:09Z</time>
      </trkpt>
      <trkpt lat="42.44088" lon="0.06686">
        <ele>597.4</ele>
        <time>2016-07-31T11:53:10Z</time>
      </trkpt>
      <trkpt lat="42.44091" lon="0.06686">
        <ele>597.4</ele>
        <time>2016-07-31T11:53:11Z</time>
      </trkpt>
      <trkpt lat="42.44094" lon="0.06686">
        <ele>597.4</ele>
        <time>2016-07-31T11:53:12Z</time>
      </trkpt>
      <trkpt lat="42.44097" lon="0.06685">
        <ele>597.4</ele>
        <time>2016-07-31T11:53:13Z</time>
      </trkpt>
      <trkpt lat="42.44101" lon="0.06685">
        <ele>597.3</ele>
        <time>2016-07-31T11:53:14Z</time>
      </trkpt>
      <trkpt lat="42.44104" lon="0.06686">
        <ele>597.2</ele>
        <time>2016-07-31T11:53:15Z</time>
      </trkpt>
      <trkpt lat="42.44108" lon="0.06686">
        <ele>597.1</ele>
        <time>2016-07-31T11:53:16Z</time>
      </trkpt>
      <trkpt lat="42.44111" lon="0.06687">
        <ele>597</ele>
        <time>2016-07-31T11:53:17Z</time>
      </trkpt>
      <trkpt lat="42.44114" lon="0.06687">
        <ele>597</ele>
        <time>2016-07-31T11:53:18Z</time>
      </trkpt>
      <trkpt lat="42.44118" lon="0.06687">
        <ele>596.9</ele>
        <time>2016-07-31T11:53:19Z</time>
      </trkpt>
      <trkpt lat="42.44122" lon="0.06687">
        <ele>596.8</ele>
        <time>2016-07-31T11:53:20Z</time>
      </trkpt>
      <trkpt lat="42.44125" lon="0.06687">
        <ele>596.8</ele>
        <time>2016-07-31T11:53:21Z</time>
      </trkpt>
      <trkpt lat="42.44129" lon="0.06687">
        <ele>596.8</ele>
        <time>2016-07-31T11:53:22Z</time>
      </trkpt>
      <trkpt lat="42.44132" lon="0.06686">
        <ele>596.9</ele>
        <time>2016-07-31T11:53:23Z</time>
      </trkpt>
      <trkpt lat="42.44136" lon="0.06685">
        <ele>597</ele>
        <time>2016-07-31T11:53:24Z</time>
      </trkpt>
      <trkpt lat="42.44139" lon="0.06684">
        <ele>597</ele>
        <time>2016-07-31T11:53:25Z</time>
      </trkpt>
      <trkpt lat="42.44143" lon="0.06683">
        <ele>597.1</ele>
        <time>2016-07-31T11:53:26Z</time>
      </trkpt>
      <trkpt lat="42.44146" lon="0.06683">
        <ele>597.2</ele>
        <time>2016-07-31T11:53:27Z</time>
      </trkpt>
      <trkpt lat="42.44149" lon="0.06682">
        <ele>597.2</ele>
        <time>2016-07-31T11:53:28Z</time>
      </trkpt>
      <trkpt lat="42.44153" lon="0.06682">
        <ele>597.3</ele>
        <time>2016-07-31T11:53:29Z</time>
      </trkpt>
      <trkpt lat="42.44156" lon="0.06681">
        <ele>597.3</ele>
        <time>2016-07-31T11:53:30Z</time>
      </trkpt>
      <trkpt lat="42.4416" lon="0.06681">
        <ele>597.3</ele>
        <time>2016-07-31T11:53:31Z</time>
      </trkpt>
      <trkpt lat="42.44164" lon="0.0668">
        <ele>597.3</ele>
        <time>2016-07-31T11:53:32Z</time>
      </trkpt>
      <trkpt lat="42.44169" lon="0.0668">
        <ele>597.4</ele>
        <time>2016-07-31T11:53:33Z</time>
      </trkpt>
      <trkpt lat="42.44174" lon="0.06678">
        <ele>597.5</ele>
        <time>2016-07-31T11:53:34Z</time>
      </trkpt>
      <trkpt lat="42.44178" lon="0.06676">
        <ele>597.6</ele>
        <time>2016-07-31T11:53:35Z</time>
      </trkpt>
      <trkpt lat="42.44183" lon="0.06675">
        <ele>597.7</ele>
        <time>2016-07-31T11:53:36Z</time>
      </trkpt>
      <trkpt lat="42.44187" lon="0.06674">
        <ele>597.7</ele>
        <time>2016-07-31T11:53:37Z</time>
      </trkpt>
      <trkpt lat="42.44192" lon="0.06673">
        <ele>597.7</ele>
        <time>2016-07-31T11:53:38Z</time>
      </trkpt>
      <trkpt lat="42.44197" lon="0.06672">
        <ele>597.8</ele>
        <time>2016-07-31T11:53:39Z</time>
      </trkpt>
      <trkpt lat="42.44202" lon="0.06672">
        <ele>597.8</ele>
        <time>2016-07-31T11:53:40Z</time>
      </trkpt>
      <trkpt lat="42.44207" lon="0.06671">
        <ele>597.8</ele>
        <time>2016-07-31T11:53:41Z</time>
      </trkpt>
      <trkpt lat="42.44212" lon="0.06669">
        <ele>597.9</ele>
        <time>2016-07-31T11:53:42Z</time>
      </trkpt>
      <trkpt lat="42.44217" lon="0.06667">
        <ele>598</ele>
        <time>2016-07-31T11:53:43Z</time>
      </trkpt>
      <trkpt lat="42.44221" lon="0.06664">
        <ele>598.1</ele>
        <time>2016-07-31T11:53:44Z</time>
      </trkpt>
      <trkpt lat="42.44225" lon="0.0666">
        <ele>598.3</ele>
        <time>2016-07-31T11:53:45Z</time>
      </trkpt>
      <trkpt lat="42.44228" lon="0.06657">
        <ele>598.4</ele>
        <time>2016-07-31T11:53:46Z</time>
      </trkpt>
      <trkpt lat="42.44232" lon="0.06654">
        <ele>598.6</ele>
        <time>2016-07-31T11:53:47Z</time>
      </trkpt>
      <trkpt lat="42.44235" lon="0.0665">
        <ele>598.8</ele>
        <time>2016-07-31T11:53:48Z</time>
      </trkpt>
      <trkpt lat="42.44239" lon="0.06646">
        <ele>599.1</ele>
        <time>2016-07-31T11:53:49Z</time>
      </trkpt>
      <trkpt lat="42.44242" lon="0.06643">
        <ele>599.3</ele>
        <time>2016-07-31T11:53:50Z</time>
      </trkpt>
      <trkpt lat="42.44246" lon="0.06639">
        <ele>599.6</ele>
        <time>2016-07-31T11:53:51Z</time>
      </trkpt>
      <trkpt lat="42.44249" lon="0.06635">
        <ele>599.8</ele>
        <time>2016-07-31T11:53:52Z</time>
      </trkpt>
      <trkpt lat="42.44253" lon="0.06632">
        <ele>600.1</ele>
        <time>2016-07-31T11:53:53Z</time>
      </trkpt>
      <trkpt lat="42.44256" lon="0.06628">
        <ele>600.4</ele>
        <time>2016-07-31T11:53:54Z</time>
      </trkpt>
      <trkpt lat="42.44259" lon="0.06624">
        <ele>600.7</ele>
        <time>2016-07-31T11:53:55Z</time>
      </trkpt>
      <trkpt lat="42.44263" lon="0.0662">
        <ele>601.1</ele>
        <time>2016-07-31T11:53:56Z</time>
      </trkpt>
      <trkpt lat="42.44267" lon="0.06616">
        <ele>601.5</ele>
        <time>2016-07-31T11:53:57Z</time>
      </trkpt>
      <trkpt lat="42.4427" lon="0.06613">
        <ele>601.8</ele>
        <time>2016-07-31T11:53:58Z</time>
      </trkpt>
      <trkpt lat="42.44274" lon="0.06609">
        <ele>602.2</ele>
        <time>2016-07-31T11:53:59Z</time>
      </trkpt>
      <trkpt lat="42.44278" lon="0.06606">
        <ele>602.5</ele>
        <time>2016-07-31T11:54:00Z</time>
      </trkpt>
      <trkpt lat="42.44282" lon="0.06602">
        <ele>602.9</ele>
        <time>2016-07-31T11:54:01Z</time>
      </trkpt>
      <trkpt lat="42.44286" lon="0.06598">
        <ele>603.2</ele>
        <time>2016-07-31T11:54:02Z</time>
      </trkpt>
      <trkpt lat="42.4429" lon="0.06594">
        <ele>603.6</ele>
        <time>2016-07-31T11:54:03Z</time>
      </trkpt>
      <trkpt lat="42.44294" lon="0.0659">
        <ele>603.8</ele>
        <time>2016-07-31T11:54:04Z</time>
      </trkpt>
      <trkpt lat="42.44299" lon="0.06586">
        <ele>603.8</ele>
        <time>2016-07-31T11:54:05Z</time>
      </trkpt>
      <trkpt lat="42.44304" lon="0.06581">
        <ele>603.9</ele>
        <time>2016-07-31T11:54:06Z</time>
      </trkpt>
      <trkpt lat="42.44308" lon="0.06577">
        <ele>603.9</ele>
        <time>2016-07-31T11:54:07Z</time>
      </trkpt>
      <trkpt lat="42.44313" lon="0.06573">
        <ele>604</ele>
        <time>2016-07-31T11:54:08Z</time>
      </trkpt>
      <trkpt lat="42.44317" lon="0.06569">
        <ele>604</ele>
        <time>2016-07-31T11:54:09Z</time>
      </trkpt>
      <trkpt lat="42.4432" lon="0.06567">
        <ele>603.9</ele>
        <time>2016-07-31T11:54:10Z</time>
      </trkpt>
      <trkpt lat="42.44323" lon="0.06565">
        <ele>603.8</ele>
        <time>2016-07-31T11:54:11Z</time>
      </trkpt>
      <trkpt lat="42.44327" lon="0.06565">
        <ele>603.7</ele>
        <time>2016-07-31T11:54:12Z</time>
      </trkpt>
      <trkpt lat="42.4433" lon="0.06565">
        <ele>603.5</ele>
        <time>2016-07-31T11:54:13Z</time>
      </trkpt>
      <trkpt lat="42.44334" lon="0.06565">
        <ele>603.2</ele>
        <time>2016-07-31T11:54:15Z</time>
      </trkpt>
      <trkpt lat="42.44337" lon="0.06567">
        <ele>602.8</ele>
        <time>2016-07-31T11:54:29Z</time>
      </trkpt>
    </trkseg>
  </trk>
</gpx>